<?xml version="1.0" encoding="UTF-8" standalone="no" ?>
<gpx xmlns="http://www.topografix.com/GPX/1/1" xmlns:xsi="http://www.w3.org/2001/XMLSchema-instance" xsi:schemaLocation="http://www.topografix.com/GPX/1/1 http://www.topografix.com/GPX/1/1/gpx.xsd" version="1.1" creator="VisuGPX - https://www.visugpx.com">
  <metadata>
    <name>La Ferrière Trail - SkyRace Rocher Blanc (Parcours de repli)</name>
    <desc><![CDATA[Parcours de repli pour la SKyRace du Rocher Blanc a cause des intemperies]]></desc>
  </metadata>
  <trk>
    <name><![CDATA[La Ferrière Trail - SkyRace Rocher Blanc (Parcours de repli)]]></name>
    <trkseg>
      <trkpt lat="45.28553" lon="6.07499">
        <ele>1051.5999755859</ele>
        <time>2026-08-21T09:04:44.000Z</time>
      </trkpt>
      <trkpt lat="45.28553" lon="6.07499">
        <ele>1051.5999755859</ele>
        <time>2026-08-21T09:04:45.000Z</time>
      </trkpt>
      <trkpt lat="45.28555" lon="6.07499">
        <ele>1051.5999755859</ele>
        <time>2026-08-21T09:04:46.000Z</time>
      </trkpt>
      <trkpt lat="45.28557" lon="6.07498">
        <ele>1051.5999755859</ele>
        <time>2026-08-21T09:04:47.000Z</time>
      </trkpt>
      <trkpt lat="45.2856" lon="6.07497">
        <ele>1051.5999755859</ele>
        <time>2026-08-21T09:04:48.000Z</time>
      </trkpt>
      <trkpt lat="45.28562" lon="6.07496">
        <ele>1051.5999755859</ele>
        <time>2026-08-21T09:04:49.000Z</time>
      </trkpt>
      <trkpt lat="45.28565" lon="6.07494">
        <ele>1051.5999755859</ele>
        <time>2026-08-21T09:04:50.000Z</time>
      </trkpt>
      <trkpt lat="45.28568" lon="6.07493">
        <ele>1051.4000244141</ele>
        <time>2026-08-21T09:04:51.000Z</time>
      </trkpt>
      <trkpt lat="45.28571" lon="6.07492">
        <ele>1051.4000244141</ele>
        <time>2026-08-21T09:04:52.000Z</time>
      </trkpt>
      <trkpt lat="45.28574" lon="6.0749">
        <ele>1051.1999511719</ele>
        <time>2026-08-21T09:04:53.000Z</time>
      </trkpt>
      <trkpt lat="45.28577" lon="6.07489">
        <ele>1051.1999511719</ele>
        <time>2026-08-21T09:04:54.000Z</time>
      </trkpt>
      <trkpt lat="45.28579" lon="6.07488">
        <ele>1050.8000488281</ele>
        <time>2026-08-21T09:04:55.000Z</time>
      </trkpt>
      <trkpt lat="45.28581" lon="6.07486">
        <ele>1050.8000488281</ele>
        <time>2026-08-21T09:04:56.000Z</time>
      </trkpt>
      <trkpt lat="45.28583" lon="6.07485">
        <ele>1050.5999755859</ele>
        <time>2026-08-21T09:04:57.000Z</time>
      </trkpt>
      <trkpt lat="45.28584" lon="6.07482">
        <ele>1050.4000244141</ele>
        <time>2026-08-21T09:04:58.000Z</time>
      </trkpt>
      <trkpt lat="45.28584" lon="6.07479">
        <ele>1050.4000244141</ele>
        <time>2026-08-21T09:04:59.000Z</time>
      </trkpt>
      <trkpt lat="45.28584" lon="6.07475">
        <ele>1050.4000244141</ele>
        <time>2026-08-21T09:05:00.000Z</time>
      </trkpt>
      <trkpt lat="45.28584" lon="6.07471">
        <ele>1050.4000244141</ele>
        <time>2026-08-21T09:05:01.000Z</time>
      </trkpt>
      <trkpt lat="45.28584" lon="6.07466">
        <ele>1050.8000488281</ele>
        <time>2026-08-21T09:05:02.000Z</time>
      </trkpt>
      <trkpt lat="45.28584" lon="6.07463">
        <ele>1050.8000488281</ele>
        <time>2026-08-21T09:05:03.000Z</time>
      </trkpt>
      <trkpt lat="45.28585" lon="6.07458">
        <ele>1051.1999511719</ele>
        <time>2026-08-21T09:05:04.000Z</time>
      </trkpt>
      <trkpt lat="45.28586" lon="6.07454">
        <ele>1051.4000244141</ele>
        <time>2026-08-21T09:05:05.000Z</time>
      </trkpt>
      <trkpt lat="45.28586" lon="6.07449">
        <ele>1051.4000244141</ele>
        <time>2026-08-21T09:05:06.000Z</time>
      </trkpt>
      <trkpt lat="45.28586" lon="6.07445">
        <ele>1051.5999755859</ele>
        <time>2026-08-21T09:05:07.000Z</time>
      </trkpt>
      <trkpt lat="45.28586" lon="6.07441">
        <ele>1051.4000244141</ele>
        <time>2026-08-21T09:05:08.000Z</time>
      </trkpt>
      <trkpt lat="45.28586" lon="6.07436">
        <ele>1051.4000244141</ele>
        <time>2026-08-21T09:05:09.000Z</time>
      </trkpt>
      <trkpt lat="45.28586" lon="6.07433">
        <ele>1051.1999511719</ele>
        <time>2026-08-21T09:05:10.000Z</time>
      </trkpt>
      <trkpt lat="45.28586" lon="6.07428">
        <ele>1051.1999511719</ele>
        <time>2026-08-21T09:05:11.000Z</time>
      </trkpt>
      <trkpt lat="45.28586" lon="6.07425">
        <ele>1051.1999511719</ele>
        <time>2026-08-21T09:05:12.000Z</time>
      </trkpt>
      <trkpt lat="45.28587" lon="6.0742">
        <ele>1051.1999511719</ele>
        <time>2026-08-21T09:05:13.000Z</time>
      </trkpt>
      <trkpt lat="45.28587" lon="6.07417">
        <ele>1051</ele>
        <time>2026-08-21T09:05:14.000Z</time>
      </trkpt>
      <trkpt lat="45.28587" lon="6.07412">
        <ele>1051</ele>
        <time>2026-08-21T09:05:15.000Z</time>
      </trkpt>
      <trkpt lat="45.28588" lon="6.07408">
        <ele>1051</ele>
        <time>2026-08-21T09:05:16.000Z</time>
      </trkpt>
      <trkpt lat="45.28589" lon="6.07404">
        <ele>1051.1999511719</ele>
        <time>2026-08-21T09:05:17.000Z</time>
      </trkpt>
      <trkpt lat="45.2859" lon="6.07401">
        <ele>1051.1999511719</ele>
        <time>2026-08-21T09:05:18.000Z</time>
      </trkpt>
      <trkpt lat="45.28592" lon="6.07397">
        <ele>1051.4000244141</ele>
        <time>2026-08-21T09:05:19.000Z</time>
      </trkpt>
      <trkpt lat="45.28593" lon="6.07393">
        <ele>1051.5999755859</ele>
        <time>2026-08-21T09:05:20.000Z</time>
      </trkpt>
      <trkpt lat="45.28595" lon="6.0739">
        <ele>1051.8000488281</ele>
        <time>2026-08-21T09:05:21.000Z</time>
      </trkpt>
      <trkpt lat="45.28597" lon="6.07387">
        <ele>1052</ele>
        <time>2026-08-21T09:05:22.000Z</time>
      </trkpt>
      <trkpt lat="45.28599" lon="6.07385">
        <ele>1052.1999511719</ele>
        <time>2026-08-21T09:05:23.000Z</time>
      </trkpt>
      <trkpt lat="45.28601" lon="6.07383">
        <ele>1052.4000244141</ele>
        <time>2026-08-21T09:05:24.000Z</time>
      </trkpt>
      <trkpt lat="45.28604" lon="6.07382">
        <ele>1052.8000488281</ele>
        <time>2026-08-21T09:05:25.000Z</time>
      </trkpt>
      <trkpt lat="45.28607" lon="6.0738">
        <ele>1053</ele>
        <time>2026-08-21T09:05:26.000Z</time>
      </trkpt>
      <trkpt lat="45.28609" lon="6.07379">
        <ele>1053</ele>
        <time>2026-08-21T09:05:27.000Z</time>
      </trkpt>
      <trkpt lat="45.28612" lon="6.07378">
        <ele>1053.1999511719</ele>
        <time>2026-08-21T09:05:28.000Z</time>
      </trkpt>
      <trkpt lat="45.28615" lon="6.07377">
        <ele>1053.4000244141</ele>
        <time>2026-08-21T09:05:29.000Z</time>
      </trkpt>
      <trkpt lat="45.28618" lon="6.07376">
        <ele>1053.4000244141</ele>
        <time>2026-08-21T09:05:30.000Z</time>
      </trkpt>
      <trkpt lat="45.2862" lon="6.07375">
        <ele>1053.5999755859</ele>
        <time>2026-08-21T09:05:31.000Z</time>
      </trkpt>
      <trkpt lat="45.28623" lon="6.07373">
        <ele>1053.8000488281</ele>
        <time>2026-08-21T09:05:32.000Z</time>
      </trkpt>
      <trkpt lat="45.28625" lon="6.07371">
        <ele>1053.8000488281</ele>
        <time>2026-08-21T09:05:33.000Z</time>
      </trkpt>
      <trkpt lat="45.28626" lon="6.07368">
        <ele>1054</ele>
        <time>2026-08-21T09:05:34.000Z</time>
      </trkpt>
      <trkpt lat="45.28625" lon="6.07365">
        <ele>1054.1999511719</ele>
        <time>2026-08-21T09:05:35.000Z</time>
      </trkpt>
      <trkpt lat="45.28623" lon="6.07363">
        <ele>1054.4000244141</ele>
        <time>2026-08-21T09:05:36.000Z</time>
      </trkpt>
      <trkpt lat="45.28621" lon="6.07363">
        <ele>1054.8000488281</ele>
        <time>2026-08-21T09:05:37.000Z</time>
      </trkpt>
      <trkpt lat="45.28619" lon="6.07364">
        <ele>1055</ele>
        <time>2026-08-21T09:05:38.000Z</time>
      </trkpt>
      <trkpt lat="45.28616" lon="6.07364">
        <ele>1055.1999511719</ele>
        <time>2026-08-21T09:05:39.000Z</time>
      </trkpt>
      <trkpt lat="45.28613" lon="6.07365">
        <ele>1055.5999755859</ele>
        <time>2026-08-21T09:05:40.000Z</time>
      </trkpt>
      <trkpt lat="45.28611" lon="6.07365">
        <ele>1055.8000488281</ele>
        <time>2026-08-21T09:05:41.000Z</time>
      </trkpt>
      <trkpt lat="45.28608" lon="6.07364">
        <ele>1056</ele>
        <time>2026-08-21T09:05:42.000Z</time>
      </trkpt>
      <trkpt lat="45.28606" lon="6.07363">
        <ele>1056</ele>
        <time>2026-08-21T09:05:43.000Z</time>
      </trkpt>
      <trkpt lat="45.28604" lon="6.07362">
        <ele>1056.1999511719</ele>
        <time>2026-08-21T09:05:44.000Z</time>
      </trkpt>
      <trkpt lat="45.28601" lon="6.0736">
        <ele>1056.5999755859</ele>
        <time>2026-08-21T09:05:45.000Z</time>
      </trkpt>
      <trkpt lat="45.286" lon="6.07359">
        <ele>1056.8000488281</ele>
        <time>2026-08-21T09:05:46.000Z</time>
      </trkpt>
      <trkpt lat="45.28597" lon="6.07356">
        <ele>1057</ele>
        <time>2026-08-21T09:05:47.000Z</time>
      </trkpt>
      <trkpt lat="45.28595" lon="6.07355">
        <ele>1057.1999511719</ele>
        <time>2026-08-21T09:05:48.000Z</time>
      </trkpt>
      <trkpt lat="45.28593" lon="6.07353">
        <ele>1057.5999755859</ele>
        <time>2026-08-21T09:05:49.000Z</time>
      </trkpt>
      <trkpt lat="45.28591" lon="6.07351">
        <ele>1057.8000488281</ele>
        <time>2026-08-21T09:05:50.000Z</time>
      </trkpt>
      <trkpt lat="45.28589" lon="6.0735">
        <ele>1058</ele>
        <time>2026-08-21T09:05:51.000Z</time>
      </trkpt>
      <trkpt lat="45.28587" lon="6.07347">
        <ele>1058.1999511719</ele>
        <time>2026-08-21T09:05:52.000Z</time>
      </trkpt>
      <trkpt lat="45.28586" lon="6.07345">
        <ele>1058.4000244141</ele>
        <time>2026-08-21T09:05:53.000Z</time>
      </trkpt>
      <trkpt lat="45.28584" lon="6.07343">
        <ele>1058.8000488281</ele>
        <time>2026-08-21T09:05:54.000Z</time>
      </trkpt>
      <trkpt lat="45.28582" lon="6.07341">
        <ele>1059</ele>
        <time>2026-08-21T09:05:55.000Z</time>
      </trkpt>
      <trkpt lat="45.2858" lon="6.07339">
        <ele>1059.1999511719</ele>
        <time>2026-08-21T09:05:56.000Z</time>
      </trkpt>
      <trkpt lat="45.28579" lon="6.07337">
        <ele>1059.4000244141</ele>
        <time>2026-08-21T09:05:57.000Z</time>
      </trkpt>
      <trkpt lat="45.28577" lon="6.07335">
        <ele>1059.8000488281</ele>
        <time>2026-08-21T09:05:58.000Z</time>
      </trkpt>
      <trkpt lat="45.28575" lon="6.07334">
        <ele>1060</ele>
        <time>2026-08-21T09:05:59.000Z</time>
      </trkpt>
      <trkpt lat="45.28573" lon="6.07332">
        <ele>1060.1999511719</ele>
        <time>2026-08-21T09:06:00.000Z</time>
      </trkpt>
      <trkpt lat="45.28572" lon="6.0733">
        <ele>1060.1999511719</ele>
        <time>2026-08-21T09:06:01.000Z</time>
      </trkpt>
      <trkpt lat="45.2857" lon="6.07329">
        <ele>1060.5999755859</ele>
        <time>2026-08-21T09:06:02.000Z</time>
      </trkpt>
      <trkpt lat="45.28568" lon="6.07327">
        <ele>1060.8000488281</ele>
        <time>2026-08-21T09:06:03.000Z</time>
      </trkpt>
      <trkpt lat="45.28566" lon="6.07326">
        <ele>1061</ele>
        <time>2026-08-21T09:06:04.000Z</time>
      </trkpt>
      <trkpt lat="45.28563" lon="6.07325">
        <ele>1061.4000244141</ele>
        <time>2026-08-21T09:06:05.000Z</time>
      </trkpt>
      <trkpt lat="45.28561" lon="6.07324">
        <ele>1061.5999755859</ele>
        <time>2026-08-21T09:06:06.000Z</time>
      </trkpt>
      <trkpt lat="45.28559" lon="6.07322">
        <ele>1061.8000488281</ele>
        <time>2026-08-21T09:06:07.000Z</time>
      </trkpt>
      <trkpt lat="45.28557" lon="6.07321">
        <ele>1062</ele>
        <time>2026-08-21T09:06:08.000Z</time>
      </trkpt>
      <trkpt lat="45.28555" lon="6.0732">
        <ele>1062.4000244141</ele>
        <time>2026-08-21T09:06:09.000Z</time>
      </trkpt>
      <trkpt lat="45.28554" lon="6.07319">
        <ele>1062.5999755859</ele>
        <time>2026-08-21T09:06:10.000Z</time>
      </trkpt>
      <trkpt lat="45.28552" lon="6.07318">
        <ele>1063</ele>
        <time>2026-08-21T09:06:11.000Z</time>
      </trkpt>
      <trkpt lat="45.2855" lon="6.07317">
        <ele>1063.4000244141</ele>
        <time>2026-08-21T09:06:12.000Z</time>
      </trkpt>
      <trkpt lat="45.28548" lon="6.07316">
        <ele>1063.5999755859</ele>
        <time>2026-08-21T09:06:13.000Z</time>
      </trkpt>
      <trkpt lat="45.28545" lon="6.07315">
        <ele>1064</ele>
        <time>2026-08-21T09:06:14.000Z</time>
      </trkpt>
      <trkpt lat="45.28544" lon="6.07314">
        <ele>1064.1999511719</ele>
        <time>2026-08-21T09:06:15.000Z</time>
      </trkpt>
      <trkpt lat="45.28541" lon="6.07313">
        <ele>1064.4000244141</ele>
        <time>2026-08-21T09:06:16.000Z</time>
      </trkpt>
      <trkpt lat="45.28539" lon="6.07312">
        <ele>1064.5999755859</ele>
        <time>2026-08-21T09:06:17.000Z</time>
      </trkpt>
      <trkpt lat="45.28537" lon="6.07311">
        <ele>1064.8000488281</ele>
        <time>2026-08-21T09:06:18.000Z</time>
      </trkpt>
      <trkpt lat="45.28535" lon="6.07311">
        <ele>1065.1999511719</ele>
        <time>2026-08-21T09:06:19.000Z</time>
      </trkpt>
      <trkpt lat="45.28533" lon="6.0731">
        <ele>1065.4000244141</ele>
        <time>2026-08-21T09:06:20.000Z</time>
      </trkpt>
      <trkpt lat="45.28531" lon="6.0731">
        <ele>1065.8000488281</ele>
        <time>2026-08-21T09:06:21.000Z</time>
      </trkpt>
      <trkpt lat="45.28529" lon="6.07309">
        <ele>1066.1999511719</ele>
        <time>2026-08-21T09:06:22.000Z</time>
      </trkpt>
      <trkpt lat="45.28528" lon="6.07308">
        <ele>1066.4000244141</ele>
        <time>2026-08-21T09:06:23.000Z</time>
      </trkpt>
      <trkpt lat="45.28526" lon="6.07308">
        <ele>1066.5999755859</ele>
        <time>2026-08-21T09:06:24.000Z</time>
      </trkpt>
      <trkpt lat="45.28523" lon="6.07307">
        <ele>1067</ele>
        <time>2026-08-21T09:06:25.000Z</time>
      </trkpt>
      <trkpt lat="45.28522" lon="6.07307">
        <ele>1067.1999511719</ele>
        <time>2026-08-21T09:06:26.000Z</time>
      </trkpt>
      <trkpt lat="45.2852" lon="6.07307">
        <ele>1067.4000244141</ele>
        <time>2026-08-21T09:06:27.000Z</time>
      </trkpt>
      <trkpt lat="45.28518" lon="6.07307">
        <ele>1067.5999755859</ele>
        <time>2026-08-21T09:06:28.000Z</time>
      </trkpt>
      <trkpt lat="45.28515" lon="6.07306">
        <ele>1067.8000488281</ele>
        <time>2026-08-21T09:06:29.000Z</time>
      </trkpt>
      <trkpt lat="45.28513" lon="6.07306">
        <ele>1068</ele>
        <time>2026-08-21T09:06:30.000Z</time>
      </trkpt>
      <trkpt lat="45.28511" lon="6.07306">
        <ele>1068.1999511719</ele>
        <time>2026-08-21T09:06:31.000Z</time>
      </trkpt>
      <trkpt lat="45.28509" lon="6.07307">
        <ele>1068.5999755859</ele>
        <time>2026-08-21T09:06:32.000Z</time>
      </trkpt>
      <trkpt lat="45.28507" lon="6.07307">
        <ele>1068.8000488281</ele>
        <time>2026-08-21T09:06:33.000Z</time>
      </trkpt>
      <trkpt lat="45.28505" lon="6.07307">
        <ele>1069</ele>
        <time>2026-08-21T09:06:34.000Z</time>
      </trkpt>
      <trkpt lat="45.28503" lon="6.07307">
        <ele>1069.1999511719</ele>
        <time>2026-08-21T09:06:35.000Z</time>
      </trkpt>
      <trkpt lat="45.28501" lon="6.07308">
        <ele>1069.5999755859</ele>
        <time>2026-08-21T09:06:36.000Z</time>
      </trkpt>
      <trkpt lat="45.28499" lon="6.07308">
        <ele>1070</ele>
        <time>2026-08-21T09:06:37.000Z</time>
      </trkpt>
      <trkpt lat="45.28497" lon="6.07308">
        <ele>1070.1999511719</ele>
        <time>2026-08-21T09:06:38.000Z</time>
      </trkpt>
      <trkpt lat="45.28495" lon="6.07309">
        <ele>1070.5999755859</ele>
        <time>2026-08-21T09:06:39.000Z</time>
      </trkpt>
      <trkpt lat="45.28493" lon="6.07309">
        <ele>1070.8000488281</ele>
        <time>2026-08-21T09:06:40.000Z</time>
      </trkpt>
      <trkpt lat="45.28491" lon="6.0731">
        <ele>1071</ele>
        <time>2026-08-21T09:06:41.000Z</time>
      </trkpt>
      <trkpt lat="45.28489" lon="6.0731">
        <ele>1071.4000244141</ele>
        <time>2026-08-21T09:06:42.000Z</time>
      </trkpt>
      <trkpt lat="45.28487" lon="6.07311">
        <ele>1071.5999755859</ele>
        <time>2026-08-21T09:06:43.000Z</time>
      </trkpt>
      <trkpt lat="45.28485" lon="6.07311">
        <ele>1072.1999511719</ele>
        <time>2026-08-21T09:06:44.000Z</time>
      </trkpt>
      <trkpt lat="45.28482" lon="6.07311">
        <ele>1072.4000244141</ele>
        <time>2026-08-21T09:06:45.000Z</time>
      </trkpt>
      <trkpt lat="45.2848" lon="6.07312">
        <ele>1072.5999755859</ele>
        <time>2026-08-21T09:06:46.000Z</time>
      </trkpt>
      <trkpt lat="45.28478" lon="6.07312">
        <ele>1072.8000488281</ele>
        <time>2026-08-21T09:06:47.000Z</time>
      </trkpt>
      <trkpt lat="45.28476" lon="6.07312">
        <ele>1073</ele>
        <time>2026-08-21T09:06:48.000Z</time>
      </trkpt>
      <trkpt lat="45.28474" lon="6.07313">
        <ele>1073.1999511719</ele>
        <time>2026-08-21T09:06:49.000Z</time>
      </trkpt>
      <trkpt lat="45.28472" lon="6.07313">
        <ele>1073.4000244141</ele>
        <time>2026-08-21T09:06:50.000Z</time>
      </trkpt>
      <trkpt lat="45.28469" lon="6.07313">
        <ele>1073.4000244141</ele>
        <time>2026-08-21T09:06:51.000Z</time>
      </trkpt>
      <trkpt lat="45.28467" lon="6.07314">
        <ele>1073.5999755859</ele>
        <time>2026-08-21T09:06:52.000Z</time>
      </trkpt>
      <trkpt lat="45.28465" lon="6.07314">
        <ele>1073.8000488281</ele>
        <time>2026-08-21T09:06:53.000Z</time>
      </trkpt>
      <trkpt lat="45.28463" lon="6.07315">
        <ele>1074</ele>
        <time>2026-08-21T09:06:54.000Z</time>
      </trkpt>
      <trkpt lat="45.28461" lon="6.07315">
        <ele>1074</ele>
        <time>2026-08-21T09:06:55.000Z</time>
      </trkpt>
      <trkpt lat="45.28459" lon="6.07316">
        <ele>1074.1999511719</ele>
        <time>2026-08-21T09:06:56.000Z</time>
      </trkpt>
      <trkpt lat="45.28456" lon="6.07316">
        <ele>1074.5999755859</ele>
        <time>2026-08-21T09:06:57.000Z</time>
      </trkpt>
      <trkpt lat="45.28454" lon="6.07316">
        <ele>1074.8000488281</ele>
        <time>2026-08-21T09:06:58.000Z</time>
      </trkpt>
      <trkpt lat="45.28452" lon="6.07317">
        <ele>1075.1999511719</ele>
        <time>2026-08-21T09:06:59.000Z</time>
      </trkpt>
      <trkpt lat="45.2845" lon="6.07317">
        <ele>1075.4000244141</ele>
        <time>2026-08-21T09:07:00.000Z</time>
      </trkpt>
      <trkpt lat="45.28448" lon="6.07318">
        <ele>1075.8000488281</ele>
        <time>2026-08-21T09:07:01.000Z</time>
      </trkpt>
      <trkpt lat="45.28446" lon="6.07319">
        <ele>1076</ele>
        <time>2026-08-21T09:07:02.000Z</time>
      </trkpt>
      <trkpt lat="45.28445" lon="6.07319">
        <ele>1076.1999511719</ele>
        <time>2026-08-21T09:07:03.000Z</time>
      </trkpt>
      <trkpt lat="45.28443" lon="6.0732">
        <ele>1076.1999511719</ele>
        <time>2026-08-21T09:07:04.000Z</time>
      </trkpt>
      <trkpt lat="45.28441" lon="6.0732">
        <ele>1076.4000244141</ele>
        <time>2026-08-21T09:07:05.000Z</time>
      </trkpt>
      <trkpt lat="45.28439" lon="6.07321">
        <ele>1076.5999755859</ele>
        <time>2026-08-21T09:07:06.000Z</time>
      </trkpt>
      <trkpt lat="45.28437" lon="6.07322">
        <ele>1076.8000488281</ele>
        <time>2026-08-21T09:07:07.000Z</time>
      </trkpt>
      <trkpt lat="45.28434" lon="6.07323">
        <ele>1076.8000488281</ele>
        <time>2026-08-21T09:07:08.000Z</time>
      </trkpt>
      <trkpt lat="45.28432" lon="6.07324">
        <ele>1077</ele>
        <time>2026-08-21T09:07:09.000Z</time>
      </trkpt>
      <trkpt lat="45.2843" lon="6.07325">
        <ele>1077</ele>
        <time>2026-08-21T09:07:10.000Z</time>
      </trkpt>
      <trkpt lat="45.28428" lon="6.07325">
        <ele>1077.1999511719</ele>
        <time>2026-08-21T09:07:11.000Z</time>
      </trkpt>
      <trkpt lat="45.28426" lon="6.07326">
        <ele>1077.4000244141</ele>
        <time>2026-08-21T09:07:12.000Z</time>
      </trkpt>
      <trkpt lat="45.28423" lon="6.07327">
        <ele>1077.5999755859</ele>
        <time>2026-08-21T09:07:13.000Z</time>
      </trkpt>
      <trkpt lat="45.28421" lon="6.07328">
        <ele>1077.5999755859</ele>
        <time>2026-08-21T09:07:14.000Z</time>
      </trkpt>
      <trkpt lat="45.28419" lon="6.07328">
        <ele>1077.8000488281</ele>
        <time>2026-08-21T09:07:15.000Z</time>
      </trkpt>
      <trkpt lat="45.28417" lon="6.07329">
        <ele>1078</ele>
        <time>2026-08-21T09:07:16.000Z</time>
      </trkpt>
      <trkpt lat="45.28415" lon="6.07329">
        <ele>1078.1999511719</ele>
        <time>2026-08-21T09:07:17.000Z</time>
      </trkpt>
      <trkpt lat="45.28412" lon="6.0733">
        <ele>1078.1999511719</ele>
        <time>2026-08-21T09:07:18.000Z</time>
      </trkpt>
      <trkpt lat="45.2841" lon="6.07331">
        <ele>1078.4000244141</ele>
        <time>2026-08-21T09:07:19.000Z</time>
      </trkpt>
      <trkpt lat="45.28408" lon="6.07332">
        <ele>1078.4000244141</ele>
        <time>2026-08-21T09:07:20.000Z</time>
      </trkpt>
      <trkpt lat="45.28405" lon="6.07332">
        <ele>1078.4000244141</ele>
        <time>2026-08-21T09:07:21.000Z</time>
      </trkpt>
      <trkpt lat="45.28403" lon="6.07333">
        <ele>1078.4000244141</ele>
        <time>2026-08-21T09:07:22.000Z</time>
      </trkpt>
      <trkpt lat="45.28401" lon="6.07334">
        <ele>1078.4000244141</ele>
        <time>2026-08-21T09:07:23.000Z</time>
      </trkpt>
      <trkpt lat="45.28399" lon="6.07335">
        <ele>1078.4000244141</ele>
        <time>2026-08-21T09:07:24.000Z</time>
      </trkpt>
      <trkpt lat="45.28396" lon="6.07335">
        <ele>1078.4000244141</ele>
        <time>2026-08-21T09:07:25.000Z</time>
      </trkpt>
      <trkpt lat="45.28394" lon="6.07336">
        <ele>1078.5999755859</ele>
        <time>2026-08-21T09:07:26.000Z</time>
      </trkpt>
      <trkpt lat="45.28391" lon="6.07336">
        <ele>1078.5999755859</ele>
        <time>2026-08-21T09:07:27.000Z</time>
      </trkpt>
      <trkpt lat="45.28389" lon="6.07337">
        <ele>1078.8000488281</ele>
        <time>2026-08-21T09:07:28.000Z</time>
      </trkpt>
      <trkpt lat="45.28386" lon="6.07337">
        <ele>1079</ele>
        <time>2026-08-21T09:07:29.000Z</time>
      </trkpt>
      <trkpt lat="45.28384" lon="6.07338">
        <ele>1079</ele>
        <time>2026-08-21T09:07:30.000Z</time>
      </trkpt>
      <trkpt lat="45.28381" lon="6.07337">
        <ele>1079</ele>
        <time>2026-08-21T09:07:31.000Z</time>
      </trkpt>
      <trkpt lat="45.28379" lon="6.07337">
        <ele>1079</ele>
        <time>2026-08-21T09:07:32.000Z</time>
      </trkpt>
      <trkpt lat="45.28376" lon="6.07337">
        <ele>1079</ele>
        <time>2026-08-21T09:07:33.000Z</time>
      </trkpt>
      <trkpt lat="45.28374" lon="6.07336">
        <ele>1079</ele>
        <time>2026-08-21T09:07:34.000Z</time>
      </trkpt>
      <trkpt lat="45.28371" lon="6.07336">
        <ele>1078.8000488281</ele>
        <time>2026-08-21T09:07:35.000Z</time>
      </trkpt>
      <trkpt lat="45.28369" lon="6.07335">
        <ele>1078.8000488281</ele>
        <time>2026-08-21T09:07:36.000Z</time>
      </trkpt>
      <trkpt lat="45.28367" lon="6.07335">
        <ele>1078.5999755859</ele>
        <time>2026-08-21T09:07:37.000Z</time>
      </trkpt>
      <trkpt lat="45.28364" lon="6.07334">
        <ele>1078.5999755859</ele>
        <time>2026-08-21T09:07:38.000Z</time>
      </trkpt>
      <trkpt lat="45.28362" lon="6.07333">
        <ele>1078.5999755859</ele>
        <time>2026-08-21T09:07:39.000Z</time>
      </trkpt>
      <trkpt lat="45.2836" lon="6.07332">
        <ele>1078.5999755859</ele>
        <time>2026-08-21T09:07:40.000Z</time>
      </trkpt>
      <trkpt lat="45.28357" lon="6.07331">
        <ele>1078.5999755859</ele>
        <time>2026-08-21T09:07:41.000Z</time>
      </trkpt>
      <trkpt lat="45.28355" lon="6.0733">
        <ele>1078.5999755859</ele>
        <time>2026-08-21T09:07:42.000Z</time>
      </trkpt>
      <trkpt lat="45.28352" lon="6.07329">
        <ele>1078.4000244141</ele>
        <time>2026-08-21T09:07:43.000Z</time>
      </trkpt>
      <trkpt lat="45.28349" lon="6.07328">
        <ele>1078.1999511719</ele>
        <time>2026-08-21T09:07:44.000Z</time>
      </trkpt>
      <trkpt lat="45.28347" lon="6.07328">
        <ele>1078</ele>
        <time>2026-08-21T09:07:45.000Z</time>
      </trkpt>
      <trkpt lat="45.28344" lon="6.07327">
        <ele>1077.8000488281</ele>
        <time>2026-08-21T09:07:46.000Z</time>
      </trkpt>
      <trkpt lat="45.28341" lon="6.07326">
        <ele>1077.5999755859</ele>
        <time>2026-08-21T09:07:47.000Z</time>
      </trkpt>
      <trkpt lat="45.28339" lon="6.07326">
        <ele>1077.4000244141</ele>
        <time>2026-08-21T09:07:48.000Z</time>
      </trkpt>
      <trkpt lat="45.28336" lon="6.07325">
        <ele>1077.1999511719</ele>
        <time>2026-08-21T09:07:49.000Z</time>
      </trkpt>
      <trkpt lat="45.28333" lon="6.07324">
        <ele>1077.1999511719</ele>
        <time>2026-08-21T09:07:50.000Z</time>
      </trkpt>
      <trkpt lat="45.28331" lon="6.07323">
        <ele>1077</ele>
        <time>2026-08-21T09:07:51.000Z</time>
      </trkpt>
      <trkpt lat="45.28328" lon="6.07322">
        <ele>1076.8000488281</ele>
        <time>2026-08-21T09:07:52.000Z</time>
      </trkpt>
      <trkpt lat="45.28325" lon="6.07321">
        <ele>1076.5999755859</ele>
        <time>2026-08-21T09:07:53.000Z</time>
      </trkpt>
      <trkpt lat="45.28323" lon="6.0732">
        <ele>1076.5999755859</ele>
        <time>2026-08-21T09:07:54.000Z</time>
      </trkpt>
      <trkpt lat="45.2832" lon="6.07319">
        <ele>1076.5999755859</ele>
        <time>2026-08-21T09:07:55.000Z</time>
      </trkpt>
      <trkpt lat="45.28317" lon="6.07318">
        <ele>1076.5999755859</ele>
        <time>2026-08-21T09:07:56.000Z</time>
      </trkpt>
      <trkpt lat="45.28315" lon="6.07317">
        <ele>1076.4000244141</ele>
        <time>2026-08-21T09:07:57.000Z</time>
      </trkpt>
      <trkpt lat="45.28312" lon="6.07317">
        <ele>1076.4000244141</ele>
        <time>2026-08-21T09:07:58.000Z</time>
      </trkpt>
      <trkpt lat="45.28309" lon="6.07316">
        <ele>1076.4000244141</ele>
        <time>2026-08-21T09:07:59.000Z</time>
      </trkpt>
      <trkpt lat="45.28307" lon="6.07316">
        <ele>1076.4000244141</ele>
        <time>2026-08-21T09:08:00.000Z</time>
      </trkpt>
      <trkpt lat="45.28304" lon="6.07317">
        <ele>1076.4000244141</ele>
        <time>2026-08-21T09:08:01.000Z</time>
      </trkpt>
      <trkpt lat="45.28302" lon="6.07316">
        <ele>1076.5999755859</ele>
        <time>2026-08-21T09:08:02.000Z</time>
      </trkpt>
      <trkpt lat="45.28299" lon="6.07316">
        <ele>1076.8000488281</ele>
        <time>2026-08-21T09:08:03.000Z</time>
      </trkpt>
      <trkpt lat="45.28297" lon="6.07316">
        <ele>1077</ele>
        <time>2026-08-21T09:08:04.000Z</time>
      </trkpt>
      <trkpt lat="45.28294" lon="6.07316">
        <ele>1077</ele>
        <time>2026-08-21T09:08:05.000Z</time>
      </trkpt>
      <trkpt lat="45.28291" lon="6.07316">
        <ele>1077.1999511719</ele>
        <time>2026-08-21T09:08:06.000Z</time>
      </trkpt>
      <trkpt lat="45.28289" lon="6.07315">
        <ele>1077.1999511719</ele>
        <time>2026-08-21T09:08:07.000Z</time>
      </trkpt>
      <trkpt lat="45.28286" lon="6.07315">
        <ele>1077.1999511719</ele>
        <time>2026-08-21T09:08:08.000Z</time>
      </trkpt>
      <trkpt lat="45.28283" lon="6.07315">
        <ele>1077.4000244141</ele>
        <time>2026-08-21T09:08:09.000Z</time>
      </trkpt>
      <trkpt lat="45.2828" lon="6.07314">
        <ele>1077.4000244141</ele>
        <time>2026-08-21T09:08:10.000Z</time>
      </trkpt>
      <trkpt lat="45.28278" lon="6.07314">
        <ele>1077.4000244141</ele>
        <time>2026-08-21T09:08:11.000Z</time>
      </trkpt>
      <trkpt lat="45.28275" lon="6.07313">
        <ele>1077.4000244141</ele>
        <time>2026-08-21T09:08:12.000Z</time>
      </trkpt>
      <trkpt lat="45.28273" lon="6.07313">
        <ele>1077.4000244141</ele>
        <time>2026-08-21T09:08:13.000Z</time>
      </trkpt>
      <trkpt lat="45.28271" lon="6.07312">
        <ele>1077.4000244141</ele>
        <time>2026-08-21T09:08:14.000Z</time>
      </trkpt>
      <trkpt lat="45.28268" lon="6.07312">
        <ele>1077.4000244141</ele>
        <time>2026-08-21T09:08:15.000Z</time>
      </trkpt>
      <trkpt lat="45.28266" lon="6.07312">
        <ele>1077.4000244141</ele>
        <time>2026-08-21T09:08:16.000Z</time>
      </trkpt>
      <trkpt lat="45.28263" lon="6.07311">
        <ele>1077.4000244141</ele>
        <time>2026-08-21T09:08:17.000Z</time>
      </trkpt>
      <trkpt lat="45.2826" lon="6.0731">
        <ele>1077.4000244141</ele>
        <time>2026-08-21T09:08:18.000Z</time>
      </trkpt>
      <trkpt lat="45.28258" lon="6.07309">
        <ele>1077.5999755859</ele>
        <time>2026-08-21T09:08:19.000Z</time>
      </trkpt>
      <trkpt lat="45.28255" lon="6.07309">
        <ele>1077.5999755859</ele>
        <time>2026-08-21T09:08:20.000Z</time>
      </trkpt>
      <trkpt lat="45.28253" lon="6.07309">
        <ele>1077.8000488281</ele>
        <time>2026-08-21T09:08:21.000Z</time>
      </trkpt>
      <trkpt lat="45.2825" lon="6.07309">
        <ele>1077.8000488281</ele>
        <time>2026-08-21T09:08:22.000Z</time>
      </trkpt>
      <trkpt lat="45.28248" lon="6.07308">
        <ele>1078</ele>
        <time>2026-08-21T09:08:23.000Z</time>
      </trkpt>
      <trkpt lat="45.28246" lon="6.07308">
        <ele>1078.1999511719</ele>
        <time>2026-08-21T09:08:24.000Z</time>
      </trkpt>
      <trkpt lat="45.28243" lon="6.07308">
        <ele>1078.4000244141</ele>
        <time>2026-08-21T09:08:25.000Z</time>
      </trkpt>
      <trkpt lat="45.28241" lon="6.07308">
        <ele>1078.5999755859</ele>
        <time>2026-08-21T09:08:26.000Z</time>
      </trkpt>
      <trkpt lat="45.28238" lon="6.07309">
        <ele>1078.8000488281</ele>
        <time>2026-08-21T09:08:27.000Z</time>
      </trkpt>
      <trkpt lat="45.28236" lon="6.07309">
        <ele>1079.1999511719</ele>
        <time>2026-08-21T09:08:28.000Z</time>
      </trkpt>
      <trkpt lat="45.28234" lon="6.0731">
        <ele>1079.4000244141</ele>
        <time>2026-08-21T09:08:29.000Z</time>
      </trkpt>
      <trkpt lat="45.28231" lon="6.0731">
        <ele>1079.5999755859</ele>
        <time>2026-08-21T09:08:30.000Z</time>
      </trkpt>
      <trkpt lat="45.28229" lon="6.07311">
        <ele>1079.8000488281</ele>
        <time>2026-08-21T09:08:31.000Z</time>
      </trkpt>
      <trkpt lat="45.28226" lon="6.07312">
        <ele>1079.8000488281</ele>
        <time>2026-08-21T09:08:32.000Z</time>
      </trkpt>
      <trkpt lat="45.28224" lon="6.07313">
        <ele>1080</ele>
        <time>2026-08-21T09:08:33.000Z</time>
      </trkpt>
      <trkpt lat="45.28221" lon="6.07314">
        <ele>1080</ele>
        <time>2026-08-21T09:08:34.000Z</time>
      </trkpt>
      <trkpt lat="45.28219" lon="6.07314">
        <ele>1080.1999511719</ele>
        <time>2026-08-21T09:08:35.000Z</time>
      </trkpt>
      <trkpt lat="45.28217" lon="6.07315">
        <ele>1080.1999511719</ele>
        <time>2026-08-21T09:08:36.000Z</time>
      </trkpt>
      <trkpt lat="45.28214" lon="6.07316">
        <ele>1080.4000244141</ele>
        <time>2026-08-21T09:08:37.000Z</time>
      </trkpt>
      <trkpt lat="45.28212" lon="6.07317">
        <ele>1080.5999755859</ele>
        <time>2026-08-21T09:08:38.000Z</time>
      </trkpt>
      <trkpt lat="45.2821" lon="6.07318">
        <ele>1080.8000488281</ele>
        <time>2026-08-21T09:08:39.000Z</time>
      </trkpt>
      <trkpt lat="45.28208" lon="6.07319">
        <ele>1081</ele>
        <time>2026-08-21T09:08:40.000Z</time>
      </trkpt>
      <trkpt lat="45.28206" lon="6.0732">
        <ele>1081.4000244141</ele>
        <time>2026-08-21T09:08:41.000Z</time>
      </trkpt>
      <trkpt lat="45.28204" lon="6.0732">
        <ele>1081.5999755859</ele>
        <time>2026-08-21T09:08:42.000Z</time>
      </trkpt>
      <trkpt lat="45.28202" lon="6.07321">
        <ele>1081.8000488281</ele>
        <time>2026-08-21T09:08:43.000Z</time>
      </trkpt>
      <trkpt lat="45.282" lon="6.07322">
        <ele>1082</ele>
        <time>2026-08-21T09:08:44.000Z</time>
      </trkpt>
      <trkpt lat="45.28198" lon="6.07323">
        <ele>1082.1999511719</ele>
        <time>2026-08-21T09:08:45.000Z</time>
      </trkpt>
      <trkpt lat="45.28196" lon="6.07323">
        <ele>1082.4000244141</ele>
        <time>2026-08-21T09:08:46.000Z</time>
      </trkpt>
      <trkpt lat="45.28194" lon="6.07323">
        <ele>1082.5999755859</ele>
        <time>2026-08-21T09:08:47.000Z</time>
      </trkpt>
      <trkpt lat="45.28192" lon="6.07324">
        <ele>1083</ele>
        <time>2026-08-21T09:08:48.000Z</time>
      </trkpt>
      <trkpt lat="45.2819" lon="6.07324">
        <ele>1083.1999511719</ele>
        <time>2026-08-21T09:08:49.000Z</time>
      </trkpt>
      <trkpt lat="45.28188" lon="6.07325">
        <ele>1083.5999755859</ele>
        <time>2026-08-21T09:08:50.000Z</time>
      </trkpt>
      <trkpt lat="45.28185" lon="6.07325">
        <ele>1083.8000488281</ele>
        <time>2026-08-21T09:08:51.000Z</time>
      </trkpt>
      <trkpt lat="45.28183" lon="6.07326">
        <ele>1084.1999511719</ele>
        <time>2026-08-21T09:08:52.000Z</time>
      </trkpt>
      <trkpt lat="45.28181" lon="6.07326">
        <ele>1084.5999755859</ele>
        <time>2026-08-21T09:08:53.000Z</time>
      </trkpt>
      <trkpt lat="45.28179" lon="6.07326">
        <ele>1084.8000488281</ele>
        <time>2026-08-21T09:08:54.000Z</time>
      </trkpt>
      <trkpt lat="45.28177" lon="6.07326">
        <ele>1085</ele>
        <time>2026-08-21T09:08:55.000Z</time>
      </trkpt>
      <trkpt lat="45.28175" lon="6.07327">
        <ele>1085</ele>
        <time>2026-08-21T09:08:56.000Z</time>
      </trkpt>
      <trkpt lat="45.28173" lon="6.07326">
        <ele>1085.1999511719</ele>
        <time>2026-08-21T09:08:57.000Z</time>
      </trkpt>
      <trkpt lat="45.28171" lon="6.07327">
        <ele>1085.4000244141</ele>
        <time>2026-08-21T09:08:58.000Z</time>
      </trkpt>
      <trkpt lat="45.28169" lon="6.07326">
        <ele>1085.5999755859</ele>
        <time>2026-08-21T09:08:59.000Z</time>
      </trkpt>
      <trkpt lat="45.28167" lon="6.07327">
        <ele>1085.8000488281</ele>
        <time>2026-08-21T09:09:00.000Z</time>
      </trkpt>
      <trkpt lat="45.28165" lon="6.07327">
        <ele>1086</ele>
        <time>2026-08-21T09:09:01.000Z</time>
      </trkpt>
      <trkpt lat="45.28163" lon="6.07327">
        <ele>1086.1999511719</ele>
        <time>2026-08-21T09:09:02.000Z</time>
      </trkpt>
      <trkpt lat="45.28161" lon="6.07327">
        <ele>1086.5999755859</ele>
        <time>2026-08-21T09:09:03.000Z</time>
      </trkpt>
      <trkpt lat="45.28159" lon="6.07327">
        <ele>1087</ele>
        <time>2026-08-21T09:09:04.000Z</time>
      </trkpt>
      <trkpt lat="45.28157" lon="6.07328">
        <ele>1087.1999511719</ele>
        <time>2026-08-21T09:09:05.000Z</time>
      </trkpt>
      <trkpt lat="45.28155" lon="6.07327">
        <ele>1087.5999755859</ele>
        <time>2026-08-21T09:09:06.000Z</time>
      </trkpt>
      <trkpt lat="45.28153" lon="6.07327">
        <ele>1087.8000488281</ele>
        <time>2026-08-21T09:09:07.000Z</time>
      </trkpt>
      <trkpt lat="45.28151" lon="6.07327">
        <ele>1088.1999511719</ele>
        <time>2026-08-21T09:09:08.000Z</time>
      </trkpt>
      <trkpt lat="45.28149" lon="6.07327">
        <ele>1088.5999755859</ele>
        <time>2026-08-21T09:09:09.000Z</time>
      </trkpt>
      <trkpt lat="45.28148" lon="6.07326">
        <ele>1089</ele>
        <time>2026-08-21T09:09:10.000Z</time>
      </trkpt>
      <trkpt lat="45.28146" lon="6.07325">
        <ele>1089.4000244141</ele>
        <time>2026-08-21T09:09:11.000Z</time>
      </trkpt>
      <trkpt lat="45.28143" lon="6.07323">
        <ele>1089.4000244141</ele>
        <time>2026-08-21T09:09:12.000Z</time>
      </trkpt>
      <trkpt lat="45.28142" lon="6.07322">
        <ele>1089.4000244141</ele>
        <time>2026-08-21T09:09:13.000Z</time>
      </trkpt>
      <trkpt lat="45.2814" lon="6.07321">
        <ele>1089.4000244141</ele>
        <time>2026-08-21T09:09:14.000Z</time>
      </trkpt>
      <trkpt lat="45.28138" lon="6.0732">
        <ele>1089.4000244141</ele>
        <time>2026-08-21T09:09:15.000Z</time>
      </trkpt>
      <trkpt lat="45.28136" lon="6.0732">
        <ele>1089.5999755859</ele>
        <time>2026-08-21T09:09:16.000Z</time>
      </trkpt>
      <trkpt lat="45.28134" lon="6.07318">
        <ele>1089.8000488281</ele>
        <time>2026-08-21T09:09:17.000Z</time>
      </trkpt>
      <trkpt lat="45.28132" lon="6.07316">
        <ele>1089.8000488281</ele>
        <time>2026-08-21T09:09:18.000Z</time>
      </trkpt>
      <trkpt lat="45.2813" lon="6.07315">
        <ele>1090</ele>
        <time>2026-08-21T09:09:19.000Z</time>
      </trkpt>
      <trkpt lat="45.28128" lon="6.07313">
        <ele>1090.1999511719</ele>
        <time>2026-08-21T09:09:20.000Z</time>
      </trkpt>
      <trkpt lat="45.28126" lon="6.07312">
        <ele>1090.1999511719</ele>
        <time>2026-08-21T09:09:21.000Z</time>
      </trkpt>
      <trkpt lat="45.28124" lon="6.0731">
        <ele>1090.4000244141</ele>
        <time>2026-08-21T09:09:22.000Z</time>
      </trkpt>
      <trkpt lat="45.28122" lon="6.07309">
        <ele>1090.5999755859</ele>
        <time>2026-08-21T09:09:23.000Z</time>
      </trkpt>
      <trkpt lat="45.2812" lon="6.07307">
        <ele>1090.8000488281</ele>
        <time>2026-08-21T09:09:24.000Z</time>
      </trkpt>
      <trkpt lat="45.28118" lon="6.07306">
        <ele>1091</ele>
        <time>2026-08-21T09:09:25.000Z</time>
      </trkpt>
      <trkpt lat="45.28116" lon="6.07305">
        <ele>1091.1999511719</ele>
        <time>2026-08-21T09:09:26.000Z</time>
      </trkpt>
      <trkpt lat="45.28115" lon="6.07304">
        <ele>1091.5999755859</ele>
        <time>2026-08-21T09:09:27.000Z</time>
      </trkpt>
      <trkpt lat="45.28113" lon="6.07303">
        <ele>1091.8000488281</ele>
        <time>2026-08-21T09:09:28.000Z</time>
      </trkpt>
      <trkpt lat="45.28111" lon="6.07302">
        <ele>1092</ele>
        <time>2026-08-21T09:09:29.000Z</time>
      </trkpt>
      <trkpt lat="45.28109" lon="6.07301">
        <ele>1092.1999511719</ele>
        <time>2026-08-21T09:09:30.000Z</time>
      </trkpt>
      <trkpt lat="45.28107" lon="6.073">
        <ele>1092.4000244141</ele>
        <time>2026-08-21T09:09:31.000Z</time>
      </trkpt>
      <trkpt lat="45.28106" lon="6.073">
        <ele>1092.5999755859</ele>
        <time>2026-08-21T09:09:32.000Z</time>
      </trkpt>
      <trkpt lat="45.28104" lon="6.07299">
        <ele>1093</ele>
        <time>2026-08-21T09:09:33.000Z</time>
      </trkpt>
      <trkpt lat="45.28102" lon="6.07298">
        <ele>1093.1999511719</ele>
        <time>2026-08-21T09:09:34.000Z</time>
      </trkpt>
      <trkpt lat="45.281" lon="6.07297">
        <ele>1093.5999755859</ele>
        <time>2026-08-21T09:09:35.000Z</time>
      </trkpt>
      <trkpt lat="45.28099" lon="6.07296">
        <ele>1094</ele>
        <time>2026-08-21T09:09:36.000Z</time>
      </trkpt>
      <trkpt lat="45.28097" lon="6.07294">
        <ele>1094.4000244141</ele>
        <time>2026-08-21T09:09:37.000Z</time>
      </trkpt>
      <trkpt lat="45.28095" lon="6.07293">
        <ele>1094.8000488281</ele>
        <time>2026-08-21T09:09:38.000Z</time>
      </trkpt>
      <trkpt lat="45.28093" lon="6.07291">
        <ele>1095</ele>
        <time>2026-08-21T09:09:39.000Z</time>
      </trkpt>
      <trkpt lat="45.28091" lon="6.07289">
        <ele>1095</ele>
        <time>2026-08-21T09:09:40.000Z</time>
      </trkpt>
      <trkpt lat="45.28089" lon="6.07288">
        <ele>1095</ele>
        <time>2026-08-21T09:09:41.000Z</time>
      </trkpt>
      <trkpt lat="45.28087" lon="6.07285">
        <ele>1094.8000488281</ele>
        <time>2026-08-21T09:09:42.000Z</time>
      </trkpt>
      <trkpt lat="45.28084" lon="6.07284">
        <ele>1094.5999755859</ele>
        <time>2026-08-21T09:09:43.000Z</time>
      </trkpt>
      <trkpt lat="45.28082" lon="6.07282">
        <ele>1094.4000244141</ele>
        <time>2026-08-21T09:09:44.000Z</time>
      </trkpt>
      <trkpt lat="45.28079" lon="6.0728">
        <ele>1094.1999511719</ele>
        <time>2026-08-21T09:09:45.000Z</time>
      </trkpt>
      <trkpt lat="45.28077" lon="6.07278">
        <ele>1094</ele>
        <time>2026-08-21T09:09:46.000Z</time>
      </trkpt>
      <trkpt lat="45.28075" lon="6.07276">
        <ele>1093.8000488281</ele>
        <time>2026-08-21T09:09:47.000Z</time>
      </trkpt>
      <trkpt lat="45.28073" lon="6.07275">
        <ele>1093.5999755859</ele>
        <time>2026-08-21T09:09:48.000Z</time>
      </trkpt>
      <trkpt lat="45.28071" lon="6.07274">
        <ele>1093.5999755859</ele>
        <time>2026-08-21T09:09:49.000Z</time>
      </trkpt>
      <trkpt lat="45.28069" lon="6.07272">
        <ele>1093.5999755859</ele>
        <time>2026-08-21T09:09:50.000Z</time>
      </trkpt>
      <trkpt lat="45.28066" lon="6.07271">
        <ele>1093.5999755859</ele>
        <time>2026-08-21T09:09:51.000Z</time>
      </trkpt>
      <trkpt lat="45.28064" lon="6.0727">
        <ele>1093.5999755859</ele>
        <time>2026-08-21T09:09:52.000Z</time>
      </trkpt>
      <trkpt lat="45.28062" lon="6.07269">
        <ele>1093.5999755859</ele>
        <time>2026-08-21T09:09:53.000Z</time>
      </trkpt>
      <trkpt lat="45.2806" lon="6.07267">
        <ele>1093.5999755859</ele>
        <time>2026-08-21T09:09:54.000Z</time>
      </trkpt>
      <trkpt lat="45.28057" lon="6.07266">
        <ele>1093.8000488281</ele>
        <time>2026-08-21T09:09:55.000Z</time>
      </trkpt>
      <trkpt lat="45.28055" lon="6.07263">
        <ele>1093.5999755859</ele>
        <time>2026-08-21T09:09:56.000Z</time>
      </trkpt>
      <trkpt lat="45.28052" lon="6.07262">
        <ele>1093.5999755859</ele>
        <time>2026-08-21T09:09:57.000Z</time>
      </trkpt>
      <trkpt lat="45.2805" lon="6.0726">
        <ele>1093.5999755859</ele>
        <time>2026-08-21T09:09:58.000Z</time>
      </trkpt>
      <trkpt lat="45.28048" lon="6.07259">
        <ele>1093.4000244141</ele>
        <time>2026-08-21T09:09:59.000Z</time>
      </trkpt>
      <trkpt lat="45.28046" lon="6.07259">
        <ele>1093.4000244141</ele>
        <time>2026-08-21T09:10:00.000Z</time>
      </trkpt>
      <trkpt lat="45.28044" lon="6.07258">
        <ele>1093.5999755859</ele>
        <time>2026-08-21T09:10:01.000Z</time>
      </trkpt>
      <trkpt lat="45.28043" lon="6.07257">
        <ele>1094</ele>
        <time>2026-08-21T09:10:02.000Z</time>
      </trkpt>
      <trkpt lat="45.28041" lon="6.07257">
        <ele>1094.4000244141</ele>
        <time>2026-08-21T09:10:03.000Z</time>
      </trkpt>
      <trkpt lat="45.28039" lon="6.07256">
        <ele>1095</ele>
        <time>2026-08-21T09:10:04.000Z</time>
      </trkpt>
      <trkpt lat="45.28037" lon="6.07254">
        <ele>1095.4000244141</ele>
        <time>2026-08-21T09:10:05.000Z</time>
      </trkpt>
      <trkpt lat="45.28036" lon="6.07253">
        <ele>1095.8000488281</ele>
        <time>2026-08-21T09:10:06.000Z</time>
      </trkpt>
      <trkpt lat="45.28034" lon="6.07251">
        <ele>1096</ele>
        <time>2026-08-21T09:10:07.000Z</time>
      </trkpt>
      <trkpt lat="45.28032" lon="6.0725">
        <ele>1096.1999511719</ele>
        <time>2026-08-21T09:10:08.000Z</time>
      </trkpt>
      <trkpt lat="45.28031" lon="6.07249">
        <ele>1096.4000244141</ele>
        <time>2026-08-21T09:10:09.000Z</time>
      </trkpt>
      <trkpt lat="45.28028" lon="6.07248">
        <ele>1096.5999755859</ele>
        <time>2026-08-21T09:10:10.000Z</time>
      </trkpt>
      <trkpt lat="45.28027" lon="6.07246">
        <ele>1096.8000488281</ele>
        <time>2026-08-21T09:10:11.000Z</time>
      </trkpt>
      <trkpt lat="45.28025" lon="6.07246">
        <ele>1097</ele>
        <time>2026-08-21T09:10:12.000Z</time>
      </trkpt>
      <trkpt lat="45.28023" lon="6.07245">
        <ele>1097.1999511719</ele>
        <time>2026-08-21T09:10:13.000Z</time>
      </trkpt>
      <trkpt lat="45.28021" lon="6.07244">
        <ele>1097.5999755859</ele>
        <time>2026-08-21T09:10:14.000Z</time>
      </trkpt>
      <trkpt lat="45.28019" lon="6.07244">
        <ele>1098</ele>
        <time>2026-08-21T09:10:15.000Z</time>
      </trkpt>
      <trkpt lat="45.28018" lon="6.07244">
        <ele>1098.4000244141</ele>
        <time>2026-08-21T09:10:16.000Z</time>
      </trkpt>
      <trkpt lat="45.28015" lon="6.07244">
        <ele>1098.5999755859</ele>
        <time>2026-08-21T09:10:17.000Z</time>
      </trkpt>
      <trkpt lat="45.28014" lon="6.07244">
        <ele>1098.8000488281</ele>
        <time>2026-08-21T09:10:18.000Z</time>
      </trkpt>
      <trkpt lat="45.28013" lon="6.07243">
        <ele>1099</ele>
        <time>2026-08-21T09:10:19.000Z</time>
      </trkpt>
      <trkpt lat="45.28011" lon="6.07242">
        <ele>1099</ele>
        <time>2026-08-21T09:10:20.000Z</time>
      </trkpt>
      <trkpt lat="45.28009" lon="6.0724">
        <ele>1099.1999511719</ele>
        <time>2026-08-21T09:10:21.000Z</time>
      </trkpt>
      <trkpt lat="45.28008" lon="6.07238">
        <ele>1099.4000244141</ele>
        <time>2026-08-21T09:10:22.000Z</time>
      </trkpt>
      <trkpt lat="45.28007" lon="6.07236">
        <ele>1099.5999755859</ele>
        <time>2026-08-21T09:10:23.000Z</time>
      </trkpt>
      <trkpt lat="45.28006" lon="6.07233">
        <ele>1099.8000488281</ele>
        <time>2026-08-21T09:10:24.000Z</time>
      </trkpt>
      <trkpt lat="45.28006" lon="6.0723">
        <ele>1100</ele>
        <time>2026-08-21T09:10:25.000Z</time>
      </trkpt>
      <trkpt lat="45.28005" lon="6.07228">
        <ele>1100</ele>
        <time>2026-08-21T09:10:26.000Z</time>
      </trkpt>
      <trkpt lat="45.28004" lon="6.07226">
        <ele>1100.1999511719</ele>
        <time>2026-08-21T09:10:27.000Z</time>
      </trkpt>
      <trkpt lat="45.28004" lon="6.07224">
        <ele>1100.4000244141</ele>
        <time>2026-08-21T09:10:28.000Z</time>
      </trkpt>
      <trkpt lat="45.28003" lon="6.07222">
        <ele>1100.5999755859</ele>
        <time>2026-08-21T09:10:29.000Z</time>
      </trkpt>
      <trkpt lat="45.28002" lon="6.0722">
        <ele>1101</ele>
        <time>2026-08-21T09:10:30.000Z</time>
      </trkpt>
      <trkpt lat="45.28002" lon="6.07218">
        <ele>1101.1999511719</ele>
        <time>2026-08-21T09:10:31.000Z</time>
      </trkpt>
      <trkpt lat="45.28001" lon="6.07216">
        <ele>1101.4000244141</ele>
        <time>2026-08-21T09:10:32.000Z</time>
      </trkpt>
      <trkpt lat="45.28001" lon="6.07215">
        <ele>1101.8000488281</ele>
        <time>2026-08-21T09:10:33.000Z</time>
      </trkpt>
      <trkpt lat="45.28" lon="6.07213">
        <ele>1102</ele>
        <time>2026-08-21T09:10:34.000Z</time>
      </trkpt>
      <trkpt lat="45.27999" lon="6.07212">
        <ele>1102.1999511719</ele>
        <time>2026-08-21T09:10:35.000Z</time>
      </trkpt>
      <trkpt lat="45.27999" lon="6.07211">
        <ele>1102.5999755859</ele>
        <time>2026-08-21T09:10:36.000Z</time>
      </trkpt>
      <trkpt lat="45.27998" lon="6.07209">
        <ele>1103</ele>
        <time>2026-08-21T09:10:37.000Z</time>
      </trkpt>
      <trkpt lat="45.27997" lon="6.07207">
        <ele>1103.4000244141</ele>
        <time>2026-08-21T09:10:38.000Z</time>
      </trkpt>
      <trkpt lat="45.27996" lon="6.07205">
        <ele>1103.5999755859</ele>
        <time>2026-08-21T09:10:39.000Z</time>
      </trkpt>
      <trkpt lat="45.27995" lon="6.07204">
        <ele>1103.8000488281</ele>
        <time>2026-08-21T09:10:40.000Z</time>
      </trkpt>
      <trkpt lat="45.27994" lon="6.07203">
        <ele>1104</ele>
        <time>2026-08-21T09:10:41.000Z</time>
      </trkpt>
      <trkpt lat="45.27993" lon="6.07202">
        <ele>1104.1999511719</ele>
        <time>2026-08-21T09:10:42.000Z</time>
      </trkpt>
      <trkpt lat="45.27993" lon="6.072">
        <ele>1104.1999511719</ele>
        <time>2026-08-21T09:10:43.000Z</time>
      </trkpt>
      <trkpt lat="45.27991" lon="6.07199">
        <ele>1104.5999755859</ele>
        <time>2026-08-21T09:10:44.000Z</time>
      </trkpt>
      <trkpt lat="45.2799" lon="6.07198">
        <ele>1104.8000488281</ele>
        <time>2026-08-21T09:10:45.000Z</time>
      </trkpt>
      <trkpt lat="45.27988" lon="6.07197">
        <ele>1105</ele>
        <time>2026-08-21T09:10:46.000Z</time>
      </trkpt>
      <trkpt lat="45.27987" lon="6.07196">
        <ele>1105.1999511719</ele>
        <time>2026-08-21T09:10:47.000Z</time>
      </trkpt>
      <trkpt lat="45.27986" lon="6.07195">
        <ele>1105.4000244141</ele>
        <time>2026-08-21T09:10:48.000Z</time>
      </trkpt>
      <trkpt lat="45.27985" lon="6.07193">
        <ele>1105.8000488281</ele>
        <time>2026-08-21T09:10:49.000Z</time>
      </trkpt>
      <trkpt lat="45.27984" lon="6.07192">
        <ele>1106</ele>
        <time>2026-08-21T09:10:50.000Z</time>
      </trkpt>
      <trkpt lat="45.27983" lon="6.0719">
        <ele>1106.1999511719</ele>
        <time>2026-08-21T09:10:51.000Z</time>
      </trkpt>
      <trkpt lat="45.27982" lon="6.07188">
        <ele>1106.5999755859</ele>
        <time>2026-08-21T09:10:52.000Z</time>
      </trkpt>
      <trkpt lat="45.27981" lon="6.07186">
        <ele>1106.8000488281</ele>
        <time>2026-08-21T09:10:53.000Z</time>
      </trkpt>
      <trkpt lat="45.2798" lon="6.07185">
        <ele>1107.1999511719</ele>
        <time>2026-08-21T09:10:54.000Z</time>
      </trkpt>
      <trkpt lat="45.27979" lon="6.07184">
        <ele>1107.4000244141</ele>
        <time>2026-08-21T09:10:55.000Z</time>
      </trkpt>
      <trkpt lat="45.27978" lon="6.07182">
        <ele>1107.5999755859</ele>
        <time>2026-08-21T09:10:56.000Z</time>
      </trkpt>
      <trkpt lat="45.27977" lon="6.07181">
        <ele>1107.8000488281</ele>
        <time>2026-08-21T09:10:57.000Z</time>
      </trkpt>
      <trkpt lat="45.27976" lon="6.0718">
        <ele>1108</ele>
        <time>2026-08-21T09:10:58.000Z</time>
      </trkpt>
      <trkpt lat="45.27975" lon="6.07178">
        <ele>1108</ele>
        <time>2026-08-21T09:10:59.000Z</time>
      </trkpt>
      <trkpt lat="45.27974" lon="6.07177">
        <ele>1108.1999511719</ele>
        <time>2026-08-21T09:11:00.000Z</time>
      </trkpt>
      <trkpt lat="45.27973" lon="6.07176">
        <ele>1108.4000244141</ele>
        <time>2026-08-21T09:11:01.000Z</time>
      </trkpt>
      <trkpt lat="45.27972" lon="6.07175">
        <ele>1108.8000488281</ele>
        <time>2026-08-21T09:11:02.000Z</time>
      </trkpt>
      <trkpt lat="45.27972" lon="6.07174">
        <ele>1109</ele>
        <time>2026-08-21T09:11:03.000Z</time>
      </trkpt>
      <trkpt lat="45.27971" lon="6.07173">
        <ele>1109.4000244141</ele>
        <time>2026-08-21T09:11:04.000Z</time>
      </trkpt>
      <trkpt lat="45.2797" lon="6.07171">
        <ele>1109.5999755859</ele>
        <time>2026-08-21T09:11:05.000Z</time>
      </trkpt>
      <trkpt lat="45.27969" lon="6.07168">
        <ele>1110</ele>
        <time>2026-08-21T09:11:06.000Z</time>
      </trkpt>
      <trkpt lat="45.27968" lon="6.07167">
        <ele>1110.1999511719</ele>
        <time>2026-08-21T09:11:07.000Z</time>
      </trkpt>
      <trkpt lat="45.27968" lon="6.07166">
        <ele>1110.4000244141</ele>
        <time>2026-08-21T09:11:08.000Z</time>
      </trkpt>
      <trkpt lat="45.27967" lon="6.07164">
        <ele>1110.5999755859</ele>
        <time>2026-08-21T09:11:09.000Z</time>
      </trkpt>
      <trkpt lat="45.27967" lon="6.07163">
        <ele>1110.8000488281</ele>
        <time>2026-08-21T09:11:10.000Z</time>
      </trkpt>
      <trkpt lat="45.27966" lon="6.07161">
        <ele>1111</ele>
        <time>2026-08-21T09:11:11.000Z</time>
      </trkpt>
      <trkpt lat="45.27965" lon="6.0716">
        <ele>1111.4000244141</ele>
        <time>2026-08-21T09:11:12.000Z</time>
      </trkpt>
      <trkpt lat="45.27964" lon="6.07159">
        <ele>1111.5999755859</ele>
        <time>2026-08-21T09:11:13.000Z</time>
      </trkpt>
      <trkpt lat="45.27963" lon="6.07158">
        <ele>1111.8000488281</ele>
        <time>2026-08-21T09:11:14.000Z</time>
      </trkpt>
      <trkpt lat="45.27962" lon="6.07157">
        <ele>1112.1999511719</ele>
        <time>2026-08-21T09:11:15.000Z</time>
      </trkpt>
      <trkpt lat="45.27961" lon="6.07156">
        <ele>1112.4000244141</ele>
        <time>2026-08-21T09:11:16.000Z</time>
      </trkpt>
      <trkpt lat="45.2796" lon="6.07154">
        <ele>1112.8000488281</ele>
        <time>2026-08-21T09:11:17.000Z</time>
      </trkpt>
      <trkpt lat="45.27959" lon="6.07153">
        <ele>1113</ele>
        <time>2026-08-21T09:11:18.000Z</time>
      </trkpt>
      <trkpt lat="45.27957" lon="6.07152">
        <ele>1113.1999511719</ele>
        <time>2026-08-21T09:11:19.000Z</time>
      </trkpt>
      <trkpt lat="45.27956" lon="6.07151">
        <ele>1113.5999755859</ele>
        <time>2026-08-21T09:11:20.000Z</time>
      </trkpt>
      <trkpt lat="45.27955" lon="6.07149">
        <ele>1113.8000488281</ele>
        <time>2026-08-21T09:11:21.000Z</time>
      </trkpt>
      <trkpt lat="45.27954" lon="6.07149">
        <ele>1114</ele>
        <time>2026-08-21T09:11:22.000Z</time>
      </trkpt>
      <trkpt lat="45.27953" lon="6.07148">
        <ele>1114.1999511719</ele>
        <time>2026-08-21T09:11:23.000Z</time>
      </trkpt>
      <trkpt lat="45.27952" lon="6.07147">
        <ele>1114.4000244141</ele>
        <time>2026-08-21T09:11:24.000Z</time>
      </trkpt>
      <trkpt lat="45.27952" lon="6.07145">
        <ele>1114.5999755859</ele>
        <time>2026-08-21T09:11:25.000Z</time>
      </trkpt>
      <trkpt lat="45.27951" lon="6.07144">
        <ele>1114.8000488281</ele>
        <time>2026-08-21T09:11:26.000Z</time>
      </trkpt>
      <trkpt lat="45.27951" lon="6.07143">
        <ele>1115</ele>
        <time>2026-08-21T09:11:27.000Z</time>
      </trkpt>
      <trkpt lat="45.2795" lon="6.07141">
        <ele>1115.1999511719</ele>
        <time>2026-08-21T09:11:28.000Z</time>
      </trkpt>
      <trkpt lat="45.27949" lon="6.07139">
        <ele>1115.4000244141</ele>
        <time>2026-08-21T09:11:29.000Z</time>
      </trkpt>
      <trkpt lat="45.27948" lon="6.07137">
        <ele>1115.5999755859</ele>
        <time>2026-08-21T09:11:30.000Z</time>
      </trkpt>
      <trkpt lat="45.27946" lon="6.07135">
        <ele>1116</ele>
        <time>2026-08-21T09:11:31.000Z</time>
      </trkpt>
      <trkpt lat="45.27945" lon="6.07133">
        <ele>1116.4000244141</ele>
        <time>2026-08-21T09:11:32.000Z</time>
      </trkpt>
      <trkpt lat="45.27944" lon="6.07131">
        <ele>1116.5999755859</ele>
        <time>2026-08-21T09:11:33.000Z</time>
      </trkpt>
      <trkpt lat="45.27943" lon="6.0713">
        <ele>1116.8000488281</ele>
        <time>2026-08-21T09:11:34.000Z</time>
      </trkpt>
      <trkpt lat="45.27942" lon="6.07129">
        <ele>1117</ele>
        <time>2026-08-21T09:11:35.000Z</time>
      </trkpt>
      <trkpt lat="45.27941" lon="6.07127">
        <ele>1117.1999511719</ele>
        <time>2026-08-21T09:11:36.000Z</time>
      </trkpt>
      <trkpt lat="45.2794" lon="6.07126">
        <ele>1117.4000244141</ele>
        <time>2026-08-21T09:11:37.000Z</time>
      </trkpt>
      <trkpt lat="45.27938" lon="6.07126">
        <ele>1117.4000244141</ele>
        <time>2026-08-21T09:11:38.000Z</time>
      </trkpt>
      <trkpt lat="45.27937" lon="6.07124">
        <ele>1117.5999755859</ele>
        <time>2026-08-21T09:11:39.000Z</time>
      </trkpt>
      <trkpt lat="45.27936" lon="6.07122">
        <ele>1117.8000488281</ele>
        <time>2026-08-21T09:11:40.000Z</time>
      </trkpt>
      <trkpt lat="45.27934" lon="6.07121">
        <ele>1118</ele>
        <time>2026-08-21T09:11:41.000Z</time>
      </trkpt>
      <trkpt lat="45.27933" lon="6.0712">
        <ele>1118.4000244141</ele>
        <time>2026-08-21T09:11:42.000Z</time>
      </trkpt>
      <trkpt lat="45.27931" lon="6.07119">
        <ele>1118.8000488281</ele>
        <time>2026-08-21T09:11:43.000Z</time>
      </trkpt>
      <trkpt lat="45.2793" lon="6.07118">
        <ele>1119</ele>
        <time>2026-08-21T09:11:44.000Z</time>
      </trkpt>
      <trkpt lat="45.27929" lon="6.07117">
        <ele>1119.4000244141</ele>
        <time>2026-08-21T09:11:45.000Z</time>
      </trkpt>
      <trkpt lat="45.27928" lon="6.07117">
        <ele>1119.5999755859</ele>
        <time>2026-08-21T09:11:46.000Z</time>
      </trkpt>
      <trkpt lat="45.27927" lon="6.07116">
        <ele>1119.5999755859</ele>
        <time>2026-08-21T09:11:47.000Z</time>
      </trkpt>
      <trkpt lat="45.27926" lon="6.07117">
        <ele>1119.5999755859</ele>
        <time>2026-08-21T09:11:48.000Z</time>
      </trkpt>
      <trkpt lat="45.27925" lon="6.07117">
        <ele>1119.5999755859</ele>
        <time>2026-08-21T09:11:49.000Z</time>
      </trkpt>
      <trkpt lat="45.27923" lon="6.07118">
        <ele>1119.8000488281</ele>
        <time>2026-08-21T09:11:50.000Z</time>
      </trkpt>
      <trkpt lat="45.27921" lon="6.07118">
        <ele>1119.8000488281</ele>
        <time>2026-08-21T09:11:51.000Z</time>
      </trkpt>
      <trkpt lat="45.27919" lon="6.07118">
        <ele>1120.1999511719</ele>
        <time>2026-08-21T09:11:52.000Z</time>
      </trkpt>
      <trkpt lat="45.27917" lon="6.07118">
        <ele>1120.5999755859</ele>
        <time>2026-08-21T09:11:53.000Z</time>
      </trkpt>
      <trkpt lat="45.27915" lon="6.07118">
        <ele>1120.8000488281</ele>
        <time>2026-08-21T09:11:54.000Z</time>
      </trkpt>
      <trkpt lat="45.27914" lon="6.07117">
        <ele>1121.1999511719</ele>
        <time>2026-08-21T09:11:55.000Z</time>
      </trkpt>
      <trkpt lat="45.27912" lon="6.07117">
        <ele>1121.4000244141</ele>
        <time>2026-08-21T09:11:56.000Z</time>
      </trkpt>
      <trkpt lat="45.27911" lon="6.07116">
        <ele>1121.5999755859</ele>
        <time>2026-08-21T09:11:57.000Z</time>
      </trkpt>
      <trkpt lat="45.27909" lon="6.07116">
        <ele>1121.5999755859</ele>
        <time>2026-08-21T09:11:58.000Z</time>
      </trkpt>
      <trkpt lat="45.27908" lon="6.07115">
        <ele>1121.8000488281</ele>
        <time>2026-08-21T09:11:59.000Z</time>
      </trkpt>
      <trkpt lat="45.27906" lon="6.07115">
        <ele>1122</ele>
        <time>2026-08-21T09:12:00.000Z</time>
      </trkpt>
      <trkpt lat="45.27904" lon="6.07115">
        <ele>1122.1999511719</ele>
        <time>2026-08-21T09:12:01.000Z</time>
      </trkpt>
      <trkpt lat="45.27903" lon="6.07115">
        <ele>1122.4000244141</ele>
        <time>2026-08-21T09:12:02.000Z</time>
      </trkpt>
      <trkpt lat="45.27901" lon="6.07115">
        <ele>1122.5999755859</ele>
        <time>2026-08-21T09:12:03.000Z</time>
      </trkpt>
      <trkpt lat="45.279" lon="6.07115">
        <ele>1122.8000488281</ele>
        <time>2026-08-21T09:12:04.000Z</time>
      </trkpt>
      <trkpt lat="45.27899" lon="6.07115">
        <ele>1123</ele>
        <time>2026-08-21T09:12:05.000Z</time>
      </trkpt>
      <trkpt lat="45.27897" lon="6.07114">
        <ele>1123.1999511719</ele>
        <time>2026-08-21T09:12:06.000Z</time>
      </trkpt>
      <trkpt lat="45.27895" lon="6.07114">
        <ele>1123.4000244141</ele>
        <time>2026-08-21T09:12:07.000Z</time>
      </trkpt>
      <trkpt lat="45.27894" lon="6.07113">
        <ele>1123.8000488281</ele>
        <time>2026-08-21T09:12:08.000Z</time>
      </trkpt>
      <trkpt lat="45.27892" lon="6.07113">
        <ele>1124</ele>
        <time>2026-08-21T09:12:09.000Z</time>
      </trkpt>
      <trkpt lat="45.27891" lon="6.07112">
        <ele>1124.1999511719</ele>
        <time>2026-08-21T09:12:10.000Z</time>
      </trkpt>
      <trkpt lat="45.27889" lon="6.07111">
        <ele>1124.1999511719</ele>
        <time>2026-08-21T09:12:11.000Z</time>
      </trkpt>
      <trkpt lat="45.27887" lon="6.07111">
        <ele>1124.4000244141</ele>
        <time>2026-08-21T09:12:12.000Z</time>
      </trkpt>
      <trkpt lat="45.27886" lon="6.07109">
        <ele>1124.4000244141</ele>
        <time>2026-08-21T09:12:13.000Z</time>
      </trkpt>
      <trkpt lat="45.27885" lon="6.07108">
        <ele>1124.5999755859</ele>
        <time>2026-08-21T09:12:14.000Z</time>
      </trkpt>
      <trkpt lat="45.27883" lon="6.07107">
        <ele>1124.8000488281</ele>
        <time>2026-08-21T09:12:15.000Z</time>
      </trkpt>
      <trkpt lat="45.27882" lon="6.07106">
        <ele>1125</ele>
        <time>2026-08-21T09:12:16.000Z</time>
      </trkpt>
      <trkpt lat="45.27881" lon="6.07105">
        <ele>1125.1999511719</ele>
        <time>2026-08-21T09:12:17.000Z</time>
      </trkpt>
      <trkpt lat="45.2788" lon="6.07104">
        <ele>1125.5999755859</ele>
        <time>2026-08-21T09:12:18.000Z</time>
      </trkpt>
      <trkpt lat="45.27878" lon="6.07104">
        <ele>1125.8000488281</ele>
        <time>2026-08-21T09:12:19.000Z</time>
      </trkpt>
      <trkpt lat="45.27877" lon="6.07102">
        <ele>1126.1999511719</ele>
        <time>2026-08-21T09:12:20.000Z</time>
      </trkpt>
      <trkpt lat="45.27876" lon="6.071">
        <ele>1126.4000244141</ele>
        <time>2026-08-21T09:12:21.000Z</time>
      </trkpt>
      <trkpt lat="45.27875" lon="6.07099">
        <ele>1126.5999755859</ele>
        <time>2026-08-21T09:12:22.000Z</time>
      </trkpt>
      <trkpt lat="45.27875" lon="6.07096">
        <ele>1126.8000488281</ele>
        <time>2026-08-21T09:12:23.000Z</time>
      </trkpt>
      <trkpt lat="45.27874" lon="6.07095">
        <ele>1126.8000488281</ele>
        <time>2026-08-21T09:12:24.000Z</time>
      </trkpt>
      <trkpt lat="45.27872" lon="6.07093">
        <ele>1127</ele>
        <time>2026-08-21T09:12:25.000Z</time>
      </trkpt>
      <trkpt lat="45.27871" lon="6.07091">
        <ele>1127.1999511719</ele>
        <time>2026-08-21T09:12:26.000Z</time>
      </trkpt>
      <trkpt lat="45.2787" lon="6.07089">
        <ele>1127.4000244141</ele>
        <time>2026-08-21T09:12:27.000Z</time>
      </trkpt>
      <trkpt lat="45.27869" lon="6.07087">
        <ele>1127.5999755859</ele>
        <time>2026-08-21T09:12:28.000Z</time>
      </trkpt>
      <trkpt lat="45.27867" lon="6.07085">
        <ele>1127.8000488281</ele>
        <time>2026-08-21T09:12:29.000Z</time>
      </trkpt>
      <trkpt lat="45.27866" lon="6.07083">
        <ele>1128</ele>
        <time>2026-08-21T09:12:30.000Z</time>
      </trkpt>
      <trkpt lat="45.27865" lon="6.07081">
        <ele>1128.1999511719</ele>
        <time>2026-08-21T09:12:31.000Z</time>
      </trkpt>
      <trkpt lat="45.27864" lon="6.0708">
        <ele>1128.4000244141</ele>
        <time>2026-08-21T09:12:32.000Z</time>
      </trkpt>
      <trkpt lat="45.27863" lon="6.07078">
        <ele>1128.5999755859</ele>
        <time>2026-08-21T09:12:33.000Z</time>
      </trkpt>
      <trkpt lat="45.27862" lon="6.07077">
        <ele>1128.5999755859</ele>
        <time>2026-08-21T09:12:34.000Z</time>
      </trkpt>
      <trkpt lat="45.27861" lon="6.07075">
        <ele>1129</ele>
        <time>2026-08-21T09:12:35.000Z</time>
      </trkpt>
      <trkpt lat="45.2786" lon="6.07073">
        <ele>1129.1999511719</ele>
        <time>2026-08-21T09:12:36.000Z</time>
      </trkpt>
      <trkpt lat="45.27859" lon="6.07071">
        <ele>1129.4000244141</ele>
        <time>2026-08-21T09:12:37.000Z</time>
      </trkpt>
      <trkpt lat="45.27858" lon="6.0707">
        <ele>1129.8000488281</ele>
        <time>2026-08-21T09:12:38.000Z</time>
      </trkpt>
      <trkpt lat="45.27857" lon="6.07068">
        <ele>1130</ele>
        <time>2026-08-21T09:12:39.000Z</time>
      </trkpt>
      <trkpt lat="45.27856" lon="6.07067">
        <ele>1130.4000244141</ele>
        <time>2026-08-21T09:12:40.000Z</time>
      </trkpt>
      <trkpt lat="45.27855" lon="6.07066">
        <ele>1130.8000488281</ele>
        <time>2026-08-21T09:12:41.000Z</time>
      </trkpt>
      <trkpt lat="45.27854" lon="6.07065">
        <ele>1131</ele>
        <time>2026-08-21T09:12:42.000Z</time>
      </trkpt>
      <trkpt lat="45.27852" lon="6.07065">
        <ele>1131.1999511719</ele>
        <time>2026-08-21T09:12:43.000Z</time>
      </trkpt>
      <trkpt lat="45.27851" lon="6.07064">
        <ele>1131.5999755859</ele>
        <time>2026-08-21T09:12:44.000Z</time>
      </trkpt>
      <trkpt lat="45.2785" lon="6.07064">
        <ele>1131.5999755859</ele>
        <time>2026-08-21T09:12:45.000Z</time>
      </trkpt>
      <trkpt lat="45.27849" lon="6.07063">
        <ele>1131.8000488281</ele>
        <time>2026-08-21T09:12:46.000Z</time>
      </trkpt>
      <trkpt lat="45.27848" lon="6.07062">
        <ele>1132.1999511719</ele>
        <time>2026-08-21T09:12:47.000Z</time>
      </trkpt>
      <trkpt lat="45.27846" lon="6.07062">
        <ele>1132.4000244141</ele>
        <time>2026-08-21T09:12:48.000Z</time>
      </trkpt>
      <trkpt lat="45.27845" lon="6.07061">
        <ele>1132.8000488281</ele>
        <time>2026-08-21T09:12:49.000Z</time>
      </trkpt>
      <trkpt lat="45.27843" lon="6.07061">
        <ele>1133</ele>
        <time>2026-08-21T09:12:50.000Z</time>
      </trkpt>
      <trkpt lat="45.27842" lon="6.0706">
        <ele>1133.1999511719</ele>
        <time>2026-08-21T09:12:51.000Z</time>
      </trkpt>
      <trkpt lat="45.27841" lon="6.0706">
        <ele>1133.4000244141</ele>
        <time>2026-08-21T09:12:52.000Z</time>
      </trkpt>
      <trkpt lat="45.27839" lon="6.0706">
        <ele>1133.5999755859</ele>
        <time>2026-08-21T09:12:53.000Z</time>
      </trkpt>
      <trkpt lat="45.27838" lon="6.0706">
        <ele>1134</ele>
        <time>2026-08-21T09:12:54.000Z</time>
      </trkpt>
      <trkpt lat="45.27836" lon="6.0706">
        <ele>1134.1999511719</ele>
        <time>2026-08-21T09:12:55.000Z</time>
      </trkpt>
      <trkpt lat="45.27834" lon="6.07059">
        <ele>1134.4000244141</ele>
        <time>2026-08-21T09:12:56.000Z</time>
      </trkpt>
      <trkpt lat="45.27833" lon="6.07059">
        <ele>1134.8000488281</ele>
        <time>2026-08-21T09:12:57.000Z</time>
      </trkpt>
      <trkpt lat="45.27832" lon="6.07059">
        <ele>1135</ele>
        <time>2026-08-21T09:12:58.000Z</time>
      </trkpt>
      <trkpt lat="45.2783" lon="6.07059">
        <ele>1135.1999511719</ele>
        <time>2026-08-21T09:12:59.000Z</time>
      </trkpt>
      <trkpt lat="45.27828" lon="6.07059">
        <ele>1135.4000244141</ele>
        <time>2026-08-21T09:13:00.000Z</time>
      </trkpt>
      <trkpt lat="45.27827" lon="6.07059">
        <ele>1135.5999755859</ele>
        <time>2026-08-21T09:13:01.000Z</time>
      </trkpt>
      <trkpt lat="45.27825" lon="6.07059">
        <ele>1135.8000488281</ele>
        <time>2026-08-21T09:13:02.000Z</time>
      </trkpt>
      <trkpt lat="45.27823" lon="6.07059">
        <ele>1136.1999511719</ele>
        <time>2026-08-21T09:13:03.000Z</time>
      </trkpt>
      <trkpt lat="45.27822" lon="6.07059">
        <ele>1136.4000244141</ele>
        <time>2026-08-21T09:13:04.000Z</time>
      </trkpt>
      <trkpt lat="45.2782" lon="6.07058">
        <ele>1136.5999755859</ele>
        <time>2026-08-21T09:13:05.000Z</time>
      </trkpt>
      <trkpt lat="45.27818" lon="6.07059">
        <ele>1136.8000488281</ele>
        <time>2026-08-21T09:13:06.000Z</time>
      </trkpt>
      <trkpt lat="45.27816" lon="6.07059">
        <ele>1137</ele>
        <time>2026-08-21T09:13:07.000Z</time>
      </trkpt>
      <trkpt lat="45.27814" lon="6.0706">
        <ele>1137.1999511719</ele>
        <time>2026-08-21T09:13:08.000Z</time>
      </trkpt>
      <trkpt lat="45.27812" lon="6.0706">
        <ele>1137.1999511719</ele>
        <time>2026-08-21T09:13:09.000Z</time>
      </trkpt>
      <trkpt lat="45.2781" lon="6.07061">
        <ele>1137.1999511719</ele>
        <time>2026-08-21T09:13:10.000Z</time>
      </trkpt>
      <trkpt lat="45.27808" lon="6.07061">
        <ele>1137.1999511719</ele>
        <time>2026-08-21T09:13:11.000Z</time>
      </trkpt>
      <trkpt lat="45.27806" lon="6.07061">
        <ele>1137.1999511719</ele>
        <time>2026-08-21T09:13:12.000Z</time>
      </trkpt>
      <trkpt lat="45.27803" lon="6.07061">
        <ele>1137</ele>
        <time>2026-08-21T09:13:13.000Z</time>
      </trkpt>
      <trkpt lat="45.27801" lon="6.07062">
        <ele>1136.8000488281</ele>
        <time>2026-08-21T09:13:14.000Z</time>
      </trkpt>
      <trkpt lat="45.27799" lon="6.07063">
        <ele>1136.5999755859</ele>
        <time>2026-08-21T09:13:15.000Z</time>
      </trkpt>
      <trkpt lat="45.27796" lon="6.07064">
        <ele>1136.5999755859</ele>
        <time>2026-08-21T09:13:16.000Z</time>
      </trkpt>
      <trkpt lat="45.27794" lon="6.07064">
        <ele>1136.5999755859</ele>
        <time>2026-08-21T09:13:17.000Z</time>
      </trkpt>
      <trkpt lat="45.27791" lon="6.07063">
        <ele>1136.5999755859</ele>
        <time>2026-08-21T09:13:18.000Z</time>
      </trkpt>
      <trkpt lat="45.27789" lon="6.07063">
        <ele>1136.5999755859</ele>
        <time>2026-08-21T09:13:19.000Z</time>
      </trkpt>
      <trkpt lat="45.27787" lon="6.07063">
        <ele>1136.8000488281</ele>
        <time>2026-08-21T09:13:20.000Z</time>
      </trkpt>
      <trkpt lat="45.27785" lon="6.07062">
        <ele>1137</ele>
        <time>2026-08-21T09:13:21.000Z</time>
      </trkpt>
      <trkpt lat="45.27784" lon="6.07061">
        <ele>1137.1999511719</ele>
        <time>2026-08-21T09:13:22.000Z</time>
      </trkpt>
      <trkpt lat="45.27782" lon="6.07059">
        <ele>1137.4000244141</ele>
        <time>2026-08-21T09:13:23.000Z</time>
      </trkpt>
      <trkpt lat="45.27781" lon="6.07057">
        <ele>1137.5999755859</ele>
        <time>2026-08-21T09:13:24.000Z</time>
      </trkpt>
      <trkpt lat="45.27781" lon="6.07054">
        <ele>1137.8000488281</ele>
        <time>2026-08-21T09:13:25.000Z</time>
      </trkpt>
      <trkpt lat="45.2778" lon="6.07052">
        <ele>1138</ele>
        <time>2026-08-21T09:13:26.000Z</time>
      </trkpt>
      <trkpt lat="45.2778" lon="6.0705">
        <ele>1138.4000244141</ele>
        <time>2026-08-21T09:13:27.000Z</time>
      </trkpt>
      <trkpt lat="45.27779" lon="6.07048">
        <ele>1138.5999755859</ele>
        <time>2026-08-21T09:13:28.000Z</time>
      </trkpt>
      <trkpt lat="45.27779" lon="6.07045">
        <ele>1138.8000488281</ele>
        <time>2026-08-21T09:13:29.000Z</time>
      </trkpt>
      <trkpt lat="45.27779" lon="6.07043">
        <ele>1139</ele>
        <time>2026-08-21T09:13:30.000Z</time>
      </trkpt>
      <trkpt lat="45.27779" lon="6.07041">
        <ele>1139.4000244141</ele>
        <time>2026-08-21T09:13:31.000Z</time>
      </trkpt>
      <trkpt lat="45.27779" lon="6.07039">
        <ele>1139.5999755859</ele>
        <time>2026-08-21T09:13:32.000Z</time>
      </trkpt>
      <trkpt lat="45.27779" lon="6.07036">
        <ele>1140</ele>
        <time>2026-08-21T09:13:33.000Z</time>
      </trkpt>
      <trkpt lat="45.27778" lon="6.07034">
        <ele>1140.1999511719</ele>
        <time>2026-08-21T09:13:34.000Z</time>
      </trkpt>
      <trkpt lat="45.27778" lon="6.07032">
        <ele>1140.5999755859</ele>
        <time>2026-08-21T09:13:35.000Z</time>
      </trkpt>
      <trkpt lat="45.27778" lon="6.0703">
        <ele>1140.8000488281</ele>
        <time>2026-08-21T09:13:36.000Z</time>
      </trkpt>
      <trkpt lat="45.27778" lon="6.07029">
        <ele>1141.1999511719</ele>
        <time>2026-08-21T09:13:37.000Z</time>
      </trkpt>
      <trkpt lat="45.27778" lon="6.07027">
        <ele>1141.4000244141</ele>
        <time>2026-08-21T09:13:38.000Z</time>
      </trkpt>
      <trkpt lat="45.27778" lon="6.07025">
        <ele>1141.5999755859</ele>
        <time>2026-08-21T09:13:39.000Z</time>
      </trkpt>
      <trkpt lat="45.27777" lon="6.07023">
        <ele>1142</ele>
        <time>2026-08-21T09:13:40.000Z</time>
      </trkpt>
      <trkpt lat="45.27777" lon="6.07021">
        <ele>1142.1999511719</ele>
        <time>2026-08-21T09:13:41.000Z</time>
      </trkpt>
      <trkpt lat="45.27776" lon="6.0702">
        <ele>1142</ele>
        <time>2026-08-21T09:13:42.000Z</time>
      </trkpt>
      <trkpt lat="45.27775" lon="6.07018">
        <ele>1142</ele>
        <time>2026-08-21T09:13:43.000Z</time>
      </trkpt>
      <trkpt lat="45.27775" lon="6.07017">
        <ele>1141.8000488281</ele>
        <time>2026-08-21T09:13:44.000Z</time>
      </trkpt>
      <trkpt lat="45.27773" lon="6.07015">
        <ele>1141.8000488281</ele>
        <time>2026-08-21T09:13:45.000Z</time>
      </trkpt>
      <trkpt lat="45.27773" lon="6.07013">
        <ele>1141.5999755859</ele>
        <time>2026-08-21T09:13:46.000Z</time>
      </trkpt>
      <trkpt lat="45.27771" lon="6.07012">
        <ele>1141.4000244141</ele>
        <time>2026-08-21T09:13:47.000Z</time>
      </trkpt>
      <trkpt lat="45.2777" lon="6.0701">
        <ele>1141.4000244141</ele>
        <time>2026-08-21T09:13:48.000Z</time>
      </trkpt>
      <trkpt lat="45.2777" lon="6.07008">
        <ele>1141.1999511719</ele>
        <time>2026-08-21T09:13:49.000Z</time>
      </trkpt>
      <trkpt lat="45.27769" lon="6.07006">
        <ele>1141</ele>
        <time>2026-08-21T09:13:50.000Z</time>
      </trkpt>
      <trkpt lat="45.27768" lon="6.07004">
        <ele>1140.8000488281</ele>
        <time>2026-08-21T09:13:51.000Z</time>
      </trkpt>
      <trkpt lat="45.27768" lon="6.07003">
        <ele>1140.5999755859</ele>
        <time>2026-08-21T09:13:52.000Z</time>
      </trkpt>
      <trkpt lat="45.27767" lon="6.07001">
        <ele>1140.4000244141</ele>
        <time>2026-08-21T09:13:53.000Z</time>
      </trkpt>
      <trkpt lat="45.27767" lon="6.06999">
        <ele>1140.1999511719</ele>
        <time>2026-08-21T09:13:54.000Z</time>
      </trkpt>
      <trkpt lat="45.27766" lon="6.06997">
        <ele>1140</ele>
        <time>2026-08-21T09:13:55.000Z</time>
      </trkpt>
      <trkpt lat="45.27765" lon="6.06995">
        <ele>1139.8000488281</ele>
        <time>2026-08-21T09:13:56.000Z</time>
      </trkpt>
      <trkpt lat="45.27765" lon="6.06993">
        <ele>1139.8000488281</ele>
        <time>2026-08-21T09:13:57.000Z</time>
      </trkpt>
      <trkpt lat="45.27765" lon="6.06992">
        <ele>1139.8000488281</ele>
        <time>2026-08-21T09:13:58.000Z</time>
      </trkpt>
      <trkpt lat="45.27764" lon="6.0699">
        <ele>1140</ele>
        <time>2026-08-21T09:13:59.000Z</time>
      </trkpt>
      <trkpt lat="45.27763" lon="6.06989">
        <ele>1140</ele>
        <time>2026-08-21T09:14:00.000Z</time>
      </trkpt>
      <trkpt lat="45.27763" lon="6.06987">
        <ele>1140.5999755859</ele>
        <time>2026-08-21T09:14:01.000Z</time>
      </trkpt>
      <trkpt lat="45.27763" lon="6.06986">
        <ele>1141</ele>
        <time>2026-08-21T09:14:02.000Z</time>
      </trkpt>
      <trkpt lat="45.27762" lon="6.06984">
        <ele>1141.5999755859</ele>
        <time>2026-08-21T09:14:03.000Z</time>
      </trkpt>
      <trkpt lat="45.27762" lon="6.06982">
        <ele>1142.4000244141</ele>
        <time>2026-08-21T09:14:04.000Z</time>
      </trkpt>
      <trkpt lat="45.27761" lon="6.06981">
        <ele>1142.8000488281</ele>
        <time>2026-08-21T09:14:05.000Z</time>
      </trkpt>
      <trkpt lat="45.27761" lon="6.06979">
        <ele>1143.4000244141</ele>
        <time>2026-08-21T09:14:06.000Z</time>
      </trkpt>
      <trkpt lat="45.2776" lon="6.06978">
        <ele>1143.8000488281</ele>
        <time>2026-08-21T09:14:07.000Z</time>
      </trkpt>
      <trkpt lat="45.2776" lon="6.06976">
        <ele>1144.1999511719</ele>
        <time>2026-08-21T09:14:08.000Z</time>
      </trkpt>
      <trkpt lat="45.2776" lon="6.06975">
        <ele>1144.5999755859</ele>
        <time>2026-08-21T09:14:09.000Z</time>
      </trkpt>
      <trkpt lat="45.2776" lon="6.06973">
        <ele>1145</ele>
        <time>2026-08-21T09:14:10.000Z</time>
      </trkpt>
      <trkpt lat="45.27759" lon="6.06971">
        <ele>1145.1999511719</ele>
        <time>2026-08-21T09:14:11.000Z</time>
      </trkpt>
      <trkpt lat="45.27759" lon="6.06969">
        <ele>1145.4000244141</ele>
        <time>2026-08-21T09:14:12.000Z</time>
      </trkpt>
      <trkpt lat="45.27758" lon="6.06968">
        <ele>1145.4000244141</ele>
        <time>2026-08-21T09:14:13.000Z</time>
      </trkpt>
      <trkpt lat="45.27757" lon="6.06966">
        <ele>1145.8000488281</ele>
        <time>2026-08-21T09:14:14.000Z</time>
      </trkpt>
      <trkpt lat="45.27757" lon="6.06965">
        <ele>1146</ele>
        <time>2026-08-21T09:14:15.000Z</time>
      </trkpt>
      <trkpt lat="45.27756" lon="6.06963">
        <ele>1146.4000244141</ele>
        <time>2026-08-21T09:14:16.000Z</time>
      </trkpt>
      <trkpt lat="45.27756" lon="6.06962">
        <ele>1146.5999755859</ele>
        <time>2026-08-21T09:14:17.000Z</time>
      </trkpt>
      <trkpt lat="45.27755" lon="6.0696">
        <ele>1147</ele>
        <time>2026-08-21T09:14:18.000Z</time>
      </trkpt>
      <trkpt lat="45.27755" lon="6.06959">
        <ele>1147.1999511719</ele>
        <time>2026-08-21T09:14:19.000Z</time>
      </trkpt>
      <trkpt lat="45.27754" lon="6.06957">
        <ele>1147.4000244141</ele>
        <time>2026-08-21T09:14:20.000Z</time>
      </trkpt>
      <trkpt lat="45.27754" lon="6.06955">
        <ele>1147.5999755859</ele>
        <time>2026-08-21T09:14:21.000Z</time>
      </trkpt>
      <trkpt lat="45.27753" lon="6.06954">
        <ele>1148</ele>
        <time>2026-08-21T09:14:22.000Z</time>
      </trkpt>
      <trkpt lat="45.27752" lon="6.06953">
        <ele>1148</ele>
        <time>2026-08-21T09:14:23.000Z</time>
      </trkpt>
      <trkpt lat="45.27751" lon="6.06952">
        <ele>1149</ele>
        <time>2026-08-21T09:14:24.000Z</time>
      </trkpt>
      <trkpt lat="45.27751" lon="6.0695">
        <ele>1149.5999755859</ele>
        <time>2026-08-21T09:14:25.000Z</time>
      </trkpt>
      <trkpt lat="45.2775" lon="6.06949">
        <ele>1150</ele>
        <time>2026-08-21T09:14:26.000Z</time>
      </trkpt>
      <trkpt lat="45.27749" lon="6.06948">
        <ele>1150.4000244141</ele>
        <time>2026-08-21T09:14:27.000Z</time>
      </trkpt>
      <trkpt lat="45.27748" lon="6.06946">
        <ele>1150.8000488281</ele>
        <time>2026-08-21T09:14:28.000Z</time>
      </trkpt>
      <trkpt lat="45.27747" lon="6.06945">
        <ele>1151</ele>
        <time>2026-08-21T09:14:29.000Z</time>
      </trkpt>
      <trkpt lat="45.27746" lon="6.06944">
        <ele>1151.4000244141</ele>
        <time>2026-08-21T09:14:30.000Z</time>
      </trkpt>
      <trkpt lat="45.27746" lon="6.06942">
        <ele>1151.5999755859</ele>
        <time>2026-08-21T09:14:31.000Z</time>
      </trkpt>
      <trkpt lat="45.27745" lon="6.06941">
        <ele>1151.8000488281</ele>
        <time>2026-08-21T09:14:32.000Z</time>
      </trkpt>
      <trkpt lat="45.27745" lon="6.06939">
        <ele>1152</ele>
        <time>2026-08-21T09:14:33.000Z</time>
      </trkpt>
      <trkpt lat="45.27745" lon="6.06938">
        <ele>1152.1999511719</ele>
        <time>2026-08-21T09:14:34.000Z</time>
      </trkpt>
      <trkpt lat="45.27744" lon="6.06936">
        <ele>1152.5999755859</ele>
        <time>2026-08-21T09:14:35.000Z</time>
      </trkpt>
      <trkpt lat="45.27744" lon="6.06935">
        <ele>1152.8000488281</ele>
        <time>2026-08-21T09:14:36.000Z</time>
      </trkpt>
      <trkpt lat="45.27744" lon="6.06933">
        <ele>1153.1999511719</ele>
        <time>2026-08-21T09:14:37.000Z</time>
      </trkpt>
      <trkpt lat="45.27744" lon="6.06932">
        <ele>1153.5999755859</ele>
        <time>2026-08-21T09:14:38.000Z</time>
      </trkpt>
      <trkpt lat="45.27743" lon="6.0693">
        <ele>1154</ele>
        <time>2026-08-21T09:14:39.000Z</time>
      </trkpt>
      <trkpt lat="45.27743" lon="6.06929">
        <ele>1154.1999511719</ele>
        <time>2026-08-21T09:14:40.000Z</time>
      </trkpt>
      <trkpt lat="45.27743" lon="6.06927">
        <ele>1154.5999755859</ele>
        <time>2026-08-21T09:14:41.000Z</time>
      </trkpt>
      <trkpt lat="45.27742" lon="6.06925">
        <ele>1155.1999511719</ele>
        <time>2026-08-21T09:14:42.000Z</time>
      </trkpt>
      <trkpt lat="45.27742" lon="6.06922">
        <ele>1155.5999755859</ele>
        <time>2026-08-21T09:14:43.000Z</time>
      </trkpt>
      <trkpt lat="45.27742" lon="6.06919">
        <ele>1156.1999511719</ele>
        <time>2026-08-21T09:14:44.000Z</time>
      </trkpt>
      <trkpt lat="45.27742" lon="6.06917">
        <ele>1156.5999755859</ele>
        <time>2026-08-21T09:14:45.000Z</time>
      </trkpt>
      <trkpt lat="45.27741" lon="6.06915">
        <ele>1156.5999755859</ele>
        <time>2026-08-21T09:14:46.000Z</time>
      </trkpt>
      <trkpt lat="45.27741" lon="6.06913">
        <ele>1157.1999511719</ele>
        <time>2026-08-21T09:14:47.000Z</time>
      </trkpt>
      <trkpt lat="45.27741" lon="6.06911">
        <ele>1157.5999755859</ele>
        <time>2026-08-21T09:14:48.000Z</time>
      </trkpt>
      <trkpt lat="45.27742" lon="6.06909">
        <ele>1158</ele>
        <time>2026-08-21T09:14:49.000Z</time>
      </trkpt>
      <trkpt lat="45.27742" lon="6.06908">
        <ele>1158.4000244141</ele>
        <time>2026-08-21T09:14:50.000Z</time>
      </trkpt>
      <trkpt lat="45.27742" lon="6.06906">
        <ele>1158.8000488281</ele>
        <time>2026-08-21T09:14:51.000Z</time>
      </trkpt>
      <trkpt lat="45.27741" lon="6.06905">
        <ele>1159</ele>
        <time>2026-08-21T09:14:52.000Z</time>
      </trkpt>
      <trkpt lat="45.27741" lon="6.06903">
        <ele>1159.4000244141</ele>
        <time>2026-08-21T09:14:53.000Z</time>
      </trkpt>
      <trkpt lat="45.2774" lon="6.06902">
        <ele>1159.8000488281</ele>
        <time>2026-08-21T09:14:54.000Z</time>
      </trkpt>
      <trkpt lat="45.2774" lon="6.069">
        <ele>1160.1999511719</ele>
        <time>2026-08-21T09:14:55.000Z</time>
      </trkpt>
      <trkpt lat="45.27739" lon="6.06899">
        <ele>1160.1999511719</ele>
        <time>2026-08-21T09:14:56.000Z</time>
      </trkpt>
      <trkpt lat="45.27738" lon="6.06897">
        <ele>1160.4000244141</ele>
        <time>2026-08-21T09:14:57.000Z</time>
      </trkpt>
      <trkpt lat="45.27738" lon="6.06895">
        <ele>1160.5999755859</ele>
        <time>2026-08-21T09:14:58.000Z</time>
      </trkpt>
      <trkpt lat="45.27738" lon="6.06893">
        <ele>1161</ele>
        <time>2026-08-21T09:14:59.000Z</time>
      </trkpt>
      <trkpt lat="45.27737" lon="6.06891">
        <ele>1161.1999511719</ele>
        <time>2026-08-21T09:15:00.000Z</time>
      </trkpt>
      <trkpt lat="45.27737" lon="6.06891">
        <ele>1161.4000244141</ele>
        <time>2026-08-21T09:15:01.000Z</time>
      </trkpt>
      <trkpt lat="45.27736" lon="6.06889">
        <ele>1161.8000488281</ele>
        <time>2026-08-21T09:15:02.000Z</time>
      </trkpt>
      <trkpt lat="45.27735" lon="6.06888">
        <ele>1162</ele>
        <time>2026-08-21T09:15:03.000Z</time>
      </trkpt>
      <trkpt lat="45.27735" lon="6.06886">
        <ele>1162.4000244141</ele>
        <time>2026-08-21T09:15:04.000Z</time>
      </trkpt>
      <trkpt lat="45.27734" lon="6.06884">
        <ele>1162.8000488281</ele>
        <time>2026-08-21T09:15:05.000Z</time>
      </trkpt>
      <trkpt lat="45.27734" lon="6.06882">
        <ele>1163</ele>
        <time>2026-08-21T09:15:06.000Z</time>
      </trkpt>
      <trkpt lat="45.27734" lon="6.0688">
        <ele>1163.1999511719</ele>
        <time>2026-08-21T09:15:07.000Z</time>
      </trkpt>
      <trkpt lat="45.27734" lon="6.06879">
        <ele>1163.4000244141</ele>
        <time>2026-08-21T09:15:08.000Z</time>
      </trkpt>
      <trkpt lat="45.27733" lon="6.06877">
        <ele>1163.5999755859</ele>
        <time>2026-08-21T09:15:09.000Z</time>
      </trkpt>
      <trkpt lat="45.27733" lon="6.06876">
        <ele>1164</ele>
        <time>2026-08-21T09:15:10.000Z</time>
      </trkpt>
      <trkpt lat="45.27732" lon="6.06875">
        <ele>1164.4000244141</ele>
        <time>2026-08-21T09:15:11.000Z</time>
      </trkpt>
      <trkpt lat="45.27732" lon="6.06874">
        <ele>1164.8000488281</ele>
        <time>2026-08-21T09:15:12.000Z</time>
      </trkpt>
      <trkpt lat="45.27731" lon="6.06873">
        <ele>1165.1999511719</ele>
        <time>2026-08-21T09:15:13.000Z</time>
      </trkpt>
      <trkpt lat="45.27731" lon="6.06871">
        <ele>1165.4000244141</ele>
        <time>2026-08-21T09:15:14.000Z</time>
      </trkpt>
      <trkpt lat="45.2773" lon="6.0687">
        <ele>1165.5999755859</ele>
        <time>2026-08-21T09:15:15.000Z</time>
      </trkpt>
      <trkpt lat="45.27729" lon="6.06869">
        <ele>1166</ele>
        <time>2026-08-21T09:15:16.000Z</time>
      </trkpt>
      <trkpt lat="45.27728" lon="6.06868">
        <ele>1166</ele>
        <time>2026-08-21T09:15:17.000Z</time>
      </trkpt>
      <trkpt lat="45.27727" lon="6.06866">
        <ele>1166.1999511719</ele>
        <time>2026-08-21T09:15:18.000Z</time>
      </trkpt>
      <trkpt lat="45.27726" lon="6.06864">
        <ele>1166.4000244141</ele>
        <time>2026-08-21T09:15:19.000Z</time>
      </trkpt>
      <trkpt lat="45.27725" lon="6.06863">
        <ele>1166.5999755859</ele>
        <time>2026-08-21T09:15:20.000Z</time>
      </trkpt>
      <trkpt lat="45.27724" lon="6.06861">
        <ele>1166.8000488281</ele>
        <time>2026-08-21T09:15:21.000Z</time>
      </trkpt>
      <trkpt lat="45.27723" lon="6.06859">
        <ele>1167.1999511719</ele>
        <time>2026-08-21T09:15:22.000Z</time>
      </trkpt>
      <trkpt lat="45.27722" lon="6.06858">
        <ele>1167.1999511719</ele>
        <time>2026-08-21T09:15:23.000Z</time>
      </trkpt>
      <trkpt lat="45.27722" lon="6.06857">
        <ele>1167.1999511719</ele>
        <time>2026-08-21T09:15:24.000Z</time>
      </trkpt>
      <trkpt lat="45.27721" lon="6.06855">
        <ele>1167.4000244141</ele>
        <time>2026-08-21T09:15:25.000Z</time>
      </trkpt>
      <trkpt lat="45.2772" lon="6.06854">
        <ele>1167.5999755859</ele>
        <time>2026-08-21T09:15:26.000Z</time>
      </trkpt>
      <trkpt lat="45.2772" lon="6.06852">
        <ele>1167.8000488281</ele>
        <time>2026-08-21T09:15:27.000Z</time>
      </trkpt>
      <trkpt lat="45.2772" lon="6.06851">
        <ele>1168.4000244141</ele>
        <time>2026-08-21T09:15:28.000Z</time>
      </trkpt>
      <trkpt lat="45.27719" lon="6.0685">
        <ele>1168.8000488281</ele>
        <time>2026-08-21T09:15:29.000Z</time>
      </trkpt>
      <trkpt lat="45.27718" lon="6.06849">
        <ele>1169.1999511719</ele>
        <time>2026-08-21T09:15:30.000Z</time>
      </trkpt>
      <trkpt lat="45.27718" lon="6.06848">
        <ele>1169.1999511719</ele>
        <time>2026-08-21T09:15:31.000Z</time>
      </trkpt>
      <trkpt lat="45.27717" lon="6.06847">
        <ele>1169.1999511719</ele>
        <time>2026-08-21T09:15:32.000Z</time>
      </trkpt>
      <trkpt lat="45.27717" lon="6.06847">
        <ele>1169.1999511719</ele>
        <time>2026-08-21T09:15:33.000Z</time>
      </trkpt>
      <trkpt lat="45.27716" lon="6.06846">
        <ele>1169.4000244141</ele>
        <time>2026-08-21T09:15:34.000Z</time>
      </trkpt>
      <trkpt lat="45.27715" lon="6.06845">
        <ele>1169.4000244141</ele>
        <time>2026-08-21T09:15:35.000Z</time>
      </trkpt>
      <trkpt lat="45.27714" lon="6.06844">
        <ele>1169.8000488281</ele>
        <time>2026-08-21T09:15:36.000Z</time>
      </trkpt>
      <trkpt lat="45.27713" lon="6.06843">
        <ele>1170.1999511719</ele>
        <time>2026-08-21T09:15:37.000Z</time>
      </trkpt>
      <trkpt lat="45.27712" lon="6.06841">
        <ele>1170.5999755859</ele>
        <time>2026-08-21T09:15:38.000Z</time>
      </trkpt>
      <trkpt lat="45.27711" lon="6.0684">
        <ele>1170.8000488281</ele>
        <time>2026-08-21T09:15:39.000Z</time>
      </trkpt>
      <trkpt lat="45.2771" lon="6.06838">
        <ele>1171</ele>
        <time>2026-08-21T09:15:40.000Z</time>
      </trkpt>
      <trkpt lat="45.2771" lon="6.06837">
        <ele>1171.4000244141</ele>
        <time>2026-08-21T09:15:41.000Z</time>
      </trkpt>
      <trkpt lat="45.27709" lon="6.06836">
        <ele>1171.4000244141</ele>
        <time>2026-08-21T09:15:42.000Z</time>
      </trkpt>
      <trkpt lat="45.27708" lon="6.06835">
        <ele>1171.5999755859</ele>
        <time>2026-08-21T09:15:43.000Z</time>
      </trkpt>
      <trkpt lat="45.27707" lon="6.06833">
        <ele>1171.8000488281</ele>
        <time>2026-08-21T09:15:44.000Z</time>
      </trkpt>
      <trkpt lat="45.27706" lon="6.06832">
        <ele>1172</ele>
        <time>2026-08-21T09:15:45.000Z</time>
      </trkpt>
      <trkpt lat="45.27706" lon="6.06831">
        <ele>1172.1999511719</ele>
        <time>2026-08-21T09:15:46.000Z</time>
      </trkpt>
      <trkpt lat="45.27705" lon="6.06829">
        <ele>1172.5999755859</ele>
        <time>2026-08-21T09:15:47.000Z</time>
      </trkpt>
      <trkpt lat="45.27704" lon="6.06828">
        <ele>1173.1999511719</ele>
        <time>2026-08-21T09:15:48.000Z</time>
      </trkpt>
      <trkpt lat="45.27704" lon="6.06827">
        <ele>1173.5999755859</ele>
        <time>2026-08-21T09:15:49.000Z</time>
      </trkpt>
      <trkpt lat="45.27703" lon="6.06825">
        <ele>1174</ele>
        <time>2026-08-21T09:15:50.000Z</time>
      </trkpt>
      <trkpt lat="45.27702" lon="6.06825">
        <ele>1174.1999511719</ele>
        <time>2026-08-21T09:15:51.000Z</time>
      </trkpt>
      <trkpt lat="45.27702" lon="6.06823">
        <ele>1174.5999755859</ele>
        <time>2026-08-21T09:15:52.000Z</time>
      </trkpt>
      <trkpt lat="45.27701" lon="6.06822">
        <ele>1175</ele>
        <time>2026-08-21T09:15:53.000Z</time>
      </trkpt>
      <trkpt lat="45.27701" lon="6.06821">
        <ele>1175.1999511719</ele>
        <time>2026-08-21T09:15:54.000Z</time>
      </trkpt>
      <trkpt lat="45.277" lon="6.06819">
        <ele>1175.5999755859</ele>
        <time>2026-08-21T09:15:55.000Z</time>
      </trkpt>
      <trkpt lat="45.277" lon="6.06818">
        <ele>1175.5999755859</ele>
        <time>2026-08-21T09:15:56.000Z</time>
      </trkpt>
      <trkpt lat="45.27699" lon="6.06816">
        <ele>1175.8000488281</ele>
        <time>2026-08-21T09:15:57.000Z</time>
      </trkpt>
      <trkpt lat="45.27699" lon="6.06815">
        <ele>1176</ele>
        <time>2026-08-21T09:15:58.000Z</time>
      </trkpt>
      <trkpt lat="45.27698" lon="6.06814">
        <ele>1176.1999511719</ele>
        <time>2026-08-21T09:15:59.000Z</time>
      </trkpt>
      <trkpt lat="45.27698" lon="6.06813">
        <ele>1176.4000244141</ele>
        <time>2026-08-21T09:16:00.000Z</time>
      </trkpt>
      <trkpt lat="45.27697" lon="6.06812">
        <ele>1176.8000488281</ele>
        <time>2026-08-21T09:16:01.000Z</time>
      </trkpt>
      <trkpt lat="45.27697" lon="6.06811">
        <ele>1177.1999511719</ele>
        <time>2026-08-21T09:16:02.000Z</time>
      </trkpt>
      <trkpt lat="45.27696" lon="6.06809">
        <ele>1177.5999755859</ele>
        <time>2026-08-21T09:16:03.000Z</time>
      </trkpt>
      <trkpt lat="45.27696" lon="6.06807">
        <ele>1177.8000488281</ele>
        <time>2026-08-21T09:16:04.000Z</time>
      </trkpt>
      <trkpt lat="45.27695" lon="6.06806">
        <ele>1177.8000488281</ele>
        <time>2026-08-21T09:16:05.000Z</time>
      </trkpt>
      <trkpt lat="45.27695" lon="6.06805">
        <ele>1178.1999511719</ele>
        <time>2026-08-21T09:16:06.000Z</time>
      </trkpt>
      <trkpt lat="45.27694" lon="6.06803">
        <ele>1178.4000244141</ele>
        <time>2026-08-21T09:16:07.000Z</time>
      </trkpt>
      <trkpt lat="45.27693" lon="6.06802">
        <ele>1178.5999755859</ele>
        <time>2026-08-21T09:16:08.000Z</time>
      </trkpt>
      <trkpt lat="45.27693" lon="6.06801">
        <ele>1179</ele>
        <time>2026-08-21T09:16:09.000Z</time>
      </trkpt>
      <trkpt lat="45.27692" lon="6.068">
        <ele>1179.4000244141</ele>
        <time>2026-08-21T09:16:10.000Z</time>
      </trkpt>
      <trkpt lat="45.27691" lon="6.06798">
        <ele>1179.5999755859</ele>
        <time>2026-08-21T09:16:11.000Z</time>
      </trkpt>
      <trkpt lat="45.27691" lon="6.06797">
        <ele>1179.8000488281</ele>
        <time>2026-08-21T09:16:12.000Z</time>
      </trkpt>
      <trkpt lat="45.2769" lon="6.06796">
        <ele>1180.1999511719</ele>
        <time>2026-08-21T09:16:13.000Z</time>
      </trkpt>
      <trkpt lat="45.27689" lon="6.06794">
        <ele>1180.4000244141</ele>
        <time>2026-08-21T09:16:14.000Z</time>
      </trkpt>
      <trkpt lat="45.27688" lon="6.06793">
        <ele>1180.8000488281</ele>
        <time>2026-08-21T09:16:15.000Z</time>
      </trkpt>
      <trkpt lat="45.27687" lon="6.06791">
        <ele>1181.1999511719</ele>
        <time>2026-08-21T09:16:16.000Z</time>
      </trkpt>
      <trkpt lat="45.27686" lon="6.0679">
        <ele>1181.4000244141</ele>
        <time>2026-08-21T09:16:17.000Z</time>
      </trkpt>
      <trkpt lat="45.27685" lon="6.06788">
        <ele>1181.5999755859</ele>
        <time>2026-08-21T09:16:18.000Z</time>
      </trkpt>
      <trkpt lat="45.27685" lon="6.06786">
        <ele>1181.8000488281</ele>
        <time>2026-08-21T09:16:19.000Z</time>
      </trkpt>
      <trkpt lat="45.27685" lon="6.06785">
        <ele>1182</ele>
        <time>2026-08-21T09:16:20.000Z</time>
      </trkpt>
      <trkpt lat="45.27684" lon="6.06783">
        <ele>1182.1999511719</ele>
        <time>2026-08-21T09:16:21.000Z</time>
      </trkpt>
      <trkpt lat="45.27684" lon="6.06782">
        <ele>1182.1999511719</ele>
        <time>2026-08-21T09:16:22.000Z</time>
      </trkpt>
      <trkpt lat="45.27684" lon="6.0678">
        <ele>1182.4000244141</ele>
        <time>2026-08-21T09:16:23.000Z</time>
      </trkpt>
      <trkpt lat="45.27683" lon="6.06778">
        <ele>1182.4000244141</ele>
        <time>2026-08-21T09:16:24.000Z</time>
      </trkpt>
      <trkpt lat="45.27683" lon="6.06777">
        <ele>1182.4000244141</ele>
        <time>2026-08-21T09:16:25.000Z</time>
      </trkpt>
      <trkpt lat="45.27683" lon="6.06775">
        <ele>1182.4000244141</ele>
        <time>2026-08-21T09:16:26.000Z</time>
      </trkpt>
      <trkpt lat="45.27682" lon="6.06774">
        <ele>1182.8000488281</ele>
        <time>2026-08-21T09:16:27.000Z</time>
      </trkpt>
      <trkpt lat="45.27682" lon="6.06773">
        <ele>1183.1999511719</ele>
        <time>2026-08-21T09:16:28.000Z</time>
      </trkpt>
      <trkpt lat="45.27681" lon="6.06771">
        <ele>1183.5999755859</ele>
        <time>2026-08-21T09:16:29.000Z</time>
      </trkpt>
      <trkpt lat="45.27681" lon="6.0677">
        <ele>1184</ele>
        <time>2026-08-21T09:16:30.000Z</time>
      </trkpt>
      <trkpt lat="45.27681" lon="6.06769">
        <ele>1184.4000244141</ele>
        <time>2026-08-21T09:16:31.000Z</time>
      </trkpt>
      <trkpt lat="45.2768" lon="6.06767">
        <ele>1184.5999755859</ele>
        <time>2026-08-21T09:16:32.000Z</time>
      </trkpt>
      <trkpt lat="45.2768" lon="6.06765">
        <ele>1185.1999511719</ele>
        <time>2026-08-21T09:16:33.000Z</time>
      </trkpt>
      <trkpt lat="45.27679" lon="6.06763">
        <ele>1185.1999511719</ele>
        <time>2026-08-21T09:16:34.000Z</time>
      </trkpt>
      <trkpt lat="45.27679" lon="6.06761">
        <ele>1185.4000244141</ele>
        <time>2026-08-21T09:16:35.000Z</time>
      </trkpt>
      <trkpt lat="45.27679" lon="6.06759">
        <ele>1185.8000488281</ele>
        <time>2026-08-21T09:16:36.000Z</time>
      </trkpt>
      <trkpt lat="45.27679" lon="6.06757">
        <ele>1186</ele>
        <time>2026-08-21T09:16:37.000Z</time>
      </trkpt>
      <trkpt lat="45.27679" lon="6.06755">
        <ele>1186.1999511719</ele>
        <time>2026-08-21T09:16:38.000Z</time>
      </trkpt>
      <trkpt lat="45.27679" lon="6.06754">
        <ele>1186.4000244141</ele>
        <time>2026-08-21T09:16:39.000Z</time>
      </trkpt>
      <trkpt lat="45.27679" lon="6.06753">
        <ele>1186.5999755859</ele>
        <time>2026-08-21T09:16:40.000Z</time>
      </trkpt>
      <trkpt lat="45.27679" lon="6.06751">
        <ele>1186.8000488281</ele>
        <time>2026-08-21T09:16:41.000Z</time>
      </trkpt>
      <trkpt lat="45.27679" lon="6.06749">
        <ele>1187.1999511719</ele>
        <time>2026-08-21T09:16:42.000Z</time>
      </trkpt>
      <trkpt lat="45.27679" lon="6.06747">
        <ele>1187.4000244141</ele>
        <time>2026-08-21T09:16:43.000Z</time>
      </trkpt>
      <trkpt lat="45.2768" lon="6.06744">
        <ele>1187.5999755859</ele>
        <time>2026-08-21T09:16:44.000Z</time>
      </trkpt>
      <trkpt lat="45.2768" lon="6.06742">
        <ele>1187.8000488281</ele>
        <time>2026-08-21T09:16:45.000Z</time>
      </trkpt>
      <trkpt lat="45.27681" lon="6.06739">
        <ele>1188.1999511719</ele>
        <time>2026-08-21T09:16:46.000Z</time>
      </trkpt>
      <trkpt lat="45.27682" lon="6.06737">
        <ele>1188.4000244141</ele>
        <time>2026-08-21T09:16:47.000Z</time>
      </trkpt>
      <trkpt lat="45.27683" lon="6.06735">
        <ele>1188.5999755859</ele>
        <time>2026-08-21T09:16:48.000Z</time>
      </trkpt>
      <trkpt lat="45.27684" lon="6.06734">
        <ele>1188.8000488281</ele>
        <time>2026-08-21T09:16:49.000Z</time>
      </trkpt>
      <trkpt lat="45.27685" lon="6.06733">
        <ele>1188.8000488281</ele>
        <time>2026-08-21T09:16:50.000Z</time>
      </trkpt>
      <trkpt lat="45.27685" lon="6.06732">
        <ele>1189.1999511719</ele>
        <time>2026-08-21T09:16:51.000Z</time>
      </trkpt>
      <trkpt lat="45.27685" lon="6.06731">
        <ele>1189.5999755859</ele>
        <time>2026-08-21T09:16:52.000Z</time>
      </trkpt>
      <trkpt lat="45.27686" lon="6.0673">
        <ele>1189.8000488281</ele>
        <time>2026-08-21T09:16:53.000Z</time>
      </trkpt>
      <trkpt lat="45.27686" lon="6.06729">
        <ele>1190</ele>
        <time>2026-08-21T09:16:54.000Z</time>
      </trkpt>
      <trkpt lat="45.27687" lon="6.06729">
        <ele>1190.4000244141</ele>
        <time>2026-08-21T09:16:55.000Z</time>
      </trkpt>
      <trkpt lat="45.27687" lon="6.06728">
        <ele>1190.5999755859</ele>
        <time>2026-08-21T09:16:56.000Z</time>
      </trkpt>
      <trkpt lat="45.27686" lon="6.06728">
        <ele>1191</ele>
        <time>2026-08-21T09:16:57.000Z</time>
      </trkpt>
      <trkpt lat="45.27687" lon="6.06726">
        <ele>1191.1999511719</ele>
        <time>2026-08-21T09:16:58.000Z</time>
      </trkpt>
      <trkpt lat="45.27687" lon="6.06725">
        <ele>1191.5999755859</ele>
        <time>2026-08-21T09:16:59.000Z</time>
      </trkpt>
      <trkpt lat="45.27687" lon="6.06723">
        <ele>1192</ele>
        <time>2026-08-21T09:17:00.000Z</time>
      </trkpt>
      <trkpt lat="45.27687" lon="6.06722">
        <ele>1192.4000244141</ele>
        <time>2026-08-21T09:17:01.000Z</time>
      </trkpt>
      <trkpt lat="45.27686" lon="6.06721">
        <ele>1192.5999755859</ele>
        <time>2026-08-21T09:17:02.000Z</time>
      </trkpt>
      <trkpt lat="45.27686" lon="6.06719">
        <ele>1192.8000488281</ele>
        <time>2026-08-21T09:17:03.000Z</time>
      </trkpt>
      <trkpt lat="45.27686" lon="6.06718">
        <ele>1193</ele>
        <time>2026-08-21T09:17:04.000Z</time>
      </trkpt>
      <trkpt lat="45.27687" lon="6.06716">
        <ele>1193</ele>
        <time>2026-08-21T09:17:05.000Z</time>
      </trkpt>
      <trkpt lat="45.27686" lon="6.06715">
        <ele>1193.1999511719</ele>
        <time>2026-08-21T09:17:06.000Z</time>
      </trkpt>
      <trkpt lat="45.27687" lon="6.06713">
        <ele>1193.1999511719</ele>
        <time>2026-08-21T09:17:07.000Z</time>
      </trkpt>
      <trkpt lat="45.27687" lon="6.06711">
        <ele>1193.4000244141</ele>
        <time>2026-08-21T09:17:08.000Z</time>
      </trkpt>
      <trkpt lat="45.27687" lon="6.0671">
        <ele>1193.8000488281</ele>
        <time>2026-08-21T09:17:09.000Z</time>
      </trkpt>
      <trkpt lat="45.27687" lon="6.06708">
        <ele>1194.4000244141</ele>
        <time>2026-08-21T09:17:10.000Z</time>
      </trkpt>
      <trkpt lat="45.27687" lon="6.06708">
        <ele>1195</ele>
        <time>2026-08-21T09:17:11.000Z</time>
      </trkpt>
      <trkpt lat="45.27687" lon="6.06707">
        <ele>1195.5999755859</ele>
        <time>2026-08-21T09:17:12.000Z</time>
      </trkpt>
      <trkpt lat="45.27687" lon="6.06706">
        <ele>1196.1999511719</ele>
        <time>2026-08-21T09:17:13.000Z</time>
      </trkpt>
      <trkpt lat="45.27687" lon="6.06705">
        <ele>1196.8000488281</ele>
        <time>2026-08-21T09:17:14.000Z</time>
      </trkpt>
      <trkpt lat="45.27686" lon="6.06705">
        <ele>1196.8000488281</ele>
        <time>2026-08-21T09:17:15.000Z</time>
      </trkpt>
      <trkpt lat="45.27686" lon="6.06704">
        <ele>1197</ele>
        <time>2026-08-21T09:17:16.000Z</time>
      </trkpt>
      <trkpt lat="45.27685" lon="6.06704">
        <ele>1197.1999511719</ele>
        <time>2026-08-21T09:17:17.000Z</time>
      </trkpt>
      <trkpt lat="45.27685" lon="6.06703">
        <ele>1197.1999511719</ele>
        <time>2026-08-21T09:17:18.000Z</time>
      </trkpt>
      <trkpt lat="45.27684" lon="6.06702">
        <ele>1197.4000244141</ele>
        <time>2026-08-21T09:17:19.000Z</time>
      </trkpt>
      <trkpt lat="45.27684" lon="6.067">
        <ele>1197.4000244141</ele>
        <time>2026-08-21T09:17:20.000Z</time>
      </trkpt>
      <trkpt lat="45.27684" lon="6.06699">
        <ele>1197.8000488281</ele>
        <time>2026-08-21T09:17:21.000Z</time>
      </trkpt>
      <trkpt lat="45.27684" lon="6.06698">
        <ele>1198</ele>
        <time>2026-08-21T09:17:22.000Z</time>
      </trkpt>
      <trkpt lat="45.27684" lon="6.06697">
        <ele>1198.4000244141</ele>
        <time>2026-08-21T09:17:23.000Z</time>
      </trkpt>
      <trkpt lat="45.27683" lon="6.06695">
        <ele>1199</ele>
        <time>2026-08-21T09:17:24.000Z</time>
      </trkpt>
      <trkpt lat="45.27683" lon="6.06694">
        <ele>1199.4000244141</ele>
        <time>2026-08-21T09:17:25.000Z</time>
      </trkpt>
      <trkpt lat="45.27682" lon="6.06693">
        <ele>1200</ele>
        <time>2026-08-21T09:17:26.000Z</time>
      </trkpt>
      <trkpt lat="45.27682" lon="6.06691">
        <ele>1200.4000244141</ele>
        <time>2026-08-21T09:17:27.000Z</time>
      </trkpt>
      <trkpt lat="45.27681" lon="6.0669">
        <ele>1200.8000488281</ele>
        <time>2026-08-21T09:17:28.000Z</time>
      </trkpt>
      <trkpt lat="45.27681" lon="6.06689">
        <ele>1201.1999511719</ele>
        <time>2026-08-21T09:17:29.000Z</time>
      </trkpt>
      <trkpt lat="45.27681" lon="6.06687">
        <ele>1201.4000244141</ele>
        <time>2026-08-21T09:17:30.000Z</time>
      </trkpt>
      <trkpt lat="45.27681" lon="6.06686">
        <ele>1201.8000488281</ele>
        <time>2026-08-21T09:17:31.000Z</time>
      </trkpt>
      <trkpt lat="45.27681" lon="6.06685">
        <ele>1202.1999511719</ele>
        <time>2026-08-21T09:17:32.000Z</time>
      </trkpt>
      <trkpt lat="45.2768" lon="6.06684">
        <ele>1202.5999755859</ele>
        <time>2026-08-21T09:17:33.000Z</time>
      </trkpt>
      <trkpt lat="45.2768" lon="6.06683">
        <ele>1203</ele>
        <time>2026-08-21T09:17:34.000Z</time>
      </trkpt>
      <trkpt lat="45.27679" lon="6.06681">
        <ele>1203.4000244141</ele>
        <time>2026-08-21T09:17:35.000Z</time>
      </trkpt>
      <trkpt lat="45.27679" lon="6.0668">
        <ele>1203.5999755859</ele>
        <time>2026-08-21T09:17:36.000Z</time>
      </trkpt>
      <trkpt lat="45.27679" lon="6.06679">
        <ele>1203.8000488281</ele>
        <time>2026-08-21T09:17:37.000Z</time>
      </trkpt>
      <trkpt lat="45.27679" lon="6.06678">
        <ele>1204</ele>
        <time>2026-08-21T09:17:38.000Z</time>
      </trkpt>
      <trkpt lat="45.27678" lon="6.06677">
        <ele>1204</ele>
        <time>2026-08-21T09:17:39.000Z</time>
      </trkpt>
      <trkpt lat="45.27678" lon="6.06676">
        <ele>1204.1999511719</ele>
        <time>2026-08-21T09:17:40.000Z</time>
      </trkpt>
      <trkpt lat="45.27678" lon="6.06675">
        <ele>1204</ele>
        <time>2026-08-21T09:17:41.000Z</time>
      </trkpt>
      <trkpt lat="45.27677" lon="6.06673">
        <ele>1204</ele>
        <time>2026-08-21T09:17:42.000Z</time>
      </trkpt>
      <trkpt lat="45.27677" lon="6.06672">
        <ele>1204</ele>
        <time>2026-08-21T09:17:43.000Z</time>
      </trkpt>
      <trkpt lat="45.27677" lon="6.06671">
        <ele>1204.1999511719</ele>
        <time>2026-08-21T09:17:44.000Z</time>
      </trkpt>
      <trkpt lat="45.27677" lon="6.0667">
        <ele>1204.1999511719</ele>
        <time>2026-08-21T09:17:45.000Z</time>
      </trkpt>
      <trkpt lat="45.27676" lon="6.06668">
        <ele>1205</ele>
        <time>2026-08-21T09:17:46.000Z</time>
      </trkpt>
      <trkpt lat="45.27676" lon="6.06666">
        <ele>1205.5999755859</ele>
        <time>2026-08-21T09:17:47.000Z</time>
      </trkpt>
      <trkpt lat="45.27676" lon="6.06664">
        <ele>1206.1999511719</ele>
        <time>2026-08-21T09:17:48.000Z</time>
      </trkpt>
      <trkpt lat="45.27675" lon="6.06663">
        <ele>1206.8000488281</ele>
        <time>2026-08-21T09:17:49.000Z</time>
      </trkpt>
      <trkpt lat="45.27674" lon="6.06662">
        <ele>1207</ele>
        <time>2026-08-21T09:17:50.000Z</time>
      </trkpt>
      <trkpt lat="45.27674" lon="6.0666">
        <ele>1207.1999511719</ele>
        <time>2026-08-21T09:17:51.000Z</time>
      </trkpt>
      <trkpt lat="45.27673" lon="6.06659">
        <ele>1207.1999511719</ele>
        <time>2026-08-21T09:17:52.000Z</time>
      </trkpt>
      <trkpt lat="45.27673" lon="6.06658">
        <ele>1207.1999511719</ele>
        <time>2026-08-21T09:17:53.000Z</time>
      </trkpt>
      <trkpt lat="45.27673" lon="6.06657">
        <ele>1207</ele>
        <time>2026-08-21T09:17:54.000Z</time>
      </trkpt>
      <trkpt lat="45.27673" lon="6.06656">
        <ele>1207</ele>
        <time>2026-08-21T09:17:55.000Z</time>
      </trkpt>
      <trkpt lat="45.27672" lon="6.06655">
        <ele>1207</ele>
        <time>2026-08-21T09:17:56.000Z</time>
      </trkpt>
      <trkpt lat="45.27672" lon="6.06654">
        <ele>1207.1999511719</ele>
        <time>2026-08-21T09:17:57.000Z</time>
      </trkpt>
      <trkpt lat="45.27672" lon="6.06652">
        <ele>1207.4000244141</ele>
        <time>2026-08-21T09:17:58.000Z</time>
      </trkpt>
      <trkpt lat="45.27671" lon="6.06652">
        <ele>1207.8000488281</ele>
        <time>2026-08-21T09:17:59.000Z</time>
      </trkpt>
      <trkpt lat="45.2767" lon="6.06651">
        <ele>1208.1999511719</ele>
        <time>2026-08-21T09:18:00.000Z</time>
      </trkpt>
      <trkpt lat="45.2767" lon="6.0665">
        <ele>1208.5999755859</ele>
        <time>2026-08-21T09:18:01.000Z</time>
      </trkpt>
      <trkpt lat="45.27668" lon="6.06649">
        <ele>1209</ele>
        <time>2026-08-21T09:18:02.000Z</time>
      </trkpt>
      <trkpt lat="45.27668" lon="6.06648">
        <ele>1209.4000244141</ele>
        <time>2026-08-21T09:18:03.000Z</time>
      </trkpt>
      <trkpt lat="45.27667" lon="6.06647">
        <ele>1210</ele>
        <time>2026-08-21T09:18:04.000Z</time>
      </trkpt>
      <trkpt lat="45.27666" lon="6.06646">
        <ele>1210.5999755859</ele>
        <time>2026-08-21T09:18:05.000Z</time>
      </trkpt>
      <trkpt lat="45.27665" lon="6.06645">
        <ele>1210.8000488281</ele>
        <time>2026-08-21T09:18:06.000Z</time>
      </trkpt>
      <trkpt lat="45.27665" lon="6.06645">
        <ele>1211</ele>
        <time>2026-08-21T09:18:07.000Z</time>
      </trkpt>
      <trkpt lat="45.27664" lon="6.06643">
        <ele>1211.5999755859</ele>
        <time>2026-08-21T09:18:08.000Z</time>
      </trkpt>
      <trkpt lat="45.27664" lon="6.06642">
        <ele>1211.8000488281</ele>
        <time>2026-08-21T09:18:09.000Z</time>
      </trkpt>
      <trkpt lat="45.27664" lon="6.06641">
        <ele>1212</ele>
        <time>2026-08-21T09:18:10.000Z</time>
      </trkpt>
      <trkpt lat="45.27663" lon="6.0664">
        <ele>1212.4000244141</ele>
        <time>2026-08-21T09:18:11.000Z</time>
      </trkpt>
      <trkpt lat="45.27662" lon="6.06639">
        <ele>1212.5999755859</ele>
        <time>2026-08-21T09:18:12.000Z</time>
      </trkpt>
      <trkpt lat="45.27662" lon="6.06637">
        <ele>1212.5999755859</ele>
        <time>2026-08-21T09:18:13.000Z</time>
      </trkpt>
      <trkpt lat="45.27661" lon="6.06635">
        <ele>1212.8000488281</ele>
        <time>2026-08-21T09:18:14.000Z</time>
      </trkpt>
      <trkpt lat="45.27661" lon="6.06634">
        <ele>1212.8000488281</ele>
        <time>2026-08-21T09:18:15.000Z</time>
      </trkpt>
      <trkpt lat="45.2766" lon="6.06632">
        <ele>1213</ele>
        <time>2026-08-21T09:18:16.000Z</time>
      </trkpt>
      <trkpt lat="45.2766" lon="6.0663">
        <ele>1213.1999511719</ele>
        <time>2026-08-21T09:18:17.000Z</time>
      </trkpt>
      <trkpt lat="45.2766" lon="6.06629">
        <ele>1213.4000244141</ele>
        <time>2026-08-21T09:18:18.000Z</time>
      </trkpt>
      <trkpt lat="45.2766" lon="6.06627">
        <ele>1214</ele>
        <time>2026-08-21T09:18:19.000Z</time>
      </trkpt>
      <trkpt lat="45.2766" lon="6.06625">
        <ele>1214.1999511719</ele>
        <time>2026-08-21T09:18:20.000Z</time>
      </trkpt>
      <trkpt lat="45.2766" lon="6.06624">
        <ele>1214.5999755859</ele>
        <time>2026-08-21T09:18:21.000Z</time>
      </trkpt>
      <trkpt lat="45.2766" lon="6.06622">
        <ele>1215</ele>
        <time>2026-08-21T09:18:22.000Z</time>
      </trkpt>
      <trkpt lat="45.27659" lon="6.06621">
        <ele>1215.4000244141</ele>
        <time>2026-08-21T09:18:23.000Z</time>
      </trkpt>
      <trkpt lat="45.27659" lon="6.06619">
        <ele>1215.5999755859</ele>
        <time>2026-08-21T09:18:24.000Z</time>
      </trkpt>
      <trkpt lat="45.27658" lon="6.06618">
        <ele>1216</ele>
        <time>2026-08-21T09:18:25.000Z</time>
      </trkpt>
      <trkpt lat="45.27658" lon="6.06617">
        <ele>1216.1999511719</ele>
        <time>2026-08-21T09:18:26.000Z</time>
      </trkpt>
      <trkpt lat="45.27657" lon="6.06615">
        <ele>1216.4000244141</ele>
        <time>2026-08-21T09:18:27.000Z</time>
      </trkpt>
      <trkpt lat="45.27657" lon="6.06614">
        <ele>1216.5999755859</ele>
        <time>2026-08-21T09:18:28.000Z</time>
      </trkpt>
      <trkpt lat="45.27657" lon="6.06612">
        <ele>1217</ele>
        <time>2026-08-21T09:18:29.000Z</time>
      </trkpt>
      <trkpt lat="45.27657" lon="6.0661">
        <ele>1217.1999511719</ele>
        <time>2026-08-21T09:18:30.000Z</time>
      </trkpt>
      <trkpt lat="45.27656" lon="6.06608">
        <ele>1217.4000244141</ele>
        <time>2026-08-21T09:18:31.000Z</time>
      </trkpt>
      <trkpt lat="45.27656" lon="6.06606">
        <ele>1217.8000488281</ele>
        <time>2026-08-21T09:18:32.000Z</time>
      </trkpt>
      <trkpt lat="45.27656" lon="6.06605">
        <ele>1218</ele>
        <time>2026-08-21T09:18:33.000Z</time>
      </trkpt>
      <trkpt lat="45.27657" lon="6.06603">
        <ele>1218.1999511719</ele>
        <time>2026-08-21T09:18:34.000Z</time>
      </trkpt>
      <trkpt lat="45.27657" lon="6.06602">
        <ele>1218.5999755859</ele>
        <time>2026-08-21T09:18:35.000Z</time>
      </trkpt>
      <trkpt lat="45.27658" lon="6.06601">
        <ele>1218.8000488281</ele>
        <time>2026-08-21T09:18:36.000Z</time>
      </trkpt>
      <trkpt lat="45.27658" lon="6.06599">
        <ele>1219</ele>
        <time>2026-08-21T09:18:37.000Z</time>
      </trkpt>
      <trkpt lat="45.27658" lon="6.06598">
        <ele>1219.1999511719</ele>
        <time>2026-08-21T09:18:38.000Z</time>
      </trkpt>
      <trkpt lat="45.27658" lon="6.06597">
        <ele>1219.4000244141</ele>
        <time>2026-08-21T09:18:39.000Z</time>
      </trkpt>
      <trkpt lat="45.27659" lon="6.06596">
        <ele>1219.8000488281</ele>
        <time>2026-08-21T09:18:40.000Z</time>
      </trkpt>
      <trkpt lat="45.27659" lon="6.06595">
        <ele>1220</ele>
        <time>2026-08-21T09:18:41.000Z</time>
      </trkpt>
      <trkpt lat="45.27659" lon="6.06594">
        <ele>1220.4000244141</ele>
        <time>2026-08-21T09:18:42.000Z</time>
      </trkpt>
      <trkpt lat="45.27659" lon="6.06593">
        <ele>1220.8000488281</ele>
        <time>2026-08-21T09:18:43.000Z</time>
      </trkpt>
      <trkpt lat="45.27658" lon="6.06592">
        <ele>1221</ele>
        <time>2026-08-21T09:18:44.000Z</time>
      </trkpt>
      <trkpt lat="45.27659" lon="6.0659">
        <ele>1221.1999511719</ele>
        <time>2026-08-21T09:18:45.000Z</time>
      </trkpt>
      <trkpt lat="45.27659" lon="6.06589">
        <ele>1221.4000244141</ele>
        <time>2026-08-21T09:18:46.000Z</time>
      </trkpt>
      <trkpt lat="45.27659" lon="6.06588">
        <ele>1221.5999755859</ele>
        <time>2026-08-21T09:18:47.000Z</time>
      </trkpt>
      <trkpt lat="45.27659" lon="6.06587">
        <ele>1221.8000488281</ele>
        <time>2026-08-21T09:18:48.000Z</time>
      </trkpt>
      <trkpt lat="45.27658" lon="6.06586">
        <ele>1222</ele>
        <time>2026-08-21T09:18:49.000Z</time>
      </trkpt>
      <trkpt lat="45.27658" lon="6.06585">
        <ele>1222.1999511719</ele>
        <time>2026-08-21T09:18:50.000Z</time>
      </trkpt>
      <trkpt lat="45.27658" lon="6.06583">
        <ele>1222.4000244141</ele>
        <time>2026-08-21T09:18:51.000Z</time>
      </trkpt>
      <trkpt lat="45.27657" lon="6.06582">
        <ele>1222.4000244141</ele>
        <time>2026-08-21T09:18:52.000Z</time>
      </trkpt>
      <trkpt lat="45.27657" lon="6.06581">
        <ele>1222.8000488281</ele>
        <time>2026-08-21T09:18:53.000Z</time>
      </trkpt>
      <trkpt lat="45.27656" lon="6.06579">
        <ele>1223</ele>
        <time>2026-08-21T09:18:54.000Z</time>
      </trkpt>
      <trkpt lat="45.27656" lon="6.06579">
        <ele>1223</ele>
        <time>2026-08-21T09:18:55.000Z</time>
      </trkpt>
      <trkpt lat="45.27655" lon="6.06578">
        <ele>1223.1999511719</ele>
        <time>2026-08-21T09:18:56.000Z</time>
      </trkpt>
      <trkpt lat="45.27654" lon="6.06577">
        <ele>1223.5999755859</ele>
        <time>2026-08-21T09:18:57.000Z</time>
      </trkpt>
      <trkpt lat="45.27654" lon="6.06576">
        <ele>1224.1999511719</ele>
        <time>2026-08-21T09:18:58.000Z</time>
      </trkpt>
      <trkpt lat="45.27652" lon="6.06574">
        <ele>1224.4000244141</ele>
        <time>2026-08-21T09:18:59.000Z</time>
      </trkpt>
      <trkpt lat="45.27651" lon="6.06573">
        <ele>1225</ele>
        <time>2026-08-21T09:19:00.000Z</time>
      </trkpt>
      <trkpt lat="45.2765" lon="6.06573">
        <ele>1225.5999755859</ele>
        <time>2026-08-21T09:19:01.000Z</time>
      </trkpt>
      <trkpt lat="45.27648" lon="6.06572">
        <ele>1226.1999511719</ele>
        <time>2026-08-21T09:19:02.000Z</time>
      </trkpt>
      <trkpt lat="45.27646" lon="6.0657">
        <ele>1226.5999755859</ele>
        <time>2026-08-21T09:19:03.000Z</time>
      </trkpt>
      <trkpt lat="45.27645" lon="6.06568">
        <ele>1227</ele>
        <time>2026-08-21T09:19:04.000Z</time>
      </trkpt>
      <trkpt lat="45.27644" lon="6.06566">
        <ele>1227.1999511719</ele>
        <time>2026-08-21T09:19:05.000Z</time>
      </trkpt>
      <trkpt lat="45.27643" lon="6.06564">
        <ele>1228</ele>
        <time>2026-08-21T09:19:06.000Z</time>
      </trkpt>
      <trkpt lat="45.27643" lon="6.06562">
        <ele>1228.8000488281</ele>
        <time>2026-08-21T09:19:07.000Z</time>
      </trkpt>
      <trkpt lat="45.27643" lon="6.06561">
        <ele>1229.1999511719</ele>
        <time>2026-08-21T09:19:08.000Z</time>
      </trkpt>
      <trkpt lat="45.27642" lon="6.0656">
        <ele>1229.4000244141</ele>
        <time>2026-08-21T09:19:09.000Z</time>
      </trkpt>
      <trkpt lat="45.27641" lon="6.06559">
        <ele>1229.4000244141</ele>
        <time>2026-08-21T09:19:10.000Z</time>
      </trkpt>
      <trkpt lat="45.27641" lon="6.06557">
        <ele>1229.4000244141</ele>
        <time>2026-08-21T09:19:11.000Z</time>
      </trkpt>
      <trkpt lat="45.2764" lon="6.06557">
        <ele>1230</ele>
        <time>2026-08-21T09:19:12.000Z</time>
      </trkpt>
      <trkpt lat="45.2764" lon="6.06556">
        <ele>1230</ele>
        <time>2026-08-21T09:19:13.000Z</time>
      </trkpt>
      <trkpt lat="45.27639" lon="6.06554">
        <ele>1230.1999511719</ele>
        <time>2026-08-21T09:19:14.000Z</time>
      </trkpt>
      <trkpt lat="45.27638" lon="6.06552">
        <ele>1230.4000244141</ele>
        <time>2026-08-21T09:19:15.000Z</time>
      </trkpt>
      <trkpt lat="45.27637" lon="6.06551">
        <ele>1230.5999755859</ele>
        <time>2026-08-21T09:19:16.000Z</time>
      </trkpt>
      <trkpt lat="45.27636" lon="6.06549">
        <ele>1230.5999755859</ele>
        <time>2026-08-21T09:19:17.000Z</time>
      </trkpt>
      <trkpt lat="45.27635" lon="6.06548">
        <ele>1230.5999755859</ele>
        <time>2026-08-21T09:19:18.000Z</time>
      </trkpt>
      <trkpt lat="45.27635" lon="6.06546">
        <ele>1230.5999755859</ele>
        <time>2026-08-21T09:19:19.000Z</time>
      </trkpt>
      <trkpt lat="45.27634" lon="6.06545">
        <ele>1230.5999755859</ele>
        <time>2026-08-21T09:19:20.000Z</time>
      </trkpt>
      <trkpt lat="45.27634" lon="6.06544">
        <ele>1230.4000244141</ele>
        <time>2026-08-21T09:19:21.000Z</time>
      </trkpt>
      <trkpt lat="45.27634" lon="6.06542">
        <ele>1230.4000244141</ele>
        <time>2026-08-21T09:19:22.000Z</time>
      </trkpt>
      <trkpt lat="45.27633" lon="6.0654">
        <ele>1230.4000244141</ele>
        <time>2026-08-21T09:19:23.000Z</time>
      </trkpt>
      <trkpt lat="45.27632" lon="6.06539">
        <ele>1230.4000244141</ele>
        <time>2026-08-21T09:19:24.000Z</time>
      </trkpt>
      <trkpt lat="45.27632" lon="6.06538">
        <ele>1230.5999755859</ele>
        <time>2026-08-21T09:19:25.000Z</time>
      </trkpt>
      <trkpt lat="45.27631" lon="6.06537">
        <ele>1230.8000488281</ele>
        <time>2026-08-21T09:19:26.000Z</time>
      </trkpt>
      <trkpt lat="45.2763" lon="6.06536">
        <ele>1231</ele>
        <time>2026-08-21T09:19:27.000Z</time>
      </trkpt>
      <trkpt lat="45.27629" lon="6.06534">
        <ele>1231</ele>
        <time>2026-08-21T09:19:28.000Z</time>
      </trkpt>
      <trkpt lat="45.27629" lon="6.06533">
        <ele>1231.1999511719</ele>
        <time>2026-08-21T09:19:29.000Z</time>
      </trkpt>
      <trkpt lat="45.27629" lon="6.06532">
        <ele>1231.4000244141</ele>
        <time>2026-08-21T09:19:30.000Z</time>
      </trkpt>
      <trkpt lat="45.27628" lon="6.0653">
        <ele>1231.5999755859</ele>
        <time>2026-08-21T09:19:31.000Z</time>
      </trkpt>
      <trkpt lat="45.27628" lon="6.06529">
        <ele>1231.8000488281</ele>
        <time>2026-08-21T09:19:32.000Z</time>
      </trkpt>
      <trkpt lat="45.27628" lon="6.06528">
        <ele>1232</ele>
        <time>2026-08-21T09:19:33.000Z</time>
      </trkpt>
      <trkpt lat="45.27628" lon="6.06527">
        <ele>1232.1999511719</ele>
        <time>2026-08-21T09:19:34.000Z</time>
      </trkpt>
      <trkpt lat="45.27628" lon="6.06525">
        <ele>1232.5999755859</ele>
        <time>2026-08-21T09:19:35.000Z</time>
      </trkpt>
      <trkpt lat="45.27627" lon="6.06524">
        <ele>1233</ele>
        <time>2026-08-21T09:19:36.000Z</time>
      </trkpt>
      <trkpt lat="45.27627" lon="6.06522">
        <ele>1233.1999511719</ele>
        <time>2026-08-21T09:19:37.000Z</time>
      </trkpt>
      <trkpt lat="45.27626" lon="6.06521">
        <ele>1233.1999511719</ele>
        <time>2026-08-21T09:19:38.000Z</time>
      </trkpt>
      <trkpt lat="45.27626" lon="6.06519">
        <ele>1233.4000244141</ele>
        <time>2026-08-21T09:19:39.000Z</time>
      </trkpt>
      <trkpt lat="45.27626" lon="6.06518">
        <ele>1234</ele>
        <time>2026-08-21T09:19:40.000Z</time>
      </trkpt>
      <trkpt lat="45.27625" lon="6.06516">
        <ele>1234.1999511719</ele>
        <time>2026-08-21T09:19:41.000Z</time>
      </trkpt>
      <trkpt lat="45.27625" lon="6.06514">
        <ele>1234.5999755859</ele>
        <time>2026-08-21T09:19:42.000Z</time>
      </trkpt>
      <trkpt lat="45.27625" lon="6.06512">
        <ele>1235</ele>
        <time>2026-08-21T09:19:43.000Z</time>
      </trkpt>
      <trkpt lat="45.27625" lon="6.0651">
        <ele>1235</ele>
        <time>2026-08-21T09:19:44.000Z</time>
      </trkpt>
      <trkpt lat="45.27625" lon="6.06509">
        <ele>1235.4000244141</ele>
        <time>2026-08-21T09:19:45.000Z</time>
      </trkpt>
      <trkpt lat="45.27625" lon="6.06507">
        <ele>1235.5999755859</ele>
        <time>2026-08-21T09:19:46.000Z</time>
      </trkpt>
      <trkpt lat="45.27625" lon="6.06505">
        <ele>1236</ele>
        <time>2026-08-21T09:19:47.000Z</time>
      </trkpt>
      <trkpt lat="45.27625" lon="6.06503">
        <ele>1236.8000488281</ele>
        <time>2026-08-21T09:19:48.000Z</time>
      </trkpt>
      <trkpt lat="45.27625" lon="6.06502">
        <ele>1237.1999511719</ele>
        <time>2026-08-21T09:19:49.000Z</time>
      </trkpt>
      <trkpt lat="45.27625" lon="6.065">
        <ele>1237.4000244141</ele>
        <time>2026-08-21T09:19:50.000Z</time>
      </trkpt>
      <trkpt lat="45.27626" lon="6.06499">
        <ele>1237.5999755859</ele>
        <time>2026-08-21T09:19:51.000Z</time>
      </trkpt>
      <trkpt lat="45.27626" lon="6.06498">
        <ele>1238</ele>
        <time>2026-08-21T09:19:52.000Z</time>
      </trkpt>
      <trkpt lat="45.27626" lon="6.06496">
        <ele>1238.1999511719</ele>
        <time>2026-08-21T09:19:53.000Z</time>
      </trkpt>
      <trkpt lat="45.27626" lon="6.06495">
        <ele>1238.8000488281</ele>
        <time>2026-08-21T09:19:54.000Z</time>
      </trkpt>
      <trkpt lat="45.27626" lon="6.06494">
        <ele>1239.4000244141</ele>
        <time>2026-08-21T09:19:55.000Z</time>
      </trkpt>
      <trkpt lat="45.27626" lon="6.06493">
        <ele>1239.5999755859</ele>
        <time>2026-08-21T09:19:56.000Z</time>
      </trkpt>
      <trkpt lat="45.27626" lon="6.06492">
        <ele>1240.1999511719</ele>
        <time>2026-08-21T09:19:57.000Z</time>
      </trkpt>
      <trkpt lat="45.27626" lon="6.06491">
        <ele>1240.4000244141</ele>
        <time>2026-08-21T09:19:58.000Z</time>
      </trkpt>
      <trkpt lat="45.27626" lon="6.0649">
        <ele>1240.5999755859</ele>
        <time>2026-08-21T09:19:59.000Z</time>
      </trkpt>
      <trkpt lat="45.27625" lon="6.06489">
        <ele>1240.5999755859</ele>
        <time>2026-08-21T09:20:00.000Z</time>
      </trkpt>
      <trkpt lat="45.27625" lon="6.06488">
        <ele>1240.4000244141</ele>
        <time>2026-08-21T09:20:01.000Z</time>
      </trkpt>
      <trkpt lat="45.27625" lon="6.06486">
        <ele>1240.4000244141</ele>
        <time>2026-08-21T09:20:02.000Z</time>
      </trkpt>
      <trkpt lat="45.27624" lon="6.06484">
        <ele>1240.1999511719</ele>
        <time>2026-08-21T09:20:03.000Z</time>
      </trkpt>
      <trkpt lat="45.27623" lon="6.06482">
        <ele>1240.1999511719</ele>
        <time>2026-08-21T09:20:04.000Z</time>
      </trkpt>
      <trkpt lat="45.27623" lon="6.06481">
        <ele>1240.4000244141</ele>
        <time>2026-08-21T09:20:05.000Z</time>
      </trkpt>
      <trkpt lat="45.27622" lon="6.06479">
        <ele>1241</ele>
        <time>2026-08-21T09:20:06.000Z</time>
      </trkpt>
      <trkpt lat="45.27622" lon="6.06477">
        <ele>1241.4000244141</ele>
        <time>2026-08-21T09:20:07.000Z</time>
      </trkpt>
      <trkpt lat="45.27622" lon="6.06476">
        <ele>1241.5999755859</ele>
        <time>2026-08-21T09:20:08.000Z</time>
      </trkpt>
      <trkpt lat="45.27621" lon="6.06474">
        <ele>1242.8000488281</ele>
        <time>2026-08-21T09:20:09.000Z</time>
      </trkpt>
      <trkpt lat="45.2762" lon="6.06473">
        <ele>1243.5999755859</ele>
        <time>2026-08-21T09:20:10.000Z</time>
      </trkpt>
      <trkpt lat="45.2762" lon="6.06471">
        <ele>1243.8000488281</ele>
        <time>2026-08-21T09:20:11.000Z</time>
      </trkpt>
      <trkpt lat="45.27619" lon="6.06469">
        <ele>1244.1999511719</ele>
        <time>2026-08-21T09:20:12.000Z</time>
      </trkpt>
      <trkpt lat="45.27619" lon="6.06468">
        <ele>1244.5999755859</ele>
        <time>2026-08-21T09:20:13.000Z</time>
      </trkpt>
      <trkpt lat="45.27618" lon="6.06467">
        <ele>1244.8000488281</ele>
        <time>2026-08-21T09:20:14.000Z</time>
      </trkpt>
      <trkpt lat="45.27618" lon="6.06466">
        <ele>1244.8000488281</ele>
        <time>2026-08-21T09:20:15.000Z</time>
      </trkpt>
      <trkpt lat="45.27617" lon="6.06465">
        <ele>1245</ele>
        <time>2026-08-21T09:20:16.000Z</time>
      </trkpt>
      <trkpt lat="45.27617" lon="6.06463">
        <ele>1245.1999511719</ele>
        <time>2026-08-21T09:20:17.000Z</time>
      </trkpt>
      <trkpt lat="45.27616" lon="6.06461">
        <ele>1245.4000244141</ele>
        <time>2026-08-21T09:20:18.000Z</time>
      </trkpt>
      <trkpt lat="45.27615" lon="6.0646">
        <ele>1245.4000244141</ele>
        <time>2026-08-21T09:20:19.000Z</time>
      </trkpt>
      <trkpt lat="45.27614" lon="6.06459">
        <ele>1245.4000244141</ele>
        <time>2026-08-21T09:20:20.000Z</time>
      </trkpt>
      <trkpt lat="45.27613" lon="6.06457">
        <ele>1245.4000244141</ele>
        <time>2026-08-21T09:20:21.000Z</time>
      </trkpt>
      <trkpt lat="45.27613" lon="6.06455">
        <ele>1245.1999511719</ele>
        <time>2026-08-21T09:20:22.000Z</time>
      </trkpt>
      <trkpt lat="45.27612" lon="6.06454">
        <ele>1245.4000244141</ele>
        <time>2026-08-21T09:20:23.000Z</time>
      </trkpt>
      <trkpt lat="45.27611" lon="6.06453">
        <ele>1245.4000244141</ele>
        <time>2026-08-21T09:20:24.000Z</time>
      </trkpt>
      <trkpt lat="45.2761" lon="6.06452">
        <ele>1245.4000244141</ele>
        <time>2026-08-21T09:20:25.000Z</time>
      </trkpt>
      <trkpt lat="45.2761" lon="6.0645">
        <ele>1245.5999755859</ele>
        <time>2026-08-21T09:20:26.000Z</time>
      </trkpt>
      <trkpt lat="45.27609" lon="6.06449">
        <ele>1245.5999755859</ele>
        <time>2026-08-21T09:20:27.000Z</time>
      </trkpt>
      <trkpt lat="45.27609" lon="6.06447">
        <ele>1245.8000488281</ele>
        <time>2026-08-21T09:20:28.000Z</time>
      </trkpt>
      <trkpt lat="45.27609" lon="6.06445">
        <ele>1246</ele>
        <time>2026-08-21T09:20:29.000Z</time>
      </trkpt>
      <trkpt lat="45.27608" lon="6.06443">
        <ele>1246</ele>
        <time>2026-08-21T09:20:30.000Z</time>
      </trkpt>
      <trkpt lat="45.27608" lon="6.06442">
        <ele>1246.1999511719</ele>
        <time>2026-08-21T09:20:31.000Z</time>
      </trkpt>
      <trkpt lat="45.27608" lon="6.0644">
        <ele>1246.1999511719</ele>
        <time>2026-08-21T09:20:32.000Z</time>
      </trkpt>
      <trkpt lat="45.27608" lon="6.06439">
        <ele>1246.1999511719</ele>
        <time>2026-08-21T09:20:33.000Z</time>
      </trkpt>
      <trkpt lat="45.27607" lon="6.06438">
        <ele>1246.4000244141</ele>
        <time>2026-08-21T09:20:34.000Z</time>
      </trkpt>
      <trkpt lat="45.27607" lon="6.06437">
        <ele>1246.4000244141</ele>
        <time>2026-08-21T09:20:35.000Z</time>
      </trkpt>
      <trkpt lat="45.27607" lon="6.06435">
        <ele>1246.8000488281</ele>
        <time>2026-08-21T09:20:36.000Z</time>
      </trkpt>
      <trkpt lat="45.27607" lon="6.06434">
        <ele>1247.1999511719</ele>
        <time>2026-08-21T09:20:37.000Z</time>
      </trkpt>
      <trkpt lat="45.27606" lon="6.06433">
        <ele>1247.1999511719</ele>
        <time>2026-08-21T09:20:38.000Z</time>
      </trkpt>
      <trkpt lat="45.27606" lon="6.06432">
        <ele>1247.4000244141</ele>
        <time>2026-08-21T09:20:39.000Z</time>
      </trkpt>
      <trkpt lat="45.27605" lon="6.0643">
        <ele>1247.5999755859</ele>
        <time>2026-08-21T09:20:40.000Z</time>
      </trkpt>
      <trkpt lat="45.27604" lon="6.06428">
        <ele>1247.8000488281</ele>
        <time>2026-08-21T09:20:41.000Z</time>
      </trkpt>
      <trkpt lat="45.27603" lon="6.06426">
        <ele>1248</ele>
        <time>2026-08-21T09:20:42.000Z</time>
      </trkpt>
      <trkpt lat="45.27602" lon="6.06424">
        <ele>1248.1999511719</ele>
        <time>2026-08-21T09:20:43.000Z</time>
      </trkpt>
      <trkpt lat="45.27601" lon="6.06422">
        <ele>1248.4000244141</ele>
        <time>2026-08-21T09:20:44.000Z</time>
      </trkpt>
      <trkpt lat="45.276" lon="6.0642">
        <ele>1248.5999755859</ele>
        <time>2026-08-21T09:20:45.000Z</time>
      </trkpt>
      <trkpt lat="45.27599" lon="6.06419">
        <ele>1249.4000244141</ele>
        <time>2026-08-21T09:20:46.000Z</time>
      </trkpt>
      <trkpt lat="45.27599" lon="6.06417">
        <ele>1250</ele>
        <time>2026-08-21T09:20:47.000Z</time>
      </trkpt>
      <trkpt lat="45.27598" lon="6.06416">
        <ele>1250.4000244141</ele>
        <time>2026-08-21T09:20:48.000Z</time>
      </trkpt>
      <trkpt lat="45.27596" lon="6.06415">
        <ele>1250.5999755859</ele>
        <time>2026-08-21T09:20:49.000Z</time>
      </trkpt>
      <trkpt lat="45.27596" lon="6.06414">
        <ele>1251</ele>
        <time>2026-08-21T09:20:50.000Z</time>
      </trkpt>
      <trkpt lat="45.27595" lon="6.06413">
        <ele>1251</ele>
        <time>2026-08-21T09:20:51.000Z</time>
      </trkpt>
      <trkpt lat="45.27594" lon="6.06412">
        <ele>1251</ele>
        <time>2026-08-21T09:20:52.000Z</time>
      </trkpt>
      <trkpt lat="45.27593" lon="6.06411">
        <ele>1251</ele>
        <time>2026-08-21T09:20:53.000Z</time>
      </trkpt>
      <trkpt lat="45.27592" lon="6.06409">
        <ele>1250.8000488281</ele>
        <time>2026-08-21T09:20:54.000Z</time>
      </trkpt>
      <trkpt lat="45.27591" lon="6.06408">
        <ele>1250.5999755859</ele>
        <time>2026-08-21T09:20:55.000Z</time>
      </trkpt>
      <trkpt lat="45.27591" lon="6.06407">
        <ele>1250.4000244141</ele>
        <time>2026-08-21T09:20:56.000Z</time>
      </trkpt>
      <trkpt lat="45.27591" lon="6.06405">
        <ele>1250.4000244141</ele>
        <time>2026-08-21T09:20:57.000Z</time>
      </trkpt>
      <trkpt lat="45.27591" lon="6.06404">
        <ele>1250.1999511719</ele>
        <time>2026-08-21T09:20:58.000Z</time>
      </trkpt>
      <trkpt lat="45.27591" lon="6.06402">
        <ele>1250.1999511719</ele>
        <time>2026-08-21T09:20:59.000Z</time>
      </trkpt>
      <trkpt lat="45.27592" lon="6.06401">
        <ele>1250</ele>
        <time>2026-08-21T09:21:00.000Z</time>
      </trkpt>
      <trkpt lat="45.27592" lon="6.06399">
        <ele>1250</ele>
        <time>2026-08-21T09:21:01.000Z</time>
      </trkpt>
      <trkpt lat="45.27592" lon="6.06398">
        <ele>1250.1999511719</ele>
        <time>2026-08-21T09:21:02.000Z</time>
      </trkpt>
      <trkpt lat="45.27592" lon="6.06397">
        <ele>1250.4000244141</ele>
        <time>2026-08-21T09:21:03.000Z</time>
      </trkpt>
      <trkpt lat="45.27592" lon="6.06397">
        <ele>1250.4000244141</ele>
        <time>2026-08-21T09:21:04.000Z</time>
      </trkpt>
      <trkpt lat="45.27592" lon="6.06396">
        <ele>1250.5999755859</ele>
        <time>2026-08-21T09:21:05.000Z</time>
      </trkpt>
      <trkpt lat="45.27593" lon="6.06394">
        <ele>1250.5999755859</ele>
        <time>2026-08-21T09:21:06.000Z</time>
      </trkpt>
      <trkpt lat="45.27593" lon="6.06393">
        <ele>1251</ele>
        <time>2026-08-21T09:21:07.000Z</time>
      </trkpt>
      <trkpt lat="45.27593" lon="6.06392">
        <ele>1251.1999511719</ele>
        <time>2026-08-21T09:21:08.000Z</time>
      </trkpt>
      <trkpt lat="45.27593" lon="6.06391">
        <ele>1251.5999755859</ele>
        <time>2026-08-21T09:21:09.000Z</time>
      </trkpt>
      <trkpt lat="45.27594" lon="6.0639">
        <ele>1252.1999511719</ele>
        <time>2026-08-21T09:21:10.000Z</time>
      </trkpt>
      <trkpt lat="45.27594" lon="6.0639">
        <ele>1252.5999755859</ele>
        <time>2026-08-21T09:21:11.000Z</time>
      </trkpt>
      <trkpt lat="45.27595" lon="6.0639">
        <ele>1253.4000244141</ele>
        <time>2026-08-21T09:21:12.000Z</time>
      </trkpt>
      <trkpt lat="45.27595" lon="6.06389">
        <ele>1254</ele>
        <time>2026-08-21T09:21:13.000Z</time>
      </trkpt>
      <trkpt lat="45.27596" lon="6.06389">
        <ele>1254.1999511719</ele>
        <time>2026-08-21T09:21:14.000Z</time>
      </trkpt>
      <trkpt lat="45.27596" lon="6.06389">
        <ele>1254.1999511719</ele>
        <time>2026-08-21T09:21:15.000Z</time>
      </trkpt>
      <trkpt lat="45.27597" lon="6.06388">
        <ele>1254.4000244141</ele>
        <time>2026-08-21T09:21:16.000Z</time>
      </trkpt>
      <trkpt lat="45.27599" lon="6.06387">
        <ele>1254.5999755859</ele>
        <time>2026-08-21T09:21:17.000Z</time>
      </trkpt>
      <trkpt lat="45.27599" lon="6.06386">
        <ele>1254.5999755859</ele>
        <time>2026-08-21T09:21:18.000Z</time>
      </trkpt>
      <trkpt lat="45.276" lon="6.06385">
        <ele>1254.8000488281</ele>
        <time>2026-08-21T09:21:19.000Z</time>
      </trkpt>
      <trkpt lat="45.276" lon="6.06383">
        <ele>1254.8000488281</ele>
        <time>2026-08-21T09:21:20.000Z</time>
      </trkpt>
      <trkpt lat="45.27601" lon="6.06382">
        <ele>1254.8000488281</ele>
        <time>2026-08-21T09:21:21.000Z</time>
      </trkpt>
      <trkpt lat="45.27602" lon="6.0638">
        <ele>1254.8000488281</ele>
        <time>2026-08-21T09:21:22.000Z</time>
      </trkpt>
      <trkpt lat="45.27602" lon="6.06379">
        <ele>1254.8000488281</ele>
        <time>2026-08-21T09:21:23.000Z</time>
      </trkpt>
      <trkpt lat="45.27603" lon="6.06377">
        <ele>1255</ele>
        <time>2026-08-21T09:21:24.000Z</time>
      </trkpt>
      <trkpt lat="45.27603" lon="6.06375">
        <ele>1255</ele>
        <time>2026-08-21T09:21:25.000Z</time>
      </trkpt>
      <trkpt lat="45.27603" lon="6.06374">
        <ele>1255.1999511719</ele>
        <time>2026-08-21T09:21:26.000Z</time>
      </trkpt>
      <trkpt lat="45.27603" lon="6.06373">
        <ele>1255.4000244141</ele>
        <time>2026-08-21T09:21:27.000Z</time>
      </trkpt>
      <trkpt lat="45.27604" lon="6.06371">
        <ele>1255.5999755859</ele>
        <time>2026-08-21T09:21:28.000Z</time>
      </trkpt>
      <trkpt lat="45.27604" lon="6.0637">
        <ele>1256</ele>
        <time>2026-08-21T09:21:29.000Z</time>
      </trkpt>
      <trkpt lat="45.27604" lon="6.06369">
        <ele>1256.1999511719</ele>
        <time>2026-08-21T09:21:30.000Z</time>
      </trkpt>
      <trkpt lat="45.27604" lon="6.06368">
        <ele>1256.4000244141</ele>
        <time>2026-08-21T09:21:31.000Z</time>
      </trkpt>
      <trkpt lat="45.27605" lon="6.06367">
        <ele>1256.4000244141</ele>
        <time>2026-08-21T09:21:32.000Z</time>
      </trkpt>
      <trkpt lat="45.27605" lon="6.06366">
        <ele>1256.5999755859</ele>
        <time>2026-08-21T09:21:33.000Z</time>
      </trkpt>
      <trkpt lat="45.27605" lon="6.06365">
        <ele>1256.5999755859</ele>
        <time>2026-08-21T09:21:34.000Z</time>
      </trkpt>
      <trkpt lat="45.27605" lon="6.06364">
        <ele>1256.5999755859</ele>
        <time>2026-08-21T09:21:35.000Z</time>
      </trkpt>
      <trkpt lat="45.27606" lon="6.06363">
        <ele>1256.8000488281</ele>
        <time>2026-08-21T09:21:36.000Z</time>
      </trkpt>
      <trkpt lat="45.27606" lon="6.06363">
        <ele>1256.8000488281</ele>
        <time>2026-08-21T09:21:37.000Z</time>
      </trkpt>
      <trkpt lat="45.27606" lon="6.06362">
        <ele>1257</ele>
        <time>2026-08-21T09:21:38.000Z</time>
      </trkpt>
      <trkpt lat="45.27606" lon="6.06362">
        <ele>1257.1999511719</ele>
        <time>2026-08-21T09:21:39.000Z</time>
      </trkpt>
      <trkpt lat="45.27607" lon="6.06361">
        <ele>1257.4000244141</ele>
        <time>2026-08-21T09:21:40.000Z</time>
      </trkpt>
      <trkpt lat="45.27607" lon="6.0636">
        <ele>1257.5999755859</ele>
        <time>2026-08-21T09:21:41.000Z</time>
      </trkpt>
      <trkpt lat="45.27607" lon="6.06358">
        <ele>1258</ele>
        <time>2026-08-21T09:21:42.000Z</time>
      </trkpt>
      <trkpt lat="45.27607" lon="6.06356">
        <ele>1259</ele>
        <time>2026-08-21T09:21:43.000Z</time>
      </trkpt>
      <trkpt lat="45.27608" lon="6.06354">
        <ele>1259.5999755859</ele>
        <time>2026-08-21T09:21:44.000Z</time>
      </trkpt>
      <trkpt lat="45.27609" lon="6.06352">
        <ele>1260</ele>
        <time>2026-08-21T09:21:45.000Z</time>
      </trkpt>
      <trkpt lat="45.27609" lon="6.06351">
        <ele>1260.1999511719</ele>
        <time>2026-08-21T09:21:46.000Z</time>
      </trkpt>
      <trkpt lat="45.2761" lon="6.06349">
        <ele>1260.8000488281</ele>
        <time>2026-08-21T09:21:47.000Z</time>
      </trkpt>
      <trkpt lat="45.2761" lon="6.06348">
        <ele>1261.1999511719</ele>
        <time>2026-08-21T09:21:48.000Z</time>
      </trkpt>
      <trkpt lat="45.27611" lon="6.06346">
        <ele>1261.1999511719</ele>
        <time>2026-08-21T09:21:49.000Z</time>
      </trkpt>
      <trkpt lat="45.27611" lon="6.06344">
        <ele>1261.1999511719</ele>
        <time>2026-08-21T09:21:50.000Z</time>
      </trkpt>
      <trkpt lat="45.27611" lon="6.06343">
        <ele>1261.4000244141</ele>
        <time>2026-08-21T09:21:51.000Z</time>
      </trkpt>
      <trkpt lat="45.27612" lon="6.06342">
        <ele>1261.4000244141</ele>
        <time>2026-08-21T09:21:52.000Z</time>
      </trkpt>
      <trkpt lat="45.27611" lon="6.06342">
        <ele>1261.5999755859</ele>
        <time>2026-08-21T09:21:53.000Z</time>
      </trkpt>
      <trkpt lat="45.27611" lon="6.06341">
        <ele>1261.8000488281</ele>
        <time>2026-08-21T09:21:54.000Z</time>
      </trkpt>
      <trkpt lat="45.27611" lon="6.06342">
        <ele>1262.4000244141</ele>
        <time>2026-08-21T09:21:55.000Z</time>
      </trkpt>
      <trkpt lat="45.2761" lon="6.06341">
        <ele>1262.5999755859</ele>
        <time>2026-08-21T09:21:56.000Z</time>
      </trkpt>
      <trkpt lat="45.2761" lon="6.06341">
        <ele>1263</ele>
        <time>2026-08-21T09:21:57.000Z</time>
      </trkpt>
      <trkpt lat="45.27609" lon="6.0634">
        <ele>1263.1999511719</ele>
        <time>2026-08-21T09:21:58.000Z</time>
      </trkpt>
      <trkpt lat="45.27609" lon="6.06341">
        <ele>1263.8000488281</ele>
        <time>2026-08-21T09:21:59.000Z</time>
      </trkpt>
      <trkpt lat="45.27609" lon="6.06341">
        <ele>1264.1999511719</ele>
        <time>2026-08-21T09:22:00.000Z</time>
      </trkpt>
      <trkpt lat="45.27608" lon="6.0634">
        <ele>1264.5999755859</ele>
        <time>2026-08-21T09:22:01.000Z</time>
      </trkpt>
      <trkpt lat="45.27607" lon="6.0634">
        <ele>1265</ele>
        <time>2026-08-21T09:22:02.000Z</time>
      </trkpt>
      <trkpt lat="45.27606" lon="6.0634">
        <ele>1265.8000488281</ele>
        <time>2026-08-21T09:22:03.000Z</time>
      </trkpt>
      <trkpt lat="45.27604" lon="6.0634">
        <ele>1266.4000244141</ele>
        <time>2026-08-21T09:22:04.000Z</time>
      </trkpt>
      <trkpt lat="45.27603" lon="6.06339">
        <ele>1267</ele>
        <time>2026-08-21T09:22:05.000Z</time>
      </trkpt>
      <trkpt lat="45.27602" lon="6.06339">
        <ele>1267.1999511719</ele>
        <time>2026-08-21T09:22:06.000Z</time>
      </trkpt>
      <trkpt lat="45.27601" lon="6.06339">
        <ele>1267.1999511719</ele>
        <time>2026-08-21T09:22:07.000Z</time>
      </trkpt>
      <trkpt lat="45.276" lon="6.06339">
        <ele>1267.4000244141</ele>
        <time>2026-08-21T09:22:08.000Z</time>
      </trkpt>
      <trkpt lat="45.27599" lon="6.06339">
        <ele>1267.4000244141</ele>
        <time>2026-08-21T09:22:09.000Z</time>
      </trkpt>
      <trkpt lat="45.27598" lon="6.06339">
        <ele>1267.5999755859</ele>
        <time>2026-08-21T09:22:10.000Z</time>
      </trkpt>
      <trkpt lat="45.27597" lon="6.06338">
        <ele>1267.5999755859</ele>
        <time>2026-08-21T09:22:11.000Z</time>
      </trkpt>
      <trkpt lat="45.27596" lon="6.06338">
        <ele>1267.8000488281</ele>
        <time>2026-08-21T09:22:12.000Z</time>
      </trkpt>
      <trkpt lat="45.27596" lon="6.06338">
        <ele>1268</ele>
        <time>2026-08-21T09:22:13.000Z</time>
      </trkpt>
      <trkpt lat="45.27595" lon="6.06338">
        <ele>1268.1999511719</ele>
        <time>2026-08-21T09:22:14.000Z</time>
      </trkpt>
      <trkpt lat="45.27594" lon="6.06337">
        <ele>1268.5999755859</ele>
        <time>2026-08-21T09:22:15.000Z</time>
      </trkpt>
      <trkpt lat="45.27593" lon="6.06337">
        <ele>1268.8000488281</ele>
        <time>2026-08-21T09:22:16.000Z</time>
      </trkpt>
      <trkpt lat="45.27591" lon="6.06337">
        <ele>1269.1999511719</ele>
        <time>2026-08-21T09:22:17.000Z</time>
      </trkpt>
      <trkpt lat="45.27591" lon="6.06337">
        <ele>1269.4000244141</ele>
        <time>2026-08-21T09:22:18.000Z</time>
      </trkpt>
      <trkpt lat="45.27589" lon="6.06336">
        <ele>1269.5999755859</ele>
        <time>2026-08-21T09:22:19.000Z</time>
      </trkpt>
      <trkpt lat="45.27588" lon="6.06336">
        <ele>1270</ele>
        <time>2026-08-21T09:22:20.000Z</time>
      </trkpt>
      <trkpt lat="45.27587" lon="6.06336">
        <ele>1270.5999755859</ele>
        <time>2026-08-21T09:22:21.000Z</time>
      </trkpt>
      <trkpt lat="45.27586" lon="6.06335">
        <ele>1270.8000488281</ele>
        <time>2026-08-21T09:22:22.000Z</time>
      </trkpt>
      <trkpt lat="45.27585" lon="6.06335">
        <ele>1270.5999755859</ele>
        <time>2026-08-21T09:22:23.000Z</time>
      </trkpt>
      <trkpt lat="45.27584" lon="6.06334">
        <ele>1270.8000488281</ele>
        <time>2026-08-21T09:22:24.000Z</time>
      </trkpt>
      <trkpt lat="45.27583" lon="6.06334">
        <ele>1270.5999755859</ele>
        <time>2026-08-21T09:22:25.000Z</time>
      </trkpt>
      <trkpt lat="45.27582" lon="6.06334">
        <ele>1270.5999755859</ele>
        <time>2026-08-21T09:22:26.000Z</time>
      </trkpt>
      <trkpt lat="45.27581" lon="6.06333">
        <ele>1270.5999755859</ele>
        <time>2026-08-21T09:22:27.000Z</time>
      </trkpt>
      <trkpt lat="45.2758" lon="6.06332">
        <ele>1270.4000244141</ele>
        <time>2026-08-21T09:22:28.000Z</time>
      </trkpt>
      <trkpt lat="45.2758" lon="6.06332">
        <ele>1270.4000244141</ele>
        <time>2026-08-21T09:22:29.000Z</time>
      </trkpt>
      <trkpt lat="45.27579" lon="6.06332">
        <ele>1270.5999755859</ele>
        <time>2026-08-21T09:22:30.000Z</time>
      </trkpt>
      <trkpt lat="45.27578" lon="6.06331">
        <ele>1270.8000488281</ele>
        <time>2026-08-21T09:22:31.000Z</time>
      </trkpt>
      <trkpt lat="45.27577" lon="6.0633">
        <ele>1271</ele>
        <time>2026-08-21T09:22:32.000Z</time>
      </trkpt>
      <trkpt lat="45.27576" lon="6.06328">
        <ele>1271</ele>
        <time>2026-08-21T09:22:33.000Z</time>
      </trkpt>
      <trkpt lat="45.27576" lon="6.06327">
        <ele>1271.1999511719</ele>
        <time>2026-08-21T09:22:34.000Z</time>
      </trkpt>
      <trkpt lat="45.27575" lon="6.06325">
        <ele>1271.4000244141</ele>
        <time>2026-08-21T09:22:35.000Z</time>
      </trkpt>
      <trkpt lat="45.27575" lon="6.06324">
        <ele>1271.5999755859</ele>
        <time>2026-08-21T09:22:36.000Z</time>
      </trkpt>
      <trkpt lat="45.27574" lon="6.06323">
        <ele>1271.8000488281</ele>
        <time>2026-08-21T09:22:37.000Z</time>
      </trkpt>
      <trkpt lat="45.27573" lon="6.06322">
        <ele>1271.8000488281</ele>
        <time>2026-08-21T09:22:38.000Z</time>
      </trkpt>
      <trkpt lat="45.27572" lon="6.06321">
        <ele>1272</ele>
        <time>2026-08-21T09:22:39.000Z</time>
      </trkpt>
      <trkpt lat="45.27572" lon="6.0632">
        <ele>1272.1999511719</ele>
        <time>2026-08-21T09:22:40.000Z</time>
      </trkpt>
      <trkpt lat="45.27571" lon="6.06319">
        <ele>1272.4000244141</ele>
        <time>2026-08-21T09:22:41.000Z</time>
      </trkpt>
      <trkpt lat="45.2757" lon="6.06318">
        <ele>1272.5999755859</ele>
        <time>2026-08-21T09:22:42.000Z</time>
      </trkpt>
      <trkpt lat="45.2757" lon="6.06318">
        <ele>1272.8000488281</ele>
        <time>2026-08-21T09:22:43.000Z</time>
      </trkpt>
      <trkpt lat="45.27569" lon="6.06317">
        <ele>1273</ele>
        <time>2026-08-21T09:22:44.000Z</time>
      </trkpt>
      <trkpt lat="45.27568" lon="6.06316">
        <ele>1273.1999511719</ele>
        <time>2026-08-21T09:22:45.000Z</time>
      </trkpt>
      <trkpt lat="45.27567" lon="6.06315">
        <ele>1273.5999755859</ele>
        <time>2026-08-21T09:22:46.000Z</time>
      </trkpt>
      <trkpt lat="45.27566" lon="6.06314">
        <ele>1273.8000488281</ele>
        <time>2026-08-21T09:22:47.000Z</time>
      </trkpt>
      <trkpt lat="45.27565" lon="6.06313">
        <ele>1273.8000488281</ele>
        <time>2026-08-21T09:22:48.000Z</time>
      </trkpt>
      <trkpt lat="45.27564" lon="6.06312">
        <ele>1274.1999511719</ele>
        <time>2026-08-21T09:22:49.000Z</time>
      </trkpt>
      <trkpt lat="45.27563" lon="6.06312">
        <ele>1274.5999755859</ele>
        <time>2026-08-21T09:22:50.000Z</time>
      </trkpt>
      <trkpt lat="45.27563" lon="6.0631">
        <ele>1274.8000488281</ele>
        <time>2026-08-21T09:22:51.000Z</time>
      </trkpt>
      <trkpt lat="45.27562" lon="6.06309">
        <ele>1275.1999511719</ele>
        <time>2026-08-21T09:22:52.000Z</time>
      </trkpt>
      <trkpt lat="45.27561" lon="6.06307">
        <ele>1275.5999755859</ele>
        <time>2026-08-21T09:22:53.000Z</time>
      </trkpt>
      <trkpt lat="45.27561" lon="6.06306">
        <ele>1275.8000488281</ele>
        <time>2026-08-21T09:22:54.000Z</time>
      </trkpt>
      <trkpt lat="45.2756" lon="6.06305">
        <ele>1276.1999511719</ele>
        <time>2026-08-21T09:22:55.000Z</time>
      </trkpt>
      <trkpt lat="45.27559" lon="6.06303">
        <ele>1276.5999755859</ele>
        <time>2026-08-21T09:22:56.000Z</time>
      </trkpt>
      <trkpt lat="45.27558" lon="6.06301">
        <ele>1276.8000488281</ele>
        <time>2026-08-21T09:22:57.000Z</time>
      </trkpt>
      <trkpt lat="45.27558" lon="6.06299">
        <ele>1277.5999755859</ele>
        <time>2026-08-21T09:22:58.000Z</time>
      </trkpt>
      <trkpt lat="45.27558" lon="6.06298">
        <ele>1278.1999511719</ele>
        <time>2026-08-21T09:22:59.000Z</time>
      </trkpt>
      <trkpt lat="45.27557" lon="6.06296">
        <ele>1279.5999755859</ele>
        <time>2026-08-21T09:23:00.000Z</time>
      </trkpt>
      <trkpt lat="45.27557" lon="6.06294">
        <ele>1280.8000488281</ele>
        <time>2026-08-21T09:23:01.000Z</time>
      </trkpt>
      <trkpt lat="45.27557" lon="6.06293">
        <ele>1282</ele>
        <time>2026-08-21T09:23:02.000Z</time>
      </trkpt>
      <trkpt lat="45.27556" lon="6.06292">
        <ele>1282.4000244141</ele>
        <time>2026-08-21T09:23:03.000Z</time>
      </trkpt>
      <trkpt lat="45.27556" lon="6.0629">
        <ele>1282.5999755859</ele>
        <time>2026-08-21T09:23:04.000Z</time>
      </trkpt>
      <trkpt lat="45.27557" lon="6.06288">
        <ele>1284</ele>
        <time>2026-08-21T09:23:05.000Z</time>
      </trkpt>
      <trkpt lat="45.27557" lon="6.06287">
        <ele>1285</ele>
        <time>2026-08-21T09:23:06.000Z</time>
      </trkpt>
      <trkpt lat="45.27557" lon="6.06285">
        <ele>1286.1999511719</ele>
        <time>2026-08-21T09:23:07.000Z</time>
      </trkpt>
      <trkpt lat="45.27558" lon="6.06285">
        <ele>1286.1999511719</ele>
        <time>2026-08-21T09:23:08.000Z</time>
      </trkpt>
      <trkpt lat="45.27558" lon="6.06283">
        <ele>1287.5999755859</ele>
        <time>2026-08-21T09:23:09.000Z</time>
      </trkpt>
      <trkpt lat="45.27558" lon="6.06282">
        <ele>1288</ele>
        <time>2026-08-21T09:23:10.000Z</time>
      </trkpt>
      <trkpt lat="45.27559" lon="6.06281">
        <ele>1289</ele>
        <time>2026-08-21T09:23:11.000Z</time>
      </trkpt>
      <trkpt lat="45.27559" lon="6.06279">
        <ele>1289.1999511719</ele>
        <time>2026-08-21T09:23:12.000Z</time>
      </trkpt>
      <trkpt lat="45.27559" lon="6.06278">
        <ele>1289.5999755859</ele>
        <time>2026-08-21T09:23:13.000Z</time>
      </trkpt>
      <trkpt lat="45.2756" lon="6.06276">
        <ele>1289.8000488281</ele>
        <time>2026-08-21T09:23:14.000Z</time>
      </trkpt>
      <trkpt lat="45.27561" lon="6.06276">
        <ele>1290</ele>
        <time>2026-08-21T09:23:15.000Z</time>
      </trkpt>
      <trkpt lat="45.27561" lon="6.06275">
        <ele>1289.8000488281</ele>
        <time>2026-08-21T09:23:16.000Z</time>
      </trkpt>
      <trkpt lat="45.27562" lon="6.06273">
        <ele>1289.5999755859</ele>
        <time>2026-08-21T09:23:17.000Z</time>
      </trkpt>
      <trkpt lat="45.27563" lon="6.06272">
        <ele>1289.5999755859</ele>
        <time>2026-08-21T09:23:18.000Z</time>
      </trkpt>
      <trkpt lat="45.27563" lon="6.06271">
        <ele>1289.5999755859</ele>
        <time>2026-08-21T09:23:19.000Z</time>
      </trkpt>
      <trkpt lat="45.27564" lon="6.06269">
        <ele>1289.8000488281</ele>
        <time>2026-08-21T09:23:20.000Z</time>
      </trkpt>
      <trkpt lat="45.27564" lon="6.06268">
        <ele>1289.8000488281</ele>
        <time>2026-08-21T09:23:21.000Z</time>
      </trkpt>
      <trkpt lat="45.27564" lon="6.06266">
        <ele>1291.4000244141</ele>
        <time>2026-08-21T09:23:22.000Z</time>
      </trkpt>
      <trkpt lat="45.27565" lon="6.06265">
        <ele>1291.5999755859</ele>
        <time>2026-08-21T09:23:23.000Z</time>
      </trkpt>
      <trkpt lat="45.27565" lon="6.06264">
        <ele>1292.1999511719</ele>
        <time>2026-08-21T09:23:24.000Z</time>
      </trkpt>
      <trkpt lat="45.27564" lon="6.06263">
        <ele>1292.5999755859</ele>
        <time>2026-08-21T09:23:25.000Z</time>
      </trkpt>
      <trkpt lat="45.27564" lon="6.06262">
        <ele>1292.8000488281</ele>
        <time>2026-08-21T09:23:26.000Z</time>
      </trkpt>
      <trkpt lat="45.27564" lon="6.06261">
        <ele>1293.1999511719</ele>
        <time>2026-08-21T09:23:27.000Z</time>
      </trkpt>
      <trkpt lat="45.27562" lon="6.0626">
        <ele>1293.1999511719</ele>
        <time>2026-08-21T09:23:28.000Z</time>
      </trkpt>
      <trkpt lat="45.27561" lon="6.0626">
        <ele>1293.4000244141</ele>
        <time>2026-08-21T09:23:29.000Z</time>
      </trkpt>
      <trkpt lat="45.27561" lon="6.0626">
        <ele>1293.8000488281</ele>
        <time>2026-08-21T09:23:30.000Z</time>
      </trkpt>
      <trkpt lat="45.2756" lon="6.06258">
        <ele>1294</ele>
        <time>2026-08-21T09:23:31.000Z</time>
      </trkpt>
      <trkpt lat="45.2756" lon="6.06257">
        <ele>1294.1999511719</ele>
        <time>2026-08-21T09:23:32.000Z</time>
      </trkpt>
      <trkpt lat="45.2756" lon="6.06256">
        <ele>1294.5999755859</ele>
        <time>2026-08-21T09:23:33.000Z</time>
      </trkpt>
      <trkpt lat="45.2756" lon="6.06256">
        <ele>1294.4000244141</ele>
        <time>2026-08-21T09:23:34.000Z</time>
      </trkpt>
      <trkpt lat="45.27559" lon="6.06255">
        <ele>1294.5999755859</ele>
        <time>2026-08-21T09:23:35.000Z</time>
      </trkpt>
      <trkpt lat="45.27559" lon="6.06254">
        <ele>1294.8000488281</ele>
        <time>2026-08-21T09:23:36.000Z</time>
      </trkpt>
      <trkpt lat="45.27558" lon="6.06252">
        <ele>1294.8000488281</ele>
        <time>2026-08-21T09:23:37.000Z</time>
      </trkpt>
      <trkpt lat="45.27558" lon="6.06251">
        <ele>1295.1999511719</ele>
        <time>2026-08-21T09:23:38.000Z</time>
      </trkpt>
      <trkpt lat="45.27558" lon="6.06249">
        <ele>1295.4000244141</ele>
        <time>2026-08-21T09:23:39.000Z</time>
      </trkpt>
      <trkpt lat="45.27557" lon="6.06249">
        <ele>1295.5999755859</ele>
        <time>2026-08-21T09:23:40.000Z</time>
      </trkpt>
      <trkpt lat="45.27556" lon="6.06248">
        <ele>1295.5999755859</ele>
        <time>2026-08-21T09:23:41.000Z</time>
      </trkpt>
      <trkpt lat="45.27555" lon="6.06247">
        <ele>1295.8000488281</ele>
        <time>2026-08-21T09:23:42.000Z</time>
      </trkpt>
      <trkpt lat="45.27554" lon="6.06245">
        <ele>1296.1999511719</ele>
        <time>2026-08-21T09:23:43.000Z</time>
      </trkpt>
      <trkpt lat="45.27554" lon="6.06244">
        <ele>1296.5999755859</ele>
        <time>2026-08-21T09:23:44.000Z</time>
      </trkpt>
      <trkpt lat="45.27553" lon="6.06244">
        <ele>1296.8000488281</ele>
        <time>2026-08-21T09:23:45.000Z</time>
      </trkpt>
      <trkpt lat="45.27552" lon="6.06243">
        <ele>1297.1999511719</ele>
        <time>2026-08-21T09:23:46.000Z</time>
      </trkpt>
      <trkpt lat="45.27551" lon="6.06242">
        <ele>1297.4000244141</ele>
        <time>2026-08-21T09:23:47.000Z</time>
      </trkpt>
      <trkpt lat="45.27551" lon="6.06241">
        <ele>1297.5999755859</ele>
        <time>2026-08-21T09:23:48.000Z</time>
      </trkpt>
      <trkpt lat="45.27551" lon="6.0624">
        <ele>1297.8000488281</ele>
        <time>2026-08-21T09:23:49.000Z</time>
      </trkpt>
      <trkpt lat="45.2755" lon="6.06239">
        <ele>1298.1999511719</ele>
        <time>2026-08-21T09:23:50.000Z</time>
      </trkpt>
      <trkpt lat="45.2755" lon="6.06238">
        <ele>1298.5999755859</ele>
        <time>2026-08-21T09:23:51.000Z</time>
      </trkpt>
      <trkpt lat="45.2755" lon="6.06237">
        <ele>1298.8000488281</ele>
        <time>2026-08-21T09:23:52.000Z</time>
      </trkpt>
      <trkpt lat="45.2755" lon="6.06236">
        <ele>1299</ele>
        <time>2026-08-21T09:23:53.000Z</time>
      </trkpt>
      <trkpt lat="45.27549" lon="6.06235">
        <ele>1299.1999511719</ele>
        <time>2026-08-21T09:23:54.000Z</time>
      </trkpt>
      <trkpt lat="45.27549" lon="6.06234">
        <ele>1299.4000244141</ele>
        <time>2026-08-21T09:23:55.000Z</time>
      </trkpt>
      <trkpt lat="45.27548" lon="6.06233">
        <ele>1299.5999755859</ele>
        <time>2026-08-21T09:23:56.000Z</time>
      </trkpt>
      <trkpt lat="45.27548" lon="6.06232">
        <ele>1299.8000488281</ele>
        <time>2026-08-21T09:23:57.000Z</time>
      </trkpt>
      <trkpt lat="45.27548" lon="6.0623">
        <ele>1300</ele>
        <time>2026-08-21T09:23:58.000Z</time>
      </trkpt>
      <trkpt lat="45.27547" lon="6.06228">
        <ele>1300.1999511719</ele>
        <time>2026-08-21T09:23:59.000Z</time>
      </trkpt>
      <trkpt lat="45.27547" lon="6.06227">
        <ele>1300.4000244141</ele>
        <time>2026-08-21T09:24:00.000Z</time>
      </trkpt>
      <trkpt lat="45.27546" lon="6.06226">
        <ele>1300.5999755859</ele>
        <time>2026-08-21T09:24:01.000Z</time>
      </trkpt>
      <trkpt lat="45.27546" lon="6.06225">
        <ele>1301.1999511719</ele>
        <time>2026-08-21T09:24:02.000Z</time>
      </trkpt>
      <trkpt lat="45.27546" lon="6.06223">
        <ele>1301.8000488281</ele>
        <time>2026-08-21T09:24:03.000Z</time>
      </trkpt>
      <trkpt lat="45.27546" lon="6.06222">
        <ele>1302</ele>
        <time>2026-08-21T09:24:04.000Z</time>
      </trkpt>
      <trkpt lat="45.27545" lon="6.06221">
        <ele>1302.1999511719</ele>
        <time>2026-08-21T09:24:05.000Z</time>
      </trkpt>
      <trkpt lat="45.27545" lon="6.06219">
        <ele>1302.5999755859</ele>
        <time>2026-08-21T09:24:06.000Z</time>
      </trkpt>
      <trkpt lat="45.27545" lon="6.06218">
        <ele>1302.8000488281</ele>
        <time>2026-08-21T09:24:07.000Z</time>
      </trkpt>
      <trkpt lat="45.27544" lon="6.06217">
        <ele>1303</ele>
        <time>2026-08-21T09:24:08.000Z</time>
      </trkpt>
      <trkpt lat="45.27544" lon="6.06216">
        <ele>1303.1999511719</ele>
        <time>2026-08-21T09:24:09.000Z</time>
      </trkpt>
      <trkpt lat="45.27543" lon="6.06215">
        <ele>1303.4000244141</ele>
        <time>2026-08-21T09:24:10.000Z</time>
      </trkpt>
      <trkpt lat="45.27543" lon="6.06214">
        <ele>1303.8000488281</ele>
        <time>2026-08-21T09:24:11.000Z</time>
      </trkpt>
      <trkpt lat="45.27542" lon="6.06213">
        <ele>1304.1999511719</ele>
        <time>2026-08-21T09:24:12.000Z</time>
      </trkpt>
      <trkpt lat="45.27541" lon="6.06212">
        <ele>1304.4000244141</ele>
        <time>2026-08-21T09:24:13.000Z</time>
      </trkpt>
      <trkpt lat="45.2754" lon="6.06212">
        <ele>1304.8000488281</ele>
        <time>2026-08-21T09:24:14.000Z</time>
      </trkpt>
      <trkpt lat="45.2754" lon="6.06211">
        <ele>1305</ele>
        <time>2026-08-21T09:24:15.000Z</time>
      </trkpt>
      <trkpt lat="45.27539" lon="6.0621">
        <ele>1305.4000244141</ele>
        <time>2026-08-21T09:24:16.000Z</time>
      </trkpt>
      <trkpt lat="45.27538" lon="6.06209">
        <ele>1305.5999755859</ele>
        <time>2026-08-21T09:24:17.000Z</time>
      </trkpt>
      <trkpt lat="45.27538" lon="6.06208">
        <ele>1305.8000488281</ele>
        <time>2026-08-21T09:24:18.000Z</time>
      </trkpt>
      <trkpt lat="45.27537" lon="6.06208">
        <ele>1306.4000244141</ele>
        <time>2026-08-21T09:24:19.000Z</time>
      </trkpt>
      <trkpt lat="45.27537" lon="6.06207">
        <ele>1306.8000488281</ele>
        <time>2026-08-21T09:24:20.000Z</time>
      </trkpt>
      <trkpt lat="45.27536" lon="6.06207">
        <ele>1307</ele>
        <time>2026-08-21T09:24:21.000Z</time>
      </trkpt>
      <trkpt lat="45.27537" lon="6.06207">
        <ele>1307.4000244141</ele>
        <time>2026-08-21T09:24:22.000Z</time>
      </trkpt>
      <trkpt lat="45.27536" lon="6.06206">
        <ele>1307.5999755859</ele>
        <time>2026-08-21T09:24:23.000Z</time>
      </trkpt>
      <trkpt lat="45.27535" lon="6.06206">
        <ele>1307.8000488281</ele>
        <time>2026-08-21T09:24:24.000Z</time>
      </trkpt>
      <trkpt lat="45.27534" lon="6.06206">
        <ele>1308</ele>
        <time>2026-08-21T09:24:25.000Z</time>
      </trkpt>
      <trkpt lat="45.27534" lon="6.06205">
        <ele>1308</ele>
        <time>2026-08-21T09:24:26.000Z</time>
      </trkpt>
      <trkpt lat="45.27533" lon="6.06205">
        <ele>1308.1999511719</ele>
        <time>2026-08-21T09:24:27.000Z</time>
      </trkpt>
      <trkpt lat="45.27533" lon="6.06204">
        <ele>1308.1999511719</ele>
        <time>2026-08-21T09:24:28.000Z</time>
      </trkpt>
      <trkpt lat="45.27532" lon="6.06203">
        <ele>1308.1999511719</ele>
        <time>2026-08-21T09:24:29.000Z</time>
      </trkpt>
      <trkpt lat="45.27531" lon="6.06203">
        <ele>1308.4000244141</ele>
        <time>2026-08-21T09:24:30.000Z</time>
      </trkpt>
      <trkpt lat="45.27531" lon="6.06202">
        <ele>1308.5999755859</ele>
        <time>2026-08-21T09:24:31.000Z</time>
      </trkpt>
      <trkpt lat="45.2753" lon="6.06201">
        <ele>1308.5999755859</ele>
        <time>2026-08-21T09:24:32.000Z</time>
      </trkpt>
      <trkpt lat="45.27529" lon="6.062">
        <ele>1309</ele>
        <time>2026-08-21T09:24:33.000Z</time>
      </trkpt>
      <trkpt lat="45.27528" lon="6.062">
        <ele>1309.1999511719</ele>
        <time>2026-08-21T09:24:34.000Z</time>
      </trkpt>
      <trkpt lat="45.27527" lon="6.062">
        <ele>1309.5999755859</ele>
        <time>2026-08-21T09:24:35.000Z</time>
      </trkpt>
      <trkpt lat="45.27527" lon="6.062">
        <ele>1309.8000488281</ele>
        <time>2026-08-21T09:24:36.000Z</time>
      </trkpt>
      <trkpt lat="45.27526" lon="6.06199">
        <ele>1310</ele>
        <time>2026-08-21T09:24:37.000Z</time>
      </trkpt>
      <trkpt lat="45.27526" lon="6.06198">
        <ele>1310.1999511719</ele>
        <time>2026-08-21T09:24:38.000Z</time>
      </trkpt>
      <trkpt lat="45.27525" lon="6.06197">
        <ele>1310.1999511719</ele>
        <time>2026-08-21T09:24:39.000Z</time>
      </trkpt>
      <trkpt lat="45.27525" lon="6.06197">
        <ele>1310.4000244141</ele>
        <time>2026-08-21T09:24:40.000Z</time>
      </trkpt>
      <trkpt lat="45.27524" lon="6.06195">
        <ele>1310.5999755859</ele>
        <time>2026-08-21T09:24:41.000Z</time>
      </trkpt>
      <trkpt lat="45.27523" lon="6.06194">
        <ele>1310.8000488281</ele>
        <time>2026-08-21T09:24:42.000Z</time>
      </trkpt>
      <trkpt lat="45.27522" lon="6.06193">
        <ele>1311</ele>
        <time>2026-08-21T09:24:43.000Z</time>
      </trkpt>
      <trkpt lat="45.27521" lon="6.06192">
        <ele>1311.5999755859</ele>
        <time>2026-08-21T09:24:44.000Z</time>
      </trkpt>
      <trkpt lat="45.2752" lon="6.06192">
        <ele>1311.5999755859</ele>
        <time>2026-08-21T09:24:45.000Z</time>
      </trkpt>
      <trkpt lat="45.2752" lon="6.06191">
        <ele>1311.8000488281</ele>
        <time>2026-08-21T09:24:46.000Z</time>
      </trkpt>
      <trkpt lat="45.27519" lon="6.06189">
        <ele>1311.8000488281</ele>
        <time>2026-08-21T09:24:47.000Z</time>
      </trkpt>
      <trkpt lat="45.27519" lon="6.06189">
        <ele>1312.1999511719</ele>
        <time>2026-08-21T09:24:48.000Z</time>
      </trkpt>
      <trkpt lat="45.27519" lon="6.06186">
        <ele>1312.4000244141</ele>
        <time>2026-08-21T09:24:49.000Z</time>
      </trkpt>
      <trkpt lat="45.27519" lon="6.06185">
        <ele>1312.1999511719</ele>
        <time>2026-08-21T09:24:50.000Z</time>
      </trkpt>
      <trkpt lat="45.27518" lon="6.06184">
        <ele>1312</ele>
        <time>2026-08-21T09:24:51.000Z</time>
      </trkpt>
      <trkpt lat="45.27517" lon="6.06183">
        <ele>1311.4000244141</ele>
        <time>2026-08-21T09:24:52.000Z</time>
      </trkpt>
      <trkpt lat="45.27517" lon="6.06183">
        <ele>1310.8000488281</ele>
        <time>2026-08-21T09:24:53.000Z</time>
      </trkpt>
      <trkpt lat="45.27516" lon="6.06182">
        <ele>1309.4000244141</ele>
        <time>2026-08-21T09:24:54.000Z</time>
      </trkpt>
      <trkpt lat="45.27516" lon="6.06182">
        <ele>1308.8000488281</ele>
        <time>2026-08-21T09:24:55.000Z</time>
      </trkpt>
      <trkpt lat="45.27515" lon="6.06181">
        <ele>1307</ele>
        <time>2026-08-21T09:24:56.000Z</time>
      </trkpt>
      <trkpt lat="45.27515" lon="6.0618">
        <ele>1306</ele>
        <time>2026-08-21T09:24:57.000Z</time>
      </trkpt>
      <trkpt lat="45.27514" lon="6.06179">
        <ele>1306</ele>
        <time>2026-08-21T09:24:58.000Z</time>
      </trkpt>
      <trkpt lat="45.27513" lon="6.06178">
        <ele>1305.5999755859</ele>
        <time>2026-08-21T09:24:59.000Z</time>
      </trkpt>
      <trkpt lat="45.27513" lon="6.06178">
        <ele>1305.4000244141</ele>
        <time>2026-08-21T09:25:00.000Z</time>
      </trkpt>
      <trkpt lat="45.27512" lon="6.06176">
        <ele>1305</ele>
        <time>2026-08-21T09:25:01.000Z</time>
      </trkpt>
      <trkpt lat="45.27512" lon="6.06176">
        <ele>1306.4000244141</ele>
        <time>2026-08-21T09:25:02.000Z</time>
      </trkpt>
      <trkpt lat="45.27511" lon="6.06175">
        <ele>1307.5999755859</ele>
        <time>2026-08-21T09:25:03.000Z</time>
      </trkpt>
      <trkpt lat="45.2751" lon="6.06174">
        <ele>1309</ele>
        <time>2026-08-21T09:25:04.000Z</time>
      </trkpt>
      <trkpt lat="45.27509" lon="6.06173">
        <ele>1310.4000244141</ele>
        <time>2026-08-21T09:25:05.000Z</time>
      </trkpt>
      <trkpt lat="45.27507" lon="6.06172">
        <ele>1311.5999755859</ele>
        <time>2026-08-21T09:25:06.000Z</time>
      </trkpt>
      <trkpt lat="45.27506" lon="6.0617">
        <ele>1313</ele>
        <time>2026-08-21T09:25:07.000Z</time>
      </trkpt>
      <trkpt lat="45.27505" lon="6.06169">
        <ele>1314.4000244141</ele>
        <time>2026-08-21T09:25:08.000Z</time>
      </trkpt>
      <trkpt lat="45.27504" lon="6.06167">
        <ele>1315.5999755859</ele>
        <time>2026-08-21T09:25:09.000Z</time>
      </trkpt>
      <trkpt lat="45.27504" lon="6.06166">
        <ele>1317</ele>
        <time>2026-08-21T09:25:10.000Z</time>
      </trkpt>
      <trkpt lat="45.27502" lon="6.06165">
        <ele>1317</ele>
        <time>2026-08-21T09:25:11.000Z</time>
      </trkpt>
      <trkpt lat="45.27502" lon="6.06164">
        <ele>1317.1999511719</ele>
        <time>2026-08-21T09:25:12.000Z</time>
      </trkpt>
      <trkpt lat="45.27501" lon="6.06162">
        <ele>1317.4000244141</ele>
        <time>2026-08-21T09:25:13.000Z</time>
      </trkpt>
      <trkpt lat="45.275" lon="6.06161">
        <ele>1317.8000488281</ele>
        <time>2026-08-21T09:25:14.000Z</time>
      </trkpt>
      <trkpt lat="45.275" lon="6.0616">
        <ele>1318.1999511719</ele>
        <time>2026-08-21T09:25:15.000Z</time>
      </trkpt>
      <trkpt lat="45.27499" lon="6.06159">
        <ele>1319</ele>
        <time>2026-08-21T09:25:16.000Z</time>
      </trkpt>
      <trkpt lat="45.27498" lon="6.06158">
        <ele>1319</ele>
        <time>2026-08-21T09:25:17.000Z</time>
      </trkpt>
      <trkpt lat="45.27498" lon="6.06157">
        <ele>1319.5999755859</ele>
        <time>2026-08-21T09:25:18.000Z</time>
      </trkpt>
      <trkpt lat="45.27497" lon="6.06155">
        <ele>1319.8000488281</ele>
        <time>2026-08-21T09:25:19.000Z</time>
      </trkpt>
      <trkpt lat="45.27496" lon="6.06154">
        <ele>1320.1999511719</ele>
        <time>2026-08-21T09:25:20.000Z</time>
      </trkpt>
      <trkpt lat="45.27495" lon="6.06153">
        <ele>1320.5999755859</ele>
        <time>2026-08-21T09:25:21.000Z</time>
      </trkpt>
      <trkpt lat="45.27495" lon="6.06151">
        <ele>1321.1999511719</ele>
        <time>2026-08-21T09:25:22.000Z</time>
      </trkpt>
      <trkpt lat="45.27494" lon="6.06149">
        <ele>1321.5999755859</ele>
        <time>2026-08-21T09:25:23.000Z</time>
      </trkpt>
      <trkpt lat="45.27494" lon="6.06148">
        <ele>1322.1999511719</ele>
        <time>2026-08-21T09:25:24.000Z</time>
      </trkpt>
      <trkpt lat="45.27493" lon="6.06146">
        <ele>1322.5999755859</ele>
        <time>2026-08-21T09:25:25.000Z</time>
      </trkpt>
      <trkpt lat="45.27492" lon="6.06145">
        <ele>1323.1999511719</ele>
        <time>2026-08-21T09:25:26.000Z</time>
      </trkpt>
      <trkpt lat="45.27491" lon="6.06144">
        <ele>1323.8000488281</ele>
        <time>2026-08-21T09:25:27.000Z</time>
      </trkpt>
      <trkpt lat="45.27491" lon="6.06142">
        <ele>1323.8000488281</ele>
        <time>2026-08-21T09:25:28.000Z</time>
      </trkpt>
      <trkpt lat="45.2749" lon="6.06141">
        <ele>1324.1999511719</ele>
        <time>2026-08-21T09:25:29.000Z</time>
      </trkpt>
      <trkpt lat="45.27489" lon="6.0614">
        <ele>1324.5999755859</ele>
        <time>2026-08-21T09:25:30.000Z</time>
      </trkpt>
      <trkpt lat="45.27489" lon="6.06139">
        <ele>1324.8000488281</ele>
        <time>2026-08-21T09:25:31.000Z</time>
      </trkpt>
      <trkpt lat="45.27488" lon="6.06138">
        <ele>1325.1999511719</ele>
        <time>2026-08-21T09:25:32.000Z</time>
      </trkpt>
      <trkpt lat="45.27487" lon="6.06136">
        <ele>1325.8000488281</ele>
        <time>2026-08-21T09:25:33.000Z</time>
      </trkpt>
      <trkpt lat="45.27487" lon="6.06135">
        <ele>1325.8000488281</ele>
        <time>2026-08-21T09:25:34.000Z</time>
      </trkpt>
      <trkpt lat="45.27486" lon="6.06134">
        <ele>1326</ele>
        <time>2026-08-21T09:25:35.000Z</time>
      </trkpt>
      <trkpt lat="45.27485" lon="6.06133">
        <ele>1326</ele>
        <time>2026-08-21T09:25:36.000Z</time>
      </trkpt>
      <trkpt lat="45.27485" lon="6.06131">
        <ele>1326</ele>
        <time>2026-08-21T09:25:37.000Z</time>
      </trkpt>
      <trkpt lat="45.27484" lon="6.0613">
        <ele>1326</ele>
        <time>2026-08-21T09:25:38.000Z</time>
      </trkpt>
      <trkpt lat="45.27483" lon="6.06128">
        <ele>1326</ele>
        <time>2026-08-21T09:25:39.000Z</time>
      </trkpt>
      <trkpt lat="45.27482" lon="6.06128">
        <ele>1326</ele>
        <time>2026-08-21T09:25:40.000Z</time>
      </trkpt>
      <trkpt lat="45.2748" lon="6.06126">
        <ele>1325.8000488281</ele>
        <time>2026-08-21T09:25:41.000Z</time>
      </trkpt>
      <trkpt lat="45.2748" lon="6.06125">
        <ele>1325.8000488281</ele>
        <time>2026-08-21T09:25:42.000Z</time>
      </trkpt>
      <trkpt lat="45.27479" lon="6.06125">
        <ele>1325.8000488281</ele>
        <time>2026-08-21T09:25:43.000Z</time>
      </trkpt>
      <trkpt lat="45.27479" lon="6.06124">
        <ele>1325.8000488281</ele>
        <time>2026-08-21T09:25:44.000Z</time>
      </trkpt>
      <trkpt lat="45.27478" lon="6.06124">
        <ele>1325</ele>
        <time>2026-08-21T09:25:45.000Z</time>
      </trkpt>
      <trkpt lat="45.27478" lon="6.06123">
        <ele>1324.4000244141</ele>
        <time>2026-08-21T09:25:46.000Z</time>
      </trkpt>
      <trkpt lat="45.27477" lon="6.06122">
        <ele>1323.8000488281</ele>
        <time>2026-08-21T09:25:47.000Z</time>
      </trkpt>
      <trkpt lat="45.27476" lon="6.06121">
        <ele>1322.5999755859</ele>
        <time>2026-08-21T09:25:48.000Z</time>
      </trkpt>
      <trkpt lat="45.27476" lon="6.0612">
        <ele>1322.4000244141</ele>
        <time>2026-08-21T09:25:49.000Z</time>
      </trkpt>
      <trkpt lat="45.27475" lon="6.06118">
        <ele>1322</ele>
        <time>2026-08-21T09:25:50.000Z</time>
      </trkpt>
      <trkpt lat="45.27474" lon="6.06117">
        <ele>1321.8000488281</ele>
        <time>2026-08-21T09:25:51.000Z</time>
      </trkpt>
      <trkpt lat="45.27474" lon="6.06115">
        <ele>1321.8000488281</ele>
        <time>2026-08-21T09:25:52.000Z</time>
      </trkpt>
      <trkpt lat="45.27473" lon="6.06114">
        <ele>1321.8000488281</ele>
        <time>2026-08-21T09:25:53.000Z</time>
      </trkpt>
      <trkpt lat="45.27472" lon="6.06112">
        <ele>1322.4000244141</ele>
        <time>2026-08-21T09:25:54.000Z</time>
      </trkpt>
      <trkpt lat="45.27472" lon="6.06111">
        <ele>1322.8000488281</ele>
        <time>2026-08-21T09:25:55.000Z</time>
      </trkpt>
      <trkpt lat="45.27471" lon="6.0611">
        <ele>1323.4000244141</ele>
        <time>2026-08-21T09:25:56.000Z</time>
      </trkpt>
      <trkpt lat="45.27471" lon="6.06109">
        <ele>1323.8000488281</ele>
        <time>2026-08-21T09:25:57.000Z</time>
      </trkpt>
      <trkpt lat="45.2747" lon="6.06107">
        <ele>1324.4000244141</ele>
        <time>2026-08-21T09:25:58.000Z</time>
      </trkpt>
      <trkpt lat="45.2747" lon="6.06106">
        <ele>1324.8000488281</ele>
        <time>2026-08-21T09:25:59.000Z</time>
      </trkpt>
      <trkpt lat="45.27469" lon="6.06104">
        <ele>1325.4000244141</ele>
        <time>2026-08-21T09:26:00.000Z</time>
      </trkpt>
      <trkpt lat="45.27469" lon="6.06102">
        <ele>1325.8000488281</ele>
        <time>2026-08-21T09:26:01.000Z</time>
      </trkpt>
      <trkpt lat="45.27468" lon="6.06101">
        <ele>1328</ele>
        <time>2026-08-21T09:26:02.000Z</time>
      </trkpt>
      <trkpt lat="45.27468" lon="6.061">
        <ele>1329.1999511719</ele>
        <time>2026-08-21T09:26:03.000Z</time>
      </trkpt>
      <trkpt lat="45.27467" lon="6.06098">
        <ele>1330.1999511719</ele>
        <time>2026-08-21T09:26:04.000Z</time>
      </trkpt>
      <trkpt lat="45.27466" lon="6.06096">
        <ele>1330.4000244141</ele>
        <time>2026-08-21T09:26:05.000Z</time>
      </trkpt>
      <trkpt lat="45.27465" lon="6.06095">
        <ele>1331.8000488281</ele>
        <time>2026-08-21T09:26:06.000Z</time>
      </trkpt>
      <trkpt lat="45.27465" lon="6.06093">
        <ele>1333</ele>
        <time>2026-08-21T09:26:07.000Z</time>
      </trkpt>
      <trkpt lat="45.27464" lon="6.06092">
        <ele>1333.8000488281</ele>
        <time>2026-08-21T09:26:08.000Z</time>
      </trkpt>
      <trkpt lat="45.27464" lon="6.06091">
        <ele>1334.5999755859</ele>
        <time>2026-08-21T09:26:09.000Z</time>
      </trkpt>
      <trkpt lat="45.27463" lon="6.0609">
        <ele>1335.1999511719</ele>
        <time>2026-08-21T09:26:10.000Z</time>
      </trkpt>
      <trkpt lat="45.27462" lon="6.06089">
        <ele>1336</ele>
        <time>2026-08-21T09:26:11.000Z</time>
      </trkpt>
      <trkpt lat="45.27461" lon="6.06088">
        <ele>1336</ele>
        <time>2026-08-21T09:26:12.000Z</time>
      </trkpt>
      <trkpt lat="45.27461" lon="6.06086">
        <ele>1336.5999755859</ele>
        <time>2026-08-21T09:26:13.000Z</time>
      </trkpt>
      <trkpt lat="45.2746" lon="6.06085">
        <ele>1336.8000488281</ele>
        <time>2026-08-21T09:26:14.000Z</time>
      </trkpt>
      <trkpt lat="45.27459" lon="6.06084">
        <ele>1337</ele>
        <time>2026-08-21T09:26:15.000Z</time>
      </trkpt>
      <trkpt lat="45.27458" lon="6.06083">
        <ele>1337.1999511719</ele>
        <time>2026-08-21T09:26:16.000Z</time>
      </trkpt>
      <trkpt lat="45.27457" lon="6.06081">
        <ele>1337.4000244141</ele>
        <time>2026-08-21T09:26:17.000Z</time>
      </trkpt>
      <trkpt lat="45.27457" lon="6.0608">
        <ele>1337.5999755859</ele>
        <time>2026-08-21T09:26:18.000Z</time>
      </trkpt>
      <trkpt lat="45.27456" lon="6.06079">
        <ele>1337.5999755859</ele>
        <time>2026-08-21T09:26:19.000Z</time>
      </trkpt>
      <trkpt lat="45.27455" lon="6.06078">
        <ele>1337.8000488281</ele>
        <time>2026-08-21T09:26:20.000Z</time>
      </trkpt>
      <trkpt lat="45.27455" lon="6.06077">
        <ele>1338</ele>
        <time>2026-08-21T09:26:21.000Z</time>
      </trkpt>
      <trkpt lat="45.27454" lon="6.06075">
        <ele>1338.1999511719</ele>
        <time>2026-08-21T09:26:22.000Z</time>
      </trkpt>
      <trkpt lat="45.27453" lon="6.06074">
        <ele>1338.5999755859</ele>
        <time>2026-08-21T09:26:23.000Z</time>
      </trkpt>
      <trkpt lat="45.27451" lon="6.06073">
        <ele>1339.1999511719</ele>
        <time>2026-08-21T09:26:24.000Z</time>
      </trkpt>
      <trkpt lat="45.2745" lon="6.06072">
        <ele>1339.4000244141</ele>
        <time>2026-08-21T09:26:25.000Z</time>
      </trkpt>
      <trkpt lat="45.27449" lon="6.06071">
        <ele>1339.5999755859</ele>
        <time>2026-08-21T09:26:26.000Z</time>
      </trkpt>
      <trkpt lat="45.27448" lon="6.0607">
        <ele>1340</ele>
        <time>2026-08-21T09:26:27.000Z</time>
      </trkpt>
      <trkpt lat="45.27448" lon="6.06069">
        <ele>1340.4000244141</ele>
        <time>2026-08-21T09:26:28.000Z</time>
      </trkpt>
      <trkpt lat="45.27447" lon="6.06068">
        <ele>1341</ele>
        <time>2026-08-21T09:26:29.000Z</time>
      </trkpt>
      <trkpt lat="45.27446" lon="6.06067">
        <ele>1341.1999511719</ele>
        <time>2026-08-21T09:26:30.000Z</time>
      </trkpt>
      <trkpt lat="45.27445" lon="6.06066">
        <ele>1341.5999755859</ele>
        <time>2026-08-21T09:26:31.000Z</time>
      </trkpt>
      <trkpt lat="45.27445" lon="6.06065">
        <ele>1341.8000488281</ele>
        <time>2026-08-21T09:26:32.000Z</time>
      </trkpt>
      <trkpt lat="45.27443" lon="6.06065">
        <ele>1342</ele>
        <time>2026-08-21T09:26:33.000Z</time>
      </trkpt>
      <trkpt lat="45.27443" lon="6.06064">
        <ele>1342.1999511719</ele>
        <time>2026-08-21T09:26:34.000Z</time>
      </trkpt>
      <trkpt lat="45.27442" lon="6.06063">
        <ele>1342.4000244141</ele>
        <time>2026-08-21T09:26:35.000Z</time>
      </trkpt>
      <trkpt lat="45.27442" lon="6.06062">
        <ele>1342.5999755859</ele>
        <time>2026-08-21T09:26:36.000Z</time>
      </trkpt>
      <trkpt lat="45.27441" lon="6.06061">
        <ele>1342.8000488281</ele>
        <time>2026-08-21T09:26:37.000Z</time>
      </trkpt>
      <trkpt lat="45.27441" lon="6.0606">
        <ele>1343.1999511719</ele>
        <time>2026-08-21T09:26:38.000Z</time>
      </trkpt>
      <trkpt lat="45.2744" lon="6.06059">
        <ele>1343.4000244141</ele>
        <time>2026-08-21T09:26:39.000Z</time>
      </trkpt>
      <trkpt lat="45.2744" lon="6.06058">
        <ele>1343.5999755859</ele>
        <time>2026-08-21T09:26:40.000Z</time>
      </trkpt>
      <trkpt lat="45.27439" lon="6.06057">
        <ele>1343.5999755859</ele>
        <time>2026-08-21T09:26:41.000Z</time>
      </trkpt>
      <trkpt lat="45.27439" lon="6.06055">
        <ele>1343.8000488281</ele>
        <time>2026-08-21T09:26:42.000Z</time>
      </trkpt>
      <trkpt lat="45.27438" lon="6.06054">
        <ele>1344.1999511719</ele>
        <time>2026-08-21T09:26:43.000Z</time>
      </trkpt>
      <trkpt lat="45.27437" lon="6.06052">
        <ele>1343.5999755859</ele>
        <time>2026-08-21T09:26:44.000Z</time>
      </trkpt>
      <trkpt lat="45.27436" lon="6.06051">
        <ele>1343.4000244141</ele>
        <time>2026-08-21T09:26:45.000Z</time>
      </trkpt>
      <trkpt lat="45.27436" lon="6.0605">
        <ele>1343.1999511719</ele>
        <time>2026-08-21T09:26:46.000Z</time>
      </trkpt>
      <trkpt lat="45.27436" lon="6.06049">
        <ele>1343</ele>
        <time>2026-08-21T09:26:47.000Z</time>
      </trkpt>
      <trkpt lat="45.27436" lon="6.06048">
        <ele>1342.4000244141</ele>
        <time>2026-08-21T09:26:48.000Z</time>
      </trkpt>
      <trkpt lat="45.27435" lon="6.06047">
        <ele>1341</ele>
        <time>2026-08-21T09:26:49.000Z</time>
      </trkpt>
      <trkpt lat="45.27435" lon="6.06046">
        <ele>1341</ele>
        <time>2026-08-21T09:26:50.000Z</time>
      </trkpt>
      <trkpt lat="45.27434" lon="6.06044">
        <ele>1340.4000244141</ele>
        <time>2026-08-21T09:26:51.000Z</time>
      </trkpt>
      <trkpt lat="45.27433" lon="6.06043">
        <ele>1340</ele>
        <time>2026-08-21T09:26:52.000Z</time>
      </trkpt>
      <trkpt lat="45.27432" lon="6.06042">
        <ele>1339.4000244141</ele>
        <time>2026-08-21T09:26:53.000Z</time>
      </trkpt>
      <trkpt lat="45.27431" lon="6.06042">
        <ele>1339</ele>
        <time>2026-08-21T09:26:54.000Z</time>
      </trkpt>
      <trkpt lat="45.2743" lon="6.06042">
        <ele>1339</ele>
        <time>2026-08-21T09:26:55.000Z</time>
      </trkpt>
      <trkpt lat="45.27429" lon="6.06042">
        <ele>1338.8000488281</ele>
        <time>2026-08-21T09:26:56.000Z</time>
      </trkpt>
      <trkpt lat="45.27428" lon="6.06042">
        <ele>1339</ele>
        <time>2026-08-21T09:26:57.000Z</time>
      </trkpt>
      <trkpt lat="45.27427" lon="6.06041">
        <ele>1339.1999511719</ele>
        <time>2026-08-21T09:26:58.000Z</time>
      </trkpt>
      <trkpt lat="45.27426" lon="6.0604">
        <ele>1339.4000244141</ele>
        <time>2026-08-21T09:26:59.000Z</time>
      </trkpt>
      <trkpt lat="45.27425" lon="6.0604">
        <ele>1339.5999755859</ele>
        <time>2026-08-21T09:27:00.000Z</time>
      </trkpt>
      <trkpt lat="45.27424" lon="6.06039">
        <ele>1340</ele>
        <time>2026-08-21T09:27:01.000Z</time>
      </trkpt>
      <trkpt lat="45.27424" lon="6.06039">
        <ele>1340.1999511719</ele>
        <time>2026-08-21T09:27:02.000Z</time>
      </trkpt>
      <trkpt lat="45.27423" lon="6.06038">
        <ele>1340.4000244141</ele>
        <time>2026-08-21T09:27:03.000Z</time>
      </trkpt>
      <trkpt lat="45.27423" lon="6.06038">
        <ele>1340.5999755859</ele>
        <time>2026-08-21T09:27:04.000Z</time>
      </trkpt>
      <trkpt lat="45.27422" lon="6.06038">
        <ele>1340.8000488281</ele>
        <time>2026-08-21T09:27:05.000Z</time>
      </trkpt>
      <trkpt lat="45.27422" lon="6.06038">
        <ele>1341</ele>
        <time>2026-08-21T09:27:06.000Z</time>
      </trkpt>
      <trkpt lat="45.27421" lon="6.06038">
        <ele>1342</ele>
        <time>2026-08-21T09:27:07.000Z</time>
      </trkpt>
      <trkpt lat="45.2742" lon="6.06037">
        <ele>1342.4000244141</ele>
        <time>2026-08-21T09:27:08.000Z</time>
      </trkpt>
      <trkpt lat="45.2742" lon="6.06037">
        <ele>1342.8000488281</ele>
        <time>2026-08-21T09:27:09.000Z</time>
      </trkpt>
      <trkpt lat="45.27418" lon="6.06036">
        <ele>1343.1999511719</ele>
        <time>2026-08-21T09:27:10.000Z</time>
      </trkpt>
      <trkpt lat="45.27417" lon="6.06036">
        <ele>1344.1999511719</ele>
        <time>2026-08-21T09:27:11.000Z</time>
      </trkpt>
      <trkpt lat="45.27416" lon="6.06035">
        <ele>1345.1999511719</ele>
        <time>2026-08-21T09:27:12.000Z</time>
      </trkpt>
      <trkpt lat="45.27416" lon="6.06035">
        <ele>1346.4000244141</ele>
        <time>2026-08-21T09:27:13.000Z</time>
      </trkpt>
      <trkpt lat="45.27414" lon="6.06034">
        <ele>1347.4000244141</ele>
        <time>2026-08-21T09:27:14.000Z</time>
      </trkpt>
      <trkpt lat="45.27413" lon="6.06033">
        <ele>1348.4000244141</ele>
        <time>2026-08-21T09:27:15.000Z</time>
      </trkpt>
      <trkpt lat="45.27413" lon="6.06032">
        <ele>1349.4000244141</ele>
        <time>2026-08-21T09:27:16.000Z</time>
      </trkpt>
      <trkpt lat="45.27411" lon="6.06032">
        <ele>1350</ele>
        <time>2026-08-21T09:27:17.000Z</time>
      </trkpt>
      <trkpt lat="45.27411" lon="6.06031">
        <ele>1350.4000244141</ele>
        <time>2026-08-21T09:27:18.000Z</time>
      </trkpt>
      <trkpt lat="45.2741" lon="6.06031">
        <ele>1351.4000244141</ele>
        <time>2026-08-21T09:27:19.000Z</time>
      </trkpt>
      <trkpt lat="45.27409" lon="6.0603">
        <ele>1352.4000244141</ele>
        <time>2026-08-21T09:27:20.000Z</time>
      </trkpt>
      <trkpt lat="45.27408" lon="6.06029">
        <ele>1352.5999755859</ele>
        <time>2026-08-21T09:27:21.000Z</time>
      </trkpt>
      <trkpt lat="45.27407" lon="6.06028">
        <ele>1353.4000244141</ele>
        <time>2026-08-21T09:27:22.000Z</time>
      </trkpt>
      <trkpt lat="45.27407" lon="6.06028">
        <ele>1354.5999755859</ele>
        <time>2026-08-21T09:27:23.000Z</time>
      </trkpt>
      <trkpt lat="45.27405" lon="6.06027">
        <ele>1355.8000488281</ele>
        <time>2026-08-21T09:27:24.000Z</time>
      </trkpt>
      <trkpt lat="45.27404" lon="6.06026">
        <ele>1356.8000488281</ele>
        <time>2026-08-21T09:27:25.000Z</time>
      </trkpt>
      <trkpt lat="45.27403" lon="6.06026">
        <ele>1357.4000244141</ele>
        <time>2026-08-21T09:27:26.000Z</time>
      </trkpt>
      <trkpt lat="45.27402" lon="6.06025">
        <ele>1358.1999511719</ele>
        <time>2026-08-21T09:27:27.000Z</time>
      </trkpt>
      <trkpt lat="45.27401" lon="6.06024">
        <ele>1358.1999511719</ele>
        <time>2026-08-21T09:27:28.000Z</time>
      </trkpt>
      <trkpt lat="45.27401" lon="6.06023">
        <ele>1359</ele>
        <time>2026-08-21T09:27:29.000Z</time>
      </trkpt>
      <trkpt lat="45.274" lon="6.06023">
        <ele>1359.1999511719</ele>
        <time>2026-08-21T09:27:30.000Z</time>
      </trkpt>
      <trkpt lat="45.27399" lon="6.06022">
        <ele>1359.5999755859</ele>
        <time>2026-08-21T09:27:31.000Z</time>
      </trkpt>
      <trkpt lat="45.27399" lon="6.06021">
        <ele>1359.8000488281</ele>
        <time>2026-08-21T09:27:32.000Z</time>
      </trkpt>
      <trkpt lat="45.27398" lon="6.0602">
        <ele>1360.4000244141</ele>
        <time>2026-08-21T09:27:33.000Z</time>
      </trkpt>
      <trkpt lat="45.27397" lon="6.0602">
        <ele>1359</ele>
        <time>2026-08-21T09:27:34.000Z</time>
      </trkpt>
      <trkpt lat="45.27395" lon="6.06019">
        <ele>1357.8000488281</ele>
        <time>2026-08-21T09:27:35.000Z</time>
      </trkpt>
      <trkpt lat="45.27395" lon="6.06018">
        <ele>1356.4000244141</ele>
        <time>2026-08-21T09:27:36.000Z</time>
      </trkpt>
      <trkpt lat="45.27394" lon="6.06017">
        <ele>1355.1999511719</ele>
        <time>2026-08-21T09:27:37.000Z</time>
      </trkpt>
      <trkpt lat="45.27393" lon="6.06016">
        <ele>1353.8000488281</ele>
        <time>2026-08-21T09:27:38.000Z</time>
      </trkpt>
      <trkpt lat="45.27392" lon="6.06015">
        <ele>1352.5999755859</ele>
        <time>2026-08-21T09:27:39.000Z</time>
      </trkpt>
      <trkpt lat="45.27391" lon="6.06014">
        <ele>1351.1999511719</ele>
        <time>2026-08-21T09:27:40.000Z</time>
      </trkpt>
      <trkpt lat="45.2739" lon="6.06013">
        <ele>1351.1999511719</ele>
        <time>2026-08-21T09:27:41.000Z</time>
      </trkpt>
      <trkpt lat="45.27389" lon="6.06012">
        <ele>1351</ele>
        <time>2026-08-21T09:27:42.000Z</time>
      </trkpt>
      <trkpt lat="45.27389" lon="6.06011">
        <ele>1351</ele>
        <time>2026-08-21T09:27:43.000Z</time>
      </trkpt>
      <trkpt lat="45.27388" lon="6.06009">
        <ele>1351</ele>
        <time>2026-08-21T09:27:44.000Z</time>
      </trkpt>
      <trkpt lat="45.27387" lon="6.06008">
        <ele>1351.1999511719</ele>
        <time>2026-08-21T09:27:45.000Z</time>
      </trkpt>
      <trkpt lat="45.27386" lon="6.06008">
        <ele>1351.8000488281</ele>
        <time>2026-08-21T09:27:46.000Z</time>
      </trkpt>
      <trkpt lat="45.27385" lon="6.06007">
        <ele>1352.4000244141</ele>
        <time>2026-08-21T09:27:47.000Z</time>
      </trkpt>
      <trkpt lat="45.27384" lon="6.06006">
        <ele>1352.5999755859</ele>
        <time>2026-08-21T09:27:48.000Z</time>
      </trkpt>
      <trkpt lat="45.27383" lon="6.06004">
        <ele>1353.5999755859</ele>
        <time>2026-08-21T09:27:49.000Z</time>
      </trkpt>
      <trkpt lat="45.27382" lon="6.06003">
        <ele>1354</ele>
        <time>2026-08-21T09:27:50.000Z</time>
      </trkpt>
      <trkpt lat="45.2738" lon="6.06002">
        <ele>1354.4000244141</ele>
        <time>2026-08-21T09:27:51.000Z</time>
      </trkpt>
      <trkpt lat="45.2738" lon="6.06001">
        <ele>1355.1999511719</ele>
        <time>2026-08-21T09:27:52.000Z</time>
      </trkpt>
      <trkpt lat="45.27379" lon="6.06001">
        <ele>1355.5999755859</ele>
        <time>2026-08-21T09:27:53.000Z</time>
      </trkpt>
      <trkpt lat="45.27378" lon="6.06001">
        <ele>1356.1999511719</ele>
        <time>2026-08-21T09:27:54.000Z</time>
      </trkpt>
      <trkpt lat="45.27377" lon="6.06">
        <ele>1356.5999755859</ele>
        <time>2026-08-21T09:27:55.000Z</time>
      </trkpt>
      <trkpt lat="45.27376" lon="6.06">
        <ele>1357.1999511719</ele>
        <time>2026-08-21T09:27:56.000Z</time>
      </trkpt>
      <trkpt lat="45.27374" lon="6.05999">
        <ele>1357.5999755859</ele>
        <time>2026-08-21T09:27:57.000Z</time>
      </trkpt>
      <trkpt lat="45.27373" lon="6.05998">
        <ele>1358.1999511719</ele>
        <time>2026-08-21T09:27:58.000Z</time>
      </trkpt>
      <trkpt lat="45.27371" lon="6.05997">
        <ele>1358.8000488281</ele>
        <time>2026-08-21T09:27:59.000Z</time>
      </trkpt>
      <trkpt lat="45.2737" lon="6.05997">
        <ele>1359.1999511719</ele>
        <time>2026-08-21T09:28:00.000Z</time>
      </trkpt>
      <trkpt lat="45.27369" lon="6.05996">
        <ele>1359.8000488281</ele>
        <time>2026-08-21T09:28:01.000Z</time>
      </trkpt>
      <trkpt lat="45.27368" lon="6.05995">
        <ele>1359.8000488281</ele>
        <time>2026-08-21T09:28:02.000Z</time>
      </trkpt>
      <trkpt lat="45.27366" lon="6.05994">
        <ele>1360.4000244141</ele>
        <time>2026-08-21T09:28:03.000Z</time>
      </trkpt>
      <trkpt lat="45.27364" lon="6.05993">
        <ele>1360.5999755859</ele>
        <time>2026-08-21T09:28:04.000Z</time>
      </trkpt>
      <trkpt lat="45.27363" lon="6.05992">
        <ele>1361</ele>
        <time>2026-08-21T09:28:05.000Z</time>
      </trkpt>
      <trkpt lat="45.27362" lon="6.05991">
        <ele>1361.4000244141</ele>
        <time>2026-08-21T09:28:06.000Z</time>
      </trkpt>
      <trkpt lat="45.27361" lon="6.0599">
        <ele>1361.8000488281</ele>
        <time>2026-08-21T09:28:07.000Z</time>
      </trkpt>
      <trkpt lat="45.2736" lon="6.05988">
        <ele>1362.1999511719</ele>
        <time>2026-08-21T09:28:08.000Z</time>
      </trkpt>
      <trkpt lat="45.27358" lon="6.05986">
        <ele>1362.5999755859</ele>
        <time>2026-08-21T09:28:09.000Z</time>
      </trkpt>
      <trkpt lat="45.27357" lon="6.05985">
        <ele>1363</ele>
        <time>2026-08-21T09:28:10.000Z</time>
      </trkpt>
      <trkpt lat="45.27356" lon="6.05984">
        <ele>1363.4000244141</ele>
        <time>2026-08-21T09:28:11.000Z</time>
      </trkpt>
      <trkpt lat="45.27355" lon="6.05983">
        <ele>1363</ele>
        <time>2026-08-21T09:28:12.000Z</time>
      </trkpt>
      <trkpt lat="45.27354" lon="6.05982">
        <ele>1362.4000244141</ele>
        <time>2026-08-21T09:28:13.000Z</time>
      </trkpt>
      <trkpt lat="45.27352" lon="6.05981">
        <ele>1362.1999511719</ele>
        <time>2026-08-21T09:28:14.000Z</time>
      </trkpt>
      <trkpt lat="45.27351" lon="6.0598">
        <ele>1362</ele>
        <time>2026-08-21T09:28:15.000Z</time>
      </trkpt>
      <trkpt lat="45.2735" lon="6.05979">
        <ele>1361.4000244141</ele>
        <time>2026-08-21T09:28:16.000Z</time>
      </trkpt>
      <trkpt lat="45.27349" lon="6.05979">
        <ele>1360.8000488281</ele>
        <time>2026-08-21T09:28:17.000Z</time>
      </trkpt>
      <trkpt lat="45.27348" lon="6.05978">
        <ele>1360.5999755859</ele>
        <time>2026-08-21T09:28:18.000Z</time>
      </trkpt>
      <trkpt lat="45.27346" lon="6.05977">
        <ele>1360.1999511719</ele>
        <time>2026-08-21T09:28:19.000Z</time>
      </trkpt>
      <trkpt lat="45.27345" lon="6.05976">
        <ele>1360.4000244141</ele>
        <time>2026-08-21T09:28:20.000Z</time>
      </trkpt>
      <trkpt lat="45.27343" lon="6.05976">
        <ele>1360.5999755859</ele>
        <time>2026-08-21T09:28:21.000Z</time>
      </trkpt>
      <trkpt lat="45.27342" lon="6.05975">
        <ele>1361</ele>
        <time>2026-08-21T09:28:22.000Z</time>
      </trkpt>
      <trkpt lat="45.27341" lon="6.05974">
        <ele>1361.1999511719</ele>
        <time>2026-08-21T09:28:23.000Z</time>
      </trkpt>
      <trkpt lat="45.27339" lon="6.05973">
        <ele>1361.4000244141</ele>
        <time>2026-08-21T09:28:24.000Z</time>
      </trkpt>
      <trkpt lat="45.27338" lon="6.05973">
        <ele>1361.4000244141</ele>
        <time>2026-08-21T09:28:25.000Z</time>
      </trkpt>
      <trkpt lat="45.27337" lon="6.05972">
        <ele>1361.5999755859</ele>
        <time>2026-08-21T09:28:26.000Z</time>
      </trkpt>
      <trkpt lat="45.27335" lon="6.05972">
        <ele>1361.8000488281</ele>
        <time>2026-08-21T09:28:27.000Z</time>
      </trkpt>
      <trkpt lat="45.27334" lon="6.05972">
        <ele>1362.5999755859</ele>
        <time>2026-08-21T09:28:28.000Z</time>
      </trkpt>
      <trkpt lat="45.27333" lon="6.05971">
        <ele>1363</ele>
        <time>2026-08-21T09:28:29.000Z</time>
      </trkpt>
      <trkpt lat="45.27332" lon="6.0597">
        <ele>1363.1999511719</ele>
        <time>2026-08-21T09:28:30.000Z</time>
      </trkpt>
      <trkpt lat="45.27331" lon="6.05969">
        <ele>1364.1999511719</ele>
        <time>2026-08-21T09:28:31.000Z</time>
      </trkpt>
      <trkpt lat="45.27329" lon="6.05969">
        <ele>1364.8000488281</ele>
        <time>2026-08-21T09:28:32.000Z</time>
      </trkpt>
      <trkpt lat="45.27328" lon="6.05968">
        <ele>1365.4000244141</ele>
        <time>2026-08-21T09:28:33.000Z</time>
      </trkpt>
      <trkpt lat="45.27327" lon="6.05967">
        <ele>1366</ele>
        <time>2026-08-21T09:28:34.000Z</time>
      </trkpt>
      <trkpt lat="45.27326" lon="6.05966">
        <ele>1366.5999755859</ele>
        <time>2026-08-21T09:28:35.000Z</time>
      </trkpt>
      <trkpt lat="45.27324" lon="6.05966">
        <ele>1367.1999511719</ele>
        <time>2026-08-21T09:28:36.000Z</time>
      </trkpt>
      <trkpt lat="45.27323" lon="6.05966">
        <ele>1367.8000488281</ele>
        <time>2026-08-21T09:28:37.000Z</time>
      </trkpt>
      <trkpt lat="45.27322" lon="6.05965">
        <ele>1368.1999511719</ele>
        <time>2026-08-21T09:28:38.000Z</time>
      </trkpt>
      <trkpt lat="45.2732" lon="6.05965">
        <ele>1368.5999755859</ele>
        <time>2026-08-21T09:28:39.000Z</time>
      </trkpt>
      <trkpt lat="45.27319" lon="6.05964">
        <ele>1369</ele>
        <time>2026-08-21T09:28:40.000Z</time>
      </trkpt>
      <trkpt lat="45.27318" lon="6.05963">
        <ele>1371</ele>
        <time>2026-08-21T09:28:41.000Z</time>
      </trkpt>
      <trkpt lat="45.27317" lon="6.05962">
        <ele>1374.8000488281</ele>
        <time>2026-08-21T09:28:42.000Z</time>
      </trkpt>
      <trkpt lat="45.27316" lon="6.05961">
        <ele>1375.1999511719</ele>
        <time>2026-08-21T09:28:43.000Z</time>
      </trkpt>
      <trkpt lat="45.27315" lon="6.0596">
        <ele>1375.8000488281</ele>
        <time>2026-08-21T09:28:44.000Z</time>
      </trkpt>
      <trkpt lat="45.27313" lon="6.05959">
        <ele>1376.1999511719</ele>
        <time>2026-08-21T09:28:45.000Z</time>
      </trkpt>
      <trkpt lat="45.27312" lon="6.05958">
        <ele>1377.1999511719</ele>
        <time>2026-08-21T09:28:46.000Z</time>
      </trkpt>
      <trkpt lat="45.27311" lon="6.05957">
        <ele>1377.8000488281</ele>
        <time>2026-08-21T09:28:47.000Z</time>
      </trkpt>
      <trkpt lat="45.2731" lon="6.05956">
        <ele>1379</ele>
        <time>2026-08-21T09:28:48.000Z</time>
      </trkpt>
      <trkpt lat="45.27309" lon="6.05956">
        <ele>1379</ele>
        <time>2026-08-21T09:28:49.000Z</time>
      </trkpt>
      <trkpt lat="45.27308" lon="6.05955">
        <ele>1379.4000244141</ele>
        <time>2026-08-21T09:28:50.000Z</time>
      </trkpt>
      <trkpt lat="45.27307" lon="6.05954">
        <ele>1379.5999755859</ele>
        <time>2026-08-21T09:28:51.000Z</time>
      </trkpt>
      <trkpt lat="45.27305" lon="6.05953">
        <ele>1379.5999755859</ele>
        <time>2026-08-21T09:28:52.000Z</time>
      </trkpt>
      <trkpt lat="45.27305" lon="6.05953">
        <ele>1379.8000488281</ele>
        <time>2026-08-21T09:28:53.000Z</time>
      </trkpt>
      <trkpt lat="45.27303" lon="6.05952">
        <ele>1379.8000488281</ele>
        <time>2026-08-21T09:28:54.000Z</time>
      </trkpt>
      <trkpt lat="45.27302" lon="6.05951">
        <ele>1379.8000488281</ele>
        <time>2026-08-21T09:28:55.000Z</time>
      </trkpt>
      <trkpt lat="45.273" lon="6.05951">
        <ele>1379.5999755859</ele>
        <time>2026-08-21T09:28:56.000Z</time>
      </trkpt>
      <trkpt lat="45.27299" lon="6.0595">
        <ele>1379.5999755859</ele>
        <time>2026-08-21T09:28:57.000Z</time>
      </trkpt>
      <trkpt lat="45.27299" lon="6.05949">
        <ele>1379.4000244141</ele>
        <time>2026-08-21T09:28:58.000Z</time>
      </trkpt>
      <trkpt lat="45.27298" lon="6.05948">
        <ele>1379.4000244141</ele>
        <time>2026-08-21T09:28:59.000Z</time>
      </trkpt>
      <trkpt lat="45.27296" lon="6.05948">
        <ele>1379.1999511719</ele>
        <time>2026-08-21T09:29:00.000Z</time>
      </trkpt>
      <trkpt lat="45.27295" lon="6.05947">
        <ele>1379.1999511719</ele>
        <time>2026-08-21T09:29:01.000Z</time>
      </trkpt>
      <trkpt lat="45.27294" lon="6.05946">
        <ele>1378.8000488281</ele>
        <time>2026-08-21T09:29:02.000Z</time>
      </trkpt>
      <trkpt lat="45.27293" lon="6.05945">
        <ele>1378</ele>
        <time>2026-08-21T09:29:03.000Z</time>
      </trkpt>
      <trkpt lat="45.27292" lon="6.05944">
        <ele>1378</ele>
        <time>2026-08-21T09:29:04.000Z</time>
      </trkpt>
      <trkpt lat="45.2729" lon="6.05943">
        <ele>1377.8000488281</ele>
        <time>2026-08-21T09:29:05.000Z</time>
      </trkpt>
      <trkpt lat="45.2729" lon="6.05942">
        <ele>1376.8000488281</ele>
        <time>2026-08-21T09:29:06.000Z</time>
      </trkpt>
      <trkpt lat="45.27288" lon="6.05941">
        <ele>1376</ele>
        <time>2026-08-21T09:29:07.000Z</time>
      </trkpt>
      <trkpt lat="45.27287" lon="6.05941">
        <ele>1374.8000488281</ele>
        <time>2026-08-21T09:29:08.000Z</time>
      </trkpt>
      <trkpt lat="45.27286" lon="6.0594">
        <ele>1374.5999755859</ele>
        <time>2026-08-21T09:29:09.000Z</time>
      </trkpt>
      <trkpt lat="45.27284" lon="6.05938">
        <ele>1374.1999511719</ele>
        <time>2026-08-21T09:29:10.000Z</time>
      </trkpt>
      <trkpt lat="45.27283" lon="6.05937">
        <ele>1374</ele>
        <time>2026-08-21T09:29:11.000Z</time>
      </trkpt>
      <trkpt lat="45.27281" lon="6.05935">
        <ele>1373.8000488281</ele>
        <time>2026-08-21T09:29:12.000Z</time>
      </trkpt>
      <trkpt lat="45.2728" lon="6.05934">
        <ele>1373.8000488281</ele>
        <time>2026-08-21T09:29:13.000Z</time>
      </trkpt>
      <trkpt lat="45.27278" lon="6.05932">
        <ele>1374.5999755859</ele>
        <time>2026-08-21T09:29:14.000Z</time>
      </trkpt>
      <trkpt lat="45.27277" lon="6.05931">
        <ele>1375.4000244141</ele>
        <time>2026-08-21T09:29:15.000Z</time>
      </trkpt>
      <trkpt lat="45.27276" lon="6.0593">
        <ele>1376.4000244141</ele>
        <time>2026-08-21T09:29:16.000Z</time>
      </trkpt>
      <trkpt lat="45.27275" lon="6.05929">
        <ele>1377.1999511719</ele>
        <time>2026-08-21T09:29:17.000Z</time>
      </trkpt>
      <trkpt lat="45.27273" lon="6.05927">
        <ele>1378</ele>
        <time>2026-08-21T09:29:18.000Z</time>
      </trkpt>
      <trkpt lat="45.27272" lon="6.05926">
        <ele>1378.4000244141</ele>
        <time>2026-08-21T09:29:19.000Z</time>
      </trkpt>
      <trkpt lat="45.2727" lon="6.05925">
        <ele>1378.8000488281</ele>
        <time>2026-08-21T09:29:20.000Z</time>
      </trkpt>
      <trkpt lat="45.27269" lon="6.05923">
        <ele>1379.1999511719</ele>
        <time>2026-08-21T09:29:21.000Z</time>
      </trkpt>
      <trkpt lat="45.27268" lon="6.05922">
        <ele>1380</ele>
        <time>2026-08-21T09:29:22.000Z</time>
      </trkpt>
      <trkpt lat="45.27267" lon="6.0592">
        <ele>1380.4000244141</ele>
        <time>2026-08-21T09:29:23.000Z</time>
      </trkpt>
      <trkpt lat="45.27266" lon="6.05918">
        <ele>1380.5999755859</ele>
        <time>2026-08-21T09:29:24.000Z</time>
      </trkpt>
      <trkpt lat="45.27265" lon="6.05917">
        <ele>1381</ele>
        <time>2026-08-21T09:29:25.000Z</time>
      </trkpt>
      <trkpt lat="45.27265" lon="6.05916">
        <ele>1381.5999755859</ele>
        <time>2026-08-21T09:29:26.000Z</time>
      </trkpt>
      <trkpt lat="45.27264" lon="6.05914">
        <ele>1383.1999511719</ele>
        <time>2026-08-21T09:29:27.000Z</time>
      </trkpt>
      <trkpt lat="45.27263" lon="6.05913">
        <ele>1383.1999511719</ele>
        <time>2026-08-21T09:29:28.000Z</time>
      </trkpt>
      <trkpt lat="45.27262" lon="6.0591">
        <ele>1383.1999511719</ele>
        <time>2026-08-21T09:29:29.000Z</time>
      </trkpt>
      <trkpt lat="45.27261" lon="6.05908">
        <ele>1383.4000244141</ele>
        <time>2026-08-21T09:29:30.000Z</time>
      </trkpt>
      <trkpt lat="45.2726" lon="6.05906">
        <ele>1383.4000244141</ele>
        <time>2026-08-21T09:29:31.000Z</time>
      </trkpt>
      <trkpt lat="45.2726" lon="6.05905">
        <ele>1383.5999755859</ele>
        <time>2026-08-21T09:29:32.000Z</time>
      </trkpt>
      <trkpt lat="45.2726" lon="6.05904">
        <ele>1383.1999511719</ele>
        <time>2026-08-21T09:29:33.000Z</time>
      </trkpt>
      <trkpt lat="45.27259" lon="6.05902">
        <ele>1382.8000488281</ele>
        <time>2026-08-21T09:29:34.000Z</time>
      </trkpt>
      <trkpt lat="45.27258" lon="6.05901">
        <ele>1382.5999755859</ele>
        <time>2026-08-21T09:29:35.000Z</time>
      </trkpt>
      <trkpt lat="45.27258" lon="6.05899">
        <ele>1382.1999511719</ele>
        <time>2026-08-21T09:29:36.000Z</time>
      </trkpt>
      <trkpt lat="45.27257" lon="6.05898">
        <ele>1381</ele>
        <time>2026-08-21T09:29:37.000Z</time>
      </trkpt>
      <trkpt lat="45.27256" lon="6.05896">
        <ele>1380.4000244141</ele>
        <time>2026-08-21T09:29:38.000Z</time>
      </trkpt>
      <trkpt lat="45.27256" lon="6.05894">
        <ele>1379.8000488281</ele>
        <time>2026-08-21T09:29:39.000Z</time>
      </trkpt>
      <trkpt lat="45.27255" lon="6.05893">
        <ele>1379.8000488281</ele>
        <time>2026-08-21T09:29:40.000Z</time>
      </trkpt>
      <trkpt lat="45.27254" lon="6.05891">
        <ele>1380.5999755859</ele>
        <time>2026-08-21T09:29:41.000Z</time>
      </trkpt>
      <trkpt lat="45.27254" lon="6.05889">
        <ele>1381.4000244141</ele>
        <time>2026-08-21T09:29:42.000Z</time>
      </trkpt>
      <trkpt lat="45.27253" lon="6.05887">
        <ele>1382.1999511719</ele>
        <time>2026-08-21T09:29:43.000Z</time>
      </trkpt>
      <trkpt lat="45.27252" lon="6.05884">
        <ele>1383</ele>
        <time>2026-08-21T09:29:44.000Z</time>
      </trkpt>
      <trkpt lat="45.27252" lon="6.05881">
        <ele>1387</ele>
        <time>2026-08-21T09:29:45.000Z</time>
      </trkpt>
      <trkpt lat="45.27251" lon="6.05879">
        <ele>1387.8000488281</ele>
        <time>2026-08-21T09:29:46.000Z</time>
      </trkpt>
      <trkpt lat="45.2725" lon="6.05877">
        <ele>1388.1999511719</ele>
        <time>2026-08-21T09:29:47.000Z</time>
      </trkpt>
      <trkpt lat="45.27249" lon="6.05874">
        <ele>1388.5999755859</ele>
        <time>2026-08-21T09:29:48.000Z</time>
      </trkpt>
      <trkpt lat="45.27249" lon="6.05872">
        <ele>1388.4000244141</ele>
        <time>2026-08-21T09:29:49.000Z</time>
      </trkpt>
      <trkpt lat="45.27248" lon="6.0587">
        <ele>1388.5999755859</ele>
        <time>2026-08-21T09:29:50.000Z</time>
      </trkpt>
      <trkpt lat="45.27248" lon="6.05868">
        <ele>1389</ele>
        <time>2026-08-21T09:29:51.000Z</time>
      </trkpt>
      <trkpt lat="45.27247" lon="6.05867">
        <ele>1389</ele>
        <time>2026-08-21T09:29:52.000Z</time>
      </trkpt>
      <trkpt lat="45.27247" lon="6.05865">
        <ele>1389</ele>
        <time>2026-08-21T09:29:53.000Z</time>
      </trkpt>
      <trkpt lat="45.27246" lon="6.05863">
        <ele>1389.5999755859</ele>
        <time>2026-08-21T09:29:54.000Z</time>
      </trkpt>
      <trkpt lat="45.27245" lon="6.0586">
        <ele>1389.8000488281</ele>
        <time>2026-08-21T09:29:55.000Z</time>
      </trkpt>
      <trkpt lat="45.27245" lon="6.05858">
        <ele>1389.8000488281</ele>
        <time>2026-08-21T09:29:56.000Z</time>
      </trkpt>
      <trkpt lat="45.27245" lon="6.05856">
        <ele>1390.1999511719</ele>
        <time>2026-08-21T09:29:57.000Z</time>
      </trkpt>
      <trkpt lat="45.27244" lon="6.05855">
        <ele>1390.4000244141</ele>
        <time>2026-08-21T09:29:58.000Z</time>
      </trkpt>
      <trkpt lat="45.27244" lon="6.05853">
        <ele>1390.5999755859</ele>
        <time>2026-08-21T09:29:59.000Z</time>
      </trkpt>
      <trkpt lat="45.27243" lon="6.0585">
        <ele>1391</ele>
        <time>2026-08-21T09:30:00.000Z</time>
      </trkpt>
      <trkpt lat="45.27243" lon="6.05849">
        <ele>1391.1999511719</ele>
        <time>2026-08-21T09:30:01.000Z</time>
      </trkpt>
      <trkpt lat="45.27243" lon="6.05846">
        <ele>1391.5999755859</ele>
        <time>2026-08-21T09:30:02.000Z</time>
      </trkpt>
      <trkpt lat="45.27242" lon="6.05844">
        <ele>1391.5999755859</ele>
        <time>2026-08-21T09:30:03.000Z</time>
      </trkpt>
      <trkpt lat="45.27242" lon="6.05841">
        <ele>1391.5999755859</ele>
        <time>2026-08-21T09:30:04.000Z</time>
      </trkpt>
      <trkpt lat="45.27242" lon="6.05838">
        <ele>1391.8000488281</ele>
        <time>2026-08-21T09:30:05.000Z</time>
      </trkpt>
      <trkpt lat="45.27241" lon="6.05836">
        <ele>1392</ele>
        <time>2026-08-21T09:30:06.000Z</time>
      </trkpt>
      <trkpt lat="45.27241" lon="6.05833">
        <ele>1392.1999511719</ele>
        <time>2026-08-21T09:30:07.000Z</time>
      </trkpt>
      <trkpt lat="45.2724" lon="6.05831">
        <ele>1392.5999755859</ele>
        <time>2026-08-21T09:30:08.000Z</time>
      </trkpt>
      <trkpt lat="45.2724" lon="6.05829">
        <ele>1393.4000244141</ele>
        <time>2026-08-21T09:30:09.000Z</time>
      </trkpt>
      <trkpt lat="45.27239" lon="6.05828">
        <ele>1393.8000488281</ele>
        <time>2026-08-21T09:30:10.000Z</time>
      </trkpt>
      <trkpt lat="45.27239" lon="6.05826">
        <ele>1394</ele>
        <time>2026-08-21T09:30:11.000Z</time>
      </trkpt>
      <trkpt lat="45.27238" lon="6.05824">
        <ele>1394.5999755859</ele>
        <time>2026-08-21T09:30:12.000Z</time>
      </trkpt>
      <trkpt lat="45.27237" lon="6.05823">
        <ele>1395.1999511719</ele>
        <time>2026-08-21T09:30:13.000Z</time>
      </trkpt>
      <trkpt lat="45.27237" lon="6.05821">
        <ele>1395.1999511719</ele>
        <time>2026-08-21T09:30:14.000Z</time>
      </trkpt>
      <trkpt lat="45.27236" lon="6.05819">
        <ele>1395.5999755859</ele>
        <time>2026-08-21T09:30:15.000Z</time>
      </trkpt>
      <trkpt lat="45.27235" lon="6.05818">
        <ele>1396</ele>
        <time>2026-08-21T09:30:16.000Z</time>
      </trkpt>
      <trkpt lat="45.27234" lon="6.05817">
        <ele>1396.4000244141</ele>
        <time>2026-08-21T09:30:17.000Z</time>
      </trkpt>
      <trkpt lat="45.27232" lon="6.05816">
        <ele>1396.5999755859</ele>
        <time>2026-08-21T09:30:18.000Z</time>
      </trkpt>
      <trkpt lat="45.27231" lon="6.05815">
        <ele>1396.8000488281</ele>
        <time>2026-08-21T09:30:19.000Z</time>
      </trkpt>
      <trkpt lat="45.2723" lon="6.05814">
        <ele>1397</ele>
        <time>2026-08-21T09:30:20.000Z</time>
      </trkpt>
      <trkpt lat="45.27229" lon="6.05813">
        <ele>1397</ele>
        <time>2026-08-21T09:30:21.000Z</time>
      </trkpt>
      <trkpt lat="45.27228" lon="6.05812">
        <ele>1397.5999755859</ele>
        <time>2026-08-21T09:30:22.000Z</time>
      </trkpt>
      <trkpt lat="45.27227" lon="6.05811">
        <ele>1398.4000244141</ele>
        <time>2026-08-21T09:30:23.000Z</time>
      </trkpt>
      <trkpt lat="45.27226" lon="6.0581">
        <ele>1399.1999511719</ele>
        <time>2026-08-21T09:30:24.000Z</time>
      </trkpt>
      <trkpt lat="45.27225" lon="6.05809">
        <ele>1399.8000488281</ele>
        <time>2026-08-21T09:30:25.000Z</time>
      </trkpt>
      <trkpt lat="45.27225" lon="6.05808">
        <ele>1400.1999511719</ele>
        <time>2026-08-21T09:30:26.000Z</time>
      </trkpt>
      <trkpt lat="45.27224" lon="6.05808">
        <ele>1400.1999511719</ele>
        <time>2026-08-21T09:30:27.000Z</time>
      </trkpt>
      <trkpt lat="45.27223" lon="6.05807">
        <ele>1400.4000244141</ele>
        <time>2026-08-21T09:30:28.000Z</time>
      </trkpt>
      <trkpt lat="45.27222" lon="6.05806">
        <ele>1400.8000488281</ele>
        <time>2026-08-21T09:30:29.000Z</time>
      </trkpt>
      <trkpt lat="45.27221" lon="6.05805">
        <ele>1401</ele>
        <time>2026-08-21T09:30:30.000Z</time>
      </trkpt>
      <trkpt lat="45.2722" lon="6.05804">
        <ele>1401.4000244141</ele>
        <time>2026-08-21T09:30:31.000Z</time>
      </trkpt>
      <trkpt lat="45.27219" lon="6.05804">
        <ele>1401.5999755859</ele>
        <time>2026-08-21T09:30:32.000Z</time>
      </trkpt>
      <trkpt lat="45.27218" lon="6.05803">
        <ele>1401.8000488281</ele>
        <time>2026-08-21T09:30:33.000Z</time>
      </trkpt>
      <trkpt lat="45.27217" lon="6.05802">
        <ele>1401.8000488281</ele>
        <time>2026-08-21T09:30:34.000Z</time>
      </trkpt>
      <trkpt lat="45.27216" lon="6.05801">
        <ele>1402.1999511719</ele>
        <time>2026-08-21T09:30:35.000Z</time>
      </trkpt>
      <trkpt lat="45.27215" lon="6.05799">
        <ele>1402.5999755859</ele>
        <time>2026-08-21T09:30:36.000Z</time>
      </trkpt>
      <trkpt lat="45.27215" lon="6.05798">
        <ele>1402.8000488281</ele>
        <time>2026-08-21T09:30:37.000Z</time>
      </trkpt>
      <trkpt lat="45.27215" lon="6.05797">
        <ele>1402.8000488281</ele>
        <time>2026-08-21T09:30:38.000Z</time>
      </trkpt>
      <trkpt lat="45.27214" lon="6.05796">
        <ele>1403.1999511719</ele>
        <time>2026-08-21T09:30:39.000Z</time>
      </trkpt>
      <trkpt lat="45.27213" lon="6.05795">
        <ele>1403.4000244141</ele>
        <time>2026-08-21T09:30:40.000Z</time>
      </trkpt>
      <trkpt lat="45.27213" lon="6.05793">
        <ele>1403.4000244141</ele>
        <time>2026-08-21T09:30:41.000Z</time>
      </trkpt>
      <trkpt lat="45.27212" lon="6.05792">
        <ele>1403.4000244141</ele>
        <time>2026-08-21T09:30:42.000Z</time>
      </trkpt>
      <trkpt lat="45.27211" lon="6.05791">
        <ele>1403.4000244141</ele>
        <time>2026-08-21T09:30:43.000Z</time>
      </trkpt>
      <trkpt lat="45.2721" lon="6.05789">
        <ele>1403.4000244141</ele>
        <time>2026-08-21T09:30:44.000Z</time>
      </trkpt>
      <trkpt lat="45.2721" lon="6.05788">
        <ele>1403.1999511719</ele>
        <time>2026-08-21T09:30:45.000Z</time>
      </trkpt>
      <trkpt lat="45.27209" lon="6.05786">
        <ele>1403.1999511719</ele>
        <time>2026-08-21T09:30:46.000Z</time>
      </trkpt>
      <trkpt lat="45.27209" lon="6.05784">
        <ele>1403.1999511719</ele>
        <time>2026-08-21T09:30:47.000Z</time>
      </trkpt>
      <trkpt lat="45.27208" lon="6.05783">
        <ele>1403.1999511719</ele>
        <time>2026-08-21T09:30:48.000Z</time>
      </trkpt>
      <trkpt lat="45.27208" lon="6.05781">
        <ele>1403</ele>
        <time>2026-08-21T09:30:49.000Z</time>
      </trkpt>
      <trkpt lat="45.27208" lon="6.0578">
        <ele>1402.8000488281</ele>
        <time>2026-08-21T09:30:50.000Z</time>
      </trkpt>
      <trkpt lat="45.27208" lon="6.05779">
        <ele>1402.4000244141</ele>
        <time>2026-08-21T09:30:51.000Z</time>
      </trkpt>
      <trkpt lat="45.27208" lon="6.05777">
        <ele>1402.1999511719</ele>
        <time>2026-08-21T09:30:52.000Z</time>
      </trkpt>
      <trkpt lat="45.27208" lon="6.05775">
        <ele>1400.8000488281</ele>
        <time>2026-08-21T09:30:53.000Z</time>
      </trkpt>
      <trkpt lat="45.27207" lon="6.05774">
        <ele>1400.5999755859</ele>
        <time>2026-08-21T09:30:54.000Z</time>
      </trkpt>
      <trkpt lat="45.27207" lon="6.05773">
        <ele>1400.4000244141</ele>
        <time>2026-08-21T09:30:55.000Z</time>
      </trkpt>
      <trkpt lat="45.27206" lon="6.05772">
        <ele>1400.4000244141</ele>
        <time>2026-08-21T09:30:56.000Z</time>
      </trkpt>
      <trkpt lat="45.27205" lon="6.0577">
        <ele>1400</ele>
        <time>2026-08-21T09:30:57.000Z</time>
      </trkpt>
      <trkpt lat="45.27204" lon="6.05769">
        <ele>1399.5999755859</ele>
        <time>2026-08-21T09:30:58.000Z</time>
      </trkpt>
      <trkpt lat="45.27203" lon="6.05768">
        <ele>1399.4000244141</ele>
        <time>2026-08-21T09:30:59.000Z</time>
      </trkpt>
      <trkpt lat="45.27203" lon="6.05766">
        <ele>1399.1999511719</ele>
        <time>2026-08-21T09:31:00.000Z</time>
      </trkpt>
      <trkpt lat="45.27202" lon="6.05765">
        <ele>1399.1999511719</ele>
        <time>2026-08-21T09:31:01.000Z</time>
      </trkpt>
      <trkpt lat="45.27201" lon="6.05763">
        <ele>1399</ele>
        <time>2026-08-21T09:31:02.000Z</time>
      </trkpt>
      <trkpt lat="45.27201" lon="6.05762">
        <ele>1398.8000488281</ele>
        <time>2026-08-21T09:31:03.000Z</time>
      </trkpt>
      <trkpt lat="45.272" lon="6.0576">
        <ele>1399</ele>
        <time>2026-08-21T09:31:04.000Z</time>
      </trkpt>
      <trkpt lat="45.27199" lon="6.05759">
        <ele>1399</ele>
        <time>2026-08-21T09:31:05.000Z</time>
      </trkpt>
      <trkpt lat="45.27199" lon="6.05758">
        <ele>1399.1999511719</ele>
        <time>2026-08-21T09:31:06.000Z</time>
      </trkpt>
      <trkpt lat="45.27198" lon="6.05757">
        <ele>1399.4000244141</ele>
        <time>2026-08-21T09:31:07.000Z</time>
      </trkpt>
      <trkpt lat="45.27198" lon="6.05755">
        <ele>1399.4000244141</ele>
        <time>2026-08-21T09:31:08.000Z</time>
      </trkpt>
      <trkpt lat="45.27197" lon="6.05755">
        <ele>1399.5999755859</ele>
        <time>2026-08-21T09:31:09.000Z</time>
      </trkpt>
      <trkpt lat="45.27197" lon="6.05754">
        <ele>1400</ele>
        <time>2026-08-21T09:31:10.000Z</time>
      </trkpt>
      <trkpt lat="45.27196" lon="6.05754">
        <ele>1400.4000244141</ele>
        <time>2026-08-21T09:31:11.000Z</time>
      </trkpt>
      <trkpt lat="45.27195" lon="6.05753">
        <ele>1400.5999755859</ele>
        <time>2026-08-21T09:31:12.000Z</time>
      </trkpt>
      <trkpt lat="45.27194" lon="6.05752">
        <ele>1401.1999511719</ele>
        <time>2026-08-21T09:31:13.000Z</time>
      </trkpt>
      <trkpt lat="45.27193" lon="6.05751">
        <ele>1402</ele>
        <time>2026-08-21T09:31:14.000Z</time>
      </trkpt>
      <trkpt lat="45.27193" lon="6.0575">
        <ele>1402</ele>
        <time>2026-08-21T09:31:15.000Z</time>
      </trkpt>
      <trkpt lat="45.27192" lon="6.05749">
        <ele>1402.4000244141</ele>
        <time>2026-08-21T09:31:16.000Z</time>
      </trkpt>
      <trkpt lat="45.27191" lon="6.05748">
        <ele>1402.5999755859</ele>
        <time>2026-08-21T09:31:17.000Z</time>
      </trkpt>
      <trkpt lat="45.2719" lon="6.05747">
        <ele>1403</ele>
        <time>2026-08-21T09:31:18.000Z</time>
      </trkpt>
      <trkpt lat="45.27189" lon="6.05746">
        <ele>1403.5999755859</ele>
        <time>2026-08-21T09:31:19.000Z</time>
      </trkpt>
      <trkpt lat="45.27189" lon="6.05744">
        <ele>1404</ele>
        <time>2026-08-21T09:31:20.000Z</time>
      </trkpt>
      <trkpt lat="45.27188" lon="6.05743">
        <ele>1404.1999511719</ele>
        <time>2026-08-21T09:31:21.000Z</time>
      </trkpt>
      <trkpt lat="45.27188" lon="6.05742">
        <ele>1404.4000244141</ele>
        <time>2026-08-21T09:31:22.000Z</time>
      </trkpt>
      <trkpt lat="45.27188" lon="6.05741">
        <ele>1404.5999755859</ele>
        <time>2026-08-21T09:31:23.000Z</time>
      </trkpt>
      <trkpt lat="45.27187" lon="6.05739">
        <ele>1404.8000488281</ele>
        <time>2026-08-21T09:31:24.000Z</time>
      </trkpt>
      <trkpt lat="45.27186" lon="6.05738">
        <ele>1405</ele>
        <time>2026-08-21T09:31:25.000Z</time>
      </trkpt>
      <trkpt lat="45.27186" lon="6.05737">
        <ele>1405.4000244141</ele>
        <time>2026-08-21T09:31:26.000Z</time>
      </trkpt>
      <trkpt lat="45.27185" lon="6.05736">
        <ele>1405.5999755859</ele>
        <time>2026-08-21T09:31:27.000Z</time>
      </trkpt>
      <trkpt lat="45.27185" lon="6.05736">
        <ele>1406</ele>
        <time>2026-08-21T09:31:28.000Z</time>
      </trkpt>
      <trkpt lat="45.27184" lon="6.05735">
        <ele>1406.1999511719</ele>
        <time>2026-08-21T09:31:29.000Z</time>
      </trkpt>
      <trkpt lat="45.27183" lon="6.05734">
        <ele>1409</ele>
        <time>2026-08-21T09:31:30.000Z</time>
      </trkpt>
      <trkpt lat="45.27182" lon="6.05734">
        <ele>1409.1999511719</ele>
        <time>2026-08-21T09:31:31.000Z</time>
      </trkpt>
      <trkpt lat="45.27181" lon="6.05733">
        <ele>1409.1999511719</ele>
        <time>2026-08-21T09:31:32.000Z</time>
      </trkpt>
      <trkpt lat="45.27181" lon="6.05731">
        <ele>1409.4000244141</ele>
        <time>2026-08-21T09:31:33.000Z</time>
      </trkpt>
      <trkpt lat="45.2718" lon="6.0573">
        <ele>1409.5999755859</ele>
        <time>2026-08-21T09:31:34.000Z</time>
      </trkpt>
      <trkpt lat="45.2718" lon="6.05728">
        <ele>1410</ele>
        <time>2026-08-21T09:31:35.000Z</time>
      </trkpt>
      <trkpt lat="45.27179" lon="6.05726">
        <ele>1410.4000244141</ele>
        <time>2026-08-21T09:31:36.000Z</time>
      </trkpt>
      <trkpt lat="45.27178" lon="6.05725">
        <ele>1410.8000488281</ele>
        <time>2026-08-21T09:31:37.000Z</time>
      </trkpt>
      <trkpt lat="45.27177" lon="6.05723">
        <ele>1411.5999755859</ele>
        <time>2026-08-21T09:31:38.000Z</time>
      </trkpt>
      <trkpt lat="45.27177" lon="6.05721">
        <ele>1412.1999511719</ele>
        <time>2026-08-21T09:31:39.000Z</time>
      </trkpt>
      <trkpt lat="45.27176" lon="6.05719">
        <ele>1413.4000244141</ele>
        <time>2026-08-21T09:31:40.000Z</time>
      </trkpt>
      <trkpt lat="45.27176" lon="6.05717">
        <ele>1414</ele>
        <time>2026-08-21T09:31:41.000Z</time>
      </trkpt>
      <trkpt lat="45.27177" lon="6.05716">
        <ele>1415.5999755859</ele>
        <time>2026-08-21T09:31:42.000Z</time>
      </trkpt>
      <trkpt lat="45.27177" lon="6.05715">
        <ele>1416.1999511719</ele>
        <time>2026-08-21T09:31:43.000Z</time>
      </trkpt>
      <trkpt lat="45.27177" lon="6.05714">
        <ele>1417</ele>
        <time>2026-08-21T09:31:44.000Z</time>
      </trkpt>
      <trkpt lat="45.27177" lon="6.05713">
        <ele>1417.5999755859</ele>
        <time>2026-08-21T09:31:45.000Z</time>
      </trkpt>
      <trkpt lat="45.27178" lon="6.05712">
        <ele>1417.8000488281</ele>
        <time>2026-08-21T09:31:46.000Z</time>
      </trkpt>
      <trkpt lat="45.27178" lon="6.05712">
        <ele>1417</ele>
        <time>2026-08-21T09:31:47.000Z</time>
      </trkpt>
      <trkpt lat="45.27178" lon="6.0571">
        <ele>1416.4000244141</ele>
        <time>2026-08-21T09:31:48.000Z</time>
      </trkpt>
      <trkpt lat="45.27178" lon="6.05709">
        <ele>1416.1999511719</ele>
        <time>2026-08-21T09:31:49.000Z</time>
      </trkpt>
      <trkpt lat="45.27178" lon="6.05708">
        <ele>1416.1999511719</ele>
        <time>2026-08-21T09:31:50.000Z</time>
      </trkpt>
      <trkpt lat="45.27177" lon="6.05706">
        <ele>1416.1999511719</ele>
        <time>2026-08-21T09:31:51.000Z</time>
      </trkpt>
      <trkpt lat="45.27177" lon="6.05705">
        <ele>1416.4000244141</ele>
        <time>2026-08-21T09:31:52.000Z</time>
      </trkpt>
      <trkpt lat="45.27176" lon="6.05704">
        <ele>1416.5999755859</ele>
        <time>2026-08-21T09:31:53.000Z</time>
      </trkpt>
      <trkpt lat="45.27176" lon="6.05703">
        <ele>1417</ele>
        <time>2026-08-21T09:31:54.000Z</time>
      </trkpt>
      <trkpt lat="45.27176" lon="6.05702">
        <ele>1417.1999511719</ele>
        <time>2026-08-21T09:31:55.000Z</time>
      </trkpt>
      <trkpt lat="45.27176" lon="6.057">
        <ele>1417.1999511719</ele>
        <time>2026-08-21T09:31:56.000Z</time>
      </trkpt>
      <trkpt lat="45.27176" lon="6.05699">
        <ele>1417</ele>
        <time>2026-08-21T09:31:57.000Z</time>
      </trkpt>
      <trkpt lat="45.27176" lon="6.05697">
        <ele>1417.1999511719</ele>
        <time>2026-08-21T09:31:58.000Z</time>
      </trkpt>
      <trkpt lat="45.27176" lon="6.05696">
        <ele>1417.4000244141</ele>
        <time>2026-08-21T09:31:59.000Z</time>
      </trkpt>
      <trkpt lat="45.27176" lon="6.05695">
        <ele>1417.4000244141</ele>
        <time>2026-08-21T09:32:00.000Z</time>
      </trkpt>
      <trkpt lat="45.27175" lon="6.05693">
        <ele>1418.4000244141</ele>
        <time>2026-08-21T09:32:01.000Z</time>
      </trkpt>
      <trkpt lat="45.27175" lon="6.05692">
        <ele>1419</ele>
        <time>2026-08-21T09:32:02.000Z</time>
      </trkpt>
      <trkpt lat="45.27175" lon="6.0569">
        <ele>1419.1999511719</ele>
        <time>2026-08-21T09:32:03.000Z</time>
      </trkpt>
      <trkpt lat="45.27176" lon="6.05688">
        <ele>1419.5999755859</ele>
        <time>2026-08-21T09:32:04.000Z</time>
      </trkpt>
      <trkpt lat="45.27177" lon="6.05687">
        <ele>1419.8000488281</ele>
        <time>2026-08-21T09:32:05.000Z</time>
      </trkpt>
      <trkpt lat="45.27177" lon="6.05686">
        <ele>1420</ele>
        <time>2026-08-21T09:32:06.000Z</time>
      </trkpt>
      <trkpt lat="45.27178" lon="6.05686">
        <ele>1420.1999511719</ele>
        <time>2026-08-21T09:32:07.000Z</time>
      </trkpt>
      <trkpt lat="45.27179" lon="6.05685">
        <ele>1420.1999511719</ele>
        <time>2026-08-21T09:32:08.000Z</time>
      </trkpt>
      <trkpt lat="45.27181" lon="6.05684">
        <ele>1420.4000244141</ele>
        <time>2026-08-21T09:32:09.000Z</time>
      </trkpt>
      <trkpt lat="45.27182" lon="6.05683">
        <ele>1419.8000488281</ele>
        <time>2026-08-21T09:32:10.000Z</time>
      </trkpt>
      <trkpt lat="45.27183" lon="6.05682">
        <ele>1419.8000488281</ele>
        <time>2026-08-21T09:32:11.000Z</time>
      </trkpt>
      <trkpt lat="45.27184" lon="6.05681">
        <ele>1419.8000488281</ele>
        <time>2026-08-21T09:32:12.000Z</time>
      </trkpt>
      <trkpt lat="45.27185" lon="6.0568">
        <ele>1419.8000488281</ele>
        <time>2026-08-21T09:32:13.000Z</time>
      </trkpt>
      <trkpt lat="45.27186" lon="6.05679">
        <ele>1419.5999755859</ele>
        <time>2026-08-21T09:32:14.000Z</time>
      </trkpt>
      <trkpt lat="45.27187" lon="6.05678">
        <ele>1419.5999755859</ele>
        <time>2026-08-21T09:32:15.000Z</time>
      </trkpt>
      <trkpt lat="45.27187" lon="6.05677">
        <ele>1419.4000244141</ele>
        <time>2026-08-21T09:32:16.000Z</time>
      </trkpt>
      <trkpt lat="45.27186" lon="6.05676">
        <ele>1419.1999511719</ele>
        <time>2026-08-21T09:32:17.000Z</time>
      </trkpt>
      <trkpt lat="45.27186" lon="6.05676">
        <ele>1419.1999511719</ele>
        <time>2026-08-21T09:32:18.000Z</time>
      </trkpt>
      <trkpt lat="45.27185" lon="6.05675">
        <ele>1419.1999511719</ele>
        <time>2026-08-21T09:32:19.000Z</time>
      </trkpt>
      <trkpt lat="45.27184" lon="6.05673">
        <ele>1419.1999511719</ele>
        <time>2026-08-21T09:32:20.000Z</time>
      </trkpt>
      <trkpt lat="45.27184" lon="6.05672">
        <ele>1419.1999511719</ele>
        <time>2026-08-21T09:32:21.000Z</time>
      </trkpt>
      <trkpt lat="45.27183" lon="6.05671">
        <ele>1419.1999511719</ele>
        <time>2026-08-21T09:32:22.000Z</time>
      </trkpt>
      <trkpt lat="45.27182" lon="6.0567">
        <ele>1419.1999511719</ele>
        <time>2026-08-21T09:32:23.000Z</time>
      </trkpt>
      <trkpt lat="45.27181" lon="6.05668">
        <ele>1419.4000244141</ele>
        <time>2026-08-21T09:32:24.000Z</time>
      </trkpt>
      <trkpt lat="45.2718" lon="6.05666">
        <ele>1419.5999755859</ele>
        <time>2026-08-21T09:32:25.000Z</time>
      </trkpt>
      <trkpt lat="45.27178" lon="6.05665">
        <ele>1420</ele>
        <time>2026-08-21T09:32:26.000Z</time>
      </trkpt>
      <trkpt lat="45.27177" lon="6.05663">
        <ele>1420.1999511719</ele>
        <time>2026-08-21T09:32:27.000Z</time>
      </trkpt>
      <trkpt lat="45.27176" lon="6.05662">
        <ele>1420.4000244141</ele>
        <time>2026-08-21T09:32:28.000Z</time>
      </trkpt>
      <trkpt lat="45.27176" lon="6.05661">
        <ele>1421</ele>
        <time>2026-08-21T09:32:29.000Z</time>
      </trkpt>
      <trkpt lat="45.27175" lon="6.0566">
        <ele>1421.4000244141</ele>
        <time>2026-08-21T09:32:30.000Z</time>
      </trkpt>
      <trkpt lat="45.27175" lon="6.05658">
        <ele>1421.8000488281</ele>
        <time>2026-08-21T09:32:31.000Z</time>
      </trkpt>
      <trkpt lat="45.27174" lon="6.05656">
        <ele>1422.1999511719</ele>
        <time>2026-08-21T09:32:32.000Z</time>
      </trkpt>
      <trkpt lat="45.27173" lon="6.05655">
        <ele>1422.4000244141</ele>
        <time>2026-08-21T09:32:33.000Z</time>
      </trkpt>
      <trkpt lat="45.27173" lon="6.05654">
        <ele>1422.8000488281</ele>
        <time>2026-08-21T09:32:34.000Z</time>
      </trkpt>
      <trkpt lat="45.27172" lon="6.05652">
        <ele>1423</ele>
        <time>2026-08-21T09:32:35.000Z</time>
      </trkpt>
      <trkpt lat="45.27172" lon="6.05651">
        <ele>1423.4000244141</ele>
        <time>2026-08-21T09:32:36.000Z</time>
      </trkpt>
      <trkpt lat="45.27171" lon="6.0565">
        <ele>1423.4000244141</ele>
        <time>2026-08-21T09:32:37.000Z</time>
      </trkpt>
      <trkpt lat="45.27171" lon="6.05648">
        <ele>1423.4000244141</ele>
        <time>2026-08-21T09:32:38.000Z</time>
      </trkpt>
      <trkpt lat="45.27171" lon="6.05647">
        <ele>1423.4000244141</ele>
        <time>2026-08-21T09:32:39.000Z</time>
      </trkpt>
      <trkpt lat="45.2717" lon="6.05646">
        <ele>1423.5999755859</ele>
        <time>2026-08-21T09:32:40.000Z</time>
      </trkpt>
      <trkpt lat="45.2717" lon="6.05645">
        <ele>1423.8000488281</ele>
        <time>2026-08-21T09:32:41.000Z</time>
      </trkpt>
      <trkpt lat="45.2717" lon="6.05644">
        <ele>1424</ele>
        <time>2026-08-21T09:32:42.000Z</time>
      </trkpt>
      <trkpt lat="45.27169" lon="6.05642">
        <ele>1424</ele>
        <time>2026-08-21T09:32:43.000Z</time>
      </trkpt>
      <trkpt lat="45.27168" lon="6.0564">
        <ele>1424.1999511719</ele>
        <time>2026-08-21T09:32:44.000Z</time>
      </trkpt>
      <trkpt lat="45.27167" lon="6.05639">
        <ele>1425.1999511719</ele>
        <time>2026-08-21T09:32:45.000Z</time>
      </trkpt>
      <trkpt lat="45.27167" lon="6.05637">
        <ele>1425.5999755859</ele>
        <time>2026-08-21T09:32:46.000Z</time>
      </trkpt>
      <trkpt lat="45.27166" lon="6.05636">
        <ele>1425.8000488281</ele>
        <time>2026-08-21T09:32:47.000Z</time>
      </trkpt>
      <trkpt lat="45.27165" lon="6.05635">
        <ele>1426.1999511719</ele>
        <time>2026-08-21T09:32:48.000Z</time>
      </trkpt>
      <trkpt lat="45.27164" lon="6.05635">
        <ele>1426.1999511719</ele>
        <time>2026-08-21T09:32:49.000Z</time>
      </trkpt>
      <trkpt lat="45.27163" lon="6.05634">
        <ele>1426.5999755859</ele>
        <time>2026-08-21T09:32:50.000Z</time>
      </trkpt>
      <trkpt lat="45.27162" lon="6.05632">
        <ele>1426.8000488281</ele>
        <time>2026-08-21T09:32:51.000Z</time>
      </trkpt>
      <trkpt lat="45.27161" lon="6.05631">
        <ele>1427</ele>
        <time>2026-08-21T09:32:52.000Z</time>
      </trkpt>
      <trkpt lat="45.2716" lon="6.0563">
        <ele>1427.1999511719</ele>
        <time>2026-08-21T09:32:53.000Z</time>
      </trkpt>
      <trkpt lat="45.27159" lon="6.05628">
        <ele>1427.1999511719</ele>
        <time>2026-08-21T09:32:54.000Z</time>
      </trkpt>
      <trkpt lat="45.27158" lon="6.05627">
        <ele>1427.4000244141</ele>
        <time>2026-08-21T09:32:55.000Z</time>
      </trkpt>
      <trkpt lat="45.27157" lon="6.05625">
        <ele>1427.5999755859</ele>
        <time>2026-08-21T09:32:56.000Z</time>
      </trkpt>
      <trkpt lat="45.27156" lon="6.05624">
        <ele>1428</ele>
        <time>2026-08-21T09:32:57.000Z</time>
      </trkpt>
      <trkpt lat="45.27156" lon="6.05622">
        <ele>1428.4000244141</ele>
        <time>2026-08-21T09:32:58.000Z</time>
      </trkpt>
      <trkpt lat="45.27155" lon="6.05621">
        <ele>1429.4000244141</ele>
        <time>2026-08-21T09:32:59.000Z</time>
      </trkpt>
      <trkpt lat="45.27156" lon="6.05619">
        <ele>1430</ele>
        <time>2026-08-21T09:33:00.000Z</time>
      </trkpt>
      <trkpt lat="45.27156" lon="6.05618">
        <ele>1430.4000244141</ele>
        <time>2026-08-21T09:33:01.000Z</time>
      </trkpt>
      <trkpt lat="45.27157" lon="6.05616">
        <ele>1430.8000488281</ele>
        <time>2026-08-21T09:33:02.000Z</time>
      </trkpt>
      <trkpt lat="45.27158" lon="6.05613">
        <ele>1431</ele>
        <time>2026-08-21T09:33:03.000Z</time>
      </trkpt>
      <trkpt lat="45.27159" lon="6.05612">
        <ele>1432</ele>
        <time>2026-08-21T09:33:04.000Z</time>
      </trkpt>
      <trkpt lat="45.2716" lon="6.05611">
        <ele>1433</ele>
        <time>2026-08-21T09:33:05.000Z</time>
      </trkpt>
      <trkpt lat="45.27161" lon="6.0561">
        <ele>1433.1999511719</ele>
        <time>2026-08-21T09:33:06.000Z</time>
      </trkpt>
      <trkpt lat="45.27162" lon="6.05609">
        <ele>1434</ele>
        <time>2026-08-21T09:33:07.000Z</time>
      </trkpt>
      <trkpt lat="45.27162" lon="6.05608">
        <ele>1434.5999755859</ele>
        <time>2026-08-21T09:33:08.000Z</time>
      </trkpt>
      <trkpt lat="45.27162" lon="6.05607">
        <ele>1435.1999511719</ele>
        <time>2026-08-21T09:33:09.000Z</time>
      </trkpt>
      <trkpt lat="45.27162" lon="6.05607">
        <ele>1435.4000244141</ele>
        <time>2026-08-21T09:33:10.000Z</time>
      </trkpt>
      <trkpt lat="45.27161" lon="6.05606">
        <ele>1435.8000488281</ele>
        <time>2026-08-21T09:33:11.000Z</time>
      </trkpt>
      <trkpt lat="45.27161" lon="6.05605">
        <ele>1436</ele>
        <time>2026-08-21T09:33:12.000Z</time>
      </trkpt>
      <trkpt lat="45.2716" lon="6.05605">
        <ele>1436.4000244141</ele>
        <time>2026-08-21T09:33:13.000Z</time>
      </trkpt>
      <trkpt lat="45.27159" lon="6.05605">
        <ele>1436.5999755859</ele>
        <time>2026-08-21T09:33:14.000Z</time>
      </trkpt>
      <trkpt lat="45.27158" lon="6.05604">
        <ele>1437</ele>
        <time>2026-08-21T09:33:15.000Z</time>
      </trkpt>
      <trkpt lat="45.27158" lon="6.05604">
        <ele>1437</ele>
        <time>2026-08-21T09:33:16.000Z</time>
      </trkpt>
      <trkpt lat="45.27157" lon="6.05602">
        <ele>1437.1999511719</ele>
        <time>2026-08-21T09:33:17.000Z</time>
      </trkpt>
      <trkpt lat="45.27156" lon="6.05602">
        <ele>1437.1999511719</ele>
        <time>2026-08-21T09:33:18.000Z</time>
      </trkpt>
      <trkpt lat="45.27156" lon="6.05601">
        <ele>1437.5999755859</ele>
        <time>2026-08-21T09:33:19.000Z</time>
      </trkpt>
      <trkpt lat="45.27155" lon="6.056">
        <ele>1438</ele>
        <time>2026-08-21T09:33:20.000Z</time>
      </trkpt>
      <trkpt lat="45.27154" lon="6.05599">
        <ele>1438.5999755859</ele>
        <time>2026-08-21T09:33:21.000Z</time>
      </trkpt>
      <trkpt lat="45.27153" lon="6.05598">
        <ele>1439.4000244141</ele>
        <time>2026-08-21T09:33:22.000Z</time>
      </trkpt>
      <trkpt lat="45.27152" lon="6.05596">
        <ele>1439.5999755859</ele>
        <time>2026-08-21T09:33:23.000Z</time>
      </trkpt>
      <trkpt lat="45.27152" lon="6.05595">
        <ele>1440.4000244141</ele>
        <time>2026-08-21T09:33:24.000Z</time>
      </trkpt>
      <trkpt lat="45.27151" lon="6.05594">
        <ele>1440.5999755859</ele>
        <time>2026-08-21T09:33:25.000Z</time>
      </trkpt>
      <trkpt lat="45.2715" lon="6.05593">
        <ele>1440.1999511719</ele>
        <time>2026-08-21T09:33:26.000Z</time>
      </trkpt>
      <trkpt lat="45.27149" lon="6.05593">
        <ele>1439.8000488281</ele>
        <time>2026-08-21T09:33:27.000Z</time>
      </trkpt>
      <trkpt lat="45.27149" lon="6.05592">
        <ele>1439.5999755859</ele>
        <time>2026-08-21T09:33:28.000Z</time>
      </trkpt>
      <trkpt lat="45.27148" lon="6.05592">
        <ele>1439.1999511719</ele>
        <time>2026-08-21T09:33:29.000Z</time>
      </trkpt>
      <trkpt lat="45.27147" lon="6.05592">
        <ele>1438.8000488281</ele>
        <time>2026-08-21T09:33:30.000Z</time>
      </trkpt>
      <trkpt lat="45.27146" lon="6.05591">
        <ele>1438.1999511719</ele>
        <time>2026-08-21T09:33:31.000Z</time>
      </trkpt>
      <trkpt lat="45.27146" lon="6.05591">
        <ele>1437.8000488281</ele>
        <time>2026-08-21T09:33:32.000Z</time>
      </trkpt>
      <trkpt lat="45.27145" lon="6.05591">
        <ele>1437.5999755859</ele>
        <time>2026-08-21T09:33:33.000Z</time>
      </trkpt>
      <trkpt lat="45.27145" lon="6.0559">
        <ele>1437.5999755859</ele>
        <time>2026-08-21T09:33:34.000Z</time>
      </trkpt>
      <trkpt lat="45.27144" lon="6.0559">
        <ele>1437.4000244141</ele>
        <time>2026-08-21T09:33:35.000Z</time>
      </trkpt>
      <trkpt lat="45.27143" lon="6.0559">
        <ele>1437.1999511719</ele>
        <time>2026-08-21T09:33:36.000Z</time>
      </trkpt>
      <trkpt lat="45.27142" lon="6.05589">
        <ele>1437.5999755859</ele>
        <time>2026-08-21T09:33:37.000Z</time>
      </trkpt>
      <trkpt lat="45.27141" lon="6.05589">
        <ele>1437.8000488281</ele>
        <time>2026-08-21T09:33:38.000Z</time>
      </trkpt>
      <trkpt lat="45.2714" lon="6.05589">
        <ele>1438.1999511719</ele>
        <time>2026-08-21T09:33:39.000Z</time>
      </trkpt>
      <trkpt lat="45.27139" lon="6.05589">
        <ele>1438.5999755859</ele>
        <time>2026-08-21T09:33:40.000Z</time>
      </trkpt>
      <trkpt lat="45.27138" lon="6.05589">
        <ele>1439</ele>
        <time>2026-08-21T09:33:41.000Z</time>
      </trkpt>
      <trkpt lat="45.27137" lon="6.05589">
        <ele>1439.1999511719</ele>
        <time>2026-08-21T09:33:42.000Z</time>
      </trkpt>
      <trkpt lat="45.27137" lon="6.05589">
        <ele>1439.5999755859</ele>
        <time>2026-08-21T09:33:43.000Z</time>
      </trkpt>
      <trkpt lat="45.27136" lon="6.0559">
        <ele>1440.4000244141</ele>
        <time>2026-08-21T09:33:44.000Z</time>
      </trkpt>
      <trkpt lat="45.27135" lon="6.0559">
        <ele>1440.4000244141</ele>
        <time>2026-08-21T09:33:45.000Z</time>
      </trkpt>
      <trkpt lat="45.27134" lon="6.0559">
        <ele>1440.5999755859</ele>
        <time>2026-08-21T09:33:46.000Z</time>
      </trkpt>
      <trkpt lat="45.27133" lon="6.0559">
        <ele>1440.5999755859</ele>
        <time>2026-08-21T09:33:47.000Z</time>
      </trkpt>
      <trkpt lat="45.27132" lon="6.0559">
        <ele>1440.5999755859</ele>
        <time>2026-08-21T09:33:48.000Z</time>
      </trkpt>
      <trkpt lat="45.27131" lon="6.05589">
        <ele>1441</ele>
        <time>2026-08-21T09:33:49.000Z</time>
      </trkpt>
      <trkpt lat="45.2713" lon="6.05589">
        <ele>1441.5999755859</ele>
        <time>2026-08-21T09:33:50.000Z</time>
      </trkpt>
      <trkpt lat="45.2713" lon="6.05589">
        <ele>1442.4000244141</ele>
        <time>2026-08-21T09:33:51.000Z</time>
      </trkpt>
      <trkpt lat="45.27128" lon="6.05588">
        <ele>1443</ele>
        <time>2026-08-21T09:33:52.000Z</time>
      </trkpt>
      <trkpt lat="45.27127" lon="6.05587">
        <ele>1443.8000488281</ele>
        <time>2026-08-21T09:33:53.000Z</time>
      </trkpt>
      <trkpt lat="45.27127" lon="6.05587">
        <ele>1444.4000244141</ele>
        <time>2026-08-21T09:33:54.000Z</time>
      </trkpt>
      <trkpt lat="45.27126" lon="6.05586">
        <ele>1445.1999511719</ele>
        <time>2026-08-21T09:33:55.000Z</time>
      </trkpt>
      <trkpt lat="45.27125" lon="6.05585">
        <ele>1445.8000488281</ele>
        <time>2026-08-21T09:33:56.000Z</time>
      </trkpt>
      <trkpt lat="45.27124" lon="6.05585">
        <ele>1446.5999755859</ele>
        <time>2026-08-21T09:33:57.000Z</time>
      </trkpt>
      <trkpt lat="45.27123" lon="6.05583">
        <ele>1447.1999511719</ele>
        <time>2026-08-21T09:33:58.000Z</time>
      </trkpt>
      <trkpt lat="45.27123" lon="6.05581">
        <ele>1448</ele>
        <time>2026-08-21T09:33:59.000Z</time>
      </trkpt>
      <trkpt lat="45.27123" lon="6.0558">
        <ele>1448.5999755859</ele>
        <time>2026-08-21T09:34:00.000Z</time>
      </trkpt>
      <trkpt lat="45.27124" lon="6.05579">
        <ele>1449.4000244141</ele>
        <time>2026-08-21T09:34:01.000Z</time>
      </trkpt>
      <trkpt lat="45.27125" lon="6.05578">
        <ele>1450.1999511719</ele>
        <time>2026-08-21T09:34:02.000Z</time>
      </trkpt>
      <trkpt lat="45.27126" lon="6.05577">
        <ele>1450.5999755859</ele>
        <time>2026-08-21T09:34:03.000Z</time>
      </trkpt>
      <trkpt lat="45.27127" lon="6.05576">
        <ele>1451.5999755859</ele>
        <time>2026-08-21T09:34:04.000Z</time>
      </trkpt>
      <trkpt lat="45.27128" lon="6.05575">
        <ele>1452.5999755859</ele>
        <time>2026-08-21T09:34:05.000Z</time>
      </trkpt>
      <trkpt lat="45.27129" lon="6.05574">
        <ele>1453.5999755859</ele>
        <time>2026-08-21T09:34:06.000Z</time>
      </trkpt>
      <trkpt lat="45.2713" lon="6.05573">
        <ele>1454</ele>
        <time>2026-08-21T09:34:07.000Z</time>
      </trkpt>
      <trkpt lat="45.2713" lon="6.05572">
        <ele>1455.1999511719</ele>
        <time>2026-08-21T09:34:08.000Z</time>
      </trkpt>
      <trkpt lat="45.27131" lon="6.05571">
        <ele>1455.4000244141</ele>
        <time>2026-08-21T09:34:09.000Z</time>
      </trkpt>
      <trkpt lat="45.27132" lon="6.0557">
        <ele>1455.5999755859</ele>
        <time>2026-08-21T09:34:10.000Z</time>
      </trkpt>
      <trkpt lat="45.27133" lon="6.05569">
        <ele>1456</ele>
        <time>2026-08-21T09:34:11.000Z</time>
      </trkpt>
      <trkpt lat="45.27134" lon="6.05568">
        <ele>1456</ele>
        <time>2026-08-21T09:34:12.000Z</time>
      </trkpt>
      <trkpt lat="45.27135" lon="6.05567">
        <ele>1456.5999755859</ele>
        <time>2026-08-21T09:34:13.000Z</time>
      </trkpt>
      <trkpt lat="45.27135" lon="6.05566">
        <ele>1456.5999755859</ele>
        <time>2026-08-21T09:34:14.000Z</time>
      </trkpt>
      <trkpt lat="45.27136" lon="6.05566">
        <ele>1456.8000488281</ele>
        <time>2026-08-21T09:34:15.000Z</time>
      </trkpt>
      <trkpt lat="45.27137" lon="6.05566">
        <ele>1456.8000488281</ele>
        <time>2026-08-21T09:34:16.000Z</time>
      </trkpt>
      <trkpt lat="45.27138" lon="6.05566">
        <ele>1457</ele>
        <time>2026-08-21T09:34:17.000Z</time>
      </trkpt>
      <trkpt lat="45.27138" lon="6.05565">
        <ele>1457.1999511719</ele>
        <time>2026-08-21T09:34:18.000Z</time>
      </trkpt>
      <trkpt lat="45.27139" lon="6.05564">
        <ele>1457.8000488281</ele>
        <time>2026-08-21T09:34:19.000Z</time>
      </trkpt>
      <trkpt lat="45.2714" lon="6.05564">
        <ele>1458</ele>
        <time>2026-08-21T09:34:20.000Z</time>
      </trkpt>
      <trkpt lat="45.27141" lon="6.05564">
        <ele>1458.1999511719</ele>
        <time>2026-08-21T09:34:21.000Z</time>
      </trkpt>
      <trkpt lat="45.27141" lon="6.05563">
        <ele>1458.4000244141</ele>
        <time>2026-08-21T09:34:22.000Z</time>
      </trkpt>
      <trkpt lat="45.27142" lon="6.05563">
        <ele>1458.8000488281</ele>
        <time>2026-08-21T09:34:23.000Z</time>
      </trkpt>
      <trkpt lat="45.27143" lon="6.05562">
        <ele>1459</ele>
        <time>2026-08-21T09:34:24.000Z</time>
      </trkpt>
      <trkpt lat="45.27143" lon="6.05562">
        <ele>1459.1999511719</ele>
        <time>2026-08-21T09:34:25.000Z</time>
      </trkpt>
      <trkpt lat="45.27144" lon="6.05561">
        <ele>1459.4000244141</ele>
        <time>2026-08-21T09:34:26.000Z</time>
      </trkpt>
      <trkpt lat="45.27144" lon="6.0556">
        <ele>1459.5999755859</ele>
        <time>2026-08-21T09:34:27.000Z</time>
      </trkpt>
      <trkpt lat="45.27145" lon="6.0556">
        <ele>1458.4000244141</ele>
        <time>2026-08-21T09:34:28.000Z</time>
      </trkpt>
      <trkpt lat="45.27145" lon="6.0556">
        <ele>1457.8000488281</ele>
        <time>2026-08-21T09:34:29.000Z</time>
      </trkpt>
      <trkpt lat="45.27145" lon="6.05559">
        <ele>1457</ele>
        <time>2026-08-21T09:34:30.000Z</time>
      </trkpt>
      <trkpt lat="45.27144" lon="6.05558">
        <ele>1456.8000488281</ele>
        <time>2026-08-21T09:34:31.000Z</time>
      </trkpt>
      <trkpt lat="45.27142" lon="6.05557">
        <ele>1456.1999511719</ele>
        <time>2026-08-21T09:34:32.000Z</time>
      </trkpt>
      <trkpt lat="45.2714" lon="6.05557">
        <ele>1455.8000488281</ele>
        <time>2026-08-21T09:34:33.000Z</time>
      </trkpt>
      <trkpt lat="45.27138" lon="6.05557">
        <ele>1455.8000488281</ele>
        <time>2026-08-21T09:34:34.000Z</time>
      </trkpt>
      <trkpt lat="45.27136" lon="6.05557">
        <ele>1456</ele>
        <time>2026-08-21T09:34:35.000Z</time>
      </trkpt>
      <trkpt lat="45.27134" lon="6.05558">
        <ele>1456.1999511719</ele>
        <time>2026-08-21T09:34:36.000Z</time>
      </trkpt>
      <trkpt lat="45.27132" lon="6.05558">
        <ele>1456.4000244141</ele>
        <time>2026-08-21T09:34:37.000Z</time>
      </trkpt>
      <trkpt lat="45.2713" lon="6.05557">
        <ele>1456.8000488281</ele>
        <time>2026-08-21T09:34:38.000Z</time>
      </trkpt>
      <trkpt lat="45.27128" lon="6.05557">
        <ele>1458.4000244141</ele>
        <time>2026-08-21T09:34:39.000Z</time>
      </trkpt>
      <trkpt lat="45.27126" lon="6.05556">
        <ele>1459.5999755859</ele>
        <time>2026-08-21T09:34:40.000Z</time>
      </trkpt>
      <trkpt lat="45.27124" lon="6.05554">
        <ele>1460.1999511719</ele>
        <time>2026-08-21T09:34:41.000Z</time>
      </trkpt>
      <trkpt lat="45.27123" lon="6.05551">
        <ele>1460.5999755859</ele>
        <time>2026-08-21T09:34:42.000Z</time>
      </trkpt>
      <trkpt lat="45.27122" lon="6.05549">
        <ele>1461.5999755859</ele>
        <time>2026-08-21T09:34:43.000Z</time>
      </trkpt>
      <trkpt lat="45.2712" lon="6.05549">
        <ele>1462</ele>
        <time>2026-08-21T09:34:44.000Z</time>
      </trkpt>
      <trkpt lat="45.27118" lon="6.05548">
        <ele>1462.1999511719</ele>
        <time>2026-08-21T09:34:45.000Z</time>
      </trkpt>
      <trkpt lat="45.27116" lon="6.05547">
        <ele>1462.1999511719</ele>
        <time>2026-08-21T09:34:46.000Z</time>
      </trkpt>
      <trkpt lat="45.27113" lon="6.05546">
        <ele>1462.4000244141</ele>
        <time>2026-08-21T09:34:47.000Z</time>
      </trkpt>
      <trkpt lat="45.27111" lon="6.05545">
        <ele>1462.4000244141</ele>
        <time>2026-08-21T09:34:48.000Z</time>
      </trkpt>
      <trkpt lat="45.27109" lon="6.05543">
        <ele>1462.4000244141</ele>
        <time>2026-08-21T09:34:49.000Z</time>
      </trkpt>
      <trkpt lat="45.27107" lon="6.05542">
        <ele>1461</ele>
        <time>2026-08-21T09:34:50.000Z</time>
      </trkpt>
      <trkpt lat="45.27105" lon="6.05541">
        <ele>1460.8000488281</ele>
        <time>2026-08-21T09:34:51.000Z</time>
      </trkpt>
      <trkpt lat="45.27102" lon="6.0554">
        <ele>1460.5999755859</ele>
        <time>2026-08-21T09:34:52.000Z</time>
      </trkpt>
      <trkpt lat="45.271" lon="6.05539">
        <ele>1460.5999755859</ele>
        <time>2026-08-21T09:34:53.000Z</time>
      </trkpt>
      <trkpt lat="45.27098" lon="6.05538">
        <ele>1460.4000244141</ele>
        <time>2026-08-21T09:34:54.000Z</time>
      </trkpt>
      <trkpt lat="45.27095" lon="6.05537">
        <ele>1460.4000244141</ele>
        <time>2026-08-21T09:34:55.000Z</time>
      </trkpt>
      <trkpt lat="45.27093" lon="6.05536">
        <ele>1460.1999511719</ele>
        <time>2026-08-21T09:34:56.000Z</time>
      </trkpt>
      <trkpt lat="45.27091" lon="6.05536">
        <ele>1459.5999755859</ele>
        <time>2026-08-21T09:34:57.000Z</time>
      </trkpt>
      <trkpt lat="45.27088" lon="6.05534">
        <ele>1459.8000488281</ele>
        <time>2026-08-21T09:34:58.000Z</time>
      </trkpt>
      <trkpt lat="45.27086" lon="6.05533">
        <ele>1460</ele>
        <time>2026-08-21T09:34:59.000Z</time>
      </trkpt>
      <trkpt lat="45.27084" lon="6.05532">
        <ele>1460.1999511719</ele>
        <time>2026-08-21T09:35:00.000Z</time>
      </trkpt>
      <trkpt lat="45.27081" lon="6.05531">
        <ele>1460.4000244141</ele>
        <time>2026-08-21T09:35:01.000Z</time>
      </trkpt>
      <trkpt lat="45.27079" lon="6.0553">
        <ele>1460.5999755859</ele>
        <time>2026-08-21T09:35:02.000Z</time>
      </trkpt>
      <trkpt lat="45.27077" lon="6.05528">
        <ele>1461</ele>
        <time>2026-08-21T09:35:03.000Z</time>
      </trkpt>
      <trkpt lat="45.27075" lon="6.05527">
        <ele>1461.1999511719</ele>
        <time>2026-08-21T09:35:04.000Z</time>
      </trkpt>
      <trkpt lat="45.27072" lon="6.05526">
        <ele>1461.5999755859</ele>
        <time>2026-08-21T09:35:05.000Z</time>
      </trkpt>
      <trkpt lat="45.27069" lon="6.05525">
        <ele>1461.8000488281</ele>
        <time>2026-08-21T09:35:06.000Z</time>
      </trkpt>
      <trkpt lat="45.27067" lon="6.05524">
        <ele>1462.4000244141</ele>
        <time>2026-08-21T09:35:07.000Z</time>
      </trkpt>
      <trkpt lat="45.27065" lon="6.05523">
        <ele>1462.8000488281</ele>
        <time>2026-08-21T09:35:08.000Z</time>
      </trkpt>
      <trkpt lat="45.27062" lon="6.05522">
        <ele>1464.1999511719</ele>
        <time>2026-08-21T09:35:09.000Z</time>
      </trkpt>
      <trkpt lat="45.2706" lon="6.05521">
        <ele>1464.1999511719</ele>
        <time>2026-08-21T09:35:10.000Z</time>
      </trkpt>
      <trkpt lat="45.27057" lon="6.0552">
        <ele>1464.4000244141</ele>
        <time>2026-08-21T09:35:11.000Z</time>
      </trkpt>
      <trkpt lat="45.27055" lon="6.05519">
        <ele>1464.4000244141</ele>
        <time>2026-08-21T09:35:12.000Z</time>
      </trkpt>
      <trkpt lat="45.27053" lon="6.05518">
        <ele>1464.5999755859</ele>
        <time>2026-08-21T09:35:13.000Z</time>
      </trkpt>
      <trkpt lat="45.2705" lon="6.05517">
        <ele>1464.8000488281</ele>
        <time>2026-08-21T09:35:14.000Z</time>
      </trkpt>
      <trkpt lat="45.27048" lon="6.05516">
        <ele>1465</ele>
        <time>2026-08-21T09:35:15.000Z</time>
      </trkpt>
      <trkpt lat="45.27045" lon="6.05515">
        <ele>1465.1999511719</ele>
        <time>2026-08-21T09:35:16.000Z</time>
      </trkpt>
      <trkpt lat="45.27042" lon="6.05514">
        <ele>1465.1999511719</ele>
        <time>2026-08-21T09:35:17.000Z</time>
      </trkpt>
      <trkpt lat="45.2704" lon="6.05512">
        <ele>1465</ele>
        <time>2026-08-21T09:35:18.000Z</time>
      </trkpt>
      <trkpt lat="45.27037" lon="6.05511">
        <ele>1463.5999755859</ele>
        <time>2026-08-21T09:35:19.000Z</time>
      </trkpt>
      <trkpt lat="45.27035" lon="6.05509">
        <ele>1463.5999755859</ele>
        <time>2026-08-21T09:35:20.000Z</time>
      </trkpt>
      <trkpt lat="45.27032" lon="6.05507">
        <ele>1463.8000488281</ele>
        <time>2026-08-21T09:35:21.000Z</time>
      </trkpt>
      <trkpt lat="45.2703" lon="6.05506">
        <ele>1463.8000488281</ele>
        <time>2026-08-21T09:35:22.000Z</time>
      </trkpt>
      <trkpt lat="45.27028" lon="6.05504">
        <ele>1464</ele>
        <time>2026-08-21T09:35:23.000Z</time>
      </trkpt>
      <trkpt lat="45.27026" lon="6.05501">
        <ele>1465</ele>
        <time>2026-08-21T09:35:24.000Z</time>
      </trkpt>
      <trkpt lat="45.27025" lon="6.05499">
        <ele>1465</ele>
        <time>2026-08-21T09:35:25.000Z</time>
      </trkpt>
      <trkpt lat="45.27024" lon="6.05496">
        <ele>1465.1999511719</ele>
        <time>2026-08-21T09:35:26.000Z</time>
      </trkpt>
      <trkpt lat="45.27023" lon="6.05493">
        <ele>1465.1999511719</ele>
        <time>2026-08-21T09:35:27.000Z</time>
      </trkpt>
      <trkpt lat="45.27022" lon="6.05491">
        <ele>1465.4000244141</ele>
        <time>2026-08-21T09:35:28.000Z</time>
      </trkpt>
      <trkpt lat="45.27021" lon="6.05489">
        <ele>1465.8000488281</ele>
        <time>2026-08-21T09:35:29.000Z</time>
      </trkpt>
      <trkpt lat="45.27021" lon="6.05486">
        <ele>1466.5999755859</ele>
        <time>2026-08-21T09:35:30.000Z</time>
      </trkpt>
      <trkpt lat="45.2702" lon="6.05484">
        <ele>1466.5999755859</ele>
        <time>2026-08-21T09:35:31.000Z</time>
      </trkpt>
      <trkpt lat="45.2702" lon="6.05482">
        <ele>1466.5999755859</ele>
        <time>2026-08-21T09:35:32.000Z</time>
      </trkpt>
      <trkpt lat="45.2702" lon="6.05479">
        <ele>1466.8000488281</ele>
        <time>2026-08-21T09:35:33.000Z</time>
      </trkpt>
      <trkpt lat="45.27019" lon="6.05478">
        <ele>1466.8000488281</ele>
        <time>2026-08-21T09:35:34.000Z</time>
      </trkpt>
      <trkpt lat="45.27019" lon="6.05475">
        <ele>1467</ele>
        <time>2026-08-21T09:35:35.000Z</time>
      </trkpt>
      <trkpt lat="45.27019" lon="6.05472">
        <ele>1467.1999511719</ele>
        <time>2026-08-21T09:35:36.000Z</time>
      </trkpt>
      <trkpt lat="45.27019" lon="6.0547">
        <ele>1467.5999755859</ele>
        <time>2026-08-21T09:35:37.000Z</time>
      </trkpt>
      <trkpt lat="45.27018" lon="6.05468">
        <ele>1468.4000244141</ele>
        <time>2026-08-21T09:35:38.000Z</time>
      </trkpt>
      <trkpt lat="45.27018" lon="6.05466">
        <ele>1468.5999755859</ele>
        <time>2026-08-21T09:35:39.000Z</time>
      </trkpt>
      <trkpt lat="45.27018" lon="6.05463">
        <ele>1468.5999755859</ele>
        <time>2026-08-21T09:35:40.000Z</time>
      </trkpt>
      <trkpt lat="45.27018" lon="6.05462">
        <ele>1468.4000244141</ele>
        <time>2026-08-21T09:35:41.000Z</time>
      </trkpt>
      <trkpt lat="45.27017" lon="6.0546">
        <ele>1468.1999511719</ele>
        <time>2026-08-21T09:35:42.000Z</time>
      </trkpt>
      <trkpt lat="45.27017" lon="6.05458">
        <ele>1467.5999755859</ele>
        <time>2026-08-21T09:35:43.000Z</time>
      </trkpt>
      <trkpt lat="45.27017" lon="6.05456">
        <ele>1467.4000244141</ele>
        <time>2026-08-21T09:35:44.000Z</time>
      </trkpt>
      <trkpt lat="45.27017" lon="6.05454">
        <ele>1467.1999511719</ele>
        <time>2026-08-21T09:35:45.000Z</time>
      </trkpt>
      <trkpt lat="45.27017" lon="6.05452">
        <ele>1467.1999511719</ele>
        <time>2026-08-21T09:35:46.000Z</time>
      </trkpt>
      <trkpt lat="45.27016" lon="6.0545">
        <ele>1467.4000244141</ele>
        <time>2026-08-21T09:35:47.000Z</time>
      </trkpt>
      <trkpt lat="45.27016" lon="6.05447">
        <ele>1467.5999755859</ele>
        <time>2026-08-21T09:35:48.000Z</time>
      </trkpt>
      <trkpt lat="45.27016" lon="6.05445">
        <ele>1467.8000488281</ele>
        <time>2026-08-21T09:35:49.000Z</time>
      </trkpt>
      <trkpt lat="45.27016" lon="6.05443">
        <ele>1468.4000244141</ele>
        <time>2026-08-21T09:35:50.000Z</time>
      </trkpt>
      <trkpt lat="45.27016" lon="6.05441">
        <ele>1468.8000488281</ele>
        <time>2026-08-21T09:35:51.000Z</time>
      </trkpt>
      <trkpt lat="45.27016" lon="6.05439">
        <ele>1469.4000244141</ele>
        <time>2026-08-21T09:35:52.000Z</time>
      </trkpt>
      <trkpt lat="45.27016" lon="6.05437">
        <ele>1470</ele>
        <time>2026-08-21T09:35:53.000Z</time>
      </trkpt>
      <trkpt lat="45.27016" lon="6.05435">
        <ele>1470.4000244141</ele>
        <time>2026-08-21T09:35:54.000Z</time>
      </trkpt>
      <trkpt lat="45.27015" lon="6.05433">
        <ele>1471</ele>
        <time>2026-08-21T09:35:55.000Z</time>
      </trkpt>
      <trkpt lat="45.27015" lon="6.05431">
        <ele>1471.4000244141</ele>
        <time>2026-08-21T09:35:56.000Z</time>
      </trkpt>
      <trkpt lat="45.27015" lon="6.05429">
        <ele>1471.4000244141</ele>
        <time>2026-08-21T09:35:57.000Z</time>
      </trkpt>
      <trkpt lat="45.27015" lon="6.05426">
        <ele>1471.1999511719</ele>
        <time>2026-08-21T09:35:58.000Z</time>
      </trkpt>
      <trkpt lat="45.27015" lon="6.05424">
        <ele>1471</ele>
        <time>2026-08-21T09:35:59.000Z</time>
      </trkpt>
      <trkpt lat="45.27015" lon="6.05422">
        <ele>1470.4000244141</ele>
        <time>2026-08-21T09:36:00.000Z</time>
      </trkpt>
      <trkpt lat="45.27015" lon="6.0542">
        <ele>1470</ele>
        <time>2026-08-21T09:36:01.000Z</time>
      </trkpt>
      <trkpt lat="45.27015" lon="6.05419">
        <ele>1469.8000488281</ele>
        <time>2026-08-21T09:36:02.000Z</time>
      </trkpt>
      <trkpt lat="45.27015" lon="6.05417">
        <ele>1469.5999755859</ele>
        <time>2026-08-21T09:36:03.000Z</time>
      </trkpt>
      <trkpt lat="45.27015" lon="6.05416">
        <ele>1469.4000244141</ele>
        <time>2026-08-21T09:36:04.000Z</time>
      </trkpt>
      <trkpt lat="45.27015" lon="6.05415">
        <ele>1469.4000244141</ele>
        <time>2026-08-21T09:36:05.000Z</time>
      </trkpt>
      <trkpt lat="45.27015" lon="6.05413">
        <ele>1469.4000244141</ele>
        <time>2026-08-21T09:36:06.000Z</time>
      </trkpt>
      <trkpt lat="45.27015" lon="6.05411">
        <ele>1469.5999755859</ele>
        <time>2026-08-21T09:36:07.000Z</time>
      </trkpt>
      <trkpt lat="45.27015" lon="6.05409">
        <ele>1469.5999755859</ele>
        <time>2026-08-21T09:36:08.000Z</time>
      </trkpt>
      <trkpt lat="45.27015" lon="6.05407">
        <ele>1469.8000488281</ele>
        <time>2026-08-21T09:36:09.000Z</time>
      </trkpt>
      <trkpt lat="45.27015" lon="6.05406">
        <ele>1470</ele>
        <time>2026-08-21T09:36:10.000Z</time>
      </trkpt>
      <trkpt lat="45.27015" lon="6.05405">
        <ele>1470.1999511719</ele>
        <time>2026-08-21T09:36:11.000Z</time>
      </trkpt>
      <trkpt lat="45.27015" lon="6.05403">
        <ele>1470.1999511719</ele>
        <time>2026-08-21T09:36:12.000Z</time>
      </trkpt>
      <trkpt lat="45.27015" lon="6.05402">
        <ele>1470.1999511719</ele>
        <time>2026-08-21T09:36:13.000Z</time>
      </trkpt>
      <trkpt lat="45.27015" lon="6.054">
        <ele>1470.1999511719</ele>
        <time>2026-08-21T09:36:14.000Z</time>
      </trkpt>
      <trkpt lat="45.27015" lon="6.05399">
        <ele>1470.1999511719</ele>
        <time>2026-08-21T09:36:15.000Z</time>
      </trkpt>
      <trkpt lat="45.27015" lon="6.05397">
        <ele>1470.1999511719</ele>
        <time>2026-08-21T09:36:16.000Z</time>
      </trkpt>
      <trkpt lat="45.27015" lon="6.05396">
        <ele>1470.4000244141</ele>
        <time>2026-08-21T09:36:17.000Z</time>
      </trkpt>
      <trkpt lat="45.27014" lon="6.05394">
        <ele>1470.8000488281</ele>
        <time>2026-08-21T09:36:18.000Z</time>
      </trkpt>
      <trkpt lat="45.27014" lon="6.05392">
        <ele>1471.4000244141</ele>
        <time>2026-08-21T09:36:19.000Z</time>
      </trkpt>
      <trkpt lat="45.27014" lon="6.05391">
        <ele>1471.5999755859</ele>
        <time>2026-08-21T09:36:20.000Z</time>
      </trkpt>
      <trkpt lat="45.27014" lon="6.05389">
        <ele>1472</ele>
        <time>2026-08-21T09:36:21.000Z</time>
      </trkpt>
      <trkpt lat="45.27014" lon="6.05388">
        <ele>1472.1999511719</ele>
        <time>2026-08-21T09:36:22.000Z</time>
      </trkpt>
      <trkpt lat="45.27014" lon="6.05386">
        <ele>1472.5999755859</ele>
        <time>2026-08-21T09:36:23.000Z</time>
      </trkpt>
      <trkpt lat="45.27014" lon="6.05385">
        <ele>1473.1999511719</ele>
        <time>2026-08-21T09:36:24.000Z</time>
      </trkpt>
      <trkpt lat="45.27015" lon="6.05383">
        <ele>1473.4000244141</ele>
        <time>2026-08-21T09:36:25.000Z</time>
      </trkpt>
      <trkpt lat="45.27015" lon="6.05382">
        <ele>1473.5999755859</ele>
        <time>2026-08-21T09:36:26.000Z</time>
      </trkpt>
      <trkpt lat="45.27015" lon="6.0538">
        <ele>1473.8000488281</ele>
        <time>2026-08-21T09:36:27.000Z</time>
      </trkpt>
      <trkpt lat="45.27015" lon="6.05379">
        <ele>1474</ele>
        <time>2026-08-21T09:36:28.000Z</time>
      </trkpt>
      <trkpt lat="45.27015" lon="6.05377">
        <ele>1474.1999511719</ele>
        <time>2026-08-21T09:36:29.000Z</time>
      </trkpt>
      <trkpt lat="45.27015" lon="6.05376">
        <ele>1475</ele>
        <time>2026-08-21T09:36:30.000Z</time>
      </trkpt>
      <trkpt lat="45.27015" lon="6.05375">
        <ele>1475.4000244141</ele>
        <time>2026-08-21T09:36:31.000Z</time>
      </trkpt>
      <trkpt lat="45.27014" lon="6.05373">
        <ele>1475.5999755859</ele>
        <time>2026-08-21T09:36:32.000Z</time>
      </trkpt>
      <trkpt lat="45.27013" lon="6.05371">
        <ele>1475.5999755859</ele>
        <time>2026-08-21T09:36:33.000Z</time>
      </trkpt>
      <trkpt lat="45.27011" lon="6.0537">
        <ele>1475.5999755859</ele>
        <time>2026-08-21T09:36:34.000Z</time>
      </trkpt>
      <trkpt lat="45.2701" lon="6.05368">
        <ele>1476.4000244141</ele>
        <time>2026-08-21T09:36:35.000Z</time>
      </trkpt>
      <trkpt lat="45.27009" lon="6.05366">
        <ele>1476.4000244141</ele>
        <time>2026-08-21T09:36:36.000Z</time>
      </trkpt>
      <trkpt lat="45.27007" lon="6.05364">
        <ele>1476.8000488281</ele>
        <time>2026-08-21T09:36:37.000Z</time>
      </trkpt>
      <trkpt lat="45.27006" lon="6.05362">
        <ele>1477.4000244141</ele>
        <time>2026-08-21T09:36:38.000Z</time>
      </trkpt>
      <trkpt lat="45.27004" lon="6.0536">
        <ele>1478</ele>
        <time>2026-08-21T09:36:39.000Z</time>
      </trkpt>
      <trkpt lat="45.27003" lon="6.05359">
        <ele>1478.5999755859</ele>
        <time>2026-08-21T09:36:40.000Z</time>
      </trkpt>
      <trkpt lat="45.27002" lon="6.05357">
        <ele>1479</ele>
        <time>2026-08-21T09:36:41.000Z</time>
      </trkpt>
      <trkpt lat="45.27" lon="6.05354">
        <ele>1479.5999755859</ele>
        <time>2026-08-21T09:36:42.000Z</time>
      </trkpt>
      <trkpt lat="45.26999" lon="6.05352">
        <ele>1480.1999511719</ele>
        <time>2026-08-21T09:36:43.000Z</time>
      </trkpt>
      <trkpt lat="45.26998" lon="6.0535">
        <ele>1480.8000488281</ele>
        <time>2026-08-21T09:36:44.000Z</time>
      </trkpt>
      <trkpt lat="45.26996" lon="6.05348">
        <ele>1482</ele>
        <time>2026-08-21T09:36:45.000Z</time>
      </trkpt>
      <trkpt lat="45.26995" lon="6.05348">
        <ele>1482.1999511719</ele>
        <time>2026-08-21T09:36:46.000Z</time>
      </trkpt>
      <trkpt lat="45.26994" lon="6.05346">
        <ele>1482.5999755859</ele>
        <time>2026-08-21T09:36:47.000Z</time>
      </trkpt>
      <trkpt lat="45.26993" lon="6.05344">
        <ele>1482.8000488281</ele>
        <time>2026-08-21T09:36:48.000Z</time>
      </trkpt>
      <trkpt lat="45.26991" lon="6.05342">
        <ele>1483.1999511719</ele>
        <time>2026-08-21T09:36:49.000Z</time>
      </trkpt>
      <trkpt lat="45.2699" lon="6.05341">
        <ele>1483.4000244141</ele>
        <time>2026-08-21T09:36:50.000Z</time>
      </trkpt>
      <trkpt lat="45.26989" lon="6.05338">
        <ele>1483.4000244141</ele>
        <time>2026-08-21T09:36:51.000Z</time>
      </trkpt>
      <trkpt lat="45.26987" lon="6.05336">
        <ele>1483.1999511719</ele>
        <time>2026-08-21T09:36:52.000Z</time>
      </trkpt>
      <trkpt lat="45.26986" lon="6.05335">
        <ele>1483.1999511719</ele>
        <time>2026-08-21T09:36:53.000Z</time>
      </trkpt>
      <trkpt lat="45.26984" lon="6.05332">
        <ele>1483.1999511719</ele>
        <time>2026-08-21T09:36:54.000Z</time>
      </trkpt>
      <trkpt lat="45.26983" lon="6.0533">
        <ele>1483.1999511719</ele>
        <time>2026-08-21T09:36:55.000Z</time>
      </trkpt>
      <trkpt lat="45.26982" lon="6.05328">
        <ele>1483</ele>
        <time>2026-08-21T09:36:56.000Z</time>
      </trkpt>
      <trkpt lat="45.2698" lon="6.05325">
        <ele>1483</ele>
        <time>2026-08-21T09:36:57.000Z</time>
      </trkpt>
      <trkpt lat="45.26979" lon="6.05323">
        <ele>1482.4000244141</ele>
        <time>2026-08-21T09:36:58.000Z</time>
      </trkpt>
      <trkpt lat="45.26977" lon="6.05321">
        <ele>1482.1999511719</ele>
        <time>2026-08-21T09:36:59.000Z</time>
      </trkpt>
      <trkpt lat="45.26976" lon="6.05319">
        <ele>1482.1999511719</ele>
        <time>2026-08-21T09:37:00.000Z</time>
      </trkpt>
      <trkpt lat="45.26974" lon="6.05317">
        <ele>1482</ele>
        <time>2026-08-21T09:37:01.000Z</time>
      </trkpt>
      <trkpt lat="45.26973" lon="6.05316">
        <ele>1482</ele>
        <time>2026-08-21T09:37:02.000Z</time>
      </trkpt>
      <trkpt lat="45.26971" lon="6.05315">
        <ele>1482</ele>
        <time>2026-08-21T09:37:03.000Z</time>
      </trkpt>
      <trkpt lat="45.2697" lon="6.05313">
        <ele>1482.5999755859</ele>
        <time>2026-08-21T09:37:04.000Z</time>
      </trkpt>
      <trkpt lat="45.26969" lon="6.05312">
        <ele>1483</ele>
        <time>2026-08-21T09:37:05.000Z</time>
      </trkpt>
      <trkpt lat="45.26967" lon="6.05311">
        <ele>1483.5999755859</ele>
        <time>2026-08-21T09:37:06.000Z</time>
      </trkpt>
      <trkpt lat="45.26967" lon="6.05309">
        <ele>1484</ele>
        <time>2026-08-21T09:37:07.000Z</time>
      </trkpt>
      <trkpt lat="45.26967" lon="6.05306">
        <ele>1484.1999511719</ele>
        <time>2026-08-21T09:37:08.000Z</time>
      </trkpt>
      <trkpt lat="45.26965" lon="6.05304">
        <ele>1484</ele>
        <time>2026-08-21T09:37:09.000Z</time>
      </trkpt>
      <trkpt lat="45.26964" lon="6.05302">
        <ele>1483.5999755859</ele>
        <time>2026-08-21T09:37:10.000Z</time>
      </trkpt>
      <trkpt lat="45.26963" lon="6.05299">
        <ele>1483.1999511719</ele>
        <time>2026-08-21T09:37:11.000Z</time>
      </trkpt>
      <trkpt lat="45.26961" lon="6.05297">
        <ele>1482.8000488281</ele>
        <time>2026-08-21T09:37:12.000Z</time>
      </trkpt>
      <trkpt lat="45.2696" lon="6.05295">
        <ele>1482.5999755859</ele>
        <time>2026-08-21T09:37:13.000Z</time>
      </trkpt>
      <trkpt lat="45.26959" lon="6.05293">
        <ele>1482.4000244141</ele>
        <time>2026-08-21T09:37:14.000Z</time>
      </trkpt>
      <trkpt lat="45.26958" lon="6.0529">
        <ele>1482.5999755859</ele>
        <time>2026-08-21T09:37:15.000Z</time>
      </trkpt>
      <trkpt lat="45.26957" lon="6.05288">
        <ele>1482.8000488281</ele>
        <time>2026-08-21T09:37:16.000Z</time>
      </trkpt>
      <trkpt lat="45.26955" lon="6.05285">
        <ele>1483.1999511719</ele>
        <time>2026-08-21T09:37:17.000Z</time>
      </trkpt>
      <trkpt lat="45.26954" lon="6.05284">
        <ele>1483.5999755859</ele>
        <time>2026-08-21T09:37:18.000Z</time>
      </trkpt>
      <trkpt lat="45.26953" lon="6.05282">
        <ele>1483.8000488281</ele>
        <time>2026-08-21T09:37:19.000Z</time>
      </trkpt>
      <trkpt lat="45.26951" lon="6.0528">
        <ele>1484</ele>
        <time>2026-08-21T09:37:20.000Z</time>
      </trkpt>
      <trkpt lat="45.2695" lon="6.05278">
        <ele>1484</ele>
        <time>2026-08-21T09:37:21.000Z</time>
      </trkpt>
      <trkpt lat="45.26949" lon="6.05277">
        <ele>1484.1999511719</ele>
        <time>2026-08-21T09:37:22.000Z</time>
      </trkpt>
      <trkpt lat="45.26948" lon="6.05275">
        <ele>1484.5999755859</ele>
        <time>2026-08-21T09:37:23.000Z</time>
      </trkpt>
      <trkpt lat="45.26947" lon="6.05274">
        <ele>1484.8000488281</ele>
        <time>2026-08-21T09:37:24.000Z</time>
      </trkpt>
      <trkpt lat="45.26945" lon="6.05273">
        <ele>1485.4000244141</ele>
        <time>2026-08-21T09:37:25.000Z</time>
      </trkpt>
      <trkpt lat="45.26943" lon="6.05271">
        <ele>1485</ele>
        <time>2026-08-21T09:37:26.000Z</time>
      </trkpt>
      <trkpt lat="45.26942" lon="6.0527">
        <ele>1484.4000244141</ele>
        <time>2026-08-21T09:37:27.000Z</time>
      </trkpt>
      <trkpt lat="45.2694" lon="6.05268">
        <ele>1484</ele>
        <time>2026-08-21T09:37:28.000Z</time>
      </trkpt>
      <trkpt lat="45.26938" lon="6.05267">
        <ele>1483.5999755859</ele>
        <time>2026-08-21T09:37:29.000Z</time>
      </trkpt>
      <trkpt lat="45.26937" lon="6.05266">
        <ele>1483.1999511719</ele>
        <time>2026-08-21T09:37:30.000Z</time>
      </trkpt>
      <trkpt lat="45.26935" lon="6.05264">
        <ele>1483</ele>
        <time>2026-08-21T09:37:31.000Z</time>
      </trkpt>
      <trkpt lat="45.26934" lon="6.05263">
        <ele>1483</ele>
        <time>2026-08-21T09:37:32.000Z</time>
      </trkpt>
      <trkpt lat="45.26932" lon="6.05262">
        <ele>1484</ele>
        <time>2026-08-21T09:37:33.000Z</time>
      </trkpt>
      <trkpt lat="45.26931" lon="6.05261">
        <ele>1484.8000488281</ele>
        <time>2026-08-21T09:37:34.000Z</time>
      </trkpt>
      <trkpt lat="45.26929" lon="6.05261">
        <ele>1485.8000488281</ele>
        <time>2026-08-21T09:37:35.000Z</time>
      </trkpt>
      <trkpt lat="45.26928" lon="6.0526">
        <ele>1486.8000488281</ele>
        <time>2026-08-21T09:37:36.000Z</time>
      </trkpt>
      <trkpt lat="45.26927" lon="6.05259">
        <ele>1487.1999511719</ele>
        <time>2026-08-21T09:37:37.000Z</time>
      </trkpt>
      <trkpt lat="45.26925" lon="6.05259">
        <ele>1487.8000488281</ele>
        <time>2026-08-21T09:37:38.000Z</time>
      </trkpt>
      <trkpt lat="45.26924" lon="6.05259">
        <ele>1488.4000244141</ele>
        <time>2026-08-21T09:37:39.000Z</time>
      </trkpt>
      <trkpt lat="45.26922" lon="6.05259">
        <ele>1488.4000244141</ele>
        <time>2026-08-21T09:37:40.000Z</time>
      </trkpt>
      <trkpt lat="45.26921" lon="6.05258">
        <ele>1488.4000244141</ele>
        <time>2026-08-21T09:37:41.000Z</time>
      </trkpt>
      <trkpt lat="45.26919" lon="6.05257">
        <ele>1488.1999511719</ele>
        <time>2026-08-21T09:37:42.000Z</time>
      </trkpt>
      <trkpt lat="45.26918" lon="6.05257">
        <ele>1488</ele>
        <time>2026-08-21T09:37:43.000Z</time>
      </trkpt>
      <trkpt lat="45.26916" lon="6.05257">
        <ele>1487.8000488281</ele>
        <time>2026-08-21T09:37:44.000Z</time>
      </trkpt>
      <trkpt lat="45.26915" lon="6.05256">
        <ele>1488</ele>
        <time>2026-08-21T09:37:45.000Z</time>
      </trkpt>
      <trkpt lat="45.26914" lon="6.05256">
        <ele>1488</ele>
        <time>2026-08-21T09:37:46.000Z</time>
      </trkpt>
      <trkpt lat="45.26912" lon="6.05256">
        <ele>1488.8000488281</ele>
        <time>2026-08-21T09:37:47.000Z</time>
      </trkpt>
      <trkpt lat="45.26911" lon="6.05255">
        <ele>1489.5999755859</ele>
        <time>2026-08-21T09:37:48.000Z</time>
      </trkpt>
      <trkpt lat="45.2691" lon="6.05255">
        <ele>1489.5999755859</ele>
        <time>2026-08-21T09:37:49.000Z</time>
      </trkpt>
      <trkpt lat="45.26909" lon="6.05254">
        <ele>1489.4000244141</ele>
        <time>2026-08-21T09:37:50.000Z</time>
      </trkpt>
      <trkpt lat="45.26908" lon="6.05254">
        <ele>1489.1999511719</ele>
        <time>2026-08-21T09:37:51.000Z</time>
      </trkpt>
      <trkpt lat="45.26907" lon="6.05254">
        <ele>1489</ele>
        <time>2026-08-21T09:37:52.000Z</time>
      </trkpt>
      <trkpt lat="45.26905" lon="6.05254">
        <ele>1489</ele>
        <time>2026-08-21T09:37:53.000Z</time>
      </trkpt>
      <trkpt lat="45.26904" lon="6.05254">
        <ele>1488.8000488281</ele>
        <time>2026-08-21T09:37:54.000Z</time>
      </trkpt>
      <trkpt lat="45.26903" lon="6.05253">
        <ele>1488.8000488281</ele>
        <time>2026-08-21T09:37:55.000Z</time>
      </trkpt>
      <trkpt lat="45.26901" lon="6.05253">
        <ele>1488.8000488281</ele>
        <time>2026-08-21T09:37:56.000Z</time>
      </trkpt>
      <trkpt lat="45.269" lon="6.05252">
        <ele>1488.8000488281</ele>
        <time>2026-08-21T09:37:57.000Z</time>
      </trkpt>
      <trkpt lat="45.26899" lon="6.05252">
        <ele>1488.8000488281</ele>
        <time>2026-08-21T09:37:58.000Z</time>
      </trkpt>
      <trkpt lat="45.26897" lon="6.05252">
        <ele>1487.4000244141</ele>
        <time>2026-08-21T09:37:59.000Z</time>
      </trkpt>
      <trkpt lat="45.26896" lon="6.05252">
        <ele>1486.8000488281</ele>
        <time>2026-08-21T09:38:00.000Z</time>
      </trkpt>
      <trkpt lat="45.26895" lon="6.05251">
        <ele>1485.8000488281</ele>
        <time>2026-08-21T09:38:01.000Z</time>
      </trkpt>
      <trkpt lat="45.26894" lon="6.0525">
        <ele>1485.5999755859</ele>
        <time>2026-08-21T09:38:02.000Z</time>
      </trkpt>
      <trkpt lat="45.26892" lon="6.0525">
        <ele>1485.1999511719</ele>
        <time>2026-08-21T09:38:03.000Z</time>
      </trkpt>
      <trkpt lat="45.26891" lon="6.0525">
        <ele>1485.1999511719</ele>
        <time>2026-08-21T09:38:04.000Z</time>
      </trkpt>
      <trkpt lat="45.26889" lon="6.05249">
        <ele>1485.1999511719</ele>
        <time>2026-08-21T09:38:05.000Z</time>
      </trkpt>
      <trkpt lat="45.26888" lon="6.05248">
        <ele>1485.4000244141</ele>
        <time>2026-08-21T09:38:06.000Z</time>
      </trkpt>
      <trkpt lat="45.26887" lon="6.05247">
        <ele>1485.5999755859</ele>
        <time>2026-08-21T09:38:07.000Z</time>
      </trkpt>
      <trkpt lat="45.26886" lon="6.05247">
        <ele>1485.5999755859</ele>
        <time>2026-08-21T09:38:08.000Z</time>
      </trkpt>
      <trkpt lat="45.26884" lon="6.05246">
        <ele>1485.8000488281</ele>
        <time>2026-08-21T09:38:09.000Z</time>
      </trkpt>
      <trkpt lat="45.26883" lon="6.05246">
        <ele>1485.8000488281</ele>
        <time>2026-08-21T09:38:10.000Z</time>
      </trkpt>
      <trkpt lat="45.26882" lon="6.05244">
        <ele>1486.1999511719</ele>
        <time>2026-08-21T09:38:11.000Z</time>
      </trkpt>
      <trkpt lat="45.26881" lon="6.05243">
        <ele>1486.5999755859</ele>
        <time>2026-08-21T09:38:12.000Z</time>
      </trkpt>
      <trkpt lat="45.2688" lon="6.05242">
        <ele>1487.4000244141</ele>
        <time>2026-08-21T09:38:13.000Z</time>
      </trkpt>
      <trkpt lat="45.26879" lon="6.05241">
        <ele>1487.8000488281</ele>
        <time>2026-08-21T09:38:14.000Z</time>
      </trkpt>
      <trkpt lat="45.26878" lon="6.0524">
        <ele>1488.1999511719</ele>
        <time>2026-08-21T09:38:15.000Z</time>
      </trkpt>
      <trkpt lat="45.26877" lon="6.05239">
        <ele>1488.4000244141</ele>
        <time>2026-08-21T09:38:16.000Z</time>
      </trkpt>
      <trkpt lat="45.26876" lon="6.05238">
        <ele>1488.8000488281</ele>
        <time>2026-08-21T09:38:17.000Z</time>
      </trkpt>
      <trkpt lat="45.26875" lon="6.05237">
        <ele>1489</ele>
        <time>2026-08-21T09:38:18.000Z</time>
      </trkpt>
      <trkpt lat="45.26873" lon="6.05237">
        <ele>1489.1999511719</ele>
        <time>2026-08-21T09:38:19.000Z</time>
      </trkpt>
      <trkpt lat="45.26872" lon="6.05236">
        <ele>1489.1999511719</ele>
        <time>2026-08-21T09:38:20.000Z</time>
      </trkpt>
      <trkpt lat="45.2687" lon="6.05236">
        <ele>1489.4000244141</ele>
        <time>2026-08-21T09:38:21.000Z</time>
      </trkpt>
      <trkpt lat="45.26869" lon="6.05235">
        <ele>1489.4000244141</ele>
        <time>2026-08-21T09:38:22.000Z</time>
      </trkpt>
      <trkpt lat="45.26867" lon="6.05234">
        <ele>1489.8000488281</ele>
        <time>2026-08-21T09:38:23.000Z</time>
      </trkpt>
      <trkpt lat="45.26865" lon="6.05233">
        <ele>1489.8000488281</ele>
        <time>2026-08-21T09:38:24.000Z</time>
      </trkpt>
      <trkpt lat="45.26864" lon="6.05232">
        <ele>1489.8000488281</ele>
        <time>2026-08-21T09:38:25.000Z</time>
      </trkpt>
      <trkpt lat="45.26863" lon="6.05231">
        <ele>1490.1999511719</ele>
        <time>2026-08-21T09:38:26.000Z</time>
      </trkpt>
      <trkpt lat="45.26861" lon="6.0523">
        <ele>1490.4000244141</ele>
        <time>2026-08-21T09:38:27.000Z</time>
      </trkpt>
      <trkpt lat="45.2686" lon="6.0523">
        <ele>1490.4000244141</ele>
        <time>2026-08-21T09:38:28.000Z</time>
      </trkpt>
      <trkpt lat="45.26859" lon="6.05229">
        <ele>1490.5999755859</ele>
        <time>2026-08-21T09:38:29.000Z</time>
      </trkpt>
      <trkpt lat="45.26858" lon="6.05228">
        <ele>1490.8000488281</ele>
        <time>2026-08-21T09:38:30.000Z</time>
      </trkpt>
      <trkpt lat="45.26857" lon="6.05228">
        <ele>1491.1999511719</ele>
        <time>2026-08-21T09:38:31.000Z</time>
      </trkpt>
      <trkpt lat="45.26856" lon="6.05227">
        <ele>1491.4000244141</ele>
        <time>2026-08-21T09:38:32.000Z</time>
      </trkpt>
      <trkpt lat="45.26855" lon="6.05226">
        <ele>1491.8000488281</ele>
        <time>2026-08-21T09:38:33.000Z</time>
      </trkpt>
      <trkpt lat="45.26854" lon="6.05225">
        <ele>1492</ele>
        <time>2026-08-21T09:38:34.000Z</time>
      </trkpt>
      <trkpt lat="45.26853" lon="6.05225">
        <ele>1492.1999511719</ele>
        <time>2026-08-21T09:38:35.000Z</time>
      </trkpt>
      <trkpt lat="45.26851" lon="6.05224">
        <ele>1492.4000244141</ele>
        <time>2026-08-21T09:38:36.000Z</time>
      </trkpt>
      <trkpt lat="45.2685" lon="6.05223">
        <ele>1492.8000488281</ele>
        <time>2026-08-21T09:38:37.000Z</time>
      </trkpt>
      <trkpt lat="45.26849" lon="6.05223">
        <ele>1493</ele>
        <time>2026-08-21T09:38:38.000Z</time>
      </trkpt>
      <trkpt lat="45.26848" lon="6.05222">
        <ele>1493.4000244141</ele>
        <time>2026-08-21T09:38:39.000Z</time>
      </trkpt>
      <trkpt lat="45.26846" lon="6.05222">
        <ele>1494</ele>
        <time>2026-08-21T09:38:40.000Z</time>
      </trkpt>
      <trkpt lat="45.26845" lon="6.05221">
        <ele>1494.4000244141</ele>
        <time>2026-08-21T09:38:41.000Z</time>
      </trkpt>
      <trkpt lat="45.26843" lon="6.05221">
        <ele>1495</ele>
        <time>2026-08-21T09:38:42.000Z</time>
      </trkpt>
      <trkpt lat="45.26842" lon="6.0522">
        <ele>1495.8000488281</ele>
        <time>2026-08-21T09:38:43.000Z</time>
      </trkpt>
      <trkpt lat="45.2684" lon="6.05218">
        <ele>1496.1999511719</ele>
        <time>2026-08-21T09:38:44.000Z</time>
      </trkpt>
      <trkpt lat="45.26839" lon="6.05217">
        <ele>1496.5999755859</ele>
        <time>2026-08-21T09:38:45.000Z</time>
      </trkpt>
      <trkpt lat="45.26838" lon="6.05215">
        <ele>1497</ele>
        <time>2026-08-21T09:38:46.000Z</time>
      </trkpt>
      <trkpt lat="45.26836" lon="6.05213">
        <ele>1497.4000244141</ele>
        <time>2026-08-21T09:38:47.000Z</time>
      </trkpt>
      <trkpt lat="45.26835" lon="6.05212">
        <ele>1497.5999755859</ele>
        <time>2026-08-21T09:38:48.000Z</time>
      </trkpt>
      <trkpt lat="45.26834" lon="6.0521">
        <ele>1497.8000488281</ele>
        <time>2026-08-21T09:38:49.000Z</time>
      </trkpt>
      <trkpt lat="45.26833" lon="6.05209">
        <ele>1498</ele>
        <time>2026-08-21T09:38:50.000Z</time>
      </trkpt>
      <trkpt lat="45.26831" lon="6.05207">
        <ele>1498.1999511719</ele>
        <time>2026-08-21T09:38:51.000Z</time>
      </trkpt>
      <trkpt lat="45.2683" lon="6.05206">
        <ele>1498.4000244141</ele>
        <time>2026-08-21T09:38:52.000Z</time>
      </trkpt>
      <trkpt lat="45.26828" lon="6.05204">
        <ele>1498.8000488281</ele>
        <time>2026-08-21T09:38:53.000Z</time>
      </trkpt>
      <trkpt lat="45.26827" lon="6.05203">
        <ele>1499.1999511719</ele>
        <time>2026-08-21T09:38:54.000Z</time>
      </trkpt>
      <trkpt lat="45.26825" lon="6.05203">
        <ele>1499.1999511719</ele>
        <time>2026-08-21T09:38:55.000Z</time>
      </trkpt>
      <trkpt lat="45.26824" lon="6.05202">
        <ele>1499.5999755859</ele>
        <time>2026-08-21T09:38:56.000Z</time>
      </trkpt>
      <trkpt lat="45.26823" lon="6.05202">
        <ele>1499.8000488281</ele>
        <time>2026-08-21T09:38:57.000Z</time>
      </trkpt>
      <trkpt lat="45.26821" lon="6.05201">
        <ele>1499.8000488281</ele>
        <time>2026-08-21T09:38:58.000Z</time>
      </trkpt>
      <trkpt lat="45.2682" lon="6.052">
        <ele>1499.8000488281</ele>
        <time>2026-08-21T09:38:59.000Z</time>
      </trkpt>
      <trkpt lat="45.26819" lon="6.052">
        <ele>1499.8000488281</ele>
        <time>2026-08-21T09:39:00.000Z</time>
      </trkpt>
      <trkpt lat="45.26817" lon="6.05199">
        <ele>1500</ele>
        <time>2026-08-21T09:39:01.000Z</time>
      </trkpt>
      <trkpt lat="45.26816" lon="6.05198">
        <ele>1500.4000244141</ele>
        <time>2026-08-21T09:39:02.000Z</time>
      </trkpt>
      <trkpt lat="45.26814" lon="6.05197">
        <ele>1500.4000244141</ele>
        <time>2026-08-21T09:39:03.000Z</time>
      </trkpt>
      <trkpt lat="45.26813" lon="6.05197">
        <ele>1500.8000488281</ele>
        <time>2026-08-21T09:39:04.000Z</time>
      </trkpt>
      <trkpt lat="45.26811" lon="6.05197">
        <ele>1501</ele>
        <time>2026-08-21T09:39:05.000Z</time>
      </trkpt>
      <trkpt lat="45.2681" lon="6.05196">
        <ele>1501.4000244141</ele>
        <time>2026-08-21T09:39:06.000Z</time>
      </trkpt>
      <trkpt lat="45.26808" lon="6.05195">
        <ele>1502.1999511719</ele>
        <time>2026-08-21T09:39:07.000Z</time>
      </trkpt>
      <trkpt lat="45.26807" lon="6.05195">
        <ele>1502.8000488281</ele>
        <time>2026-08-21T09:39:08.000Z</time>
      </trkpt>
      <trkpt lat="45.26805" lon="6.05194">
        <ele>1503</ele>
        <time>2026-08-21T09:39:09.000Z</time>
      </trkpt>
      <trkpt lat="45.26804" lon="6.05192">
        <ele>1503.4000244141</ele>
        <time>2026-08-21T09:39:10.000Z</time>
      </trkpt>
      <trkpt lat="45.26803" lon="6.05191">
        <ele>1503.5999755859</ele>
        <time>2026-08-21T09:39:11.000Z</time>
      </trkpt>
      <trkpt lat="45.26802" lon="6.0519">
        <ele>1503.8000488281</ele>
        <time>2026-08-21T09:39:12.000Z</time>
      </trkpt>
      <trkpt lat="45.26801" lon="6.0519">
        <ele>1503.8000488281</ele>
        <time>2026-08-21T09:39:13.000Z</time>
      </trkpt>
      <trkpt lat="45.26799" lon="6.05189">
        <ele>1504</ele>
        <time>2026-08-21T09:39:14.000Z</time>
      </trkpt>
      <trkpt lat="45.26798" lon="6.05188">
        <ele>1504</ele>
        <time>2026-08-21T09:39:15.000Z</time>
      </trkpt>
      <trkpt lat="45.26797" lon="6.05187">
        <ele>1504</ele>
        <time>2026-08-21T09:39:16.000Z</time>
      </trkpt>
      <trkpt lat="45.26795" lon="6.05187">
        <ele>1504</ele>
        <time>2026-08-21T09:39:17.000Z</time>
      </trkpt>
      <trkpt lat="45.26794" lon="6.05186">
        <ele>1504.1999511719</ele>
        <time>2026-08-21T09:39:18.000Z</time>
      </trkpt>
      <trkpt lat="45.26792" lon="6.05186">
        <ele>1504.1999511719</ele>
        <time>2026-08-21T09:39:19.000Z</time>
      </trkpt>
      <trkpt lat="45.2679" lon="6.05186">
        <ele>1504.4000244141</ele>
        <time>2026-08-21T09:39:20.000Z</time>
      </trkpt>
      <trkpt lat="45.26789" lon="6.05185">
        <ele>1504.8000488281</ele>
        <time>2026-08-21T09:39:21.000Z</time>
      </trkpt>
      <trkpt lat="45.26787" lon="6.05184">
        <ele>1504.8000488281</ele>
        <time>2026-08-21T09:39:22.000Z</time>
      </trkpt>
      <trkpt lat="45.26786" lon="6.05184">
        <ele>1505.1999511719</ele>
        <time>2026-08-21T09:39:23.000Z</time>
      </trkpt>
      <trkpt lat="45.26784" lon="6.05183">
        <ele>1505.8000488281</ele>
        <time>2026-08-21T09:39:24.000Z</time>
      </trkpt>
      <trkpt lat="45.26783" lon="6.05182">
        <ele>1505.8000488281</ele>
        <time>2026-08-21T09:39:25.000Z</time>
      </trkpt>
      <trkpt lat="45.26781" lon="6.05182">
        <ele>1506.5999755859</ele>
        <time>2026-08-21T09:39:26.000Z</time>
      </trkpt>
      <trkpt lat="45.26779" lon="6.05181">
        <ele>1506.5999755859</ele>
        <time>2026-08-21T09:39:27.000Z</time>
      </trkpt>
      <trkpt lat="45.26777" lon="6.05181">
        <ele>1506.5999755859</ele>
        <time>2026-08-21T09:39:28.000Z</time>
      </trkpt>
      <trkpt lat="45.26775" lon="6.0518">
        <ele>1507</ele>
        <time>2026-08-21T09:39:29.000Z</time>
      </trkpt>
      <trkpt lat="45.26774" lon="6.05179">
        <ele>1507</ele>
        <time>2026-08-21T09:39:30.000Z</time>
      </trkpt>
      <trkpt lat="45.26772" lon="6.05179">
        <ele>1507.1999511719</ele>
        <time>2026-08-21T09:39:31.000Z</time>
      </trkpt>
      <trkpt lat="45.2677" lon="6.05178">
        <ele>1507.4000244141</ele>
        <time>2026-08-21T09:39:32.000Z</time>
      </trkpt>
      <trkpt lat="45.26769" lon="6.05178">
        <ele>1507.4000244141</ele>
        <time>2026-08-21T09:39:33.000Z</time>
      </trkpt>
      <trkpt lat="45.26767" lon="6.05178">
        <ele>1507.5999755859</ele>
        <time>2026-08-21T09:39:34.000Z</time>
      </trkpt>
      <trkpt lat="45.26765" lon="6.05177">
        <ele>1507.8000488281</ele>
        <time>2026-08-21T09:39:35.000Z</time>
      </trkpt>
      <trkpt lat="45.26763" lon="6.05177">
        <ele>1508</ele>
        <time>2026-08-21T09:39:36.000Z</time>
      </trkpt>
      <trkpt lat="45.26761" lon="6.05176">
        <ele>1508.4000244141</ele>
        <time>2026-08-21T09:39:37.000Z</time>
      </trkpt>
      <trkpt lat="45.2676" lon="6.05177">
        <ele>1508.5999755859</ele>
        <time>2026-08-21T09:39:38.000Z</time>
      </trkpt>
      <trkpt lat="45.26758" lon="6.05177">
        <ele>1508.8000488281</ele>
        <time>2026-08-21T09:39:39.000Z</time>
      </trkpt>
      <trkpt lat="45.26756" lon="6.05176">
        <ele>1509</ele>
        <time>2026-08-21T09:39:40.000Z</time>
      </trkpt>
      <trkpt lat="45.26755" lon="6.05177">
        <ele>1509.1999511719</ele>
        <time>2026-08-21T09:39:41.000Z</time>
      </trkpt>
      <trkpt lat="45.26753" lon="6.05177">
        <ele>1509.5999755859</ele>
        <time>2026-08-21T09:39:42.000Z</time>
      </trkpt>
      <trkpt lat="45.26751" lon="6.05176">
        <ele>1509.5999755859</ele>
        <time>2026-08-21T09:39:43.000Z</time>
      </trkpt>
      <trkpt lat="45.26749" lon="6.05176">
        <ele>1509.8000488281</ele>
        <time>2026-08-21T09:39:44.000Z</time>
      </trkpt>
      <trkpt lat="45.26748" lon="6.05176">
        <ele>1509.8000488281</ele>
        <time>2026-08-21T09:39:45.000Z</time>
      </trkpt>
      <trkpt lat="45.26746" lon="6.05176">
        <ele>1509.8000488281</ele>
        <time>2026-08-21T09:39:46.000Z</time>
      </trkpt>
      <trkpt lat="45.26744" lon="6.05176">
        <ele>1509.8000488281</ele>
        <time>2026-08-21T09:39:47.000Z</time>
      </trkpt>
      <trkpt lat="45.26742" lon="6.05176">
        <ele>1509.8000488281</ele>
        <time>2026-08-21T09:39:48.000Z</time>
      </trkpt>
      <trkpt lat="45.26741" lon="6.05176">
        <ele>1509.8000488281</ele>
        <time>2026-08-21T09:39:49.000Z</time>
      </trkpt>
      <trkpt lat="45.26739" lon="6.05175">
        <ele>1509.8000488281</ele>
        <time>2026-08-21T09:39:50.000Z</time>
      </trkpt>
      <trkpt lat="45.26737" lon="6.05175">
        <ele>1509.5999755859</ele>
        <time>2026-08-21T09:39:51.000Z</time>
      </trkpt>
      <trkpt lat="45.26735" lon="6.05175">
        <ele>1509.5999755859</ele>
        <time>2026-08-21T09:39:52.000Z</time>
      </trkpt>
      <trkpt lat="45.26734" lon="6.05176">
        <ele>1509.8000488281</ele>
        <time>2026-08-21T09:39:53.000Z</time>
      </trkpt>
      <trkpt lat="45.26732" lon="6.05176">
        <ele>1509.8000488281</ele>
        <time>2026-08-21T09:39:54.000Z</time>
      </trkpt>
      <trkpt lat="45.26731" lon="6.05176">
        <ele>1510</ele>
        <time>2026-08-21T09:39:55.000Z</time>
      </trkpt>
      <trkpt lat="45.26729" lon="6.05175">
        <ele>1510.4000244141</ele>
        <time>2026-08-21T09:39:56.000Z</time>
      </trkpt>
      <trkpt lat="45.26727" lon="6.05175">
        <ele>1510.4000244141</ele>
        <time>2026-08-21T09:39:57.000Z</time>
      </trkpt>
      <trkpt lat="45.26725" lon="6.05175">
        <ele>1510.8000488281</ele>
        <time>2026-08-21T09:39:58.000Z</time>
      </trkpt>
      <trkpt lat="45.26723" lon="6.05175">
        <ele>1511</ele>
        <time>2026-08-21T09:39:59.000Z</time>
      </trkpt>
      <trkpt lat="45.26722" lon="6.05174">
        <ele>1511</ele>
        <time>2026-08-21T09:40:00.000Z</time>
      </trkpt>
      <trkpt lat="45.2672" lon="6.05174">
        <ele>1511.1999511719</ele>
        <time>2026-08-21T09:40:01.000Z</time>
      </trkpt>
      <trkpt lat="45.26719" lon="6.05174">
        <ele>1511.4000244141</ele>
        <time>2026-08-21T09:40:02.000Z</time>
      </trkpt>
      <trkpt lat="45.26717" lon="6.05173">
        <ele>1511.4000244141</ele>
        <time>2026-08-21T09:40:03.000Z</time>
      </trkpt>
      <trkpt lat="45.26716" lon="6.05172">
        <ele>1511.4000244141</ele>
        <time>2026-08-21T09:40:04.000Z</time>
      </trkpt>
      <trkpt lat="45.26714" lon="6.05171">
        <ele>1511.4000244141</ele>
        <time>2026-08-21T09:40:05.000Z</time>
      </trkpt>
      <trkpt lat="45.26712" lon="6.0517">
        <ele>1511.4000244141</ele>
        <time>2026-08-21T09:40:06.000Z</time>
      </trkpt>
      <trkpt lat="45.2671" lon="6.0517">
        <ele>1511.5999755859</ele>
        <time>2026-08-21T09:40:07.000Z</time>
      </trkpt>
      <trkpt lat="45.26709" lon="6.0517">
        <ele>1511.5999755859</ele>
        <time>2026-08-21T09:40:08.000Z</time>
      </trkpt>
      <trkpt lat="45.26707" lon="6.0517">
        <ele>1511.8000488281</ele>
        <time>2026-08-21T09:40:09.000Z</time>
      </trkpt>
      <trkpt lat="45.26706" lon="6.05169">
        <ele>1512</ele>
        <time>2026-08-21T09:40:10.000Z</time>
      </trkpt>
      <trkpt lat="45.26705" lon="6.0517">
        <ele>1512</ele>
        <time>2026-08-21T09:40:11.000Z</time>
      </trkpt>
      <trkpt lat="45.26703" lon="6.05171">
        <ele>1512.5999755859</ele>
        <time>2026-08-21T09:40:12.000Z</time>
      </trkpt>
      <trkpt lat="45.26702" lon="6.05171">
        <ele>1513.1999511719</ele>
        <time>2026-08-21T09:40:13.000Z</time>
      </trkpt>
      <trkpt lat="45.26701" lon="6.05171">
        <ele>1513.8000488281</ele>
        <time>2026-08-21T09:40:14.000Z</time>
      </trkpt>
      <trkpt lat="45.267" lon="6.05171">
        <ele>1514.4000244141</ele>
        <time>2026-08-21T09:40:15.000Z</time>
      </trkpt>
      <trkpt lat="45.26699" lon="6.05171">
        <ele>1515</ele>
        <time>2026-08-21T09:40:16.000Z</time>
      </trkpt>
      <trkpt lat="45.26698" lon="6.05171">
        <ele>1515.5999755859</ele>
        <time>2026-08-21T09:40:17.000Z</time>
      </trkpt>
      <trkpt lat="45.26696" lon="6.05171">
        <ele>1516.1999511719</ele>
        <time>2026-08-21T09:40:18.000Z</time>
      </trkpt>
      <trkpt lat="45.26695" lon="6.05171">
        <ele>1517</ele>
        <time>2026-08-21T09:40:19.000Z</time>
      </trkpt>
      <trkpt lat="45.26694" lon="6.05171">
        <ele>1517.8000488281</ele>
        <time>2026-08-21T09:40:20.000Z</time>
      </trkpt>
      <trkpt lat="45.26694" lon="6.05171">
        <ele>1518.1999511719</ele>
        <time>2026-08-21T09:40:21.000Z</time>
      </trkpt>
      <trkpt lat="45.26693" lon="6.05171">
        <ele>1518.4000244141</ele>
        <time>2026-08-21T09:40:22.000Z</time>
      </trkpt>
      <trkpt lat="45.26692" lon="6.0517">
        <ele>1519</ele>
        <time>2026-08-21T09:40:23.000Z</time>
      </trkpt>
      <trkpt lat="45.26692" lon="6.0517">
        <ele>1519.5999755859</ele>
        <time>2026-08-21T09:40:24.000Z</time>
      </trkpt>
      <trkpt lat="45.26691" lon="6.0517">
        <ele>1520.1999511719</ele>
        <time>2026-08-21T09:40:25.000Z</time>
      </trkpt>
      <trkpt lat="45.2669" lon="6.05169">
        <ele>1520.1999511719</ele>
        <time>2026-08-21T09:40:26.000Z</time>
      </trkpt>
      <trkpt lat="45.26689" lon="6.05169">
        <ele>1520.4000244141</ele>
        <time>2026-08-21T09:40:27.000Z</time>
      </trkpt>
      <trkpt lat="45.26688" lon="6.05169">
        <ele>1520.5999755859</ele>
        <time>2026-08-21T09:40:28.000Z</time>
      </trkpt>
      <trkpt lat="45.26687" lon="6.05168">
        <ele>1520.5999755859</ele>
        <time>2026-08-21T09:40:29.000Z</time>
      </trkpt>
      <trkpt lat="45.26686" lon="6.05168">
        <ele>1520.8000488281</ele>
        <time>2026-08-21T09:40:30.000Z</time>
      </trkpt>
      <trkpt lat="45.26686" lon="6.05167">
        <ele>1521.1999511719</ele>
        <time>2026-08-21T09:40:31.000Z</time>
      </trkpt>
      <trkpt lat="45.26685" lon="6.05166">
        <ele>1521.8000488281</ele>
        <time>2026-08-21T09:40:32.000Z</time>
      </trkpt>
      <trkpt lat="45.26684" lon="6.05166">
        <ele>1522</ele>
        <time>2026-08-21T09:40:33.000Z</time>
      </trkpt>
      <trkpt lat="45.26683" lon="6.05165">
        <ele>1522.4000244141</ele>
        <time>2026-08-21T09:40:34.000Z</time>
      </trkpt>
      <trkpt lat="45.26682" lon="6.05165">
        <ele>1523</ele>
        <time>2026-08-21T09:40:35.000Z</time>
      </trkpt>
      <trkpt lat="45.26681" lon="6.05164">
        <ele>1524.1999511719</ele>
        <time>2026-08-21T09:40:36.000Z</time>
      </trkpt>
      <trkpt lat="45.2668" lon="6.05164">
        <ele>1525</ele>
        <time>2026-08-21T09:40:37.000Z</time>
      </trkpt>
      <trkpt lat="45.26679" lon="6.05163">
        <ele>1525.4000244141</ele>
        <time>2026-08-21T09:40:38.000Z</time>
      </trkpt>
      <trkpt lat="45.26678" lon="6.05162">
        <ele>1525.8000488281</ele>
        <time>2026-08-21T09:40:39.000Z</time>
      </trkpt>
      <trkpt lat="45.26678" lon="6.05162">
        <ele>1526.4000244141</ele>
        <time>2026-08-21T09:40:40.000Z</time>
      </trkpt>
      <trkpt lat="45.26677" lon="6.0516">
        <ele>1526.8000488281</ele>
        <time>2026-08-21T09:40:41.000Z</time>
      </trkpt>
      <trkpt lat="45.26676" lon="6.05159">
        <ele>1527.4000244141</ele>
        <time>2026-08-21T09:40:42.000Z</time>
      </trkpt>
      <trkpt lat="45.26675" lon="6.05159">
        <ele>1528</ele>
        <time>2026-08-21T09:40:43.000Z</time>
      </trkpt>
      <trkpt lat="45.26674" lon="6.05157">
        <ele>1528.8000488281</ele>
        <time>2026-08-21T09:40:44.000Z</time>
      </trkpt>
      <trkpt lat="45.26673" lon="6.05156">
        <ele>1529.4000244141</ele>
        <time>2026-08-21T09:40:45.000Z</time>
      </trkpt>
      <trkpt lat="45.26673" lon="6.05155">
        <ele>1530</ele>
        <time>2026-08-21T09:40:46.000Z</time>
      </trkpt>
      <trkpt lat="45.26672" lon="6.05153">
        <ele>1529.1999511719</ele>
        <time>2026-08-21T09:40:47.000Z</time>
      </trkpt>
      <trkpt lat="45.26672" lon="6.05152">
        <ele>1529</ele>
        <time>2026-08-21T09:40:48.000Z</time>
      </trkpt>
      <trkpt lat="45.26672" lon="6.0515">
        <ele>1528.1999511719</ele>
        <time>2026-08-21T09:40:49.000Z</time>
      </trkpt>
      <trkpt lat="45.26671" lon="6.05149">
        <ele>1528</ele>
        <time>2026-08-21T09:40:50.000Z</time>
      </trkpt>
      <trkpt lat="45.26671" lon="6.05148">
        <ele>1527.8000488281</ele>
        <time>2026-08-21T09:40:51.000Z</time>
      </trkpt>
      <trkpt lat="45.2667" lon="6.05147">
        <ele>1527.5999755859</ele>
        <time>2026-08-21T09:40:52.000Z</time>
      </trkpt>
      <trkpt lat="45.2667" lon="6.05145">
        <ele>1527.1999511719</ele>
        <time>2026-08-21T09:40:53.000Z</time>
      </trkpt>
      <trkpt lat="45.2667" lon="6.05144">
        <ele>1527.4000244141</ele>
        <time>2026-08-21T09:40:54.000Z</time>
      </trkpt>
      <trkpt lat="45.26669" lon="6.05143">
        <ele>1528.1999511719</ele>
        <time>2026-08-21T09:40:55.000Z</time>
      </trkpt>
      <trkpt lat="45.26669" lon="6.05142">
        <ele>1528.8000488281</ele>
        <time>2026-08-21T09:40:56.000Z</time>
      </trkpt>
      <trkpt lat="45.26669" lon="6.05141">
        <ele>1530.1999511719</ele>
        <time>2026-08-21T09:40:57.000Z</time>
      </trkpt>
      <trkpt lat="45.26668" lon="6.05139">
        <ele>1531.1999511719</ele>
        <time>2026-08-21T09:40:58.000Z</time>
      </trkpt>
      <trkpt lat="45.26668" lon="6.05138">
        <ele>1532</ele>
        <time>2026-08-21T09:40:59.000Z</time>
      </trkpt>
      <trkpt lat="45.26668" lon="6.05137">
        <ele>1532.4000244141</ele>
        <time>2026-08-21T09:41:00.000Z</time>
      </trkpt>
      <trkpt lat="45.26668" lon="6.05136">
        <ele>1532.5999755859</ele>
        <time>2026-08-21T09:41:01.000Z</time>
      </trkpt>
      <trkpt lat="45.26668" lon="6.05135">
        <ele>1534</ele>
        <time>2026-08-21T09:41:02.000Z</time>
      </trkpt>
      <trkpt lat="45.26667" lon="6.05134">
        <ele>1534.5999755859</ele>
        <time>2026-08-21T09:41:03.000Z</time>
      </trkpt>
      <trkpt lat="45.26667" lon="6.05134">
        <ele>1535.1999511719</ele>
        <time>2026-08-21T09:41:04.000Z</time>
      </trkpt>
      <trkpt lat="45.26667" lon="6.05133">
        <ele>1535.8000488281</ele>
        <time>2026-08-21T09:41:05.000Z</time>
      </trkpt>
      <trkpt lat="45.26667" lon="6.05132">
        <ele>1536.4000244141</ele>
        <time>2026-08-21T09:41:06.000Z</time>
      </trkpt>
      <trkpt lat="45.26666" lon="6.05131">
        <ele>1536.5999755859</ele>
        <time>2026-08-21T09:41:07.000Z</time>
      </trkpt>
      <trkpt lat="45.26666" lon="6.05131">
        <ele>1536.8000488281</ele>
        <time>2026-08-21T09:41:08.000Z</time>
      </trkpt>
      <trkpt lat="45.26665" lon="6.0513">
        <ele>1537.1999511719</ele>
        <time>2026-08-21T09:41:09.000Z</time>
      </trkpt>
      <trkpt lat="45.26665" lon="6.05129">
        <ele>1537.8000488281</ele>
        <time>2026-08-21T09:41:10.000Z</time>
      </trkpt>
      <trkpt lat="45.26664" lon="6.05128">
        <ele>1538.4000244141</ele>
        <time>2026-08-21T09:41:11.000Z</time>
      </trkpt>
      <trkpt lat="45.26664" lon="6.05127">
        <ele>1538.5999755859</ele>
        <time>2026-08-21T09:41:12.000Z</time>
      </trkpt>
      <trkpt lat="45.26663" lon="6.05126">
        <ele>1539</ele>
        <time>2026-08-21T09:41:13.000Z</time>
      </trkpt>
      <trkpt lat="45.26663" lon="6.05124">
        <ele>1539.4000244141</ele>
        <time>2026-08-21T09:41:14.000Z</time>
      </trkpt>
      <trkpt lat="45.26662" lon="6.05124">
        <ele>1539.8000488281</ele>
        <time>2026-08-21T09:41:15.000Z</time>
      </trkpt>
      <trkpt lat="45.26661" lon="6.05123">
        <ele>1540.5999755859</ele>
        <time>2026-08-21T09:41:16.000Z</time>
      </trkpt>
      <trkpt lat="45.26661" lon="6.05123">
        <ele>1540.5999755859</ele>
        <time>2026-08-21T09:41:17.000Z</time>
      </trkpt>
      <trkpt lat="45.26661" lon="6.05122">
        <ele>1540.8000488281</ele>
        <time>2026-08-21T09:41:18.000Z</time>
      </trkpt>
      <trkpt lat="45.2666" lon="6.05121">
        <ele>1540.8000488281</ele>
        <time>2026-08-21T09:41:19.000Z</time>
      </trkpt>
      <trkpt lat="45.26659" lon="6.0512">
        <ele>1540.8000488281</ele>
        <time>2026-08-21T09:41:20.000Z</time>
      </trkpt>
      <trkpt lat="45.26659" lon="6.05119">
        <ele>1540.1999511719</ele>
        <time>2026-08-21T09:41:21.000Z</time>
      </trkpt>
      <trkpt lat="45.26658" lon="6.05118">
        <ele>1539.8000488281</ele>
        <time>2026-08-21T09:41:22.000Z</time>
      </trkpt>
      <trkpt lat="45.26657" lon="6.05117">
        <ele>1539.5999755859</ele>
        <time>2026-08-21T09:41:23.000Z</time>
      </trkpt>
      <trkpt lat="45.26657" lon="6.05116">
        <ele>1539.4000244141</ele>
        <time>2026-08-21T09:41:24.000Z</time>
      </trkpt>
      <trkpt lat="45.26656" lon="6.05115">
        <ele>1539</ele>
        <time>2026-08-21T09:41:25.000Z</time>
      </trkpt>
      <trkpt lat="45.26656" lon="6.05114">
        <ele>1539.1999511719</ele>
        <time>2026-08-21T09:41:26.000Z</time>
      </trkpt>
      <trkpt lat="45.26655" lon="6.05113">
        <ele>1539.4000244141</ele>
        <time>2026-08-21T09:41:27.000Z</time>
      </trkpt>
      <trkpt lat="45.26654" lon="6.05112">
        <ele>1539.8000488281</ele>
        <time>2026-08-21T09:41:28.000Z</time>
      </trkpt>
      <trkpt lat="45.26653" lon="6.05111">
        <ele>1540</ele>
        <time>2026-08-21T09:41:29.000Z</time>
      </trkpt>
      <trkpt lat="45.26652" lon="6.0511">
        <ele>1540.1999511719</ele>
        <time>2026-08-21T09:41:30.000Z</time>
      </trkpt>
      <trkpt lat="45.26651" lon="6.05109">
        <ele>1540.4000244141</ele>
        <time>2026-08-21T09:41:31.000Z</time>
      </trkpt>
      <trkpt lat="45.2665" lon="6.05108">
        <ele>1540.5999755859</ele>
        <time>2026-08-21T09:41:32.000Z</time>
      </trkpt>
      <trkpt lat="45.26649" lon="6.05107">
        <ele>1540.5999755859</ele>
        <time>2026-08-21T09:41:33.000Z</time>
      </trkpt>
      <trkpt lat="45.26648" lon="6.05106">
        <ele>1540.8000488281</ele>
        <time>2026-08-21T09:41:34.000Z</time>
      </trkpt>
      <trkpt lat="45.26647" lon="6.05106">
        <ele>1541</ele>
        <time>2026-08-21T09:41:35.000Z</time>
      </trkpt>
      <trkpt lat="45.26647" lon="6.05105">
        <ele>1541</ele>
        <time>2026-08-21T09:41:36.000Z</time>
      </trkpt>
      <trkpt lat="45.26646" lon="6.05104">
        <ele>1541</ele>
        <time>2026-08-21T09:41:37.000Z</time>
      </trkpt>
      <trkpt lat="45.26645" lon="6.05104">
        <ele>1541</ele>
        <time>2026-08-21T09:41:38.000Z</time>
      </trkpt>
      <trkpt lat="45.26644" lon="6.05103">
        <ele>1540.5999755859</ele>
        <time>2026-08-21T09:41:39.000Z</time>
      </trkpt>
      <trkpt lat="45.26643" lon="6.05103">
        <ele>1540.1999511719</ele>
        <time>2026-08-21T09:41:40.000Z</time>
      </trkpt>
      <trkpt lat="45.26643" lon="6.05102">
        <ele>1540.1999511719</ele>
        <time>2026-08-21T09:41:41.000Z</time>
      </trkpt>
      <trkpt lat="45.26642" lon="6.05101">
        <ele>1540</ele>
        <time>2026-08-21T09:41:42.000Z</time>
      </trkpt>
      <trkpt lat="45.26641" lon="6.051">
        <ele>1540</ele>
        <time>2026-08-21T09:41:43.000Z</time>
      </trkpt>
      <trkpt lat="45.2664" lon="6.051">
        <ele>1539.8000488281</ele>
        <time>2026-08-21T09:41:44.000Z</time>
      </trkpt>
      <trkpt lat="45.26639" lon="6.05099">
        <ele>1539.8000488281</ele>
        <time>2026-08-21T09:41:45.000Z</time>
      </trkpt>
      <trkpt lat="45.26638" lon="6.05098">
        <ele>1540.1999511719</ele>
        <time>2026-08-21T09:41:46.000Z</time>
      </trkpt>
      <trkpt lat="45.26637" lon="6.05098">
        <ele>1540.4000244141</ele>
        <time>2026-08-21T09:41:47.000Z</time>
      </trkpt>
      <trkpt lat="45.26637" lon="6.05097">
        <ele>1540.5999755859</ele>
        <time>2026-08-21T09:41:48.000Z</time>
      </trkpt>
      <trkpt lat="45.26636" lon="6.05097">
        <ele>1541</ele>
        <time>2026-08-21T09:41:49.000Z</time>
      </trkpt>
      <trkpt lat="45.26635" lon="6.05096">
        <ele>1541.4000244141</ele>
        <time>2026-08-21T09:41:50.000Z</time>
      </trkpt>
      <trkpt lat="45.26634" lon="6.05096">
        <ele>1541.5999755859</ele>
        <time>2026-08-21T09:41:51.000Z</time>
      </trkpt>
      <trkpt lat="45.26633" lon="6.05095">
        <ele>1541.8000488281</ele>
        <time>2026-08-21T09:41:52.000Z</time>
      </trkpt>
      <trkpt lat="45.26632" lon="6.05094">
        <ele>1542.4000244141</ele>
        <time>2026-08-21T09:41:53.000Z</time>
      </trkpt>
      <trkpt lat="45.26631" lon="6.05093">
        <ele>1543</ele>
        <time>2026-08-21T09:41:54.000Z</time>
      </trkpt>
      <trkpt lat="45.2663" lon="6.05092">
        <ele>1544.1999511719</ele>
        <time>2026-08-21T09:41:55.000Z</time>
      </trkpt>
      <trkpt lat="45.2663" lon="6.05091">
        <ele>1545</ele>
        <time>2026-08-21T09:41:56.000Z</time>
      </trkpt>
      <trkpt lat="45.26629" lon="6.0509">
        <ele>1545.8000488281</ele>
        <time>2026-08-21T09:41:57.000Z</time>
      </trkpt>
      <trkpt lat="45.26628" lon="6.05089">
        <ele>1546.5999755859</ele>
        <time>2026-08-21T09:41:58.000Z</time>
      </trkpt>
      <trkpt lat="45.26627" lon="6.05087">
        <ele>1547.4000244141</ele>
        <time>2026-08-21T09:41:59.000Z</time>
      </trkpt>
      <trkpt lat="45.26627" lon="6.05087">
        <ele>1548.1999511719</ele>
        <time>2026-08-21T09:42:00.000Z</time>
      </trkpt>
      <trkpt lat="45.26626" lon="6.05086">
        <ele>1548.5999755859</ele>
        <time>2026-08-21T09:42:01.000Z</time>
      </trkpt>
      <trkpt lat="45.26625" lon="6.05085">
        <ele>1548.8000488281</ele>
        <time>2026-08-21T09:42:02.000Z</time>
      </trkpt>
      <trkpt lat="45.26625" lon="6.05084">
        <ele>1549.5999755859</ele>
        <time>2026-08-21T09:42:03.000Z</time>
      </trkpt>
      <trkpt lat="45.26624" lon="6.05083">
        <ele>1550.1999511719</ele>
        <time>2026-08-21T09:42:04.000Z</time>
      </trkpt>
      <trkpt lat="45.26623" lon="6.05082">
        <ele>1551</ele>
        <time>2026-08-21T09:42:05.000Z</time>
      </trkpt>
      <trkpt lat="45.26622" lon="6.05082">
        <ele>1551.1999511719</ele>
        <time>2026-08-21T09:42:06.000Z</time>
      </trkpt>
      <trkpt lat="45.26622" lon="6.05081">
        <ele>1551.4000244141</ele>
        <time>2026-08-21T09:42:07.000Z</time>
      </trkpt>
      <trkpt lat="45.26621" lon="6.0508">
        <ele>1551.5999755859</ele>
        <time>2026-08-21T09:42:08.000Z</time>
      </trkpt>
      <trkpt lat="45.2662" lon="6.05079">
        <ele>1551.8000488281</ele>
        <time>2026-08-21T09:42:09.000Z</time>
      </trkpt>
      <trkpt lat="45.26619" lon="6.05078">
        <ele>1552.1999511719</ele>
        <time>2026-08-21T09:42:10.000Z</time>
      </trkpt>
      <trkpt lat="45.26618" lon="6.05077">
        <ele>1552.4000244141</ele>
        <time>2026-08-21T09:42:11.000Z</time>
      </trkpt>
      <trkpt lat="45.26617" lon="6.05076">
        <ele>1552.4000244141</ele>
        <time>2026-08-21T09:42:12.000Z</time>
      </trkpt>
      <trkpt lat="45.26616" lon="6.05075">
        <ele>1552.4000244141</ele>
        <time>2026-08-21T09:42:13.000Z</time>
      </trkpt>
      <trkpt lat="45.26614" lon="6.05074">
        <ele>1552.5999755859</ele>
        <time>2026-08-21T09:42:14.000Z</time>
      </trkpt>
      <trkpt lat="45.26613" lon="6.05073">
        <ele>1552.8000488281</ele>
        <time>2026-08-21T09:42:15.000Z</time>
      </trkpt>
      <trkpt lat="45.26612" lon="6.05072">
        <ele>1553.1999511719</ele>
        <time>2026-08-21T09:42:16.000Z</time>
      </trkpt>
      <trkpt lat="45.26611" lon="6.05071">
        <ele>1553.4000244141</ele>
        <time>2026-08-21T09:42:17.000Z</time>
      </trkpt>
      <trkpt lat="45.26609" lon="6.0507">
        <ele>1553.8000488281</ele>
        <time>2026-08-21T09:42:18.000Z</time>
      </trkpt>
      <trkpt lat="45.26609" lon="6.05069">
        <ele>1554</ele>
        <time>2026-08-21T09:42:19.000Z</time>
      </trkpt>
      <trkpt lat="45.26608" lon="6.05068">
        <ele>1554.1999511719</ele>
        <time>2026-08-21T09:42:20.000Z</time>
      </trkpt>
      <trkpt lat="45.26607" lon="6.05066">
        <ele>1554.4000244141</ele>
        <time>2026-08-21T09:42:21.000Z</time>
      </trkpt>
      <trkpt lat="45.26606" lon="6.05064">
        <ele>1554.8000488281</ele>
        <time>2026-08-21T09:42:22.000Z</time>
      </trkpt>
      <trkpt lat="45.26605" lon="6.05063">
        <ele>1555.1999511719</ele>
        <time>2026-08-21T09:42:23.000Z</time>
      </trkpt>
      <trkpt lat="45.26604" lon="6.05062">
        <ele>1555.5999755859</ele>
        <time>2026-08-21T09:42:24.000Z</time>
      </trkpt>
      <trkpt lat="45.26603" lon="6.0506">
        <ele>1556.1999511719</ele>
        <time>2026-08-21T09:42:25.000Z</time>
      </trkpt>
      <trkpt lat="45.26603" lon="6.05059">
        <ele>1556.4000244141</ele>
        <time>2026-08-21T09:42:26.000Z</time>
      </trkpt>
      <trkpt lat="45.26602" lon="6.05058">
        <ele>1556.5999755859</ele>
        <time>2026-08-21T09:42:27.000Z</time>
      </trkpt>
      <trkpt lat="45.26601" lon="6.05056">
        <ele>1557</ele>
        <time>2026-08-21T09:42:28.000Z</time>
      </trkpt>
      <trkpt lat="45.26599" lon="6.05055">
        <ele>1557.4000244141</ele>
        <time>2026-08-21T09:42:29.000Z</time>
      </trkpt>
      <trkpt lat="45.26598" lon="6.05055">
        <ele>1557.5999755859</ele>
        <time>2026-08-21T09:42:30.000Z</time>
      </trkpt>
      <trkpt lat="45.26597" lon="6.05054">
        <ele>1557.8000488281</ele>
        <time>2026-08-21T09:42:31.000Z</time>
      </trkpt>
      <trkpt lat="45.26596" lon="6.05054">
        <ele>1557.5999755859</ele>
        <time>2026-08-21T09:42:32.000Z</time>
      </trkpt>
      <trkpt lat="45.26595" lon="6.05053">
        <ele>1557.5999755859</ele>
        <time>2026-08-21T09:42:33.000Z</time>
      </trkpt>
      <trkpt lat="45.26594" lon="6.05053">
        <ele>1557.4000244141</ele>
        <time>2026-08-21T09:42:34.000Z</time>
      </trkpt>
      <trkpt lat="45.26593" lon="6.05052">
        <ele>1556.8000488281</ele>
        <time>2026-08-21T09:42:35.000Z</time>
      </trkpt>
      <trkpt lat="45.26592" lon="6.05051">
        <ele>1556</ele>
        <time>2026-08-21T09:42:36.000Z</time>
      </trkpt>
      <trkpt lat="45.26591" lon="6.0505">
        <ele>1555.8000488281</ele>
        <time>2026-08-21T09:42:37.000Z</time>
      </trkpt>
      <trkpt lat="45.2659" lon="6.05049">
        <ele>1555.8000488281</ele>
        <time>2026-08-21T09:42:38.000Z</time>
      </trkpt>
      <trkpt lat="45.26589" lon="6.05048">
        <ele>1555.8000488281</ele>
        <time>2026-08-21T09:42:39.000Z</time>
      </trkpt>
      <trkpt lat="45.26588" lon="6.05046">
        <ele>1556</ele>
        <time>2026-08-21T09:42:40.000Z</time>
      </trkpt>
      <trkpt lat="45.26587" lon="6.05046">
        <ele>1556.4000244141</ele>
        <time>2026-08-21T09:42:41.000Z</time>
      </trkpt>
      <trkpt lat="45.26585" lon="6.05045">
        <ele>1556.5999755859</ele>
        <time>2026-08-21T09:42:42.000Z</time>
      </trkpt>
      <trkpt lat="45.26584" lon="6.05044">
        <ele>1557</ele>
        <time>2026-08-21T09:42:43.000Z</time>
      </trkpt>
      <trkpt lat="45.26583" lon="6.05043">
        <ele>1557</ele>
        <time>2026-08-21T09:42:44.000Z</time>
      </trkpt>
      <trkpt lat="45.26582" lon="6.05043">
        <ele>1557.1999511719</ele>
        <time>2026-08-21T09:42:45.000Z</time>
      </trkpt>
      <trkpt lat="45.26581" lon="6.05042">
        <ele>1557.1999511719</ele>
        <time>2026-08-21T09:42:46.000Z</time>
      </trkpt>
      <trkpt lat="45.2658" lon="6.05042">
        <ele>1557</ele>
        <time>2026-08-21T09:42:47.000Z</time>
      </trkpt>
      <trkpt lat="45.26579" lon="6.0504">
        <ele>1556.8000488281</ele>
        <time>2026-08-21T09:42:48.000Z</time>
      </trkpt>
      <trkpt lat="45.26579" lon="6.05039">
        <ele>1556.5999755859</ele>
        <time>2026-08-21T09:42:49.000Z</time>
      </trkpt>
      <trkpt lat="45.26578" lon="6.05037">
        <ele>1556.5999755859</ele>
        <time>2026-08-21T09:42:50.000Z</time>
      </trkpt>
      <trkpt lat="45.26577" lon="6.05036">
        <ele>1556.5999755859</ele>
        <time>2026-08-21T09:42:51.000Z</time>
      </trkpt>
      <trkpt lat="45.26575" lon="6.05034">
        <ele>1556.8000488281</ele>
        <time>2026-08-21T09:42:52.000Z</time>
      </trkpt>
      <trkpt lat="45.26575" lon="6.05032">
        <ele>1556.8000488281</ele>
        <time>2026-08-21T09:42:53.000Z</time>
      </trkpt>
      <trkpt lat="45.26574" lon="6.05031">
        <ele>1557</ele>
        <time>2026-08-21T09:42:54.000Z</time>
      </trkpt>
      <trkpt lat="45.26573" lon="6.0503">
        <ele>1557</ele>
        <time>2026-08-21T09:42:55.000Z</time>
      </trkpt>
      <trkpt lat="45.26573" lon="6.05028">
        <ele>1557.5999755859</ele>
        <time>2026-08-21T09:42:56.000Z</time>
      </trkpt>
      <trkpt lat="45.26572" lon="6.05025">
        <ele>1558.5999755859</ele>
        <time>2026-08-21T09:42:57.000Z</time>
      </trkpt>
      <trkpt lat="45.26571" lon="6.05024">
        <ele>1558.8000488281</ele>
        <time>2026-08-21T09:42:58.000Z</time>
      </trkpt>
      <trkpt lat="45.2657" lon="6.05022">
        <ele>1558.8000488281</ele>
        <time>2026-08-21T09:42:59.000Z</time>
      </trkpt>
      <trkpt lat="45.26569" lon="6.0502">
        <ele>1559.4000244141</ele>
        <time>2026-08-21T09:43:00.000Z</time>
      </trkpt>
      <trkpt lat="45.26568" lon="6.05019">
        <ele>1559.8000488281</ele>
        <time>2026-08-21T09:43:01.000Z</time>
      </trkpt>
      <trkpt lat="45.26567" lon="6.05017">
        <ele>1560</ele>
        <time>2026-08-21T09:43:02.000Z</time>
      </trkpt>
      <trkpt lat="45.26566" lon="6.05015">
        <ele>1560.5999755859</ele>
        <time>2026-08-21T09:43:03.000Z</time>
      </trkpt>
      <trkpt lat="45.26566" lon="6.05013">
        <ele>1561</ele>
        <time>2026-08-21T09:43:04.000Z</time>
      </trkpt>
      <trkpt lat="45.26564" lon="6.05011">
        <ele>1561.5999755859</ele>
        <time>2026-08-21T09:43:05.000Z</time>
      </trkpt>
      <trkpt lat="45.26563" lon="6.0501">
        <ele>1562</ele>
        <time>2026-08-21T09:43:06.000Z</time>
      </trkpt>
      <trkpt lat="45.26562" lon="6.05009">
        <ele>1562.1999511719</ele>
        <time>2026-08-21T09:43:07.000Z</time>
      </trkpt>
      <trkpt lat="45.26561" lon="6.05007">
        <ele>1562.1999511719</ele>
        <time>2026-08-21T09:43:08.000Z</time>
      </trkpt>
      <trkpt lat="45.2656" lon="6.05006">
        <ele>1562.4000244141</ele>
        <time>2026-08-21T09:43:09.000Z</time>
      </trkpt>
      <trkpt lat="45.26559" lon="6.05006">
        <ele>1562.5999755859</ele>
        <time>2026-08-21T09:43:10.000Z</time>
      </trkpt>
      <trkpt lat="45.26558" lon="6.05005">
        <ele>1563</ele>
        <time>2026-08-21T09:43:11.000Z</time>
      </trkpt>
      <trkpt lat="45.26556" lon="6.05005">
        <ele>1563.1999511719</ele>
        <time>2026-08-21T09:43:12.000Z</time>
      </trkpt>
      <trkpt lat="45.26556" lon="6.05004">
        <ele>1563.1999511719</ele>
        <time>2026-08-21T09:43:13.000Z</time>
      </trkpt>
      <trkpt lat="45.26555" lon="6.05004">
        <ele>1563.4000244141</ele>
        <time>2026-08-21T09:43:14.000Z</time>
      </trkpt>
      <trkpt lat="45.26554" lon="6.05003">
        <ele>1563.4000244141</ele>
        <time>2026-08-21T09:43:15.000Z</time>
      </trkpt>
      <trkpt lat="45.26553" lon="6.05003">
        <ele>1564</ele>
        <time>2026-08-21T09:43:16.000Z</time>
      </trkpt>
      <trkpt lat="45.26551" lon="6.05003">
        <ele>1564.1999511719</ele>
        <time>2026-08-21T09:43:17.000Z</time>
      </trkpt>
      <trkpt lat="45.2655" lon="6.05003">
        <ele>1564.4000244141</ele>
        <time>2026-08-21T09:43:18.000Z</time>
      </trkpt>
      <trkpt lat="45.26549" lon="6.05003">
        <ele>1564.5999755859</ele>
        <time>2026-08-21T09:43:19.000Z</time>
      </trkpt>
      <trkpt lat="45.26547" lon="6.05003">
        <ele>1564.8000488281</ele>
        <time>2026-08-21T09:43:20.000Z</time>
      </trkpt>
      <trkpt lat="45.26546" lon="6.05004">
        <ele>1565</ele>
        <time>2026-08-21T09:43:21.000Z</time>
      </trkpt>
      <trkpt lat="45.26545" lon="6.05004">
        <ele>1565</ele>
        <time>2026-08-21T09:43:22.000Z</time>
      </trkpt>
      <trkpt lat="45.26544" lon="6.05004">
        <ele>1565</ele>
        <time>2026-08-21T09:43:23.000Z</time>
      </trkpt>
      <trkpt lat="45.26543" lon="6.05004">
        <ele>1565</ele>
        <time>2026-08-21T09:43:24.000Z</time>
      </trkpt>
      <trkpt lat="45.26541" lon="6.05005">
        <ele>1565.5999755859</ele>
        <time>2026-08-21T09:43:25.000Z</time>
      </trkpt>
      <trkpt lat="45.26539" lon="6.05005">
        <ele>1565.8000488281</ele>
        <time>2026-08-21T09:43:26.000Z</time>
      </trkpt>
      <trkpt lat="45.26538" lon="6.05005">
        <ele>1566</ele>
        <time>2026-08-21T09:43:27.000Z</time>
      </trkpt>
      <trkpt lat="45.26537" lon="6.05004">
        <ele>1566.4000244141</ele>
        <time>2026-08-21T09:43:28.000Z</time>
      </trkpt>
      <trkpt lat="45.26536" lon="6.05005">
        <ele>1567</ele>
        <time>2026-08-21T09:43:29.000Z</time>
      </trkpt>
      <trkpt lat="45.26535" lon="6.05005">
        <ele>1567.5999755859</ele>
        <time>2026-08-21T09:43:30.000Z</time>
      </trkpt>
      <trkpt lat="45.26533" lon="6.05006">
        <ele>1568</ele>
        <time>2026-08-21T09:43:31.000Z</time>
      </trkpt>
      <trkpt lat="45.26532" lon="6.05006">
        <ele>1568.5999755859</ele>
        <time>2026-08-21T09:43:32.000Z</time>
      </trkpt>
      <trkpt lat="45.2653" lon="6.05006">
        <ele>1569</ele>
        <time>2026-08-21T09:43:33.000Z</time>
      </trkpt>
      <trkpt lat="45.26529" lon="6.05005">
        <ele>1569.1999511719</ele>
        <time>2026-08-21T09:43:34.000Z</time>
      </trkpt>
      <trkpt lat="45.26527" lon="6.05005">
        <ele>1570</ele>
        <time>2026-08-21T09:43:35.000Z</time>
      </trkpt>
      <trkpt lat="45.26526" lon="6.05005">
        <ele>1570.8000488281</ele>
        <time>2026-08-21T09:43:36.000Z</time>
      </trkpt>
      <trkpt lat="45.26525" lon="6.05006">
        <ele>1572.1999511719</ele>
        <time>2026-08-21T09:43:37.000Z</time>
      </trkpt>
      <trkpt lat="45.26523" lon="6.05005">
        <ele>1572.8000488281</ele>
        <time>2026-08-21T09:43:38.000Z</time>
      </trkpt>
      <trkpt lat="45.26522" lon="6.05005">
        <ele>1573.8000488281</ele>
        <time>2026-08-21T09:43:39.000Z</time>
      </trkpt>
      <trkpt lat="45.2652" lon="6.05005">
        <ele>1574</ele>
        <time>2026-08-21T09:43:40.000Z</time>
      </trkpt>
      <trkpt lat="45.26519" lon="6.05005">
        <ele>1574.1999511719</ele>
        <time>2026-08-21T09:43:41.000Z</time>
      </trkpt>
      <trkpt lat="45.26517" lon="6.05005">
        <ele>1574.5999755859</ele>
        <time>2026-08-21T09:43:42.000Z</time>
      </trkpt>
      <trkpt lat="45.26516" lon="6.05005">
        <ele>1574.8000488281</ele>
        <time>2026-08-21T09:43:43.000Z</time>
      </trkpt>
      <trkpt lat="45.26514" lon="6.05005">
        <ele>1575.1999511719</ele>
        <time>2026-08-21T09:43:44.000Z</time>
      </trkpt>
      <trkpt lat="45.26513" lon="6.05005">
        <ele>1575.1999511719</ele>
        <time>2026-08-21T09:43:45.000Z</time>
      </trkpt>
      <trkpt lat="45.26511" lon="6.05005">
        <ele>1575</ele>
        <time>2026-08-21T09:43:46.000Z</time>
      </trkpt>
      <trkpt lat="45.2651" lon="6.05005">
        <ele>1574.4000244141</ele>
        <time>2026-08-21T09:43:47.000Z</time>
      </trkpt>
      <trkpt lat="45.26508" lon="6.05006">
        <ele>1574</ele>
        <time>2026-08-21T09:43:48.000Z</time>
      </trkpt>
      <trkpt lat="45.26507" lon="6.05005">
        <ele>1573.8000488281</ele>
        <time>2026-08-21T09:43:49.000Z</time>
      </trkpt>
      <trkpt lat="45.26505" lon="6.05005">
        <ele>1573.4000244141</ele>
        <time>2026-08-21T09:43:50.000Z</time>
      </trkpt>
      <trkpt lat="45.26503" lon="6.05005">
        <ele>1573.1999511719</ele>
        <time>2026-08-21T09:43:51.000Z</time>
      </trkpt>
      <trkpt lat="45.26501" lon="6.05005">
        <ele>1573</ele>
        <time>2026-08-21T09:43:52.000Z</time>
      </trkpt>
      <trkpt lat="45.26499" lon="6.05005">
        <ele>1573.1999511719</ele>
        <time>2026-08-21T09:43:53.000Z</time>
      </trkpt>
      <trkpt lat="45.26497" lon="6.05005">
        <ele>1573.1999511719</ele>
        <time>2026-08-21T09:43:54.000Z</time>
      </trkpt>
      <trkpt lat="45.26495" lon="6.05005">
        <ele>1573.5999755859</ele>
        <time>2026-08-21T09:43:55.000Z</time>
      </trkpt>
      <trkpt lat="45.26493" lon="6.05005">
        <ele>1574</ele>
        <time>2026-08-21T09:43:56.000Z</time>
      </trkpt>
      <trkpt lat="45.26491" lon="6.05004">
        <ele>1574.8000488281</ele>
        <time>2026-08-21T09:43:57.000Z</time>
      </trkpt>
      <trkpt lat="45.26489" lon="6.05004">
        <ele>1575.5999755859</ele>
        <time>2026-08-21T09:43:58.000Z</time>
      </trkpt>
      <trkpt lat="45.26487" lon="6.05004">
        <ele>1576</ele>
        <time>2026-08-21T09:43:59.000Z</time>
      </trkpt>
      <trkpt lat="45.26485" lon="6.05004">
        <ele>1576.1999511719</ele>
        <time>2026-08-21T09:44:00.000Z</time>
      </trkpt>
      <trkpt lat="45.26483" lon="6.05004">
        <ele>1576.5999755859</ele>
        <time>2026-08-21T09:44:01.000Z</time>
      </trkpt>
      <trkpt lat="45.26481" lon="6.05005">
        <ele>1577</ele>
        <time>2026-08-21T09:44:02.000Z</time>
      </trkpt>
      <trkpt lat="45.26479" lon="6.05005">
        <ele>1577.5999755859</ele>
        <time>2026-08-21T09:44:03.000Z</time>
      </trkpt>
      <trkpt lat="45.26477" lon="6.05005">
        <ele>1577.8000488281</ele>
        <time>2026-08-21T09:44:04.000Z</time>
      </trkpt>
      <trkpt lat="45.26475" lon="6.05005">
        <ele>1577.8000488281</ele>
        <time>2026-08-21T09:44:05.000Z</time>
      </trkpt>
      <trkpt lat="45.26473" lon="6.05004">
        <ele>1578</ele>
        <time>2026-08-21T09:44:06.000Z</time>
      </trkpt>
      <trkpt lat="45.26471" lon="6.05003">
        <ele>1578.1999511719</ele>
        <time>2026-08-21T09:44:07.000Z</time>
      </trkpt>
      <trkpt lat="45.26468" lon="6.05003">
        <ele>1579.5999755859</ele>
        <time>2026-08-21T09:44:08.000Z</time>
      </trkpt>
      <trkpt lat="45.26467" lon="6.05002">
        <ele>1581</ele>
        <time>2026-08-21T09:44:09.000Z</time>
      </trkpt>
      <trkpt lat="45.26465" lon="6.05002">
        <ele>1582.8000488281</ele>
        <time>2026-08-21T09:44:10.000Z</time>
      </trkpt>
      <trkpt lat="45.26463" lon="6.05001">
        <ele>1583.4000244141</ele>
        <time>2026-08-21T09:44:11.000Z</time>
      </trkpt>
      <trkpt lat="45.2646" lon="6.05001">
        <ele>1584</ele>
        <time>2026-08-21T09:44:12.000Z</time>
      </trkpt>
      <trkpt lat="45.26458" lon="6.05">
        <ele>1585.4000244141</ele>
        <time>2026-08-21T09:44:13.000Z</time>
      </trkpt>
      <trkpt lat="45.26456" lon="6.04999">
        <ele>1585.8000488281</ele>
        <time>2026-08-21T09:44:14.000Z</time>
      </trkpt>
      <trkpt lat="45.26454" lon="6.04998">
        <ele>1586</ele>
        <time>2026-08-21T09:44:15.000Z</time>
      </trkpt>
      <trkpt lat="45.26452" lon="6.04996">
        <ele>1585.8000488281</ele>
        <time>2026-08-21T09:44:16.000Z</time>
      </trkpt>
      <trkpt lat="45.2645" lon="6.04995">
        <ele>1584.8000488281</ele>
        <time>2026-08-21T09:44:17.000Z</time>
      </trkpt>
      <trkpt lat="45.26448" lon="6.04993">
        <ele>1583.5999755859</ele>
        <time>2026-08-21T09:44:18.000Z</time>
      </trkpt>
      <trkpt lat="45.26446" lon="6.04991">
        <ele>1583</ele>
        <time>2026-08-21T09:44:19.000Z</time>
      </trkpt>
      <trkpt lat="45.26443" lon="6.04989">
        <ele>1582.5999755859</ele>
        <time>2026-08-21T09:44:20.000Z</time>
      </trkpt>
      <trkpt lat="45.26442" lon="6.04988">
        <ele>1582.5999755859</ele>
        <time>2026-08-21T09:44:21.000Z</time>
      </trkpt>
      <trkpt lat="45.26439" lon="6.04985">
        <ele>1582.8000488281</ele>
        <time>2026-08-21T09:44:22.000Z</time>
      </trkpt>
      <trkpt lat="45.26438" lon="6.04983">
        <ele>1583</ele>
        <time>2026-08-21T09:44:23.000Z</time>
      </trkpt>
      <trkpt lat="45.26436" lon="6.04981">
        <ele>1583</ele>
        <time>2026-08-21T09:44:24.000Z</time>
      </trkpt>
      <trkpt lat="45.26434" lon="6.04979">
        <ele>1583.1999511719</ele>
        <time>2026-08-21T09:44:25.000Z</time>
      </trkpt>
      <trkpt lat="45.26432" lon="6.04978">
        <ele>1583.1999511719</ele>
        <time>2026-08-21T09:44:26.000Z</time>
      </trkpt>
      <trkpt lat="45.2643" lon="6.04976">
        <ele>1583.5999755859</ele>
        <time>2026-08-21T09:44:27.000Z</time>
      </trkpt>
      <trkpt lat="45.26429" lon="6.04974">
        <ele>1584</ele>
        <time>2026-08-21T09:44:28.000Z</time>
      </trkpt>
      <trkpt lat="45.26427" lon="6.04973">
        <ele>1584.4000244141</ele>
        <time>2026-08-21T09:44:29.000Z</time>
      </trkpt>
      <trkpt lat="45.26426" lon="6.04971">
        <ele>1585.4000244141</ele>
        <time>2026-08-21T09:44:30.000Z</time>
      </trkpt>
      <trkpt lat="45.26424" lon="6.0497">
        <ele>1585.4000244141</ele>
        <time>2026-08-21T09:44:31.000Z</time>
      </trkpt>
      <trkpt lat="45.26422" lon="6.04969">
        <ele>1585.1999511719</ele>
        <time>2026-08-21T09:44:32.000Z</time>
      </trkpt>
      <trkpt lat="45.26419" lon="6.04968">
        <ele>1585.1999511719</ele>
        <time>2026-08-21T09:44:33.000Z</time>
      </trkpt>
      <trkpt lat="45.26418" lon="6.04968">
        <ele>1585</ele>
        <time>2026-08-21T09:44:34.000Z</time>
      </trkpt>
      <trkpt lat="45.26416" lon="6.04967">
        <ele>1584.5999755859</ele>
        <time>2026-08-21T09:44:35.000Z</time>
      </trkpt>
      <trkpt lat="45.26414" lon="6.04967">
        <ele>1584.4000244141</ele>
        <time>2026-08-21T09:44:36.000Z</time>
      </trkpt>
      <trkpt lat="45.26413" lon="6.04968">
        <ele>1584</ele>
        <time>2026-08-21T09:44:37.000Z</time>
      </trkpt>
      <trkpt lat="45.26411" lon="6.04969">
        <ele>1584</ele>
        <time>2026-08-21T09:44:38.000Z</time>
      </trkpt>
      <trkpt lat="45.26409" lon="6.0497">
        <ele>1584</ele>
        <time>2026-08-21T09:44:39.000Z</time>
      </trkpt>
      <trkpt lat="45.26408" lon="6.0497">
        <ele>1584</ele>
        <time>2026-08-21T09:44:40.000Z</time>
      </trkpt>
      <trkpt lat="45.26406" lon="6.04971">
        <ele>1584.1999511719</ele>
        <time>2026-08-21T09:44:41.000Z</time>
      </trkpt>
      <trkpt lat="45.26405" lon="6.04972">
        <ele>1584.4000244141</ele>
        <time>2026-08-21T09:44:42.000Z</time>
      </trkpt>
      <trkpt lat="45.26404" lon="6.04973">
        <ele>1584.5999755859</ele>
        <time>2026-08-21T09:44:43.000Z</time>
      </trkpt>
      <trkpt lat="45.26402" lon="6.04974">
        <ele>1584.5999755859</ele>
        <time>2026-08-21T09:44:44.000Z</time>
      </trkpt>
      <trkpt lat="45.264" lon="6.04975">
        <ele>1584.8000488281</ele>
        <time>2026-08-21T09:44:45.000Z</time>
      </trkpt>
      <trkpt lat="45.26399" lon="6.04976">
        <ele>1584.8000488281</ele>
        <time>2026-08-21T09:44:46.000Z</time>
      </trkpt>
      <trkpt lat="45.26398" lon="6.04976">
        <ele>1585.1999511719</ele>
        <time>2026-08-21T09:44:47.000Z</time>
      </trkpt>
      <trkpt lat="45.26396" lon="6.04977">
        <ele>1585.1999511719</ele>
        <time>2026-08-21T09:44:48.000Z</time>
      </trkpt>
      <trkpt lat="45.26394" lon="6.04978">
        <ele>1585.8000488281</ele>
        <time>2026-08-21T09:44:49.000Z</time>
      </trkpt>
      <trkpt lat="45.26393" lon="6.04978">
        <ele>1586</ele>
        <time>2026-08-21T09:44:50.000Z</time>
      </trkpt>
      <trkpt lat="45.26391" lon="6.04979">
        <ele>1586.1999511719</ele>
        <time>2026-08-21T09:44:51.000Z</time>
      </trkpt>
      <trkpt lat="45.2639" lon="6.04979">
        <ele>1586.4000244141</ele>
        <time>2026-08-21T09:44:52.000Z</time>
      </trkpt>
      <trkpt lat="45.26388" lon="6.0498">
        <ele>1586.4000244141</ele>
        <time>2026-08-21T09:44:53.000Z</time>
      </trkpt>
      <trkpt lat="45.26387" lon="6.0498">
        <ele>1586.4000244141</ele>
        <time>2026-08-21T09:44:54.000Z</time>
      </trkpt>
      <trkpt lat="45.26385" lon="6.0498">
        <ele>1586.4000244141</ele>
        <time>2026-08-21T09:44:55.000Z</time>
      </trkpt>
      <trkpt lat="45.26383" lon="6.0498">
        <ele>1586.4000244141</ele>
        <time>2026-08-21T09:44:56.000Z</time>
      </trkpt>
      <trkpt lat="45.26382" lon="6.04981">
        <ele>1586.4000244141</ele>
        <time>2026-08-21T09:44:57.000Z</time>
      </trkpt>
      <trkpt lat="45.2638" lon="6.04982">
        <ele>1586.4000244141</ele>
        <time>2026-08-21T09:44:58.000Z</time>
      </trkpt>
      <trkpt lat="45.26378" lon="6.04983">
        <ele>1586.5999755859</ele>
        <time>2026-08-21T09:44:59.000Z</time>
      </trkpt>
      <trkpt lat="45.26377" lon="6.04983">
        <ele>1586.8000488281</ele>
        <time>2026-08-21T09:45:00.000Z</time>
      </trkpt>
      <trkpt lat="45.26375" lon="6.04984">
        <ele>1586.8000488281</ele>
        <time>2026-08-21T09:45:01.000Z</time>
      </trkpt>
      <trkpt lat="45.26374" lon="6.04985">
        <ele>1586.4000244141</ele>
        <time>2026-08-21T09:45:02.000Z</time>
      </trkpt>
      <trkpt lat="45.26372" lon="6.04985">
        <ele>1586.4000244141</ele>
        <time>2026-08-21T09:45:03.000Z</time>
      </trkpt>
      <trkpt lat="45.2637" lon="6.04985">
        <ele>1586.1999511719</ele>
        <time>2026-08-21T09:45:04.000Z</time>
      </trkpt>
      <trkpt lat="45.26369" lon="6.04986">
        <ele>1586.1999511719</ele>
        <time>2026-08-21T09:45:05.000Z</time>
      </trkpt>
      <trkpt lat="45.26367" lon="6.04987">
        <ele>1586.1999511719</ele>
        <time>2026-08-21T09:45:06.000Z</time>
      </trkpt>
      <trkpt lat="45.26366" lon="6.04988">
        <ele>1586</ele>
        <time>2026-08-21T09:45:07.000Z</time>
      </trkpt>
      <trkpt lat="45.26365" lon="6.04988">
        <ele>1586</ele>
        <time>2026-08-21T09:45:08.000Z</time>
      </trkpt>
      <trkpt lat="45.26363" lon="6.04989">
        <ele>1586</ele>
        <time>2026-08-21T09:45:09.000Z</time>
      </trkpt>
      <trkpt lat="45.26361" lon="6.04989">
        <ele>1586</ele>
        <time>2026-08-21T09:45:10.000Z</time>
      </trkpt>
      <trkpt lat="45.2636" lon="6.0499">
        <ele>1586</ele>
        <time>2026-08-21T09:45:11.000Z</time>
      </trkpt>
      <trkpt lat="45.26358" lon="6.0499">
        <ele>1586</ele>
        <time>2026-08-21T09:45:12.000Z</time>
      </trkpt>
      <trkpt lat="45.26357" lon="6.04991">
        <ele>1586.1999511719</ele>
        <time>2026-08-21T09:45:13.000Z</time>
      </trkpt>
      <trkpt lat="45.26356" lon="6.04991">
        <ele>1586.1999511719</ele>
        <time>2026-08-21T09:45:14.000Z</time>
      </trkpt>
      <trkpt lat="45.26354" lon="6.04991">
        <ele>1586.4000244141</ele>
        <time>2026-08-21T09:45:15.000Z</time>
      </trkpt>
      <trkpt lat="45.26353" lon="6.04991">
        <ele>1586.5999755859</ele>
        <time>2026-08-21T09:45:16.000Z</time>
      </trkpt>
      <trkpt lat="45.26352" lon="6.04992">
        <ele>1586.5999755859</ele>
        <time>2026-08-21T09:45:17.000Z</time>
      </trkpt>
      <trkpt lat="45.26351" lon="6.04992">
        <ele>1587</ele>
        <time>2026-08-21T09:45:18.000Z</time>
      </trkpt>
      <trkpt lat="45.26349" lon="6.04993">
        <ele>1587.4000244141</ele>
        <time>2026-08-21T09:45:19.000Z</time>
      </trkpt>
      <trkpt lat="45.26348" lon="6.04993">
        <ele>1588.1999511719</ele>
        <time>2026-08-21T09:45:20.000Z</time>
      </trkpt>
      <trkpt lat="45.26347" lon="6.04994">
        <ele>1589</ele>
        <time>2026-08-21T09:45:21.000Z</time>
      </trkpt>
      <trkpt lat="45.26346" lon="6.04995">
        <ele>1589.5999755859</ele>
        <time>2026-08-21T09:45:22.000Z</time>
      </trkpt>
      <trkpt lat="45.26345" lon="6.04995">
        <ele>1590</ele>
        <time>2026-08-21T09:45:23.000Z</time>
      </trkpt>
      <trkpt lat="45.26343" lon="6.04995">
        <ele>1590.1999511719</ele>
        <time>2026-08-21T09:45:24.000Z</time>
      </trkpt>
      <trkpt lat="45.26342" lon="6.04995">
        <ele>1591</ele>
        <time>2026-08-21T09:45:25.000Z</time>
      </trkpt>
      <trkpt lat="45.2634" lon="6.04995">
        <ele>1591.8000488281</ele>
        <time>2026-08-21T09:45:26.000Z</time>
      </trkpt>
      <trkpt lat="45.26339" lon="6.04994">
        <ele>1592.1999511719</ele>
        <time>2026-08-21T09:45:27.000Z</time>
      </trkpt>
      <trkpt lat="45.26336" lon="6.04994">
        <ele>1593.4000244141</ele>
        <time>2026-08-21T09:45:28.000Z</time>
      </trkpt>
      <trkpt lat="45.26335" lon="6.04994">
        <ele>1593.5999755859</ele>
        <time>2026-08-21T09:45:29.000Z</time>
      </trkpt>
      <trkpt lat="45.26333" lon="6.04993">
        <ele>1593.5999755859</ele>
        <time>2026-08-21T09:45:30.000Z</time>
      </trkpt>
      <trkpt lat="45.26331" lon="6.04993">
        <ele>1593.5999755859</ele>
        <time>2026-08-21T09:45:31.000Z</time>
      </trkpt>
      <trkpt lat="45.26329" lon="6.04992">
        <ele>1593.1999511719</ele>
        <time>2026-08-21T09:45:32.000Z</time>
      </trkpt>
      <trkpt lat="45.26328" lon="6.04991">
        <ele>1593.1999511719</ele>
        <time>2026-08-21T09:45:33.000Z</time>
      </trkpt>
      <trkpt lat="45.26325" lon="6.04991">
        <ele>1593.1999511719</ele>
        <time>2026-08-21T09:45:34.000Z</time>
      </trkpt>
      <trkpt lat="45.26323" lon="6.04991">
        <ele>1593.1999511719</ele>
        <time>2026-08-21T09:45:35.000Z</time>
      </trkpt>
      <trkpt lat="45.26321" lon="6.0499">
        <ele>1593.5999755859</ele>
        <time>2026-08-21T09:45:36.000Z</time>
      </trkpt>
      <trkpt lat="45.26319" lon="6.0499">
        <ele>1593.8000488281</ele>
        <time>2026-08-21T09:45:37.000Z</time>
      </trkpt>
      <trkpt lat="45.26317" lon="6.04989">
        <ele>1595</ele>
        <time>2026-08-21T09:45:38.000Z</time>
      </trkpt>
      <trkpt lat="45.26315" lon="6.04989">
        <ele>1596</ele>
        <time>2026-08-21T09:45:39.000Z</time>
      </trkpt>
      <trkpt lat="45.26313" lon="6.04989">
        <ele>1597.1999511719</ele>
        <time>2026-08-21T09:45:40.000Z</time>
      </trkpt>
      <trkpt lat="45.26312" lon="6.04989">
        <ele>1598.1999511719</ele>
        <time>2026-08-21T09:45:41.000Z</time>
      </trkpt>
      <trkpt lat="45.2631" lon="6.04989">
        <ele>1599.1999511719</ele>
        <time>2026-08-21T09:45:42.000Z</time>
      </trkpt>
      <trkpt lat="45.26309" lon="6.0499">
        <ele>1599.5999755859</ele>
        <time>2026-08-21T09:45:43.000Z</time>
      </trkpt>
      <trkpt lat="45.26307" lon="6.0499">
        <ele>1600.1999511719</ele>
        <time>2026-08-21T09:45:44.000Z</time>
      </trkpt>
      <trkpt lat="45.26305" lon="6.04991">
        <ele>1600.8000488281</ele>
        <time>2026-08-21T09:45:45.000Z</time>
      </trkpt>
      <trkpt lat="45.26304" lon="6.04992">
        <ele>1600.8000488281</ele>
        <time>2026-08-21T09:45:46.000Z</time>
      </trkpt>
      <trkpt lat="45.26302" lon="6.04992">
        <ele>1601.5999755859</ele>
        <time>2026-08-21T09:45:47.000Z</time>
      </trkpt>
      <trkpt lat="45.26301" lon="6.04993">
        <ele>1602.1999511719</ele>
        <time>2026-08-21T09:45:48.000Z</time>
      </trkpt>
      <trkpt lat="45.26299" lon="6.04994">
        <ele>1602</ele>
        <time>2026-08-21T09:45:49.000Z</time>
      </trkpt>
      <trkpt lat="45.26298" lon="6.04995">
        <ele>1601.4000244141</ele>
        <time>2026-08-21T09:45:50.000Z</time>
      </trkpt>
      <trkpt lat="45.26297" lon="6.04996">
        <ele>1601</ele>
        <time>2026-08-21T09:45:51.000Z</time>
      </trkpt>
      <trkpt lat="45.26296" lon="6.04997">
        <ele>1600.8000488281</ele>
        <time>2026-08-21T09:45:52.000Z</time>
      </trkpt>
      <trkpt lat="45.26295" lon="6.04997">
        <ele>1600.4000244141</ele>
        <time>2026-08-21T09:45:53.000Z</time>
      </trkpt>
      <trkpt lat="45.26294" lon="6.04998">
        <ele>1599.5999755859</ele>
        <time>2026-08-21T09:45:54.000Z</time>
      </trkpt>
      <trkpt lat="45.26293" lon="6.04999">
        <ele>1599.1999511719</ele>
        <time>2026-08-21T09:45:55.000Z</time>
      </trkpt>
      <trkpt lat="45.26292" lon="6.04999">
        <ele>1598.8000488281</ele>
        <time>2026-08-21T09:45:56.000Z</time>
      </trkpt>
      <trkpt lat="45.26291" lon="6.04999">
        <ele>1598.4000244141</ele>
        <time>2026-08-21T09:45:57.000Z</time>
      </trkpt>
      <trkpt lat="45.2629" lon="6.05">
        <ele>1598</ele>
        <time>2026-08-21T09:45:58.000Z</time>
      </trkpt>
      <trkpt lat="45.26289" lon="6.05">
        <ele>1597.4000244141</ele>
        <time>2026-08-21T09:45:59.000Z</time>
      </trkpt>
      <trkpt lat="45.26288" lon="6.05">
        <ele>1597.4000244141</ele>
        <time>2026-08-21T09:46:00.000Z</time>
      </trkpt>
      <trkpt lat="45.26287" lon="6.04999">
        <ele>1597.1999511719</ele>
        <time>2026-08-21T09:46:01.000Z</time>
      </trkpt>
      <trkpt lat="45.26285" lon="6.04999">
        <ele>1597.4000244141</ele>
        <time>2026-08-21T09:46:02.000Z</time>
      </trkpt>
      <trkpt lat="45.26284" lon="6.04999">
        <ele>1597.4000244141</ele>
        <time>2026-08-21T09:46:03.000Z</time>
      </trkpt>
      <trkpt lat="45.26283" lon="6.04999">
        <ele>1597.4000244141</ele>
        <time>2026-08-21T09:46:04.000Z</time>
      </trkpt>
      <trkpt lat="45.26282" lon="6.04998">
        <ele>1597.4000244141</ele>
        <time>2026-08-21T09:46:05.000Z</time>
      </trkpt>
      <trkpt lat="45.26281" lon="6.04998">
        <ele>1597.5999755859</ele>
        <time>2026-08-21T09:46:06.000Z</time>
      </trkpt>
      <trkpt lat="45.2628" lon="6.04998">
        <ele>1597.4000244141</ele>
        <time>2026-08-21T09:46:07.000Z</time>
      </trkpt>
      <trkpt lat="45.26279" lon="6.04997">
        <ele>1597.1999511719</ele>
        <time>2026-08-21T09:46:08.000Z</time>
      </trkpt>
      <trkpt lat="45.26277" lon="6.04997">
        <ele>1596.5999755859</ele>
        <time>2026-08-21T09:46:09.000Z</time>
      </trkpt>
      <trkpt lat="45.26276" lon="6.04996">
        <ele>1596</ele>
        <time>2026-08-21T09:46:10.000Z</time>
      </trkpt>
      <trkpt lat="45.26275" lon="6.04996">
        <ele>1595.4000244141</ele>
        <time>2026-08-21T09:46:11.000Z</time>
      </trkpt>
      <trkpt lat="45.26274" lon="6.04995">
        <ele>1595</ele>
        <time>2026-08-21T09:46:12.000Z</time>
      </trkpt>
      <trkpt lat="45.26272" lon="6.04995">
        <ele>1594.5999755859</ele>
        <time>2026-08-21T09:46:13.000Z</time>
      </trkpt>
      <trkpt lat="45.26271" lon="6.04994">
        <ele>1595.4000244141</ele>
        <time>2026-08-21T09:46:14.000Z</time>
      </trkpt>
      <trkpt lat="45.2627" lon="6.04993">
        <ele>1596.1999511719</ele>
        <time>2026-08-21T09:46:15.000Z</time>
      </trkpt>
      <trkpt lat="45.26268" lon="6.04993">
        <ele>1597</ele>
        <time>2026-08-21T09:46:16.000Z</time>
      </trkpt>
      <trkpt lat="45.26267" lon="6.04992">
        <ele>1597.1999511719</ele>
        <time>2026-08-21T09:46:17.000Z</time>
      </trkpt>
      <trkpt lat="45.26267" lon="6.04992">
        <ele>1597.8000488281</ele>
        <time>2026-08-21T09:46:18.000Z</time>
      </trkpt>
      <trkpt lat="45.26266" lon="6.04991">
        <ele>1598.1999511719</ele>
        <time>2026-08-21T09:46:19.000Z</time>
      </trkpt>
      <trkpt lat="45.26265" lon="6.0499">
        <ele>1598.5999755859</ele>
        <time>2026-08-21T09:46:20.000Z</time>
      </trkpt>
      <trkpt lat="45.26264" lon="6.0499">
        <ele>1599</ele>
        <time>2026-08-21T09:46:21.000Z</time>
      </trkpt>
      <trkpt lat="45.26263" lon="6.0499">
        <ele>1599.5999755859</ele>
        <time>2026-08-21T09:46:22.000Z</time>
      </trkpt>
      <trkpt lat="45.26262" lon="6.0499">
        <ele>1600</ele>
        <time>2026-08-21T09:46:23.000Z</time>
      </trkpt>
      <trkpt lat="45.26261" lon="6.0499">
        <ele>1600.5999755859</ele>
        <time>2026-08-21T09:46:24.000Z</time>
      </trkpt>
      <trkpt lat="45.26259" lon="6.04991">
        <ele>1601.4000244141</ele>
        <time>2026-08-21T09:46:25.000Z</time>
      </trkpt>
      <trkpt lat="45.26258" lon="6.04991">
        <ele>1602</ele>
        <time>2026-08-21T09:46:26.000Z</time>
      </trkpt>
      <trkpt lat="45.26257" lon="6.04991">
        <ele>1602.5999755859</ele>
        <time>2026-08-21T09:46:27.000Z</time>
      </trkpt>
      <trkpt lat="45.26256" lon="6.04992">
        <ele>1603</ele>
        <time>2026-08-21T09:46:28.000Z</time>
      </trkpt>
      <trkpt lat="45.26255" lon="6.04992">
        <ele>1603.4000244141</ele>
        <time>2026-08-21T09:46:29.000Z</time>
      </trkpt>
      <trkpt lat="45.26254" lon="6.04992">
        <ele>1603.8000488281</ele>
        <time>2026-08-21T09:46:30.000Z</time>
      </trkpt>
      <trkpt lat="45.26253" lon="6.04993">
        <ele>1604</ele>
        <time>2026-08-21T09:46:31.000Z</time>
      </trkpt>
      <trkpt lat="45.26252" lon="6.04994">
        <ele>1604.1999511719</ele>
        <time>2026-08-21T09:46:32.000Z</time>
      </trkpt>
      <trkpt lat="45.26251" lon="6.04994">
        <ele>1604.4000244141</ele>
        <time>2026-08-21T09:46:33.000Z</time>
      </trkpt>
      <trkpt lat="45.2625" lon="6.04994">
        <ele>1604.8000488281</ele>
        <time>2026-08-21T09:46:34.000Z</time>
      </trkpt>
      <trkpt lat="45.2625" lon="6.04995">
        <ele>1605</ele>
        <time>2026-08-21T09:46:35.000Z</time>
      </trkpt>
      <trkpt lat="45.26249" lon="6.04996">
        <ele>1605.1999511719</ele>
        <time>2026-08-21T09:46:36.000Z</time>
      </trkpt>
      <trkpt lat="45.26248" lon="6.04997">
        <ele>1605.4000244141</ele>
        <time>2026-08-21T09:46:37.000Z</time>
      </trkpt>
      <trkpt lat="45.26247" lon="6.04997">
        <ele>1605.5999755859</ele>
        <time>2026-08-21T09:46:38.000Z</time>
      </trkpt>
      <trkpt lat="45.26247" lon="6.04998">
        <ele>1606.1999511719</ele>
        <time>2026-08-21T09:46:39.000Z</time>
      </trkpt>
      <trkpt lat="45.26246" lon="6.04999">
        <ele>1606.4000244141</ele>
        <time>2026-08-21T09:46:40.000Z</time>
      </trkpt>
      <trkpt lat="45.26245" lon="6.05">
        <ele>1606.5999755859</ele>
        <time>2026-08-21T09:46:41.000Z</time>
      </trkpt>
      <trkpt lat="45.26244" lon="6.05001">
        <ele>1607.4000244141</ele>
        <time>2026-08-21T09:46:42.000Z</time>
      </trkpt>
      <trkpt lat="45.26243" lon="6.05">
        <ele>1607.8000488281</ele>
        <time>2026-08-21T09:46:43.000Z</time>
      </trkpt>
      <trkpt lat="45.26242" lon="6.05001">
        <ele>1608.5999755859</ele>
        <time>2026-08-21T09:46:44.000Z</time>
      </trkpt>
      <trkpt lat="45.26241" lon="6.05002">
        <ele>1608.8000488281</ele>
        <time>2026-08-21T09:46:45.000Z</time>
      </trkpt>
      <trkpt lat="45.2624" lon="6.05002">
        <ele>1609</ele>
        <time>2026-08-21T09:46:46.000Z</time>
      </trkpt>
      <trkpt lat="45.26239" lon="6.05002">
        <ele>1609.1999511719</ele>
        <time>2026-08-21T09:46:47.000Z</time>
      </trkpt>
      <trkpt lat="45.26238" lon="6.05002">
        <ele>1609.1999511719</ele>
        <time>2026-08-21T09:46:48.000Z</time>
      </trkpt>
      <trkpt lat="45.26237" lon="6.05003">
        <ele>1609.4000244141</ele>
        <time>2026-08-21T09:46:49.000Z</time>
      </trkpt>
      <trkpt lat="45.26235" lon="6.05003">
        <ele>1609.4000244141</ele>
        <time>2026-08-21T09:46:50.000Z</time>
      </trkpt>
      <trkpt lat="45.26234" lon="6.05003">
        <ele>1609.4000244141</ele>
        <time>2026-08-21T09:46:51.000Z</time>
      </trkpt>
      <trkpt lat="45.26233" lon="6.05003">
        <ele>1609.4000244141</ele>
        <time>2026-08-21T09:46:52.000Z</time>
      </trkpt>
      <trkpt lat="45.26232" lon="6.05003">
        <ele>1609.5999755859</ele>
        <time>2026-08-21T09:46:53.000Z</time>
      </trkpt>
      <trkpt lat="45.2623" lon="6.05003">
        <ele>1609.5999755859</ele>
        <time>2026-08-21T09:46:54.000Z</time>
      </trkpt>
      <trkpt lat="45.26229" lon="6.05002">
        <ele>1609.1999511719</ele>
        <time>2026-08-21T09:46:55.000Z</time>
      </trkpt>
      <trkpt lat="45.26228" lon="6.05003">
        <ele>1608.8000488281</ele>
        <time>2026-08-21T09:46:56.000Z</time>
      </trkpt>
      <trkpt lat="45.26227" lon="6.05002">
        <ele>1608</ele>
        <time>2026-08-21T09:46:57.000Z</time>
      </trkpt>
      <trkpt lat="45.26225" lon="6.05002">
        <ele>1607.5999755859</ele>
        <time>2026-08-21T09:46:58.000Z</time>
      </trkpt>
      <trkpt lat="45.26224" lon="6.05003">
        <ele>1607.4000244141</ele>
        <time>2026-08-21T09:46:59.000Z</time>
      </trkpt>
      <trkpt lat="45.26223" lon="6.05003">
        <ele>1607</ele>
        <time>2026-08-21T09:47:00.000Z</time>
      </trkpt>
      <trkpt lat="45.26221" lon="6.05003">
        <ele>1606.5999755859</ele>
        <time>2026-08-21T09:47:01.000Z</time>
      </trkpt>
      <trkpt lat="45.2622" lon="6.05003">
        <ele>1605.4000244141</ele>
        <time>2026-08-21T09:47:02.000Z</time>
      </trkpt>
      <trkpt lat="45.26219" lon="6.05003">
        <ele>1605.5999755859</ele>
        <time>2026-08-21T09:47:03.000Z</time>
      </trkpt>
      <trkpt lat="45.26218" lon="6.05003">
        <ele>1605.8000488281</ele>
        <time>2026-08-21T09:47:04.000Z</time>
      </trkpt>
      <trkpt lat="45.26217" lon="6.05004">
        <ele>1605.8000488281</ele>
        <time>2026-08-21T09:47:05.000Z</time>
      </trkpt>
      <trkpt lat="45.26216" lon="6.05005">
        <ele>1606</ele>
        <time>2026-08-21T09:47:06.000Z</time>
      </trkpt>
      <trkpt lat="45.26216" lon="6.05005">
        <ele>1606</ele>
        <time>2026-08-21T09:47:07.000Z</time>
      </trkpt>
      <trkpt lat="45.26214" lon="6.05005">
        <ele>1606</ele>
        <time>2026-08-21T09:47:08.000Z</time>
      </trkpt>
      <trkpt lat="45.26213" lon="6.05005">
        <ele>1606</ele>
        <time>2026-08-21T09:47:09.000Z</time>
      </trkpt>
      <trkpt lat="45.26212" lon="6.05005">
        <ele>1606</ele>
        <time>2026-08-21T09:47:10.000Z</time>
      </trkpt>
      <trkpt lat="45.26211" lon="6.05005">
        <ele>1606</ele>
        <time>2026-08-21T09:47:11.000Z</time>
      </trkpt>
      <trkpt lat="45.2621" lon="6.05005">
        <ele>1606</ele>
        <time>2026-08-21T09:47:12.000Z</time>
      </trkpt>
      <trkpt lat="45.26209" lon="6.05005">
        <ele>1606</ele>
        <time>2026-08-21T09:47:13.000Z</time>
      </trkpt>
      <trkpt lat="45.26208" lon="6.05006">
        <ele>1606</ele>
        <time>2026-08-21T09:47:14.000Z</time>
      </trkpt>
      <trkpt lat="45.26207" lon="6.05006">
        <ele>1606</ele>
        <time>2026-08-21T09:47:15.000Z</time>
      </trkpt>
      <trkpt lat="45.26206" lon="6.05007">
        <ele>1606.1999511719</ele>
        <time>2026-08-21T09:47:16.000Z</time>
      </trkpt>
      <trkpt lat="45.26205" lon="6.05007">
        <ele>1606.5999755859</ele>
        <time>2026-08-21T09:47:17.000Z</time>
      </trkpt>
      <trkpt lat="45.26203" lon="6.05008">
        <ele>1606.8000488281</ele>
        <time>2026-08-21T09:47:18.000Z</time>
      </trkpt>
      <trkpt lat="45.26203" lon="6.05008">
        <ele>1607</ele>
        <time>2026-08-21T09:47:19.000Z</time>
      </trkpt>
      <trkpt lat="45.26201" lon="6.05008">
        <ele>1607.5999755859</ele>
        <time>2026-08-21T09:47:20.000Z</time>
      </trkpt>
      <trkpt lat="45.262" lon="6.05008">
        <ele>1608</ele>
        <time>2026-08-21T09:47:21.000Z</time>
      </trkpt>
      <trkpt lat="45.262" lon="6.05008">
        <ele>1608.4000244141</ele>
        <time>2026-08-21T09:47:22.000Z</time>
      </trkpt>
      <trkpt lat="45.26199" lon="6.05008">
        <ele>1609.1999511719</ele>
        <time>2026-08-21T09:47:23.000Z</time>
      </trkpt>
      <trkpt lat="45.26198" lon="6.05009">
        <ele>1609.5999755859</ele>
        <time>2026-08-21T09:47:24.000Z</time>
      </trkpt>
      <trkpt lat="45.26196" lon="6.05009">
        <ele>1610</ele>
        <time>2026-08-21T09:47:25.000Z</time>
      </trkpt>
      <trkpt lat="45.26195" lon="6.05009">
        <ele>1610.4000244141</ele>
        <time>2026-08-21T09:47:26.000Z</time>
      </trkpt>
      <trkpt lat="45.26194" lon="6.05009">
        <ele>1610.8000488281</ele>
        <time>2026-08-21T09:47:27.000Z</time>
      </trkpt>
      <trkpt lat="45.26193" lon="6.0501">
        <ele>1611</ele>
        <time>2026-08-21T09:47:28.000Z</time>
      </trkpt>
      <trkpt lat="45.26192" lon="6.0501">
        <ele>1611.1999511719</ele>
        <time>2026-08-21T09:47:29.000Z</time>
      </trkpt>
      <trkpt lat="45.2619" lon="6.0501">
        <ele>1611.4000244141</ele>
        <time>2026-08-21T09:47:30.000Z</time>
      </trkpt>
      <trkpt lat="45.26189" lon="6.05011">
        <ele>1611.5999755859</ele>
        <time>2026-08-21T09:47:31.000Z</time>
      </trkpt>
      <trkpt lat="45.26187" lon="6.05011">
        <ele>1612.1999511719</ele>
        <time>2026-08-21T09:47:32.000Z</time>
      </trkpt>
      <trkpt lat="45.26186" lon="6.05011">
        <ele>1614</ele>
        <time>2026-08-21T09:47:33.000Z</time>
      </trkpt>
      <trkpt lat="45.26184" lon="6.05011">
        <ele>1614.5999755859</ele>
        <time>2026-08-21T09:47:34.000Z</time>
      </trkpt>
      <trkpt lat="45.26182" lon="6.05011">
        <ele>1614.5999755859</ele>
        <time>2026-08-21T09:47:35.000Z</time>
      </trkpt>
      <trkpt lat="45.26181" lon="6.05012">
        <ele>1614.8000488281</ele>
        <time>2026-08-21T09:47:36.000Z</time>
      </trkpt>
      <trkpt lat="45.2618" lon="6.05012">
        <ele>1615.1999511719</ele>
        <time>2026-08-21T09:47:37.000Z</time>
      </trkpt>
      <trkpt lat="45.26179" lon="6.05012">
        <ele>1615.1999511719</ele>
        <time>2026-08-21T09:47:38.000Z</time>
      </trkpt>
      <trkpt lat="45.26177" lon="6.05011">
        <ele>1616</ele>
        <time>2026-08-21T09:47:39.000Z</time>
      </trkpt>
      <trkpt lat="45.26175" lon="6.05011">
        <ele>1616.5999755859</ele>
        <time>2026-08-21T09:47:40.000Z</time>
      </trkpt>
      <trkpt lat="45.26174" lon="6.05011">
        <ele>1616.8000488281</ele>
        <time>2026-08-21T09:47:41.000Z</time>
      </trkpt>
      <trkpt lat="45.26173" lon="6.0501">
        <ele>1618.4000244141</ele>
        <time>2026-08-21T09:47:42.000Z</time>
      </trkpt>
      <trkpt lat="45.26171" lon="6.05009">
        <ele>1619.5999755859</ele>
        <time>2026-08-21T09:47:43.000Z</time>
      </trkpt>
      <trkpt lat="45.26169" lon="6.05008">
        <ele>1620.1999511719</ele>
        <time>2026-08-21T09:47:44.000Z</time>
      </trkpt>
      <trkpt lat="45.26168" lon="6.05007">
        <ele>1621.4000244141</ele>
        <time>2026-08-21T09:47:45.000Z</time>
      </trkpt>
      <trkpt lat="45.26166" lon="6.05006">
        <ele>1622.5999755859</ele>
        <time>2026-08-21T09:47:46.000Z</time>
      </trkpt>
      <trkpt lat="45.26164" lon="6.05004">
        <ele>1623.4000244141</ele>
        <time>2026-08-21T09:47:47.000Z</time>
      </trkpt>
      <trkpt lat="45.26162" lon="6.05003">
        <ele>1624.8000488281</ele>
        <time>2026-08-21T09:47:48.000Z</time>
      </trkpt>
      <trkpt lat="45.26161" lon="6.05002">
        <ele>1625.5999755859</ele>
        <time>2026-08-21T09:47:49.000Z</time>
      </trkpt>
      <trkpt lat="45.26158" lon="6.05001">
        <ele>1626.5999755859</ele>
        <time>2026-08-21T09:47:50.000Z</time>
      </trkpt>
      <trkpt lat="45.26156" lon="6.05">
        <ele>1627.4000244141</ele>
        <time>2026-08-21T09:47:51.000Z</time>
      </trkpt>
      <trkpt lat="45.26155" lon="6.04999">
        <ele>1628.1999511719</ele>
        <time>2026-08-21T09:47:52.000Z</time>
      </trkpt>
      <trkpt lat="45.26153" lon="6.04998">
        <ele>1628</ele>
        <time>2026-08-21T09:47:53.000Z</time>
      </trkpt>
      <trkpt lat="45.26151" lon="6.04996">
        <ele>1626.8000488281</ele>
        <time>2026-08-21T09:47:54.000Z</time>
      </trkpt>
      <trkpt lat="45.26149" lon="6.04995">
        <ele>1626.4000244141</ele>
        <time>2026-08-21T09:47:55.000Z</time>
      </trkpt>
      <trkpt lat="45.26147" lon="6.04993">
        <ele>1626.1999511719</ele>
        <time>2026-08-21T09:47:56.000Z</time>
      </trkpt>
      <trkpt lat="45.26145" lon="6.04992">
        <ele>1625</ele>
        <time>2026-08-21T09:47:57.000Z</time>
      </trkpt>
      <trkpt lat="45.26143" lon="6.04991">
        <ele>1624.5999755859</ele>
        <time>2026-08-21T09:47:58.000Z</time>
      </trkpt>
      <trkpt lat="45.26141" lon="6.04989">
        <ele>1623.8000488281</ele>
        <time>2026-08-21T09:47:59.000Z</time>
      </trkpt>
      <trkpt lat="45.26139" lon="6.04988">
        <ele>1623.1999511719</ele>
        <time>2026-08-21T09:48:00.000Z</time>
      </trkpt>
      <trkpt lat="45.26138" lon="6.04985">
        <ele>1622.4000244141</ele>
        <time>2026-08-21T09:48:01.000Z</time>
      </trkpt>
      <trkpt lat="45.26137" lon="6.04983">
        <ele>1622</ele>
        <time>2026-08-21T09:48:02.000Z</time>
      </trkpt>
      <trkpt lat="45.26135" lon="6.04981">
        <ele>1621</ele>
        <time>2026-08-21T09:48:03.000Z</time>
      </trkpt>
      <trkpt lat="45.26133" lon="6.04979">
        <ele>1621.8000488281</ele>
        <time>2026-08-21T09:48:04.000Z</time>
      </trkpt>
      <trkpt lat="45.26132" lon="6.04976">
        <ele>1622.5999755859</ele>
        <time>2026-08-21T09:48:05.000Z</time>
      </trkpt>
      <trkpt lat="45.2613" lon="6.04974">
        <ele>1623</ele>
        <time>2026-08-21T09:48:06.000Z</time>
      </trkpt>
      <trkpt lat="45.26129" lon="6.04971">
        <ele>1623.4000244141</ele>
        <time>2026-08-21T09:48:07.000Z</time>
      </trkpt>
      <trkpt lat="45.26127" lon="6.04969">
        <ele>1623.8000488281</ele>
        <time>2026-08-21T09:48:08.000Z</time>
      </trkpt>
      <trkpt lat="45.26125" lon="6.04966">
        <ele>1624.1999511719</ele>
        <time>2026-08-21T09:48:09.000Z</time>
      </trkpt>
      <trkpt lat="45.26124" lon="6.04963">
        <ele>1624.5999755859</ele>
        <time>2026-08-21T09:48:10.000Z</time>
      </trkpt>
      <trkpt lat="45.26123" lon="6.04961">
        <ele>1626.8000488281</ele>
        <time>2026-08-21T09:48:11.000Z</time>
      </trkpt>
      <trkpt lat="45.26121" lon="6.04958">
        <ele>1627</ele>
        <time>2026-08-21T09:48:12.000Z</time>
      </trkpt>
      <trkpt lat="45.2612" lon="6.04955">
        <ele>1627</ele>
        <time>2026-08-21T09:48:13.000Z</time>
      </trkpt>
      <trkpt lat="45.26119" lon="6.04953">
        <ele>1627.1999511719</ele>
        <time>2026-08-21T09:48:14.000Z</time>
      </trkpt>
      <trkpt lat="45.26118" lon="6.0495">
        <ele>1627.1999511719</ele>
        <time>2026-08-21T09:48:15.000Z</time>
      </trkpt>
      <trkpt lat="45.26116" lon="6.04948">
        <ele>1627.1999511719</ele>
        <time>2026-08-21T09:48:16.000Z</time>
      </trkpt>
      <trkpt lat="45.26115" lon="6.04945">
        <ele>1627.4000244141</ele>
        <time>2026-08-21T09:48:17.000Z</time>
      </trkpt>
      <trkpt lat="45.26114" lon="6.04943">
        <ele>1627</ele>
        <time>2026-08-21T09:48:18.000Z</time>
      </trkpt>
      <trkpt lat="45.26113" lon="6.0494">
        <ele>1626.5999755859</ele>
        <time>2026-08-21T09:48:19.000Z</time>
      </trkpt>
      <trkpt lat="45.26112" lon="6.04937">
        <ele>1626</ele>
        <time>2026-08-21T09:48:20.000Z</time>
      </trkpt>
      <trkpt lat="45.26111" lon="6.04935">
        <ele>1625.5999755859</ele>
        <time>2026-08-21T09:48:21.000Z</time>
      </trkpt>
      <trkpt lat="45.26109" lon="6.04932">
        <ele>1625.4000244141</ele>
        <time>2026-08-21T09:48:22.000Z</time>
      </trkpt>
      <trkpt lat="45.26108" lon="6.0493">
        <ele>1625.1999511719</ele>
        <time>2026-08-21T09:48:23.000Z</time>
      </trkpt>
      <trkpt lat="45.26107" lon="6.04928">
        <ele>1625</ele>
        <time>2026-08-21T09:48:24.000Z</time>
      </trkpt>
      <trkpt lat="45.26106" lon="6.04926">
        <ele>1625.1999511719</ele>
        <time>2026-08-21T09:48:25.000Z</time>
      </trkpt>
      <trkpt lat="45.26105" lon="6.04924">
        <ele>1625.5999755859</ele>
        <time>2026-08-21T09:48:26.000Z</time>
      </trkpt>
      <trkpt lat="45.26105" lon="6.04921">
        <ele>1626.1999511719</ele>
        <time>2026-08-21T09:48:27.000Z</time>
      </trkpt>
      <trkpt lat="45.26104" lon="6.04918">
        <ele>1626.5999755859</ele>
        <time>2026-08-21T09:48:28.000Z</time>
      </trkpt>
      <trkpt lat="45.26104" lon="6.04916">
        <ele>1627</ele>
        <time>2026-08-21T09:48:29.000Z</time>
      </trkpt>
      <trkpt lat="45.26103" lon="6.04913">
        <ele>1627.4000244141</ele>
        <time>2026-08-21T09:48:30.000Z</time>
      </trkpt>
      <trkpt lat="45.26102" lon="6.0491">
        <ele>1627.5999755859</ele>
        <time>2026-08-21T09:48:31.000Z</time>
      </trkpt>
      <trkpt lat="45.26102" lon="6.04908">
        <ele>1628.1999511719</ele>
        <time>2026-08-21T09:48:32.000Z</time>
      </trkpt>
      <trkpt lat="45.26101" lon="6.04904">
        <ele>1629.4000244141</ele>
        <time>2026-08-21T09:48:33.000Z</time>
      </trkpt>
      <trkpt lat="45.26101" lon="6.04901">
        <ele>1629.8000488281</ele>
        <time>2026-08-21T09:48:34.000Z</time>
      </trkpt>
      <trkpt lat="45.261" lon="6.04899">
        <ele>1630.1999511719</ele>
        <time>2026-08-21T09:48:35.000Z</time>
      </trkpt>
      <trkpt lat="45.261" lon="6.04896">
        <ele>1630.8000488281</ele>
        <time>2026-08-21T09:48:36.000Z</time>
      </trkpt>
      <trkpt lat="45.26099" lon="6.04893">
        <ele>1631.1999511719</ele>
        <time>2026-08-21T09:48:37.000Z</time>
      </trkpt>
      <trkpt lat="45.26099" lon="6.04891">
        <ele>1633.4000244141</ele>
        <time>2026-08-21T09:48:38.000Z</time>
      </trkpt>
      <trkpt lat="45.26098" lon="6.04889">
        <ele>1634.8000488281</ele>
        <time>2026-08-21T09:48:39.000Z</time>
      </trkpt>
      <trkpt lat="45.26097" lon="6.04886">
        <ele>1634.8000488281</ele>
        <time>2026-08-21T09:48:40.000Z</time>
      </trkpt>
      <trkpt lat="45.26097" lon="6.04885">
        <ele>1634.5999755859</ele>
        <time>2026-08-21T09:48:41.000Z</time>
      </trkpt>
      <trkpt lat="45.26096" lon="6.04883">
        <ele>1634.1999511719</ele>
        <time>2026-08-21T09:48:42.000Z</time>
      </trkpt>
      <trkpt lat="45.26096" lon="6.0488">
        <ele>1633.5999755859</ele>
        <time>2026-08-21T09:48:43.000Z</time>
      </trkpt>
      <trkpt lat="45.26095" lon="6.04878">
        <ele>1633</ele>
        <time>2026-08-21T09:48:44.000Z</time>
      </trkpt>
      <trkpt lat="45.26095" lon="6.04876">
        <ele>1632.8000488281</ele>
        <time>2026-08-21T09:48:45.000Z</time>
      </trkpt>
      <trkpt lat="45.26093" lon="6.04873">
        <ele>1632.1999511719</ele>
        <time>2026-08-21T09:48:46.000Z</time>
      </trkpt>
      <trkpt lat="45.26093" lon="6.0487">
        <ele>1631.8000488281</ele>
        <time>2026-08-21T09:48:47.000Z</time>
      </trkpt>
      <trkpt lat="45.26092" lon="6.04868">
        <ele>1631.1999511719</ele>
        <time>2026-08-21T09:48:48.000Z</time>
      </trkpt>
      <trkpt lat="45.26091" lon="6.04866">
        <ele>1630.5999755859</ele>
        <time>2026-08-21T09:48:49.000Z</time>
      </trkpt>
      <trkpt lat="45.2609" lon="6.04864">
        <ele>1630.1999511719</ele>
        <time>2026-08-21T09:48:50.000Z</time>
      </trkpt>
      <trkpt lat="45.2609" lon="6.04862">
        <ele>1629.8000488281</ele>
        <time>2026-08-21T09:48:51.000Z</time>
      </trkpt>
      <trkpt lat="45.26089" lon="6.0486">
        <ele>1629.1999511719</ele>
        <time>2026-08-21T09:48:52.000Z</time>
      </trkpt>
      <trkpt lat="45.26088" lon="6.04858">
        <ele>1628.8000488281</ele>
        <time>2026-08-21T09:48:53.000Z</time>
      </trkpt>
      <trkpt lat="45.26087" lon="6.04857">
        <ele>1628.1999511719</ele>
        <time>2026-08-21T09:48:54.000Z</time>
      </trkpt>
      <trkpt lat="45.26087" lon="6.04855">
        <ele>1627.4000244141</ele>
        <time>2026-08-21T09:48:55.000Z</time>
      </trkpt>
      <trkpt lat="45.26086" lon="6.04852">
        <ele>1626.5999755859</ele>
        <time>2026-08-21T09:48:56.000Z</time>
      </trkpt>
      <trkpt lat="45.26085" lon="6.04849">
        <ele>1626.1999511719</ele>
        <time>2026-08-21T09:48:57.000Z</time>
      </trkpt>
      <trkpt lat="45.26085" lon="6.04848">
        <ele>1625.8000488281</ele>
        <time>2026-08-21T09:48:58.000Z</time>
      </trkpt>
      <trkpt lat="45.26084" lon="6.04846">
        <ele>1626</ele>
        <time>2026-08-21T09:48:59.000Z</time>
      </trkpt>
      <trkpt lat="45.26083" lon="6.04844">
        <ele>1626.4000244141</ele>
        <time>2026-08-21T09:49:00.000Z</time>
      </trkpt>
      <trkpt lat="45.26082" lon="6.04842">
        <ele>1626.5999755859</ele>
        <time>2026-08-21T09:49:01.000Z</time>
      </trkpt>
      <trkpt lat="45.26082" lon="6.04841">
        <ele>1626.8000488281</ele>
        <time>2026-08-21T09:49:02.000Z</time>
      </trkpt>
      <trkpt lat="45.26081" lon="6.04839">
        <ele>1629.1999511719</ele>
        <time>2026-08-21T09:49:03.000Z</time>
      </trkpt>
      <trkpt lat="45.26081" lon="6.04837">
        <ele>1629.1999511719</ele>
        <time>2026-08-21T09:49:04.000Z</time>
      </trkpt>
      <trkpt lat="45.2608" lon="6.04835">
        <ele>1629.1999511719</ele>
        <time>2026-08-21T09:49:05.000Z</time>
      </trkpt>
      <trkpt lat="45.26079" lon="6.04834">
        <ele>1629.1999511719</ele>
        <time>2026-08-21T09:49:06.000Z</time>
      </trkpt>
      <trkpt lat="45.26079" lon="6.04832">
        <ele>1629.1999511719</ele>
        <time>2026-08-21T09:49:07.000Z</time>
      </trkpt>
      <trkpt lat="45.26078" lon="6.0483">
        <ele>1629.1999511719</ele>
        <time>2026-08-21T09:49:08.000Z</time>
      </trkpt>
      <trkpt lat="45.26077" lon="6.04828">
        <ele>1629</ele>
        <time>2026-08-21T09:49:09.000Z</time>
      </trkpt>
      <trkpt lat="45.26076" lon="6.04828">
        <ele>1629.5999755859</ele>
        <time>2026-08-21T09:49:10.000Z</time>
      </trkpt>
      <trkpt lat="45.26075" lon="6.04827">
        <ele>1630</ele>
        <time>2026-08-21T09:49:11.000Z</time>
      </trkpt>
      <trkpt lat="45.26074" lon="6.04825">
        <ele>1630.4000244141</ele>
        <time>2026-08-21T09:49:12.000Z</time>
      </trkpt>
      <trkpt lat="45.26073" lon="6.04824">
        <ele>1630.8000488281</ele>
        <time>2026-08-21T09:49:13.000Z</time>
      </trkpt>
      <trkpt lat="45.26073" lon="6.04822">
        <ele>1631.5999755859</ele>
        <time>2026-08-21T09:49:14.000Z</time>
      </trkpt>
      <trkpt lat="45.26072" lon="6.04821">
        <ele>1632.5999755859</ele>
        <time>2026-08-21T09:49:15.000Z</time>
      </trkpt>
      <trkpt lat="45.26071" lon="6.04819">
        <ele>1633.1999511719</ele>
        <time>2026-08-21T09:49:16.000Z</time>
      </trkpt>
      <trkpt lat="45.2607" lon="6.04818">
        <ele>1634.4000244141</ele>
        <time>2026-08-21T09:49:17.000Z</time>
      </trkpt>
      <trkpt lat="45.26069" lon="6.04816">
        <ele>1635</ele>
        <time>2026-08-21T09:49:18.000Z</time>
      </trkpt>
      <trkpt lat="45.26068" lon="6.04815">
        <ele>1635.1999511719</ele>
        <time>2026-08-21T09:49:19.000Z</time>
      </trkpt>
      <trkpt lat="45.26067" lon="6.04814">
        <ele>1635.4000244141</ele>
        <time>2026-08-21T09:49:20.000Z</time>
      </trkpt>
      <trkpt lat="45.26066" lon="6.04813">
        <ele>1635.8000488281</ele>
        <time>2026-08-21T09:49:21.000Z</time>
      </trkpt>
      <trkpt lat="45.26065" lon="6.04811">
        <ele>1636</ele>
        <time>2026-08-21T09:49:22.000Z</time>
      </trkpt>
      <trkpt lat="45.26064" lon="6.04811">
        <ele>1636.4000244141</ele>
        <time>2026-08-21T09:49:23.000Z</time>
      </trkpt>
      <trkpt lat="45.26063" lon="6.0481">
        <ele>1636.8000488281</ele>
        <time>2026-08-21T09:49:24.000Z</time>
      </trkpt>
      <trkpt lat="45.26061" lon="6.04809">
        <ele>1637.1999511719</ele>
        <time>2026-08-21T09:49:25.000Z</time>
      </trkpt>
      <trkpt lat="45.2606" lon="6.04809">
        <ele>1636</ele>
        <time>2026-08-21T09:49:26.000Z</time>
      </trkpt>
      <trkpt lat="45.26058" lon="6.04808">
        <ele>1635.8000488281</ele>
        <time>2026-08-21T09:49:27.000Z</time>
      </trkpt>
      <trkpt lat="45.26057" lon="6.04808">
        <ele>1635.5999755859</ele>
        <time>2026-08-21T09:49:28.000Z</time>
      </trkpt>
      <trkpt lat="45.26056" lon="6.04808">
        <ele>1635.5999755859</ele>
        <time>2026-08-21T09:49:29.000Z</time>
      </trkpt>
      <trkpt lat="45.26055" lon="6.04807">
        <ele>1635.4000244141</ele>
        <time>2026-08-21T09:49:30.000Z</time>
      </trkpt>
      <trkpt lat="45.26053" lon="6.04807">
        <ele>1635</ele>
        <time>2026-08-21T09:49:31.000Z</time>
      </trkpt>
      <trkpt lat="45.26052" lon="6.04806">
        <ele>1635</ele>
        <time>2026-08-21T09:49:32.000Z</time>
      </trkpt>
      <trkpt lat="45.26051" lon="6.04805">
        <ele>1634.8000488281</ele>
        <time>2026-08-21T09:49:33.000Z</time>
      </trkpt>
      <trkpt lat="45.2605" lon="6.04805">
        <ele>1634.5999755859</ele>
        <time>2026-08-21T09:49:34.000Z</time>
      </trkpt>
      <trkpt lat="45.26048" lon="6.04804">
        <ele>1634.8000488281</ele>
        <time>2026-08-21T09:49:35.000Z</time>
      </trkpt>
      <trkpt lat="45.26047" lon="6.04803">
        <ele>1634.8000488281</ele>
        <time>2026-08-21T09:49:36.000Z</time>
      </trkpt>
      <trkpt lat="45.26046" lon="6.04803">
        <ele>1634.8000488281</ele>
        <time>2026-08-21T09:49:37.000Z</time>
      </trkpt>
      <trkpt lat="45.26045" lon="6.04802">
        <ele>1634.8000488281</ele>
        <time>2026-08-21T09:49:38.000Z</time>
      </trkpt>
      <trkpt lat="45.26043" lon="6.04802">
        <ele>1634.8000488281</ele>
        <time>2026-08-21T09:49:39.000Z</time>
      </trkpt>
      <trkpt lat="45.26042" lon="6.04802">
        <ele>1634.5999755859</ele>
        <time>2026-08-21T09:49:40.000Z</time>
      </trkpt>
      <trkpt lat="45.26041" lon="6.04802">
        <ele>1634.5999755859</ele>
        <time>2026-08-21T09:49:41.000Z</time>
      </trkpt>
      <trkpt lat="45.26039" lon="6.04802">
        <ele>1634.1999511719</ele>
        <time>2026-08-21T09:49:42.000Z</time>
      </trkpt>
      <trkpt lat="45.26038" lon="6.04803">
        <ele>1634</ele>
        <time>2026-08-21T09:49:43.000Z</time>
      </trkpt>
      <trkpt lat="45.26037" lon="6.04804">
        <ele>1634</ele>
        <time>2026-08-21T09:49:44.000Z</time>
      </trkpt>
      <trkpt lat="45.26035" lon="6.04805">
        <ele>1634</ele>
        <time>2026-08-21T09:49:45.000Z</time>
      </trkpt>
      <trkpt lat="45.26034" lon="6.04807">
        <ele>1634</ele>
        <time>2026-08-21T09:49:46.000Z</time>
      </trkpt>
      <trkpt lat="45.26033" lon="6.04808">
        <ele>1634.1999511719</ele>
        <time>2026-08-21T09:49:47.000Z</time>
      </trkpt>
      <trkpt lat="45.26032" lon="6.0481">
        <ele>1634.4000244141</ele>
        <time>2026-08-21T09:49:48.000Z</time>
      </trkpt>
      <trkpt lat="45.2603" lon="6.04811">
        <ele>1634.5999755859</ele>
        <time>2026-08-21T09:49:49.000Z</time>
      </trkpt>
      <trkpt lat="45.26029" lon="6.04813">
        <ele>1635</ele>
        <time>2026-08-21T09:49:50.000Z</time>
      </trkpt>
      <trkpt lat="45.26028" lon="6.04814">
        <ele>1635.5999755859</ele>
        <time>2026-08-21T09:49:51.000Z</time>
      </trkpt>
      <trkpt lat="45.26028" lon="6.04816">
        <ele>1635.5999755859</ele>
        <time>2026-08-21T09:49:52.000Z</time>
      </trkpt>
      <trkpt lat="45.26027" lon="6.04817">
        <ele>1636</ele>
        <time>2026-08-21T09:49:53.000Z</time>
      </trkpt>
      <trkpt lat="45.26026" lon="6.04819">
        <ele>1636.5999755859</ele>
        <time>2026-08-21T09:49:54.000Z</time>
      </trkpt>
      <trkpt lat="45.26025" lon="6.0482">
        <ele>1637</ele>
        <time>2026-08-21T09:49:55.000Z</time>
      </trkpt>
      <trkpt lat="45.26024" lon="6.04821">
        <ele>1638</ele>
        <time>2026-08-21T09:49:56.000Z</time>
      </trkpt>
      <trkpt lat="45.26023" lon="6.04823">
        <ele>1638.8000488281</ele>
        <time>2026-08-21T09:49:57.000Z</time>
      </trkpt>
      <trkpt lat="45.26022" lon="6.04824">
        <ele>1639.4000244141</ele>
        <time>2026-08-21T09:49:58.000Z</time>
      </trkpt>
      <trkpt lat="45.2602" lon="6.04826">
        <ele>1640</ele>
        <time>2026-08-21T09:49:59.000Z</time>
      </trkpt>
      <trkpt lat="45.26019" lon="6.04827">
        <ele>1640.4000244141</ele>
        <time>2026-08-21T09:50:00.000Z</time>
      </trkpt>
      <trkpt lat="45.26018" lon="6.04829">
        <ele>1640.5999755859</ele>
        <time>2026-08-21T09:50:01.000Z</time>
      </trkpt>
      <trkpt lat="45.26017" lon="6.04831">
        <ele>1640.8000488281</ele>
        <time>2026-08-21T09:50:02.000Z</time>
      </trkpt>
      <trkpt lat="45.26016" lon="6.04832">
        <ele>1640.8000488281</ele>
        <time>2026-08-21T09:50:03.000Z</time>
      </trkpt>
      <trkpt lat="45.26014" lon="6.04833">
        <ele>1640.8000488281</ele>
        <time>2026-08-21T09:50:04.000Z</time>
      </trkpt>
      <trkpt lat="45.26013" lon="6.04835">
        <ele>1640.5999755859</ele>
        <time>2026-08-21T09:50:05.000Z</time>
      </trkpt>
      <trkpt lat="45.26012" lon="6.04837">
        <ele>1640.4000244141</ele>
        <time>2026-08-21T09:50:06.000Z</time>
      </trkpt>
      <trkpt lat="45.26011" lon="6.04838">
        <ele>1640.1999511719</ele>
        <time>2026-08-21T09:50:07.000Z</time>
      </trkpt>
      <trkpt lat="45.26009" lon="6.0484">
        <ele>1640.1999511719</ele>
        <time>2026-08-21T09:50:08.000Z</time>
      </trkpt>
      <trkpt lat="45.26007" lon="6.04841">
        <ele>1640.1999511719</ele>
        <time>2026-08-21T09:50:09.000Z</time>
      </trkpt>
      <trkpt lat="45.26005" lon="6.04842">
        <ele>1640</ele>
        <time>2026-08-21T09:50:10.000Z</time>
      </trkpt>
      <trkpt lat="45.26004" lon="6.04842">
        <ele>1640</ele>
        <time>2026-08-21T09:50:11.000Z</time>
      </trkpt>
      <trkpt lat="45.26002" lon="6.04843">
        <ele>1640</ele>
        <time>2026-08-21T09:50:12.000Z</time>
      </trkpt>
      <trkpt lat="45.26" lon="6.04843">
        <ele>1640</ele>
        <time>2026-08-21T09:50:13.000Z</time>
      </trkpt>
      <trkpt lat="45.25998" lon="6.04843">
        <ele>1640</ele>
        <time>2026-08-21T09:50:14.000Z</time>
      </trkpt>
      <trkpt lat="45.25996" lon="6.04842">
        <ele>1640</ele>
        <time>2026-08-21T09:50:15.000Z</time>
      </trkpt>
      <trkpt lat="45.25995" lon="6.04842">
        <ele>1640</ele>
        <time>2026-08-21T09:50:16.000Z</time>
      </trkpt>
      <trkpt lat="45.25993" lon="6.04841">
        <ele>1640.4000244141</ele>
        <time>2026-08-21T09:50:17.000Z</time>
      </trkpt>
      <trkpt lat="45.25991" lon="6.0484">
        <ele>1640.8000488281</ele>
        <time>2026-08-21T09:50:18.000Z</time>
      </trkpt>
      <trkpt lat="45.2599" lon="6.04839">
        <ele>1641</ele>
        <time>2026-08-21T09:50:19.000Z</time>
      </trkpt>
      <trkpt lat="45.25989" lon="6.04839">
        <ele>1641.4000244141</ele>
        <time>2026-08-21T09:50:20.000Z</time>
      </trkpt>
      <trkpt lat="45.25988" lon="6.04838">
        <ele>1643.8000488281</ele>
        <time>2026-08-21T09:50:21.000Z</time>
      </trkpt>
      <trkpt lat="45.25987" lon="6.04838">
        <ele>1645.1999511719</ele>
        <time>2026-08-21T09:50:22.000Z</time>
      </trkpt>
      <trkpt lat="45.25985" lon="6.04838">
        <ele>1645.5999755859</ele>
        <time>2026-08-21T09:50:23.000Z</time>
      </trkpt>
      <trkpt lat="45.25983" lon="6.04838">
        <ele>1646</ele>
        <time>2026-08-21T09:50:24.000Z</time>
      </trkpt>
      <trkpt lat="45.25981" lon="6.04837">
        <ele>1647</ele>
        <time>2026-08-21T09:50:25.000Z</time>
      </trkpt>
      <trkpt lat="45.25979" lon="6.04836">
        <ele>1647.8000488281</ele>
        <time>2026-08-21T09:50:26.000Z</time>
      </trkpt>
      <trkpt lat="45.25978" lon="6.04834">
        <ele>1648.8000488281</ele>
        <time>2026-08-21T09:50:27.000Z</time>
      </trkpt>
      <trkpt lat="45.25976" lon="6.04833">
        <ele>1650</ele>
        <time>2026-08-21T09:50:28.000Z</time>
      </trkpt>
      <trkpt lat="45.25974" lon="6.04831">
        <ele>1650</ele>
        <time>2026-08-21T09:50:29.000Z</time>
      </trkpt>
      <trkpt lat="45.25973" lon="6.0483">
        <ele>1650.8000488281</ele>
        <time>2026-08-21T09:50:30.000Z</time>
      </trkpt>
      <trkpt lat="45.25971" lon="6.04829">
        <ele>1651.8000488281</ele>
        <time>2026-08-21T09:50:31.000Z</time>
      </trkpt>
      <trkpt lat="45.2597" lon="6.04827">
        <ele>1652.8000488281</ele>
        <time>2026-08-21T09:50:32.000Z</time>
      </trkpt>
      <trkpt lat="45.25968" lon="6.04826">
        <ele>1653.5999755859</ele>
        <time>2026-08-21T09:50:33.000Z</time>
      </trkpt>
      <trkpt lat="45.25967" lon="6.04825">
        <ele>1654.5999755859</ele>
        <time>2026-08-21T09:50:34.000Z</time>
      </trkpt>
      <trkpt lat="45.25965" lon="6.04823">
        <ele>1655.4000244141</ele>
        <time>2026-08-21T09:50:35.000Z</time>
      </trkpt>
      <trkpt lat="45.25964" lon="6.04822">
        <ele>1656.4000244141</ele>
        <time>2026-08-21T09:50:36.000Z</time>
      </trkpt>
      <trkpt lat="45.25962" lon="6.0482">
        <ele>1655</ele>
        <time>2026-08-21T09:50:37.000Z</time>
      </trkpt>
      <trkpt lat="45.2596" lon="6.04817">
        <ele>1654.8000488281</ele>
        <time>2026-08-21T09:50:38.000Z</time>
      </trkpt>
      <trkpt lat="45.25958" lon="6.04816">
        <ele>1654.5999755859</ele>
        <time>2026-08-21T09:50:39.000Z</time>
      </trkpt>
      <trkpt lat="45.25956" lon="6.04815">
        <ele>1654.8000488281</ele>
        <time>2026-08-21T09:50:40.000Z</time>
      </trkpt>
      <trkpt lat="45.25954" lon="6.04813">
        <ele>1655.4000244141</ele>
        <time>2026-08-21T09:50:41.000Z</time>
      </trkpt>
      <trkpt lat="45.25952" lon="6.04813">
        <ele>1656.8000488281</ele>
        <time>2026-08-21T09:50:42.000Z</time>
      </trkpt>
      <trkpt lat="45.25951" lon="6.04812">
        <ele>1657.1999511719</ele>
        <time>2026-08-21T09:50:43.000Z</time>
      </trkpt>
      <trkpt lat="45.25949" lon="6.04811">
        <ele>1657</ele>
        <time>2026-08-21T09:50:44.000Z</time>
      </trkpt>
      <trkpt lat="45.25947" lon="6.0481">
        <ele>1656.8000488281</ele>
        <time>2026-08-21T09:50:45.000Z</time>
      </trkpt>
      <trkpt lat="45.25945" lon="6.0481">
        <ele>1656.1999511719</ele>
        <time>2026-08-21T09:50:46.000Z</time>
      </trkpt>
      <trkpt lat="45.25943" lon="6.04809">
        <ele>1655.5999755859</ele>
        <time>2026-08-21T09:50:47.000Z</time>
      </trkpt>
      <trkpt lat="45.25941" lon="6.04809">
        <ele>1654.8000488281</ele>
        <time>2026-08-21T09:50:48.000Z</time>
      </trkpt>
      <trkpt lat="45.25939" lon="6.04808">
        <ele>1654.1999511719</ele>
        <time>2026-08-21T09:50:49.000Z</time>
      </trkpt>
      <trkpt lat="45.25938" lon="6.04808">
        <ele>1653.8000488281</ele>
        <time>2026-08-21T09:50:50.000Z</time>
      </trkpt>
      <trkpt lat="45.25936" lon="6.04807">
        <ele>1653.4000244141</ele>
        <time>2026-08-21T09:50:51.000Z</time>
      </trkpt>
      <trkpt lat="45.25935" lon="6.04805">
        <ele>1653.4000244141</ele>
        <time>2026-08-21T09:50:52.000Z</time>
      </trkpt>
      <trkpt lat="45.25933" lon="6.04805">
        <ele>1653.4000244141</ele>
        <time>2026-08-21T09:50:53.000Z</time>
      </trkpt>
      <trkpt lat="45.25932" lon="6.04804">
        <ele>1653.5999755859</ele>
        <time>2026-08-21T09:50:54.000Z</time>
      </trkpt>
      <trkpt lat="45.2593" lon="6.04803">
        <ele>1653.5999755859</ele>
        <time>2026-08-21T09:50:55.000Z</time>
      </trkpt>
      <trkpt lat="45.25929" lon="6.04802">
        <ele>1653.8000488281</ele>
        <time>2026-08-21T09:50:56.000Z</time>
      </trkpt>
      <trkpt lat="45.25927" lon="6.04801">
        <ele>1653.8000488281</ele>
        <time>2026-08-21T09:50:57.000Z</time>
      </trkpt>
      <trkpt lat="45.25926" lon="6.048">
        <ele>1653.8000488281</ele>
        <time>2026-08-21T09:50:58.000Z</time>
      </trkpt>
      <trkpt lat="45.25924" lon="6.04799">
        <ele>1653.8000488281</ele>
        <time>2026-08-21T09:50:59.000Z</time>
      </trkpt>
      <trkpt lat="45.25922" lon="6.04798">
        <ele>1653.8000488281</ele>
        <time>2026-08-21T09:51:00.000Z</time>
      </trkpt>
      <trkpt lat="45.25921" lon="6.04798">
        <ele>1653.8000488281</ele>
        <time>2026-08-21T09:51:01.000Z</time>
      </trkpt>
      <trkpt lat="45.25919" lon="6.04796">
        <ele>1654</ele>
        <time>2026-08-21T09:51:02.000Z</time>
      </trkpt>
      <trkpt lat="45.25917" lon="6.04796">
        <ele>1654.5999755859</ele>
        <time>2026-08-21T09:51:03.000Z</time>
      </trkpt>
      <trkpt lat="45.25915" lon="6.04795">
        <ele>1655</ele>
        <time>2026-08-21T09:51:04.000Z</time>
      </trkpt>
      <trkpt lat="45.25913" lon="6.04794">
        <ele>1655.8000488281</ele>
        <time>2026-08-21T09:51:05.000Z</time>
      </trkpt>
      <trkpt lat="45.25911" lon="6.04793">
        <ele>1656.1999511719</ele>
        <time>2026-08-21T09:51:06.000Z</time>
      </trkpt>
      <trkpt lat="45.2591" lon="6.04793">
        <ele>1656.4000244141</ele>
        <time>2026-08-21T09:51:07.000Z</time>
      </trkpt>
      <trkpt lat="45.25908" lon="6.04792">
        <ele>1656.8000488281</ele>
        <time>2026-08-21T09:51:08.000Z</time>
      </trkpt>
      <trkpt lat="45.25906" lon="6.04791">
        <ele>1657.1999511719</ele>
        <time>2026-08-21T09:51:09.000Z</time>
      </trkpt>
      <trkpt lat="45.25904" lon="6.04791">
        <ele>1657.5999755859</ele>
        <time>2026-08-21T09:51:10.000Z</time>
      </trkpt>
      <trkpt lat="45.25903" lon="6.0479">
        <ele>1658</ele>
        <time>2026-08-21T09:51:11.000Z</time>
      </trkpt>
      <trkpt lat="45.25901" lon="6.0479">
        <ele>1658.4000244141</ele>
        <time>2026-08-21T09:51:12.000Z</time>
      </trkpt>
      <trkpt lat="45.259" lon="6.0479">
        <ele>1658.5999755859</ele>
        <time>2026-08-21T09:51:13.000Z</time>
      </trkpt>
      <trkpt lat="45.25898" lon="6.0479">
        <ele>1659</ele>
        <time>2026-08-21T09:51:14.000Z</time>
      </trkpt>
      <trkpt lat="45.25896" lon="6.0479">
        <ele>1659.1999511719</ele>
        <time>2026-08-21T09:51:15.000Z</time>
      </trkpt>
      <trkpt lat="45.25895" lon="6.04789">
        <ele>1660.1999511719</ele>
        <time>2026-08-21T09:51:16.000Z</time>
      </trkpt>
      <trkpt lat="45.25893" lon="6.04789">
        <ele>1661.4000244141</ele>
        <time>2026-08-21T09:51:17.000Z</time>
      </trkpt>
      <trkpt lat="45.25891" lon="6.04789">
        <ele>1661.8000488281</ele>
        <time>2026-08-21T09:51:18.000Z</time>
      </trkpt>
      <trkpt lat="45.25889" lon="6.04789">
        <ele>1662.1999511719</ele>
        <time>2026-08-21T09:51:19.000Z</time>
      </trkpt>
      <trkpt lat="45.25887" lon="6.04789">
        <ele>1661.5999755859</ele>
        <time>2026-08-21T09:51:20.000Z</time>
      </trkpt>
      <trkpt lat="45.25886" lon="6.04788">
        <ele>1660.8000488281</ele>
        <time>2026-08-21T09:51:21.000Z</time>
      </trkpt>
      <trkpt lat="45.25884" lon="6.04788">
        <ele>1660.4000244141</ele>
        <time>2026-08-21T09:51:22.000Z</time>
      </trkpt>
      <trkpt lat="45.25883" lon="6.04788">
        <ele>1660</ele>
        <time>2026-08-21T09:51:23.000Z</time>
      </trkpt>
      <trkpt lat="45.25882" lon="6.04787">
        <ele>1659.5999755859</ele>
        <time>2026-08-21T09:51:24.000Z</time>
      </trkpt>
      <trkpt lat="45.2588" lon="6.04786">
        <ele>1658.8000488281</ele>
        <time>2026-08-21T09:51:25.000Z</time>
      </trkpt>
      <trkpt lat="45.25878" lon="6.04785">
        <ele>1657.8000488281</ele>
        <time>2026-08-21T09:51:26.000Z</time>
      </trkpt>
      <trkpt lat="45.25877" lon="6.04784">
        <ele>1656.8000488281</ele>
        <time>2026-08-21T09:51:27.000Z</time>
      </trkpt>
      <trkpt lat="45.25875" lon="6.04783">
        <ele>1656.5999755859</ele>
        <time>2026-08-21T09:51:28.000Z</time>
      </trkpt>
      <trkpt lat="45.25873" lon="6.04783">
        <ele>1656.4000244141</ele>
        <time>2026-08-21T09:51:29.000Z</time>
      </trkpt>
      <trkpt lat="45.25871" lon="6.04783">
        <ele>1656.5999755859</ele>
        <time>2026-08-21T09:51:30.000Z</time>
      </trkpt>
      <trkpt lat="45.25869" lon="6.04784">
        <ele>1657</ele>
        <time>2026-08-21T09:51:31.000Z</time>
      </trkpt>
      <trkpt lat="45.25868" lon="6.04785">
        <ele>1657.1999511719</ele>
        <time>2026-08-21T09:51:32.000Z</time>
      </trkpt>
      <trkpt lat="45.25866" lon="6.04786">
        <ele>1657.5999755859</ele>
        <time>2026-08-21T09:51:33.000Z</time>
      </trkpt>
      <trkpt lat="45.25865" lon="6.04788">
        <ele>1657.8000488281</ele>
        <time>2026-08-21T09:51:34.000Z</time>
      </trkpt>
      <trkpt lat="45.25863" lon="6.04789">
        <ele>1658.4000244141</ele>
        <time>2026-08-21T09:51:35.000Z</time>
      </trkpt>
      <trkpt lat="45.25862" lon="6.0479">
        <ele>1659</ele>
        <time>2026-08-21T09:51:36.000Z</time>
      </trkpt>
      <trkpt lat="45.2586" lon="6.04792">
        <ele>1659</ele>
        <time>2026-08-21T09:51:37.000Z</time>
      </trkpt>
      <trkpt lat="45.25859" lon="6.04794">
        <ele>1659</ele>
        <time>2026-08-21T09:51:38.000Z</time>
      </trkpt>
      <trkpt lat="45.25857" lon="6.04795">
        <ele>1658.5999755859</ele>
        <time>2026-08-21T09:51:39.000Z</time>
      </trkpt>
      <trkpt lat="45.25855" lon="6.04796">
        <ele>1658.5999755859</ele>
        <time>2026-08-21T09:51:40.000Z</time>
      </trkpt>
      <trkpt lat="45.25853" lon="6.04796">
        <ele>1658</ele>
        <time>2026-08-21T09:51:41.000Z</time>
      </trkpt>
      <trkpt lat="45.25851" lon="6.04797">
        <ele>1658</ele>
        <time>2026-08-21T09:51:42.000Z</time>
      </trkpt>
      <trkpt lat="45.25849" lon="6.04798">
        <ele>1658</ele>
        <time>2026-08-21T09:51:43.000Z</time>
      </trkpt>
      <trkpt lat="45.25848" lon="6.04797">
        <ele>1658.4000244141</ele>
        <time>2026-08-21T09:51:44.000Z</time>
      </trkpt>
      <trkpt lat="45.25846" lon="6.04798">
        <ele>1658.5999755859</ele>
        <time>2026-08-21T09:51:45.000Z</time>
      </trkpt>
      <trkpt lat="45.25844" lon="6.04798">
        <ele>1659.1999511719</ele>
        <time>2026-08-21T09:51:46.000Z</time>
      </trkpt>
      <trkpt lat="45.25842" lon="6.04797">
        <ele>1660</ele>
        <time>2026-08-21T09:51:47.000Z</time>
      </trkpt>
      <trkpt lat="45.2584" lon="6.04796">
        <ele>1660.5999755859</ele>
        <time>2026-08-21T09:51:48.000Z</time>
      </trkpt>
      <trkpt lat="45.25838" lon="6.04796">
        <ele>1661</ele>
        <time>2026-08-21T09:51:49.000Z</time>
      </trkpt>
      <trkpt lat="45.25836" lon="6.04795">
        <ele>1661.1999511719</ele>
        <time>2026-08-21T09:51:50.000Z</time>
      </trkpt>
      <trkpt lat="45.25834" lon="6.04794">
        <ele>1661.5999755859</ele>
        <time>2026-08-21T09:51:51.000Z</time>
      </trkpt>
      <trkpt lat="45.25832" lon="6.04794">
        <ele>1662</ele>
        <time>2026-08-21T09:51:52.000Z</time>
      </trkpt>
      <trkpt lat="45.25831" lon="6.04793">
        <ele>1662.1999511719</ele>
        <time>2026-08-21T09:51:53.000Z</time>
      </trkpt>
      <trkpt lat="45.25829" lon="6.04793">
        <ele>1662.4000244141</ele>
        <time>2026-08-21T09:51:54.000Z</time>
      </trkpt>
      <trkpt lat="45.25826" lon="6.04794">
        <ele>1662.8000488281</ele>
        <time>2026-08-21T09:51:55.000Z</time>
      </trkpt>
      <trkpt lat="45.25824" lon="6.04794">
        <ele>1663</ele>
        <time>2026-08-21T09:51:56.000Z</time>
      </trkpt>
      <trkpt lat="45.25822" lon="6.04794">
        <ele>1663.1999511719</ele>
        <time>2026-08-21T09:51:57.000Z</time>
      </trkpt>
      <trkpt lat="45.2582" lon="6.04794">
        <ele>1663.4000244141</ele>
        <time>2026-08-21T09:51:58.000Z</time>
      </trkpt>
      <trkpt lat="45.25819" lon="6.04794">
        <ele>1663.4000244141</ele>
        <time>2026-08-21T09:51:59.000Z</time>
      </trkpt>
      <trkpt lat="45.25817" lon="6.04793">
        <ele>1663.1999511719</ele>
        <time>2026-08-21T09:52:00.000Z</time>
      </trkpt>
      <trkpt lat="45.25814" lon="6.04793">
        <ele>1663.1999511719</ele>
        <time>2026-08-21T09:52:01.000Z</time>
      </trkpt>
      <trkpt lat="45.25813" lon="6.04792">
        <ele>1663.1999511719</ele>
        <time>2026-08-21T09:52:02.000Z</time>
      </trkpt>
      <trkpt lat="45.25811" lon="6.04792">
        <ele>1663.1999511719</ele>
        <time>2026-08-21T09:52:03.000Z</time>
      </trkpt>
      <trkpt lat="45.25809" lon="6.04792">
        <ele>1663.4000244141</ele>
        <time>2026-08-21T09:52:04.000Z</time>
      </trkpt>
      <trkpt lat="45.25807" lon="6.04791">
        <ele>1663.5999755859</ele>
        <time>2026-08-21T09:52:05.000Z</time>
      </trkpt>
      <trkpt lat="45.25805" lon="6.04791">
        <ele>1663.5999755859</ele>
        <time>2026-08-21T09:52:06.000Z</time>
      </trkpt>
      <trkpt lat="45.25803" lon="6.0479">
        <ele>1664</ele>
        <time>2026-08-21T09:52:07.000Z</time>
      </trkpt>
      <trkpt lat="45.25801" lon="6.0479">
        <ele>1664.4000244141</ele>
        <time>2026-08-21T09:52:08.000Z</time>
      </trkpt>
      <trkpt lat="45.25799" lon="6.04789">
        <ele>1664.8000488281</ele>
        <time>2026-08-21T09:52:09.000Z</time>
      </trkpt>
      <trkpt lat="45.25797" lon="6.04788">
        <ele>1665</ele>
        <time>2026-08-21T09:52:10.000Z</time>
      </trkpt>
      <trkpt lat="45.25796" lon="6.04788">
        <ele>1665.8000488281</ele>
        <time>2026-08-21T09:52:11.000Z</time>
      </trkpt>
      <trkpt lat="45.25794" lon="6.04787">
        <ele>1666.8000488281</ele>
        <time>2026-08-21T09:52:12.000Z</time>
      </trkpt>
      <trkpt lat="45.25792" lon="6.04787">
        <ele>1667.5999755859</ele>
        <time>2026-08-21T09:52:13.000Z</time>
      </trkpt>
      <trkpt lat="45.2579" lon="6.04786">
        <ele>1668.4000244141</ele>
        <time>2026-08-21T09:52:14.000Z</time>
      </trkpt>
      <trkpt lat="45.25787" lon="6.04786">
        <ele>1669.4000244141</ele>
        <time>2026-08-21T09:52:15.000Z</time>
      </trkpt>
      <trkpt lat="45.25786" lon="6.04786">
        <ele>1670.1999511719</ele>
        <time>2026-08-21T09:52:16.000Z</time>
      </trkpt>
      <trkpt lat="45.25784" lon="6.04786">
        <ele>1670.1999511719</ele>
        <time>2026-08-21T09:52:17.000Z</time>
      </trkpt>
      <trkpt lat="45.25781" lon="6.04786">
        <ele>1670</ele>
        <time>2026-08-21T09:52:18.000Z</time>
      </trkpt>
      <trkpt lat="45.25779" lon="6.04786">
        <ele>1669.8000488281</ele>
        <time>2026-08-21T09:52:19.000Z</time>
      </trkpt>
      <trkpt lat="45.25778" lon="6.04785">
        <ele>1669.4000244141</ele>
        <time>2026-08-21T09:52:20.000Z</time>
      </trkpt>
      <trkpt lat="45.25776" lon="6.04785">
        <ele>1669.4000244141</ele>
        <time>2026-08-21T09:52:21.000Z</time>
      </trkpt>
      <trkpt lat="45.25774" lon="6.04785">
        <ele>1669.4000244141</ele>
        <time>2026-08-21T09:52:22.000Z</time>
      </trkpt>
      <trkpt lat="45.25773" lon="6.04784">
        <ele>1669.4000244141</ele>
        <time>2026-08-21T09:52:23.000Z</time>
      </trkpt>
      <trkpt lat="45.25771" lon="6.04784">
        <ele>1669.4000244141</ele>
        <time>2026-08-21T09:52:24.000Z</time>
      </trkpt>
      <trkpt lat="45.25769" lon="6.04782">
        <ele>1670.1999511719</ele>
        <time>2026-08-21T09:52:25.000Z</time>
      </trkpt>
      <trkpt lat="45.25768" lon="6.04782">
        <ele>1671.1999511719</ele>
        <time>2026-08-21T09:52:26.000Z</time>
      </trkpt>
      <trkpt lat="45.25766" lon="6.04781">
        <ele>1671</ele>
        <time>2026-08-21T09:52:27.000Z</time>
      </trkpt>
      <trkpt lat="45.25764" lon="6.0478">
        <ele>1670.5999755859</ele>
        <time>2026-08-21T09:52:28.000Z</time>
      </trkpt>
      <trkpt lat="45.25762" lon="6.04779">
        <ele>1670.1999511719</ele>
        <time>2026-08-21T09:52:29.000Z</time>
      </trkpt>
      <trkpt lat="45.2576" lon="6.04778">
        <ele>1669.8000488281</ele>
        <time>2026-08-21T09:52:30.000Z</time>
      </trkpt>
      <trkpt lat="45.25758" lon="6.04778">
        <ele>1669.5999755859</ele>
        <time>2026-08-21T09:52:31.000Z</time>
      </trkpt>
      <trkpt lat="45.25757" lon="6.04777">
        <ele>1669.1999511719</ele>
        <time>2026-08-21T09:52:32.000Z</time>
      </trkpt>
      <trkpt lat="45.25755" lon="6.04778">
        <ele>1666.5999755859</ele>
        <time>2026-08-21T09:52:33.000Z</time>
      </trkpt>
      <trkpt lat="45.25753" lon="6.04777">
        <ele>1664.1999511719</ele>
        <time>2026-08-21T09:52:34.000Z</time>
      </trkpt>
      <trkpt lat="45.25751" lon="6.04778">
        <ele>1663.8000488281</ele>
        <time>2026-08-21T09:52:35.000Z</time>
      </trkpt>
      <trkpt lat="45.25749" lon="6.04778">
        <ele>1663</ele>
        <time>2026-08-21T09:52:36.000Z</time>
      </trkpt>
      <trkpt lat="45.25747" lon="6.04778">
        <ele>1662.8000488281</ele>
        <time>2026-08-21T09:52:37.000Z</time>
      </trkpt>
      <trkpt lat="45.25745" lon="6.04778">
        <ele>1662.1999511719</ele>
        <time>2026-08-21T09:52:38.000Z</time>
      </trkpt>
      <trkpt lat="45.25743" lon="6.04778">
        <ele>1661.8000488281</ele>
        <time>2026-08-21T09:52:39.000Z</time>
      </trkpt>
      <trkpt lat="45.25741" lon="6.04779">
        <ele>1661.1999511719</ele>
        <time>2026-08-21T09:52:40.000Z</time>
      </trkpt>
      <trkpt lat="45.25739" lon="6.0478">
        <ele>1662</ele>
        <time>2026-08-21T09:52:41.000Z</time>
      </trkpt>
      <trkpt lat="45.25736" lon="6.0478">
        <ele>1663.5999755859</ele>
        <time>2026-08-21T09:52:42.000Z</time>
      </trkpt>
      <trkpt lat="45.25735" lon="6.04781">
        <ele>1664.5999755859</ele>
        <time>2026-08-21T09:52:43.000Z</time>
      </trkpt>
      <trkpt lat="45.25733" lon="6.04782">
        <ele>1665.4000244141</ele>
        <time>2026-08-21T09:52:44.000Z</time>
      </trkpt>
      <trkpt lat="45.25731" lon="6.04783">
        <ele>1666.4000244141</ele>
        <time>2026-08-21T09:52:45.000Z</time>
      </trkpt>
      <trkpt lat="45.25729" lon="6.04784">
        <ele>1667.1999511719</ele>
        <time>2026-08-21T09:52:46.000Z</time>
      </trkpt>
      <trkpt lat="45.25727" lon="6.04785">
        <ele>1667.8000488281</ele>
        <time>2026-08-21T09:52:47.000Z</time>
      </trkpt>
      <trkpt lat="45.25725" lon="6.04786">
        <ele>1668.4000244141</ele>
        <time>2026-08-21T09:52:48.000Z</time>
      </trkpt>
      <trkpt lat="45.25724" lon="6.04787">
        <ele>1669.4000244141</ele>
        <time>2026-08-21T09:52:49.000Z</time>
      </trkpt>
      <trkpt lat="45.25722" lon="6.04788">
        <ele>1670.5999755859</ele>
        <time>2026-08-21T09:52:50.000Z</time>
      </trkpt>
      <trkpt lat="45.2572" lon="6.04788">
        <ele>1671.5999755859</ele>
        <time>2026-08-21T09:52:51.000Z</time>
      </trkpt>
      <trkpt lat="45.25718" lon="6.04789">
        <ele>1672</ele>
        <time>2026-08-21T09:52:52.000Z</time>
      </trkpt>
      <trkpt lat="45.25716" lon="6.04789">
        <ele>1672.8000488281</ele>
        <time>2026-08-21T09:52:53.000Z</time>
      </trkpt>
      <trkpt lat="45.25714" lon="6.0479">
        <ele>1673</ele>
        <time>2026-08-21T09:52:54.000Z</time>
      </trkpt>
      <trkpt lat="45.25712" lon="6.0479">
        <ele>1673.4000244141</ele>
        <time>2026-08-21T09:52:55.000Z</time>
      </trkpt>
      <trkpt lat="45.25709" lon="6.0479">
        <ele>1673.5999755859</ele>
        <time>2026-08-21T09:52:56.000Z</time>
      </trkpt>
      <trkpt lat="45.25708" lon="6.0479">
        <ele>1673.8000488281</ele>
        <time>2026-08-21T09:52:57.000Z</time>
      </trkpt>
      <trkpt lat="45.25706" lon="6.0479">
        <ele>1674.1999511719</ele>
        <time>2026-08-21T09:52:58.000Z</time>
      </trkpt>
      <trkpt lat="45.25704" lon="6.0479">
        <ele>1674.1999511719</ele>
        <time>2026-08-21T09:52:59.000Z</time>
      </trkpt>
      <trkpt lat="45.25702" lon="6.04789">
        <ele>1674.1999511719</ele>
        <time>2026-08-21T09:53:00.000Z</time>
      </trkpt>
      <trkpt lat="45.257" lon="6.04788">
        <ele>1674</ele>
        <time>2026-08-21T09:53:01.000Z</time>
      </trkpt>
      <trkpt lat="45.25698" lon="6.04788">
        <ele>1674</ele>
        <time>2026-08-21T09:53:02.000Z</time>
      </trkpt>
      <trkpt lat="45.25696" lon="6.04787">
        <ele>1673.8000488281</ele>
        <time>2026-08-21T09:53:03.000Z</time>
      </trkpt>
      <trkpt lat="45.25694" lon="6.04787">
        <ele>1673.8000488281</ele>
        <time>2026-08-21T09:53:04.000Z</time>
      </trkpt>
      <trkpt lat="45.25692" lon="6.04786">
        <ele>1673.8000488281</ele>
        <time>2026-08-21T09:53:05.000Z</time>
      </trkpt>
      <trkpt lat="45.2569" lon="6.04785">
        <ele>1673.8000488281</ele>
        <time>2026-08-21T09:53:06.000Z</time>
      </trkpt>
      <trkpt lat="45.25688" lon="6.04785">
        <ele>1674.1999511719</ele>
        <time>2026-08-21T09:53:07.000Z</time>
      </trkpt>
      <trkpt lat="45.25686" lon="6.04783">
        <ele>1674.5999755859</ele>
        <time>2026-08-21T09:53:08.000Z</time>
      </trkpt>
      <trkpt lat="45.25684" lon="6.04783">
        <ele>1675.1999511719</ele>
        <time>2026-08-21T09:53:09.000Z</time>
      </trkpt>
      <trkpt lat="45.25682" lon="6.04782">
        <ele>1675.8000488281</ele>
        <time>2026-08-21T09:53:10.000Z</time>
      </trkpt>
      <trkpt lat="45.2568" lon="6.04781">
        <ele>1676.4000244141</ele>
        <time>2026-08-21T09:53:11.000Z</time>
      </trkpt>
      <trkpt lat="45.25678" lon="6.0478">
        <ele>1677.1999511719</ele>
        <time>2026-08-21T09:53:12.000Z</time>
      </trkpt>
      <trkpt lat="45.25676" lon="6.04779">
        <ele>1677.8000488281</ele>
        <time>2026-08-21T09:53:13.000Z</time>
      </trkpt>
      <trkpt lat="45.25674" lon="6.04778">
        <ele>1678.1999511719</ele>
        <time>2026-08-21T09:53:14.000Z</time>
      </trkpt>
      <trkpt lat="45.25672" lon="6.04777">
        <ele>1677.8000488281</ele>
        <time>2026-08-21T09:53:15.000Z</time>
      </trkpt>
      <trkpt lat="45.2567" lon="6.04776">
        <ele>1677</ele>
        <time>2026-08-21T09:53:16.000Z</time>
      </trkpt>
      <trkpt lat="45.25668" lon="6.04775">
        <ele>1676.4000244141</ele>
        <time>2026-08-21T09:53:17.000Z</time>
      </trkpt>
      <trkpt lat="45.25666" lon="6.04774">
        <ele>1676</ele>
        <time>2026-08-21T09:53:18.000Z</time>
      </trkpt>
      <trkpt lat="45.25664" lon="6.04773">
        <ele>1675.5999755859</ele>
        <time>2026-08-21T09:53:19.000Z</time>
      </trkpt>
      <trkpt lat="45.25662" lon="6.04772">
        <ele>1675.4000244141</ele>
        <time>2026-08-21T09:53:20.000Z</time>
      </trkpt>
      <trkpt lat="45.2566" lon="6.04771">
        <ele>1675</ele>
        <time>2026-08-21T09:53:21.000Z</time>
      </trkpt>
      <trkpt lat="45.25658" lon="6.0477">
        <ele>1675</ele>
        <time>2026-08-21T09:53:22.000Z</time>
      </trkpt>
      <trkpt lat="45.25656" lon="6.04769">
        <ele>1675</ele>
        <time>2026-08-21T09:53:23.000Z</time>
      </trkpt>
      <trkpt lat="45.25655" lon="6.04767">
        <ele>1675.1999511719</ele>
        <time>2026-08-21T09:53:24.000Z</time>
      </trkpt>
      <trkpt lat="45.25652" lon="6.04766">
        <ele>1675.1999511719</ele>
        <time>2026-08-21T09:53:25.000Z</time>
      </trkpt>
      <trkpt lat="45.2565" lon="6.04766">
        <ele>1675.5999755859</ele>
        <time>2026-08-21T09:53:26.000Z</time>
      </trkpt>
      <trkpt lat="45.25648" lon="6.04765">
        <ele>1676.4000244141</ele>
        <time>2026-08-21T09:53:27.000Z</time>
      </trkpt>
      <trkpt lat="45.25646" lon="6.04765">
        <ele>1677</ele>
        <time>2026-08-21T09:53:28.000Z</time>
      </trkpt>
      <trkpt lat="45.25644" lon="6.04764">
        <ele>1676.8000488281</ele>
        <time>2026-08-21T09:53:29.000Z</time>
      </trkpt>
      <trkpt lat="45.25642" lon="6.04763">
        <ele>1676.8000488281</ele>
        <time>2026-08-21T09:53:30.000Z</time>
      </trkpt>
      <trkpt lat="45.2564" lon="6.04762">
        <ele>1676.8000488281</ele>
        <time>2026-08-21T09:53:31.000Z</time>
      </trkpt>
      <trkpt lat="45.25638" lon="6.04762">
        <ele>1677</ele>
        <time>2026-08-21T09:53:32.000Z</time>
      </trkpt>
      <trkpt lat="45.25635" lon="6.0476">
        <ele>1677.1999511719</ele>
        <time>2026-08-21T09:53:33.000Z</time>
      </trkpt>
      <trkpt lat="45.25634" lon="6.04759">
        <ele>1678</ele>
        <time>2026-08-21T09:53:34.000Z</time>
      </trkpt>
      <trkpt lat="45.25631" lon="6.04758">
        <ele>1678.5999755859</ele>
        <time>2026-08-21T09:53:35.000Z</time>
      </trkpt>
      <trkpt lat="45.25629" lon="6.04758">
        <ele>1679.1999511719</ele>
        <time>2026-08-21T09:53:36.000Z</time>
      </trkpt>
      <trkpt lat="45.25627" lon="6.04757">
        <ele>1679.4000244141</ele>
        <time>2026-08-21T09:53:37.000Z</time>
      </trkpt>
      <trkpt lat="45.25625" lon="6.04757">
        <ele>1679.5999755859</ele>
        <time>2026-08-21T09:53:38.000Z</time>
      </trkpt>
      <trkpt lat="45.25623" lon="6.04755">
        <ele>1679.1999511719</ele>
        <time>2026-08-21T09:53:39.000Z</time>
      </trkpt>
      <trkpt lat="45.25622" lon="6.04753">
        <ele>1678.8000488281</ele>
        <time>2026-08-21T09:53:40.000Z</time>
      </trkpt>
      <trkpt lat="45.25623" lon="6.04751">
        <ele>1678.1999511719</ele>
        <time>2026-08-21T09:53:41.000Z</time>
      </trkpt>
      <trkpt lat="45.25624" lon="6.0475">
        <ele>1677.8000488281</ele>
        <time>2026-08-21T09:53:42.000Z</time>
      </trkpt>
      <trkpt lat="45.25625" lon="6.0475">
        <ele>1677.4000244141</ele>
        <time>2026-08-21T09:53:43.000Z</time>
      </trkpt>
      <trkpt lat="45.25626" lon="6.0475">
        <ele>1677</ele>
        <time>2026-08-21T09:53:44.000Z</time>
      </trkpt>
      <trkpt lat="45.25626" lon="6.04749">
        <ele>1677</ele>
        <time>2026-08-21T09:53:45.000Z</time>
      </trkpt>
      <trkpt lat="45.25627" lon="6.04748">
        <ele>1676.4000244141</ele>
        <time>2026-08-21T09:53:46.000Z</time>
      </trkpt>
      <trkpt lat="45.25627" lon="6.04748">
        <ele>1676</ele>
        <time>2026-08-21T09:53:47.000Z</time>
      </trkpt>
      <trkpt lat="45.25628" lon="6.04747">
        <ele>1675.5999755859</ele>
        <time>2026-08-21T09:53:48.000Z</time>
      </trkpt>
      <trkpt lat="45.25628" lon="6.04747">
        <ele>1675</ele>
        <time>2026-08-21T09:53:49.000Z</time>
      </trkpt>
      <trkpt lat="45.25629" lon="6.04746">
        <ele>1674.5999755859</ele>
        <time>2026-08-21T09:53:50.000Z</time>
      </trkpt>
      <trkpt lat="45.25629" lon="6.04745">
        <ele>1674</ele>
        <time>2026-08-21T09:53:51.000Z</time>
      </trkpt>
      <trkpt lat="45.25628" lon="6.04745">
        <ele>1673.4000244141</ele>
        <time>2026-08-21T09:53:52.000Z</time>
      </trkpt>
      <trkpt lat="45.25628" lon="6.04745">
        <ele>1671.8000488281</ele>
        <time>2026-08-21T09:53:53.000Z</time>
      </trkpt>
      <trkpt lat="45.25628" lon="6.04744">
        <ele>1671.5999755859</ele>
        <time>2026-08-21T09:53:54.000Z</time>
      </trkpt>
      <trkpt lat="45.25628" lon="6.04743">
        <ele>1671.4000244141</ele>
        <time>2026-08-21T09:53:55.000Z</time>
      </trkpt>
      <trkpt lat="45.25628" lon="6.04742">
        <ele>1670.8000488281</ele>
        <time>2026-08-21T09:53:56.000Z</time>
      </trkpt>
      <trkpt lat="45.25628" lon="6.04742">
        <ele>1670.4000244141</ele>
        <time>2026-08-21T09:53:57.000Z</time>
      </trkpt>
      <trkpt lat="45.25627" lon="6.04742">
        <ele>1669.8000488281</ele>
        <time>2026-08-21T09:53:58.000Z</time>
      </trkpt>
      <trkpt lat="45.25626" lon="6.04741">
        <ele>1669.5999755859</ele>
        <time>2026-08-21T09:53:59.000Z</time>
      </trkpt>
      <trkpt lat="45.25625" lon="6.04741">
        <ele>1669.4000244141</ele>
        <time>2026-08-21T09:54:00.000Z</time>
      </trkpt>
      <trkpt lat="45.25624" lon="6.0474">
        <ele>1669.1999511719</ele>
        <time>2026-08-21T09:54:01.000Z</time>
      </trkpt>
      <trkpt lat="45.25623" lon="6.04739">
        <ele>1669</ele>
        <time>2026-08-21T09:54:02.000Z</time>
      </trkpt>
      <trkpt lat="45.25622" lon="6.04738">
        <ele>1668.8000488281</ele>
        <time>2026-08-21T09:54:03.000Z</time>
      </trkpt>
      <trkpt lat="45.25621" lon="6.04737">
        <ele>1668.8000488281</ele>
        <time>2026-08-21T09:54:04.000Z</time>
      </trkpt>
      <trkpt lat="45.2562" lon="6.04736">
        <ele>1669</ele>
        <time>2026-08-21T09:54:05.000Z</time>
      </trkpt>
      <trkpt lat="45.25618" lon="6.04735">
        <ele>1669.4000244141</ele>
        <time>2026-08-21T09:54:06.000Z</time>
      </trkpt>
      <trkpt lat="45.25616" lon="6.04734">
        <ele>1669.5999755859</ele>
        <time>2026-08-21T09:54:07.000Z</time>
      </trkpt>
      <trkpt lat="45.25615" lon="6.04734">
        <ele>1670</ele>
        <time>2026-08-21T09:54:08.000Z</time>
      </trkpt>
      <trkpt lat="45.25614" lon="6.04734">
        <ele>1670.1999511719</ele>
        <time>2026-08-21T09:54:09.000Z</time>
      </trkpt>
      <trkpt lat="45.25612" lon="6.04733">
        <ele>1671.4000244141</ele>
        <time>2026-08-21T09:54:10.000Z</time>
      </trkpt>
      <trkpt lat="45.25611" lon="6.04732">
        <ele>1672</ele>
        <time>2026-08-21T09:54:11.000Z</time>
      </trkpt>
      <trkpt lat="45.2561" lon="6.04731">
        <ele>1672.5999755859</ele>
        <time>2026-08-21T09:54:12.000Z</time>
      </trkpt>
      <trkpt lat="45.25609" lon="6.0473">
        <ele>1673</ele>
        <time>2026-08-21T09:54:13.000Z</time>
      </trkpt>
      <trkpt lat="45.25608" lon="6.04729">
        <ele>1673.5999755859</ele>
        <time>2026-08-21T09:54:14.000Z</time>
      </trkpt>
      <trkpt lat="45.25607" lon="6.04729">
        <ele>1673.4000244141</ele>
        <time>2026-08-21T09:54:15.000Z</time>
      </trkpt>
      <trkpt lat="45.25606" lon="6.04728">
        <ele>1673.5999755859</ele>
        <time>2026-08-21T09:54:16.000Z</time>
      </trkpt>
      <trkpt lat="45.25605" lon="6.04727">
        <ele>1673.5999755859</ele>
        <time>2026-08-21T09:54:17.000Z</time>
      </trkpt>
      <trkpt lat="45.25604" lon="6.04726">
        <ele>1673.8000488281</ele>
        <time>2026-08-21T09:54:18.000Z</time>
      </trkpt>
      <trkpt lat="45.25604" lon="6.04725">
        <ele>1674.4000244141</ele>
        <time>2026-08-21T09:54:19.000Z</time>
      </trkpt>
      <trkpt lat="45.25604" lon="6.04725">
        <ele>1675.4000244141</ele>
        <time>2026-08-21T09:54:20.000Z</time>
      </trkpt>
      <trkpt lat="45.25604" lon="6.04724">
        <ele>1675.5999755859</ele>
        <time>2026-08-21T09:54:21.000Z</time>
      </trkpt>
      <trkpt lat="45.25603" lon="6.04724">
        <ele>1676.8000488281</ele>
        <time>2026-08-21T09:54:22.000Z</time>
      </trkpt>
      <trkpt lat="45.25602" lon="6.04723">
        <ele>1677.8000488281</ele>
        <time>2026-08-21T09:54:23.000Z</time>
      </trkpt>
      <trkpt lat="45.25602" lon="6.04722">
        <ele>1678.5999755859</ele>
        <time>2026-08-21T09:54:24.000Z</time>
      </trkpt>
      <trkpt lat="45.25601" lon="6.0472">
        <ele>1679</ele>
        <time>2026-08-21T09:54:25.000Z</time>
      </trkpt>
      <trkpt lat="45.256" lon="6.04719">
        <ele>1679.5999755859</ele>
        <time>2026-08-21T09:54:26.000Z</time>
      </trkpt>
      <trkpt lat="45.256" lon="6.04718">
        <ele>1680</ele>
        <time>2026-08-21T09:54:27.000Z</time>
      </trkpt>
      <trkpt lat="45.25599" lon="6.04717">
        <ele>1680.1999511719</ele>
        <time>2026-08-21T09:54:28.000Z</time>
      </trkpt>
      <trkpt lat="45.25598" lon="6.04716">
        <ele>1680.5999755859</ele>
        <time>2026-08-21T09:54:29.000Z</time>
      </trkpt>
      <trkpt lat="45.25598" lon="6.04716">
        <ele>1681.1999511719</ele>
        <time>2026-08-21T09:54:30.000Z</time>
      </trkpt>
      <trkpt lat="45.25598" lon="6.04714">
        <ele>1681.5999755859</ele>
        <time>2026-08-21T09:54:31.000Z</time>
      </trkpt>
      <trkpt lat="45.25598" lon="6.04713">
        <ele>1681.5999755859</ele>
        <time>2026-08-21T09:54:32.000Z</time>
      </trkpt>
      <trkpt lat="45.25597" lon="6.04712">
        <ele>1681.5999755859</ele>
        <time>2026-08-21T09:54:33.000Z</time>
      </trkpt>
      <trkpt lat="45.25597" lon="6.04711">
        <ele>1682.1999511719</ele>
        <time>2026-08-21T09:54:34.000Z</time>
      </trkpt>
      <trkpt lat="45.25596" lon="6.0471">
        <ele>1682.1999511719</ele>
        <time>2026-08-21T09:54:35.000Z</time>
      </trkpt>
      <trkpt lat="45.25596" lon="6.04709">
        <ele>1682.1999511719</ele>
        <time>2026-08-21T09:54:36.000Z</time>
      </trkpt>
      <trkpt lat="45.25595" lon="6.04709">
        <ele>1682.1999511719</ele>
        <time>2026-08-21T09:54:37.000Z</time>
      </trkpt>
      <trkpt lat="45.25594" lon="6.04708">
        <ele>1682.1999511719</ele>
        <time>2026-08-21T09:54:38.000Z</time>
      </trkpt>
      <trkpt lat="45.25593" lon="6.04707">
        <ele>1682</ele>
        <time>2026-08-21T09:54:39.000Z</time>
      </trkpt>
      <trkpt lat="45.25592" lon="6.04708">
        <ele>1681.5999755859</ele>
        <time>2026-08-21T09:54:40.000Z</time>
      </trkpt>
      <trkpt lat="45.25591" lon="6.04708">
        <ele>1682</ele>
        <time>2026-08-21T09:54:41.000Z</time>
      </trkpt>
      <trkpt lat="45.2559" lon="6.04707">
        <ele>1682</ele>
        <time>2026-08-21T09:54:42.000Z</time>
      </trkpt>
      <trkpt lat="45.25589" lon="6.04707">
        <ele>1682</ele>
        <time>2026-08-21T09:54:43.000Z</time>
      </trkpt>
      <trkpt lat="45.25588" lon="6.04706">
        <ele>1681.8000488281</ele>
        <time>2026-08-21T09:54:44.000Z</time>
      </trkpt>
      <trkpt lat="45.25586" lon="6.04705">
        <ele>1681.5999755859</ele>
        <time>2026-08-21T09:54:45.000Z</time>
      </trkpt>
      <trkpt lat="45.25586" lon="6.04704">
        <ele>1681.1999511719</ele>
        <time>2026-08-21T09:54:46.000Z</time>
      </trkpt>
      <trkpt lat="45.25585" lon="6.04704">
        <ele>1680.5999755859</ele>
        <time>2026-08-21T09:54:47.000Z</time>
      </trkpt>
      <trkpt lat="45.25584" lon="6.04703">
        <ele>1680</ele>
        <time>2026-08-21T09:54:48.000Z</time>
      </trkpt>
      <trkpt lat="45.25583" lon="6.04702">
        <ele>1679.8000488281</ele>
        <time>2026-08-21T09:54:49.000Z</time>
      </trkpt>
      <trkpt lat="45.25582" lon="6.047">
        <ele>1679.8000488281</ele>
        <time>2026-08-21T09:54:50.000Z</time>
      </trkpt>
      <trkpt lat="45.25582" lon="6.04699">
        <ele>1679.8000488281</ele>
        <time>2026-08-21T09:54:51.000Z</time>
      </trkpt>
      <trkpt lat="45.25581" lon="6.04698">
        <ele>1679.8000488281</ele>
        <time>2026-08-21T09:54:52.000Z</time>
      </trkpt>
      <trkpt lat="45.2558" lon="6.04697">
        <ele>1680.1999511719</ele>
        <time>2026-08-21T09:54:53.000Z</time>
      </trkpt>
      <trkpt lat="45.2558" lon="6.04696">
        <ele>1680.1999511719</ele>
        <time>2026-08-21T09:54:54.000Z</time>
      </trkpt>
      <trkpt lat="45.25579" lon="6.04695">
        <ele>1680.4000244141</ele>
        <time>2026-08-21T09:54:55.000Z</time>
      </trkpt>
      <trkpt lat="45.25579" lon="6.04694">
        <ele>1680.5999755859</ele>
        <time>2026-08-21T09:54:56.000Z</time>
      </trkpt>
      <trkpt lat="45.25578" lon="6.04693">
        <ele>1681</ele>
        <time>2026-08-21T09:54:57.000Z</time>
      </trkpt>
      <trkpt lat="45.25577" lon="6.04692">
        <ele>1682.1999511719</ele>
        <time>2026-08-21T09:54:58.000Z</time>
      </trkpt>
      <trkpt lat="45.25577" lon="6.04691">
        <ele>1682.8000488281</ele>
        <time>2026-08-21T09:54:59.000Z</time>
      </trkpt>
      <trkpt lat="45.25576" lon="6.0469">
        <ele>1683.1999511719</ele>
        <time>2026-08-21T09:55:00.000Z</time>
      </trkpt>
      <trkpt lat="45.25575" lon="6.04689">
        <ele>1683.8000488281</ele>
        <time>2026-08-21T09:55:01.000Z</time>
      </trkpt>
      <trkpt lat="45.25574" lon="6.04689">
        <ele>1686</ele>
        <time>2026-08-21T09:55:02.000Z</time>
      </trkpt>
      <trkpt lat="45.25573" lon="6.04688">
        <ele>1687</ele>
        <time>2026-08-21T09:55:03.000Z</time>
      </trkpt>
      <trkpt lat="45.25573" lon="6.04687">
        <ele>1687.4000244141</ele>
        <time>2026-08-21T09:55:04.000Z</time>
      </trkpt>
      <trkpt lat="45.25572" lon="6.04686">
        <ele>1687.5999755859</ele>
        <time>2026-08-21T09:55:05.000Z</time>
      </trkpt>
      <trkpt lat="45.25572" lon="6.04685">
        <ele>1688.4000244141</ele>
        <time>2026-08-21T09:55:06.000Z</time>
      </trkpt>
      <trkpt lat="45.25571" lon="6.04685">
        <ele>1689</ele>
        <time>2026-08-21T09:55:07.000Z</time>
      </trkpt>
      <trkpt lat="45.25571" lon="6.04684">
        <ele>1689.4000244141</ele>
        <time>2026-08-21T09:55:08.000Z</time>
      </trkpt>
      <trkpt lat="45.2557" lon="6.04683">
        <ele>1689.8000488281</ele>
        <time>2026-08-21T09:55:09.000Z</time>
      </trkpt>
      <trkpt lat="45.2557" lon="6.04682">
        <ele>1690.4000244141</ele>
        <time>2026-08-21T09:55:10.000Z</time>
      </trkpt>
      <trkpt lat="45.25568" lon="6.04682">
        <ele>1691.4000244141</ele>
        <time>2026-08-21T09:55:11.000Z</time>
      </trkpt>
      <trkpt lat="45.25567" lon="6.04681">
        <ele>1691.5999755859</ele>
        <time>2026-08-21T09:55:12.000Z</time>
      </trkpt>
      <trkpt lat="45.25567" lon="6.04681">
        <ele>1692</ele>
        <time>2026-08-21T09:55:13.000Z</time>
      </trkpt>
      <trkpt lat="45.25566" lon="6.0468">
        <ele>1692.1999511719</ele>
        <time>2026-08-21T09:55:14.000Z</time>
      </trkpt>
      <trkpt lat="45.25565" lon="6.04678">
        <ele>1692.5999755859</ele>
        <time>2026-08-21T09:55:15.000Z</time>
      </trkpt>
      <trkpt lat="45.25565" lon="6.04677">
        <ele>1692.8000488281</ele>
        <time>2026-08-21T09:55:16.000Z</time>
      </trkpt>
      <trkpt lat="45.25565" lon="6.04676">
        <ele>1693.4000244141</ele>
        <time>2026-08-21T09:55:17.000Z</time>
      </trkpt>
      <trkpt lat="45.25564" lon="6.04676">
        <ele>1693.8000488281</ele>
        <time>2026-08-21T09:55:18.000Z</time>
      </trkpt>
      <trkpt lat="45.25564" lon="6.04675">
        <ele>1693.8000488281</ele>
        <time>2026-08-21T09:55:19.000Z</time>
      </trkpt>
      <trkpt lat="45.25563" lon="6.04674">
        <ele>1693.8000488281</ele>
        <time>2026-08-21T09:55:20.000Z</time>
      </trkpt>
      <trkpt lat="45.25562" lon="6.04673">
        <ele>1693.5999755859</ele>
        <time>2026-08-21T09:55:21.000Z</time>
      </trkpt>
      <trkpt lat="45.25562" lon="6.04673">
        <ele>1693.8000488281</ele>
        <time>2026-08-21T09:55:22.000Z</time>
      </trkpt>
      <trkpt lat="45.2556" lon="6.04672">
        <ele>1693.8000488281</ele>
        <time>2026-08-21T09:55:23.000Z</time>
      </trkpt>
      <trkpt lat="45.25559" lon="6.04671">
        <ele>1694</ele>
        <time>2026-08-21T09:55:24.000Z</time>
      </trkpt>
      <trkpt lat="45.25558" lon="6.0467">
        <ele>1694</ele>
        <time>2026-08-21T09:55:25.000Z</time>
      </trkpt>
      <trkpt lat="45.25557" lon="6.04669">
        <ele>1694.4000244141</ele>
        <time>2026-08-21T09:55:26.000Z</time>
      </trkpt>
      <trkpt lat="45.25557" lon="6.04668">
        <ele>1694.5999755859</ele>
        <time>2026-08-21T09:55:27.000Z</time>
      </trkpt>
      <trkpt lat="45.25556" lon="6.04667">
        <ele>1694.8000488281</ele>
        <time>2026-08-21T09:55:28.000Z</time>
      </trkpt>
      <trkpt lat="45.25556" lon="6.04666">
        <ele>1695</ele>
        <time>2026-08-21T09:55:29.000Z</time>
      </trkpt>
      <trkpt lat="45.25555" lon="6.04665">
        <ele>1695.4000244141</ele>
        <time>2026-08-21T09:55:30.000Z</time>
      </trkpt>
      <trkpt lat="45.25555" lon="6.04665">
        <ele>1695.8000488281</ele>
        <time>2026-08-21T09:55:31.000Z</time>
      </trkpt>
      <trkpt lat="45.25554" lon="6.04664">
        <ele>1696.1999511719</ele>
        <time>2026-08-21T09:55:32.000Z</time>
      </trkpt>
      <trkpt lat="45.25553" lon="6.04663">
        <ele>1696.4000244141</ele>
        <time>2026-08-21T09:55:33.000Z</time>
      </trkpt>
      <trkpt lat="45.25553" lon="6.04663">
        <ele>1697</ele>
        <time>2026-08-21T09:55:34.000Z</time>
      </trkpt>
      <trkpt lat="45.25552" lon="6.04662">
        <ele>1697.4000244141</ele>
        <time>2026-08-21T09:55:35.000Z</time>
      </trkpt>
      <trkpt lat="45.25552" lon="6.04661">
        <ele>1697.5999755859</ele>
        <time>2026-08-21T09:55:36.000Z</time>
      </trkpt>
      <trkpt lat="45.25552" lon="6.04658">
        <ele>1697.5999755859</ele>
        <time>2026-08-21T09:55:37.000Z</time>
      </trkpt>
      <trkpt lat="45.25551" lon="6.04657">
        <ele>1697.4000244141</ele>
        <time>2026-08-21T09:55:38.000Z</time>
      </trkpt>
      <trkpt lat="45.25551" lon="6.04656">
        <ele>1697.4000244141</ele>
        <time>2026-08-21T09:55:39.000Z</time>
      </trkpt>
      <trkpt lat="45.2555" lon="6.04655">
        <ele>1697.1999511719</ele>
        <time>2026-08-21T09:55:40.000Z</time>
      </trkpt>
      <trkpt lat="45.25549" lon="6.04654">
        <ele>1697.1999511719</ele>
        <time>2026-08-21T09:55:41.000Z</time>
      </trkpt>
      <trkpt lat="45.25548" lon="6.04653">
        <ele>1696</ele>
        <time>2026-08-21T09:55:42.000Z</time>
      </trkpt>
      <trkpt lat="45.25547" lon="6.04652">
        <ele>1695.1999511719</ele>
        <time>2026-08-21T09:55:43.000Z</time>
      </trkpt>
      <trkpt lat="45.25547" lon="6.04651">
        <ele>1694.8000488281</ele>
        <time>2026-08-21T09:55:44.000Z</time>
      </trkpt>
      <trkpt lat="45.25546" lon="6.0465">
        <ele>1694.5999755859</ele>
        <time>2026-08-21T09:55:45.000Z</time>
      </trkpt>
      <trkpt lat="45.25546" lon="6.04649">
        <ele>1694.4000244141</ele>
        <time>2026-08-21T09:55:46.000Z</time>
      </trkpt>
      <trkpt lat="45.25545" lon="6.04648">
        <ele>1694</ele>
        <time>2026-08-21T09:55:47.000Z</time>
      </trkpt>
      <trkpt lat="45.25545" lon="6.04647">
        <ele>1693.5999755859</ele>
        <time>2026-08-21T09:55:48.000Z</time>
      </trkpt>
      <trkpt lat="45.25544" lon="6.04646">
        <ele>1693.4000244141</ele>
        <time>2026-08-21T09:55:49.000Z</time>
      </trkpt>
      <trkpt lat="45.25544" lon="6.04644">
        <ele>1693.5999755859</ele>
        <time>2026-08-21T09:55:50.000Z</time>
      </trkpt>
      <trkpt lat="45.25543" lon="6.04643">
        <ele>1693.5999755859</ele>
        <time>2026-08-21T09:55:51.000Z</time>
      </trkpt>
      <trkpt lat="45.25542" lon="6.04642">
        <ele>1693.5999755859</ele>
        <time>2026-08-21T09:55:52.000Z</time>
      </trkpt>
      <trkpt lat="45.25542" lon="6.04641">
        <ele>1693.8000488281</ele>
        <time>2026-08-21T09:55:53.000Z</time>
      </trkpt>
      <trkpt lat="45.25541" lon="6.0464">
        <ele>1694.4000244141</ele>
        <time>2026-08-21T09:55:54.000Z</time>
      </trkpt>
      <trkpt lat="45.25539" lon="6.04638">
        <ele>1694.5999755859</ele>
        <time>2026-08-21T09:55:55.000Z</time>
      </trkpt>
      <trkpt lat="45.25539" lon="6.04637">
        <ele>1695.1999511719</ele>
        <time>2026-08-21T09:55:56.000Z</time>
      </trkpt>
      <trkpt lat="45.25539" lon="6.04636">
        <ele>1696</ele>
        <time>2026-08-21T09:55:57.000Z</time>
      </trkpt>
      <trkpt lat="45.25538" lon="6.04636">
        <ele>1696.5999755859</ele>
        <time>2026-08-21T09:55:58.000Z</time>
      </trkpt>
      <trkpt lat="45.25538" lon="6.04635">
        <ele>1697.1999511719</ele>
        <time>2026-08-21T09:55:59.000Z</time>
      </trkpt>
      <trkpt lat="45.25537" lon="6.04634">
        <ele>1698</ele>
        <time>2026-08-21T09:56:00.000Z</time>
      </trkpt>
      <trkpt lat="45.25536" lon="6.04634">
        <ele>1698.5999755859</ele>
        <time>2026-08-21T09:56:01.000Z</time>
      </trkpt>
      <trkpt lat="45.25536" lon="6.04633">
        <ele>1699.1999511719</ele>
        <time>2026-08-21T09:56:02.000Z</time>
      </trkpt>
      <trkpt lat="45.25535" lon="6.04633">
        <ele>1700</ele>
        <time>2026-08-21T09:56:03.000Z</time>
      </trkpt>
      <trkpt lat="45.25533" lon="6.04633">
        <ele>1700.4000244141</ele>
        <time>2026-08-21T09:56:04.000Z</time>
      </trkpt>
      <trkpt lat="45.25532" lon="6.04633">
        <ele>1700.5999755859</ele>
        <time>2026-08-21T09:56:05.000Z</time>
      </trkpt>
      <trkpt lat="45.25531" lon="6.04632">
        <ele>1700.8000488281</ele>
        <time>2026-08-21T09:56:06.000Z</time>
      </trkpt>
      <trkpt lat="45.25531" lon="6.04631">
        <ele>1702.1999511719</ele>
        <time>2026-08-21T09:56:07.000Z</time>
      </trkpt>
      <trkpt lat="45.2553" lon="6.04631">
        <ele>1703.5999755859</ele>
        <time>2026-08-21T09:56:08.000Z</time>
      </trkpt>
      <trkpt lat="45.2553" lon="6.0463">
        <ele>1704.5999755859</ele>
        <time>2026-08-21T09:56:09.000Z</time>
      </trkpt>
      <trkpt lat="45.25529" lon="6.04629">
        <ele>1705</ele>
        <time>2026-08-21T09:56:10.000Z</time>
      </trkpt>
      <trkpt lat="45.25528" lon="6.04629">
        <ele>1705.5999755859</ele>
        <time>2026-08-21T09:56:11.000Z</time>
      </trkpt>
      <trkpt lat="45.25527" lon="6.04628">
        <ele>1706</ele>
        <time>2026-08-21T09:56:12.000Z</time>
      </trkpt>
      <trkpt lat="45.25526" lon="6.04628">
        <ele>1707.1999511719</ele>
        <time>2026-08-21T09:56:13.000Z</time>
      </trkpt>
      <trkpt lat="45.25525" lon="6.04628">
        <ele>1708.1999511719</ele>
        <time>2026-08-21T09:56:14.000Z</time>
      </trkpt>
      <trkpt lat="45.25524" lon="6.04628">
        <ele>1709.1999511719</ele>
        <time>2026-08-21T09:56:15.000Z</time>
      </trkpt>
      <trkpt lat="45.25523" lon="6.04628">
        <ele>1710.1999511719</ele>
        <time>2026-08-21T09:56:16.000Z</time>
      </trkpt>
      <trkpt lat="45.25522" lon="6.04628">
        <ele>1711.8000488281</ele>
        <time>2026-08-21T09:56:17.000Z</time>
      </trkpt>
      <trkpt lat="45.25521" lon="6.04628">
        <ele>1712.4000244141</ele>
        <time>2026-08-21T09:56:18.000Z</time>
      </trkpt>
      <trkpt lat="45.2552" lon="6.04627">
        <ele>1713</ele>
        <time>2026-08-21T09:56:19.000Z</time>
      </trkpt>
      <trkpt lat="45.25519" lon="6.04627">
        <ele>1713.5999755859</ele>
        <time>2026-08-21T09:56:20.000Z</time>
      </trkpt>
      <trkpt lat="45.25518" lon="6.04627">
        <ele>1714</ele>
        <time>2026-08-21T09:56:21.000Z</time>
      </trkpt>
      <trkpt lat="45.25518" lon="6.04626">
        <ele>1714.4000244141</ele>
        <time>2026-08-21T09:56:22.000Z</time>
      </trkpt>
      <trkpt lat="45.25517" lon="6.04626">
        <ele>1714.5999755859</ele>
        <time>2026-08-21T09:56:23.000Z</time>
      </trkpt>
      <trkpt lat="45.25516" lon="6.04626">
        <ele>1715</ele>
        <time>2026-08-21T09:56:24.000Z</time>
      </trkpt>
      <trkpt lat="45.25515" lon="6.04626">
        <ele>1715.4000244141</ele>
        <time>2026-08-21T09:56:25.000Z</time>
      </trkpt>
      <trkpt lat="45.25514" lon="6.04626">
        <ele>1715.1999511719</ele>
        <time>2026-08-21T09:56:26.000Z</time>
      </trkpt>
      <trkpt lat="45.25514" lon="6.04625">
        <ele>1715.1999511719</ele>
        <time>2026-08-21T09:56:27.000Z</time>
      </trkpt>
      <trkpt lat="45.25513" lon="6.04624">
        <ele>1715.1999511719</ele>
        <time>2026-08-21T09:56:28.000Z</time>
      </trkpt>
      <trkpt lat="45.25513" lon="6.04624">
        <ele>1715</ele>
        <time>2026-08-21T09:56:29.000Z</time>
      </trkpt>
      <trkpt lat="45.25512" lon="6.04624">
        <ele>1714.4000244141</ele>
        <time>2026-08-21T09:56:30.000Z</time>
      </trkpt>
      <trkpt lat="45.25511" lon="6.04624">
        <ele>1714.1999511719</ele>
        <time>2026-08-21T09:56:31.000Z</time>
      </trkpt>
      <trkpt lat="45.2551" lon="6.04624">
        <ele>1713.8000488281</ele>
        <time>2026-08-21T09:56:32.000Z</time>
      </trkpt>
      <trkpt lat="45.25509" lon="6.04624">
        <ele>1713</ele>
        <time>2026-08-21T09:56:33.000Z</time>
      </trkpt>
      <trkpt lat="45.25509" lon="6.04624">
        <ele>1712.5999755859</ele>
        <time>2026-08-21T09:56:34.000Z</time>
      </trkpt>
      <trkpt lat="45.25508" lon="6.04623">
        <ele>1712.5999755859</ele>
        <time>2026-08-21T09:56:35.000Z</time>
      </trkpt>
      <trkpt lat="45.25507" lon="6.04623">
        <ele>1712.4000244141</ele>
        <time>2026-08-21T09:56:36.000Z</time>
      </trkpt>
      <trkpt lat="45.25507" lon="6.04623">
        <ele>1712.5999755859</ele>
        <time>2026-08-21T09:56:37.000Z</time>
      </trkpt>
      <trkpt lat="45.25506" lon="6.04623">
        <ele>1712.8000488281</ele>
        <time>2026-08-21T09:56:38.000Z</time>
      </trkpt>
      <trkpt lat="45.25504" lon="6.04623">
        <ele>1713.1999511719</ele>
        <time>2026-08-21T09:56:39.000Z</time>
      </trkpt>
      <trkpt lat="45.25503" lon="6.04622">
        <ele>1713.4000244141</ele>
        <time>2026-08-21T09:56:40.000Z</time>
      </trkpt>
      <trkpt lat="45.25503" lon="6.04621">
        <ele>1713.8000488281</ele>
        <time>2026-08-21T09:56:41.000Z</time>
      </trkpt>
      <trkpt lat="45.25502" lon="6.0462">
        <ele>1714</ele>
        <time>2026-08-21T09:56:42.000Z</time>
      </trkpt>
      <trkpt lat="45.25501" lon="6.0462">
        <ele>1714.5999755859</ele>
        <time>2026-08-21T09:56:43.000Z</time>
      </trkpt>
      <trkpt lat="45.255" lon="6.0462">
        <ele>1715</ele>
        <time>2026-08-21T09:56:44.000Z</time>
      </trkpt>
      <trkpt lat="45.25499" lon="6.04619">
        <ele>1715.1999511719</ele>
        <time>2026-08-21T09:56:45.000Z</time>
      </trkpt>
      <trkpt lat="45.25498" lon="6.04618">
        <ele>1715.1999511719</ele>
        <time>2026-08-21T09:56:46.000Z</time>
      </trkpt>
      <trkpt lat="45.25498" lon="6.04617">
        <ele>1715.4000244141</ele>
        <time>2026-08-21T09:56:47.000Z</time>
      </trkpt>
      <trkpt lat="45.25497" lon="6.04616">
        <ele>1715.5999755859</ele>
        <time>2026-08-21T09:56:48.000Z</time>
      </trkpt>
      <trkpt lat="45.25497" lon="6.04615">
        <ele>1715.5999755859</ele>
        <time>2026-08-21T09:56:49.000Z</time>
      </trkpt>
      <trkpt lat="45.25496" lon="6.04614">
        <ele>1715.5999755859</ele>
        <time>2026-08-21T09:56:50.000Z</time>
      </trkpt>
      <trkpt lat="45.25496" lon="6.04614">
        <ele>1715.5999755859</ele>
        <time>2026-08-21T09:56:51.000Z</time>
      </trkpt>
      <trkpt lat="45.25495" lon="6.04613">
        <ele>1715.5999755859</ele>
        <time>2026-08-21T09:56:52.000Z</time>
      </trkpt>
      <trkpt lat="45.25495" lon="6.04613">
        <ele>1715.5999755859</ele>
        <time>2026-08-21T09:56:53.000Z</time>
      </trkpt>
      <trkpt lat="45.25494" lon="6.04612">
        <ele>1715.5999755859</ele>
        <time>2026-08-21T09:56:54.000Z</time>
      </trkpt>
      <trkpt lat="45.25493" lon="6.04611">
        <ele>1716</ele>
        <time>2026-08-21T09:56:55.000Z</time>
      </trkpt>
      <trkpt lat="45.25493" lon="6.0461">
        <ele>1716.4000244141</ele>
        <time>2026-08-21T09:56:56.000Z</time>
      </trkpt>
      <trkpt lat="45.25492" lon="6.0461">
        <ele>1717</ele>
        <time>2026-08-21T09:56:57.000Z</time>
      </trkpt>
      <trkpt lat="45.25492" lon="6.04609">
        <ele>1717.4000244141</ele>
        <time>2026-08-21T09:56:58.000Z</time>
      </trkpt>
      <trkpt lat="45.25491" lon="6.04608">
        <ele>1717.8000488281</ele>
        <time>2026-08-21T09:56:59.000Z</time>
      </trkpt>
      <trkpt lat="45.2549" lon="6.04608">
        <ele>1718</ele>
        <time>2026-08-21T09:57:00.000Z</time>
      </trkpt>
      <trkpt lat="45.2549" lon="6.04607">
        <ele>1718.5999755859</ele>
        <time>2026-08-21T09:57:01.000Z</time>
      </trkpt>
      <trkpt lat="45.25489" lon="6.04606">
        <ele>1718.5999755859</ele>
        <time>2026-08-21T09:57:02.000Z</time>
      </trkpt>
      <trkpt lat="45.25488" lon="6.04605">
        <ele>1719.1999511719</ele>
        <time>2026-08-21T09:57:03.000Z</time>
      </trkpt>
      <trkpt lat="45.25488" lon="6.04605">
        <ele>1719.4000244141</ele>
        <time>2026-08-21T09:57:04.000Z</time>
      </trkpt>
      <trkpt lat="45.25487" lon="6.04604">
        <ele>1719.5999755859</ele>
        <time>2026-08-21T09:57:05.000Z</time>
      </trkpt>
      <trkpt lat="45.25486" lon="6.04603">
        <ele>1719.5999755859</ele>
        <time>2026-08-21T09:57:06.000Z</time>
      </trkpt>
      <trkpt lat="45.25486" lon="6.04603">
        <ele>1719.5999755859</ele>
        <time>2026-08-21T09:57:07.000Z</time>
      </trkpt>
      <trkpt lat="45.25485" lon="6.04602">
        <ele>1719.5999755859</ele>
        <time>2026-08-21T09:57:08.000Z</time>
      </trkpt>
      <trkpt lat="45.25484" lon="6.04601">
        <ele>1719.4000244141</ele>
        <time>2026-08-21T09:57:09.000Z</time>
      </trkpt>
      <trkpt lat="45.25483" lon="6.046">
        <ele>1719.4000244141</ele>
        <time>2026-08-21T09:57:10.000Z</time>
      </trkpt>
      <trkpt lat="45.25483" lon="6.046">
        <ele>1718.4000244141</ele>
        <time>2026-08-21T09:57:11.000Z</time>
      </trkpt>
      <trkpt lat="45.25482" lon="6.046">
        <ele>1718</ele>
        <time>2026-08-21T09:57:12.000Z</time>
      </trkpt>
      <trkpt lat="45.25481" lon="6.04599">
        <ele>1717.8000488281</ele>
        <time>2026-08-21T09:57:13.000Z</time>
      </trkpt>
      <trkpt lat="45.25481" lon="6.04599">
        <ele>1717.5999755859</ele>
        <time>2026-08-21T09:57:14.000Z</time>
      </trkpt>
      <trkpt lat="45.25479" lon="6.04598">
        <ele>1717.5999755859</ele>
        <time>2026-08-21T09:57:15.000Z</time>
      </trkpt>
      <trkpt lat="45.25479" lon="6.04597">
        <ele>1717.8000488281</ele>
        <time>2026-08-21T09:57:16.000Z</time>
      </trkpt>
      <trkpt lat="45.25478" lon="6.04597">
        <ele>1717.8000488281</ele>
        <time>2026-08-21T09:57:17.000Z</time>
      </trkpt>
      <trkpt lat="45.25477" lon="6.04596">
        <ele>1717.8000488281</ele>
        <time>2026-08-21T09:57:18.000Z</time>
      </trkpt>
      <trkpt lat="45.25476" lon="6.04595">
        <ele>1718</ele>
        <time>2026-08-21T09:57:19.000Z</time>
      </trkpt>
      <trkpt lat="45.25476" lon="6.04595">
        <ele>1718</ele>
        <time>2026-08-21T09:57:20.000Z</time>
      </trkpt>
      <trkpt lat="45.25476" lon="6.04593">
        <ele>1718</ele>
        <time>2026-08-21T09:57:21.000Z</time>
      </trkpt>
      <trkpt lat="45.25475" lon="6.04592">
        <ele>1718.1999511719</ele>
        <time>2026-08-21T09:57:22.000Z</time>
      </trkpt>
      <trkpt lat="45.25475" lon="6.04592">
        <ele>1718.1999511719</ele>
        <time>2026-08-21T09:57:23.000Z</time>
      </trkpt>
      <trkpt lat="45.25474" lon="6.04591">
        <ele>1718.1999511719</ele>
        <time>2026-08-21T09:57:24.000Z</time>
      </trkpt>
      <trkpt lat="45.25473" lon="6.0459">
        <ele>1718.1999511719</ele>
        <time>2026-08-21T09:57:25.000Z</time>
      </trkpt>
      <trkpt lat="45.25473" lon="6.04589">
        <ele>1718.4000244141</ele>
        <time>2026-08-21T09:57:26.000Z</time>
      </trkpt>
      <trkpt lat="45.25472" lon="6.04588">
        <ele>1718.8000488281</ele>
        <time>2026-08-21T09:57:27.000Z</time>
      </trkpt>
      <trkpt lat="45.25471" lon="6.04587">
        <ele>1719.1999511719</ele>
        <time>2026-08-21T09:57:28.000Z</time>
      </trkpt>
      <trkpt lat="45.25471" lon="6.04586">
        <ele>1719.4000244141</ele>
        <time>2026-08-21T09:57:29.000Z</time>
      </trkpt>
      <trkpt lat="45.25471" lon="6.04585">
        <ele>1719.8000488281</ele>
        <time>2026-08-21T09:57:30.000Z</time>
      </trkpt>
      <trkpt lat="45.25471" lon="6.04583">
        <ele>1720.1999511719</ele>
        <time>2026-08-21T09:57:31.000Z</time>
      </trkpt>
      <trkpt lat="45.2547" lon="6.04582">
        <ele>1720.8000488281</ele>
        <time>2026-08-21T09:57:32.000Z</time>
      </trkpt>
      <trkpt lat="45.2547" lon="6.04581">
        <ele>1721</ele>
        <time>2026-08-21T09:57:33.000Z</time>
      </trkpt>
      <trkpt lat="45.2547" lon="6.0458">
        <ele>1721.4000244141</ele>
        <time>2026-08-21T09:57:34.000Z</time>
      </trkpt>
      <trkpt lat="45.25469" lon="6.04579">
        <ele>1721.5999755859</ele>
        <time>2026-08-21T09:57:35.000Z</time>
      </trkpt>
      <trkpt lat="45.25469" lon="6.04578">
        <ele>1721.8000488281</ele>
        <time>2026-08-21T09:57:36.000Z</time>
      </trkpt>
      <trkpt lat="45.25469" lon="6.04578">
        <ele>1722.1999511719</ele>
        <time>2026-08-21T09:57:37.000Z</time>
      </trkpt>
      <trkpt lat="45.25468" lon="6.04576">
        <ele>1722.5999755859</ele>
        <time>2026-08-21T09:57:38.000Z</time>
      </trkpt>
      <trkpt lat="45.25467" lon="6.04576">
        <ele>1723.1999511719</ele>
        <time>2026-08-21T09:57:39.000Z</time>
      </trkpt>
      <trkpt lat="45.25466" lon="6.04575">
        <ele>1723.5999755859</ele>
        <time>2026-08-21T09:57:40.000Z</time>
      </trkpt>
      <trkpt lat="45.25466" lon="6.04573">
        <ele>1724.1999511719</ele>
        <time>2026-08-21T09:57:41.000Z</time>
      </trkpt>
      <trkpt lat="45.25465" lon="6.04572">
        <ele>1724.5999755859</ele>
        <time>2026-08-21T09:57:42.000Z</time>
      </trkpt>
      <trkpt lat="45.25465" lon="6.04571">
        <ele>1726.4000244141</ele>
        <time>2026-08-21T09:57:43.000Z</time>
      </trkpt>
      <trkpt lat="45.25465" lon="6.0457">
        <ele>1726.5999755859</ele>
        <time>2026-08-21T09:57:44.000Z</time>
      </trkpt>
      <trkpt lat="45.25464" lon="6.04569">
        <ele>1727</ele>
        <time>2026-08-21T09:57:45.000Z</time>
      </trkpt>
      <trkpt lat="45.25464" lon="6.04568">
        <ele>1727.1999511719</ele>
        <time>2026-08-21T09:57:46.000Z</time>
      </trkpt>
      <trkpt lat="45.25463" lon="6.04567">
        <ele>1728.1999511719</ele>
        <time>2026-08-21T09:57:47.000Z</time>
      </trkpt>
      <trkpt lat="45.25463" lon="6.04566">
        <ele>1729.4000244141</ele>
        <time>2026-08-21T09:57:48.000Z</time>
      </trkpt>
      <trkpt lat="45.25462" lon="6.04565">
        <ele>1730</ele>
        <time>2026-08-21T09:57:49.000Z</time>
      </trkpt>
      <trkpt lat="45.25461" lon="6.04564">
        <ele>1730.5999755859</ele>
        <time>2026-08-21T09:57:50.000Z</time>
      </trkpt>
      <trkpt lat="45.2546" lon="6.04563">
        <ele>1731.1999511719</ele>
        <time>2026-08-21T09:57:51.000Z</time>
      </trkpt>
      <trkpt lat="45.2546" lon="6.04562">
        <ele>1731.5999755859</ele>
        <time>2026-08-21T09:57:52.000Z</time>
      </trkpt>
      <trkpt lat="45.25459" lon="6.04561">
        <ele>1732</ele>
        <time>2026-08-21T09:57:53.000Z</time>
      </trkpt>
      <trkpt lat="45.25459" lon="6.0456">
        <ele>1732</ele>
        <time>2026-08-21T09:57:54.000Z</time>
      </trkpt>
      <trkpt lat="45.25458" lon="6.04559">
        <ele>1732.1999511719</ele>
        <time>2026-08-21T09:57:55.000Z</time>
      </trkpt>
      <trkpt lat="45.25458" lon="6.04558">
        <ele>1732.4000244141</ele>
        <time>2026-08-21T09:57:56.000Z</time>
      </trkpt>
      <trkpt lat="45.25457" lon="6.04557">
        <ele>1732.8000488281</ele>
        <time>2026-08-21T09:57:57.000Z</time>
      </trkpt>
      <trkpt lat="45.25457" lon="6.04556">
        <ele>1733.1999511719</ele>
        <time>2026-08-21T09:57:58.000Z</time>
      </trkpt>
      <trkpt lat="45.25457" lon="6.04555">
        <ele>1733.5999755859</ele>
        <time>2026-08-21T09:57:59.000Z</time>
      </trkpt>
      <trkpt lat="45.25456" lon="6.04554">
        <ele>1733.8000488281</ele>
        <time>2026-08-21T09:58:00.000Z</time>
      </trkpt>
      <trkpt lat="45.25455" lon="6.04553">
        <ele>1734.4000244141</ele>
        <time>2026-08-21T09:58:01.000Z</time>
      </trkpt>
      <trkpt lat="45.25454" lon="6.04552">
        <ele>1735.4000244141</ele>
        <time>2026-08-21T09:58:02.000Z</time>
      </trkpt>
      <trkpt lat="45.25454" lon="6.04551">
        <ele>1735.8000488281</ele>
        <time>2026-08-21T09:58:03.000Z</time>
      </trkpt>
      <trkpt lat="45.25453" lon="6.0455">
        <ele>1736</ele>
        <time>2026-08-21T09:58:04.000Z</time>
      </trkpt>
      <trkpt lat="45.25452" lon="6.04549">
        <ele>1736.1999511719</ele>
        <time>2026-08-21T09:58:05.000Z</time>
      </trkpt>
      <trkpt lat="45.25452" lon="6.04548">
        <ele>1736.4000244141</ele>
        <time>2026-08-21T09:58:06.000Z</time>
      </trkpt>
      <trkpt lat="45.25451" lon="6.04547">
        <ele>1736.5999755859</ele>
        <time>2026-08-21T09:58:07.000Z</time>
      </trkpt>
      <trkpt lat="45.2545" lon="6.04547">
        <ele>1736.5999755859</ele>
        <time>2026-08-21T09:58:08.000Z</time>
      </trkpt>
      <trkpt lat="45.25449" lon="6.04548">
        <ele>1736.5999755859</ele>
        <time>2026-08-21T09:58:09.000Z</time>
      </trkpt>
      <trkpt lat="45.25448" lon="6.04549">
        <ele>1736.5999755859</ele>
        <time>2026-08-21T09:58:10.000Z</time>
      </trkpt>
      <trkpt lat="45.25447" lon="6.04548">
        <ele>1736.5999755859</ele>
        <time>2026-08-21T09:58:11.000Z</time>
      </trkpt>
      <trkpt lat="45.25446" lon="6.04548">
        <ele>1736.5999755859</ele>
        <time>2026-08-21T09:58:12.000Z</time>
      </trkpt>
      <trkpt lat="45.25445" lon="6.04548">
        <ele>1736.1999511719</ele>
        <time>2026-08-21T09:58:13.000Z</time>
      </trkpt>
      <trkpt lat="45.25444" lon="6.04548">
        <ele>1735.4000244141</ele>
        <time>2026-08-21T09:58:14.000Z</time>
      </trkpt>
      <trkpt lat="45.25442" lon="6.04549">
        <ele>1735.1999511719</ele>
        <time>2026-08-21T09:58:15.000Z</time>
      </trkpt>
      <trkpt lat="45.25441" lon="6.04549">
        <ele>1734.8000488281</ele>
        <time>2026-08-21T09:58:16.000Z</time>
      </trkpt>
      <trkpt lat="45.2544" lon="6.0455">
        <ele>1734</ele>
        <time>2026-08-21T09:58:17.000Z</time>
      </trkpt>
      <trkpt lat="45.25439" lon="6.04552">
        <ele>1733.5999755859</ele>
        <time>2026-08-21T09:58:18.000Z</time>
      </trkpt>
      <trkpt lat="45.25438" lon="6.04553">
        <ele>1733.1999511719</ele>
        <time>2026-08-21T09:58:19.000Z</time>
      </trkpt>
      <trkpt lat="45.25437" lon="6.04554">
        <ele>1733</ele>
        <time>2026-08-21T09:58:20.000Z</time>
      </trkpt>
      <trkpt lat="45.25437" lon="6.04554">
        <ele>1733</ele>
        <time>2026-08-21T09:58:21.000Z</time>
      </trkpt>
      <trkpt lat="45.25436" lon="6.04555">
        <ele>1732.8000488281</ele>
        <time>2026-08-21T09:58:22.000Z</time>
      </trkpt>
      <trkpt lat="45.25435" lon="6.04556">
        <ele>1733.1999511719</ele>
        <time>2026-08-21T09:58:23.000Z</time>
      </trkpt>
      <trkpt lat="45.25435" lon="6.04556">
        <ele>1733.5999755859</ele>
        <time>2026-08-21T09:58:24.000Z</time>
      </trkpt>
      <trkpt lat="45.25434" lon="6.04558">
        <ele>1734</ele>
        <time>2026-08-21T09:58:25.000Z</time>
      </trkpt>
      <trkpt lat="45.25433" lon="6.04558">
        <ele>1734.8000488281</ele>
        <time>2026-08-21T09:58:26.000Z</time>
      </trkpt>
      <trkpt lat="45.25432" lon="6.04558">
        <ele>1735.4000244141</ele>
        <time>2026-08-21T09:58:27.000Z</time>
      </trkpt>
      <trkpt lat="45.25431" lon="6.04558">
        <ele>1736.1999511719</ele>
        <time>2026-08-21T09:58:28.000Z</time>
      </trkpt>
      <trkpt lat="45.25429" lon="6.04558">
        <ele>1736.8000488281</ele>
        <time>2026-08-21T09:58:29.000Z</time>
      </trkpt>
      <trkpt lat="45.25428" lon="6.04557">
        <ele>1737.5999755859</ele>
        <time>2026-08-21T09:58:30.000Z</time>
      </trkpt>
      <trkpt lat="45.25427" lon="6.04557">
        <ele>1737.5999755859</ele>
        <time>2026-08-21T09:58:31.000Z</time>
      </trkpt>
      <trkpt lat="45.25426" lon="6.04556">
        <ele>1738</ele>
        <time>2026-08-21T09:58:32.000Z</time>
      </trkpt>
      <trkpt lat="45.25425" lon="6.04555">
        <ele>1738.1999511719</ele>
        <time>2026-08-21T09:58:33.000Z</time>
      </trkpt>
      <trkpt lat="45.25424" lon="6.04554">
        <ele>1738.1999511719</ele>
        <time>2026-08-21T09:58:34.000Z</time>
      </trkpt>
      <trkpt lat="45.25423" lon="6.04554">
        <ele>1738.1999511719</ele>
        <time>2026-08-21T09:58:35.000Z</time>
      </trkpt>
      <trkpt lat="45.25422" lon="6.04554">
        <ele>1738.1999511719</ele>
        <time>2026-08-21T09:58:36.000Z</time>
      </trkpt>
      <trkpt lat="45.25422" lon="6.04554">
        <ele>1738.1999511719</ele>
        <time>2026-08-21T09:58:37.000Z</time>
      </trkpt>
      <trkpt lat="45.25421" lon="6.04555">
        <ele>1738.1999511719</ele>
        <time>2026-08-21T09:58:38.000Z</time>
      </trkpt>
      <trkpt lat="45.2542" lon="6.04556">
        <ele>1738.1999511719</ele>
        <time>2026-08-21T09:58:39.000Z</time>
      </trkpt>
      <trkpt lat="45.25419" lon="6.04556">
        <ele>1738.1999511719</ele>
        <time>2026-08-21T09:58:40.000Z</time>
      </trkpt>
      <trkpt lat="45.25418" lon="6.04556">
        <ele>1738.1999511719</ele>
        <time>2026-08-21T09:58:41.000Z</time>
      </trkpt>
      <trkpt lat="45.25417" lon="6.04557">
        <ele>1738.1999511719</ele>
        <time>2026-08-21T09:58:42.000Z</time>
      </trkpt>
      <trkpt lat="45.25415" lon="6.04557">
        <ele>1738.4000244141</ele>
        <time>2026-08-21T09:58:43.000Z</time>
      </trkpt>
      <trkpt lat="45.25414" lon="6.04557">
        <ele>1738.5999755859</ele>
        <time>2026-08-21T09:58:44.000Z</time>
      </trkpt>
      <trkpt lat="45.25413" lon="6.04557">
        <ele>1738.8000488281</ele>
        <time>2026-08-21T09:58:45.000Z</time>
      </trkpt>
      <trkpt lat="45.25411" lon="6.04558">
        <ele>1739</ele>
        <time>2026-08-21T09:58:46.000Z</time>
      </trkpt>
      <trkpt lat="45.2541" lon="6.04559">
        <ele>1739.1999511719</ele>
        <time>2026-08-21T09:58:47.000Z</time>
      </trkpt>
      <trkpt lat="45.25409" lon="6.0456">
        <ele>1739.1999511719</ele>
        <time>2026-08-21T09:58:48.000Z</time>
      </trkpt>
      <trkpt lat="45.25409" lon="6.04561">
        <ele>1739.1999511719</ele>
        <time>2026-08-21T09:58:49.000Z</time>
      </trkpt>
      <trkpt lat="45.25409" lon="6.04562">
        <ele>1739.5999755859</ele>
        <time>2026-08-21T09:58:50.000Z</time>
      </trkpt>
      <trkpt lat="45.25409" lon="6.04564">
        <ele>1739.5999755859</ele>
        <time>2026-08-21T09:58:51.000Z</time>
      </trkpt>
      <trkpt lat="45.25409" lon="6.04565">
        <ele>1740.1999511719</ele>
        <time>2026-08-21T09:58:52.000Z</time>
      </trkpt>
      <trkpt lat="45.25408" lon="6.04566">
        <ele>1740.4000244141</ele>
        <time>2026-08-21T09:58:53.000Z</time>
      </trkpt>
      <trkpt lat="45.25408" lon="6.04567">
        <ele>1740.8000488281</ele>
        <time>2026-08-21T09:58:54.000Z</time>
      </trkpt>
      <trkpt lat="45.25407" lon="6.04568">
        <ele>1741.4000244141</ele>
        <time>2026-08-21T09:58:55.000Z</time>
      </trkpt>
      <trkpt lat="45.25405" lon="6.04568">
        <ele>1742.1999511719</ele>
        <time>2026-08-21T09:58:56.000Z</time>
      </trkpt>
      <trkpt lat="45.25403" lon="6.04568">
        <ele>1743</ele>
        <time>2026-08-21T09:58:57.000Z</time>
      </trkpt>
      <trkpt lat="45.25402" lon="6.04567">
        <ele>1743.5999755859</ele>
        <time>2026-08-21T09:58:58.000Z</time>
      </trkpt>
      <trkpt lat="45.25402" lon="6.04565">
        <ele>1744.5999755859</ele>
        <time>2026-08-21T09:58:59.000Z</time>
      </trkpt>
      <trkpt lat="45.25401" lon="6.04563">
        <ele>1745.4000244141</ele>
        <time>2026-08-21T09:59:00.000Z</time>
      </trkpt>
      <trkpt lat="45.25401" lon="6.04562">
        <ele>1746</ele>
        <time>2026-08-21T09:59:01.000Z</time>
      </trkpt>
      <trkpt lat="45.25401" lon="6.04559">
        <ele>1746.5999755859</ele>
        <time>2026-08-21T09:59:02.000Z</time>
      </trkpt>
      <trkpt lat="45.25402" lon="6.04558">
        <ele>1747</ele>
        <time>2026-08-21T09:59:03.000Z</time>
      </trkpt>
      <trkpt lat="45.25402" lon="6.04556">
        <ele>1747.1999511719</ele>
        <time>2026-08-21T09:59:04.000Z</time>
      </trkpt>
      <trkpt lat="45.25402" lon="6.04555">
        <ele>1747.5999755859</ele>
        <time>2026-08-21T09:59:05.000Z</time>
      </trkpt>
      <trkpt lat="45.25401" lon="6.04554">
        <ele>1747.5999755859</ele>
        <time>2026-08-21T09:59:06.000Z</time>
      </trkpt>
      <trkpt lat="45.25401" lon="6.04553">
        <ele>1747.8000488281</ele>
        <time>2026-08-21T09:59:07.000Z</time>
      </trkpt>
      <trkpt lat="45.25401" lon="6.04552">
        <ele>1747.4000244141</ele>
        <time>2026-08-21T09:59:08.000Z</time>
      </trkpt>
      <trkpt lat="45.254" lon="6.0455">
        <ele>1747.4000244141</ele>
        <time>2026-08-21T09:59:09.000Z</time>
      </trkpt>
      <trkpt lat="45.254" lon="6.04549">
        <ele>1747</ele>
        <time>2026-08-21T09:59:10.000Z</time>
      </trkpt>
      <trkpt lat="45.254" lon="6.04548">
        <ele>1746.5999755859</ele>
        <time>2026-08-21T09:59:11.000Z</time>
      </trkpt>
      <trkpt lat="45.254" lon="6.04548">
        <ele>1746.4000244141</ele>
        <time>2026-08-21T09:59:12.000Z</time>
      </trkpt>
      <trkpt lat="45.25399" lon="6.04548">
        <ele>1746.1999511719</ele>
        <time>2026-08-21T09:59:13.000Z</time>
      </trkpt>
      <trkpt lat="45.25398" lon="6.04546">
        <ele>1746.1999511719</ele>
        <time>2026-08-21T09:59:14.000Z</time>
      </trkpt>
      <trkpt lat="45.25398" lon="6.04545">
        <ele>1746</ele>
        <time>2026-08-21T09:59:15.000Z</time>
      </trkpt>
      <trkpt lat="45.25398" lon="6.04543">
        <ele>1746.1999511719</ele>
        <time>2026-08-21T09:59:16.000Z</time>
      </trkpt>
      <trkpt lat="45.25398" lon="6.04542">
        <ele>1746.4000244141</ele>
        <time>2026-08-21T09:59:17.000Z</time>
      </trkpt>
      <trkpt lat="45.25397" lon="6.04541">
        <ele>1746.4000244141</ele>
        <time>2026-08-21T09:59:18.000Z</time>
      </trkpt>
      <trkpt lat="45.25397" lon="6.0454">
        <ele>1746.5999755859</ele>
        <time>2026-08-21T09:59:19.000Z</time>
      </trkpt>
      <trkpt lat="45.25396" lon="6.04539">
        <ele>1747</ele>
        <time>2026-08-21T09:59:20.000Z</time>
      </trkpt>
      <trkpt lat="45.25396" lon="6.04538">
        <ele>1747.4000244141</ele>
        <time>2026-08-21T09:59:21.000Z</time>
      </trkpt>
      <trkpt lat="45.25396" lon="6.04537">
        <ele>1748</ele>
        <time>2026-08-21T09:59:22.000Z</time>
      </trkpt>
      <trkpt lat="45.25396" lon="6.04536">
        <ele>1748.4000244141</ele>
        <time>2026-08-21T09:59:23.000Z</time>
      </trkpt>
      <trkpt lat="45.25395" lon="6.04535">
        <ele>1748.5999755859</ele>
        <time>2026-08-21T09:59:24.000Z</time>
      </trkpt>
      <trkpt lat="45.25395" lon="6.04533">
        <ele>1749</ele>
        <time>2026-08-21T09:59:25.000Z</time>
      </trkpt>
      <trkpt lat="45.25394" lon="6.04533">
        <ele>1749.1999511719</ele>
        <time>2026-08-21T09:59:26.000Z</time>
      </trkpt>
      <trkpt lat="45.25394" lon="6.04532">
        <ele>1750.1999511719</ele>
        <time>2026-08-21T09:59:27.000Z</time>
      </trkpt>
      <trkpt lat="45.25393" lon="6.04531">
        <ele>1750.4000244141</ele>
        <time>2026-08-21T09:59:28.000Z</time>
      </trkpt>
      <trkpt lat="45.25393" lon="6.0453">
        <ele>1750.5999755859</ele>
        <time>2026-08-21T09:59:29.000Z</time>
      </trkpt>
      <trkpt lat="45.25392" lon="6.04529">
        <ele>1751.1999511719</ele>
        <time>2026-08-21T09:59:30.000Z</time>
      </trkpt>
      <trkpt lat="45.25392" lon="6.04528">
        <ele>1751.4000244141</ele>
        <time>2026-08-21T09:59:31.000Z</time>
      </trkpt>
      <trkpt lat="45.25391" lon="6.04527">
        <ele>1751.8000488281</ele>
        <time>2026-08-21T09:59:32.000Z</time>
      </trkpt>
      <trkpt lat="45.25391" lon="6.04526">
        <ele>1752.4000244141</ele>
        <time>2026-08-21T09:59:33.000Z</time>
      </trkpt>
      <trkpt lat="45.2539" lon="6.04526">
        <ele>1752.8000488281</ele>
        <time>2026-08-21T09:59:34.000Z</time>
      </trkpt>
      <trkpt lat="45.25389" lon="6.04526">
        <ele>1753.1999511719</ele>
        <time>2026-08-21T09:59:35.000Z</time>
      </trkpt>
      <trkpt lat="45.25388" lon="6.04525">
        <ele>1753.4000244141</ele>
        <time>2026-08-21T09:59:36.000Z</time>
      </trkpt>
      <trkpt lat="45.25388" lon="6.04525">
        <ele>1753.8000488281</ele>
        <time>2026-08-21T09:59:37.000Z</time>
      </trkpt>
      <trkpt lat="45.25387" lon="6.04524">
        <ele>1754.5999755859</ele>
        <time>2026-08-21T09:59:38.000Z</time>
      </trkpt>
      <trkpt lat="45.25386" lon="6.04523">
        <ele>1755.4000244141</ele>
        <time>2026-08-21T09:59:39.000Z</time>
      </trkpt>
      <trkpt lat="45.25386" lon="6.04522">
        <ele>1755.8000488281</ele>
        <time>2026-08-21T09:59:40.000Z</time>
      </trkpt>
      <trkpt lat="45.25386" lon="6.04521">
        <ele>1756.1999511719</ele>
        <time>2026-08-21T09:59:41.000Z</time>
      </trkpt>
      <trkpt lat="45.25385" lon="6.04519">
        <ele>1756.8000488281</ele>
        <time>2026-08-21T09:59:42.000Z</time>
      </trkpt>
      <trkpt lat="45.25385" lon="6.04518">
        <ele>1757.1999511719</ele>
        <time>2026-08-21T09:59:43.000Z</time>
      </trkpt>
      <trkpt lat="45.25385" lon="6.04517">
        <ele>1758.1999511719</ele>
        <time>2026-08-21T09:59:44.000Z</time>
      </trkpt>
      <trkpt lat="45.25384" lon="6.04516">
        <ele>1758</ele>
        <time>2026-08-21T09:59:45.000Z</time>
      </trkpt>
      <trkpt lat="45.25383" lon="6.04515">
        <ele>1757.8000488281</ele>
        <time>2026-08-21T09:59:46.000Z</time>
      </trkpt>
      <trkpt lat="45.25382" lon="6.04514">
        <ele>1757.5999755859</ele>
        <time>2026-08-21T09:59:47.000Z</time>
      </trkpt>
      <trkpt lat="45.25381" lon="6.04513">
        <ele>1757.4000244141</ele>
        <time>2026-08-21T09:59:48.000Z</time>
      </trkpt>
      <trkpt lat="45.2538" lon="6.04513">
        <ele>1756.8000488281</ele>
        <time>2026-08-21T09:59:49.000Z</time>
      </trkpt>
      <trkpt lat="45.25379" lon="6.04512">
        <ele>1756.5999755859</ele>
        <time>2026-08-21T09:59:50.000Z</time>
      </trkpt>
      <trkpt lat="45.25379" lon="6.04511">
        <ele>1756.5999755859</ele>
        <time>2026-08-21T09:59:51.000Z</time>
      </trkpt>
      <trkpt lat="45.25378" lon="6.0451">
        <ele>1756.8000488281</ele>
        <time>2026-08-21T09:59:52.000Z</time>
      </trkpt>
      <trkpt lat="45.25378" lon="6.04509">
        <ele>1756.8000488281</ele>
        <time>2026-08-21T09:59:53.000Z</time>
      </trkpt>
      <trkpt lat="45.25377" lon="6.04508">
        <ele>1756.8000488281</ele>
        <time>2026-08-21T09:59:54.000Z</time>
      </trkpt>
      <trkpt lat="45.25376" lon="6.04507">
        <ele>1757.4000244141</ele>
        <time>2026-08-21T09:59:55.000Z</time>
      </trkpt>
      <trkpt lat="45.25376" lon="6.04506">
        <ele>1757.4000244141</ele>
        <time>2026-08-21T09:59:56.000Z</time>
      </trkpt>
      <trkpt lat="45.25375" lon="6.04505">
        <ele>1757.1999511719</ele>
        <time>2026-08-21T09:59:57.000Z</time>
      </trkpt>
      <trkpt lat="45.25375" lon="6.04504">
        <ele>1757.1999511719</ele>
        <time>2026-08-21T09:59:58.000Z</time>
      </trkpt>
      <trkpt lat="45.25374" lon="6.04503">
        <ele>1757.1999511719</ele>
        <time>2026-08-21T09:59:59.000Z</time>
      </trkpt>
      <trkpt lat="45.25373" lon="6.04501">
        <ele>1757.1999511719</ele>
        <time>2026-08-21T10:00:00.000Z</time>
      </trkpt>
      <trkpt lat="45.25373" lon="6.045">
        <ele>1757.4000244141</ele>
        <time>2026-08-21T10:00:01.000Z</time>
      </trkpt>
      <trkpt lat="45.25373" lon="6.04499">
        <ele>1757.5999755859</ele>
        <time>2026-08-21T10:00:02.000Z</time>
      </trkpt>
      <trkpt lat="45.25372" lon="6.04498">
        <ele>1757.5999755859</ele>
        <time>2026-08-21T10:00:03.000Z</time>
      </trkpt>
      <trkpt lat="45.25371" lon="6.04497">
        <ele>1758</ele>
        <time>2026-08-21T10:00:04.000Z</time>
      </trkpt>
      <trkpt lat="45.25371" lon="6.04496">
        <ele>1758.1999511719</ele>
        <time>2026-08-21T10:00:05.000Z</time>
      </trkpt>
      <trkpt lat="45.25371" lon="6.04495">
        <ele>1758.4000244141</ele>
        <time>2026-08-21T10:00:06.000Z</time>
      </trkpt>
      <trkpt lat="45.2537" lon="6.04493">
        <ele>1758.8000488281</ele>
        <time>2026-08-21T10:00:07.000Z</time>
      </trkpt>
      <trkpt lat="45.25369" lon="6.04493">
        <ele>1759.1999511719</ele>
        <time>2026-08-21T10:00:08.000Z</time>
      </trkpt>
      <trkpt lat="45.25369" lon="6.04492">
        <ele>1759.4000244141</ele>
        <time>2026-08-21T10:00:09.000Z</time>
      </trkpt>
      <trkpt lat="45.25368" lon="6.04492">
        <ele>1759.8000488281</ele>
        <time>2026-08-21T10:00:10.000Z</time>
      </trkpt>
      <trkpt lat="45.25367" lon="6.04491">
        <ele>1760</ele>
        <time>2026-08-21T10:00:11.000Z</time>
      </trkpt>
      <trkpt lat="45.25366" lon="6.04491">
        <ele>1760.1999511719</ele>
        <time>2026-08-21T10:00:12.000Z</time>
      </trkpt>
      <trkpt lat="45.25365" lon="6.0449">
        <ele>1760.5999755859</ele>
        <time>2026-08-21T10:00:13.000Z</time>
      </trkpt>
      <trkpt lat="45.25364" lon="6.0449">
        <ele>1762.4000244141</ele>
        <time>2026-08-21T10:00:14.000Z</time>
      </trkpt>
      <trkpt lat="45.25363" lon="6.0449">
        <ele>1762.5999755859</ele>
        <time>2026-08-21T10:00:15.000Z</time>
      </trkpt>
      <trkpt lat="45.25362" lon="6.04489">
        <ele>1763</ele>
        <time>2026-08-21T10:00:16.000Z</time>
      </trkpt>
      <trkpt lat="45.25361" lon="6.04489">
        <ele>1763.1999511719</ele>
        <time>2026-08-21T10:00:17.000Z</time>
      </trkpt>
      <trkpt lat="45.2536" lon="6.04489">
        <ele>1763.8000488281</ele>
        <time>2026-08-21T10:00:18.000Z</time>
      </trkpt>
      <trkpt lat="45.25359" lon="6.04489">
        <ele>1764.4000244141</ele>
        <time>2026-08-21T10:00:19.000Z</time>
      </trkpt>
      <trkpt lat="45.25359" lon="6.04488">
        <ele>1765.4000244141</ele>
        <time>2026-08-21T10:00:20.000Z</time>
      </trkpt>
      <trkpt lat="45.25358" lon="6.04488">
        <ele>1765.4000244141</ele>
        <time>2026-08-21T10:00:21.000Z</time>
      </trkpt>
      <trkpt lat="45.25357" lon="6.04488">
        <ele>1765.4000244141</ele>
        <time>2026-08-21T10:00:22.000Z</time>
      </trkpt>
      <trkpt lat="45.25356" lon="6.04487">
        <ele>1765.1999511719</ele>
        <time>2026-08-21T10:00:23.000Z</time>
      </trkpt>
      <trkpt lat="45.25356" lon="6.04487">
        <ele>1765</ele>
        <time>2026-08-21T10:00:24.000Z</time>
      </trkpt>
      <trkpt lat="45.25355" lon="6.04487">
        <ele>1765</ele>
        <time>2026-08-21T10:00:25.000Z</time>
      </trkpt>
      <trkpt lat="45.25353" lon="6.04487">
        <ele>1764.8000488281</ele>
        <time>2026-08-21T10:00:26.000Z</time>
      </trkpt>
      <trkpt lat="45.25353" lon="6.04487">
        <ele>1764.8000488281</ele>
        <time>2026-08-21T10:00:27.000Z</time>
      </trkpt>
      <trkpt lat="45.25351" lon="6.04487">
        <ele>1764.8000488281</ele>
        <time>2026-08-21T10:00:28.000Z</time>
      </trkpt>
      <trkpt lat="45.2535" lon="6.04488">
        <ele>1764.5999755859</ele>
        <time>2026-08-21T10:00:29.000Z</time>
      </trkpt>
      <trkpt lat="45.25349" lon="6.04488">
        <ele>1764.5999755859</ele>
        <time>2026-08-21T10:00:30.000Z</time>
      </trkpt>
      <trkpt lat="45.25348" lon="6.04489">
        <ele>1764.5999755859</ele>
        <time>2026-08-21T10:00:31.000Z</time>
      </trkpt>
      <trkpt lat="45.25347" lon="6.0449">
        <ele>1764.5999755859</ele>
        <time>2026-08-21T10:00:32.000Z</time>
      </trkpt>
      <trkpt lat="45.25345" lon="6.0449">
        <ele>1764.5999755859</ele>
        <time>2026-08-21T10:00:33.000Z</time>
      </trkpt>
      <trkpt lat="45.25344" lon="6.0449">
        <ele>1764.5999755859</ele>
        <time>2026-08-21T10:00:34.000Z</time>
      </trkpt>
      <trkpt lat="45.25343" lon="6.04491">
        <ele>1764.8000488281</ele>
        <time>2026-08-21T10:00:35.000Z</time>
      </trkpt>
      <trkpt lat="45.25342" lon="6.04492">
        <ele>1764.8000488281</ele>
        <time>2026-08-21T10:00:36.000Z</time>
      </trkpt>
      <trkpt lat="45.25341" lon="6.04493">
        <ele>1764.8000488281</ele>
        <time>2026-08-21T10:00:37.000Z</time>
      </trkpt>
      <trkpt lat="45.2534" lon="6.04493">
        <ele>1765</ele>
        <time>2026-08-21T10:00:38.000Z</time>
      </trkpt>
      <trkpt lat="45.25339" lon="6.04493">
        <ele>1765.1999511719</ele>
        <time>2026-08-21T10:00:39.000Z</time>
      </trkpt>
      <trkpt lat="45.25337" lon="6.04493">
        <ele>1765.4000244141</ele>
        <time>2026-08-21T10:00:40.000Z</time>
      </trkpt>
      <trkpt lat="45.25336" lon="6.04493">
        <ele>1765.8000488281</ele>
        <time>2026-08-21T10:00:41.000Z</time>
      </trkpt>
      <trkpt lat="45.25335" lon="6.04493">
        <ele>1766.1999511719</ele>
        <time>2026-08-21T10:00:42.000Z</time>
      </trkpt>
      <trkpt lat="45.25334" lon="6.04493">
        <ele>1766.8000488281</ele>
        <time>2026-08-21T10:00:43.000Z</time>
      </trkpt>
      <trkpt lat="45.25333" lon="6.04492">
        <ele>1767</ele>
        <time>2026-08-21T10:00:44.000Z</time>
      </trkpt>
      <trkpt lat="45.25333" lon="6.0449">
        <ele>1767.4000244141</ele>
        <time>2026-08-21T10:00:45.000Z</time>
      </trkpt>
      <trkpt lat="45.25332" lon="6.0449">
        <ele>1767.8000488281</ele>
        <time>2026-08-21T10:00:46.000Z</time>
      </trkpt>
      <trkpt lat="45.25331" lon="6.04489">
        <ele>1768.4000244141</ele>
        <time>2026-08-21T10:00:47.000Z</time>
      </trkpt>
      <trkpt lat="45.25331" lon="6.04488">
        <ele>1769</ele>
        <time>2026-08-21T10:00:48.000Z</time>
      </trkpt>
      <trkpt lat="45.2533" lon="6.04488">
        <ele>1769.1999511719</ele>
        <time>2026-08-21T10:00:49.000Z</time>
      </trkpt>
      <trkpt lat="45.25329" lon="6.04488">
        <ele>1769.5999755859</ele>
        <time>2026-08-21T10:00:50.000Z</time>
      </trkpt>
      <trkpt lat="45.25328" lon="6.04488">
        <ele>1769.8000488281</ele>
        <time>2026-08-21T10:00:51.000Z</time>
      </trkpt>
      <trkpt lat="45.25327" lon="6.04487">
        <ele>1770.4000244141</ele>
        <time>2026-08-21T10:00:52.000Z</time>
      </trkpt>
      <trkpt lat="45.25326" lon="6.04487">
        <ele>1770.5999755859</ele>
        <time>2026-08-21T10:00:53.000Z</time>
      </trkpt>
      <trkpt lat="45.25326" lon="6.04486">
        <ele>1771.1999511719</ele>
        <time>2026-08-21T10:00:54.000Z</time>
      </trkpt>
      <trkpt lat="45.25325" lon="6.04485">
        <ele>1771.5999755859</ele>
        <time>2026-08-21T10:00:55.000Z</time>
      </trkpt>
      <trkpt lat="45.25324" lon="6.04483">
        <ele>1771.8000488281</ele>
        <time>2026-08-21T10:00:56.000Z</time>
      </trkpt>
      <trkpt lat="45.25324" lon="6.04482">
        <ele>1771.8000488281</ele>
        <time>2026-08-21T10:00:57.000Z</time>
      </trkpt>
      <trkpt lat="45.25323" lon="6.04481">
        <ele>1771.8000488281</ele>
        <time>2026-08-21T10:00:58.000Z</time>
      </trkpt>
      <trkpt lat="45.25322" lon="6.0448">
        <ele>1771.8000488281</ele>
        <time>2026-08-21T10:00:59.000Z</time>
      </trkpt>
      <trkpt lat="45.25322" lon="6.04479">
        <ele>1771.5999755859</ele>
        <time>2026-08-21T10:01:00.000Z</time>
      </trkpt>
      <trkpt lat="45.25322" lon="6.04478">
        <ele>1771.5999755859</ele>
        <time>2026-08-21T10:01:01.000Z</time>
      </trkpt>
      <trkpt lat="45.25322" lon="6.04477">
        <ele>1771.5999755859</ele>
        <time>2026-08-21T10:01:02.000Z</time>
      </trkpt>
      <trkpt lat="45.25321" lon="6.04477">
        <ele>1771.4000244141</ele>
        <time>2026-08-21T10:01:03.000Z</time>
      </trkpt>
      <trkpt lat="45.2532" lon="6.04475">
        <ele>1771.5999755859</ele>
        <time>2026-08-21T10:01:04.000Z</time>
      </trkpt>
      <trkpt lat="45.2532" lon="6.04474">
        <ele>1771.8000488281</ele>
        <time>2026-08-21T10:01:05.000Z</time>
      </trkpt>
      <trkpt lat="45.25319" lon="6.04474">
        <ele>1772.1999511719</ele>
        <time>2026-08-21T10:01:06.000Z</time>
      </trkpt>
      <trkpt lat="45.25317" lon="6.04474">
        <ele>1772.4000244141</ele>
        <time>2026-08-21T10:01:07.000Z</time>
      </trkpt>
      <trkpt lat="45.25316" lon="6.04473">
        <ele>1772.8000488281</ele>
        <time>2026-08-21T10:01:08.000Z</time>
      </trkpt>
      <trkpt lat="45.25315" lon="6.04472">
        <ele>1773.1999511719</ele>
        <time>2026-08-21T10:01:09.000Z</time>
      </trkpt>
      <trkpt lat="45.25314" lon="6.04471">
        <ele>1773.8000488281</ele>
        <time>2026-08-21T10:01:10.000Z</time>
      </trkpt>
      <trkpt lat="45.25313" lon="6.0447">
        <ele>1774.5999755859</ele>
        <time>2026-08-21T10:01:11.000Z</time>
      </trkpt>
      <trkpt lat="45.25312" lon="6.0447">
        <ele>1775.1999511719</ele>
        <time>2026-08-21T10:01:12.000Z</time>
      </trkpt>
      <trkpt lat="45.25311" lon="6.0447">
        <ele>1775.4000244141</ele>
        <time>2026-08-21T10:01:13.000Z</time>
      </trkpt>
      <trkpt lat="45.2531" lon="6.04471">
        <ele>1775.8000488281</ele>
        <time>2026-08-21T10:01:14.000Z</time>
      </trkpt>
      <trkpt lat="45.2531" lon="6.04471">
        <ele>1776</ele>
        <time>2026-08-21T10:01:15.000Z</time>
      </trkpt>
      <trkpt lat="45.25309" lon="6.04471">
        <ele>1776.4000244141</ele>
        <time>2026-08-21T10:01:16.000Z</time>
      </trkpt>
      <trkpt lat="45.25308" lon="6.0447">
        <ele>1776.8000488281</ele>
        <time>2026-08-21T10:01:17.000Z</time>
      </trkpt>
      <trkpt lat="45.25307" lon="6.0447">
        <ele>1777</ele>
        <time>2026-08-21T10:01:18.000Z</time>
      </trkpt>
      <trkpt lat="45.25305" lon="6.04469">
        <ele>1777.1999511719</ele>
        <time>2026-08-21T10:01:19.000Z</time>
      </trkpt>
      <trkpt lat="45.25304" lon="6.04468">
        <ele>1777.1999511719</ele>
        <time>2026-08-21T10:01:20.000Z</time>
      </trkpt>
      <trkpt lat="45.25304" lon="6.04468">
        <ele>1777.4000244141</ele>
        <time>2026-08-21T10:01:21.000Z</time>
      </trkpt>
      <trkpt lat="45.25303" lon="6.04466">
        <ele>1777.4000244141</ele>
        <time>2026-08-21T10:01:22.000Z</time>
      </trkpt>
      <trkpt lat="45.25302" lon="6.04466">
        <ele>1777.8000488281</ele>
        <time>2026-08-21T10:01:23.000Z</time>
      </trkpt>
      <trkpt lat="45.25301" lon="6.04466">
        <ele>1778.5999755859</ele>
        <time>2026-08-21T10:01:24.000Z</time>
      </trkpt>
      <trkpt lat="45.253" lon="6.04465">
        <ele>1778.5999755859</ele>
        <time>2026-08-21T10:01:25.000Z</time>
      </trkpt>
      <trkpt lat="45.25298" lon="6.04465">
        <ele>1778.4000244141</ele>
        <time>2026-08-21T10:01:26.000Z</time>
      </trkpt>
      <trkpt lat="45.25297" lon="6.04465">
        <ele>1778.4000244141</ele>
        <time>2026-08-21T10:01:27.000Z</time>
      </trkpt>
      <trkpt lat="45.25296" lon="6.04464">
        <ele>1778.4000244141</ele>
        <time>2026-08-21T10:01:28.000Z</time>
      </trkpt>
      <trkpt lat="45.25295" lon="6.04464">
        <ele>1778.4000244141</ele>
        <time>2026-08-21T10:01:29.000Z</time>
      </trkpt>
      <trkpt lat="45.25294" lon="6.04463">
        <ele>1778.4000244141</ele>
        <time>2026-08-21T10:01:30.000Z</time>
      </trkpt>
      <trkpt lat="45.25293" lon="6.04462">
        <ele>1779</ele>
        <time>2026-08-21T10:01:31.000Z</time>
      </trkpt>
      <trkpt lat="45.25292" lon="6.04461">
        <ele>1779.1999511719</ele>
        <time>2026-08-21T10:01:32.000Z</time>
      </trkpt>
      <trkpt lat="45.25291" lon="6.04461">
        <ele>1779.1999511719</ele>
        <time>2026-08-21T10:01:33.000Z</time>
      </trkpt>
      <trkpt lat="45.25289" lon="6.0446">
        <ele>1779.4000244141</ele>
        <time>2026-08-21T10:01:34.000Z</time>
      </trkpt>
      <trkpt lat="45.25289" lon="6.0446">
        <ele>1779.4000244141</ele>
        <time>2026-08-21T10:01:35.000Z</time>
      </trkpt>
      <trkpt lat="45.25287" lon="6.04459">
        <ele>1779.5999755859</ele>
        <time>2026-08-21T10:01:36.000Z</time>
      </trkpt>
      <trkpt lat="45.25286" lon="6.04459">
        <ele>1780</ele>
        <time>2026-08-21T10:01:37.000Z</time>
      </trkpt>
      <trkpt lat="45.25286" lon="6.04459">
        <ele>1780</ele>
        <time>2026-08-21T10:01:38.000Z</time>
      </trkpt>
      <trkpt lat="45.25285" lon="6.04458">
        <ele>1780.4000244141</ele>
        <time>2026-08-21T10:01:39.000Z</time>
      </trkpt>
      <trkpt lat="45.25284" lon="6.04458">
        <ele>1780.4000244141</ele>
        <time>2026-08-21T10:01:40.000Z</time>
      </trkpt>
      <trkpt lat="45.25283" lon="6.04457">
        <ele>1780.4000244141</ele>
        <time>2026-08-21T10:01:41.000Z</time>
      </trkpt>
      <trkpt lat="45.25282" lon="6.04455">
        <ele>1780.4000244141</ele>
        <time>2026-08-21T10:01:42.000Z</time>
      </trkpt>
      <trkpt lat="45.25281" lon="6.04454">
        <ele>1780.4000244141</ele>
        <time>2026-08-21T10:01:43.000Z</time>
      </trkpt>
      <trkpt lat="45.25281" lon="6.04453">
        <ele>1780.4000244141</ele>
        <time>2026-08-21T10:01:44.000Z</time>
      </trkpt>
      <trkpt lat="45.2528" lon="6.04452">
        <ele>1780.4000244141</ele>
        <time>2026-08-21T10:01:45.000Z</time>
      </trkpt>
      <trkpt lat="45.25279" lon="6.04451">
        <ele>1780.8000488281</ele>
        <time>2026-08-21T10:01:46.000Z</time>
      </trkpt>
      <trkpt lat="45.25279" lon="6.0445">
        <ele>1781.1999511719</ele>
        <time>2026-08-21T10:01:47.000Z</time>
      </trkpt>
      <trkpt lat="45.25278" lon="6.04449">
        <ele>1781.5999755859</ele>
        <time>2026-08-21T10:01:48.000Z</time>
      </trkpt>
      <trkpt lat="45.25278" lon="6.04448">
        <ele>1782</ele>
        <time>2026-08-21T10:01:49.000Z</time>
      </trkpt>
      <trkpt lat="45.25278" lon="6.04447">
        <ele>1782.4000244141</ele>
        <time>2026-08-21T10:01:50.000Z</time>
      </trkpt>
      <trkpt lat="45.25278" lon="6.04446">
        <ele>1783.1999511719</ele>
        <time>2026-08-21T10:01:51.000Z</time>
      </trkpt>
      <trkpt lat="45.25277" lon="6.04446">
        <ele>1784.4000244141</ele>
        <time>2026-08-21T10:01:52.000Z</time>
      </trkpt>
      <trkpt lat="45.25277" lon="6.04445">
        <ele>1784.8000488281</ele>
        <time>2026-08-21T10:01:53.000Z</time>
      </trkpt>
      <trkpt lat="45.25276" lon="6.04444">
        <ele>1785.1999511719</ele>
        <time>2026-08-21T10:01:54.000Z</time>
      </trkpt>
      <trkpt lat="45.25275" lon="6.04443">
        <ele>1785.8000488281</ele>
        <time>2026-08-21T10:01:55.000Z</time>
      </trkpt>
      <trkpt lat="45.25274" lon="6.04443">
        <ele>1785.5999755859</ele>
        <time>2026-08-21T10:01:56.000Z</time>
      </trkpt>
      <trkpt lat="45.25274" lon="6.04442">
        <ele>1785.4000244141</ele>
        <time>2026-08-21T10:01:57.000Z</time>
      </trkpt>
      <trkpt lat="45.25273" lon="6.04443">
        <ele>1785.1999511719</ele>
        <time>2026-08-21T10:01:58.000Z</time>
      </trkpt>
      <trkpt lat="45.25272" lon="6.04443">
        <ele>1785.1999511719</ele>
        <time>2026-08-21T10:01:59.000Z</time>
      </trkpt>
      <trkpt lat="45.25271" lon="6.04442">
        <ele>1785</ele>
        <time>2026-08-21T10:02:00.000Z</time>
      </trkpt>
      <trkpt lat="45.25271" lon="6.04442">
        <ele>1785</ele>
        <time>2026-08-21T10:02:01.000Z</time>
      </trkpt>
      <trkpt lat="45.2527" lon="6.04442">
        <ele>1785.1999511719</ele>
        <time>2026-08-21T10:02:02.000Z</time>
      </trkpt>
      <trkpt lat="45.25269" lon="6.04442">
        <ele>1785.1999511719</ele>
        <time>2026-08-21T10:02:03.000Z</time>
      </trkpt>
      <trkpt lat="45.25268" lon="6.04441">
        <ele>1785.1999511719</ele>
        <time>2026-08-21T10:02:04.000Z</time>
      </trkpt>
      <trkpt lat="45.25267" lon="6.0444">
        <ele>1785.4000244141</ele>
        <time>2026-08-21T10:02:05.000Z</time>
      </trkpt>
      <trkpt lat="45.25266" lon="6.04439">
        <ele>1785.5999755859</ele>
        <time>2026-08-21T10:02:06.000Z</time>
      </trkpt>
      <trkpt lat="45.25265" lon="6.04438">
        <ele>1785.8000488281</ele>
        <time>2026-08-21T10:02:07.000Z</time>
      </trkpt>
      <trkpt lat="45.25265" lon="6.04438">
        <ele>1786.1999511719</ele>
        <time>2026-08-21T10:02:08.000Z</time>
      </trkpt>
      <trkpt lat="45.25264" lon="6.04437">
        <ele>1786.4000244141</ele>
        <time>2026-08-21T10:02:09.000Z</time>
      </trkpt>
      <trkpt lat="45.25264" lon="6.04436">
        <ele>1787.1999511719</ele>
        <time>2026-08-21T10:02:10.000Z</time>
      </trkpt>
      <trkpt lat="45.25264" lon="6.04435">
        <ele>1788.8000488281</ele>
        <time>2026-08-21T10:02:11.000Z</time>
      </trkpt>
      <trkpt lat="45.25263" lon="6.04434">
        <ele>1789</ele>
        <time>2026-08-21T10:02:12.000Z</time>
      </trkpt>
      <trkpt lat="45.25263" lon="6.04433">
        <ele>1789.4000244141</ele>
        <time>2026-08-21T10:02:13.000Z</time>
      </trkpt>
      <trkpt lat="45.25263" lon="6.04433">
        <ele>1790</ele>
        <time>2026-08-21T10:02:14.000Z</time>
      </trkpt>
      <trkpt lat="45.25262" lon="6.04432">
        <ele>1790.4000244141</ele>
        <time>2026-08-21T10:02:15.000Z</time>
      </trkpt>
      <trkpt lat="45.25261" lon="6.04432">
        <ele>1791</ele>
        <time>2026-08-21T10:02:16.000Z</time>
      </trkpt>
      <trkpt lat="45.25261" lon="6.04432">
        <ele>1791.5999755859</ele>
        <time>2026-08-21T10:02:17.000Z</time>
      </trkpt>
      <trkpt lat="45.2526" lon="6.04432">
        <ele>1792</ele>
        <time>2026-08-21T10:02:18.000Z</time>
      </trkpt>
      <trkpt lat="45.25259" lon="6.04432">
        <ele>1792.5999755859</ele>
        <time>2026-08-21T10:02:19.000Z</time>
      </trkpt>
      <trkpt lat="45.25258" lon="6.04432">
        <ele>1793</ele>
        <time>2026-08-21T10:02:20.000Z</time>
      </trkpt>
      <trkpt lat="45.25258" lon="6.04432">
        <ele>1795.1999511719</ele>
        <time>2026-08-21T10:02:21.000Z</time>
      </trkpt>
      <trkpt lat="45.25257" lon="6.04432">
        <ele>1795.5999755859</ele>
        <time>2026-08-21T10:02:22.000Z</time>
      </trkpt>
      <trkpt lat="45.25256" lon="6.04432">
        <ele>1796.5999755859</ele>
        <time>2026-08-21T10:02:23.000Z</time>
      </trkpt>
      <trkpt lat="45.25255" lon="6.04431">
        <ele>1796.5999755859</ele>
        <time>2026-08-21T10:02:24.000Z</time>
      </trkpt>
      <trkpt lat="45.25255" lon="6.04431">
        <ele>1797.1999511719</ele>
        <time>2026-08-21T10:02:25.000Z</time>
      </trkpt>
      <trkpt lat="45.25255" lon="6.04431">
        <ele>1797</ele>
        <time>2026-08-21T10:02:26.000Z</time>
      </trkpt>
      <trkpt lat="45.25253" lon="6.04431">
        <ele>1797</ele>
        <time>2026-08-21T10:02:27.000Z</time>
      </trkpt>
      <trkpt lat="45.25253" lon="6.0443">
        <ele>1796.8000488281</ele>
        <time>2026-08-21T10:02:28.000Z</time>
      </trkpt>
      <trkpt lat="45.25252" lon="6.0443">
        <ele>1796.5999755859</ele>
        <time>2026-08-21T10:02:29.000Z</time>
      </trkpt>
      <trkpt lat="45.25251" lon="6.0443">
        <ele>1795.8000488281</ele>
        <time>2026-08-21T10:02:30.000Z</time>
      </trkpt>
      <trkpt lat="45.2525" lon="6.04429">
        <ele>1795.1999511719</ele>
        <time>2026-08-21T10:02:31.000Z</time>
      </trkpt>
      <trkpt lat="45.25249" lon="6.04429">
        <ele>1794.8000488281</ele>
        <time>2026-08-21T10:02:32.000Z</time>
      </trkpt>
      <trkpt lat="45.25249" lon="6.04429">
        <ele>1794.5999755859</ele>
        <time>2026-08-21T10:02:33.000Z</time>
      </trkpt>
      <trkpt lat="45.25248" lon="6.04428">
        <ele>1794</ele>
        <time>2026-08-21T10:02:34.000Z</time>
      </trkpt>
      <trkpt lat="45.25247" lon="6.04428">
        <ele>1793.8000488281</ele>
        <time>2026-08-21T10:02:35.000Z</time>
      </trkpt>
      <trkpt lat="45.25246" lon="6.04428">
        <ele>1793.8000488281</ele>
        <time>2026-08-21T10:02:36.000Z</time>
      </trkpt>
      <trkpt lat="45.25245" lon="6.04427">
        <ele>1794</ele>
        <time>2026-08-21T10:02:37.000Z</time>
      </trkpt>
      <trkpt lat="45.25244" lon="6.04427">
        <ele>1794.4000244141</ele>
        <time>2026-08-21T10:02:38.000Z</time>
      </trkpt>
      <trkpt lat="45.25243" lon="6.04426">
        <ele>1794.5999755859</ele>
        <time>2026-08-21T10:02:39.000Z</time>
      </trkpt>
      <trkpt lat="45.25243" lon="6.04426">
        <ele>1794.8000488281</ele>
        <time>2026-08-21T10:02:40.000Z</time>
      </trkpt>
      <trkpt lat="45.25242" lon="6.04425">
        <ele>1795.1999511719</ele>
        <time>2026-08-21T10:02:41.000Z</time>
      </trkpt>
      <trkpt lat="45.25242" lon="6.04425">
        <ele>1795.4000244141</ele>
        <time>2026-08-21T10:02:42.000Z</time>
      </trkpt>
      <trkpt lat="45.25241" lon="6.04425">
        <ele>1796.1999511719</ele>
        <time>2026-08-21T10:02:43.000Z</time>
      </trkpt>
      <trkpt lat="45.25241" lon="6.04424">
        <ele>1796.1999511719</ele>
        <time>2026-08-21T10:02:44.000Z</time>
      </trkpt>
      <trkpt lat="45.2524" lon="6.04424">
        <ele>1796.4000244141</ele>
        <time>2026-08-21T10:02:45.000Z</time>
      </trkpt>
      <trkpt lat="45.25239" lon="6.04425">
        <ele>1796.8000488281</ele>
        <time>2026-08-21T10:02:46.000Z</time>
      </trkpt>
      <trkpt lat="45.25238" lon="6.04425">
        <ele>1797</ele>
        <time>2026-08-21T10:02:47.000Z</time>
      </trkpt>
      <trkpt lat="45.25237" lon="6.04424">
        <ele>1797.1999511719</ele>
        <time>2026-08-21T10:02:48.000Z</time>
      </trkpt>
      <trkpt lat="45.25237" lon="6.04424">
        <ele>1797.4000244141</ele>
        <time>2026-08-21T10:02:49.000Z</time>
      </trkpt>
      <trkpt lat="45.25236" lon="6.04423">
        <ele>1797.8000488281</ele>
        <time>2026-08-21T10:02:50.000Z</time>
      </trkpt>
      <trkpt lat="45.25235" lon="6.04423">
        <ele>1798.1999511719</ele>
        <time>2026-08-21T10:02:51.000Z</time>
      </trkpt>
      <trkpt lat="45.25234" lon="6.04423">
        <ele>1798.4000244141</ele>
        <time>2026-08-21T10:02:52.000Z</time>
      </trkpt>
      <trkpt lat="45.25233" lon="6.04422">
        <ele>1798.8000488281</ele>
        <time>2026-08-21T10:02:53.000Z</time>
      </trkpt>
      <trkpt lat="45.25232" lon="6.04422">
        <ele>1799.1999511719</ele>
        <time>2026-08-21T10:02:54.000Z</time>
      </trkpt>
      <trkpt lat="45.25231" lon="6.04422">
        <ele>1799.8000488281</ele>
        <time>2026-08-21T10:02:55.000Z</time>
      </trkpt>
      <trkpt lat="45.25231" lon="6.04422">
        <ele>1799.8000488281</ele>
        <time>2026-08-21T10:02:56.000Z</time>
      </trkpt>
      <trkpt lat="45.2523" lon="6.04422">
        <ele>1799.8000488281</ele>
        <time>2026-08-21T10:02:57.000Z</time>
      </trkpt>
      <trkpt lat="45.25229" lon="6.04423">
        <ele>1799.8000488281</ele>
        <time>2026-08-21T10:02:58.000Z</time>
      </trkpt>
      <trkpt lat="45.25228" lon="6.04424">
        <ele>1799.8000488281</ele>
        <time>2026-08-21T10:02:59.000Z</time>
      </trkpt>
      <trkpt lat="45.25227" lon="6.04423">
        <ele>1800</ele>
        <time>2026-08-21T10:03:00.000Z</time>
      </trkpt>
      <trkpt lat="45.25226" lon="6.04422">
        <ele>1800</ele>
        <time>2026-08-21T10:03:01.000Z</time>
      </trkpt>
      <trkpt lat="45.25225" lon="6.04421">
        <ele>1800.1999511719</ele>
        <time>2026-08-21T10:03:02.000Z</time>
      </trkpt>
      <trkpt lat="45.25225" lon="6.0442">
        <ele>1800.4000244141</ele>
        <time>2026-08-21T10:03:03.000Z</time>
      </trkpt>
      <trkpt lat="45.25224" lon="6.0442">
        <ele>1800.5999755859</ele>
        <time>2026-08-21T10:03:04.000Z</time>
      </trkpt>
      <trkpt lat="45.25224" lon="6.04419">
        <ele>1800.8000488281</ele>
        <time>2026-08-21T10:03:05.000Z</time>
      </trkpt>
      <trkpt lat="45.25224" lon="6.04419">
        <ele>1801.1999511719</ele>
        <time>2026-08-21T10:03:06.000Z</time>
      </trkpt>
      <trkpt lat="45.25224" lon="6.04418">
        <ele>1801.5999755859</ele>
        <time>2026-08-21T10:03:07.000Z</time>
      </trkpt>
      <trkpt lat="45.25223" lon="6.04417">
        <ele>1801.8000488281</ele>
        <time>2026-08-21T10:03:08.000Z</time>
      </trkpt>
      <trkpt lat="45.25223" lon="6.04417">
        <ele>1802.1999511719</ele>
        <time>2026-08-21T10:03:09.000Z</time>
      </trkpt>
      <trkpt lat="45.25222" lon="6.04417">
        <ele>1802.5999755859</ele>
        <time>2026-08-21T10:03:10.000Z</time>
      </trkpt>
      <trkpt lat="45.25221" lon="6.04417">
        <ele>1803.1999511719</ele>
        <time>2026-08-21T10:03:11.000Z</time>
      </trkpt>
      <trkpt lat="45.2522" lon="6.04417">
        <ele>1803.8000488281</ele>
        <time>2026-08-21T10:03:12.000Z</time>
      </trkpt>
      <trkpt lat="45.25219" lon="6.04416">
        <ele>1804.1999511719</ele>
        <time>2026-08-21T10:03:13.000Z</time>
      </trkpt>
      <trkpt lat="45.25218" lon="6.04416">
        <ele>1804.4000244141</ele>
        <time>2026-08-21T10:03:14.000Z</time>
      </trkpt>
      <trkpt lat="45.25217" lon="6.04415">
        <ele>1805</ele>
        <time>2026-08-21T10:03:15.000Z</time>
      </trkpt>
      <trkpt lat="45.25217" lon="6.04415">
        <ele>1805.5999755859</ele>
        <time>2026-08-21T10:03:16.000Z</time>
      </trkpt>
      <trkpt lat="45.25215" lon="6.04414">
        <ele>1805.8000488281</ele>
        <time>2026-08-21T10:03:17.000Z</time>
      </trkpt>
      <trkpt lat="45.25214" lon="6.04413">
        <ele>1805.5999755859</ele>
        <time>2026-08-21T10:03:18.000Z</time>
      </trkpt>
      <trkpt lat="45.25213" lon="6.04413">
        <ele>1805.5999755859</ele>
        <time>2026-08-21T10:03:19.000Z</time>
      </trkpt>
      <trkpt lat="45.25213" lon="6.04412">
        <ele>1805.5999755859</ele>
        <time>2026-08-21T10:03:20.000Z</time>
      </trkpt>
      <trkpt lat="45.25212" lon="6.04412">
        <ele>1805.5999755859</ele>
        <time>2026-08-21T10:03:21.000Z</time>
      </trkpt>
      <trkpt lat="45.25212" lon="6.04411">
        <ele>1805.5999755859</ele>
        <time>2026-08-21T10:03:22.000Z</time>
      </trkpt>
      <trkpt lat="45.25211" lon="6.04411">
        <ele>1805.8000488281</ele>
        <time>2026-08-21T10:03:23.000Z</time>
      </trkpt>
      <trkpt lat="45.2521" lon="6.04411">
        <ele>1806</ele>
        <time>2026-08-21T10:03:24.000Z</time>
      </trkpt>
      <trkpt lat="45.25209" lon="6.04411">
        <ele>1806.1999511719</ele>
        <time>2026-08-21T10:03:25.000Z</time>
      </trkpt>
      <trkpt lat="45.25209" lon="6.0441">
        <ele>1806.5999755859</ele>
        <time>2026-08-21T10:03:26.000Z</time>
      </trkpt>
      <trkpt lat="45.25209" lon="6.0441">
        <ele>1806.8000488281</ele>
        <time>2026-08-21T10:03:27.000Z</time>
      </trkpt>
      <trkpt lat="45.25208" lon="6.0441">
        <ele>1807.1999511719</ele>
        <time>2026-08-21T10:03:28.000Z</time>
      </trkpt>
      <trkpt lat="45.25207" lon="6.04409">
        <ele>1807.4000244141</ele>
        <time>2026-08-21T10:03:29.000Z</time>
      </trkpt>
      <trkpt lat="45.25206" lon="6.04409">
        <ele>1808.1999511719</ele>
        <time>2026-08-21T10:03:30.000Z</time>
      </trkpt>
      <trkpt lat="45.25206" lon="6.04408">
        <ele>1808.8000488281</ele>
        <time>2026-08-21T10:03:31.000Z</time>
      </trkpt>
      <trkpt lat="45.25205" lon="6.04408">
        <ele>1809.1999511719</ele>
        <time>2026-08-21T10:03:32.000Z</time>
      </trkpt>
      <trkpt lat="45.25205" lon="6.04407">
        <ele>1809.4000244141</ele>
        <time>2026-08-21T10:03:33.000Z</time>
      </trkpt>
      <trkpt lat="45.25204" lon="6.04406">
        <ele>1809.4000244141</ele>
        <time>2026-08-21T10:03:34.000Z</time>
      </trkpt>
      <trkpt lat="45.25204" lon="6.04405">
        <ele>1809.8000488281</ele>
        <time>2026-08-21T10:03:35.000Z</time>
      </trkpt>
      <trkpt lat="45.25204" lon="6.04404">
        <ele>1810</ele>
        <time>2026-08-21T10:03:36.000Z</time>
      </trkpt>
      <trkpt lat="45.25203" lon="6.04403">
        <ele>1810</ele>
        <time>2026-08-21T10:03:37.000Z</time>
      </trkpt>
      <trkpt lat="45.25202" lon="6.04404">
        <ele>1810.1999511719</ele>
        <time>2026-08-21T10:03:38.000Z</time>
      </trkpt>
      <trkpt lat="45.25201" lon="6.04403">
        <ele>1810.4000244141</ele>
        <time>2026-08-21T10:03:39.000Z</time>
      </trkpt>
      <trkpt lat="45.252" lon="6.04402">
        <ele>1810.5999755859</ele>
        <time>2026-08-21T10:03:40.000Z</time>
      </trkpt>
      <trkpt lat="45.25199" lon="6.04403">
        <ele>1810.8000488281</ele>
        <time>2026-08-21T10:03:41.000Z</time>
      </trkpt>
      <trkpt lat="45.25199" lon="6.04403">
        <ele>1811</ele>
        <time>2026-08-21T10:03:42.000Z</time>
      </trkpt>
      <trkpt lat="45.25198" lon="6.04403">
        <ele>1811.1999511719</ele>
        <time>2026-08-21T10:03:43.000Z</time>
      </trkpt>
      <trkpt lat="45.25198" lon="6.04403">
        <ele>1811.5999755859</ele>
        <time>2026-08-21T10:03:44.000Z</time>
      </trkpt>
      <trkpt lat="45.25197" lon="6.04403">
        <ele>1811.5999755859</ele>
        <time>2026-08-21T10:03:45.000Z</time>
      </trkpt>
      <trkpt lat="45.25196" lon="6.04402">
        <ele>1811.8000488281</ele>
        <time>2026-08-21T10:03:46.000Z</time>
      </trkpt>
      <trkpt lat="45.25195" lon="6.04401">
        <ele>1812</ele>
        <time>2026-08-21T10:03:47.000Z</time>
      </trkpt>
      <trkpt lat="45.25195" lon="6.04401">
        <ele>1812.1999511719</ele>
        <time>2026-08-21T10:03:48.000Z</time>
      </trkpt>
      <trkpt lat="45.25194" lon="6.04401">
        <ele>1812.5999755859</ele>
        <time>2026-08-21T10:03:49.000Z</time>
      </trkpt>
      <trkpt lat="45.25193" lon="6.044">
        <ele>1813</ele>
        <time>2026-08-21T10:03:50.000Z</time>
      </trkpt>
      <trkpt lat="45.25192" lon="6.044">
        <ele>1813.1999511719</ele>
        <time>2026-08-21T10:03:51.000Z</time>
      </trkpt>
      <trkpt lat="45.25191" lon="6.044">
        <ele>1813.4000244141</ele>
        <time>2026-08-21T10:03:52.000Z</time>
      </trkpt>
      <trkpt lat="45.2519" lon="6.04399">
        <ele>1813.8000488281</ele>
        <time>2026-08-21T10:03:53.000Z</time>
      </trkpt>
      <trkpt lat="45.25189" lon="6.04399">
        <ele>1814</ele>
        <time>2026-08-21T10:03:54.000Z</time>
      </trkpt>
      <trkpt lat="45.25188" lon="6.04398">
        <ele>1814.1999511719</ele>
        <time>2026-08-21T10:03:55.000Z</time>
      </trkpt>
      <trkpt lat="45.25187" lon="6.04397">
        <ele>1814.5999755859</ele>
        <time>2026-08-21T10:03:56.000Z</time>
      </trkpt>
      <trkpt lat="45.25187" lon="6.04397">
        <ele>1815.1999511719</ele>
        <time>2026-08-21T10:03:57.000Z</time>
      </trkpt>
      <trkpt lat="45.25186" lon="6.04397">
        <ele>1815.5999755859</ele>
        <time>2026-08-21T10:03:58.000Z</time>
      </trkpt>
      <trkpt lat="45.25185" lon="6.04397">
        <ele>1815.8000488281</ele>
        <time>2026-08-21T10:03:59.000Z</time>
      </trkpt>
      <trkpt lat="45.25184" lon="6.04396">
        <ele>1816</ele>
        <time>2026-08-21T10:04:00.000Z</time>
      </trkpt>
      <trkpt lat="45.25183" lon="6.04395">
        <ele>1817.1999511719</ele>
        <time>2026-08-21T10:04:01.000Z</time>
      </trkpt>
      <trkpt lat="45.25183" lon="6.04395">
        <ele>1817.8000488281</ele>
        <time>2026-08-21T10:04:02.000Z</time>
      </trkpt>
      <trkpt lat="45.25182" lon="6.04394">
        <ele>1819.4000244141</ele>
        <time>2026-08-21T10:04:03.000Z</time>
      </trkpt>
      <trkpt lat="45.25182" lon="6.04393">
        <ele>1820</ele>
        <time>2026-08-21T10:04:04.000Z</time>
      </trkpt>
      <trkpt lat="45.25182" lon="6.04392">
        <ele>1820.4000244141</ele>
        <time>2026-08-21T10:04:05.000Z</time>
      </trkpt>
      <trkpt lat="45.25181" lon="6.0439">
        <ele>1820.8000488281</ele>
        <time>2026-08-21T10:04:06.000Z</time>
      </trkpt>
      <trkpt lat="45.2518" lon="6.04389">
        <ele>1821.8000488281</ele>
        <time>2026-08-21T10:04:07.000Z</time>
      </trkpt>
      <trkpt lat="45.2518" lon="6.04388">
        <ele>1823.1999511719</ele>
        <time>2026-08-21T10:04:08.000Z</time>
      </trkpt>
      <trkpt lat="45.2518" lon="6.04387">
        <ele>1823.5999755859</ele>
        <time>2026-08-21T10:04:09.000Z</time>
      </trkpt>
      <trkpt lat="45.25179" lon="6.04386">
        <ele>1824.1999511719</ele>
        <time>2026-08-21T10:04:10.000Z</time>
      </trkpt>
      <trkpt lat="45.25179" lon="6.04384">
        <ele>1824.5999755859</ele>
        <time>2026-08-21T10:04:11.000Z</time>
      </trkpt>
      <trkpt lat="45.2518" lon="6.04383">
        <ele>1824.5999755859</ele>
        <time>2026-08-21T10:04:12.000Z</time>
      </trkpt>
      <trkpt lat="45.2518" lon="6.04381">
        <ele>1825</ele>
        <time>2026-08-21T10:04:13.000Z</time>
      </trkpt>
      <trkpt lat="45.2518" lon="6.0438">
        <ele>1825.4000244141</ele>
        <time>2026-08-21T10:04:14.000Z</time>
      </trkpt>
      <trkpt lat="45.2518" lon="6.04379">
        <ele>1825.8000488281</ele>
        <time>2026-08-21T10:04:15.000Z</time>
      </trkpt>
      <trkpt lat="45.25179" lon="6.04378">
        <ele>1826.1999511719</ele>
        <time>2026-08-21T10:04:16.000Z</time>
      </trkpt>
      <trkpt lat="45.25179" lon="6.04377">
        <ele>1826.4000244141</ele>
        <time>2026-08-21T10:04:17.000Z</time>
      </trkpt>
      <trkpt lat="45.25179" lon="6.04375">
        <ele>1826.4000244141</ele>
        <time>2026-08-21T10:04:18.000Z</time>
      </trkpt>
      <trkpt lat="45.25178" lon="6.04374">
        <ele>1826.5999755859</ele>
        <time>2026-08-21T10:04:19.000Z</time>
      </trkpt>
      <trkpt lat="45.25178" lon="6.04373">
        <ele>1827.1999511719</ele>
        <time>2026-08-21T10:04:20.000Z</time>
      </trkpt>
      <trkpt lat="45.25178" lon="6.04371">
        <ele>1827.8000488281</ele>
        <time>2026-08-21T10:04:21.000Z</time>
      </trkpt>
      <trkpt lat="45.25178" lon="6.0437">
        <ele>1827.5999755859</ele>
        <time>2026-08-21T10:04:22.000Z</time>
      </trkpt>
      <trkpt lat="45.25178" lon="6.04369">
        <ele>1827.5999755859</ele>
        <time>2026-08-21T10:04:23.000Z</time>
      </trkpt>
      <trkpt lat="45.25177" lon="6.04368">
        <ele>1827.5999755859</ele>
        <time>2026-08-21T10:04:24.000Z</time>
      </trkpt>
      <trkpt lat="45.25177" lon="6.04367">
        <ele>1827.5999755859</ele>
        <time>2026-08-21T10:04:25.000Z</time>
      </trkpt>
      <trkpt lat="45.25177" lon="6.04365">
        <ele>1827.5999755859</ele>
        <time>2026-08-21T10:04:26.000Z</time>
      </trkpt>
      <trkpt lat="45.25177" lon="6.04364">
        <ele>1825.4000244141</ele>
        <time>2026-08-21T10:04:27.000Z</time>
      </trkpt>
      <trkpt lat="45.25177" lon="6.04362">
        <ele>1824.5999755859</ele>
        <time>2026-08-21T10:04:28.000Z</time>
      </trkpt>
      <trkpt lat="45.25177" lon="6.04361">
        <ele>1824.1999511719</ele>
        <time>2026-08-21T10:04:29.000Z</time>
      </trkpt>
      <trkpt lat="45.25176" lon="6.0436">
        <ele>1823.8000488281</ele>
        <time>2026-08-21T10:04:30.000Z</time>
      </trkpt>
      <trkpt lat="45.25175" lon="6.04359">
        <ele>1823.5999755859</ele>
        <time>2026-08-21T10:04:31.000Z</time>
      </trkpt>
      <trkpt lat="45.25175" lon="6.04358">
        <ele>1822.5999755859</ele>
        <time>2026-08-21T10:04:32.000Z</time>
      </trkpt>
      <trkpt lat="45.25174" lon="6.04357">
        <ele>1822.5999755859</ele>
        <time>2026-08-21T10:04:33.000Z</time>
      </trkpt>
      <trkpt lat="45.25174" lon="6.04357">
        <ele>1822.4000244141</ele>
        <time>2026-08-21T10:04:34.000Z</time>
      </trkpt>
      <trkpt lat="45.25173" lon="6.04357">
        <ele>1822.8000488281</ele>
        <time>2026-08-21T10:04:35.000Z</time>
      </trkpt>
      <trkpt lat="45.25172" lon="6.04356">
        <ele>1823</ele>
        <time>2026-08-21T10:04:36.000Z</time>
      </trkpt>
      <trkpt lat="45.25171" lon="6.04356">
        <ele>1823.5999755859</ele>
        <time>2026-08-21T10:04:37.000Z</time>
      </trkpt>
      <trkpt lat="45.2517" lon="6.04356">
        <ele>1823.8000488281</ele>
        <time>2026-08-21T10:04:38.000Z</time>
      </trkpt>
      <trkpt lat="45.25169" lon="6.04355">
        <ele>1824.1999511719</ele>
        <time>2026-08-21T10:04:39.000Z</time>
      </trkpt>
      <trkpt lat="45.25169" lon="6.04354">
        <ele>1824.5999755859</ele>
        <time>2026-08-21T10:04:40.000Z</time>
      </trkpt>
      <trkpt lat="45.25168" lon="6.04353">
        <ele>1824.8000488281</ele>
        <time>2026-08-21T10:04:41.000Z</time>
      </trkpt>
      <trkpt lat="45.25167" lon="6.04352">
        <ele>1825</ele>
        <time>2026-08-21T10:04:42.000Z</time>
      </trkpt>
      <trkpt lat="45.25167" lon="6.0435">
        <ele>1825.1999511719</ele>
        <time>2026-08-21T10:04:43.000Z</time>
      </trkpt>
      <trkpt lat="45.25167" lon="6.04349">
        <ele>1825.5999755859</ele>
        <time>2026-08-21T10:04:44.000Z</time>
      </trkpt>
      <trkpt lat="45.25167" lon="6.04348">
        <ele>1826</ele>
        <time>2026-08-21T10:04:45.000Z</time>
      </trkpt>
      <trkpt lat="45.25167" lon="6.04347">
        <ele>1826.5999755859</ele>
        <time>2026-08-21T10:04:46.000Z</time>
      </trkpt>
      <trkpt lat="45.25168" lon="6.04345">
        <ele>1826.8000488281</ele>
        <time>2026-08-21T10:04:47.000Z</time>
      </trkpt>
      <trkpt lat="45.2517" lon="6.04343">
        <ele>1827</ele>
        <time>2026-08-21T10:04:48.000Z</time>
      </trkpt>
      <trkpt lat="45.25171" lon="6.04342">
        <ele>1827.5999755859</ele>
        <time>2026-08-21T10:04:49.000Z</time>
      </trkpt>
      <trkpt lat="45.25172" lon="6.04341">
        <ele>1827.8000488281</ele>
        <time>2026-08-21T10:04:50.000Z</time>
      </trkpt>
      <trkpt lat="45.25173" lon="6.0434">
        <ele>1827.8000488281</ele>
        <time>2026-08-21T10:04:51.000Z</time>
      </trkpt>
      <trkpt lat="45.25173" lon="6.04339">
        <ele>1828</ele>
        <time>2026-08-21T10:04:52.000Z</time>
      </trkpt>
      <trkpt lat="45.25174" lon="6.04337">
        <ele>1828</ele>
        <time>2026-08-21T10:04:53.000Z</time>
      </trkpt>
      <trkpt lat="45.25174" lon="6.04336">
        <ele>1828</ele>
        <time>2026-08-21T10:04:54.000Z</time>
      </trkpt>
      <trkpt lat="45.25174" lon="6.04335">
        <ele>1828</ele>
        <time>2026-08-21T10:04:55.000Z</time>
      </trkpt>
      <trkpt lat="45.25174" lon="6.04333">
        <ele>1828</ele>
        <time>2026-08-21T10:04:56.000Z</time>
      </trkpt>
      <trkpt lat="45.25174" lon="6.04332">
        <ele>1829.1999511719</ele>
        <time>2026-08-21T10:04:57.000Z</time>
      </trkpt>
      <trkpt lat="45.25174" lon="6.04331">
        <ele>1830.1999511719</ele>
        <time>2026-08-21T10:04:58.000Z</time>
      </trkpt>
      <trkpt lat="45.25174" lon="6.0433">
        <ele>1830.5999755859</ele>
        <time>2026-08-21T10:04:59.000Z</time>
      </trkpt>
      <trkpt lat="45.25174" lon="6.04329">
        <ele>1830.8000488281</ele>
        <time>2026-08-21T10:05:00.000Z</time>
      </trkpt>
      <trkpt lat="45.25174" lon="6.04328">
        <ele>1831.4000244141</ele>
        <time>2026-08-21T10:05:01.000Z</time>
      </trkpt>
      <trkpt lat="45.25175" lon="6.04327">
        <ele>1831.8000488281</ele>
        <time>2026-08-21T10:05:02.000Z</time>
      </trkpt>
      <trkpt lat="45.25175" lon="6.04326">
        <ele>1832.4000244141</ele>
        <time>2026-08-21T10:05:03.000Z</time>
      </trkpt>
      <trkpt lat="45.25175" lon="6.04325">
        <ele>1832.5999755859</ele>
        <time>2026-08-21T10:05:04.000Z</time>
      </trkpt>
      <trkpt lat="45.25174" lon="6.04323">
        <ele>1833</ele>
        <time>2026-08-21T10:05:05.000Z</time>
      </trkpt>
      <trkpt lat="45.25174" lon="6.04322">
        <ele>1833.1999511719</ele>
        <time>2026-08-21T10:05:06.000Z</time>
      </trkpt>
      <trkpt lat="45.25174" lon="6.04321">
        <ele>1833.4000244141</ele>
        <time>2026-08-21T10:05:07.000Z</time>
      </trkpt>
      <trkpt lat="45.25174" lon="6.04319">
        <ele>1833.5999755859</ele>
        <time>2026-08-21T10:05:08.000Z</time>
      </trkpt>
      <trkpt lat="45.25174" lon="6.04318">
        <ele>1833.5999755859</ele>
        <time>2026-08-21T10:05:09.000Z</time>
      </trkpt>
      <trkpt lat="45.25173" lon="6.04316">
        <ele>1833.4000244141</ele>
        <time>2026-08-21T10:05:10.000Z</time>
      </trkpt>
      <trkpt lat="45.25173" lon="6.04315">
        <ele>1833</ele>
        <time>2026-08-21T10:05:11.000Z</time>
      </trkpt>
      <trkpt lat="45.25173" lon="6.04314">
        <ele>1832.8000488281</ele>
        <time>2026-08-21T10:05:12.000Z</time>
      </trkpt>
      <trkpt lat="45.25174" lon="6.04312">
        <ele>1832.8000488281</ele>
        <time>2026-08-21T10:05:13.000Z</time>
      </trkpt>
      <trkpt lat="45.25174" lon="6.04311">
        <ele>1832.8000488281</ele>
        <time>2026-08-21T10:05:14.000Z</time>
      </trkpt>
      <trkpt lat="45.25175" lon="6.0431">
        <ele>1832.8000488281</ele>
        <time>2026-08-21T10:05:15.000Z</time>
      </trkpt>
      <trkpt lat="45.25175" lon="6.04308">
        <ele>1833</ele>
        <time>2026-08-21T10:05:16.000Z</time>
      </trkpt>
      <trkpt lat="45.25175" lon="6.04307">
        <ele>1833.4000244141</ele>
        <time>2026-08-21T10:05:17.000Z</time>
      </trkpt>
      <trkpt lat="45.25175" lon="6.04306">
        <ele>1833.8000488281</ele>
        <time>2026-08-21T10:05:18.000Z</time>
      </trkpt>
      <trkpt lat="45.25175" lon="6.04305">
        <ele>1834</ele>
        <time>2026-08-21T10:05:19.000Z</time>
      </trkpt>
      <trkpt lat="45.25175" lon="6.04304">
        <ele>1834.1999511719</ele>
        <time>2026-08-21T10:05:20.000Z</time>
      </trkpt>
      <trkpt lat="45.25174" lon="6.04303">
        <ele>1834.1999511719</ele>
        <time>2026-08-21T10:05:21.000Z</time>
      </trkpt>
      <trkpt lat="45.25173" lon="6.04301">
        <ele>1834.4000244141</ele>
        <time>2026-08-21T10:05:22.000Z</time>
      </trkpt>
      <trkpt lat="45.25172" lon="6.04301">
        <ele>1834.4000244141</ele>
        <time>2026-08-21T10:05:23.000Z</time>
      </trkpt>
      <trkpt lat="45.25172" lon="6.043">
        <ele>1834.5999755859</ele>
        <time>2026-08-21T10:05:24.000Z</time>
      </trkpt>
      <trkpt lat="45.2517" lon="6.043">
        <ele>1835</ele>
        <time>2026-08-21T10:05:25.000Z</time>
      </trkpt>
      <trkpt lat="45.25169" lon="6.04299">
        <ele>1835.1999511719</ele>
        <time>2026-08-21T10:05:26.000Z</time>
      </trkpt>
      <trkpt lat="45.25168" lon="6.04298">
        <ele>1835.5999755859</ele>
        <time>2026-08-21T10:05:27.000Z</time>
      </trkpt>
      <trkpt lat="45.25167" lon="6.04297">
        <ele>1836.4000244141</ele>
        <time>2026-08-21T10:05:28.000Z</time>
      </trkpt>
      <trkpt lat="45.25166" lon="6.04296">
        <ele>1836.5999755859</ele>
        <time>2026-08-21T10:05:29.000Z</time>
      </trkpt>
      <trkpt lat="45.25166" lon="6.04294">
        <ele>1836.8000488281</ele>
        <time>2026-08-21T10:05:30.000Z</time>
      </trkpt>
      <trkpt lat="45.25165" lon="6.04293">
        <ele>1837</ele>
        <time>2026-08-21T10:05:31.000Z</time>
      </trkpt>
      <trkpt lat="45.25164" lon="6.04293">
        <ele>1837.4000244141</ele>
        <time>2026-08-21T10:05:32.000Z</time>
      </trkpt>
      <trkpt lat="45.25164" lon="6.04292">
        <ele>1838</ele>
        <time>2026-08-21T10:05:33.000Z</time>
      </trkpt>
      <trkpt lat="45.25163" lon="6.04291">
        <ele>1838.1999511719</ele>
        <time>2026-08-21T10:05:34.000Z</time>
      </trkpt>
      <trkpt lat="45.25161" lon="6.04291">
        <ele>1838.8000488281</ele>
        <time>2026-08-21T10:05:35.000Z</time>
      </trkpt>
      <trkpt lat="45.25161" lon="6.04291">
        <ele>1839.1999511719</ele>
        <time>2026-08-21T10:05:36.000Z</time>
      </trkpt>
      <trkpt lat="45.2516" lon="6.04291">
        <ele>1839.4000244141</ele>
        <time>2026-08-21T10:05:37.000Z</time>
      </trkpt>
      <trkpt lat="45.25159" lon="6.04291">
        <ele>1839.5999755859</ele>
        <time>2026-08-21T10:05:38.000Z</time>
      </trkpt>
      <trkpt lat="45.25158" lon="6.04291">
        <ele>1839.4000244141</ele>
        <time>2026-08-21T10:05:39.000Z</time>
      </trkpt>
      <trkpt lat="45.25157" lon="6.0429">
        <ele>1839.4000244141</ele>
        <time>2026-08-21T10:05:40.000Z</time>
      </trkpt>
      <trkpt lat="45.25157" lon="6.04289">
        <ele>1839.4000244141</ele>
        <time>2026-08-21T10:05:41.000Z</time>
      </trkpt>
      <trkpt lat="45.25157" lon="6.04288">
        <ele>1839.5999755859</ele>
        <time>2026-08-21T10:05:42.000Z</time>
      </trkpt>
      <trkpt lat="45.25156" lon="6.04288">
        <ele>1839.5999755859</ele>
        <time>2026-08-21T10:05:43.000Z</time>
      </trkpt>
      <trkpt lat="45.25155" lon="6.04287">
        <ele>1839.5999755859</ele>
        <time>2026-08-21T10:05:44.000Z</time>
      </trkpt>
      <trkpt lat="45.25154" lon="6.04286">
        <ele>1840.8000488281</ele>
        <time>2026-08-21T10:05:45.000Z</time>
      </trkpt>
      <trkpt lat="45.25153" lon="6.04286">
        <ele>1841</ele>
        <time>2026-08-21T10:05:46.000Z</time>
      </trkpt>
      <trkpt lat="45.25153" lon="6.04286">
        <ele>1841.4000244141</ele>
        <time>2026-08-21T10:05:47.000Z</time>
      </trkpt>
      <trkpt lat="45.25152" lon="6.04286">
        <ele>1841.5999755859</ele>
        <time>2026-08-21T10:05:48.000Z</time>
      </trkpt>
      <trkpt lat="45.25151" lon="6.04285">
        <ele>1842.5999755859</ele>
        <time>2026-08-21T10:05:49.000Z</time>
      </trkpt>
      <trkpt lat="45.2515" lon="6.04285">
        <ele>1843.4000244141</ele>
        <time>2026-08-21T10:05:50.000Z</time>
      </trkpt>
      <trkpt lat="45.25149" lon="6.04284">
        <ele>1844.1999511719</ele>
        <time>2026-08-21T10:05:51.000Z</time>
      </trkpt>
      <trkpt lat="45.25148" lon="6.04283">
        <ele>1845</ele>
        <time>2026-08-21T10:05:52.000Z</time>
      </trkpt>
      <trkpt lat="45.25148" lon="6.04282">
        <ele>1846</ele>
        <time>2026-08-21T10:05:53.000Z</time>
      </trkpt>
      <trkpt lat="45.25147" lon="6.04282">
        <ele>1846.4000244141</ele>
        <time>2026-08-21T10:05:54.000Z</time>
      </trkpt>
      <trkpt lat="45.25147" lon="6.0428">
        <ele>1846.5999755859</ele>
        <time>2026-08-21T10:05:55.000Z</time>
      </trkpt>
      <trkpt lat="45.25147" lon="6.04279">
        <ele>1847</ele>
        <time>2026-08-21T10:05:56.000Z</time>
      </trkpt>
      <trkpt lat="45.25147" lon="6.04278">
        <ele>1847.1999511719</ele>
        <time>2026-08-21T10:05:57.000Z</time>
      </trkpt>
      <trkpt lat="45.25147" lon="6.04276">
        <ele>1847.4000244141</ele>
        <time>2026-08-21T10:05:58.000Z</time>
      </trkpt>
      <trkpt lat="45.25146" lon="6.04275">
        <ele>1848.1999511719</ele>
        <time>2026-08-21T10:05:59.000Z</time>
      </trkpt>
      <trkpt lat="45.25146" lon="6.04274">
        <ele>1849</ele>
        <time>2026-08-21T10:06:00.000Z</time>
      </trkpt>
      <trkpt lat="45.25147" lon="6.04272">
        <ele>1849.4000244141</ele>
        <time>2026-08-21T10:06:01.000Z</time>
      </trkpt>
      <trkpt lat="45.25148" lon="6.04272">
        <ele>1849.8000488281</ele>
        <time>2026-08-21T10:06:02.000Z</time>
      </trkpt>
      <trkpt lat="45.25149" lon="6.04271">
        <ele>1850</ele>
        <time>2026-08-21T10:06:03.000Z</time>
      </trkpt>
      <trkpt lat="45.25149" lon="6.0427">
        <ele>1850.1999511719</ele>
        <time>2026-08-21T10:06:04.000Z</time>
      </trkpt>
      <trkpt lat="45.2515" lon="6.04269">
        <ele>1850.5999755859</ele>
        <time>2026-08-21T10:06:05.000Z</time>
      </trkpt>
      <trkpt lat="45.2515" lon="6.04268">
        <ele>1851</ele>
        <time>2026-08-21T10:06:06.000Z</time>
      </trkpt>
      <trkpt lat="45.25151" lon="6.04267">
        <ele>1851.8000488281</ele>
        <time>2026-08-21T10:06:07.000Z</time>
      </trkpt>
      <trkpt lat="45.25151" lon="6.04266">
        <ele>1852.4000244141</ele>
        <time>2026-08-21T10:06:08.000Z</time>
      </trkpt>
      <trkpt lat="45.25152" lon="6.04265">
        <ele>1852.8000488281</ele>
        <time>2026-08-21T10:06:09.000Z</time>
      </trkpt>
      <trkpt lat="45.25152" lon="6.04264">
        <ele>1853.8000488281</ele>
        <time>2026-08-21T10:06:10.000Z</time>
      </trkpt>
      <trkpt lat="45.25152" lon="6.04264">
        <ele>1854.5999755859</ele>
        <time>2026-08-21T10:06:11.000Z</time>
      </trkpt>
      <trkpt lat="45.25153" lon="6.04263">
        <ele>1855.4000244141</ele>
        <time>2026-08-21T10:06:12.000Z</time>
      </trkpt>
      <trkpt lat="45.25153" lon="6.04262">
        <ele>1855.8000488281</ele>
        <time>2026-08-21T10:06:13.000Z</time>
      </trkpt>
      <trkpt lat="45.25154" lon="6.04262">
        <ele>1855</ele>
        <time>2026-08-21T10:06:14.000Z</time>
      </trkpt>
      <trkpt lat="45.25155" lon="6.04261">
        <ele>1854.1999511719</ele>
        <time>2026-08-21T10:06:15.000Z</time>
      </trkpt>
      <trkpt lat="45.25156" lon="6.04261">
        <ele>1853.4000244141</ele>
        <time>2026-08-21T10:06:16.000Z</time>
      </trkpt>
      <trkpt lat="45.25157" lon="6.0426">
        <ele>1852.5999755859</ele>
        <time>2026-08-21T10:06:17.000Z</time>
      </trkpt>
      <trkpt lat="45.25158" lon="6.0426">
        <ele>1851.8000488281</ele>
        <time>2026-08-21T10:06:18.000Z</time>
      </trkpt>
      <trkpt lat="45.25159" lon="6.04259">
        <ele>1851</ele>
        <time>2026-08-21T10:06:19.000Z</time>
      </trkpt>
      <trkpt lat="45.2516" lon="6.04259">
        <ele>1850.1999511719</ele>
        <time>2026-08-21T10:06:20.000Z</time>
      </trkpt>
      <trkpt lat="45.25161" lon="6.04258">
        <ele>1849.4000244141</ele>
        <time>2026-08-21T10:06:21.000Z</time>
      </trkpt>
      <trkpt lat="45.25162" lon="6.04257">
        <ele>1849.1999511719</ele>
        <time>2026-08-21T10:06:22.000Z</time>
      </trkpt>
      <trkpt lat="45.25163" lon="6.04257">
        <ele>1849.1999511719</ele>
        <time>2026-08-21T10:06:23.000Z</time>
      </trkpt>
      <trkpt lat="45.25164" lon="6.04257">
        <ele>1849.1999511719</ele>
        <time>2026-08-21T10:06:24.000Z</time>
      </trkpt>
      <trkpt lat="45.25166" lon="6.04257">
        <ele>1849.1999511719</ele>
        <time>2026-08-21T10:06:25.000Z</time>
      </trkpt>
      <trkpt lat="45.25168" lon="6.04257">
        <ele>1849.8000488281</ele>
        <time>2026-08-21T10:06:26.000Z</time>
      </trkpt>
      <trkpt lat="45.25168" lon="6.04256">
        <ele>1850.1999511719</ele>
        <time>2026-08-21T10:06:27.000Z</time>
      </trkpt>
      <trkpt lat="45.25169" lon="6.04256">
        <ele>1850.5999755859</ele>
        <time>2026-08-21T10:06:28.000Z</time>
      </trkpt>
      <trkpt lat="45.25169" lon="6.04255">
        <ele>1850.8000488281</ele>
        <time>2026-08-21T10:06:29.000Z</time>
      </trkpt>
      <trkpt lat="45.2517" lon="6.04254">
        <ele>1851.1999511719</ele>
        <time>2026-08-21T10:06:30.000Z</time>
      </trkpt>
      <trkpt lat="45.2517" lon="6.04254">
        <ele>1851.8000488281</ele>
        <time>2026-08-21T10:06:31.000Z</time>
      </trkpt>
      <trkpt lat="45.25171" lon="6.04254">
        <ele>1852</ele>
        <time>2026-08-21T10:06:32.000Z</time>
      </trkpt>
      <trkpt lat="45.25172" lon="6.04254">
        <ele>1852</ele>
        <time>2026-08-21T10:06:33.000Z</time>
      </trkpt>
      <trkpt lat="45.25173" lon="6.04254">
        <ele>1852</ele>
        <time>2026-08-21T10:06:34.000Z</time>
      </trkpt>
      <trkpt lat="45.25175" lon="6.04254">
        <ele>1852</ele>
        <time>2026-08-21T10:06:35.000Z</time>
      </trkpt>
      <trkpt lat="45.25176" lon="6.04253">
        <ele>1852</ele>
        <time>2026-08-21T10:06:36.000Z</time>
      </trkpt>
      <trkpt lat="45.25177" lon="6.04253">
        <ele>1852.1999511719</ele>
        <time>2026-08-21T10:06:37.000Z</time>
      </trkpt>
      <trkpt lat="45.25177" lon="6.04253">
        <ele>1852.5999755859</ele>
        <time>2026-08-21T10:06:38.000Z</time>
      </trkpt>
      <trkpt lat="45.25178" lon="6.04253">
        <ele>1852.5999755859</ele>
        <time>2026-08-21T10:06:39.000Z</time>
      </trkpt>
      <trkpt lat="45.25179" lon="6.04253">
        <ele>1852.8000488281</ele>
        <time>2026-08-21T10:06:40.000Z</time>
      </trkpt>
      <trkpt lat="45.25179" lon="6.04253">
        <ele>1853.1999511719</ele>
        <time>2026-08-21T10:06:41.000Z</time>
      </trkpt>
      <trkpt lat="45.2518" lon="6.04253">
        <ele>1853.4000244141</ele>
        <time>2026-08-21T10:06:42.000Z</time>
      </trkpt>
      <trkpt lat="45.2518" lon="6.04253">
        <ele>1853.5999755859</ele>
        <time>2026-08-21T10:06:43.000Z</time>
      </trkpt>
      <trkpt lat="45.25181" lon="6.04253">
        <ele>1855</ele>
        <time>2026-08-21T10:06:44.000Z</time>
      </trkpt>
      <trkpt lat="45.25181" lon="6.04253">
        <ele>1855.1999511719</ele>
        <time>2026-08-21T10:06:45.000Z</time>
      </trkpt>
      <trkpt lat="45.25182" lon="6.04252">
        <ele>1855.4000244141</ele>
        <time>2026-08-21T10:06:46.000Z</time>
      </trkpt>
      <trkpt lat="45.25182" lon="6.04253">
        <ele>1855.1999511719</ele>
        <time>2026-08-21T10:06:47.000Z</time>
      </trkpt>
      <trkpt lat="45.25183" lon="6.04252">
        <ele>1855.4000244141</ele>
        <time>2026-08-21T10:06:48.000Z</time>
      </trkpt>
      <trkpt lat="45.25185" lon="6.04252">
        <ele>1855</ele>
        <time>2026-08-21T10:06:49.000Z</time>
      </trkpt>
      <trkpt lat="45.25186" lon="6.04252">
        <ele>1855</ele>
        <time>2026-08-21T10:06:50.000Z</time>
      </trkpt>
      <trkpt lat="45.25187" lon="6.04252">
        <ele>1855</ele>
        <time>2026-08-21T10:06:51.000Z</time>
      </trkpt>
      <trkpt lat="45.25187" lon="6.04252">
        <ele>1855.5999755859</ele>
        <time>2026-08-21T10:06:52.000Z</time>
      </trkpt>
      <trkpt lat="45.25188" lon="6.04251">
        <ele>1856.1999511719</ele>
        <time>2026-08-21T10:06:53.000Z</time>
      </trkpt>
      <trkpt lat="45.25189" lon="6.04251">
        <ele>1856.5999755859</ele>
        <time>2026-08-21T10:06:54.000Z</time>
      </trkpt>
      <trkpt lat="45.2519" lon="6.04251">
        <ele>1857.1999511719</ele>
        <time>2026-08-21T10:06:55.000Z</time>
      </trkpt>
      <trkpt lat="45.2519" lon="6.04251">
        <ele>1857.1999511719</ele>
        <time>2026-08-21T10:06:56.000Z</time>
      </trkpt>
      <trkpt lat="45.25191" lon="6.04251">
        <ele>1857.4000244141</ele>
        <time>2026-08-21T10:06:57.000Z</time>
      </trkpt>
      <trkpt lat="45.25191" lon="6.04251">
        <ele>1857.4000244141</ele>
        <time>2026-08-21T10:06:58.000Z</time>
      </trkpt>
      <trkpt lat="45.25191" lon="6.04251">
        <ele>1857.1999511719</ele>
        <time>2026-08-21T10:06:59.000Z</time>
      </trkpt>
      <trkpt lat="45.25192" lon="6.0425">
        <ele>1857</ele>
        <time>2026-08-21T10:07:00.000Z</time>
      </trkpt>
      <trkpt lat="45.25192" lon="6.0425">
        <ele>1857</ele>
        <time>2026-08-21T10:07:01.000Z</time>
      </trkpt>
      <trkpt lat="45.25192" lon="6.0425">
        <ele>1857</ele>
        <time>2026-08-21T10:07:02.000Z</time>
      </trkpt>
      <trkpt lat="45.25193" lon="6.04249">
        <ele>1857.1999511719</ele>
        <time>2026-08-21T10:07:03.000Z</time>
      </trkpt>
      <trkpt lat="45.25194" lon="6.04249">
        <ele>1857.4000244141</ele>
        <time>2026-08-21T10:07:04.000Z</time>
      </trkpt>
      <trkpt lat="45.25195" lon="6.0425">
        <ele>1857.5999755859</ele>
        <time>2026-08-21T10:07:05.000Z</time>
      </trkpt>
      <trkpt lat="45.25196" lon="6.0425">
        <ele>1857.8000488281</ele>
        <time>2026-08-21T10:07:06.000Z</time>
      </trkpt>
      <trkpt lat="45.25197" lon="6.0425">
        <ele>1857.8000488281</ele>
        <time>2026-08-21T10:07:07.000Z</time>
      </trkpt>
      <trkpt lat="45.25198" lon="6.0425">
        <ele>1858.4000244141</ele>
        <time>2026-08-21T10:07:08.000Z</time>
      </trkpt>
      <trkpt lat="45.252" lon="6.0425">
        <ele>1859</ele>
        <time>2026-08-21T10:07:09.000Z</time>
      </trkpt>
      <trkpt lat="45.25201" lon="6.04249">
        <ele>1859.1999511719</ele>
        <time>2026-08-21T10:07:10.000Z</time>
      </trkpt>
      <trkpt lat="45.25202" lon="6.0425">
        <ele>1859.1999511719</ele>
        <time>2026-08-21T10:07:11.000Z</time>
      </trkpt>
      <trkpt lat="45.25204" lon="6.0425">
        <ele>1859.5999755859</ele>
        <time>2026-08-21T10:07:12.000Z</time>
      </trkpt>
      <trkpt lat="45.25205" lon="6.04251">
        <ele>1860.1999511719</ele>
        <time>2026-08-21T10:07:13.000Z</time>
      </trkpt>
      <trkpt lat="45.25206" lon="6.0425">
        <ele>1861</ele>
        <time>2026-08-21T10:07:14.000Z</time>
      </trkpt>
      <trkpt lat="45.25207" lon="6.0425">
        <ele>1861.1999511719</ele>
        <time>2026-08-21T10:07:15.000Z</time>
      </trkpt>
      <trkpt lat="45.25209" lon="6.0425">
        <ele>1861.8000488281</ele>
        <time>2026-08-21T10:07:16.000Z</time>
      </trkpt>
      <trkpt lat="45.25209" lon="6.0425">
        <ele>1862.1999511719</ele>
        <time>2026-08-21T10:07:17.000Z</time>
      </trkpt>
      <trkpt lat="45.2521" lon="6.04249">
        <ele>1862.1999511719</ele>
        <time>2026-08-21T10:07:18.000Z</time>
      </trkpt>
      <trkpt lat="45.2521" lon="6.04248">
        <ele>1862.4000244141</ele>
        <time>2026-08-21T10:07:19.000Z</time>
      </trkpt>
      <trkpt lat="45.25211" lon="6.04248">
        <ele>1862.4000244141</ele>
        <time>2026-08-21T10:07:20.000Z</time>
      </trkpt>
      <trkpt lat="45.25211" lon="6.04247">
        <ele>1862.5999755859</ele>
        <time>2026-08-21T10:07:21.000Z</time>
      </trkpt>
      <trkpt lat="45.25212" lon="6.04247">
        <ele>1862.5999755859</ele>
        <time>2026-08-21T10:07:22.000Z</time>
      </trkpt>
      <trkpt lat="45.25212" lon="6.04247">
        <ele>1862.5999755859</ele>
        <time>2026-08-21T10:07:23.000Z</time>
      </trkpt>
      <trkpt lat="45.25213" lon="6.04248">
        <ele>1863</ele>
        <time>2026-08-21T10:07:24.000Z</time>
      </trkpt>
      <trkpt lat="45.25213" lon="6.04247">
        <ele>1863.4000244141</ele>
        <time>2026-08-21T10:07:25.000Z</time>
      </trkpt>
      <trkpt lat="45.25215" lon="6.04247">
        <ele>1863.8000488281</ele>
        <time>2026-08-21T10:07:26.000Z</time>
      </trkpt>
      <trkpt lat="45.25215" lon="6.04246">
        <ele>1864</ele>
        <time>2026-08-21T10:07:27.000Z</time>
      </trkpt>
      <trkpt lat="45.25217" lon="6.04245">
        <ele>1864.4000244141</ele>
        <time>2026-08-21T10:07:28.000Z</time>
      </trkpt>
      <trkpt lat="45.25217" lon="6.04245">
        <ele>1864.8000488281</ele>
        <time>2026-08-21T10:07:29.000Z</time>
      </trkpt>
      <trkpt lat="45.25218" lon="6.04244">
        <ele>1865.1999511719</ele>
        <time>2026-08-21T10:07:30.000Z</time>
      </trkpt>
      <trkpt lat="45.25219" lon="6.04244">
        <ele>1866.4000244141</ele>
        <time>2026-08-21T10:07:31.000Z</time>
      </trkpt>
      <trkpt lat="45.2522" lon="6.04244">
        <ele>1867</ele>
        <time>2026-08-21T10:07:32.000Z</time>
      </trkpt>
      <trkpt lat="45.25221" lon="6.04243">
        <ele>1867.1999511719</ele>
        <time>2026-08-21T10:07:33.000Z</time>
      </trkpt>
      <trkpt lat="45.25222" lon="6.04243">
        <ele>1867.1999511719</ele>
        <time>2026-08-21T10:07:34.000Z</time>
      </trkpt>
      <trkpt lat="45.25223" lon="6.04242">
        <ele>1867.1999511719</ele>
        <time>2026-08-21T10:07:35.000Z</time>
      </trkpt>
      <trkpt lat="45.25224" lon="6.04242">
        <ele>1867.1999511719</ele>
        <time>2026-08-21T10:07:36.000Z</time>
      </trkpt>
      <trkpt lat="45.25225" lon="6.04241">
        <ele>1867.1999511719</ele>
        <time>2026-08-21T10:07:37.000Z</time>
      </trkpt>
      <trkpt lat="45.25226" lon="6.0424">
        <ele>1867.1999511719</ele>
        <time>2026-08-21T10:07:38.000Z</time>
      </trkpt>
      <trkpt lat="45.25227" lon="6.04239">
        <ele>1867.1999511719</ele>
        <time>2026-08-21T10:07:39.000Z</time>
      </trkpt>
      <trkpt lat="45.25228" lon="6.04238">
        <ele>1867.1999511719</ele>
        <time>2026-08-21T10:07:40.000Z</time>
      </trkpt>
      <trkpt lat="45.25229" lon="6.04237">
        <ele>1867.4000244141</ele>
        <time>2026-08-21T10:07:41.000Z</time>
      </trkpt>
      <trkpt lat="45.2523" lon="6.04236">
        <ele>1867.5999755859</ele>
        <time>2026-08-21T10:07:42.000Z</time>
      </trkpt>
      <trkpt lat="45.2523" lon="6.04235">
        <ele>1867.8000488281</ele>
        <time>2026-08-21T10:07:43.000Z</time>
      </trkpt>
      <trkpt lat="45.25231" lon="6.04234">
        <ele>1868</ele>
        <time>2026-08-21T10:07:44.000Z</time>
      </trkpt>
      <trkpt lat="45.25232" lon="6.04233">
        <ele>1868.1999511719</ele>
        <time>2026-08-21T10:07:45.000Z</time>
      </trkpt>
      <trkpt lat="45.25232" lon="6.04231">
        <ele>1869.1999511719</ele>
        <time>2026-08-21T10:07:46.000Z</time>
      </trkpt>
      <trkpt lat="45.25233" lon="6.0423">
        <ele>1869.4000244141</ele>
        <time>2026-08-21T10:07:47.000Z</time>
      </trkpt>
      <trkpt lat="45.25233" lon="6.04229">
        <ele>1869.5999755859</ele>
        <time>2026-08-21T10:07:48.000Z</time>
      </trkpt>
      <trkpt lat="45.25233" lon="6.04227">
        <ele>1869.8000488281</ele>
        <time>2026-08-21T10:07:49.000Z</time>
      </trkpt>
      <trkpt lat="45.25232" lon="6.04225">
        <ele>1869.8000488281</ele>
        <time>2026-08-21T10:07:50.000Z</time>
      </trkpt>
      <trkpt lat="45.25232" lon="6.04224">
        <ele>1870.4000244141</ele>
        <time>2026-08-21T10:07:51.000Z</time>
      </trkpt>
      <trkpt lat="45.25231" lon="6.04222">
        <ele>1870.8000488281</ele>
        <time>2026-08-21T10:07:52.000Z</time>
      </trkpt>
      <trkpt lat="45.25229" lon="6.0422">
        <ele>1871.5999755859</ele>
        <time>2026-08-21T10:07:53.000Z</time>
      </trkpt>
      <trkpt lat="45.25229" lon="6.04219">
        <ele>1873</ele>
        <time>2026-08-21T10:07:54.000Z</time>
      </trkpt>
      <trkpt lat="45.25229" lon="6.04217">
        <ele>1874.4000244141</ele>
        <time>2026-08-21T10:07:55.000Z</time>
      </trkpt>
      <trkpt lat="45.25228" lon="6.04215">
        <ele>1875.8000488281</ele>
        <time>2026-08-21T10:07:56.000Z</time>
      </trkpt>
      <trkpt lat="45.25227" lon="6.04213">
        <ele>1877.1999511719</ele>
        <time>2026-08-21T10:07:57.000Z</time>
      </trkpt>
      <trkpt lat="45.25226" lon="6.04211">
        <ele>1878.5999755859</ele>
        <time>2026-08-21T10:07:58.000Z</time>
      </trkpt>
      <trkpt lat="45.25225" lon="6.04209">
        <ele>1880</ele>
        <time>2026-08-21T10:07:59.000Z</time>
      </trkpt>
      <trkpt lat="45.25224" lon="6.04207">
        <ele>1880.1999511719</ele>
        <time>2026-08-21T10:08:00.000Z</time>
      </trkpt>
      <trkpt lat="45.25223" lon="6.04204">
        <ele>1880.5999755859</ele>
        <time>2026-08-21T10:08:01.000Z</time>
      </trkpt>
      <trkpt lat="45.25221" lon="6.04202">
        <ele>1880.8000488281</ele>
        <time>2026-08-21T10:08:02.000Z</time>
      </trkpt>
      <trkpt lat="45.2522" lon="6.042">
        <ele>1881.8000488281</ele>
        <time>2026-08-21T10:08:03.000Z</time>
      </trkpt>
      <trkpt lat="45.25219" lon="6.04199">
        <ele>1882</ele>
        <time>2026-08-21T10:08:04.000Z</time>
      </trkpt>
      <trkpt lat="45.25218" lon="6.04197">
        <ele>1882</ele>
        <time>2026-08-21T10:08:05.000Z</time>
      </trkpt>
      <trkpt lat="45.25217" lon="6.04195">
        <ele>1882</ele>
        <time>2026-08-21T10:08:06.000Z</time>
      </trkpt>
      <trkpt lat="45.25216" lon="6.04193">
        <ele>1881.8000488281</ele>
        <time>2026-08-21T10:08:07.000Z</time>
      </trkpt>
      <trkpt lat="45.25216" lon="6.04192">
        <ele>1881</ele>
        <time>2026-08-21T10:08:08.000Z</time>
      </trkpt>
      <trkpt lat="45.25215" lon="6.0419">
        <ele>1880.1999511719</ele>
        <time>2026-08-21T10:08:09.000Z</time>
      </trkpt>
      <trkpt lat="45.25214" lon="6.04188">
        <ele>1879.8000488281</ele>
        <time>2026-08-21T10:08:10.000Z</time>
      </trkpt>
      <trkpt lat="45.25213" lon="6.04187">
        <ele>1879.4000244141</ele>
        <time>2026-08-21T10:08:11.000Z</time>
      </trkpt>
      <trkpt lat="45.25212" lon="6.04185">
        <ele>1878.5999755859</ele>
        <time>2026-08-21T10:08:12.000Z</time>
      </trkpt>
      <trkpt lat="45.25211" lon="6.04183">
        <ele>1878.4000244141</ele>
        <time>2026-08-21T10:08:13.000Z</time>
      </trkpt>
      <trkpt lat="45.2521" lon="6.04182">
        <ele>1877.8000488281</ele>
        <time>2026-08-21T10:08:14.000Z</time>
      </trkpt>
      <trkpt lat="45.25209" lon="6.04182">
        <ele>1877.8000488281</ele>
        <time>2026-08-21T10:08:15.000Z</time>
      </trkpt>
      <trkpt lat="45.25208" lon="6.0418">
        <ele>1877.8000488281</ele>
        <time>2026-08-21T10:08:16.000Z</time>
      </trkpt>
      <trkpt lat="45.25207" lon="6.0418">
        <ele>1878</ele>
        <time>2026-08-21T10:08:17.000Z</time>
      </trkpt>
      <trkpt lat="45.25206" lon="6.04178">
        <ele>1878.1999511719</ele>
        <time>2026-08-21T10:08:18.000Z</time>
      </trkpt>
      <trkpt lat="45.25205" lon="6.04177">
        <ele>1878.5999755859</ele>
        <time>2026-08-21T10:08:19.000Z</time>
      </trkpt>
      <trkpt lat="45.25204" lon="6.04175">
        <ele>1878.5999755859</ele>
        <time>2026-08-21T10:08:20.000Z</time>
      </trkpt>
      <trkpt lat="45.25203" lon="6.04174">
        <ele>1878.8000488281</ele>
        <time>2026-08-21T10:08:21.000Z</time>
      </trkpt>
      <trkpt lat="45.25202" lon="6.04173">
        <ele>1878.8000488281</ele>
        <time>2026-08-21T10:08:22.000Z</time>
      </trkpt>
      <trkpt lat="45.25201" lon="6.04172">
        <ele>1879</ele>
        <time>2026-08-21T10:08:23.000Z</time>
      </trkpt>
      <trkpt lat="45.252" lon="6.0417">
        <ele>1879</ele>
        <time>2026-08-21T10:08:24.000Z</time>
      </trkpt>
      <trkpt lat="45.25199" lon="6.0417">
        <ele>1879.1999511719</ele>
        <time>2026-08-21T10:08:25.000Z</time>
      </trkpt>
      <trkpt lat="45.25198" lon="6.0417">
        <ele>1879.1999511719</ele>
        <time>2026-08-21T10:08:26.000Z</time>
      </trkpt>
      <trkpt lat="45.25197" lon="6.04168">
        <ele>1879.1999511719</ele>
        <time>2026-08-21T10:08:27.000Z</time>
      </trkpt>
      <trkpt lat="45.25196" lon="6.04167">
        <ele>1879.4000244141</ele>
        <time>2026-08-21T10:08:28.000Z</time>
      </trkpt>
      <trkpt lat="45.25195" lon="6.04165">
        <ele>1880.5999755859</ele>
        <time>2026-08-21T10:08:29.000Z</time>
      </trkpt>
      <trkpt lat="45.25195" lon="6.04164">
        <ele>1881</ele>
        <time>2026-08-21T10:08:30.000Z</time>
      </trkpt>
      <trkpt lat="45.25194" lon="6.04162">
        <ele>1881.4000244141</ele>
        <time>2026-08-21T10:08:31.000Z</time>
      </trkpt>
      <trkpt lat="45.25193" lon="6.0416">
        <ele>1882.1999511719</ele>
        <time>2026-08-21T10:08:32.000Z</time>
      </trkpt>
      <trkpt lat="45.25191" lon="6.04159">
        <ele>1883.5999755859</ele>
        <time>2026-08-21T10:08:33.000Z</time>
      </trkpt>
      <trkpt lat="45.2519" lon="6.04157">
        <ele>1884.5999755859</ele>
        <time>2026-08-21T10:08:34.000Z</time>
      </trkpt>
      <trkpt lat="45.25188" lon="6.04155">
        <ele>1885</ele>
        <time>2026-08-21T10:08:35.000Z</time>
      </trkpt>
      <trkpt lat="45.25187" lon="6.04154">
        <ele>1885.5999755859</ele>
        <time>2026-08-21T10:08:36.000Z</time>
      </trkpt>
      <trkpt lat="45.25186" lon="6.04152">
        <ele>1886</ele>
        <time>2026-08-21T10:08:37.000Z</time>
      </trkpt>
      <trkpt lat="45.25185" lon="6.04149">
        <ele>1886.4000244141</ele>
        <time>2026-08-21T10:08:38.000Z</time>
      </trkpt>
      <trkpt lat="45.25184" lon="6.04148">
        <ele>1887</ele>
        <time>2026-08-21T10:08:39.000Z</time>
      </trkpt>
      <trkpt lat="45.25184" lon="6.04146">
        <ele>1887.4000244141</ele>
        <time>2026-08-21T10:08:40.000Z</time>
      </trkpt>
      <trkpt lat="45.25182" lon="6.04143">
        <ele>1887.5999755859</ele>
        <time>2026-08-21T10:08:41.000Z</time>
      </trkpt>
      <trkpt lat="45.25181" lon="6.04141">
        <ele>1888.1999511719</ele>
        <time>2026-08-21T10:08:42.000Z</time>
      </trkpt>
      <trkpt lat="45.2518" lon="6.04139">
        <ele>1888.8000488281</ele>
        <time>2026-08-21T10:08:43.000Z</time>
      </trkpt>
      <trkpt lat="45.25179" lon="6.04138">
        <ele>1888.8000488281</ele>
        <time>2026-08-21T10:08:44.000Z</time>
      </trkpt>
      <trkpt lat="45.25178" lon="6.04136">
        <ele>1888.8000488281</ele>
        <time>2026-08-21T10:08:45.000Z</time>
      </trkpt>
      <trkpt lat="45.25176" lon="6.04135">
        <ele>1888.5999755859</ele>
        <time>2026-08-21T10:08:46.000Z</time>
      </trkpt>
      <trkpt lat="45.25175" lon="6.04133">
        <ele>1888.5999755859</ele>
        <time>2026-08-21T10:08:47.000Z</time>
      </trkpt>
      <trkpt lat="45.25174" lon="6.04132">
        <ele>1885.1999511719</ele>
        <time>2026-08-21T10:08:48.000Z</time>
      </trkpt>
      <trkpt lat="45.25173" lon="6.04131">
        <ele>1884.4000244141</ele>
        <time>2026-08-21T10:08:49.000Z</time>
      </trkpt>
      <trkpt lat="45.25172" lon="6.04129">
        <ele>1884.1999511719</ele>
        <time>2026-08-21T10:08:50.000Z</time>
      </trkpt>
      <trkpt lat="45.25171" lon="6.04127">
        <ele>1884</ele>
        <time>2026-08-21T10:08:51.000Z</time>
      </trkpt>
      <trkpt lat="45.2517" lon="6.04126">
        <ele>1883.8000488281</ele>
        <time>2026-08-21T10:08:52.000Z</time>
      </trkpt>
      <trkpt lat="45.25169" lon="6.04125">
        <ele>1883.4000244141</ele>
        <time>2026-08-21T10:08:53.000Z</time>
      </trkpt>
      <trkpt lat="45.25168" lon="6.04124">
        <ele>1883.1999511719</ele>
        <time>2026-08-21T10:08:54.000Z</time>
      </trkpt>
      <trkpt lat="45.25167" lon="6.04124">
        <ele>1883.4000244141</ele>
        <time>2026-08-21T10:08:55.000Z</time>
      </trkpt>
      <trkpt lat="45.25167" lon="6.04123">
        <ele>1883.5999755859</ele>
        <time>2026-08-21T10:08:56.000Z</time>
      </trkpt>
      <trkpt lat="45.25165" lon="6.04122">
        <ele>1884.1999511719</ele>
        <time>2026-08-21T10:08:57.000Z</time>
      </trkpt>
      <trkpt lat="45.25164" lon="6.04121">
        <ele>1884.4000244141</ele>
        <time>2026-08-21T10:08:58.000Z</time>
      </trkpt>
      <trkpt lat="45.25163" lon="6.0412">
        <ele>1885</ele>
        <time>2026-08-21T10:08:59.000Z</time>
      </trkpt>
      <trkpt lat="45.25162" lon="6.0412">
        <ele>1885.4000244141</ele>
        <time>2026-08-21T10:09:00.000Z</time>
      </trkpt>
      <trkpt lat="45.25161" lon="6.04119">
        <ele>1885.5999755859</ele>
        <time>2026-08-21T10:09:01.000Z</time>
      </trkpt>
      <trkpt lat="45.2516" lon="6.04118">
        <ele>1886</ele>
        <time>2026-08-21T10:09:02.000Z</time>
      </trkpt>
      <trkpt lat="45.25159" lon="6.04117">
        <ele>1886.4000244141</ele>
        <time>2026-08-21T10:09:03.000Z</time>
      </trkpt>
      <trkpt lat="45.25158" lon="6.04117">
        <ele>1886.4000244141</ele>
        <time>2026-08-21T10:09:04.000Z</time>
      </trkpt>
      <trkpt lat="45.25157" lon="6.04116">
        <ele>1886.8000488281</ele>
        <time>2026-08-21T10:09:05.000Z</time>
      </trkpt>
      <trkpt lat="45.25156" lon="6.04115">
        <ele>1887.1999511719</ele>
        <time>2026-08-21T10:09:06.000Z</time>
      </trkpt>
      <trkpt lat="45.25155" lon="6.04113">
        <ele>1887.5999755859</ele>
        <time>2026-08-21T10:09:07.000Z</time>
      </trkpt>
      <trkpt lat="45.25155" lon="6.04111">
        <ele>1888</ele>
        <time>2026-08-21T10:09:08.000Z</time>
      </trkpt>
      <trkpt lat="45.25155" lon="6.04109">
        <ele>1888.1999511719</ele>
        <time>2026-08-21T10:09:09.000Z</time>
      </trkpt>
      <trkpt lat="45.25156" lon="6.04107">
        <ele>1888.4000244141</ele>
        <time>2026-08-21T10:09:10.000Z</time>
      </trkpt>
      <trkpt lat="45.25158" lon="6.04106">
        <ele>1888.5999755859</ele>
        <time>2026-08-21T10:09:11.000Z</time>
      </trkpt>
      <trkpt lat="45.2516" lon="6.04105">
        <ele>1888.5999755859</ele>
        <time>2026-08-21T10:09:12.000Z</time>
      </trkpt>
      <trkpt lat="45.25161" lon="6.04105">
        <ele>1888.8000488281</ele>
        <time>2026-08-21T10:09:13.000Z</time>
      </trkpt>
      <trkpt lat="45.25163" lon="6.04104">
        <ele>1889.1999511719</ele>
        <time>2026-08-21T10:09:14.000Z</time>
      </trkpt>
      <trkpt lat="45.25165" lon="6.04104">
        <ele>1889.5999755859</ele>
        <time>2026-08-21T10:09:15.000Z</time>
      </trkpt>
      <trkpt lat="45.25166" lon="6.04103">
        <ele>1890</ele>
        <time>2026-08-21T10:09:16.000Z</time>
      </trkpt>
      <trkpt lat="45.25167" lon="6.04101">
        <ele>1889.4000244141</ele>
        <time>2026-08-21T10:09:17.000Z</time>
      </trkpt>
      <trkpt lat="45.25168" lon="6.041">
        <ele>1888.1999511719</ele>
        <time>2026-08-21T10:09:18.000Z</time>
      </trkpt>
      <trkpt lat="45.25169" lon="6.041">
        <ele>1888.1999511719</ele>
        <time>2026-08-21T10:09:19.000Z</time>
      </trkpt>
      <trkpt lat="45.2517" lon="6.04099">
        <ele>1888</ele>
        <time>2026-08-21T10:09:20.000Z</time>
      </trkpt>
      <trkpt lat="45.25171" lon="6.04098">
        <ele>1887.8000488281</ele>
        <time>2026-08-21T10:09:21.000Z</time>
      </trkpt>
      <trkpt lat="45.25173" lon="6.04096">
        <ele>1887.5999755859</ele>
        <time>2026-08-21T10:09:22.000Z</time>
      </trkpt>
      <trkpt lat="45.25174" lon="6.04094">
        <ele>1887.4000244141</ele>
        <time>2026-08-21T10:09:23.000Z</time>
      </trkpt>
      <trkpt lat="45.25175" lon="6.04093">
        <ele>1887.5999755859</ele>
        <time>2026-08-21T10:09:24.000Z</time>
      </trkpt>
      <trkpt lat="45.25177" lon="6.0409">
        <ele>1887.4000244141</ele>
        <time>2026-08-21T10:09:25.000Z</time>
      </trkpt>
      <trkpt lat="45.25178" lon="6.04089">
        <ele>1887.1999511719</ele>
        <time>2026-08-21T10:09:26.000Z</time>
      </trkpt>
      <trkpt lat="45.2518" lon="6.04087">
        <ele>1887.1999511719</ele>
        <time>2026-08-21T10:09:27.000Z</time>
      </trkpt>
      <trkpt lat="45.25181" lon="6.04086">
        <ele>1887</ele>
        <time>2026-08-21T10:09:28.000Z</time>
      </trkpt>
      <trkpt lat="45.25184" lon="6.04086">
        <ele>1886.8000488281</ele>
        <time>2026-08-21T10:09:29.000Z</time>
      </trkpt>
      <trkpt lat="45.25185" lon="6.04085">
        <ele>1886.8000488281</ele>
        <time>2026-08-21T10:09:30.000Z</time>
      </trkpt>
      <trkpt lat="45.25188" lon="6.04085">
        <ele>1886.5999755859</ele>
        <time>2026-08-21T10:09:31.000Z</time>
      </trkpt>
      <trkpt lat="45.2519" lon="6.04085">
        <ele>1886.8000488281</ele>
        <time>2026-08-21T10:09:32.000Z</time>
      </trkpt>
      <trkpt lat="45.25192" lon="6.04086">
        <ele>1886.8000488281</ele>
        <time>2026-08-21T10:09:33.000Z</time>
      </trkpt>
      <trkpt lat="45.25194" lon="6.04087">
        <ele>1887.4000244141</ele>
        <time>2026-08-21T10:09:34.000Z</time>
      </trkpt>
      <trkpt lat="45.25195" lon="6.04088">
        <ele>1887.8000488281</ele>
        <time>2026-08-21T10:09:35.000Z</time>
      </trkpt>
      <trkpt lat="45.25197" lon="6.04089">
        <ele>1887.8000488281</ele>
        <time>2026-08-21T10:09:36.000Z</time>
      </trkpt>
      <trkpt lat="45.25199" lon="6.04091">
        <ele>1887.8000488281</ele>
        <time>2026-08-21T10:09:37.000Z</time>
      </trkpt>
      <trkpt lat="45.25201" lon="6.04091">
        <ele>1888</ele>
        <time>2026-08-21T10:09:38.000Z</time>
      </trkpt>
      <trkpt lat="45.25203" lon="6.04092">
        <ele>1887.8000488281</ele>
        <time>2026-08-21T10:09:39.000Z</time>
      </trkpt>
      <trkpt lat="45.25205" lon="6.04093">
        <ele>1887.8000488281</ele>
        <time>2026-08-21T10:09:40.000Z</time>
      </trkpt>
      <trkpt lat="45.25206" lon="6.04093">
        <ele>1887.5999755859</ele>
        <time>2026-08-21T10:09:41.000Z</time>
      </trkpt>
      <trkpt lat="45.25208" lon="6.04092">
        <ele>1887.1999511719</ele>
        <time>2026-08-21T10:09:42.000Z</time>
      </trkpt>
      <trkpt lat="45.2521" lon="6.04092">
        <ele>1887</ele>
        <time>2026-08-21T10:09:43.000Z</time>
      </trkpt>
      <trkpt lat="45.25211" lon="6.04092">
        <ele>1887</ele>
        <time>2026-08-21T10:09:44.000Z</time>
      </trkpt>
      <trkpt lat="45.25213" lon="6.04092">
        <ele>1886.8000488281</ele>
        <time>2026-08-21T10:09:45.000Z</time>
      </trkpt>
      <trkpt lat="45.25215" lon="6.04091">
        <ele>1887</ele>
        <time>2026-08-21T10:09:46.000Z</time>
      </trkpt>
      <trkpt lat="45.25216" lon="6.04089">
        <ele>1887.5999755859</ele>
        <time>2026-08-21T10:09:47.000Z</time>
      </trkpt>
      <trkpt lat="45.25217" lon="6.04088">
        <ele>1888.4000244141</ele>
        <time>2026-08-21T10:09:48.000Z</time>
      </trkpt>
      <trkpt lat="45.25219" lon="6.04087">
        <ele>1888.8000488281</ele>
        <time>2026-08-21T10:09:49.000Z</time>
      </trkpt>
      <trkpt lat="45.2522" lon="6.04088">
        <ele>1888.8000488281</ele>
        <time>2026-08-21T10:09:50.000Z</time>
      </trkpt>
      <trkpt lat="45.25221" lon="6.0409">
        <ele>1889</ele>
        <time>2026-08-21T10:09:51.000Z</time>
      </trkpt>
      <trkpt lat="45.25223" lon="6.04091">
        <ele>1889</ele>
        <time>2026-08-21T10:09:52.000Z</time>
      </trkpt>
      <trkpt lat="45.25224" lon="6.04091">
        <ele>1889.1999511719</ele>
        <time>2026-08-21T10:09:53.000Z</time>
      </trkpt>
      <trkpt lat="45.25224" lon="6.04092">
        <ele>1889.1999511719</ele>
        <time>2026-08-21T10:09:54.000Z</time>
      </trkpt>
      <trkpt lat="45.25225" lon="6.04093">
        <ele>1889.1999511719</ele>
        <time>2026-08-21T10:09:55.000Z</time>
      </trkpt>
      <trkpt lat="45.25226" lon="6.04093">
        <ele>1888.4000244141</ele>
        <time>2026-08-21T10:09:56.000Z</time>
      </trkpt>
      <trkpt lat="45.25227" lon="6.04094">
        <ele>1888</ele>
        <time>2026-08-21T10:09:57.000Z</time>
      </trkpt>
      <trkpt lat="45.25228" lon="6.04094">
        <ele>1887.5999755859</ele>
        <time>2026-08-21T10:09:58.000Z</time>
      </trkpt>
      <trkpt lat="45.25229" lon="6.04095">
        <ele>1887.1999511719</ele>
        <time>2026-08-21T10:09:59.000Z</time>
      </trkpt>
      <trkpt lat="45.2523" lon="6.04095">
        <ele>1886.8000488281</ele>
        <time>2026-08-21T10:10:00.000Z</time>
      </trkpt>
      <trkpt lat="45.2523" lon="6.04096">
        <ele>1886.4000244141</ele>
        <time>2026-08-21T10:10:01.000Z</time>
      </trkpt>
      <trkpt lat="45.25231" lon="6.04097">
        <ele>1886</ele>
        <time>2026-08-21T10:10:02.000Z</time>
      </trkpt>
      <trkpt lat="45.25231" lon="6.04098">
        <ele>1887</ele>
        <time>2026-08-21T10:10:03.000Z</time>
      </trkpt>
      <trkpt lat="45.25232" lon="6.041">
        <ele>1887.4000244141</ele>
        <time>2026-08-21T10:10:04.000Z</time>
      </trkpt>
      <trkpt lat="45.25232" lon="6.04102">
        <ele>1887.5999755859</ele>
        <time>2026-08-21T10:10:05.000Z</time>
      </trkpt>
      <trkpt lat="45.25233" lon="6.04103">
        <ele>1888.1999511719</ele>
        <time>2026-08-21T10:10:06.000Z</time>
      </trkpt>
      <trkpt lat="45.25234" lon="6.04104">
        <ele>1888.8000488281</ele>
        <time>2026-08-21T10:10:07.000Z</time>
      </trkpt>
      <trkpt lat="45.25235" lon="6.04105">
        <ele>1890.5999755859</ele>
        <time>2026-08-21T10:10:08.000Z</time>
      </trkpt>
      <trkpt lat="45.25235" lon="6.04106">
        <ele>1892.5999755859</ele>
        <time>2026-08-21T10:10:09.000Z</time>
      </trkpt>
      <trkpt lat="45.25236" lon="6.04107">
        <ele>1893.4000244141</ele>
        <time>2026-08-21T10:10:10.000Z</time>
      </trkpt>
      <trkpt lat="45.25237" lon="6.04107">
        <ele>1893.5999755859</ele>
        <time>2026-08-21T10:10:11.000Z</time>
      </trkpt>
      <trkpt lat="45.25239" lon="6.04108">
        <ele>1893.8000488281</ele>
        <time>2026-08-21T10:10:12.000Z</time>
      </trkpt>
      <trkpt lat="45.2524" lon="6.04108">
        <ele>1894.5999755859</ele>
        <time>2026-08-21T10:10:13.000Z</time>
      </trkpt>
      <trkpt lat="45.25242" lon="6.04108">
        <ele>1895.1999511719</ele>
        <time>2026-08-21T10:10:14.000Z</time>
      </trkpt>
      <trkpt lat="45.25243" lon="6.04107">
        <ele>1895</ele>
        <time>2026-08-21T10:10:15.000Z</time>
      </trkpt>
      <trkpt lat="45.25244" lon="6.04108">
        <ele>1895</ele>
        <time>2026-08-21T10:10:16.000Z</time>
      </trkpt>
      <trkpt lat="45.25246" lon="6.04109">
        <ele>1894.8000488281</ele>
        <time>2026-08-21T10:10:17.000Z</time>
      </trkpt>
      <trkpt lat="45.25247" lon="6.0411">
        <ele>1894.8000488281</ele>
        <time>2026-08-21T10:10:18.000Z</time>
      </trkpt>
      <trkpt lat="45.25249" lon="6.04111">
        <ele>1894.1999511719</ele>
        <time>2026-08-21T10:10:19.000Z</time>
      </trkpt>
      <trkpt lat="45.2525" lon="6.04111">
        <ele>1894.1999511719</ele>
        <time>2026-08-21T10:10:20.000Z</time>
      </trkpt>
      <trkpt lat="45.25252" lon="6.04111">
        <ele>1894.5999755859</ele>
        <time>2026-08-21T10:10:21.000Z</time>
      </trkpt>
      <trkpt lat="45.25253" lon="6.04111">
        <ele>1894.5999755859</ele>
        <time>2026-08-21T10:10:22.000Z</time>
      </trkpt>
      <trkpt lat="45.25254" lon="6.0411">
        <ele>1894.8000488281</ele>
        <time>2026-08-21T10:10:23.000Z</time>
      </trkpt>
      <trkpt lat="45.25256" lon="6.0411">
        <ele>1895.1999511719</ele>
        <time>2026-08-21T10:10:24.000Z</time>
      </trkpt>
      <trkpt lat="45.25257" lon="6.04109">
        <ele>1895.4000244141</ele>
        <time>2026-08-21T10:10:25.000Z</time>
      </trkpt>
      <trkpt lat="45.25259" lon="6.04108">
        <ele>1895.4000244141</ele>
        <time>2026-08-21T10:10:26.000Z</time>
      </trkpt>
      <trkpt lat="45.2526" lon="6.04108">
        <ele>1895.5999755859</ele>
        <time>2026-08-21T10:10:27.000Z</time>
      </trkpt>
      <trkpt lat="45.25261" lon="6.04108">
        <ele>1895.8000488281</ele>
        <time>2026-08-21T10:10:28.000Z</time>
      </trkpt>
      <trkpt lat="45.25263" lon="6.04107">
        <ele>1896.1999511719</ele>
        <time>2026-08-21T10:10:29.000Z</time>
      </trkpt>
      <trkpt lat="45.25264" lon="6.04107">
        <ele>1896.4000244141</ele>
        <time>2026-08-21T10:10:30.000Z</time>
      </trkpt>
      <trkpt lat="45.25265" lon="6.04108">
        <ele>1896.5999755859</ele>
        <time>2026-08-21T10:10:31.000Z</time>
      </trkpt>
      <trkpt lat="45.25266" lon="6.0411">
        <ele>1896.8000488281</ele>
        <time>2026-08-21T10:10:32.000Z</time>
      </trkpt>
      <trkpt lat="45.25267" lon="6.0411">
        <ele>1897</ele>
        <time>2026-08-21T10:10:33.000Z</time>
      </trkpt>
      <trkpt lat="45.25269" lon="6.04111">
        <ele>1897.5999755859</ele>
        <time>2026-08-21T10:10:34.000Z</time>
      </trkpt>
      <trkpt lat="45.2527" lon="6.04112">
        <ele>1898.1999511719</ele>
        <time>2026-08-21T10:10:35.000Z</time>
      </trkpt>
      <trkpt lat="45.25271" lon="6.04114">
        <ele>1898</ele>
        <time>2026-08-21T10:10:36.000Z</time>
      </trkpt>
      <trkpt lat="45.25272" lon="6.04116">
        <ele>1897.8000488281</ele>
        <time>2026-08-21T10:10:37.000Z</time>
      </trkpt>
      <trkpt lat="45.25274" lon="6.04117">
        <ele>1897.4000244141</ele>
        <time>2026-08-21T10:10:38.000Z</time>
      </trkpt>
      <trkpt lat="45.25276" lon="6.04118">
        <ele>1897.1999511719</ele>
        <time>2026-08-21T10:10:39.000Z</time>
      </trkpt>
      <trkpt lat="45.25277" lon="6.0412">
        <ele>1897</ele>
        <time>2026-08-21T10:10:40.000Z</time>
      </trkpt>
      <trkpt lat="45.25278" lon="6.04122">
        <ele>1897</ele>
        <time>2026-08-21T10:10:41.000Z</time>
      </trkpt>
      <trkpt lat="45.25279" lon="6.04124">
        <ele>1897</ele>
        <time>2026-08-21T10:10:42.000Z</time>
      </trkpt>
      <trkpt lat="45.2528" lon="6.04125">
        <ele>1897</ele>
        <time>2026-08-21T10:10:43.000Z</time>
      </trkpt>
      <trkpt lat="45.25281" lon="6.04126">
        <ele>1897.4000244141</ele>
        <time>2026-08-21T10:10:44.000Z</time>
      </trkpt>
      <trkpt lat="45.25282" lon="6.04126">
        <ele>1898</ele>
        <time>2026-08-21T10:10:45.000Z</time>
      </trkpt>
      <trkpt lat="45.25283" lon="6.04127">
        <ele>1898.4000244141</ele>
        <time>2026-08-21T10:10:46.000Z</time>
      </trkpt>
      <trkpt lat="45.25283" lon="6.04127">
        <ele>1898.5999755859</ele>
        <time>2026-08-21T10:10:47.000Z</time>
      </trkpt>
      <trkpt lat="45.25284" lon="6.04127">
        <ele>1898.8000488281</ele>
        <time>2026-08-21T10:10:48.000Z</time>
      </trkpt>
      <trkpt lat="45.25285" lon="6.04128">
        <ele>1899</ele>
        <time>2026-08-21T10:10:49.000Z</time>
      </trkpt>
      <trkpt lat="45.25286" lon="6.0413">
        <ele>1899.1999511719</ele>
        <time>2026-08-21T10:10:50.000Z</time>
      </trkpt>
      <trkpt lat="45.25287" lon="6.04131">
        <ele>1899</ele>
        <time>2026-08-21T10:10:51.000Z</time>
      </trkpt>
      <trkpt lat="45.25288" lon="6.04132">
        <ele>1898.4000244141</ele>
        <time>2026-08-21T10:10:52.000Z</time>
      </trkpt>
      <trkpt lat="45.25289" lon="6.04133">
        <ele>1898</ele>
        <time>2026-08-21T10:10:53.000Z</time>
      </trkpt>
      <trkpt lat="45.2529" lon="6.04134">
        <ele>1897.8000488281</ele>
        <time>2026-08-21T10:10:54.000Z</time>
      </trkpt>
      <trkpt lat="45.2529" lon="6.04135">
        <ele>1897.5999755859</ele>
        <time>2026-08-21T10:10:55.000Z</time>
      </trkpt>
      <trkpt lat="45.25291" lon="6.04135">
        <ele>1897.4000244141</ele>
        <time>2026-08-21T10:10:56.000Z</time>
      </trkpt>
      <trkpt lat="45.25291" lon="6.04136">
        <ele>1897.4000244141</ele>
        <time>2026-08-21T10:10:57.000Z</time>
      </trkpt>
      <trkpt lat="45.25292" lon="6.04137">
        <ele>1897.1999511719</ele>
        <time>2026-08-21T10:10:58.000Z</time>
      </trkpt>
      <trkpt lat="45.25293" lon="6.04138">
        <ele>1897.1999511719</ele>
        <time>2026-08-21T10:10:59.000Z</time>
      </trkpt>
      <trkpt lat="45.25295" lon="6.04138">
        <ele>1897.1999511719</ele>
        <time>2026-08-21T10:11:00.000Z</time>
      </trkpt>
      <trkpt lat="45.25296" lon="6.04138">
        <ele>1897.1999511719</ele>
        <time>2026-08-21T10:11:01.000Z</time>
      </trkpt>
      <trkpt lat="45.25296" lon="6.04137">
        <ele>1897.4000244141</ele>
        <time>2026-08-21T10:11:02.000Z</time>
      </trkpt>
      <trkpt lat="45.25297" lon="6.04138">
        <ele>1897.8000488281</ele>
        <time>2026-08-21T10:11:03.000Z</time>
      </trkpt>
      <trkpt lat="45.25298" lon="6.04138">
        <ele>1898.1999511719</ele>
        <time>2026-08-21T10:11:04.000Z</time>
      </trkpt>
      <trkpt lat="45.25299" lon="6.04139">
        <ele>1898.4000244141</ele>
        <time>2026-08-21T10:11:05.000Z</time>
      </trkpt>
      <trkpt lat="45.253" lon="6.04139">
        <ele>1898.5999755859</ele>
        <time>2026-08-21T10:11:06.000Z</time>
      </trkpt>
      <trkpt lat="45.25301" lon="6.0414">
        <ele>1898.8000488281</ele>
        <time>2026-08-21T10:11:07.000Z</time>
      </trkpt>
      <trkpt lat="45.25302" lon="6.0414">
        <ele>1899.5999755859</ele>
        <time>2026-08-21T10:11:08.000Z</time>
      </trkpt>
      <trkpt lat="45.25303" lon="6.0414">
        <ele>1900</ele>
        <time>2026-08-21T10:11:09.000Z</time>
      </trkpt>
      <trkpt lat="45.25305" lon="6.0414">
        <ele>1900.1999511719</ele>
        <time>2026-08-21T10:11:10.000Z</time>
      </trkpt>
      <trkpt lat="45.25306" lon="6.0414">
        <ele>1901.1999511719</ele>
        <time>2026-08-21T10:11:11.000Z</time>
      </trkpt>
      <trkpt lat="45.25308" lon="6.0414">
        <ele>1902.1999511719</ele>
        <time>2026-08-21T10:11:12.000Z</time>
      </trkpt>
      <trkpt lat="45.25311" lon="6.04141">
        <ele>1903.8000488281</ele>
        <time>2026-08-21T10:11:13.000Z</time>
      </trkpt>
      <trkpt lat="45.25312" lon="6.04141">
        <ele>1904.5999755859</ele>
        <time>2026-08-21T10:11:14.000Z</time>
      </trkpt>
      <trkpt lat="45.25314" lon="6.04141">
        <ele>1905.1999511719</ele>
        <time>2026-08-21T10:11:15.000Z</time>
      </trkpt>
      <trkpt lat="45.25316" lon="6.04142">
        <ele>1906</ele>
        <time>2026-08-21T10:11:16.000Z</time>
      </trkpt>
      <trkpt lat="45.25317" lon="6.04144">
        <ele>1906.1999511719</ele>
        <time>2026-08-21T10:11:17.000Z</time>
      </trkpt>
      <trkpt lat="45.25318" lon="6.04144">
        <ele>1906.8000488281</ele>
        <time>2026-08-21T10:11:18.000Z</time>
      </trkpt>
      <trkpt lat="45.2532" lon="6.04145">
        <ele>1907.4000244141</ele>
        <time>2026-08-21T10:11:19.000Z</time>
      </trkpt>
      <trkpt lat="45.25322" lon="6.04146">
        <ele>1907.4000244141</ele>
        <time>2026-08-21T10:11:20.000Z</time>
      </trkpt>
      <trkpt lat="45.25324" lon="6.04147">
        <ele>1907.5999755859</ele>
        <time>2026-08-21T10:11:21.000Z</time>
      </trkpt>
      <trkpt lat="45.25326" lon="6.04147">
        <ele>1907.5999755859</ele>
        <time>2026-08-21T10:11:22.000Z</time>
      </trkpt>
      <trkpt lat="45.25328" lon="6.04146">
        <ele>1906.4000244141</ele>
        <time>2026-08-21T10:11:23.000Z</time>
      </trkpt>
      <trkpt lat="45.25329" lon="6.04146">
        <ele>1904.4000244141</ele>
        <time>2026-08-21T10:11:24.000Z</time>
      </trkpt>
      <trkpt lat="45.2533" lon="6.04146">
        <ele>1903</ele>
        <time>2026-08-21T10:11:25.000Z</time>
      </trkpt>
      <trkpt lat="45.25331" lon="6.04145">
        <ele>1902.8000488281</ele>
        <time>2026-08-21T10:11:26.000Z</time>
      </trkpt>
      <trkpt lat="45.25332" lon="6.04144">
        <ele>1902.1999511719</ele>
        <time>2026-08-21T10:11:27.000Z</time>
      </trkpt>
      <trkpt lat="45.25332" lon="6.04143">
        <ele>1901.5999755859</ele>
        <time>2026-08-21T10:11:28.000Z</time>
      </trkpt>
      <trkpt lat="45.25332" lon="6.04142">
        <ele>1901</ele>
        <time>2026-08-21T10:11:29.000Z</time>
      </trkpt>
      <trkpt lat="45.25332" lon="6.04141">
        <ele>1900.4000244141</ele>
        <time>2026-08-21T10:11:30.000Z</time>
      </trkpt>
      <trkpt lat="45.25332" lon="6.04139">
        <ele>1897.8000488281</ele>
        <time>2026-08-21T10:11:31.000Z</time>
      </trkpt>
      <trkpt lat="45.25332" lon="6.04139">
        <ele>1896.5999755859</ele>
        <time>2026-08-21T10:11:32.000Z</time>
      </trkpt>
      <trkpt lat="45.25333" lon="6.04139">
        <ele>1896.1999511719</ele>
        <time>2026-08-21T10:11:33.000Z</time>
      </trkpt>
      <trkpt lat="45.25334" lon="6.04138">
        <ele>1895.5999755859</ele>
        <time>2026-08-21T10:11:34.000Z</time>
      </trkpt>
      <trkpt lat="45.25333" lon="6.04137">
        <ele>1894.4000244141</ele>
        <time>2026-08-21T10:11:35.000Z</time>
      </trkpt>
      <trkpt lat="45.25333" lon="6.04137">
        <ele>1893.5999755859</ele>
        <time>2026-08-21T10:11:36.000Z</time>
      </trkpt>
      <trkpt lat="45.25333" lon="6.04136">
        <ele>1893</ele>
        <time>2026-08-21T10:11:37.000Z</time>
      </trkpt>
      <trkpt lat="45.25333" lon="6.04136">
        <ele>1892.1999511719</ele>
        <time>2026-08-21T10:11:38.000Z</time>
      </trkpt>
      <trkpt lat="45.25334" lon="6.04135">
        <ele>1891.4000244141</ele>
        <time>2026-08-21T10:11:39.000Z</time>
      </trkpt>
      <trkpt lat="45.25335" lon="6.04136">
        <ele>1890.4000244141</ele>
        <time>2026-08-21T10:11:40.000Z</time>
      </trkpt>
      <trkpt lat="45.25335" lon="6.04136">
        <ele>1889.4000244141</ele>
        <time>2026-08-21T10:11:41.000Z</time>
      </trkpt>
      <trkpt lat="45.25336" lon="6.04136">
        <ele>1888.4000244141</ele>
        <time>2026-08-21T10:11:42.000Z</time>
      </trkpt>
      <trkpt lat="45.25336" lon="6.04137">
        <ele>1888</ele>
        <time>2026-08-21T10:11:43.000Z</time>
      </trkpt>
      <trkpt lat="45.25337" lon="6.04138">
        <ele>1887.5999755859</ele>
        <time>2026-08-21T10:11:44.000Z</time>
      </trkpt>
      <trkpt lat="45.25338" lon="6.04138">
        <ele>1887</ele>
        <time>2026-08-21T10:11:45.000Z</time>
      </trkpt>
      <trkpt lat="45.25338" lon="6.04138">
        <ele>1886.5999755859</ele>
        <time>2026-08-21T10:11:46.000Z</time>
      </trkpt>
      <trkpt lat="45.2534" lon="6.04138">
        <ele>1886.4000244141</ele>
        <time>2026-08-21T10:11:47.000Z</time>
      </trkpt>
      <trkpt lat="45.25341" lon="6.04138">
        <ele>1886</ele>
        <time>2026-08-21T10:11:48.000Z</time>
      </trkpt>
      <trkpt lat="45.25342" lon="6.04138">
        <ele>1885.5999755859</ele>
        <time>2026-08-21T10:11:49.000Z</time>
      </trkpt>
      <trkpt lat="45.25344" lon="6.04139">
        <ele>1886</ele>
        <time>2026-08-21T10:11:50.000Z</time>
      </trkpt>
      <trkpt lat="45.25346" lon="6.0414">
        <ele>1886.1999511719</ele>
        <time>2026-08-21T10:11:51.000Z</time>
      </trkpt>
      <trkpt lat="45.25348" lon="6.0414">
        <ele>1888</ele>
        <time>2026-08-21T10:11:52.000Z</time>
      </trkpt>
      <trkpt lat="45.2535" lon="6.0414">
        <ele>1888.8000488281</ele>
        <time>2026-08-21T10:11:53.000Z</time>
      </trkpt>
      <trkpt lat="45.25352" lon="6.04141">
        <ele>1889.1999511719</ele>
        <time>2026-08-21T10:11:54.000Z</time>
      </trkpt>
      <trkpt lat="45.25354" lon="6.04142">
        <ele>1889.8000488281</ele>
        <time>2026-08-21T10:11:55.000Z</time>
      </trkpt>
      <trkpt lat="45.25355" lon="6.04143">
        <ele>1889.5999755859</ele>
        <time>2026-08-21T10:11:56.000Z</time>
      </trkpt>
      <trkpt lat="45.25358" lon="6.04144">
        <ele>1889.5999755859</ele>
        <time>2026-08-21T10:11:57.000Z</time>
      </trkpt>
      <trkpt lat="45.25359" lon="6.04145">
        <ele>1889.4000244141</ele>
        <time>2026-08-21T10:11:58.000Z</time>
      </trkpt>
      <trkpt lat="45.25361" lon="6.04146">
        <ele>1889.4000244141</ele>
        <time>2026-08-21T10:11:59.000Z</time>
      </trkpt>
      <trkpt lat="45.25364" lon="6.04147">
        <ele>1889.1999511719</ele>
        <time>2026-08-21T10:12:00.000Z</time>
      </trkpt>
      <trkpt lat="45.25366" lon="6.04148">
        <ele>1888.8000488281</ele>
        <time>2026-08-21T10:12:01.000Z</time>
      </trkpt>
      <trkpt lat="45.25369" lon="6.04149">
        <ele>1888.1999511719</ele>
        <time>2026-08-21T10:12:02.000Z</time>
      </trkpt>
      <trkpt lat="45.25371" lon="6.0415">
        <ele>1888.1999511719</ele>
        <time>2026-08-21T10:12:03.000Z</time>
      </trkpt>
      <trkpt lat="45.25373" lon="6.04151">
        <ele>1888</ele>
        <time>2026-08-21T10:12:04.000Z</time>
      </trkpt>
      <trkpt lat="45.25376" lon="6.04152">
        <ele>1887.5999755859</ele>
        <time>2026-08-21T10:12:05.000Z</time>
      </trkpt>
      <trkpt lat="45.25379" lon="6.04153">
        <ele>1887.5999755859</ele>
        <time>2026-08-21T10:12:06.000Z</time>
      </trkpt>
      <trkpt lat="45.25382" lon="6.04154">
        <ele>1887.8000488281</ele>
        <time>2026-08-21T10:12:07.000Z</time>
      </trkpt>
      <trkpt lat="45.25384" lon="6.04155">
        <ele>1888.5999755859</ele>
        <time>2026-08-21T10:12:08.000Z</time>
      </trkpt>
      <trkpt lat="45.25386" lon="6.04154">
        <ele>1889.4000244141</ele>
        <time>2026-08-21T10:12:09.000Z</time>
      </trkpt>
      <trkpt lat="45.25388" lon="6.04155">
        <ele>1889.5999755859</ele>
        <time>2026-08-21T10:12:10.000Z</time>
      </trkpt>
      <trkpt lat="45.25389" lon="6.04157">
        <ele>1889.8000488281</ele>
        <time>2026-08-21T10:12:11.000Z</time>
      </trkpt>
      <trkpt lat="45.25391" lon="6.04159">
        <ele>1890</ele>
        <time>2026-08-21T10:12:12.000Z</time>
      </trkpt>
      <trkpt lat="45.25392" lon="6.0416">
        <ele>1889.8000488281</ele>
        <time>2026-08-21T10:12:13.000Z</time>
      </trkpt>
      <trkpt lat="45.25394" lon="6.04161">
        <ele>1889.5999755859</ele>
        <time>2026-08-21T10:12:14.000Z</time>
      </trkpt>
      <trkpt lat="45.25395" lon="6.04163">
        <ele>1889.1999511719</ele>
        <time>2026-08-21T10:12:15.000Z</time>
      </trkpt>
      <trkpt lat="45.25396" lon="6.04165">
        <ele>1888.5999755859</ele>
        <time>2026-08-21T10:12:16.000Z</time>
      </trkpt>
      <trkpt lat="45.25397" lon="6.04167">
        <ele>1888.1999511719</ele>
        <time>2026-08-21T10:12:17.000Z</time>
      </trkpt>
      <trkpt lat="45.25399" lon="6.04169">
        <ele>1887.5999755859</ele>
        <time>2026-08-21T10:12:18.000Z</time>
      </trkpt>
      <trkpt lat="45.25401" lon="6.0417">
        <ele>1886.5999755859</ele>
        <time>2026-08-21T10:12:19.000Z</time>
      </trkpt>
      <trkpt lat="45.25403" lon="6.04172">
        <ele>1886.4000244141</ele>
        <time>2026-08-21T10:12:20.000Z</time>
      </trkpt>
      <trkpt lat="45.25404" lon="6.04174">
        <ele>1886.1999511719</ele>
        <time>2026-08-21T10:12:21.000Z</time>
      </trkpt>
      <trkpt lat="45.25406" lon="6.04176">
        <ele>1885.5999755859</ele>
        <time>2026-08-21T10:12:22.000Z</time>
      </trkpt>
      <trkpt lat="45.25407" lon="6.04177">
        <ele>1885.4000244141</ele>
        <time>2026-08-21T10:12:23.000Z</time>
      </trkpt>
      <trkpt lat="45.25409" lon="6.04179">
        <ele>1885.1999511719</ele>
        <time>2026-08-21T10:12:24.000Z</time>
      </trkpt>
      <trkpt lat="45.2541" lon="6.0418">
        <ele>1885.1999511719</ele>
        <time>2026-08-21T10:12:25.000Z</time>
      </trkpt>
      <trkpt lat="45.25412" lon="6.0418">
        <ele>1885.1999511719</ele>
        <time>2026-08-21T10:12:26.000Z</time>
      </trkpt>
      <trkpt lat="45.25413" lon="6.04181">
        <ele>1885</ele>
        <time>2026-08-21T10:12:27.000Z</time>
      </trkpt>
      <trkpt lat="45.25414" lon="6.04184">
        <ele>1885</ele>
        <time>2026-08-21T10:12:28.000Z</time>
      </trkpt>
      <trkpt lat="45.25416" lon="6.04186">
        <ele>1884.8000488281</ele>
        <time>2026-08-21T10:12:29.000Z</time>
      </trkpt>
      <trkpt lat="45.25417" lon="6.04187">
        <ele>1884.8000488281</ele>
        <time>2026-08-21T10:12:30.000Z</time>
      </trkpt>
      <trkpt lat="45.25419" lon="6.04188">
        <ele>1884.8000488281</ele>
        <time>2026-08-21T10:12:31.000Z</time>
      </trkpt>
      <trkpt lat="45.25421" lon="6.04188">
        <ele>1885</ele>
        <time>2026-08-21T10:12:32.000Z</time>
      </trkpt>
      <trkpt lat="45.25423" lon="6.04188">
        <ele>1886</ele>
        <time>2026-08-21T10:12:33.000Z</time>
      </trkpt>
      <trkpt lat="45.25426" lon="6.04188">
        <ele>1886.1999511719</ele>
        <time>2026-08-21T10:12:34.000Z</time>
      </trkpt>
      <trkpt lat="45.25428" lon="6.04188">
        <ele>1887</ele>
        <time>2026-08-21T10:12:35.000Z</time>
      </trkpt>
      <trkpt lat="45.25429" lon="6.04188">
        <ele>1887.4000244141</ele>
        <time>2026-08-21T10:12:36.000Z</time>
      </trkpt>
      <trkpt lat="45.25431" lon="6.04188">
        <ele>1888</ele>
        <time>2026-08-21T10:12:37.000Z</time>
      </trkpt>
      <trkpt lat="45.25432" lon="6.04188">
        <ele>1888.4000244141</ele>
        <time>2026-08-21T10:12:38.000Z</time>
      </trkpt>
      <trkpt lat="45.25434" lon="6.0419">
        <ele>1888.8000488281</ele>
        <time>2026-08-21T10:12:39.000Z</time>
      </trkpt>
      <trkpt lat="45.25434" lon="6.04191">
        <ele>1889</ele>
        <time>2026-08-21T10:12:40.000Z</time>
      </trkpt>
      <trkpt lat="45.25436" lon="6.04191">
        <ele>1889.4000244141</ele>
        <time>2026-08-21T10:12:41.000Z</time>
      </trkpt>
      <trkpt lat="45.25437" lon="6.04192">
        <ele>1889.1999511719</ele>
        <time>2026-08-21T10:12:42.000Z</time>
      </trkpt>
      <trkpt lat="45.25438" lon="6.04193">
        <ele>1889.1999511719</ele>
        <time>2026-08-21T10:12:43.000Z</time>
      </trkpt>
      <trkpt lat="45.25439" lon="6.04193">
        <ele>1889</ele>
        <time>2026-08-21T10:12:44.000Z</time>
      </trkpt>
      <trkpt lat="45.25441" lon="6.04194">
        <ele>1888.4000244141</ele>
        <time>2026-08-21T10:12:45.000Z</time>
      </trkpt>
      <trkpt lat="45.25442" lon="6.04194">
        <ele>1887.5999755859</ele>
        <time>2026-08-21T10:12:46.000Z</time>
      </trkpt>
      <trkpt lat="45.25444" lon="6.04195">
        <ele>1886.8000488281</ele>
        <time>2026-08-21T10:12:47.000Z</time>
      </trkpt>
      <trkpt lat="45.25446" lon="6.04194">
        <ele>1886</ele>
        <time>2026-08-21T10:12:48.000Z</time>
      </trkpt>
      <trkpt lat="45.25448" lon="6.04193">
        <ele>1885.8000488281</ele>
        <time>2026-08-21T10:12:49.000Z</time>
      </trkpt>
      <trkpt lat="45.2545" lon="6.04194">
        <ele>1884.8000488281</ele>
        <time>2026-08-21T10:12:50.000Z</time>
      </trkpt>
      <trkpt lat="45.25453" lon="6.04194">
        <ele>1884.8000488281</ele>
        <time>2026-08-21T10:12:51.000Z</time>
      </trkpt>
      <trkpt lat="45.25455" lon="6.04194">
        <ele>1885.1999511719</ele>
        <time>2026-08-21T10:12:52.000Z</time>
      </trkpt>
      <trkpt lat="45.25457" lon="6.04195">
        <ele>1885.1999511719</ele>
        <time>2026-08-21T10:12:53.000Z</time>
      </trkpt>
      <trkpt lat="45.25458" lon="6.04195">
        <ele>1885.4000244141</ele>
        <time>2026-08-21T10:12:54.000Z</time>
      </trkpt>
      <trkpt lat="45.25459" lon="6.04195">
        <ele>1885</ele>
        <time>2026-08-21T10:12:55.000Z</time>
      </trkpt>
      <trkpt lat="45.2546" lon="6.04196">
        <ele>1884.5999755859</ele>
        <time>2026-08-21T10:12:56.000Z</time>
      </trkpt>
      <trkpt lat="45.25461" lon="6.04196">
        <ele>1884.1999511719</ele>
        <time>2026-08-21T10:12:57.000Z</time>
      </trkpt>
      <trkpt lat="45.25462" lon="6.04197">
        <ele>1883.1999511719</ele>
        <time>2026-08-21T10:12:58.000Z</time>
      </trkpt>
      <trkpt lat="45.25463" lon="6.04198">
        <ele>1882.1999511719</ele>
        <time>2026-08-21T10:12:59.000Z</time>
      </trkpt>
      <trkpt lat="45.25464" lon="6.04199">
        <ele>1881.4000244141</ele>
        <time>2026-08-21T10:13:00.000Z</time>
      </trkpt>
      <trkpt lat="45.25465" lon="6.042">
        <ele>1880.4000244141</ele>
        <time>2026-08-21T10:13:01.000Z</time>
      </trkpt>
      <trkpt lat="45.25466" lon="6.04202">
        <ele>1879.4000244141</ele>
        <time>2026-08-21T10:13:02.000Z</time>
      </trkpt>
      <trkpt lat="45.25467" lon="6.04206">
        <ele>1877.8000488281</ele>
        <time>2026-08-21T10:13:03.000Z</time>
      </trkpt>
      <trkpt lat="45.25469" lon="6.04208">
        <ele>1877.4000244141</ele>
        <time>2026-08-21T10:13:04.000Z</time>
      </trkpt>
      <trkpt lat="45.2547" lon="6.04209">
        <ele>1877.5999755859</ele>
        <time>2026-08-21T10:13:05.000Z</time>
      </trkpt>
      <trkpt lat="45.25472" lon="6.04211">
        <ele>1877.5999755859</ele>
        <time>2026-08-21T10:13:06.000Z</time>
      </trkpt>
      <trkpt lat="45.25473" lon="6.04212">
        <ele>1877.4000244141</ele>
        <time>2026-08-21T10:13:07.000Z</time>
      </trkpt>
      <trkpt lat="45.25474" lon="6.04213">
        <ele>1877.1999511719</ele>
        <time>2026-08-21T10:13:08.000Z</time>
      </trkpt>
      <trkpt lat="45.25475" lon="6.04215">
        <ele>1877</ele>
        <time>2026-08-21T10:13:09.000Z</time>
      </trkpt>
      <trkpt lat="45.25476" lon="6.04217">
        <ele>1876.8000488281</ele>
        <time>2026-08-21T10:13:10.000Z</time>
      </trkpt>
      <trkpt lat="45.25477" lon="6.04219">
        <ele>1876.4000244141</ele>
        <time>2026-08-21T10:13:11.000Z</time>
      </trkpt>
      <trkpt lat="45.25478" lon="6.0422">
        <ele>1876.1999511719</ele>
        <time>2026-08-21T10:13:12.000Z</time>
      </trkpt>
      <trkpt lat="45.2548" lon="6.04221">
        <ele>1876.4000244141</ele>
        <time>2026-08-21T10:13:13.000Z</time>
      </trkpt>
      <trkpt lat="45.25481" lon="6.04223">
        <ele>1876.4000244141</ele>
        <time>2026-08-21T10:13:14.000Z</time>
      </trkpt>
      <trkpt lat="45.25483" lon="6.04224">
        <ele>1876.4000244141</ele>
        <time>2026-08-21T10:13:15.000Z</time>
      </trkpt>
      <trkpt lat="45.25484" lon="6.04225">
        <ele>1876.5999755859</ele>
        <time>2026-08-21T10:13:16.000Z</time>
      </trkpt>
      <trkpt lat="45.25485" lon="6.04227">
        <ele>1877.1999511719</ele>
        <time>2026-08-21T10:13:17.000Z</time>
      </trkpt>
      <trkpt lat="45.25487" lon="6.0423">
        <ele>1877.5999755859</ele>
        <time>2026-08-21T10:13:18.000Z</time>
      </trkpt>
      <trkpt lat="45.25489" lon="6.04233">
        <ele>1877.5999755859</ele>
        <time>2026-08-21T10:13:19.000Z</time>
      </trkpt>
      <trkpt lat="45.25491" lon="6.04236">
        <ele>1877.8000488281</ele>
        <time>2026-08-21T10:13:20.000Z</time>
      </trkpt>
      <trkpt lat="45.25493" lon="6.04237">
        <ele>1877.8000488281</ele>
        <time>2026-08-21T10:13:21.000Z</time>
      </trkpt>
      <trkpt lat="45.25495" lon="6.04238">
        <ele>1877.8000488281</ele>
        <time>2026-08-21T10:13:22.000Z</time>
      </trkpt>
      <trkpt lat="45.25497" lon="6.04238">
        <ele>1877</ele>
        <time>2026-08-21T10:13:23.000Z</time>
      </trkpt>
      <trkpt lat="45.25498" lon="6.04238">
        <ele>1876.4000244141</ele>
        <time>2026-08-21T10:13:24.000Z</time>
      </trkpt>
      <trkpt lat="45.255" lon="6.04239">
        <ele>1876.4000244141</ele>
        <time>2026-08-21T10:13:25.000Z</time>
      </trkpt>
      <trkpt lat="45.25501" lon="6.04239">
        <ele>1876.1999511719</ele>
        <time>2026-08-21T10:13:26.000Z</time>
      </trkpt>
      <trkpt lat="45.25502" lon="6.0424">
        <ele>1876.1999511719</ele>
        <time>2026-08-21T10:13:27.000Z</time>
      </trkpt>
      <trkpt lat="45.25503" lon="6.04241">
        <ele>1876.1999511719</ele>
        <time>2026-08-21T10:13:28.000Z</time>
      </trkpt>
      <trkpt lat="45.25504" lon="6.04241">
        <ele>1876</ele>
        <time>2026-08-21T10:13:29.000Z</time>
      </trkpt>
      <trkpt lat="45.25506" lon="6.04241">
        <ele>1875.1999511719</ele>
        <time>2026-08-21T10:13:30.000Z</time>
      </trkpt>
      <trkpt lat="45.25507" lon="6.04241">
        <ele>1874.1999511719</ele>
        <time>2026-08-21T10:13:31.000Z</time>
      </trkpt>
      <trkpt lat="45.25509" lon="6.04241">
        <ele>1873.8000488281</ele>
        <time>2026-08-21T10:13:32.000Z</time>
      </trkpt>
      <trkpt lat="45.25511" lon="6.04241">
        <ele>1873.5999755859</ele>
        <time>2026-08-21T10:13:33.000Z</time>
      </trkpt>
      <trkpt lat="45.25512" lon="6.04239">
        <ele>1873.1999511719</ele>
        <time>2026-08-21T10:13:34.000Z</time>
      </trkpt>
      <trkpt lat="45.25514" lon="6.04238">
        <ele>1872.5999755859</ele>
        <time>2026-08-21T10:13:35.000Z</time>
      </trkpt>
      <trkpt lat="45.25516" lon="6.04237">
        <ele>1872.1999511719</ele>
        <time>2026-08-21T10:13:36.000Z</time>
      </trkpt>
      <trkpt lat="45.25518" lon="6.04237">
        <ele>1871.5999755859</ele>
        <time>2026-08-21T10:13:37.000Z</time>
      </trkpt>
      <trkpt lat="45.2552" lon="6.04237">
        <ele>1871.8000488281</ele>
        <time>2026-08-21T10:13:38.000Z</time>
      </trkpt>
      <trkpt lat="45.25523" lon="6.04238">
        <ele>1872</ele>
        <time>2026-08-21T10:13:39.000Z</time>
      </trkpt>
      <trkpt lat="45.25525" lon="6.04238">
        <ele>1872.1999511719</ele>
        <time>2026-08-21T10:13:40.000Z</time>
      </trkpt>
      <trkpt lat="45.25527" lon="6.04237">
        <ele>1872.1999511719</ele>
        <time>2026-08-21T10:13:41.000Z</time>
      </trkpt>
      <trkpt lat="45.25528" lon="6.04238">
        <ele>1872.4000244141</ele>
        <time>2026-08-21T10:13:42.000Z</time>
      </trkpt>
      <trkpt lat="45.2553" lon="6.04239">
        <ele>1872.1999511719</ele>
        <time>2026-08-21T10:13:43.000Z</time>
      </trkpt>
      <trkpt lat="45.25531" lon="6.04239">
        <ele>1872.1999511719</ele>
        <time>2026-08-21T10:13:44.000Z</time>
      </trkpt>
      <trkpt lat="45.25533" lon="6.04239">
        <ele>1872</ele>
        <time>2026-08-21T10:13:45.000Z</time>
      </trkpt>
      <trkpt lat="45.25535" lon="6.04239">
        <ele>1871.5999755859</ele>
        <time>2026-08-21T10:13:46.000Z</time>
      </trkpt>
      <trkpt lat="45.25537" lon="6.0424">
        <ele>1871.1999511719</ele>
        <time>2026-08-21T10:13:47.000Z</time>
      </trkpt>
      <trkpt lat="45.25539" lon="6.04239">
        <ele>1870.4000244141</ele>
        <time>2026-08-21T10:13:48.000Z</time>
      </trkpt>
      <trkpt lat="45.25541" lon="6.0424">
        <ele>1869.8000488281</ele>
        <time>2026-08-21T10:13:49.000Z</time>
      </trkpt>
      <trkpt lat="45.25543" lon="6.0424">
        <ele>1869.5999755859</ele>
        <time>2026-08-21T10:13:50.000Z</time>
      </trkpt>
      <trkpt lat="45.25546" lon="6.04241">
        <ele>1869.5999755859</ele>
        <time>2026-08-21T10:13:51.000Z</time>
      </trkpt>
      <trkpt lat="45.25549" lon="6.04241">
        <ele>1869.4000244141</ele>
        <time>2026-08-21T10:13:52.000Z</time>
      </trkpt>
      <trkpt lat="45.25551" lon="6.04241">
        <ele>1869</ele>
        <time>2026-08-21T10:13:53.000Z</time>
      </trkpt>
      <trkpt lat="45.25554" lon="6.04241">
        <ele>1868.5999755859</ele>
        <time>2026-08-21T10:13:54.000Z</time>
      </trkpt>
      <trkpt lat="45.25557" lon="6.04241">
        <ele>1868.5999755859</ele>
        <time>2026-08-21T10:13:55.000Z</time>
      </trkpt>
      <trkpt lat="45.2556" lon="6.04241">
        <ele>1868.8000488281</ele>
        <time>2026-08-21T10:13:56.000Z</time>
      </trkpt>
      <trkpt lat="45.25562" lon="6.04243">
        <ele>1868.8000488281</ele>
        <time>2026-08-21T10:13:57.000Z</time>
      </trkpt>
      <trkpt lat="45.25565" lon="6.04244">
        <ele>1868.8000488281</ele>
        <time>2026-08-21T10:13:58.000Z</time>
      </trkpt>
      <trkpt lat="45.25568" lon="6.04245">
        <ele>1868.5999755859</ele>
        <time>2026-08-21T10:13:59.000Z</time>
      </trkpt>
      <trkpt lat="45.2557" lon="6.04247">
        <ele>1868.5999755859</ele>
        <time>2026-08-21T10:14:00.000Z</time>
      </trkpt>
      <trkpt lat="45.25572" lon="6.04248">
        <ele>1867.4000244141</ele>
        <time>2026-08-21T10:14:01.000Z</time>
      </trkpt>
      <trkpt lat="45.25574" lon="6.0425">
        <ele>1866.5999755859</ele>
        <time>2026-08-21T10:14:02.000Z</time>
      </trkpt>
      <trkpt lat="45.25577" lon="6.04251">
        <ele>1866.5999755859</ele>
        <time>2026-08-21T10:14:03.000Z</time>
      </trkpt>
      <trkpt lat="45.2558" lon="6.04251">
        <ele>1866.8000488281</ele>
        <time>2026-08-21T10:14:04.000Z</time>
      </trkpt>
      <trkpt lat="45.25583" lon="6.04253">
        <ele>1867</ele>
        <time>2026-08-21T10:14:05.000Z</time>
      </trkpt>
      <trkpt lat="45.25585" lon="6.04253">
        <ele>1867</ele>
        <time>2026-08-21T10:14:06.000Z</time>
      </trkpt>
      <trkpt lat="45.25588" lon="6.04253">
        <ele>1867.1999511719</ele>
        <time>2026-08-21T10:14:07.000Z</time>
      </trkpt>
      <trkpt lat="45.2559" lon="6.04255">
        <ele>1867.4000244141</ele>
        <time>2026-08-21T10:14:08.000Z</time>
      </trkpt>
      <trkpt lat="45.25593" lon="6.04256">
        <ele>1867.8000488281</ele>
        <time>2026-08-21T10:14:09.000Z</time>
      </trkpt>
      <trkpt lat="45.25595" lon="6.04256">
        <ele>1868</ele>
        <time>2026-08-21T10:14:10.000Z</time>
      </trkpt>
      <trkpt lat="45.25598" lon="6.04257">
        <ele>1868</ele>
        <time>2026-08-21T10:14:11.000Z</time>
      </trkpt>
      <trkpt lat="45.256" lon="6.04258">
        <ele>1868.1999511719</ele>
        <time>2026-08-21T10:14:12.000Z</time>
      </trkpt>
      <trkpt lat="45.25603" lon="6.04259">
        <ele>1868.8000488281</ele>
        <time>2026-08-21T10:14:13.000Z</time>
      </trkpt>
      <trkpt lat="45.25605" lon="6.0426">
        <ele>1868.8000488281</ele>
        <time>2026-08-21T10:14:14.000Z</time>
      </trkpt>
      <trkpt lat="45.25608" lon="6.0426">
        <ele>1870</ele>
        <time>2026-08-21T10:14:15.000Z</time>
      </trkpt>
      <trkpt lat="45.2561" lon="6.04261">
        <ele>1870.1999511719</ele>
        <time>2026-08-21T10:14:16.000Z</time>
      </trkpt>
      <trkpt lat="45.25613" lon="6.04262">
        <ele>1870.4000244141</ele>
        <time>2026-08-21T10:14:17.000Z</time>
      </trkpt>
      <trkpt lat="45.25615" lon="6.04262">
        <ele>1869.8000488281</ele>
        <time>2026-08-21T10:14:18.000Z</time>
      </trkpt>
      <trkpt lat="45.25618" lon="6.04263">
        <ele>1869.1999511719</ele>
        <time>2026-08-21T10:14:19.000Z</time>
      </trkpt>
      <trkpt lat="45.2562" lon="6.04264">
        <ele>1868.5999755859</ele>
        <time>2026-08-21T10:14:20.000Z</time>
      </trkpt>
      <trkpt lat="45.25623" lon="6.04265">
        <ele>1868.1999511719</ele>
        <time>2026-08-21T10:14:21.000Z</time>
      </trkpt>
      <trkpt lat="45.25626" lon="6.04266">
        <ele>1867.5999755859</ele>
        <time>2026-08-21T10:14:22.000Z</time>
      </trkpt>
      <trkpt lat="45.25628" lon="6.04267">
        <ele>1867</ele>
        <time>2026-08-21T10:14:23.000Z</time>
      </trkpt>
      <trkpt lat="45.25631" lon="6.04269">
        <ele>1865.5999755859</ele>
        <time>2026-08-21T10:14:24.000Z</time>
      </trkpt>
      <trkpt lat="45.25633" lon="6.04271">
        <ele>1865.5999755859</ele>
        <time>2026-08-21T10:14:25.000Z</time>
      </trkpt>
      <trkpt lat="45.25636" lon="6.04273">
        <ele>1865.5999755859</ele>
        <time>2026-08-21T10:14:26.000Z</time>
      </trkpt>
      <trkpt lat="45.25638" lon="6.04274">
        <ele>1865.4000244141</ele>
        <time>2026-08-21T10:14:27.000Z</time>
      </trkpt>
      <trkpt lat="45.25639" lon="6.04277">
        <ele>1865.1999511719</ele>
        <time>2026-08-21T10:14:28.000Z</time>
      </trkpt>
      <trkpt lat="45.25641" lon="6.0428">
        <ele>1865</ele>
        <time>2026-08-21T10:14:29.000Z</time>
      </trkpt>
      <trkpt lat="45.25643" lon="6.04281">
        <ele>1864.5999755859</ele>
        <time>2026-08-21T10:14:30.000Z</time>
      </trkpt>
      <trkpt lat="45.25645" lon="6.04282">
        <ele>1864.5999755859</ele>
        <time>2026-08-21T10:14:31.000Z</time>
      </trkpt>
      <trkpt lat="45.25648" lon="6.04283">
        <ele>1864.4000244141</ele>
        <time>2026-08-21T10:14:32.000Z</time>
      </trkpt>
      <trkpt lat="45.2565" lon="6.04282">
        <ele>1864.1999511719</ele>
        <time>2026-08-21T10:14:33.000Z</time>
      </trkpt>
      <trkpt lat="45.25652" lon="6.0428">
        <ele>1864.1999511719</ele>
        <time>2026-08-21T10:14:34.000Z</time>
      </trkpt>
      <trkpt lat="45.25655" lon="6.0428">
        <ele>1864.1999511719</ele>
        <time>2026-08-21T10:14:35.000Z</time>
      </trkpt>
      <trkpt lat="45.25657" lon="6.04281">
        <ele>1864</ele>
        <time>2026-08-21T10:14:36.000Z</time>
      </trkpt>
      <trkpt lat="45.2566" lon="6.04282">
        <ele>1864</ele>
        <time>2026-08-21T10:14:37.000Z</time>
      </trkpt>
      <trkpt lat="45.25663" lon="6.04283">
        <ele>1864</ele>
        <time>2026-08-21T10:14:38.000Z</time>
      </trkpt>
      <trkpt lat="45.25665" lon="6.04283">
        <ele>1864</ele>
        <time>2026-08-21T10:14:39.000Z</time>
      </trkpt>
      <trkpt lat="45.25668" lon="6.04283">
        <ele>1864.5999755859</ele>
        <time>2026-08-21T10:14:40.000Z</time>
      </trkpt>
      <trkpt lat="45.2567" lon="6.04284">
        <ele>1864.8000488281</ele>
        <time>2026-08-21T10:14:41.000Z</time>
      </trkpt>
      <trkpt lat="45.25673" lon="6.04284">
        <ele>1865.1999511719</ele>
        <time>2026-08-21T10:14:42.000Z</time>
      </trkpt>
      <trkpt lat="45.25675" lon="6.04283">
        <ele>1865.4000244141</ele>
        <time>2026-08-21T10:14:43.000Z</time>
      </trkpt>
      <trkpt lat="45.25677" lon="6.04281">
        <ele>1866.1999511719</ele>
        <time>2026-08-21T10:14:44.000Z</time>
      </trkpt>
      <trkpt lat="45.25679" lon="6.04278">
        <ele>1867.1999511719</ele>
        <time>2026-08-21T10:14:45.000Z</time>
      </trkpt>
      <trkpt lat="45.25681" lon="6.04276">
        <ele>1867</ele>
        <time>2026-08-21T10:14:46.000Z</time>
      </trkpt>
      <trkpt lat="45.25683" lon="6.04272">
        <ele>1866.8000488281</ele>
        <time>2026-08-21T10:14:47.000Z</time>
      </trkpt>
      <trkpt lat="45.25685" lon="6.04269">
        <ele>1866.4000244141</ele>
        <time>2026-08-21T10:14:48.000Z</time>
      </trkpt>
      <trkpt lat="45.25686" lon="6.04266">
        <ele>1866.1999511719</ele>
        <time>2026-08-21T10:14:49.000Z</time>
      </trkpt>
      <trkpt lat="45.25687" lon="6.04263">
        <ele>1866</ele>
        <time>2026-08-21T10:14:50.000Z</time>
      </trkpt>
      <trkpt lat="45.25688" lon="6.0426">
        <ele>1866</ele>
        <time>2026-08-21T10:14:51.000Z</time>
      </trkpt>
      <trkpt lat="45.25691" lon="6.04257">
        <ele>1865.8000488281</ele>
        <time>2026-08-21T10:14:52.000Z</time>
      </trkpt>
      <trkpt lat="45.25693" lon="6.04255">
        <ele>1866.1999511719</ele>
        <time>2026-08-21T10:14:53.000Z</time>
      </trkpt>
      <trkpt lat="45.25695" lon="6.04252">
        <ele>1866.5999755859</ele>
        <time>2026-08-21T10:14:54.000Z</time>
      </trkpt>
      <trkpt lat="45.25697" lon="6.0425">
        <ele>1867</ele>
        <time>2026-08-21T10:14:55.000Z</time>
      </trkpt>
      <trkpt lat="45.25699" lon="6.04247">
        <ele>1867.4000244141</ele>
        <time>2026-08-21T10:14:56.000Z</time>
      </trkpt>
      <trkpt lat="45.25701" lon="6.04245">
        <ele>1867.8000488281</ele>
        <time>2026-08-21T10:14:57.000Z</time>
      </trkpt>
      <trkpt lat="45.25702" lon="6.04242">
        <ele>1867.4000244141</ele>
        <time>2026-08-21T10:14:58.000Z</time>
      </trkpt>
      <trkpt lat="45.25704" lon="6.0424">
        <ele>1867.4000244141</ele>
        <time>2026-08-21T10:14:59.000Z</time>
      </trkpt>
      <trkpt lat="45.25705" lon="6.04238">
        <ele>1867.1999511719</ele>
        <time>2026-08-21T10:15:00.000Z</time>
      </trkpt>
      <trkpt lat="45.25707" lon="6.04236">
        <ele>1867.1999511719</ele>
        <time>2026-08-21T10:15:01.000Z</time>
      </trkpt>
      <trkpt lat="45.25709" lon="6.04234">
        <ele>1867.4000244141</ele>
        <time>2026-08-21T10:15:02.000Z</time>
      </trkpt>
      <trkpt lat="45.25709" lon="6.04232">
        <ele>1867.5999755859</ele>
        <time>2026-08-21T10:15:03.000Z</time>
      </trkpt>
      <trkpt lat="45.2571" lon="6.04229">
        <ele>1867.5999755859</ele>
        <time>2026-08-21T10:15:04.000Z</time>
      </trkpt>
      <trkpt lat="45.2571" lon="6.04226">
        <ele>1867.8000488281</ele>
        <time>2026-08-21T10:15:05.000Z</time>
      </trkpt>
      <trkpt lat="45.25711" lon="6.04223">
        <ele>1868.8000488281</ele>
        <time>2026-08-21T10:15:06.000Z</time>
      </trkpt>
      <trkpt lat="45.25711" lon="6.0422">
        <ele>1868.1999511719</ele>
        <time>2026-08-21T10:15:07.000Z</time>
      </trkpt>
      <trkpt lat="45.25712" lon="6.04218">
        <ele>1867.8000488281</ele>
        <time>2026-08-21T10:15:08.000Z</time>
      </trkpt>
      <trkpt lat="45.25713" lon="6.04216">
        <ele>1867.1999511719</ele>
        <time>2026-08-21T10:15:09.000Z</time>
      </trkpt>
      <trkpt lat="45.25714" lon="6.04214">
        <ele>1865.5999755859</ele>
        <time>2026-08-21T10:15:10.000Z</time>
      </trkpt>
      <trkpt lat="45.25714" lon="6.04211">
        <ele>1863.8000488281</ele>
        <time>2026-08-21T10:15:11.000Z</time>
      </trkpt>
      <trkpt lat="45.25715" lon="6.04208">
        <ele>1862.1999511719</ele>
        <time>2026-08-21T10:15:12.000Z</time>
      </trkpt>
      <trkpt lat="45.25715" lon="6.04205">
        <ele>1861</ele>
        <time>2026-08-21T10:15:13.000Z</time>
      </trkpt>
      <trkpt lat="45.25716" lon="6.04201">
        <ele>1859.8000488281</ele>
        <time>2026-08-21T10:15:14.000Z</time>
      </trkpt>
      <trkpt lat="45.25717" lon="6.04198">
        <ele>1859.4000244141</ele>
        <time>2026-08-21T10:15:15.000Z</time>
      </trkpt>
      <trkpt lat="45.25718" lon="6.04195">
        <ele>1859</ele>
        <time>2026-08-21T10:15:16.000Z</time>
      </trkpt>
      <trkpt lat="45.2572" lon="6.04191">
        <ele>1858.5999755859</ele>
        <time>2026-08-21T10:15:17.000Z</time>
      </trkpt>
      <trkpt lat="45.25721" lon="6.04189">
        <ele>1858</ele>
        <time>2026-08-21T10:15:18.000Z</time>
      </trkpt>
      <trkpt lat="45.25722" lon="6.04185">
        <ele>1857.5999755859</ele>
        <time>2026-08-21T10:15:19.000Z</time>
      </trkpt>
      <trkpt lat="45.25724" lon="6.04184">
        <ele>1857</ele>
        <time>2026-08-21T10:15:20.000Z</time>
      </trkpt>
      <trkpt lat="45.25726" lon="6.04181">
        <ele>1857.4000244141</ele>
        <time>2026-08-21T10:15:21.000Z</time>
      </trkpt>
      <trkpt lat="45.25728" lon="6.04179">
        <ele>1857.5999755859</ele>
        <time>2026-08-21T10:15:22.000Z</time>
      </trkpt>
      <trkpt lat="45.2573" lon="6.04176">
        <ele>1857.5999755859</ele>
        <time>2026-08-21T10:15:23.000Z</time>
      </trkpt>
      <trkpt lat="45.25731" lon="6.04173">
        <ele>1858</ele>
        <time>2026-08-21T10:15:24.000Z</time>
      </trkpt>
      <trkpt lat="45.25733" lon="6.0417">
        <ele>1858.1999511719</ele>
        <time>2026-08-21T10:15:25.000Z</time>
      </trkpt>
      <trkpt lat="45.25735" lon="6.04168">
        <ele>1858.1999511719</ele>
        <time>2026-08-21T10:15:26.000Z</time>
      </trkpt>
      <trkpt lat="45.25736" lon="6.04165">
        <ele>1858.1999511719</ele>
        <time>2026-08-21T10:15:27.000Z</time>
      </trkpt>
      <trkpt lat="45.25739" lon="6.04163">
        <ele>1858.1999511719</ele>
        <time>2026-08-21T10:15:28.000Z</time>
      </trkpt>
      <trkpt lat="45.25741" lon="6.04161">
        <ele>1858.1999511719</ele>
        <time>2026-08-21T10:15:29.000Z</time>
      </trkpt>
      <trkpt lat="45.25744" lon="6.0416">
        <ele>1858</ele>
        <time>2026-08-21T10:15:30.000Z</time>
      </trkpt>
      <trkpt lat="45.25746" lon="6.04158">
        <ele>1859.1999511719</ele>
        <time>2026-08-21T10:15:31.000Z</time>
      </trkpt>
      <trkpt lat="45.25748" lon="6.04157">
        <ele>1859.5999755859</ele>
        <time>2026-08-21T10:15:32.000Z</time>
      </trkpt>
      <trkpt lat="45.2575" lon="6.04156">
        <ele>1860</ele>
        <time>2026-08-21T10:15:33.000Z</time>
      </trkpt>
      <trkpt lat="45.25753" lon="6.04156">
        <ele>1860.4000244141</ele>
        <time>2026-08-21T10:15:34.000Z</time>
      </trkpt>
      <trkpt lat="45.25756" lon="6.04155">
        <ele>1860.8000488281</ele>
        <time>2026-08-21T10:15:35.000Z</time>
      </trkpt>
      <trkpt lat="45.25758" lon="6.04154">
        <ele>1861.1999511719</ele>
        <time>2026-08-21T10:15:36.000Z</time>
      </trkpt>
      <trkpt lat="45.2576" lon="6.04154">
        <ele>1861.1999511719</ele>
        <time>2026-08-21T10:15:37.000Z</time>
      </trkpt>
      <trkpt lat="45.25763" lon="6.04153">
        <ele>1861.1999511719</ele>
        <time>2026-08-21T10:15:38.000Z</time>
      </trkpt>
      <trkpt lat="45.25764" lon="6.04152">
        <ele>1860.1999511719</ele>
        <time>2026-08-21T10:15:39.000Z</time>
      </trkpt>
      <trkpt lat="45.25766" lon="6.04151">
        <ele>1859.4000244141</ele>
        <time>2026-08-21T10:15:40.000Z</time>
      </trkpt>
      <trkpt lat="45.25768" lon="6.04149">
        <ele>1856.4000244141</ele>
        <time>2026-08-21T10:15:41.000Z</time>
      </trkpt>
      <trkpt lat="45.25769" lon="6.04147">
        <ele>1855.5999755859</ele>
        <time>2026-08-21T10:15:42.000Z</time>
      </trkpt>
      <trkpt lat="45.2577" lon="6.04144">
        <ele>1854.5999755859</ele>
        <time>2026-08-21T10:15:43.000Z</time>
      </trkpt>
      <trkpt lat="45.25771" lon="6.04142">
        <ele>1854.1999511719</ele>
        <time>2026-08-21T10:15:44.000Z</time>
      </trkpt>
      <trkpt lat="45.25773" lon="6.0414">
        <ele>1853.8000488281</ele>
        <time>2026-08-21T10:15:45.000Z</time>
      </trkpt>
      <trkpt lat="45.25774" lon="6.04138">
        <ele>1853.4000244141</ele>
        <time>2026-08-21T10:15:46.000Z</time>
      </trkpt>
      <trkpt lat="45.25775" lon="6.04136">
        <ele>1853</ele>
        <time>2026-08-21T10:15:47.000Z</time>
      </trkpt>
      <trkpt lat="45.25776" lon="6.04134">
        <ele>1852.4000244141</ele>
        <time>2026-08-21T10:15:48.000Z</time>
      </trkpt>
      <trkpt lat="45.25778" lon="6.04132">
        <ele>1851</ele>
        <time>2026-08-21T10:15:49.000Z</time>
      </trkpt>
      <trkpt lat="45.25779" lon="6.04131">
        <ele>1850</ele>
        <time>2026-08-21T10:15:50.000Z</time>
      </trkpt>
      <trkpt lat="45.2578" lon="6.04129">
        <ele>1850</ele>
        <time>2026-08-21T10:15:51.000Z</time>
      </trkpt>
      <trkpt lat="45.25781" lon="6.04127">
        <ele>1850</ele>
        <time>2026-08-21T10:15:52.000Z</time>
      </trkpt>
      <trkpt lat="45.25782" lon="6.04125">
        <ele>1849.4000244141</ele>
        <time>2026-08-21T10:15:53.000Z</time>
      </trkpt>
      <trkpt lat="45.25783" lon="6.04123">
        <ele>1848.8000488281</ele>
        <time>2026-08-21T10:15:54.000Z</time>
      </trkpt>
      <trkpt lat="45.25784" lon="6.04122">
        <ele>1849.4000244141</ele>
        <time>2026-08-21T10:15:55.000Z</time>
      </trkpt>
      <trkpt lat="45.25785" lon="6.04121">
        <ele>1850</ele>
        <time>2026-08-21T10:15:56.000Z</time>
      </trkpt>
      <trkpt lat="45.25786" lon="6.04119">
        <ele>1850.1999511719</ele>
        <time>2026-08-21T10:15:57.000Z</time>
      </trkpt>
      <trkpt lat="45.25787" lon="6.04118">
        <ele>1850.1999511719</ele>
        <time>2026-08-21T10:15:58.000Z</time>
      </trkpt>
      <trkpt lat="45.25787" lon="6.04117">
        <ele>1850.4000244141</ele>
        <time>2026-08-21T10:15:59.000Z</time>
      </trkpt>
      <trkpt lat="45.25788" lon="6.04116">
        <ele>1850.5999755859</ele>
        <time>2026-08-21T10:16:00.000Z</time>
      </trkpt>
      <trkpt lat="45.25789" lon="6.04115">
        <ele>1850.5999755859</ele>
        <time>2026-08-21T10:16:01.000Z</time>
      </trkpt>
      <trkpt lat="45.2579" lon="6.04114">
        <ele>1850.4000244141</ele>
        <time>2026-08-21T10:16:02.000Z</time>
      </trkpt>
      <trkpt lat="45.2579" lon="6.04112">
        <ele>1850.4000244141</ele>
        <time>2026-08-21T10:16:03.000Z</time>
      </trkpt>
      <trkpt lat="45.25791" lon="6.04112">
        <ele>1850.4000244141</ele>
        <time>2026-08-21T10:16:04.000Z</time>
      </trkpt>
      <trkpt lat="45.25792" lon="6.04111">
        <ele>1850.4000244141</ele>
        <time>2026-08-21T10:16:05.000Z</time>
      </trkpt>
      <trkpt lat="45.25792" lon="6.0411">
        <ele>1850.1999511719</ele>
        <time>2026-08-21T10:16:06.000Z</time>
      </trkpt>
      <trkpt lat="45.25793" lon="6.04109">
        <ele>1850.5999755859</ele>
        <time>2026-08-21T10:16:07.000Z</time>
      </trkpt>
      <trkpt lat="45.25794" lon="6.04109">
        <ele>1851.1999511719</ele>
        <time>2026-08-21T10:16:08.000Z</time>
      </trkpt>
      <trkpt lat="45.25795" lon="6.04108">
        <ele>1851.8000488281</ele>
        <time>2026-08-21T10:16:09.000Z</time>
      </trkpt>
      <trkpt lat="45.25796" lon="6.04106">
        <ele>1853.1999511719</ele>
        <time>2026-08-21T10:16:10.000Z</time>
      </trkpt>
      <trkpt lat="45.25797" lon="6.04105">
        <ele>1856.5999755859</ele>
        <time>2026-08-21T10:16:11.000Z</time>
      </trkpt>
      <trkpt lat="45.25797" lon="6.04104">
        <ele>1857.5999755859</ele>
        <time>2026-08-21T10:16:12.000Z</time>
      </trkpt>
      <trkpt lat="45.25798" lon="6.04103">
        <ele>1858.5999755859</ele>
        <time>2026-08-21T10:16:13.000Z</time>
      </trkpt>
      <trkpt lat="45.25799" lon="6.04102">
        <ele>1859.1999511719</ele>
        <time>2026-08-21T10:16:14.000Z</time>
      </trkpt>
      <trkpt lat="45.258" lon="6.041">
        <ele>1860.8000488281</ele>
        <time>2026-08-21T10:16:15.000Z</time>
      </trkpt>
      <trkpt lat="45.25801" lon="6.04098">
        <ele>1861</ele>
        <time>2026-08-21T10:16:16.000Z</time>
      </trkpt>
      <trkpt lat="45.25803" lon="6.04098">
        <ele>1862</ele>
        <time>2026-08-21T10:16:17.000Z</time>
      </trkpt>
      <trkpt lat="45.25805" lon="6.04097">
        <ele>1862.8000488281</ele>
        <time>2026-08-21T10:16:18.000Z</time>
      </trkpt>
      <trkpt lat="45.25806" lon="6.04097">
        <ele>1863.8000488281</ele>
        <time>2026-08-21T10:16:19.000Z</time>
      </trkpt>
      <trkpt lat="45.25807" lon="6.04096">
        <ele>1864.5999755859</ele>
        <time>2026-08-21T10:16:20.000Z</time>
      </trkpt>
      <trkpt lat="45.25809" lon="6.04096">
        <ele>1865.5999755859</ele>
        <time>2026-08-21T10:16:21.000Z</time>
      </trkpt>
      <trkpt lat="45.25809" lon="6.04096">
        <ele>1864.1999511719</ele>
        <time>2026-08-21T10:16:22.000Z</time>
      </trkpt>
      <trkpt lat="45.2581" lon="6.04096">
        <ele>1862.1999511719</ele>
        <time>2026-08-21T10:16:23.000Z</time>
      </trkpt>
      <trkpt lat="45.25811" lon="6.04096">
        <ele>1861.5999755859</ele>
        <time>2026-08-21T10:16:24.000Z</time>
      </trkpt>
      <trkpt lat="45.25812" lon="6.04095">
        <ele>1860.8000488281</ele>
        <time>2026-08-21T10:16:25.000Z</time>
      </trkpt>
      <trkpt lat="45.25813" lon="6.04094">
        <ele>1860.5999755859</ele>
        <time>2026-08-21T10:16:26.000Z</time>
      </trkpt>
      <trkpt lat="45.25814" lon="6.04092">
        <ele>1859.8000488281</ele>
        <time>2026-08-21T10:16:27.000Z</time>
      </trkpt>
      <trkpt lat="45.25815" lon="6.04091">
        <ele>1859.5999755859</ele>
        <time>2026-08-21T10:16:28.000Z</time>
      </trkpt>
      <trkpt lat="45.25816" lon="6.04089">
        <ele>1860</ele>
        <time>2026-08-21T10:16:29.000Z</time>
      </trkpt>
      <trkpt lat="45.25816" lon="6.04088">
        <ele>1860.8000488281</ele>
        <time>2026-08-21T10:16:30.000Z</time>
      </trkpt>
      <trkpt lat="45.25817" lon="6.04086">
        <ele>1861.1999511719</ele>
        <time>2026-08-21T10:16:31.000Z</time>
      </trkpt>
      <trkpt lat="45.25818" lon="6.04084">
        <ele>1861.5999755859</ele>
        <time>2026-08-21T10:16:32.000Z</time>
      </trkpt>
      <trkpt lat="45.25818" lon="6.04084">
        <ele>1861.4000244141</ele>
        <time>2026-08-21T10:16:33.000Z</time>
      </trkpt>
      <trkpt lat="45.2582" lon="6.04083">
        <ele>1861.1999511719</ele>
        <time>2026-08-21T10:16:34.000Z</time>
      </trkpt>
      <trkpt lat="45.25821" lon="6.04082">
        <ele>1861.1999511719</ele>
        <time>2026-08-21T10:16:35.000Z</time>
      </trkpt>
      <trkpt lat="45.25821" lon="6.04081">
        <ele>1861</ele>
        <time>2026-08-21T10:16:36.000Z</time>
      </trkpt>
      <trkpt lat="45.25822" lon="6.0408">
        <ele>1861</ele>
        <time>2026-08-21T10:16:37.000Z</time>
      </trkpt>
      <trkpt lat="45.25823" lon="6.04079">
        <ele>1860.8000488281</ele>
        <time>2026-08-21T10:16:38.000Z</time>
      </trkpt>
      <trkpt lat="45.25824" lon="6.04078">
        <ele>1861.1999511719</ele>
        <time>2026-08-21T10:16:39.000Z</time>
      </trkpt>
      <trkpt lat="45.25824" lon="6.04077">
        <ele>1861.5999755859</ele>
        <time>2026-08-21T10:16:40.000Z</time>
      </trkpt>
      <trkpt lat="45.25824" lon="6.04076">
        <ele>1862</ele>
        <time>2026-08-21T10:16:41.000Z</time>
      </trkpt>
      <trkpt lat="45.25825" lon="6.04075">
        <ele>1862.1999511719</ele>
        <time>2026-08-21T10:16:42.000Z</time>
      </trkpt>
      <trkpt lat="45.25826" lon="6.04074">
        <ele>1862.4000244141</ele>
        <time>2026-08-21T10:16:43.000Z</time>
      </trkpt>
      <trkpt lat="45.25827" lon="6.04074">
        <ele>1862.5999755859</ele>
        <time>2026-08-21T10:16:44.000Z</time>
      </trkpt>
      <trkpt lat="45.25828" lon="6.04073">
        <ele>1862.5999755859</ele>
        <time>2026-08-21T10:16:45.000Z</time>
      </trkpt>
      <trkpt lat="45.25828" lon="6.04072">
        <ele>1862.5999755859</ele>
        <time>2026-08-21T10:16:46.000Z</time>
      </trkpt>
      <trkpt lat="45.25829" lon="6.04071">
        <ele>1862.5999755859</ele>
        <time>2026-08-21T10:16:47.000Z</time>
      </trkpt>
      <trkpt lat="45.25831" lon="6.04071">
        <ele>1862.1999511719</ele>
        <time>2026-08-21T10:16:48.000Z</time>
      </trkpt>
      <trkpt lat="45.25831" lon="6.04071">
        <ele>1862</ele>
        <time>2026-08-21T10:16:49.000Z</time>
      </trkpt>
      <trkpt lat="45.25832" lon="6.0407">
        <ele>1861.5999755859</ele>
        <time>2026-08-21T10:16:50.000Z</time>
      </trkpt>
      <trkpt lat="45.25833" lon="6.04069">
        <ele>1861.4000244141</ele>
        <time>2026-08-21T10:16:51.000Z</time>
      </trkpt>
      <trkpt lat="45.25834" lon="6.04067">
        <ele>1861.1999511719</ele>
        <time>2026-08-21T10:16:52.000Z</time>
      </trkpt>
      <trkpt lat="45.25835" lon="6.04067">
        <ele>1860.8000488281</ele>
        <time>2026-08-21T10:16:53.000Z</time>
      </trkpt>
      <trkpt lat="45.25835" lon="6.04067">
        <ele>1861</ele>
        <time>2026-08-21T10:16:54.000Z</time>
      </trkpt>
      <trkpt lat="45.25836" lon="6.04065">
        <ele>1861.8000488281</ele>
        <time>2026-08-21T10:16:55.000Z</time>
      </trkpt>
      <trkpt lat="45.25837" lon="6.04064">
        <ele>1862.1999511719</ele>
        <time>2026-08-21T10:16:56.000Z</time>
      </trkpt>
      <trkpt lat="45.25838" lon="6.04064">
        <ele>1862.4000244141</ele>
        <time>2026-08-21T10:16:57.000Z</time>
      </trkpt>
      <trkpt lat="45.25839" lon="6.04064">
        <ele>1862.8000488281</ele>
        <time>2026-08-21T10:16:58.000Z</time>
      </trkpt>
      <trkpt lat="45.2584" lon="6.04063">
        <ele>1863</ele>
        <time>2026-08-21T10:16:59.000Z</time>
      </trkpt>
      <trkpt lat="45.25841" lon="6.04062">
        <ele>1863</ele>
        <time>2026-08-21T10:17:00.000Z</time>
      </trkpt>
      <trkpt lat="45.25842" lon="6.04061">
        <ele>1863</ele>
        <time>2026-08-21T10:17:01.000Z</time>
      </trkpt>
      <trkpt lat="45.25843" lon="6.0406">
        <ele>1863</ele>
        <time>2026-08-21T10:17:02.000Z</time>
      </trkpt>
      <trkpt lat="45.25844" lon="6.04059">
        <ele>1863</ele>
        <time>2026-08-21T10:17:03.000Z</time>
      </trkpt>
      <trkpt lat="45.25845" lon="6.04058">
        <ele>1863</ele>
        <time>2026-08-21T10:17:04.000Z</time>
      </trkpt>
      <trkpt lat="45.25845" lon="6.04057">
        <ele>1863.1999511719</ele>
        <time>2026-08-21T10:17:05.000Z</time>
      </trkpt>
      <trkpt lat="45.25846" lon="6.04055">
        <ele>1863.4000244141</ele>
        <time>2026-08-21T10:17:06.000Z</time>
      </trkpt>
      <trkpt lat="45.25847" lon="6.04054">
        <ele>1863.8000488281</ele>
        <time>2026-08-21T10:17:07.000Z</time>
      </trkpt>
      <trkpt lat="45.25848" lon="6.04053">
        <ele>1864</ele>
        <time>2026-08-21T10:17:08.000Z</time>
      </trkpt>
      <trkpt lat="45.25849" lon="6.04052">
        <ele>1864.4000244141</ele>
        <time>2026-08-21T10:17:09.000Z</time>
      </trkpt>
      <trkpt lat="45.25849" lon="6.04051">
        <ele>1865</ele>
        <time>2026-08-21T10:17:10.000Z</time>
      </trkpt>
      <trkpt lat="45.25851" lon="6.04049">
        <ele>1865</ele>
        <time>2026-08-21T10:17:11.000Z</time>
      </trkpt>
      <trkpt lat="45.25851" lon="6.04049">
        <ele>1865.4000244141</ele>
        <time>2026-08-21T10:17:12.000Z</time>
      </trkpt>
      <trkpt lat="45.25852" lon="6.04048">
        <ele>1865.5999755859</ele>
        <time>2026-08-21T10:17:13.000Z</time>
      </trkpt>
      <trkpt lat="45.25853" lon="6.04047">
        <ele>1865.5999755859</ele>
        <time>2026-08-21T10:17:14.000Z</time>
      </trkpt>
      <trkpt lat="45.25854" lon="6.04046">
        <ele>1865.1999511719</ele>
        <time>2026-08-21T10:17:15.000Z</time>
      </trkpt>
      <trkpt lat="45.25855" lon="6.04046">
        <ele>1864.5999755859</ele>
        <time>2026-08-21T10:17:16.000Z</time>
      </trkpt>
      <trkpt lat="45.25857" lon="6.04045">
        <ele>1864.4000244141</ele>
        <time>2026-08-21T10:17:17.000Z</time>
      </trkpt>
      <trkpt lat="45.25857" lon="6.04044">
        <ele>1864.1999511719</ele>
        <time>2026-08-21T10:17:18.000Z</time>
      </trkpt>
      <trkpt lat="45.25858" lon="6.04044">
        <ele>1863.8000488281</ele>
        <time>2026-08-21T10:17:19.000Z</time>
      </trkpt>
      <trkpt lat="45.25859" lon="6.04043">
        <ele>1864</ele>
        <time>2026-08-21T10:17:20.000Z</time>
      </trkpt>
      <trkpt lat="45.2586" lon="6.04043">
        <ele>1864.5999755859</ele>
        <time>2026-08-21T10:17:21.000Z</time>
      </trkpt>
      <trkpt lat="45.2586" lon="6.04042">
        <ele>1865.1999511719</ele>
        <time>2026-08-21T10:17:22.000Z</time>
      </trkpt>
      <trkpt lat="45.25861" lon="6.04041">
        <ele>1865.8000488281</ele>
        <time>2026-08-21T10:17:23.000Z</time>
      </trkpt>
      <trkpt lat="45.25861" lon="6.0404">
        <ele>1866.1999511719</ele>
        <time>2026-08-21T10:17:24.000Z</time>
      </trkpt>
      <trkpt lat="45.25862" lon="6.04039">
        <ele>1866.5999755859</ele>
        <time>2026-08-21T10:17:25.000Z</time>
      </trkpt>
      <trkpt lat="45.25863" lon="6.04038">
        <ele>1867</ele>
        <time>2026-08-21T10:17:26.000Z</time>
      </trkpt>
      <trkpt lat="45.25863" lon="6.04037">
        <ele>1867.4000244141</ele>
        <time>2026-08-21T10:17:27.000Z</time>
      </trkpt>
      <trkpt lat="45.25864" lon="6.04036">
        <ele>1868.5999755859</ele>
        <time>2026-08-21T10:17:28.000Z</time>
      </trkpt>
      <trkpt lat="45.25865" lon="6.04034">
        <ele>1869.8000488281</ele>
        <time>2026-08-21T10:17:29.000Z</time>
      </trkpt>
      <trkpt lat="45.25866" lon="6.04033">
        <ele>1869.8000488281</ele>
        <time>2026-08-21T10:17:30.000Z</time>
      </trkpt>
      <trkpt lat="45.25867" lon="6.04031">
        <ele>1869.5999755859</ele>
        <time>2026-08-21T10:17:31.000Z</time>
      </trkpt>
      <trkpt lat="45.25868" lon="6.0403">
        <ele>1869.5999755859</ele>
        <time>2026-08-21T10:17:32.000Z</time>
      </trkpt>
      <trkpt lat="45.25869" lon="6.04028">
        <ele>1869.5999755859</ele>
        <time>2026-08-21T10:17:33.000Z</time>
      </trkpt>
      <trkpt lat="45.2587" lon="6.04027">
        <ele>1869.5999755859</ele>
        <time>2026-08-21T10:17:34.000Z</time>
      </trkpt>
      <trkpt lat="45.25871" lon="6.04026">
        <ele>1869.5999755859</ele>
        <time>2026-08-21T10:17:35.000Z</time>
      </trkpt>
      <trkpt lat="45.25871" lon="6.04025">
        <ele>1869.5999755859</ele>
        <time>2026-08-21T10:17:36.000Z</time>
      </trkpt>
      <trkpt lat="45.25872" lon="6.04024">
        <ele>1870</ele>
        <time>2026-08-21T10:17:37.000Z</time>
      </trkpt>
      <trkpt lat="45.25873" lon="6.04022">
        <ele>1870.4000244141</ele>
        <time>2026-08-21T10:17:38.000Z</time>
      </trkpt>
      <trkpt lat="45.25874" lon="6.0402">
        <ele>1870.5999755859</ele>
        <time>2026-08-21T10:17:39.000Z</time>
      </trkpt>
      <trkpt lat="45.25875" lon="6.04018">
        <ele>1870.8000488281</ele>
        <time>2026-08-21T10:17:40.000Z</time>
      </trkpt>
      <trkpt lat="45.25875" lon="6.04017">
        <ele>1872.1999511719</ele>
        <time>2026-08-21T10:17:41.000Z</time>
      </trkpt>
      <trkpt lat="45.25876" lon="6.04015">
        <ele>1873.5999755859</ele>
        <time>2026-08-21T10:17:42.000Z</time>
      </trkpt>
      <trkpt lat="45.25877" lon="6.04014">
        <ele>1874.1999511719</ele>
        <time>2026-08-21T10:17:43.000Z</time>
      </trkpt>
      <trkpt lat="45.25877" lon="6.04012">
        <ele>1876</ele>
        <time>2026-08-21T10:17:44.000Z</time>
      </trkpt>
      <trkpt lat="45.25878" lon="6.0401">
        <ele>1877.5999755859</ele>
        <time>2026-08-21T10:17:45.000Z</time>
      </trkpt>
      <trkpt lat="45.25879" lon="6.04008">
        <ele>1879.4000244141</ele>
        <time>2026-08-21T10:17:46.000Z</time>
      </trkpt>
      <trkpt lat="45.2588" lon="6.04005">
        <ele>1881</ele>
        <time>2026-08-21T10:17:47.000Z</time>
      </trkpt>
      <trkpt lat="45.25881" lon="6.04002">
        <ele>1882.8000488281</ele>
        <time>2026-08-21T10:17:48.000Z</time>
      </trkpt>
      <trkpt lat="45.25882" lon="6.04001">
        <ele>1883.5999755859</ele>
        <time>2026-08-21T10:17:49.000Z</time>
      </trkpt>
      <trkpt lat="45.25883" lon="6.04">
        <ele>1885</ele>
        <time>2026-08-21T10:17:50.000Z</time>
      </trkpt>
      <trkpt lat="45.25884" lon="6.03998">
        <ele>1885.1999511719</ele>
        <time>2026-08-21T10:17:51.000Z</time>
      </trkpt>
      <trkpt lat="45.25884" lon="6.03995">
        <ele>1885.5999755859</ele>
        <time>2026-08-21T10:17:52.000Z</time>
      </trkpt>
      <trkpt lat="45.25885" lon="6.03993">
        <ele>1886</ele>
        <time>2026-08-21T10:17:53.000Z</time>
      </trkpt>
      <trkpt lat="45.25886" lon="6.03991">
        <ele>1886</ele>
        <time>2026-08-21T10:17:54.000Z</time>
      </trkpt>
      <trkpt lat="45.25887" lon="6.0399">
        <ele>1885.8000488281</ele>
        <time>2026-08-21T10:17:55.000Z</time>
      </trkpt>
      <trkpt lat="45.25888" lon="6.03989">
        <ele>1885.4000244141</ele>
        <time>2026-08-21T10:17:56.000Z</time>
      </trkpt>
      <trkpt lat="45.25888" lon="6.03987">
        <ele>1885</ele>
        <time>2026-08-21T10:17:57.000Z</time>
      </trkpt>
      <trkpt lat="45.25888" lon="6.03986">
        <ele>1884.4000244141</ele>
        <time>2026-08-21T10:17:58.000Z</time>
      </trkpt>
      <trkpt lat="45.25889" lon="6.03984">
        <ele>1884</ele>
        <time>2026-08-21T10:17:59.000Z</time>
      </trkpt>
      <trkpt lat="45.25889" lon="6.03982">
        <ele>1883.8000488281</ele>
        <time>2026-08-21T10:18:00.000Z</time>
      </trkpt>
      <trkpt lat="45.25889" lon="6.0398">
        <ele>1883.5999755859</ele>
        <time>2026-08-21T10:18:01.000Z</time>
      </trkpt>
      <trkpt lat="45.2589" lon="6.03978">
        <ele>1883.1999511719</ele>
        <time>2026-08-21T10:18:02.000Z</time>
      </trkpt>
      <trkpt lat="45.2589" lon="6.03977">
        <ele>1882.8000488281</ele>
        <time>2026-08-21T10:18:03.000Z</time>
      </trkpt>
      <trkpt lat="45.25891" lon="6.03975">
        <ele>1882.4000244141</ele>
        <time>2026-08-21T10:18:04.000Z</time>
      </trkpt>
      <trkpt lat="45.25891" lon="6.03973">
        <ele>1882.4000244141</ele>
        <time>2026-08-21T10:18:05.000Z</time>
      </trkpt>
      <trkpt lat="45.25893" lon="6.03972">
        <ele>1882.1999511719</ele>
        <time>2026-08-21T10:18:06.000Z</time>
      </trkpt>
      <trkpt lat="45.25894" lon="6.0397">
        <ele>1882.1999511719</ele>
        <time>2026-08-21T10:18:07.000Z</time>
      </trkpt>
      <trkpt lat="45.25896" lon="6.03969">
        <ele>1882</ele>
        <time>2026-08-21T10:18:08.000Z</time>
      </trkpt>
      <trkpt lat="45.25898" lon="6.03968">
        <ele>1881</ele>
        <time>2026-08-21T10:18:09.000Z</time>
      </trkpt>
      <trkpt lat="45.259" lon="6.03967">
        <ele>1880.4000244141</ele>
        <time>2026-08-21T10:18:10.000Z</time>
      </trkpt>
      <trkpt lat="45.25901" lon="6.03966">
        <ele>1880</ele>
        <time>2026-08-21T10:18:11.000Z</time>
      </trkpt>
      <trkpt lat="45.25903" lon="6.03966">
        <ele>1879.8000488281</ele>
        <time>2026-08-21T10:18:12.000Z</time>
      </trkpt>
      <trkpt lat="45.25904" lon="6.03966">
        <ele>1879.5999755859</ele>
        <time>2026-08-21T10:18:13.000Z</time>
      </trkpt>
      <trkpt lat="45.25904" lon="6.03966">
        <ele>1879.4000244141</ele>
        <time>2026-08-21T10:18:14.000Z</time>
      </trkpt>
      <trkpt lat="45.25905" lon="6.03966">
        <ele>1879.4000244141</ele>
        <time>2026-08-21T10:18:15.000Z</time>
      </trkpt>
      <trkpt lat="45.25906" lon="6.03967">
        <ele>1879.1999511719</ele>
        <time>2026-08-21T10:18:16.000Z</time>
      </trkpt>
      <trkpt lat="45.25907" lon="6.03966">
        <ele>1879.1999511719</ele>
        <time>2026-08-21T10:18:17.000Z</time>
      </trkpt>
      <trkpt lat="45.25908" lon="6.03965">
        <ele>1879</ele>
        <time>2026-08-21T10:18:18.000Z</time>
      </trkpt>
      <trkpt lat="45.25909" lon="6.03964">
        <ele>1879</ele>
        <time>2026-08-21T10:18:19.000Z</time>
      </trkpt>
      <trkpt lat="45.2591" lon="6.03963">
        <ele>1878.5999755859</ele>
        <time>2026-08-21T10:18:20.000Z</time>
      </trkpt>
      <trkpt lat="45.25911" lon="6.03962">
        <ele>1878.1999511719</ele>
        <time>2026-08-21T10:18:21.000Z</time>
      </trkpt>
      <trkpt lat="45.25912" lon="6.03961">
        <ele>1877.5999755859</ele>
        <time>2026-08-21T10:18:22.000Z</time>
      </trkpt>
      <trkpt lat="45.25912" lon="6.0396">
        <ele>1877.1999511719</ele>
        <time>2026-08-21T10:18:23.000Z</time>
      </trkpt>
      <trkpt lat="45.25912" lon="6.03959">
        <ele>1876.8000488281</ele>
        <time>2026-08-21T10:18:24.000Z</time>
      </trkpt>
      <trkpt lat="45.25912" lon="6.03959">
        <ele>1876.4000244141</ele>
        <time>2026-08-21T10:18:25.000Z</time>
      </trkpt>
      <trkpt lat="45.25913" lon="6.03958">
        <ele>1875.8000488281</ele>
        <time>2026-08-21T10:18:26.000Z</time>
      </trkpt>
      <trkpt lat="45.25913" lon="6.03957">
        <ele>1875.4000244141</ele>
        <time>2026-08-21T10:18:27.000Z</time>
      </trkpt>
      <trkpt lat="45.25914" lon="6.03957">
        <ele>1875</ele>
        <time>2026-08-21T10:18:28.000Z</time>
      </trkpt>
      <trkpt lat="45.25915" lon="6.03957">
        <ele>1874.4000244141</ele>
        <time>2026-08-21T10:18:29.000Z</time>
      </trkpt>
      <trkpt lat="45.25916" lon="6.03956">
        <ele>1874.5999755859</ele>
        <time>2026-08-21T10:18:30.000Z</time>
      </trkpt>
      <trkpt lat="45.25916" lon="6.03956">
        <ele>1875</ele>
        <time>2026-08-21T10:18:31.000Z</time>
      </trkpt>
      <trkpt lat="45.25917" lon="6.03955">
        <ele>1875.8000488281</ele>
        <time>2026-08-21T10:18:32.000Z</time>
      </trkpt>
      <trkpt lat="45.25917" lon="6.03955">
        <ele>1876</ele>
        <time>2026-08-21T10:18:33.000Z</time>
      </trkpt>
      <trkpt lat="45.25918" lon="6.03957">
        <ele>1876</ele>
        <time>2026-08-21T10:18:34.000Z</time>
      </trkpt>
      <trkpt lat="45.25919" lon="6.03958">
        <ele>1876.1999511719</ele>
        <time>2026-08-21T10:18:35.000Z</time>
      </trkpt>
      <trkpt lat="45.2592" lon="6.03959">
        <ele>1876</ele>
        <time>2026-08-21T10:18:36.000Z</time>
      </trkpt>
      <trkpt lat="45.25921" lon="6.0396">
        <ele>1875.5999755859</ele>
        <time>2026-08-21T10:18:37.000Z</time>
      </trkpt>
      <trkpt lat="45.25922" lon="6.03959">
        <ele>1875.4000244141</ele>
        <time>2026-08-21T10:18:38.000Z</time>
      </trkpt>
      <trkpt lat="45.25922" lon="6.03957">
        <ele>1875.4000244141</ele>
        <time>2026-08-21T10:18:39.000Z</time>
      </trkpt>
      <trkpt lat="45.25921" lon="6.03956">
        <ele>1875.4000244141</ele>
        <time>2026-08-21T10:18:40.000Z</time>
      </trkpt>
      <trkpt lat="45.25921" lon="6.03954">
        <ele>1875</ele>
        <time>2026-08-21T10:18:41.000Z</time>
      </trkpt>
      <trkpt lat="45.25921" lon="6.03953">
        <ele>1875</ele>
        <time>2026-08-21T10:18:42.000Z</time>
      </trkpt>
      <trkpt lat="45.25922" lon="6.03951">
        <ele>1875.1999511719</ele>
        <time>2026-08-21T10:18:43.000Z</time>
      </trkpt>
      <trkpt lat="45.25923" lon="6.03949">
        <ele>1875.5999755859</ele>
        <time>2026-08-21T10:18:44.000Z</time>
      </trkpt>
      <trkpt lat="45.25924" lon="6.03947">
        <ele>1876.4000244141</ele>
        <time>2026-08-21T10:18:45.000Z</time>
      </trkpt>
      <trkpt lat="45.25925" lon="6.03945">
        <ele>1877.4000244141</ele>
        <time>2026-08-21T10:18:46.000Z</time>
      </trkpt>
      <trkpt lat="45.25926" lon="6.03942">
        <ele>1877.5999755859</ele>
        <time>2026-08-21T10:18:47.000Z</time>
      </trkpt>
      <trkpt lat="45.25926" lon="6.03941">
        <ele>1878.1999511719</ele>
        <time>2026-08-21T10:18:48.000Z</time>
      </trkpt>
      <trkpt lat="45.25927" lon="6.03939">
        <ele>1878.8000488281</ele>
        <time>2026-08-21T10:18:49.000Z</time>
      </trkpt>
      <trkpt lat="45.25928" lon="6.03937">
        <ele>1879.4000244141</ele>
        <time>2026-08-21T10:18:50.000Z</time>
      </trkpt>
      <trkpt lat="45.25928" lon="6.03935">
        <ele>1880</ele>
        <time>2026-08-21T10:18:51.000Z</time>
      </trkpt>
      <trkpt lat="45.2593" lon="6.03933">
        <ele>1880.5999755859</ele>
        <time>2026-08-21T10:18:52.000Z</time>
      </trkpt>
      <trkpt lat="45.25932" lon="6.03932">
        <ele>1881.1999511719</ele>
        <time>2026-08-21T10:18:53.000Z</time>
      </trkpt>
      <trkpt lat="45.25934" lon="6.03932">
        <ele>1881.8000488281</ele>
        <time>2026-08-21T10:18:54.000Z</time>
      </trkpt>
      <trkpt lat="45.25937" lon="6.03934">
        <ele>1881.8000488281</ele>
        <time>2026-08-21T10:18:55.000Z</time>
      </trkpt>
      <trkpt lat="45.25938" lon="6.03935">
        <ele>1881.4000244141</ele>
        <time>2026-08-21T10:18:56.000Z</time>
      </trkpt>
      <trkpt lat="45.2594" lon="6.03936">
        <ele>1881.1999511719</ele>
        <time>2026-08-21T10:18:57.000Z</time>
      </trkpt>
      <trkpt lat="45.25942" lon="6.03938">
        <ele>1881</ele>
        <time>2026-08-21T10:18:58.000Z</time>
      </trkpt>
      <trkpt lat="45.25943" lon="6.0394">
        <ele>1880.8000488281</ele>
        <time>2026-08-21T10:18:59.000Z</time>
      </trkpt>
      <trkpt lat="45.25945" lon="6.03941">
        <ele>1880.4000244141</ele>
        <time>2026-08-21T10:19:00.000Z</time>
      </trkpt>
      <trkpt lat="45.25947" lon="6.03943">
        <ele>1880.4000244141</ele>
        <time>2026-08-21T10:19:01.000Z</time>
      </trkpt>
      <trkpt lat="45.25948" lon="6.03944">
        <ele>1880.5999755859</ele>
        <time>2026-08-21T10:19:02.000Z</time>
      </trkpt>
      <trkpt lat="45.25949" lon="6.03944">
        <ele>1880.8000488281</ele>
        <time>2026-08-21T10:19:03.000Z</time>
      </trkpt>
      <trkpt lat="45.25951" lon="6.03945">
        <ele>1881</ele>
        <time>2026-08-21T10:19:04.000Z</time>
      </trkpt>
      <trkpt lat="45.25952" lon="6.03946">
        <ele>1881</ele>
        <time>2026-08-21T10:19:05.000Z</time>
      </trkpt>
      <trkpt lat="45.25953" lon="6.03947">
        <ele>1881.1999511719</ele>
        <time>2026-08-21T10:19:06.000Z</time>
      </trkpt>
      <trkpt lat="45.25954" lon="6.03948">
        <ele>1881.5999755859</ele>
        <time>2026-08-21T10:19:07.000Z</time>
      </trkpt>
      <trkpt lat="45.25955" lon="6.0395">
        <ele>1882.4000244141</ele>
        <time>2026-08-21T10:19:08.000Z</time>
      </trkpt>
      <trkpt lat="45.25956" lon="6.03951">
        <ele>1883.4000244141</ele>
        <time>2026-08-21T10:19:09.000Z</time>
      </trkpt>
      <trkpt lat="45.25957" lon="6.03952">
        <ele>1883.5999755859</ele>
        <time>2026-08-21T10:19:10.000Z</time>
      </trkpt>
      <trkpt lat="45.25957" lon="6.03953">
        <ele>1884</ele>
        <time>2026-08-21T10:19:11.000Z</time>
      </trkpt>
      <trkpt lat="45.25958" lon="6.03954">
        <ele>1884.1999511719</ele>
        <time>2026-08-21T10:19:12.000Z</time>
      </trkpt>
      <trkpt lat="45.2596" lon="6.03955">
        <ele>1884.4000244141</ele>
        <time>2026-08-21T10:19:13.000Z</time>
      </trkpt>
      <trkpt lat="45.25961" lon="6.03956">
        <ele>1884.8000488281</ele>
        <time>2026-08-21T10:19:14.000Z</time>
      </trkpt>
      <trkpt lat="45.25961" lon="6.03957">
        <ele>1885</ele>
        <time>2026-08-21T10:19:15.000Z</time>
      </trkpt>
      <trkpt lat="45.25962" lon="6.03958">
        <ele>1885.1999511719</ele>
        <time>2026-08-21T10:19:16.000Z</time>
      </trkpt>
      <trkpt lat="45.25963" lon="6.0396">
        <ele>1885.4000244141</ele>
        <time>2026-08-21T10:19:17.000Z</time>
      </trkpt>
      <trkpt lat="45.25964" lon="6.03961">
        <ele>1885.8000488281</ele>
        <time>2026-08-21T10:19:18.000Z</time>
      </trkpt>
      <trkpt lat="45.25965" lon="6.03963">
        <ele>1886</ele>
        <time>2026-08-21T10:19:19.000Z</time>
      </trkpt>
      <trkpt lat="45.25966" lon="6.03965">
        <ele>1885.1999511719</ele>
        <time>2026-08-21T10:19:20.000Z</time>
      </trkpt>
      <trkpt lat="45.25968" lon="6.03967">
        <ele>1884.5999755859</ele>
        <time>2026-08-21T10:19:21.000Z</time>
      </trkpt>
      <trkpt lat="45.25969" lon="6.03968">
        <ele>1884.1999511719</ele>
        <time>2026-08-21T10:19:22.000Z</time>
      </trkpt>
      <trkpt lat="45.25971" lon="6.0397">
        <ele>1884</ele>
        <time>2026-08-21T10:19:23.000Z</time>
      </trkpt>
      <trkpt lat="45.25972" lon="6.03972">
        <ele>1883.5999755859</ele>
        <time>2026-08-21T10:19:24.000Z</time>
      </trkpt>
      <trkpt lat="45.25973" lon="6.03974">
        <ele>1883.5999755859</ele>
        <time>2026-08-21T10:19:25.000Z</time>
      </trkpt>
      <trkpt lat="45.25974" lon="6.03976">
        <ele>1884</ele>
        <time>2026-08-21T10:19:26.000Z</time>
      </trkpt>
      <trkpt lat="45.25975" lon="6.03978">
        <ele>1884.1999511719</ele>
        <time>2026-08-21T10:19:27.000Z</time>
      </trkpt>
      <trkpt lat="45.25976" lon="6.0398">
        <ele>1884.5999755859</ele>
        <time>2026-08-21T10:19:28.000Z</time>
      </trkpt>
      <trkpt lat="45.25977" lon="6.03981">
        <ele>1885.1999511719</ele>
        <time>2026-08-21T10:19:29.000Z</time>
      </trkpt>
      <trkpt lat="45.25978" lon="6.03983">
        <ele>1885.1999511719</ele>
        <time>2026-08-21T10:19:30.000Z</time>
      </trkpt>
      <trkpt lat="45.25979" lon="6.03985">
        <ele>1885.4000244141</ele>
        <time>2026-08-21T10:19:31.000Z</time>
      </trkpt>
      <trkpt lat="45.2598" lon="6.03987">
        <ele>1885.8000488281</ele>
        <time>2026-08-21T10:19:32.000Z</time>
      </trkpt>
      <trkpt lat="45.25981" lon="6.03989">
        <ele>1886</ele>
        <time>2026-08-21T10:19:33.000Z</time>
      </trkpt>
      <trkpt lat="45.25982" lon="6.03991">
        <ele>1886</ele>
        <time>2026-08-21T10:19:34.000Z</time>
      </trkpt>
      <trkpt lat="45.25983" lon="6.03992">
        <ele>1886.1999511719</ele>
        <time>2026-08-21T10:19:35.000Z</time>
      </trkpt>
      <trkpt lat="45.25984" lon="6.03994">
        <ele>1886.4000244141</ele>
        <time>2026-08-21T10:19:36.000Z</time>
      </trkpt>
      <trkpt lat="45.25985" lon="6.03994">
        <ele>1887</ele>
        <time>2026-08-21T10:19:37.000Z</time>
      </trkpt>
      <trkpt lat="45.25986" lon="6.03995">
        <ele>1887.4000244141</ele>
        <time>2026-08-21T10:19:38.000Z</time>
      </trkpt>
      <trkpt lat="45.25987" lon="6.03996">
        <ele>1887.4000244141</ele>
        <time>2026-08-21T10:19:39.000Z</time>
      </trkpt>
      <trkpt lat="45.25988" lon="6.03997">
        <ele>1887.8000488281</ele>
        <time>2026-08-21T10:19:40.000Z</time>
      </trkpt>
      <trkpt lat="45.25989" lon="6.03998">
        <ele>1888.8000488281</ele>
        <time>2026-08-21T10:19:41.000Z</time>
      </trkpt>
      <trkpt lat="45.2599" lon="6.03999">
        <ele>1889.4000244141</ele>
        <time>2026-08-21T10:19:42.000Z</time>
      </trkpt>
      <trkpt lat="45.25992" lon="6.04">
        <ele>1889.8000488281</ele>
        <time>2026-08-21T10:19:43.000Z</time>
      </trkpt>
      <trkpt lat="45.25993" lon="6.04001">
        <ele>1890.4000244141</ele>
        <time>2026-08-21T10:19:44.000Z</time>
      </trkpt>
      <trkpt lat="45.25994" lon="6.04002">
        <ele>1890.8000488281</ele>
        <time>2026-08-21T10:19:45.000Z</time>
      </trkpt>
      <trkpt lat="45.25995" lon="6.04002">
        <ele>1891.4000244141</ele>
        <time>2026-08-21T10:19:46.000Z</time>
      </trkpt>
      <trkpt lat="45.25996" lon="6.04003">
        <ele>1891.8000488281</ele>
        <time>2026-08-21T10:19:47.000Z</time>
      </trkpt>
      <trkpt lat="45.25997" lon="6.04004">
        <ele>1892</ele>
        <time>2026-08-21T10:19:48.000Z</time>
      </trkpt>
      <trkpt lat="45.25998" lon="6.04005">
        <ele>1892.4000244141</ele>
        <time>2026-08-21T10:19:49.000Z</time>
      </trkpt>
      <trkpt lat="45.25999" lon="6.04007">
        <ele>1892.5999755859</ele>
        <time>2026-08-21T10:19:50.000Z</time>
      </trkpt>
      <trkpt lat="45.26" lon="6.04008">
        <ele>1893</ele>
        <time>2026-08-21T10:19:51.000Z</time>
      </trkpt>
      <trkpt lat="45.26" lon="6.04008">
        <ele>1893.1999511719</ele>
        <time>2026-08-21T10:19:52.000Z</time>
      </trkpt>
      <trkpt lat="45.26002" lon="6.04008">
        <ele>1893.5999755859</ele>
        <time>2026-08-21T10:19:53.000Z</time>
      </trkpt>
      <trkpt lat="45.26002" lon="6.04009">
        <ele>1894.1999511719</ele>
        <time>2026-08-21T10:19:54.000Z</time>
      </trkpt>
      <trkpt lat="45.26004" lon="6.0401">
        <ele>1894.5999755859</ele>
        <time>2026-08-21T10:19:55.000Z</time>
      </trkpt>
      <trkpt lat="45.26005" lon="6.0401">
        <ele>1895</ele>
        <time>2026-08-21T10:19:56.000Z</time>
      </trkpt>
      <trkpt lat="45.26006" lon="6.04011">
        <ele>1895.1999511719</ele>
        <time>2026-08-21T10:19:57.000Z</time>
      </trkpt>
      <trkpt lat="45.26008" lon="6.04011">
        <ele>1896.5999755859</ele>
        <time>2026-08-21T10:19:58.000Z</time>
      </trkpt>
      <trkpt lat="45.26009" lon="6.04011">
        <ele>1896.5999755859</ele>
        <time>2026-08-21T10:19:59.000Z</time>
      </trkpt>
      <trkpt lat="45.26011" lon="6.04012">
        <ele>1896.5999755859</ele>
        <time>2026-08-21T10:20:00.000Z</time>
      </trkpt>
      <trkpt lat="45.26012" lon="6.04014">
        <ele>1897</ele>
        <time>2026-08-21T10:20:01.000Z</time>
      </trkpt>
      <trkpt lat="45.26013" lon="6.04015">
        <ele>1896.8000488281</ele>
        <time>2026-08-21T10:20:02.000Z</time>
      </trkpt>
      <trkpt lat="45.26015" lon="6.04016">
        <ele>1896.4000244141</ele>
        <time>2026-08-21T10:20:03.000Z</time>
      </trkpt>
      <trkpt lat="45.26016" lon="6.04017">
        <ele>1896.1999511719</ele>
        <time>2026-08-21T10:20:04.000Z</time>
      </trkpt>
      <trkpt lat="45.26017" lon="6.04018">
        <ele>1896</ele>
        <time>2026-08-21T10:20:05.000Z</time>
      </trkpt>
      <trkpt lat="45.26019" lon="6.04019">
        <ele>1895.5999755859</ele>
        <time>2026-08-21T10:20:06.000Z</time>
      </trkpt>
      <trkpt lat="45.2602" lon="6.0402">
        <ele>1895.4000244141</ele>
        <time>2026-08-21T10:20:07.000Z</time>
      </trkpt>
      <trkpt lat="45.26021" lon="6.04022">
        <ele>1895</ele>
        <time>2026-08-21T10:20:08.000Z</time>
      </trkpt>
      <trkpt lat="45.26022" lon="6.04022">
        <ele>1894.8000488281</ele>
        <time>2026-08-21T10:20:09.000Z</time>
      </trkpt>
      <trkpt lat="45.26024" lon="6.04023">
        <ele>1893.5999755859</ele>
        <time>2026-08-21T10:20:10.000Z</time>
      </trkpt>
      <trkpt lat="45.26025" lon="6.04024">
        <ele>1893</ele>
        <time>2026-08-21T10:20:11.000Z</time>
      </trkpt>
      <trkpt lat="45.26027" lon="6.04025">
        <ele>1892.4000244141</ele>
        <time>2026-08-21T10:20:12.000Z</time>
      </trkpt>
      <trkpt lat="45.26029" lon="6.04027">
        <ele>1892.4000244141</ele>
        <time>2026-08-21T10:20:13.000Z</time>
      </trkpt>
      <trkpt lat="45.26031" lon="6.04029">
        <ele>1892</ele>
        <time>2026-08-21T10:20:14.000Z</time>
      </trkpt>
      <trkpt lat="45.26033" lon="6.0403">
        <ele>1891.4000244141</ele>
        <time>2026-08-21T10:20:15.000Z</time>
      </trkpt>
      <trkpt lat="45.26034" lon="6.04032">
        <ele>1891.1999511719</ele>
        <time>2026-08-21T10:20:16.000Z</time>
      </trkpt>
      <trkpt lat="45.26036" lon="6.04035">
        <ele>1891</ele>
        <time>2026-08-21T10:20:17.000Z</time>
      </trkpt>
      <trkpt lat="45.26038" lon="6.04036">
        <ele>1890.8000488281</ele>
        <time>2026-08-21T10:20:18.000Z</time>
      </trkpt>
      <trkpt lat="45.26039" lon="6.04038">
        <ele>1891</ele>
        <time>2026-08-21T10:20:19.000Z</time>
      </trkpt>
      <trkpt lat="45.26041" lon="6.0404">
        <ele>1891.4000244141</ele>
        <time>2026-08-21T10:20:20.000Z</time>
      </trkpt>
      <trkpt lat="45.26043" lon="6.04041">
        <ele>1891.8000488281</ele>
        <time>2026-08-21T10:20:21.000Z</time>
      </trkpt>
      <trkpt lat="45.26045" lon="6.04043">
        <ele>1891.8000488281</ele>
        <time>2026-08-21T10:20:22.000Z</time>
      </trkpt>
      <trkpt lat="45.26048" lon="6.04045">
        <ele>1891.8000488281</ele>
        <time>2026-08-21T10:20:23.000Z</time>
      </trkpt>
      <trkpt lat="45.26049" lon="6.04047">
        <ele>1891.8000488281</ele>
        <time>2026-08-21T10:20:24.000Z</time>
      </trkpt>
      <trkpt lat="45.26051" lon="6.04049">
        <ele>1891.5999755859</ele>
        <time>2026-08-21T10:20:25.000Z</time>
      </trkpt>
      <trkpt lat="45.26053" lon="6.0405">
        <ele>1891.8000488281</ele>
        <time>2026-08-21T10:20:26.000Z</time>
      </trkpt>
      <trkpt lat="45.26055" lon="6.04052">
        <ele>1892.1999511719</ele>
        <time>2026-08-21T10:20:27.000Z</time>
      </trkpt>
      <trkpt lat="45.26057" lon="6.04054">
        <ele>1892.5999755859</ele>
        <time>2026-08-21T10:20:28.000Z</time>
      </trkpt>
      <trkpt lat="45.26058" lon="6.04055">
        <ele>1893</ele>
        <time>2026-08-21T10:20:29.000Z</time>
      </trkpt>
      <trkpt lat="45.2606" lon="6.04057">
        <ele>1893.5999755859</ele>
        <time>2026-08-21T10:20:30.000Z</time>
      </trkpt>
      <trkpt lat="45.26061" lon="6.0406">
        <ele>1893.5999755859</ele>
        <time>2026-08-21T10:20:31.000Z</time>
      </trkpt>
      <trkpt lat="45.26063" lon="6.04062">
        <ele>1893.8000488281</ele>
        <time>2026-08-21T10:20:32.000Z</time>
      </trkpt>
      <trkpt lat="45.26065" lon="6.04062">
        <ele>1893.8000488281</ele>
        <time>2026-08-21T10:20:33.000Z</time>
      </trkpt>
      <trkpt lat="45.26067" lon="6.04064">
        <ele>1893.4000244141</ele>
        <time>2026-08-21T10:20:34.000Z</time>
      </trkpt>
      <trkpt lat="45.26068" lon="6.04066">
        <ele>1892.8000488281</ele>
        <time>2026-08-21T10:20:35.000Z</time>
      </trkpt>
      <trkpt lat="45.2607" lon="6.04069">
        <ele>1892.4000244141</ele>
        <time>2026-08-21T10:20:36.000Z</time>
      </trkpt>
      <trkpt lat="45.26072" lon="6.04071">
        <ele>1892</ele>
        <time>2026-08-21T10:20:37.000Z</time>
      </trkpt>
      <trkpt lat="45.26073" lon="6.04072">
        <ele>1891</ele>
        <time>2026-08-21T10:20:38.000Z</time>
      </trkpt>
      <trkpt lat="45.26074" lon="6.04075">
        <ele>1891.1999511719</ele>
        <time>2026-08-21T10:20:39.000Z</time>
      </trkpt>
      <trkpt lat="45.26076" lon="6.04076">
        <ele>1891.4000244141</ele>
        <time>2026-08-21T10:20:40.000Z</time>
      </trkpt>
      <trkpt lat="45.26077" lon="6.04078">
        <ele>1891.8000488281</ele>
        <time>2026-08-21T10:20:41.000Z</time>
      </trkpt>
      <trkpt lat="45.26078" lon="6.0408">
        <ele>1892.1999511719</ele>
        <time>2026-08-21T10:20:42.000Z</time>
      </trkpt>
      <trkpt lat="45.2608" lon="6.04082">
        <ele>1892.8000488281</ele>
        <time>2026-08-21T10:20:43.000Z</time>
      </trkpt>
      <trkpt lat="45.26081" lon="6.04084">
        <ele>1893.1999511719</ele>
        <time>2026-08-21T10:20:44.000Z</time>
      </trkpt>
      <trkpt lat="45.26083" lon="6.04086">
        <ele>1893.8000488281</ele>
        <time>2026-08-21T10:20:45.000Z</time>
      </trkpt>
      <trkpt lat="45.26085" lon="6.04088">
        <ele>1894.1999511719</ele>
        <time>2026-08-21T10:20:46.000Z</time>
      </trkpt>
      <trkpt lat="45.26087" lon="6.04089">
        <ele>1893.8000488281</ele>
        <time>2026-08-21T10:20:47.000Z</time>
      </trkpt>
      <trkpt lat="45.26089" lon="6.04092">
        <ele>1893.4000244141</ele>
        <time>2026-08-21T10:20:48.000Z</time>
      </trkpt>
      <trkpt lat="45.26091" lon="6.04093">
        <ele>1893</ele>
        <time>2026-08-21T10:20:49.000Z</time>
      </trkpt>
      <trkpt lat="45.26093" lon="6.04095">
        <ele>1891.5999755859</ele>
        <time>2026-08-21T10:20:50.000Z</time>
      </trkpt>
      <trkpt lat="45.26095" lon="6.04097">
        <ele>1890</ele>
        <time>2026-08-21T10:20:51.000Z</time>
      </trkpt>
      <trkpt lat="45.26097" lon="6.04099">
        <ele>1889.4000244141</ele>
        <time>2026-08-21T10:20:52.000Z</time>
      </trkpt>
      <trkpt lat="45.26098" lon="6.04101">
        <ele>1889.1999511719</ele>
        <time>2026-08-21T10:20:53.000Z</time>
      </trkpt>
      <trkpt lat="45.261" lon="6.04102">
        <ele>1888.8000488281</ele>
        <time>2026-08-21T10:20:54.000Z</time>
      </trkpt>
      <trkpt lat="45.26102" lon="6.04103">
        <ele>1886.8000488281</ele>
        <time>2026-08-21T10:20:55.000Z</time>
      </trkpt>
      <trkpt lat="45.26104" lon="6.04105">
        <ele>1885</ele>
        <time>2026-08-21T10:20:56.000Z</time>
      </trkpt>
      <trkpt lat="45.26105" lon="6.04106">
        <ele>1883</ele>
        <time>2026-08-21T10:20:57.000Z</time>
      </trkpt>
      <trkpt lat="45.26106" lon="6.04108">
        <ele>1880.4000244141</ele>
        <time>2026-08-21T10:20:58.000Z</time>
      </trkpt>
      <trkpt lat="45.26107" lon="6.0411">
        <ele>1879.1999511719</ele>
        <time>2026-08-21T10:20:59.000Z</time>
      </trkpt>
      <trkpt lat="45.26109" lon="6.04112">
        <ele>1878.1999511719</ele>
        <time>2026-08-21T10:21:00.000Z</time>
      </trkpt>
      <trkpt lat="45.26111" lon="6.04114">
        <ele>1877</ele>
        <time>2026-08-21T10:21:01.000Z</time>
      </trkpt>
      <trkpt lat="45.26113" lon="6.04116">
        <ele>1875.8000488281</ele>
        <time>2026-08-21T10:21:02.000Z</time>
      </trkpt>
      <trkpt lat="45.26115" lon="6.04118">
        <ele>1874.4000244141</ele>
        <time>2026-08-21T10:21:03.000Z</time>
      </trkpt>
      <trkpt lat="45.26117" lon="6.04119">
        <ele>1874.8000488281</ele>
        <time>2026-08-21T10:21:04.000Z</time>
      </trkpt>
      <trkpt lat="45.2612" lon="6.0412">
        <ele>1875.1999511719</ele>
        <time>2026-08-21T10:21:05.000Z</time>
      </trkpt>
      <trkpt lat="45.26121" lon="6.0412">
        <ele>1875.5999755859</ele>
        <time>2026-08-21T10:21:06.000Z</time>
      </trkpt>
      <trkpt lat="45.26123" lon="6.04119">
        <ele>1875.8000488281</ele>
        <time>2026-08-21T10:21:07.000Z</time>
      </trkpt>
      <trkpt lat="45.26125" lon="6.04118">
        <ele>1875.8000488281</ele>
        <time>2026-08-21T10:21:08.000Z</time>
      </trkpt>
      <trkpt lat="45.26126" lon="6.04118">
        <ele>1875.5999755859</ele>
        <time>2026-08-21T10:21:09.000Z</time>
      </trkpt>
      <trkpt lat="45.26128" lon="6.04119">
        <ele>1875.4000244141</ele>
        <time>2026-08-21T10:21:10.000Z</time>
      </trkpt>
      <trkpt lat="45.2613" lon="6.0412">
        <ele>1874.8000488281</ele>
        <time>2026-08-21T10:21:11.000Z</time>
      </trkpt>
      <trkpt lat="45.26132" lon="6.0412">
        <ele>1874</ele>
        <time>2026-08-21T10:21:12.000Z</time>
      </trkpt>
      <trkpt lat="45.26134" lon="6.0412">
        <ele>1873.4000244141</ele>
        <time>2026-08-21T10:21:13.000Z</time>
      </trkpt>
      <trkpt lat="45.26137" lon="6.04121">
        <ele>1873.4000244141</ele>
        <time>2026-08-21T10:21:14.000Z</time>
      </trkpt>
      <trkpt lat="45.26139" lon="6.04122">
        <ele>1873.5999755859</ele>
        <time>2026-08-21T10:21:15.000Z</time>
      </trkpt>
      <trkpt lat="45.26142" lon="6.04124">
        <ele>1873.8000488281</ele>
        <time>2026-08-21T10:21:16.000Z</time>
      </trkpt>
      <trkpt lat="45.26144" lon="6.04125">
        <ele>1874.1999511719</ele>
        <time>2026-08-21T10:21:17.000Z</time>
      </trkpt>
      <trkpt lat="45.26146" lon="6.04127">
        <ele>1874.8000488281</ele>
        <time>2026-08-21T10:21:18.000Z</time>
      </trkpt>
      <trkpt lat="45.26148" lon="6.0413">
        <ele>1875.4000244141</ele>
        <time>2026-08-21T10:21:19.000Z</time>
      </trkpt>
      <trkpt lat="45.26149" lon="6.04132">
        <ele>1875.8000488281</ele>
        <time>2026-08-21T10:21:20.000Z</time>
      </trkpt>
      <trkpt lat="45.26149" lon="6.04135">
        <ele>1875.8000488281</ele>
        <time>2026-08-21T10:21:21.000Z</time>
      </trkpt>
      <trkpt lat="45.26148" lon="6.04138">
        <ele>1876.1999511719</ele>
        <time>2026-08-21T10:21:22.000Z</time>
      </trkpt>
      <trkpt lat="45.26148" lon="6.04141">
        <ele>1875.8000488281</ele>
        <time>2026-08-21T10:21:23.000Z</time>
      </trkpt>
      <trkpt lat="45.26148" lon="6.04143">
        <ele>1875.8000488281</ele>
        <time>2026-08-21T10:21:24.000Z</time>
      </trkpt>
      <trkpt lat="45.26148" lon="6.04147">
        <ele>1875.8000488281</ele>
        <time>2026-08-21T10:21:25.000Z</time>
      </trkpt>
      <trkpt lat="45.26148" lon="6.0415">
        <ele>1875.5999755859</ele>
        <time>2026-08-21T10:21:26.000Z</time>
      </trkpt>
      <trkpt lat="45.26148" lon="6.04153">
        <ele>1875.5999755859</ele>
        <time>2026-08-21T10:21:27.000Z</time>
      </trkpt>
      <trkpt lat="45.26149" lon="6.04155">
        <ele>1875.5999755859</ele>
        <time>2026-08-21T10:21:28.000Z</time>
      </trkpt>
      <trkpt lat="45.26149" lon="6.04157">
        <ele>1875.4000244141</ele>
        <time>2026-08-21T10:21:29.000Z</time>
      </trkpt>
      <trkpt lat="45.2615" lon="6.04159">
        <ele>1875.1999511719</ele>
        <time>2026-08-21T10:21:30.000Z</time>
      </trkpt>
      <trkpt lat="45.2615" lon="6.04162">
        <ele>1875.1999511719</ele>
        <time>2026-08-21T10:21:31.000Z</time>
      </trkpt>
      <trkpt lat="45.2615" lon="6.04166">
        <ele>1874.1999511719</ele>
        <time>2026-08-21T10:21:32.000Z</time>
      </trkpt>
      <trkpt lat="45.2615" lon="6.04169">
        <ele>1873</ele>
        <time>2026-08-21T10:21:33.000Z</time>
      </trkpt>
      <trkpt lat="45.2615" lon="6.04172">
        <ele>1872</ele>
        <time>2026-08-21T10:21:34.000Z</time>
      </trkpt>
      <trkpt lat="45.2615" lon="6.04174">
        <ele>1870.8000488281</ele>
        <time>2026-08-21T10:21:35.000Z</time>
      </trkpt>
      <trkpt lat="45.2615" lon="6.04176">
        <ele>1869.8000488281</ele>
        <time>2026-08-21T10:21:36.000Z</time>
      </trkpt>
      <trkpt lat="45.26151" lon="6.04179">
        <ele>1869.1999511719</ele>
        <time>2026-08-21T10:21:37.000Z</time>
      </trkpt>
      <trkpt lat="45.26152" lon="6.04182">
        <ele>1869</ele>
        <time>2026-08-21T10:21:38.000Z</time>
      </trkpt>
      <trkpt lat="45.26153" lon="6.04186">
        <ele>1869</ele>
        <time>2026-08-21T10:21:39.000Z</time>
      </trkpt>
      <trkpt lat="45.26155" lon="6.04189">
        <ele>1869.4000244141</ele>
        <time>2026-08-21T10:21:40.000Z</time>
      </trkpt>
      <trkpt lat="45.26157" lon="6.04192">
        <ele>1869.1999511719</ele>
        <time>2026-08-21T10:21:41.000Z</time>
      </trkpt>
      <trkpt lat="45.26158" lon="6.04195">
        <ele>1869.5999755859</ele>
        <time>2026-08-21T10:21:42.000Z</time>
      </trkpt>
      <trkpt lat="45.26159" lon="6.04198">
        <ele>1869.8000488281</ele>
        <time>2026-08-21T10:21:43.000Z</time>
      </trkpt>
      <trkpt lat="45.2616" lon="6.042">
        <ele>1869.8000488281</ele>
        <time>2026-08-21T10:21:44.000Z</time>
      </trkpt>
      <trkpt lat="45.26161" lon="6.04202">
        <ele>1869.4000244141</ele>
        <time>2026-08-21T10:21:45.000Z</time>
      </trkpt>
      <trkpt lat="45.26163" lon="6.04205">
        <ele>1868.8000488281</ele>
        <time>2026-08-21T10:21:46.000Z</time>
      </trkpt>
      <trkpt lat="45.26165" lon="6.04207">
        <ele>1868</ele>
        <time>2026-08-21T10:21:47.000Z</time>
      </trkpt>
      <trkpt lat="45.26166" lon="6.04209">
        <ele>1867.4000244141</ele>
        <time>2026-08-21T10:21:48.000Z</time>
      </trkpt>
      <trkpt lat="45.26167" lon="6.04212">
        <ele>1866.5999755859</ele>
        <time>2026-08-21T10:21:49.000Z</time>
      </trkpt>
      <trkpt lat="45.26169" lon="6.04214">
        <ele>1866.1999511719</ele>
        <time>2026-08-21T10:21:50.000Z</time>
      </trkpt>
      <trkpt lat="45.26171" lon="6.04216">
        <ele>1865.8000488281</ele>
        <time>2026-08-21T10:21:51.000Z</time>
      </trkpt>
      <trkpt lat="45.26174" lon="6.04217">
        <ele>1865.4000244141</ele>
        <time>2026-08-21T10:21:52.000Z</time>
      </trkpt>
      <trkpt lat="45.26176" lon="6.04219">
        <ele>1865.5999755859</ele>
        <time>2026-08-21T10:21:53.000Z</time>
      </trkpt>
      <trkpt lat="45.26177" lon="6.04221">
        <ele>1865.5999755859</ele>
        <time>2026-08-21T10:21:54.000Z</time>
      </trkpt>
      <trkpt lat="45.2618" lon="6.04222">
        <ele>1865.1999511719</ele>
        <time>2026-08-21T10:21:55.000Z</time>
      </trkpt>
      <trkpt lat="45.26182" lon="6.04222">
        <ele>1865</ele>
        <time>2026-08-21T10:21:56.000Z</time>
      </trkpt>
      <trkpt lat="45.26184" lon="6.04222">
        <ele>1865</ele>
        <time>2026-08-21T10:21:57.000Z</time>
      </trkpt>
      <trkpt lat="45.26185" lon="6.04222">
        <ele>1864.5999755859</ele>
        <time>2026-08-21T10:21:58.000Z</time>
      </trkpt>
      <trkpt lat="45.26186" lon="6.04223">
        <ele>1864.4000244141</ele>
        <time>2026-08-21T10:21:59.000Z</time>
      </trkpt>
      <trkpt lat="45.26188" lon="6.04225">
        <ele>1864</ele>
        <time>2026-08-21T10:22:00.000Z</time>
      </trkpt>
      <trkpt lat="45.26189" lon="6.04227">
        <ele>1863</ele>
        <time>2026-08-21T10:22:01.000Z</time>
      </trkpt>
      <trkpt lat="45.26191" lon="6.04228">
        <ele>1861.8000488281</ele>
        <time>2026-08-21T10:22:02.000Z</time>
      </trkpt>
      <trkpt lat="45.26192" lon="6.0423">
        <ele>1861.8000488281</ele>
        <time>2026-08-21T10:22:03.000Z</time>
      </trkpt>
      <trkpt lat="45.26194" lon="6.04232">
        <ele>1861.8000488281</ele>
        <time>2026-08-21T10:22:04.000Z</time>
      </trkpt>
      <trkpt lat="45.26195" lon="6.04233">
        <ele>1861.4000244141</ele>
        <time>2026-08-21T10:22:05.000Z</time>
      </trkpt>
      <trkpt lat="45.26197" lon="6.04233">
        <ele>1861.5999755859</ele>
        <time>2026-08-21T10:22:06.000Z</time>
      </trkpt>
      <trkpt lat="45.26199" lon="6.04233">
        <ele>1861.5999755859</ele>
        <time>2026-08-21T10:22:07.000Z</time>
      </trkpt>
      <trkpt lat="45.26201" lon="6.04233">
        <ele>1861.8000488281</ele>
        <time>2026-08-21T10:22:08.000Z</time>
      </trkpt>
      <trkpt lat="45.26202" lon="6.04234">
        <ele>1861.8000488281</ele>
        <time>2026-08-21T10:22:09.000Z</time>
      </trkpt>
      <trkpt lat="45.26204" lon="6.04234">
        <ele>1862.8000488281</ele>
        <time>2026-08-21T10:22:10.000Z</time>
      </trkpt>
      <trkpt lat="45.26205" lon="6.04234">
        <ele>1864</ele>
        <time>2026-08-21T10:22:11.000Z</time>
      </trkpt>
      <trkpt lat="45.26206" lon="6.04234">
        <ele>1865</ele>
        <time>2026-08-21T10:22:12.000Z</time>
      </trkpt>
      <trkpt lat="45.26207" lon="6.04235">
        <ele>1866.1999511719</ele>
        <time>2026-08-21T10:22:13.000Z</time>
      </trkpt>
      <trkpt lat="45.26209" lon="6.04236">
        <ele>1867.1999511719</ele>
        <time>2026-08-21T10:22:14.000Z</time>
      </trkpt>
      <trkpt lat="45.26211" lon="6.04236">
        <ele>1867.5999755859</ele>
        <time>2026-08-21T10:22:15.000Z</time>
      </trkpt>
      <trkpt lat="45.26213" lon="6.04237">
        <ele>1867.5999755859</ele>
        <time>2026-08-21T10:22:16.000Z</time>
      </trkpt>
      <trkpt lat="45.26215" lon="6.04238">
        <ele>1868</ele>
        <time>2026-08-21T10:22:17.000Z</time>
      </trkpt>
      <trkpt lat="45.26217" lon="6.04239">
        <ele>1868.4000244141</ele>
        <time>2026-08-21T10:22:18.000Z</time>
      </trkpt>
      <trkpt lat="45.26218" lon="6.0424">
        <ele>1868.8000488281</ele>
        <time>2026-08-21T10:22:19.000Z</time>
      </trkpt>
      <trkpt lat="45.2622" lon="6.04242">
        <ele>1869</ele>
        <time>2026-08-21T10:22:20.000Z</time>
      </trkpt>
      <trkpt lat="45.26222" lon="6.04244">
        <ele>1869.4000244141</ele>
        <time>2026-08-21T10:22:21.000Z</time>
      </trkpt>
      <trkpt lat="45.26224" lon="6.04246">
        <ele>1869.8000488281</ele>
        <time>2026-08-21T10:22:22.000Z</time>
      </trkpt>
      <trkpt lat="45.26226" lon="6.04248">
        <ele>1870.1999511719</ele>
        <time>2026-08-21T10:22:23.000Z</time>
      </trkpt>
      <trkpt lat="45.26228" lon="6.04248">
        <ele>1870.5999755859</ele>
        <time>2026-08-21T10:22:24.000Z</time>
      </trkpt>
      <trkpt lat="45.2623" lon="6.04249">
        <ele>1871</ele>
        <time>2026-08-21T10:22:25.000Z</time>
      </trkpt>
      <trkpt lat="45.26232" lon="6.04251">
        <ele>1871.4000244141</ele>
        <time>2026-08-21T10:22:26.000Z</time>
      </trkpt>
      <trkpt lat="45.26234" lon="6.04252">
        <ele>1871.8000488281</ele>
        <time>2026-08-21T10:22:27.000Z</time>
      </trkpt>
      <trkpt lat="45.26235" lon="6.04253">
        <ele>1872.5999755859</ele>
        <time>2026-08-21T10:22:28.000Z</time>
      </trkpt>
      <trkpt lat="45.26238" lon="6.04255">
        <ele>1873</ele>
        <time>2026-08-21T10:22:29.000Z</time>
      </trkpt>
      <trkpt lat="45.26239" lon="6.04256">
        <ele>1873.4000244141</ele>
        <time>2026-08-21T10:22:30.000Z</time>
      </trkpt>
      <trkpt lat="45.26241" lon="6.04257">
        <ele>1873.1999511719</ele>
        <time>2026-08-21T10:22:31.000Z</time>
      </trkpt>
      <trkpt lat="45.26242" lon="6.04258">
        <ele>1873</ele>
        <time>2026-08-21T10:22:32.000Z</time>
      </trkpt>
      <trkpt lat="45.26244" lon="6.04259">
        <ele>1872.4000244141</ele>
        <time>2026-08-21T10:22:33.000Z</time>
      </trkpt>
      <trkpt lat="45.26245" lon="6.0426">
        <ele>1871.8000488281</ele>
        <time>2026-08-21T10:22:34.000Z</time>
      </trkpt>
      <trkpt lat="45.26247" lon="6.04261">
        <ele>1871.1999511719</ele>
        <time>2026-08-21T10:22:35.000Z</time>
      </trkpt>
      <trkpt lat="45.26249" lon="6.04261">
        <ele>1871.1999511719</ele>
        <time>2026-08-21T10:22:36.000Z</time>
      </trkpt>
      <trkpt lat="45.26251" lon="6.0426">
        <ele>1871.4000244141</ele>
        <time>2026-08-21T10:22:37.000Z</time>
      </trkpt>
      <trkpt lat="45.26252" lon="6.0426">
        <ele>1871.5999755859</ele>
        <time>2026-08-21T10:22:38.000Z</time>
      </trkpt>
      <trkpt lat="45.26254" lon="6.0426">
        <ele>1871.8000488281</ele>
        <time>2026-08-21T10:22:39.000Z</time>
      </trkpt>
      <trkpt lat="45.26256" lon="6.0426">
        <ele>1872</ele>
        <time>2026-08-21T10:22:40.000Z</time>
      </trkpt>
      <trkpt lat="45.26258" lon="6.04259">
        <ele>1872.1999511719</ele>
        <time>2026-08-21T10:22:41.000Z</time>
      </trkpt>
      <trkpt lat="45.2626" lon="6.04258">
        <ele>1872.1999511719</ele>
        <time>2026-08-21T10:22:42.000Z</time>
      </trkpt>
      <trkpt lat="45.26262" lon="6.04258">
        <ele>1872.1999511719</ele>
        <time>2026-08-21T10:22:43.000Z</time>
      </trkpt>
      <trkpt lat="45.26265" lon="6.04259">
        <ele>1872.4000244141</ele>
        <time>2026-08-21T10:22:44.000Z</time>
      </trkpt>
      <trkpt lat="45.26267" lon="6.04261">
        <ele>1872.8000488281</ele>
        <time>2026-08-21T10:22:45.000Z</time>
      </trkpt>
      <trkpt lat="45.26269" lon="6.04262">
        <ele>1873</ele>
        <time>2026-08-21T10:22:46.000Z</time>
      </trkpt>
      <trkpt lat="45.26271" lon="6.04262">
        <ele>1873.4000244141</ele>
        <time>2026-08-21T10:22:47.000Z</time>
      </trkpt>
      <trkpt lat="45.26273" lon="6.04262">
        <ele>1873.5999755859</ele>
        <time>2026-08-21T10:22:48.000Z</time>
      </trkpt>
      <trkpt lat="45.26276" lon="6.04261">
        <ele>1873.8000488281</ele>
        <time>2026-08-21T10:22:49.000Z</time>
      </trkpt>
      <trkpt lat="45.26277" lon="6.0426">
        <ele>1873.8000488281</ele>
        <time>2026-08-21T10:22:50.000Z</time>
      </trkpt>
      <trkpt lat="45.26279" lon="6.04259">
        <ele>1874</ele>
        <time>2026-08-21T10:22:51.000Z</time>
      </trkpt>
      <trkpt lat="45.2628" lon="6.04257">
        <ele>1874</ele>
        <time>2026-08-21T10:22:52.000Z</time>
      </trkpt>
      <trkpt lat="45.26282" lon="6.04256">
        <ele>1873.8000488281</ele>
        <time>2026-08-21T10:22:53.000Z</time>
      </trkpt>
      <trkpt lat="45.26283" lon="6.04255">
        <ele>1873.8000488281</ele>
        <time>2026-08-21T10:22:54.000Z</time>
      </trkpt>
      <trkpt lat="45.26285" lon="6.04254">
        <ele>1873.8000488281</ele>
        <time>2026-08-21T10:22:55.000Z</time>
      </trkpt>
      <trkpt lat="45.26286" lon="6.04255">
        <ele>1874</ele>
        <time>2026-08-21T10:22:56.000Z</time>
      </trkpt>
      <trkpt lat="45.26287" lon="6.04255">
        <ele>1874</ele>
        <time>2026-08-21T10:22:57.000Z</time>
      </trkpt>
      <trkpt lat="45.26289" lon="6.04254">
        <ele>1874</ele>
        <time>2026-08-21T10:22:58.000Z</time>
      </trkpt>
      <trkpt lat="45.2629" lon="6.04254">
        <ele>1874</ele>
        <time>2026-08-21T10:22:59.000Z</time>
      </trkpt>
      <trkpt lat="45.26291" lon="6.04251">
        <ele>1874.1999511719</ele>
        <time>2026-08-21T10:23:00.000Z</time>
      </trkpt>
      <trkpt lat="45.26291" lon="6.04249">
        <ele>1874.1999511719</ele>
        <time>2026-08-21T10:23:01.000Z</time>
      </trkpt>
      <trkpt lat="45.26291" lon="6.04248">
        <ele>1874.1999511719</ele>
        <time>2026-08-21T10:23:02.000Z</time>
      </trkpt>
      <trkpt lat="45.26292" lon="6.04248">
        <ele>1874.1999511719</ele>
        <time>2026-08-21T10:23:03.000Z</time>
      </trkpt>
      <trkpt lat="45.26293" lon="6.04247">
        <ele>1874.4000244141</ele>
        <time>2026-08-21T10:23:04.000Z</time>
      </trkpt>
      <trkpt lat="45.26294" lon="6.04245">
        <ele>1874.4000244141</ele>
        <time>2026-08-21T10:23:05.000Z</time>
      </trkpt>
      <trkpt lat="45.26295" lon="6.04243">
        <ele>1873.4000244141</ele>
        <time>2026-08-21T10:23:06.000Z</time>
      </trkpt>
      <trkpt lat="45.26296" lon="6.04241">
        <ele>1872.5999755859</ele>
        <time>2026-08-21T10:23:07.000Z</time>
      </trkpt>
      <trkpt lat="45.26297" lon="6.0424">
        <ele>1871.5999755859</ele>
        <time>2026-08-21T10:23:08.000Z</time>
      </trkpt>
      <trkpt lat="45.26298" lon="6.04238">
        <ele>1870.8000488281</ele>
        <time>2026-08-21T10:23:09.000Z</time>
      </trkpt>
      <trkpt lat="45.26298" lon="6.04236">
        <ele>1869.8000488281</ele>
        <time>2026-08-21T10:23:10.000Z</time>
      </trkpt>
      <trkpt lat="45.26299" lon="6.04234">
        <ele>1866.4000244141</ele>
        <time>2026-08-21T10:23:11.000Z</time>
      </trkpt>
      <trkpt lat="45.26301" lon="6.04232">
        <ele>1865</ele>
        <time>2026-08-21T10:23:12.000Z</time>
      </trkpt>
      <trkpt lat="45.26303" lon="6.04231">
        <ele>1864.8000488281</ele>
        <time>2026-08-21T10:23:13.000Z</time>
      </trkpt>
      <trkpt lat="45.26305" lon="6.04229">
        <ele>1864.5999755859</ele>
        <time>2026-08-21T10:23:14.000Z</time>
      </trkpt>
      <trkpt lat="45.26306" lon="6.04228">
        <ele>1864.1999511719</ele>
        <time>2026-08-21T10:23:15.000Z</time>
      </trkpt>
      <trkpt lat="45.26308" lon="6.04226">
        <ele>1862.8000488281</ele>
        <time>2026-08-21T10:23:16.000Z</time>
      </trkpt>
      <trkpt lat="45.2631" lon="6.04225">
        <ele>1862.4000244141</ele>
        <time>2026-08-21T10:23:17.000Z</time>
      </trkpt>
      <trkpt lat="45.26312" lon="6.04225">
        <ele>1862.1999511719</ele>
        <time>2026-08-21T10:23:18.000Z</time>
      </trkpt>
      <trkpt lat="45.26314" lon="6.04224">
        <ele>1862.1999511719</ele>
        <time>2026-08-21T10:23:19.000Z</time>
      </trkpt>
      <trkpt lat="45.26316" lon="6.04223">
        <ele>1861.4000244141</ele>
        <time>2026-08-21T10:23:20.000Z</time>
      </trkpt>
      <trkpt lat="45.26318" lon="6.04223">
        <ele>1860.5999755859</ele>
        <time>2026-08-21T10:23:21.000Z</time>
      </trkpt>
      <trkpt lat="45.2632" lon="6.04223">
        <ele>1859.8000488281</ele>
        <time>2026-08-21T10:23:22.000Z</time>
      </trkpt>
      <trkpt lat="45.26321" lon="6.04222">
        <ele>1859</ele>
        <time>2026-08-21T10:23:23.000Z</time>
      </trkpt>
      <trkpt lat="45.26323" lon="6.04223">
        <ele>1858.8000488281</ele>
        <time>2026-08-21T10:23:24.000Z</time>
      </trkpt>
      <trkpt lat="45.26325" lon="6.04224">
        <ele>1858.4000244141</ele>
        <time>2026-08-21T10:23:25.000Z</time>
      </trkpt>
      <trkpt lat="45.26326" lon="6.04226">
        <ele>1858.5999755859</ele>
        <time>2026-08-21T10:23:26.000Z</time>
      </trkpt>
      <trkpt lat="45.26328" lon="6.04227">
        <ele>1858.5999755859</ele>
        <time>2026-08-21T10:23:27.000Z</time>
      </trkpt>
      <trkpt lat="45.2633" lon="6.04229">
        <ele>1859.1999511719</ele>
        <time>2026-08-21T10:23:28.000Z</time>
      </trkpt>
      <trkpt lat="45.26332" lon="6.0423">
        <ele>1859.8000488281</ele>
        <time>2026-08-21T10:23:29.000Z</time>
      </trkpt>
      <trkpt lat="45.26334" lon="6.0423">
        <ele>1860.8000488281</ele>
        <time>2026-08-21T10:23:30.000Z</time>
      </trkpt>
      <trkpt lat="45.26335" lon="6.0423">
        <ele>1861.4000244141</ele>
        <time>2026-08-21T10:23:31.000Z</time>
      </trkpt>
      <trkpt lat="45.26337" lon="6.04231">
        <ele>1861.8000488281</ele>
        <time>2026-08-21T10:23:32.000Z</time>
      </trkpt>
      <trkpt lat="45.26338" lon="6.04231">
        <ele>1864</ele>
        <time>2026-08-21T10:23:33.000Z</time>
      </trkpt>
      <trkpt lat="45.2634" lon="6.04232">
        <ele>1864.1999511719</ele>
        <time>2026-08-21T10:23:34.000Z</time>
      </trkpt>
      <trkpt lat="45.26341" lon="6.04232">
        <ele>1864.1999511719</ele>
        <time>2026-08-21T10:23:35.000Z</time>
      </trkpt>
      <trkpt lat="45.26342" lon="6.04231">
        <ele>1864.4000244141</ele>
        <time>2026-08-21T10:23:36.000Z</time>
      </trkpt>
      <trkpt lat="45.26343" lon="6.04229">
        <ele>1864.1999511719</ele>
        <time>2026-08-21T10:23:37.000Z</time>
      </trkpt>
      <trkpt lat="45.26345" lon="6.04228">
        <ele>1863.8000488281</ele>
        <time>2026-08-21T10:23:38.000Z</time>
      </trkpt>
      <trkpt lat="45.26346" lon="6.04227">
        <ele>1863.1999511719</ele>
        <time>2026-08-21T10:23:39.000Z</time>
      </trkpt>
      <trkpt lat="45.26347" lon="6.04227">
        <ele>1863</ele>
        <time>2026-08-21T10:23:40.000Z</time>
      </trkpt>
      <trkpt lat="45.26349" lon="6.04228">
        <ele>1863</ele>
        <time>2026-08-21T10:23:41.000Z</time>
      </trkpt>
      <trkpt lat="45.2635" lon="6.04228">
        <ele>1862.8000488281</ele>
        <time>2026-08-21T10:23:42.000Z</time>
      </trkpt>
      <trkpt lat="45.26351" lon="6.04227">
        <ele>1862.8000488281</ele>
        <time>2026-08-21T10:23:43.000Z</time>
      </trkpt>
      <trkpt lat="45.26352" lon="6.04227">
        <ele>1862.8000488281</ele>
        <time>2026-08-21T10:23:44.000Z</time>
      </trkpt>
      <trkpt lat="45.26354" lon="6.04229">
        <ele>1863.1999511719</ele>
        <time>2026-08-21T10:23:45.000Z</time>
      </trkpt>
      <trkpt lat="45.26356" lon="6.04229">
        <ele>1863.1999511719</ele>
        <time>2026-08-21T10:23:46.000Z</time>
      </trkpt>
      <trkpt lat="45.26358" lon="6.04228">
        <ele>1863.5999755859</ele>
        <time>2026-08-21T10:23:47.000Z</time>
      </trkpt>
      <trkpt lat="45.2636" lon="6.04226">
        <ele>1864</ele>
        <time>2026-08-21T10:23:48.000Z</time>
      </trkpt>
      <trkpt lat="45.2636" lon="6.04225">
        <ele>1864.1999511719</ele>
        <time>2026-08-21T10:23:49.000Z</time>
      </trkpt>
      <trkpt lat="45.26362" lon="6.04224">
        <ele>1864.1999511719</ele>
        <time>2026-08-21T10:23:50.000Z</time>
      </trkpt>
      <trkpt lat="45.26362" lon="6.04224">
        <ele>1864.4000244141</ele>
        <time>2026-08-21T10:23:51.000Z</time>
      </trkpt>
      <trkpt lat="45.26363" lon="6.04223">
        <ele>1863.4000244141</ele>
        <time>2026-08-21T10:23:52.000Z</time>
      </trkpt>
      <trkpt lat="45.26364" lon="6.04222">
        <ele>1862.8000488281</ele>
        <time>2026-08-21T10:23:53.000Z</time>
      </trkpt>
      <trkpt lat="45.26366" lon="6.04221">
        <ele>1862.1999511719</ele>
        <time>2026-08-21T10:23:54.000Z</time>
      </trkpt>
      <trkpt lat="45.26367" lon="6.04219">
        <ele>1862</ele>
        <time>2026-08-21T10:23:55.000Z</time>
      </trkpt>
      <trkpt lat="45.26368" lon="6.04218">
        <ele>1862</ele>
        <time>2026-08-21T10:23:56.000Z</time>
      </trkpt>
      <trkpt lat="45.26369" lon="6.04217">
        <ele>1861.8000488281</ele>
        <time>2026-08-21T10:23:57.000Z</time>
      </trkpt>
      <trkpt lat="45.2637" lon="6.04216">
        <ele>1861.4000244141</ele>
        <time>2026-08-21T10:23:58.000Z</time>
      </trkpt>
      <trkpt lat="45.26371" lon="6.04215">
        <ele>1861.1999511719</ele>
        <time>2026-08-21T10:23:59.000Z</time>
      </trkpt>
      <trkpt lat="45.26372" lon="6.04218">
        <ele>1860.8000488281</ele>
        <time>2026-08-21T10:24:00.000Z</time>
      </trkpt>
      <trkpt lat="45.26372" lon="6.0422">
        <ele>1860.1999511719</ele>
        <time>2026-08-21T10:24:01.000Z</time>
      </trkpt>
      <trkpt lat="45.26373" lon="6.04221">
        <ele>1859.8000488281</ele>
        <time>2026-08-21T10:24:02.000Z</time>
      </trkpt>
      <trkpt lat="45.26375" lon="6.0422">
        <ele>1859.1999511719</ele>
        <time>2026-08-21T10:24:03.000Z</time>
      </trkpt>
      <trkpt lat="45.26377" lon="6.04218">
        <ele>1858.8000488281</ele>
        <time>2026-08-21T10:24:04.000Z</time>
      </trkpt>
      <trkpt lat="45.26379" lon="6.04216">
        <ele>1858.5999755859</ele>
        <time>2026-08-21T10:24:05.000Z</time>
      </trkpt>
      <trkpt lat="45.2638" lon="6.04214">
        <ele>1857.8000488281</ele>
        <time>2026-08-21T10:24:06.000Z</time>
      </trkpt>
      <trkpt lat="45.2638" lon="6.04212">
        <ele>1857</ele>
        <time>2026-08-21T10:24:07.000Z</time>
      </trkpt>
      <trkpt lat="45.2638" lon="6.04211">
        <ele>1856.5999755859</ele>
        <time>2026-08-21T10:24:08.000Z</time>
      </trkpt>
      <trkpt lat="45.26381" lon="6.0421">
        <ele>1856</ele>
        <time>2026-08-21T10:24:09.000Z</time>
      </trkpt>
      <trkpt lat="45.26383" lon="6.04209">
        <ele>1854.5999755859</ele>
        <time>2026-08-21T10:24:10.000Z</time>
      </trkpt>
      <trkpt lat="45.26384" lon="6.04208">
        <ele>1854.5999755859</ele>
        <time>2026-08-21T10:24:11.000Z</time>
      </trkpt>
      <trkpt lat="45.26385" lon="6.04206">
        <ele>1854.5999755859</ele>
        <time>2026-08-21T10:24:12.000Z</time>
      </trkpt>
      <trkpt lat="45.26386" lon="6.04204">
        <ele>1854.5999755859</ele>
        <time>2026-08-21T10:24:13.000Z</time>
      </trkpt>
      <trkpt lat="45.26387" lon="6.04202">
        <ele>1854.4000244141</ele>
        <time>2026-08-21T10:24:14.000Z</time>
      </trkpt>
      <trkpt lat="45.26388" lon="6.04201">
        <ele>1854</ele>
        <time>2026-08-21T10:24:15.000Z</time>
      </trkpt>
      <trkpt lat="45.2639" lon="6.042">
        <ele>1853.8000488281</ele>
        <time>2026-08-21T10:24:16.000Z</time>
      </trkpt>
      <trkpt lat="45.26392" lon="6.042">
        <ele>1853.4000244141</ele>
        <time>2026-08-21T10:24:17.000Z</time>
      </trkpt>
      <trkpt lat="45.26394" lon="6.04201">
        <ele>1852.5999755859</ele>
        <time>2026-08-21T10:24:18.000Z</time>
      </trkpt>
      <trkpt lat="45.26395" lon="6.04201">
        <ele>1851.8000488281</ele>
        <time>2026-08-21T10:24:19.000Z</time>
      </trkpt>
      <trkpt lat="45.26397" lon="6.04201">
        <ele>1851</ele>
        <time>2026-08-21T10:24:20.000Z</time>
      </trkpt>
      <trkpt lat="45.26399" lon="6.04201">
        <ele>1850.8000488281</ele>
        <time>2026-08-21T10:24:21.000Z</time>
      </trkpt>
      <trkpt lat="45.264" lon="6.042">
        <ele>1850.5999755859</ele>
        <time>2026-08-21T10:24:22.000Z</time>
      </trkpt>
      <trkpt lat="45.26401" lon="6.04199">
        <ele>1850.1999511719</ele>
        <time>2026-08-21T10:24:23.000Z</time>
      </trkpt>
      <trkpt lat="45.26403" lon="6.04199">
        <ele>1849.8000488281</ele>
        <time>2026-08-21T10:24:24.000Z</time>
      </trkpt>
      <trkpt lat="45.26405" lon="6.04198">
        <ele>1849.4000244141</ele>
        <time>2026-08-21T10:24:25.000Z</time>
      </trkpt>
      <trkpt lat="45.26406" lon="6.04197">
        <ele>1850.8000488281</ele>
        <time>2026-08-21T10:24:26.000Z</time>
      </trkpt>
      <trkpt lat="45.26408" lon="6.04197">
        <ele>1852.8000488281</ele>
        <time>2026-08-21T10:24:27.000Z</time>
      </trkpt>
      <trkpt lat="45.26409" lon="6.04195">
        <ele>1852.8000488281</ele>
        <time>2026-08-21T10:24:28.000Z</time>
      </trkpt>
      <trkpt lat="45.26411" lon="6.04194">
        <ele>1852.5999755859</ele>
        <time>2026-08-21T10:24:29.000Z</time>
      </trkpt>
      <trkpt lat="45.26413" lon="6.04193">
        <ele>1852.8000488281</ele>
        <time>2026-08-21T10:24:30.000Z</time>
      </trkpt>
      <trkpt lat="45.26414" lon="6.0419">
        <ele>1852.8000488281</ele>
        <time>2026-08-21T10:24:31.000Z</time>
      </trkpt>
      <trkpt lat="45.26416" lon="6.0419">
        <ele>1852.5999755859</ele>
        <time>2026-08-21T10:24:32.000Z</time>
      </trkpt>
      <trkpt lat="45.26418" lon="6.0419">
        <ele>1852.8000488281</ele>
        <time>2026-08-21T10:24:33.000Z</time>
      </trkpt>
      <trkpt lat="45.2642" lon="6.0419">
        <ele>1852.8000488281</ele>
        <time>2026-08-21T10:24:34.000Z</time>
      </trkpt>
      <trkpt lat="45.26421" lon="6.04191">
        <ele>1852.5999755859</ele>
        <time>2026-08-21T10:24:35.000Z</time>
      </trkpt>
      <trkpt lat="45.26423" lon="6.04193">
        <ele>1852.1999511719</ele>
        <time>2026-08-21T10:24:36.000Z</time>
      </trkpt>
      <trkpt lat="45.26425" lon="6.04194">
        <ele>1851.5999755859</ele>
        <time>2026-08-21T10:24:37.000Z</time>
      </trkpt>
      <trkpt lat="45.26427" lon="6.04194">
        <ele>1851.1999511719</ele>
        <time>2026-08-21T10:24:38.000Z</time>
      </trkpt>
      <trkpt lat="45.26428" lon="6.04195">
        <ele>1850.8000488281</ele>
        <time>2026-08-21T10:24:39.000Z</time>
      </trkpt>
      <trkpt lat="45.2643" lon="6.04195">
        <ele>1850.1999511719</ele>
        <time>2026-08-21T10:24:40.000Z</time>
      </trkpt>
      <trkpt lat="45.26431" lon="6.04196">
        <ele>1850.1999511719</ele>
        <time>2026-08-21T10:24:41.000Z</time>
      </trkpt>
      <trkpt lat="45.26432" lon="6.04197">
        <ele>1850.1999511719</ele>
        <time>2026-08-21T10:24:42.000Z</time>
      </trkpt>
      <trkpt lat="45.26434" lon="6.04198">
        <ele>1850.1999511719</ele>
        <time>2026-08-21T10:24:43.000Z</time>
      </trkpt>
      <trkpt lat="45.26435" lon="6.04199">
        <ele>1850</ele>
        <time>2026-08-21T10:24:44.000Z</time>
      </trkpt>
      <trkpt lat="45.26437" lon="6.042">
        <ele>1847.8000488281</ele>
        <time>2026-08-21T10:24:45.000Z</time>
      </trkpt>
      <trkpt lat="45.26438" lon="6.04202">
        <ele>1847.4000244141</ele>
        <time>2026-08-21T10:24:46.000Z</time>
      </trkpt>
      <trkpt lat="45.26439" lon="6.04203">
        <ele>1847</ele>
        <time>2026-08-21T10:24:47.000Z</time>
      </trkpt>
      <trkpt lat="45.2644" lon="6.04204">
        <ele>1846.5999755859</ele>
        <time>2026-08-21T10:24:48.000Z</time>
      </trkpt>
      <trkpt lat="45.26442" lon="6.04205">
        <ele>1846.5999755859</ele>
        <time>2026-08-21T10:24:49.000Z</time>
      </trkpt>
      <trkpt lat="45.26443" lon="6.04205">
        <ele>1846.5999755859</ele>
        <time>2026-08-21T10:24:50.000Z</time>
      </trkpt>
      <trkpt lat="45.26444" lon="6.04204">
        <ele>1847</ele>
        <time>2026-08-21T10:24:51.000Z</time>
      </trkpt>
      <trkpt lat="45.26445" lon="6.04204">
        <ele>1847</ele>
        <time>2026-08-21T10:24:52.000Z</time>
      </trkpt>
      <trkpt lat="45.26447" lon="6.04204">
        <ele>1847.1999511719</ele>
        <time>2026-08-21T10:24:53.000Z</time>
      </trkpt>
      <trkpt lat="45.26448" lon="6.04205">
        <ele>1847.8000488281</ele>
        <time>2026-08-21T10:24:54.000Z</time>
      </trkpt>
      <trkpt lat="45.26448" lon="6.04204">
        <ele>1848</ele>
        <time>2026-08-21T10:24:55.000Z</time>
      </trkpt>
      <trkpt lat="45.2645" lon="6.04203">
        <ele>1848.1999511719</ele>
        <time>2026-08-21T10:24:56.000Z</time>
      </trkpt>
      <trkpt lat="45.2645" lon="6.04203">
        <ele>1848.4000244141</ele>
        <time>2026-08-21T10:24:57.000Z</time>
      </trkpt>
      <trkpt lat="45.26452" lon="6.04202">
        <ele>1848.5999755859</ele>
        <time>2026-08-21T10:24:58.000Z</time>
      </trkpt>
      <trkpt lat="45.26452" lon="6.04201">
        <ele>1848.8000488281</ele>
        <time>2026-08-21T10:24:59.000Z</time>
      </trkpt>
      <trkpt lat="45.26453" lon="6.042">
        <ele>1849</ele>
        <time>2026-08-21T10:25:00.000Z</time>
      </trkpt>
      <trkpt lat="45.26454" lon="6.04199">
        <ele>1849.4000244141</ele>
        <time>2026-08-21T10:25:01.000Z</time>
      </trkpt>
      <trkpt lat="45.26455" lon="6.04199">
        <ele>1849.8000488281</ele>
        <time>2026-08-21T10:25:02.000Z</time>
      </trkpt>
      <trkpt lat="45.26456" lon="6.04198">
        <ele>1850.1999511719</ele>
        <time>2026-08-21T10:25:03.000Z</time>
      </trkpt>
      <trkpt lat="45.26456" lon="6.04199">
        <ele>1850.5999755859</ele>
        <time>2026-08-21T10:25:04.000Z</time>
      </trkpt>
      <trkpt lat="45.26457" lon="6.04198">
        <ele>1851</ele>
        <time>2026-08-21T10:25:05.000Z</time>
      </trkpt>
      <trkpt lat="45.26458" lon="6.04198">
        <ele>1851.5999755859</ele>
        <time>2026-08-21T10:25:06.000Z</time>
      </trkpt>
      <trkpt lat="45.26459" lon="6.04198">
        <ele>1852</ele>
        <time>2026-08-21T10:25:07.000Z</time>
      </trkpt>
      <trkpt lat="45.2646" lon="6.04197">
        <ele>1852.1999511719</ele>
        <time>2026-08-21T10:25:08.000Z</time>
      </trkpt>
      <trkpt lat="45.26461" lon="6.04196">
        <ele>1852.4000244141</ele>
        <time>2026-08-21T10:25:09.000Z</time>
      </trkpt>
      <trkpt lat="45.26463" lon="6.04195">
        <ele>1853</ele>
        <time>2026-08-21T10:25:10.000Z</time>
      </trkpt>
      <trkpt lat="45.26464" lon="6.04195">
        <ele>1853.4000244141</ele>
        <time>2026-08-21T10:25:11.000Z</time>
      </trkpt>
      <trkpt lat="45.26464" lon="6.04194">
        <ele>1854.1999511719</ele>
        <time>2026-08-21T10:25:12.000Z</time>
      </trkpt>
      <trkpt lat="45.26465" lon="6.04193">
        <ele>1855</ele>
        <time>2026-08-21T10:25:13.000Z</time>
      </trkpt>
      <trkpt lat="45.26466" lon="6.04193">
        <ele>1855.8000488281</ele>
        <time>2026-08-21T10:25:14.000Z</time>
      </trkpt>
      <trkpt lat="45.26467" lon="6.04192">
        <ele>1856.5999755859</ele>
        <time>2026-08-21T10:25:15.000Z</time>
      </trkpt>
      <trkpt lat="45.26467" lon="6.0419">
        <ele>1857.1999511719</ele>
        <time>2026-08-21T10:25:16.000Z</time>
      </trkpt>
      <trkpt lat="45.26468" lon="6.04189">
        <ele>1857.8000488281</ele>
        <time>2026-08-21T10:25:17.000Z</time>
      </trkpt>
      <trkpt lat="45.2647" lon="6.04187">
        <ele>1858.4000244141</ele>
        <time>2026-08-21T10:25:18.000Z</time>
      </trkpt>
      <trkpt lat="45.2647" lon="6.04186">
        <ele>1859</ele>
        <time>2026-08-21T10:25:19.000Z</time>
      </trkpt>
      <trkpt lat="45.26472" lon="6.04185">
        <ele>1859.5999755859</ele>
        <time>2026-08-21T10:25:20.000Z</time>
      </trkpt>
      <trkpt lat="45.26473" lon="6.04183">
        <ele>1859.1999511719</ele>
        <time>2026-08-21T10:25:21.000Z</time>
      </trkpt>
      <trkpt lat="45.26474" lon="6.04183">
        <ele>1858.5999755859</ele>
        <time>2026-08-21T10:25:22.000Z</time>
      </trkpt>
      <trkpt lat="45.26476" lon="6.04182">
        <ele>1858.4000244141</ele>
        <time>2026-08-21T10:25:23.000Z</time>
      </trkpt>
      <trkpt lat="45.26477" lon="6.04182">
        <ele>1858.4000244141</ele>
        <time>2026-08-21T10:25:24.000Z</time>
      </trkpt>
      <trkpt lat="45.26479" lon="6.04182">
        <ele>1858.4000244141</ele>
        <time>2026-08-21T10:25:25.000Z</time>
      </trkpt>
      <trkpt lat="45.2648" lon="6.04181">
        <ele>1858.5999755859</ele>
        <time>2026-08-21T10:25:26.000Z</time>
      </trkpt>
      <trkpt lat="45.26482" lon="6.0418">
        <ele>1858.5999755859</ele>
        <time>2026-08-21T10:25:27.000Z</time>
      </trkpt>
      <trkpt lat="45.26484" lon="6.04179">
        <ele>1858.5999755859</ele>
        <time>2026-08-21T10:25:28.000Z</time>
      </trkpt>
      <trkpt lat="45.26486" lon="6.0418">
        <ele>1858</ele>
        <time>2026-08-21T10:25:29.000Z</time>
      </trkpt>
      <trkpt lat="45.26489" lon="6.04179">
        <ele>1857.4000244141</ele>
        <time>2026-08-21T10:25:30.000Z</time>
      </trkpt>
      <trkpt lat="45.2649" lon="6.04179">
        <ele>1857.4000244141</ele>
        <time>2026-08-21T10:25:31.000Z</time>
      </trkpt>
      <trkpt lat="45.26492" lon="6.04178">
        <ele>1857.4000244141</ele>
        <time>2026-08-21T10:25:32.000Z</time>
      </trkpt>
      <trkpt lat="45.26493" lon="6.04177">
        <ele>1857.1999511719</ele>
        <time>2026-08-21T10:25:33.000Z</time>
      </trkpt>
      <trkpt lat="45.26495" lon="6.04176">
        <ele>1857.1999511719</ele>
        <time>2026-08-21T10:25:34.000Z</time>
      </trkpt>
      <trkpt lat="45.26496" lon="6.04175">
        <ele>1857.1999511719</ele>
        <time>2026-08-21T10:25:35.000Z</time>
      </trkpt>
      <trkpt lat="45.26497" lon="6.04174">
        <ele>1857.4000244141</ele>
        <time>2026-08-21T10:25:36.000Z</time>
      </trkpt>
      <trkpt lat="45.26498" lon="6.04172">
        <ele>1858</ele>
        <time>2026-08-21T10:25:37.000Z</time>
      </trkpt>
      <trkpt lat="45.26499" lon="6.0417">
        <ele>1858.8000488281</ele>
        <time>2026-08-21T10:25:38.000Z</time>
      </trkpt>
      <trkpt lat="45.26501" lon="6.04169">
        <ele>1859.4000244141</ele>
        <time>2026-08-21T10:25:39.000Z</time>
      </trkpt>
      <trkpt lat="45.26502" lon="6.04167">
        <ele>1859.8000488281</ele>
        <time>2026-08-21T10:25:40.000Z</time>
      </trkpt>
      <trkpt lat="45.26503" lon="6.04165">
        <ele>1860.1999511719</ele>
        <time>2026-08-21T10:25:41.000Z</time>
      </trkpt>
      <trkpt lat="45.26504" lon="6.04164">
        <ele>1861</ele>
        <time>2026-08-21T10:25:42.000Z</time>
      </trkpt>
      <trkpt lat="45.26505" lon="6.04162">
        <ele>1861.1999511719</ele>
        <time>2026-08-21T10:25:43.000Z</time>
      </trkpt>
      <trkpt lat="45.26506" lon="6.0416">
        <ele>1861.4000244141</ele>
        <time>2026-08-21T10:25:44.000Z</time>
      </trkpt>
      <trkpt lat="45.26507" lon="6.04158">
        <ele>1861.8000488281</ele>
        <time>2026-08-21T10:25:45.000Z</time>
      </trkpt>
      <trkpt lat="45.26508" lon="6.04157">
        <ele>1862</ele>
        <time>2026-08-21T10:25:46.000Z</time>
      </trkpt>
      <trkpt lat="45.26509" lon="6.04155">
        <ele>1862</ele>
        <time>2026-08-21T10:25:47.000Z</time>
      </trkpt>
      <trkpt lat="45.2651" lon="6.04153">
        <ele>1862.1999511719</ele>
        <time>2026-08-21T10:25:48.000Z</time>
      </trkpt>
      <trkpt lat="45.26511" lon="6.04151">
        <ele>1862.4000244141</ele>
        <time>2026-08-21T10:25:49.000Z</time>
      </trkpt>
      <trkpt lat="45.26511" lon="6.0415">
        <ele>1862.8000488281</ele>
        <time>2026-08-21T10:25:50.000Z</time>
      </trkpt>
      <trkpt lat="45.26512" lon="6.04148">
        <ele>1862.8000488281</ele>
        <time>2026-08-21T10:25:51.000Z</time>
      </trkpt>
      <trkpt lat="45.26513" lon="6.04146">
        <ele>1863</ele>
        <time>2026-08-21T10:25:52.000Z</time>
      </trkpt>
      <trkpt lat="45.26513" lon="6.04144">
        <ele>1863.1999511719</ele>
        <time>2026-08-21T10:25:53.000Z</time>
      </trkpt>
      <trkpt lat="45.26514" lon="6.04142">
        <ele>1863.5999755859</ele>
        <time>2026-08-21T10:25:54.000Z</time>
      </trkpt>
      <trkpt lat="45.26514" lon="6.0414">
        <ele>1863.8000488281</ele>
        <time>2026-08-21T10:25:55.000Z</time>
      </trkpt>
      <trkpt lat="45.26514" lon="6.04139">
        <ele>1864.1999511719</ele>
        <time>2026-08-21T10:25:56.000Z</time>
      </trkpt>
      <trkpt lat="45.26515" lon="6.04137">
        <ele>1864.5999755859</ele>
        <time>2026-08-21T10:25:57.000Z</time>
      </trkpt>
      <trkpt lat="45.26515" lon="6.04134">
        <ele>1864.1999511719</ele>
        <time>2026-08-21T10:25:58.000Z</time>
      </trkpt>
      <trkpt lat="45.26515" lon="6.04133">
        <ele>1863.8000488281</ele>
        <time>2026-08-21T10:25:59.000Z</time>
      </trkpt>
      <trkpt lat="45.26516" lon="6.04131">
        <ele>1863.8000488281</ele>
        <time>2026-08-21T10:26:00.000Z</time>
      </trkpt>
      <trkpt lat="45.26516" lon="6.0413">
        <ele>1863.4000244141</ele>
        <time>2026-08-21T10:26:01.000Z</time>
      </trkpt>
      <trkpt lat="45.26516" lon="6.04128">
        <ele>1863.1999511719</ele>
        <time>2026-08-21T10:26:02.000Z</time>
      </trkpt>
      <trkpt lat="45.26517" lon="6.04126">
        <ele>1862.8000488281</ele>
        <time>2026-08-21T10:26:03.000Z</time>
      </trkpt>
      <trkpt lat="45.26517" lon="6.04124">
        <ele>1863.4000244141</ele>
        <time>2026-08-21T10:26:04.000Z</time>
      </trkpt>
      <trkpt lat="45.26518" lon="6.04122">
        <ele>1863.4000244141</ele>
        <time>2026-08-21T10:26:05.000Z</time>
      </trkpt>
      <trkpt lat="45.26518" lon="6.04121">
        <ele>1863.5999755859</ele>
        <time>2026-08-21T10:26:06.000Z</time>
      </trkpt>
      <trkpt lat="45.26518" lon="6.04118">
        <ele>1863.8000488281</ele>
        <time>2026-08-21T10:26:07.000Z</time>
      </trkpt>
      <trkpt lat="45.26518" lon="6.04117">
        <ele>1863</ele>
        <time>2026-08-21T10:26:08.000Z</time>
      </trkpt>
      <trkpt lat="45.26517" lon="6.04115">
        <ele>1862</ele>
        <time>2026-08-21T10:26:09.000Z</time>
      </trkpt>
      <trkpt lat="45.26517" lon="6.04113">
        <ele>1861.1999511719</ele>
        <time>2026-08-21T10:26:10.000Z</time>
      </trkpt>
      <trkpt lat="45.26517" lon="6.04111">
        <ele>1861</ele>
        <time>2026-08-21T10:26:11.000Z</time>
      </trkpt>
      <trkpt lat="45.26517" lon="6.0411">
        <ele>1861</ele>
        <time>2026-08-21T10:26:12.000Z</time>
      </trkpt>
      <trkpt lat="45.26516" lon="6.04108">
        <ele>1860.8000488281</ele>
        <time>2026-08-21T10:26:13.000Z</time>
      </trkpt>
      <trkpt lat="45.26515" lon="6.04106">
        <ele>1861.4000244141</ele>
        <time>2026-08-21T10:26:14.000Z</time>
      </trkpt>
      <trkpt lat="45.26515" lon="6.04104">
        <ele>1862</ele>
        <time>2026-08-21T10:26:15.000Z</time>
      </trkpt>
      <trkpt lat="45.26514" lon="6.04102">
        <ele>1862.8000488281</ele>
        <time>2026-08-21T10:26:16.000Z</time>
      </trkpt>
      <trkpt lat="45.26513" lon="6.04101">
        <ele>1863.1999511719</ele>
        <time>2026-08-21T10:26:17.000Z</time>
      </trkpt>
      <trkpt lat="45.26513" lon="6.04099">
        <ele>1863.5999755859</ele>
        <time>2026-08-21T10:26:18.000Z</time>
      </trkpt>
      <trkpt lat="45.26512" lon="6.04098">
        <ele>1863.8000488281</ele>
        <time>2026-08-21T10:26:19.000Z</time>
      </trkpt>
      <trkpt lat="45.26511" lon="6.04096">
        <ele>1864</ele>
        <time>2026-08-21T10:26:20.000Z</time>
      </trkpt>
      <trkpt lat="45.2651" lon="6.04095">
        <ele>1864.1999511719</ele>
        <time>2026-08-21T10:26:21.000Z</time>
      </trkpt>
      <trkpt lat="45.2651" lon="6.04093">
        <ele>1864.4000244141</ele>
        <time>2026-08-21T10:26:22.000Z</time>
      </trkpt>
      <trkpt lat="45.26509" lon="6.04092">
        <ele>1864.1999511719</ele>
        <time>2026-08-21T10:26:23.000Z</time>
      </trkpt>
      <trkpt lat="45.26508" lon="6.04091">
        <ele>1864.1999511719</ele>
        <time>2026-08-21T10:26:24.000Z</time>
      </trkpt>
      <trkpt lat="45.26507" lon="6.04091">
        <ele>1864</ele>
        <time>2026-08-21T10:26:25.000Z</time>
      </trkpt>
      <trkpt lat="45.26506" lon="6.04089">
        <ele>1863.5999755859</ele>
        <time>2026-08-21T10:26:26.000Z</time>
      </trkpt>
      <trkpt lat="45.26505" lon="6.04088">
        <ele>1862.8000488281</ele>
        <time>2026-08-21T10:26:27.000Z</time>
      </trkpt>
      <trkpt lat="45.26504" lon="6.04087">
        <ele>1862.5999755859</ele>
        <time>2026-08-21T10:26:28.000Z</time>
      </trkpt>
      <trkpt lat="45.26503" lon="6.04085">
        <ele>1862.1999511719</ele>
        <time>2026-08-21T10:26:29.000Z</time>
      </trkpt>
      <trkpt lat="45.26502" lon="6.04084">
        <ele>1862.1999511719</ele>
        <time>2026-08-21T10:26:30.000Z</time>
      </trkpt>
      <trkpt lat="45.26501" lon="6.04084">
        <ele>1862.4000244141</ele>
        <time>2026-08-21T10:26:31.000Z</time>
      </trkpt>
      <trkpt lat="45.265" lon="6.04083">
        <ele>1863.1999511719</ele>
        <time>2026-08-21T10:26:32.000Z</time>
      </trkpt>
      <trkpt lat="45.26499" lon="6.04083">
        <ele>1864.4000244141</ele>
        <time>2026-08-21T10:26:33.000Z</time>
      </trkpt>
      <trkpt lat="45.26498" lon="6.04082">
        <ele>1865</ele>
        <time>2026-08-21T10:26:34.000Z</time>
      </trkpt>
      <trkpt lat="45.26497" lon="6.04081">
        <ele>1865.5999755859</ele>
        <time>2026-08-21T10:26:35.000Z</time>
      </trkpt>
      <trkpt lat="45.26496" lon="6.0408">
        <ele>1866.1999511719</ele>
        <time>2026-08-21T10:26:36.000Z</time>
      </trkpt>
      <trkpt lat="45.26494" lon="6.0408">
        <ele>1867.1999511719</ele>
        <time>2026-08-21T10:26:37.000Z</time>
      </trkpt>
      <trkpt lat="45.26493" lon="6.04079">
        <ele>1868</ele>
        <time>2026-08-21T10:26:38.000Z</time>
      </trkpt>
      <trkpt lat="45.26491" lon="6.04078">
        <ele>1868.8000488281</ele>
        <time>2026-08-21T10:26:39.000Z</time>
      </trkpt>
      <trkpt lat="45.2649" lon="6.04077">
        <ele>1869.1999511719</ele>
        <time>2026-08-21T10:26:40.000Z</time>
      </trkpt>
      <trkpt lat="45.26489" lon="6.04077">
        <ele>1869.8000488281</ele>
        <time>2026-08-21T10:26:41.000Z</time>
      </trkpt>
      <trkpt lat="45.26487" lon="6.04077">
        <ele>1870.1999511719</ele>
        <time>2026-08-21T10:26:42.000Z</time>
      </trkpt>
      <trkpt lat="45.26486" lon="6.04076">
        <ele>1870.8000488281</ele>
        <time>2026-08-21T10:26:43.000Z</time>
      </trkpt>
      <trkpt lat="45.26485" lon="6.04076">
        <ele>1871.1999511719</ele>
        <time>2026-08-21T10:26:44.000Z</time>
      </trkpt>
      <trkpt lat="45.26483" lon="6.04076">
        <ele>1870.4000244141</ele>
        <time>2026-08-21T10:26:45.000Z</time>
      </trkpt>
      <trkpt lat="45.26482" lon="6.04076">
        <ele>1869.4000244141</ele>
        <time>2026-08-21T10:26:46.000Z</time>
      </trkpt>
      <trkpt lat="45.26481" lon="6.04078">
        <ele>1869</ele>
        <time>2026-08-21T10:26:47.000Z</time>
      </trkpt>
      <trkpt lat="45.26479" lon="6.04078">
        <ele>1869.1999511719</ele>
        <time>2026-08-21T10:26:48.000Z</time>
      </trkpt>
      <trkpt lat="45.26478" lon="6.04079">
        <ele>1869.4000244141</ele>
        <time>2026-08-21T10:26:49.000Z</time>
      </trkpt>
      <trkpt lat="45.26477" lon="6.04081">
        <ele>1869.5999755859</ele>
        <time>2026-08-21T10:26:50.000Z</time>
      </trkpt>
      <trkpt lat="45.26475" lon="6.04082">
        <ele>1871.4000244141</ele>
        <time>2026-08-21T10:26:51.000Z</time>
      </trkpt>
      <trkpt lat="45.26474" lon="6.04083">
        <ele>1872</ele>
        <time>2026-08-21T10:26:52.000Z</time>
      </trkpt>
      <trkpt lat="45.26473" lon="6.04084">
        <ele>1872.4000244141</ele>
        <time>2026-08-21T10:26:53.000Z</time>
      </trkpt>
      <trkpt lat="45.26472" lon="6.04085">
        <ele>1872.5999755859</ele>
        <time>2026-08-21T10:26:54.000Z</time>
      </trkpt>
      <trkpt lat="45.2647" lon="6.04085">
        <ele>1872.8000488281</ele>
        <time>2026-08-21T10:26:55.000Z</time>
      </trkpt>
      <trkpt lat="45.26469" lon="6.04086">
        <ele>1873.5999755859</ele>
        <time>2026-08-21T10:26:56.000Z</time>
      </trkpt>
      <trkpt lat="45.26468" lon="6.04086">
        <ele>1874.1999511719</ele>
        <time>2026-08-21T10:26:57.000Z</time>
      </trkpt>
      <trkpt lat="45.26467" lon="6.04086">
        <ele>1874.5999755859</ele>
        <time>2026-08-21T10:26:58.000Z</time>
      </trkpt>
      <trkpt lat="45.26466" lon="6.04087">
        <ele>1874.8000488281</ele>
        <time>2026-08-21T10:26:59.000Z</time>
      </trkpt>
      <trkpt lat="45.26465" lon="6.04087">
        <ele>1874.5999755859</ele>
        <time>2026-08-21T10:27:00.000Z</time>
      </trkpt>
      <trkpt lat="45.26464" lon="6.04088">
        <ele>1874.4000244141</ele>
        <time>2026-08-21T10:27:01.000Z</time>
      </trkpt>
      <trkpt lat="45.26462" lon="6.04088">
        <ele>1874.1999511719</ele>
        <time>2026-08-21T10:27:02.000Z</time>
      </trkpt>
      <trkpt lat="45.26462" lon="6.04089">
        <ele>1874.1999511719</ele>
        <time>2026-08-21T10:27:03.000Z</time>
      </trkpt>
      <trkpt lat="45.26461" lon="6.04089">
        <ele>1874.1999511719</ele>
        <time>2026-08-21T10:27:04.000Z</time>
      </trkpt>
      <trkpt lat="45.26459" lon="6.0409">
        <ele>1874.4000244141</ele>
        <time>2026-08-21T10:27:05.000Z</time>
      </trkpt>
      <trkpt lat="45.26458" lon="6.0409">
        <ele>1874.5999755859</ele>
        <time>2026-08-21T10:27:06.000Z</time>
      </trkpt>
      <trkpt lat="45.26457" lon="6.0409">
        <ele>1874.8000488281</ele>
        <time>2026-08-21T10:27:07.000Z</time>
      </trkpt>
      <trkpt lat="45.26456" lon="6.04091">
        <ele>1875</ele>
        <time>2026-08-21T10:27:08.000Z</time>
      </trkpt>
      <trkpt lat="45.26455" lon="6.04092">
        <ele>1875.1999511719</ele>
        <time>2026-08-21T10:27:09.000Z</time>
      </trkpt>
      <trkpt lat="45.26454" lon="6.04093">
        <ele>1875</ele>
        <time>2026-08-21T10:27:10.000Z</time>
      </trkpt>
      <trkpt lat="45.26453" lon="6.04093">
        <ele>1875</ele>
        <time>2026-08-21T10:27:11.000Z</time>
      </trkpt>
      <trkpt lat="45.26452" lon="6.04093">
        <ele>1875</ele>
        <time>2026-08-21T10:27:12.000Z</time>
      </trkpt>
      <trkpt lat="45.26451" lon="6.04093">
        <ele>1875.1999511719</ele>
        <time>2026-08-21T10:27:13.000Z</time>
      </trkpt>
      <trkpt lat="45.2645" lon="6.04093">
        <ele>1875.4000244141</ele>
        <time>2026-08-21T10:27:14.000Z</time>
      </trkpt>
      <trkpt lat="45.26449" lon="6.04093">
        <ele>1876</ele>
        <time>2026-08-21T10:27:15.000Z</time>
      </trkpt>
      <trkpt lat="45.26448" lon="6.04093">
        <ele>1876.4000244141</ele>
        <time>2026-08-21T10:27:16.000Z</time>
      </trkpt>
      <trkpt lat="45.26447" lon="6.04093">
        <ele>1876.5999755859</ele>
        <time>2026-08-21T10:27:17.000Z</time>
      </trkpt>
      <trkpt lat="45.26445" lon="6.04093">
        <ele>1877.4000244141</ele>
        <time>2026-08-21T10:27:18.000Z</time>
      </trkpt>
      <trkpt lat="45.26444" lon="6.04093">
        <ele>1877.8000488281</ele>
        <time>2026-08-21T10:27:19.000Z</time>
      </trkpt>
      <trkpt lat="45.26443" lon="6.04093">
        <ele>1878</ele>
        <time>2026-08-21T10:27:20.000Z</time>
      </trkpt>
      <trkpt lat="45.26442" lon="6.04093">
        <ele>1878.5999755859</ele>
        <time>2026-08-21T10:27:21.000Z</time>
      </trkpt>
      <trkpt lat="45.26441" lon="6.04093">
        <ele>1879</ele>
        <time>2026-08-21T10:27:22.000Z</time>
      </trkpt>
      <trkpt lat="45.26439" lon="6.04093">
        <ele>1879.4000244141</ele>
        <time>2026-08-21T10:27:23.000Z</time>
      </trkpt>
      <trkpt lat="45.26438" lon="6.04093">
        <ele>1879.4000244141</ele>
        <time>2026-08-21T10:27:24.000Z</time>
      </trkpt>
      <trkpt lat="45.26437" lon="6.04093">
        <ele>1879.4000244141</ele>
        <time>2026-08-21T10:27:25.000Z</time>
      </trkpt>
      <trkpt lat="45.26435" lon="6.04092">
        <ele>1879.4000244141</ele>
        <time>2026-08-21T10:27:26.000Z</time>
      </trkpt>
      <trkpt lat="45.26434" lon="6.04092">
        <ele>1879.4000244141</ele>
        <time>2026-08-21T10:27:27.000Z</time>
      </trkpt>
      <trkpt lat="45.26433" lon="6.04092">
        <ele>1879.1999511719</ele>
        <time>2026-08-21T10:27:28.000Z</time>
      </trkpt>
      <trkpt lat="45.26432" lon="6.04092">
        <ele>1879.4000244141</ele>
        <time>2026-08-21T10:27:29.000Z</time>
      </trkpt>
      <trkpt lat="45.26431" lon="6.04092">
        <ele>1879.4000244141</ele>
        <time>2026-08-21T10:27:30.000Z</time>
      </trkpt>
      <trkpt lat="45.26429" lon="6.04092">
        <ele>1879.4000244141</ele>
        <time>2026-08-21T10:27:31.000Z</time>
      </trkpt>
      <trkpt lat="45.26428" lon="6.04093">
        <ele>1879.4000244141</ele>
        <time>2026-08-21T10:27:32.000Z</time>
      </trkpt>
      <trkpt lat="45.26427" lon="6.04093">
        <ele>1879.4000244141</ele>
        <time>2026-08-21T10:27:33.000Z</time>
      </trkpt>
      <trkpt lat="45.26425" lon="6.04094">
        <ele>1879.5999755859</ele>
        <time>2026-08-21T10:27:34.000Z</time>
      </trkpt>
      <trkpt lat="45.26424" lon="6.04094">
        <ele>1879.5999755859</ele>
        <time>2026-08-21T10:27:35.000Z</time>
      </trkpt>
      <trkpt lat="45.26423" lon="6.04095">
        <ele>1879.5999755859</ele>
        <time>2026-08-21T10:27:36.000Z</time>
      </trkpt>
      <trkpt lat="45.26422" lon="6.04095">
        <ele>1879.5999755859</ele>
        <time>2026-08-21T10:27:37.000Z</time>
      </trkpt>
      <trkpt lat="45.26421" lon="6.04095">
        <ele>1879.4000244141</ele>
        <time>2026-08-21T10:27:38.000Z</time>
      </trkpt>
      <trkpt lat="45.26419" lon="6.04095">
        <ele>1879.1999511719</ele>
        <time>2026-08-21T10:27:39.000Z</time>
      </trkpt>
      <trkpt lat="45.26418" lon="6.04096">
        <ele>1879.1999511719</ele>
        <time>2026-08-21T10:27:40.000Z</time>
      </trkpt>
      <trkpt lat="45.26417" lon="6.04096">
        <ele>1879</ele>
        <time>2026-08-21T10:27:41.000Z</time>
      </trkpt>
      <trkpt lat="45.26416" lon="6.04096">
        <ele>1879.1999511719</ele>
        <time>2026-08-21T10:27:42.000Z</time>
      </trkpt>
      <trkpt lat="45.26415" lon="6.04097">
        <ele>1879.5999755859</ele>
        <time>2026-08-21T10:27:43.000Z</time>
      </trkpt>
      <trkpt lat="45.26414" lon="6.04096">
        <ele>1879.8000488281</ele>
        <time>2026-08-21T10:27:44.000Z</time>
      </trkpt>
      <trkpt lat="45.26413" lon="6.04096">
        <ele>1880</ele>
        <time>2026-08-21T10:27:45.000Z</time>
      </trkpt>
      <trkpt lat="45.26412" lon="6.04097">
        <ele>1880.1999511719</ele>
        <time>2026-08-21T10:27:46.000Z</time>
      </trkpt>
      <trkpt lat="45.26411" lon="6.04098">
        <ele>1880.5999755859</ele>
        <time>2026-08-21T10:27:47.000Z</time>
      </trkpt>
      <trkpt lat="45.2641" lon="6.04099">
        <ele>1880.5999755859</ele>
        <time>2026-08-21T10:27:48.000Z</time>
      </trkpt>
      <trkpt lat="45.26409" lon="6.04099">
        <ele>1880.8000488281</ele>
        <time>2026-08-21T10:27:49.000Z</time>
      </trkpt>
      <trkpt lat="45.26407" lon="6.04099">
        <ele>1880.8000488281</ele>
        <time>2026-08-21T10:27:50.000Z</time>
      </trkpt>
      <trkpt lat="45.26406" lon="6.041">
        <ele>1881.4000244141</ele>
        <time>2026-08-21T10:27:51.000Z</time>
      </trkpt>
      <trkpt lat="45.26405" lon="6.041">
        <ele>1881.8000488281</ele>
        <time>2026-08-21T10:27:52.000Z</time>
      </trkpt>
      <trkpt lat="45.26404" lon="6.041">
        <ele>1882.4000244141</ele>
        <time>2026-08-21T10:27:53.000Z</time>
      </trkpt>
      <trkpt lat="45.26403" lon="6.041">
        <ele>1882.8000488281</ele>
        <time>2026-08-21T10:27:54.000Z</time>
      </trkpt>
      <trkpt lat="45.26402" lon="6.041">
        <ele>1883</ele>
        <time>2026-08-21T10:27:55.000Z</time>
      </trkpt>
      <trkpt lat="45.26402" lon="6.04101">
        <ele>1883</ele>
        <time>2026-08-21T10:27:56.000Z</time>
      </trkpt>
      <trkpt lat="45.26401" lon="6.041">
        <ele>1883.1999511719</ele>
        <time>2026-08-21T10:27:57.000Z</time>
      </trkpt>
      <trkpt lat="45.26399" lon="6.04101">
        <ele>1883.1999511719</ele>
        <time>2026-08-21T10:27:58.000Z</time>
      </trkpt>
      <trkpt lat="45.26398" lon="6.04101">
        <ele>1883.1999511719</ele>
        <time>2026-08-21T10:27:59.000Z</time>
      </trkpt>
      <trkpt lat="45.26397" lon="6.04102">
        <ele>1883.5999755859</ele>
        <time>2026-08-21T10:28:00.000Z</time>
      </trkpt>
      <trkpt lat="45.26396" lon="6.04102">
        <ele>1884</ele>
        <time>2026-08-21T10:28:01.000Z</time>
      </trkpt>
      <trkpt lat="45.26396" lon="6.04102">
        <ele>1884.1999511719</ele>
        <time>2026-08-21T10:28:02.000Z</time>
      </trkpt>
      <trkpt lat="45.26394" lon="6.04102">
        <ele>1884.4000244141</ele>
        <time>2026-08-21T10:28:03.000Z</time>
      </trkpt>
      <trkpt lat="45.26393" lon="6.04103">
        <ele>1884.5999755859</ele>
        <time>2026-08-21T10:28:04.000Z</time>
      </trkpt>
      <trkpt lat="45.26392" lon="6.04103">
        <ele>1884.8000488281</ele>
        <time>2026-08-21T10:28:05.000Z</time>
      </trkpt>
      <trkpt lat="45.26391" lon="6.04103">
        <ele>1885</ele>
        <time>2026-08-21T10:28:06.000Z</time>
      </trkpt>
      <trkpt lat="45.2639" lon="6.04103">
        <ele>1885.4000244141</ele>
        <time>2026-08-21T10:28:07.000Z</time>
      </trkpt>
      <trkpt lat="45.26389" lon="6.04103">
        <ele>1885.5999755859</ele>
        <time>2026-08-21T10:28:08.000Z</time>
      </trkpt>
      <trkpt lat="45.26388" lon="6.04103">
        <ele>1886.8000488281</ele>
        <time>2026-08-21T10:28:09.000Z</time>
      </trkpt>
      <trkpt lat="45.26387" lon="6.04103">
        <ele>1887.8000488281</ele>
        <time>2026-08-21T10:28:10.000Z</time>
      </trkpt>
      <trkpt lat="45.26386" lon="6.04102">
        <ele>1888</ele>
        <time>2026-08-21T10:28:11.000Z</time>
      </trkpt>
      <trkpt lat="45.26385" lon="6.04102">
        <ele>1888</ele>
        <time>2026-08-21T10:28:12.000Z</time>
      </trkpt>
      <trkpt lat="45.26384" lon="6.04102">
        <ele>1888.1999511719</ele>
        <time>2026-08-21T10:28:13.000Z</time>
      </trkpt>
      <trkpt lat="45.26383" lon="6.04103">
        <ele>1888.8000488281</ele>
        <time>2026-08-21T10:28:14.000Z</time>
      </trkpt>
      <trkpt lat="45.26382" lon="6.04103">
        <ele>1889</ele>
        <time>2026-08-21T10:28:15.000Z</time>
      </trkpt>
      <trkpt lat="45.26381" lon="6.04103">
        <ele>1889.1999511719</ele>
        <time>2026-08-21T10:28:16.000Z</time>
      </trkpt>
      <trkpt lat="45.26379" lon="6.04103">
        <ele>1889.4000244141</ele>
        <time>2026-08-21T10:28:17.000Z</time>
      </trkpt>
      <trkpt lat="45.26378" lon="6.04103">
        <ele>1890</ele>
        <time>2026-08-21T10:28:18.000Z</time>
      </trkpt>
      <trkpt lat="45.26377" lon="6.04103">
        <ele>1890.5999755859</ele>
        <time>2026-08-21T10:28:19.000Z</time>
      </trkpt>
      <trkpt lat="45.26376" lon="6.04102">
        <ele>1891</ele>
        <time>2026-08-21T10:28:20.000Z</time>
      </trkpt>
      <trkpt lat="45.26374" lon="6.04102">
        <ele>1891.1999511719</ele>
        <time>2026-08-21T10:28:21.000Z</time>
      </trkpt>
      <trkpt lat="45.26373" lon="6.04101">
        <ele>1891.1999511719</ele>
        <time>2026-08-21T10:28:22.000Z</time>
      </trkpt>
      <trkpt lat="45.26372" lon="6.04101">
        <ele>1891.4000244141</ele>
        <time>2026-08-21T10:28:23.000Z</time>
      </trkpt>
      <trkpt lat="45.26371" lon="6.04101">
        <ele>1891.5999755859</ele>
        <time>2026-08-21T10:28:24.000Z</time>
      </trkpt>
      <trkpt lat="45.2637" lon="6.04101">
        <ele>1891.5999755859</ele>
        <time>2026-08-21T10:28:25.000Z</time>
      </trkpt>
      <trkpt lat="45.26369" lon="6.041">
        <ele>1891.5999755859</ele>
        <time>2026-08-21T10:28:26.000Z</time>
      </trkpt>
      <trkpt lat="45.26368" lon="6.041">
        <ele>1891.4000244141</ele>
        <time>2026-08-21T10:28:27.000Z</time>
      </trkpt>
      <trkpt lat="45.26366" lon="6.04099">
        <ele>1891.4000244141</ele>
        <time>2026-08-21T10:28:28.000Z</time>
      </trkpt>
      <trkpt lat="45.26365" lon="6.04099">
        <ele>1891.1999511719</ele>
        <time>2026-08-21T10:28:29.000Z</time>
      </trkpt>
      <trkpt lat="45.26364" lon="6.04099">
        <ele>1891.1999511719</ele>
        <time>2026-08-21T10:28:30.000Z</time>
      </trkpt>
      <trkpt lat="45.26363" lon="6.04099">
        <ele>1891.5999755859</ele>
        <time>2026-08-21T10:28:31.000Z</time>
      </trkpt>
      <trkpt lat="45.26362" lon="6.04099">
        <ele>1891.8000488281</ele>
        <time>2026-08-21T10:28:32.000Z</time>
      </trkpt>
      <trkpt lat="45.26361" lon="6.04098">
        <ele>1892</ele>
        <time>2026-08-21T10:28:33.000Z</time>
      </trkpt>
      <trkpt lat="45.2636" lon="6.04098">
        <ele>1892.8000488281</ele>
        <time>2026-08-21T10:28:34.000Z</time>
      </trkpt>
      <trkpt lat="45.26359" lon="6.04098">
        <ele>1893.4000244141</ele>
        <time>2026-08-21T10:28:35.000Z</time>
      </trkpt>
      <trkpt lat="45.26357" lon="6.04097">
        <ele>1894.1999511719</ele>
        <time>2026-08-21T10:28:36.000Z</time>
      </trkpt>
      <trkpt lat="45.26357" lon="6.04097">
        <ele>1894.4000244141</ele>
        <time>2026-08-21T10:28:37.000Z</time>
      </trkpt>
      <trkpt lat="45.26356" lon="6.04096">
        <ele>1894.8000488281</ele>
        <time>2026-08-21T10:28:38.000Z</time>
      </trkpt>
      <trkpt lat="45.26355" lon="6.04095">
        <ele>1895</ele>
        <time>2026-08-21T10:28:39.000Z</time>
      </trkpt>
      <trkpt lat="45.26354" lon="6.04095">
        <ele>1895.1999511719</ele>
        <time>2026-08-21T10:28:40.000Z</time>
      </trkpt>
      <trkpt lat="45.26353" lon="6.04094">
        <ele>1895.5999755859</ele>
        <time>2026-08-21T10:28:41.000Z</time>
      </trkpt>
      <trkpt lat="45.26352" lon="6.04094">
        <ele>1895.8000488281</ele>
        <time>2026-08-21T10:28:42.000Z</time>
      </trkpt>
      <trkpt lat="45.26351" lon="6.04094">
        <ele>1896</ele>
        <time>2026-08-21T10:28:43.000Z</time>
      </trkpt>
      <trkpt lat="45.26349" lon="6.04093">
        <ele>1896.1999511719</ele>
        <time>2026-08-21T10:28:44.000Z</time>
      </trkpt>
      <trkpt lat="45.26348" lon="6.04093">
        <ele>1896.5999755859</ele>
        <time>2026-08-21T10:28:45.000Z</time>
      </trkpt>
      <trkpt lat="45.26347" lon="6.04093">
        <ele>1896.8000488281</ele>
        <time>2026-08-21T10:28:46.000Z</time>
      </trkpt>
      <trkpt lat="45.26346" lon="6.04093">
        <ele>1898</ele>
        <time>2026-08-21T10:28:47.000Z</time>
      </trkpt>
      <trkpt lat="45.26345" lon="6.04092">
        <ele>1899</ele>
        <time>2026-08-21T10:28:48.000Z</time>
      </trkpt>
      <trkpt lat="45.26344" lon="6.04092">
        <ele>1899.8000488281</ele>
        <time>2026-08-21T10:28:49.000Z</time>
      </trkpt>
      <trkpt lat="45.26342" lon="6.04092">
        <ele>1899.8000488281</ele>
        <time>2026-08-21T10:28:50.000Z</time>
      </trkpt>
      <trkpt lat="45.26341" lon="6.04092">
        <ele>1899.8000488281</ele>
        <time>2026-08-21T10:28:51.000Z</time>
      </trkpt>
      <trkpt lat="45.2634" lon="6.04091">
        <ele>1899.8000488281</ele>
        <time>2026-08-21T10:28:52.000Z</time>
      </trkpt>
      <trkpt lat="45.26339" lon="6.04091">
        <ele>1899.5999755859</ele>
        <time>2026-08-21T10:28:53.000Z</time>
      </trkpt>
      <trkpt lat="45.26338" lon="6.0409">
        <ele>1899.5999755859</ele>
        <time>2026-08-21T10:28:54.000Z</time>
      </trkpt>
      <trkpt lat="45.26337" lon="6.0409">
        <ele>1899.4000244141</ele>
        <time>2026-08-21T10:28:55.000Z</time>
      </trkpt>
      <trkpt lat="45.26336" lon="6.04089">
        <ele>1899.1999511719</ele>
        <time>2026-08-21T10:28:56.000Z</time>
      </trkpt>
      <trkpt lat="45.26335" lon="6.04089">
        <ele>1899.1999511719</ele>
        <time>2026-08-21T10:28:57.000Z</time>
      </trkpt>
      <trkpt lat="45.26334" lon="6.04089">
        <ele>1899.4000244141</ele>
        <time>2026-08-21T10:28:58.000Z</time>
      </trkpt>
      <trkpt lat="45.26333" lon="6.04088">
        <ele>1899.5999755859</ele>
        <time>2026-08-21T10:28:59.000Z</time>
      </trkpt>
      <trkpt lat="45.26332" lon="6.04088">
        <ele>1899.5999755859</ele>
        <time>2026-08-21T10:29:00.000Z</time>
      </trkpt>
      <trkpt lat="45.26331" lon="6.04087">
        <ele>1899.8000488281</ele>
        <time>2026-08-21T10:29:01.000Z</time>
      </trkpt>
      <trkpt lat="45.2633" lon="6.04086">
        <ele>1900</ele>
        <time>2026-08-21T10:29:02.000Z</time>
      </trkpt>
      <trkpt lat="45.26329" lon="6.04086">
        <ele>1900.1999511719</ele>
        <time>2026-08-21T10:29:03.000Z</time>
      </trkpt>
      <trkpt lat="45.26328" lon="6.04085">
        <ele>1900.4000244141</ele>
        <time>2026-08-21T10:29:04.000Z</time>
      </trkpt>
      <trkpt lat="45.26327" lon="6.04084">
        <ele>1900.4000244141</ele>
        <time>2026-08-21T10:29:05.000Z</time>
      </trkpt>
      <trkpt lat="45.26326" lon="6.04084">
        <ele>1900.4000244141</ele>
        <time>2026-08-21T10:29:06.000Z</time>
      </trkpt>
      <trkpt lat="45.26325" lon="6.04083">
        <ele>1900.5999755859</ele>
        <time>2026-08-21T10:29:07.000Z</time>
      </trkpt>
      <trkpt lat="45.26324" lon="6.04082">
        <ele>1900.8000488281</ele>
        <time>2026-08-21T10:29:08.000Z</time>
      </trkpt>
      <trkpt lat="45.26323" lon="6.04082">
        <ele>1901</ele>
        <time>2026-08-21T10:29:09.000Z</time>
      </trkpt>
      <trkpt lat="45.26322" lon="6.04081">
        <ele>1901.4000244141</ele>
        <time>2026-08-21T10:29:10.000Z</time>
      </trkpt>
      <trkpt lat="45.26321" lon="6.0408">
        <ele>1902</ele>
        <time>2026-08-21T10:29:11.000Z</time>
      </trkpt>
      <trkpt lat="45.2632" lon="6.0408">
        <ele>1902.1999511719</ele>
        <time>2026-08-21T10:29:12.000Z</time>
      </trkpt>
      <trkpt lat="45.2632" lon="6.04079">
        <ele>1902.8000488281</ele>
        <time>2026-08-21T10:29:13.000Z</time>
      </trkpt>
      <trkpt lat="45.26319" lon="6.04077">
        <ele>1903</ele>
        <time>2026-08-21T10:29:14.000Z</time>
      </trkpt>
      <trkpt lat="45.26318" lon="6.04078">
        <ele>1903.4000244141</ele>
        <time>2026-08-21T10:29:15.000Z</time>
      </trkpt>
      <trkpt lat="45.26317" lon="6.04078">
        <ele>1903.8000488281</ele>
        <time>2026-08-21T10:29:16.000Z</time>
      </trkpt>
      <trkpt lat="45.26316" lon="6.04077">
        <ele>1904.5999755859</ele>
        <time>2026-08-21T10:29:17.000Z</time>
      </trkpt>
      <trkpt lat="45.26315" lon="6.04076">
        <ele>1905.4000244141</ele>
        <time>2026-08-21T10:29:18.000Z</time>
      </trkpt>
      <trkpt lat="45.26315" lon="6.04075">
        <ele>1906</ele>
        <time>2026-08-21T10:29:19.000Z</time>
      </trkpt>
      <trkpt lat="45.26314" lon="6.04074">
        <ele>1906.4000244141</ele>
        <time>2026-08-21T10:29:20.000Z</time>
      </trkpt>
      <trkpt lat="45.26313" lon="6.04074">
        <ele>1907</ele>
        <time>2026-08-21T10:29:21.000Z</time>
      </trkpt>
      <trkpt lat="45.26312" lon="6.04074">
        <ele>1907.4000244141</ele>
        <time>2026-08-21T10:29:22.000Z</time>
      </trkpt>
      <trkpt lat="45.26311" lon="6.04073">
        <ele>1907.8000488281</ele>
        <time>2026-08-21T10:29:23.000Z</time>
      </trkpt>
      <trkpt lat="45.2631" lon="6.04072">
        <ele>1910.1999511719</ele>
        <time>2026-08-21T10:29:24.000Z</time>
      </trkpt>
      <trkpt lat="45.2631" lon="6.04072">
        <ele>1911.4000244141</ele>
        <time>2026-08-21T10:29:25.000Z</time>
      </trkpt>
      <trkpt lat="45.26309" lon="6.04072">
        <ele>1912.5999755859</ele>
        <time>2026-08-21T10:29:26.000Z</time>
      </trkpt>
      <trkpt lat="45.26308" lon="6.04071">
        <ele>1913.4000244141</ele>
        <time>2026-08-21T10:29:27.000Z</time>
      </trkpt>
      <trkpt lat="45.26307" lon="6.0407">
        <ele>1914</ele>
        <time>2026-08-21T10:29:28.000Z</time>
      </trkpt>
      <trkpt lat="45.26306" lon="6.04069">
        <ele>1914.4000244141</ele>
        <time>2026-08-21T10:29:29.000Z</time>
      </trkpt>
      <trkpt lat="45.26305" lon="6.04069">
        <ele>1914.8000488281</ele>
        <time>2026-08-21T10:29:30.000Z</time>
      </trkpt>
      <trkpt lat="45.26305" lon="6.04068">
        <ele>1915</ele>
        <time>2026-08-21T10:29:31.000Z</time>
      </trkpt>
      <trkpt lat="45.26304" lon="6.04068">
        <ele>1915.4000244141</ele>
        <time>2026-08-21T10:29:32.000Z</time>
      </trkpt>
      <trkpt lat="45.26303" lon="6.04067">
        <ele>1914.1999511719</ele>
        <time>2026-08-21T10:29:33.000Z</time>
      </trkpt>
      <trkpt lat="45.26302" lon="6.04066">
        <ele>1912.5999755859</ele>
        <time>2026-08-21T10:29:34.000Z</time>
      </trkpt>
      <trkpt lat="45.26302" lon="6.04066">
        <ele>1912.4000244141</ele>
        <time>2026-08-21T10:29:35.000Z</time>
      </trkpt>
      <trkpt lat="45.26301" lon="6.04065">
        <ele>1912</ele>
        <time>2026-08-21T10:29:36.000Z</time>
      </trkpt>
      <trkpt lat="45.263" lon="6.04065">
        <ele>1911.4000244141</ele>
        <time>2026-08-21T10:29:37.000Z</time>
      </trkpt>
      <trkpt lat="45.26299" lon="6.04064">
        <ele>1910.8000488281</ele>
        <time>2026-08-21T10:29:38.000Z</time>
      </trkpt>
      <trkpt lat="45.26298" lon="6.04063">
        <ele>1910.5999755859</ele>
        <time>2026-08-21T10:29:39.000Z</time>
      </trkpt>
      <trkpt lat="45.26297" lon="6.04062">
        <ele>1910.5999755859</ele>
        <time>2026-08-21T10:29:40.000Z</time>
      </trkpt>
      <trkpt lat="45.26296" lon="6.04061">
        <ele>1910.4000244141</ele>
        <time>2026-08-21T10:29:41.000Z</time>
      </trkpt>
      <trkpt lat="45.26295" lon="6.04061">
        <ele>1910.5999755859</ele>
        <time>2026-08-21T10:29:42.000Z</time>
      </trkpt>
      <trkpt lat="45.26294" lon="6.0406">
        <ele>1910.5999755859</ele>
        <time>2026-08-21T10:29:43.000Z</time>
      </trkpt>
      <trkpt lat="45.26294" lon="6.04059">
        <ele>1910.8000488281</ele>
        <time>2026-08-21T10:29:44.000Z</time>
      </trkpt>
      <trkpt lat="45.26294" lon="6.04058">
        <ele>1911</ele>
        <time>2026-08-21T10:29:45.000Z</time>
      </trkpt>
      <trkpt lat="45.26293" lon="6.04057">
        <ele>1911.5999755859</ele>
        <time>2026-08-21T10:29:46.000Z</time>
      </trkpt>
      <trkpt lat="45.26292" lon="6.04057">
        <ele>1911.5999755859</ele>
        <time>2026-08-21T10:29:47.000Z</time>
      </trkpt>
      <trkpt lat="45.26292" lon="6.04056">
        <ele>1912.4000244141</ele>
        <time>2026-08-21T10:29:48.000Z</time>
      </trkpt>
      <trkpt lat="45.26291" lon="6.04054">
        <ele>1912.8000488281</ele>
        <time>2026-08-21T10:29:49.000Z</time>
      </trkpt>
      <trkpt lat="45.26291" lon="6.04053">
        <ele>1913</ele>
        <time>2026-08-21T10:29:50.000Z</time>
      </trkpt>
      <trkpt lat="45.2629" lon="6.04053">
        <ele>1913.8000488281</ele>
        <time>2026-08-21T10:29:51.000Z</time>
      </trkpt>
      <trkpt lat="45.2629" lon="6.04051">
        <ele>1914</ele>
        <time>2026-08-21T10:29:52.000Z</time>
      </trkpt>
      <trkpt lat="45.26289" lon="6.0405">
        <ele>1914.4000244141</ele>
        <time>2026-08-21T10:29:53.000Z</time>
      </trkpt>
      <trkpt lat="45.26288" lon="6.04049">
        <ele>1914.5999755859</ele>
        <time>2026-08-21T10:29:54.000Z</time>
      </trkpt>
      <trkpt lat="45.26288" lon="6.04048">
        <ele>1915.1999511719</ele>
        <time>2026-08-21T10:29:55.000Z</time>
      </trkpt>
      <trkpt lat="45.26288" lon="6.04048">
        <ele>1916</ele>
        <time>2026-08-21T10:29:56.000Z</time>
      </trkpt>
      <trkpt lat="45.26287" lon="6.04046">
        <ele>1916.5999755859</ele>
        <time>2026-08-21T10:29:57.000Z</time>
      </trkpt>
      <trkpt lat="45.26286" lon="6.04045">
        <ele>1917</ele>
        <time>2026-08-21T10:29:58.000Z</time>
      </trkpt>
      <trkpt lat="45.26286" lon="6.04044">
        <ele>1917.1999511719</ele>
        <time>2026-08-21T10:29:59.000Z</time>
      </trkpt>
      <trkpt lat="45.26285" lon="6.04043">
        <ele>1917.5999755859</ele>
        <time>2026-08-21T10:30:00.000Z</time>
      </trkpt>
      <trkpt lat="45.26284" lon="6.04042">
        <ele>1918</ele>
        <time>2026-08-21T10:30:01.000Z</time>
      </trkpt>
      <trkpt lat="45.26283" lon="6.04041">
        <ele>1918.4000244141</ele>
        <time>2026-08-21T10:30:02.000Z</time>
      </trkpt>
      <trkpt lat="45.26283" lon="6.0404">
        <ele>1918.1999511719</ele>
        <time>2026-08-21T10:30:03.000Z</time>
      </trkpt>
      <trkpt lat="45.26282" lon="6.04039">
        <ele>1918.1999511719</ele>
        <time>2026-08-21T10:30:04.000Z</time>
      </trkpt>
      <trkpt lat="45.26281" lon="6.04039">
        <ele>1918.4000244141</ele>
        <time>2026-08-21T10:30:05.000Z</time>
      </trkpt>
      <trkpt lat="45.2628" lon="6.04038">
        <ele>1918.4000244141</ele>
        <time>2026-08-21T10:30:06.000Z</time>
      </trkpt>
      <trkpt lat="45.26279" lon="6.04037">
        <ele>1918.4000244141</ele>
        <time>2026-08-21T10:30:07.000Z</time>
      </trkpt>
      <trkpt lat="45.26278" lon="6.04036">
        <ele>1918.4000244141</ele>
        <time>2026-08-21T10:30:08.000Z</time>
      </trkpt>
      <trkpt lat="45.26277" lon="6.04036">
        <ele>1918.8000488281</ele>
        <time>2026-08-21T10:30:09.000Z</time>
      </trkpt>
      <trkpt lat="45.26276" lon="6.04035">
        <ele>1919.1999511719</ele>
        <time>2026-08-21T10:30:10.000Z</time>
      </trkpt>
      <trkpt lat="45.26275" lon="6.04034">
        <ele>1919.4000244141</ele>
        <time>2026-08-21T10:30:11.000Z</time>
      </trkpt>
      <trkpt lat="45.26274" lon="6.04033">
        <ele>1919.5999755859</ele>
        <time>2026-08-21T10:30:12.000Z</time>
      </trkpt>
      <trkpt lat="45.26273" lon="6.04033">
        <ele>1919.8000488281</ele>
        <time>2026-08-21T10:30:13.000Z</time>
      </trkpt>
      <trkpt lat="45.26273" lon="6.04032">
        <ele>1920.1999511719</ele>
        <time>2026-08-21T10:30:14.000Z</time>
      </trkpt>
      <trkpt lat="45.26272" lon="6.04032">
        <ele>1920.1999511719</ele>
        <time>2026-08-21T10:30:15.000Z</time>
      </trkpt>
      <trkpt lat="45.26271" lon="6.04031">
        <ele>1920.4000244141</ele>
        <time>2026-08-21T10:30:16.000Z</time>
      </trkpt>
      <trkpt lat="45.26271" lon="6.0403">
        <ele>1920.5999755859</ele>
        <time>2026-08-21T10:30:17.000Z</time>
      </trkpt>
      <trkpt lat="45.2627" lon="6.04029">
        <ele>1920.8000488281</ele>
        <time>2026-08-21T10:30:18.000Z</time>
      </trkpt>
      <trkpt lat="45.2627" lon="6.04028">
        <ele>1921</ele>
        <time>2026-08-21T10:30:19.000Z</time>
      </trkpt>
      <trkpt lat="45.26269" lon="6.04027">
        <ele>1921.1999511719</ele>
        <time>2026-08-21T10:30:20.000Z</time>
      </trkpt>
      <trkpt lat="45.26268" lon="6.04026">
        <ele>1921.1999511719</ele>
        <time>2026-08-21T10:30:21.000Z</time>
      </trkpt>
      <trkpt lat="45.26267" lon="6.04025">
        <ele>1921.5999755859</ele>
        <time>2026-08-21T10:30:22.000Z</time>
      </trkpt>
      <trkpt lat="45.26266" lon="6.04025">
        <ele>1921.5999755859</ele>
        <time>2026-08-21T10:30:23.000Z</time>
      </trkpt>
      <trkpt lat="45.26266" lon="6.04024">
        <ele>1922</ele>
        <time>2026-08-21T10:30:24.000Z</time>
      </trkpt>
      <trkpt lat="45.26266" lon="6.04024">
        <ele>1922.1999511719</ele>
        <time>2026-08-21T10:30:25.000Z</time>
      </trkpt>
      <trkpt lat="45.26264" lon="6.04024">
        <ele>1922.1999511719</ele>
        <time>2026-08-21T10:30:26.000Z</time>
      </trkpt>
      <trkpt lat="45.26263" lon="6.04023">
        <ele>1922.5999755859</ele>
        <time>2026-08-21T10:30:27.000Z</time>
      </trkpt>
      <trkpt lat="45.26263" lon="6.04021">
        <ele>1923</ele>
        <time>2026-08-21T10:30:28.000Z</time>
      </trkpt>
      <trkpt lat="45.26262" lon="6.0402">
        <ele>1923.1999511719</ele>
        <time>2026-08-21T10:30:29.000Z</time>
      </trkpt>
      <trkpt lat="45.26261" lon="6.04019">
        <ele>1923.5999755859</ele>
        <time>2026-08-21T10:30:30.000Z</time>
      </trkpt>
      <trkpt lat="45.2626" lon="6.04018">
        <ele>1924</ele>
        <time>2026-08-21T10:30:31.000Z</time>
      </trkpt>
      <trkpt lat="45.26259" lon="6.04017">
        <ele>1924.1999511719</ele>
        <time>2026-08-21T10:30:32.000Z</time>
      </trkpt>
      <trkpt lat="45.26258" lon="6.04017">
        <ele>1924.8000488281</ele>
        <time>2026-08-21T10:30:33.000Z</time>
      </trkpt>
      <trkpt lat="45.26258" lon="6.04016">
        <ele>1924.8000488281</ele>
        <time>2026-08-21T10:30:34.000Z</time>
      </trkpt>
      <trkpt lat="45.26257" lon="6.04015">
        <ele>1925.8000488281</ele>
        <time>2026-08-21T10:30:35.000Z</time>
      </trkpt>
      <trkpt lat="45.26256" lon="6.04014">
        <ele>1926</ele>
        <time>2026-08-21T10:30:36.000Z</time>
      </trkpt>
      <trkpt lat="45.26256" lon="6.04013">
        <ele>1926.5999755859</ele>
        <time>2026-08-21T10:30:37.000Z</time>
      </trkpt>
      <trkpt lat="45.26255" lon="6.04013">
        <ele>1926.8000488281</ele>
        <time>2026-08-21T10:30:38.000Z</time>
      </trkpt>
      <trkpt lat="45.26255" lon="6.04012">
        <ele>1927</ele>
        <time>2026-08-21T10:30:39.000Z</time>
      </trkpt>
      <trkpt lat="45.26254" lon="6.04011">
        <ele>1927.1999511719</ele>
        <time>2026-08-21T10:30:40.000Z</time>
      </trkpt>
      <trkpt lat="45.26253" lon="6.04011">
        <ele>1927.4000244141</ele>
        <time>2026-08-21T10:30:41.000Z</time>
      </trkpt>
      <trkpt lat="45.26252" lon="6.0401">
        <ele>1927.5999755859</ele>
        <time>2026-08-21T10:30:42.000Z</time>
      </trkpt>
      <trkpt lat="45.26252" lon="6.04009">
        <ele>1927.8000488281</ele>
        <time>2026-08-21T10:30:43.000Z</time>
      </trkpt>
      <trkpt lat="45.26251" lon="6.04008">
        <ele>1928</ele>
        <time>2026-08-21T10:30:44.000Z</time>
      </trkpt>
      <trkpt lat="45.26249" lon="6.04007">
        <ele>1928</ele>
        <time>2026-08-21T10:30:45.000Z</time>
      </trkpt>
      <trkpt lat="45.26249" lon="6.04006">
        <ele>1928.4000244141</ele>
        <time>2026-08-21T10:30:46.000Z</time>
      </trkpt>
      <trkpt lat="45.26248" lon="6.04006">
        <ele>1928.8000488281</ele>
        <time>2026-08-21T10:30:47.000Z</time>
      </trkpt>
      <trkpt lat="45.26247" lon="6.04005">
        <ele>1929</ele>
        <time>2026-08-21T10:30:48.000Z</time>
      </trkpt>
      <trkpt lat="45.26246" lon="6.04005">
        <ele>1929.8000488281</ele>
        <time>2026-08-21T10:30:49.000Z</time>
      </trkpt>
      <trkpt lat="45.26246" lon="6.04005">
        <ele>1930</ele>
        <time>2026-08-21T10:30:50.000Z</time>
      </trkpt>
      <trkpt lat="45.26245" lon="6.04004">
        <ele>1930</ele>
        <time>2026-08-21T10:30:51.000Z</time>
      </trkpt>
      <trkpt lat="45.26244" lon="6.04003">
        <ele>1930.1999511719</ele>
        <time>2026-08-21T10:30:52.000Z</time>
      </trkpt>
      <trkpt lat="45.26244" lon="6.04003">
        <ele>1930.5999755859</ele>
        <time>2026-08-21T10:30:53.000Z</time>
      </trkpt>
      <trkpt lat="45.26243" lon="6.04002">
        <ele>1931.4000244141</ele>
        <time>2026-08-21T10:30:54.000Z</time>
      </trkpt>
      <trkpt lat="45.26242" lon="6.04001">
        <ele>1932</ele>
        <time>2026-08-21T10:30:55.000Z</time>
      </trkpt>
      <trkpt lat="45.26242" lon="6.04">
        <ele>1932.5999755859</ele>
        <time>2026-08-21T10:30:56.000Z</time>
      </trkpt>
      <trkpt lat="45.2624" lon="6.04">
        <ele>1932.8000488281</ele>
        <time>2026-08-21T10:30:57.000Z</time>
      </trkpt>
      <trkpt lat="45.26239" lon="6.03999">
        <ele>1933.1999511719</ele>
        <time>2026-08-21T10:30:58.000Z</time>
      </trkpt>
      <trkpt lat="45.26238" lon="6.03998">
        <ele>1933.4000244141</ele>
        <time>2026-08-21T10:30:59.000Z</time>
      </trkpt>
      <trkpt lat="45.26237" lon="6.03997">
        <ele>1933.5999755859</ele>
        <time>2026-08-21T10:31:00.000Z</time>
      </trkpt>
      <trkpt lat="45.26237" lon="6.03996">
        <ele>1933.8000488281</ele>
        <time>2026-08-21T10:31:01.000Z</time>
      </trkpt>
      <trkpt lat="45.26236" lon="6.03996">
        <ele>1934</ele>
        <time>2026-08-21T10:31:02.000Z</time>
      </trkpt>
      <trkpt lat="45.26235" lon="6.03995">
        <ele>1934</ele>
        <time>2026-08-21T10:31:03.000Z</time>
      </trkpt>
      <trkpt lat="45.26234" lon="6.03994">
        <ele>1934</ele>
        <time>2026-08-21T10:31:04.000Z</time>
      </trkpt>
      <trkpt lat="45.26233" lon="6.03994">
        <ele>1934</ele>
        <time>2026-08-21T10:31:05.000Z</time>
      </trkpt>
      <trkpt lat="45.26232" lon="6.03993">
        <ele>1934</ele>
        <time>2026-08-21T10:31:06.000Z</time>
      </trkpt>
      <trkpt lat="45.26231" lon="6.03993">
        <ele>1934.1999511719</ele>
        <time>2026-08-21T10:31:07.000Z</time>
      </trkpt>
      <trkpt lat="45.26231" lon="6.03992">
        <ele>1934.4000244141</ele>
        <time>2026-08-21T10:31:08.000Z</time>
      </trkpt>
      <trkpt lat="45.2623" lon="6.03991">
        <ele>1934.4000244141</ele>
        <time>2026-08-21T10:31:09.000Z</time>
      </trkpt>
      <trkpt lat="45.26229" lon="6.03991">
        <ele>1934.5999755859</ele>
        <time>2026-08-21T10:31:10.000Z</time>
      </trkpt>
      <trkpt lat="45.26229" lon="6.0399">
        <ele>1934.5999755859</ele>
        <time>2026-08-21T10:31:11.000Z</time>
      </trkpt>
      <trkpt lat="45.26228" lon="6.03988">
        <ele>1934.8000488281</ele>
        <time>2026-08-21T10:31:12.000Z</time>
      </trkpt>
      <trkpt lat="45.26227" lon="6.03988">
        <ele>1935</ele>
        <time>2026-08-21T10:31:13.000Z</time>
      </trkpt>
      <trkpt lat="45.26227" lon="6.03986">
        <ele>1935.1999511719</ele>
        <time>2026-08-21T10:31:14.000Z</time>
      </trkpt>
      <trkpt lat="45.26226" lon="6.03985">
        <ele>1935.4000244141</ele>
        <time>2026-08-21T10:31:15.000Z</time>
      </trkpt>
      <trkpt lat="45.26225" lon="6.03984">
        <ele>1935.5999755859</ele>
        <time>2026-08-21T10:31:16.000Z</time>
      </trkpt>
      <trkpt lat="45.26224" lon="6.03983">
        <ele>1935.8000488281</ele>
        <time>2026-08-21T10:31:17.000Z</time>
      </trkpt>
      <trkpt lat="45.26223" lon="6.03982">
        <ele>1936</ele>
        <time>2026-08-21T10:31:18.000Z</time>
      </trkpt>
      <trkpt lat="45.26222" lon="6.03982">
        <ele>1936</ele>
        <time>2026-08-21T10:31:19.000Z</time>
      </trkpt>
      <trkpt lat="45.26221" lon="6.03982">
        <ele>1936.1999511719</ele>
        <time>2026-08-21T10:31:20.000Z</time>
      </trkpt>
      <trkpt lat="45.2622" lon="6.03982">
        <ele>1936.4000244141</ele>
        <time>2026-08-21T10:31:21.000Z</time>
      </trkpt>
      <trkpt lat="45.26219" lon="6.03981">
        <ele>1936.5999755859</ele>
        <time>2026-08-21T10:31:22.000Z</time>
      </trkpt>
      <trkpt lat="45.26218" lon="6.03981">
        <ele>1937</ele>
        <time>2026-08-21T10:31:23.000Z</time>
      </trkpt>
      <trkpt lat="45.26218" lon="6.0398">
        <ele>1937.1999511719</ele>
        <time>2026-08-21T10:31:24.000Z</time>
      </trkpt>
      <trkpt lat="45.26217" lon="6.03978">
        <ele>1937.4000244141</ele>
        <time>2026-08-21T10:31:25.000Z</time>
      </trkpt>
      <trkpt lat="45.26216" lon="6.03977">
        <ele>1937.8000488281</ele>
        <time>2026-08-21T10:31:26.000Z</time>
      </trkpt>
      <trkpt lat="45.26215" lon="6.03976">
        <ele>1938.1999511719</ele>
        <time>2026-08-21T10:31:27.000Z</time>
      </trkpt>
      <trkpt lat="45.26214" lon="6.03975">
        <ele>1938.4000244141</ele>
        <time>2026-08-21T10:31:28.000Z</time>
      </trkpt>
      <trkpt lat="45.26214" lon="6.03974">
        <ele>1938.4000244141</ele>
        <time>2026-08-21T10:31:29.000Z</time>
      </trkpt>
      <trkpt lat="45.26213" lon="6.03973">
        <ele>1938.5999755859</ele>
        <time>2026-08-21T10:31:30.000Z</time>
      </trkpt>
      <trkpt lat="45.26212" lon="6.03972">
        <ele>1939.1999511719</ele>
        <time>2026-08-21T10:31:31.000Z</time>
      </trkpt>
      <trkpt lat="45.26212" lon="6.03971">
        <ele>1940</ele>
        <time>2026-08-21T10:31:32.000Z</time>
      </trkpt>
      <trkpt lat="45.26211" lon="6.0397">
        <ele>1940.4000244141</ele>
        <time>2026-08-21T10:31:33.000Z</time>
      </trkpt>
      <trkpt lat="45.2621" lon="6.03969">
        <ele>1940.5999755859</ele>
        <time>2026-08-21T10:31:34.000Z</time>
      </trkpt>
      <trkpt lat="45.2621" lon="6.03967">
        <ele>1941</ele>
        <time>2026-08-21T10:31:35.000Z</time>
      </trkpt>
      <trkpt lat="45.26209" lon="6.03966">
        <ele>1941.1999511719</ele>
        <time>2026-08-21T10:31:36.000Z</time>
      </trkpt>
      <trkpt lat="45.26208" lon="6.03965">
        <ele>1941.4000244141</ele>
        <time>2026-08-21T10:31:37.000Z</time>
      </trkpt>
      <trkpt lat="45.26207" lon="6.03963">
        <ele>1941.4000244141</ele>
        <time>2026-08-21T10:31:38.000Z</time>
      </trkpt>
      <trkpt lat="45.26206" lon="6.03963">
        <ele>1941.4000244141</ele>
        <time>2026-08-21T10:31:39.000Z</time>
      </trkpt>
      <trkpt lat="45.26205" lon="6.03962">
        <ele>1941.5999755859</ele>
        <time>2026-08-21T10:31:40.000Z</time>
      </trkpt>
      <trkpt lat="45.26204" lon="6.03961">
        <ele>1941.8000488281</ele>
        <time>2026-08-21T10:31:41.000Z</time>
      </trkpt>
      <trkpt lat="45.26203" lon="6.03959">
        <ele>1942</ele>
        <time>2026-08-21T10:31:42.000Z</time>
      </trkpt>
      <trkpt lat="45.26203" lon="6.03959">
        <ele>1942</ele>
        <time>2026-08-21T10:31:43.000Z</time>
      </trkpt>
      <trkpt lat="45.26202" lon="6.03958">
        <ele>1942.1999511719</ele>
        <time>2026-08-21T10:31:44.000Z</time>
      </trkpt>
      <trkpt lat="45.262" lon="6.03957">
        <ele>1942.4000244141</ele>
        <time>2026-08-21T10:31:45.000Z</time>
      </trkpt>
      <trkpt lat="45.26199" lon="6.03956">
        <ele>1942.4000244141</ele>
        <time>2026-08-21T10:31:46.000Z</time>
      </trkpt>
      <trkpt lat="45.26198" lon="6.03955">
        <ele>1942.5999755859</ele>
        <time>2026-08-21T10:31:47.000Z</time>
      </trkpt>
      <trkpt lat="45.26198" lon="6.03953">
        <ele>1943</ele>
        <time>2026-08-21T10:31:48.000Z</time>
      </trkpt>
      <trkpt lat="45.26197" lon="6.03952">
        <ele>1943.1999511719</ele>
        <time>2026-08-21T10:31:49.000Z</time>
      </trkpt>
      <trkpt lat="45.26196" lon="6.03951">
        <ele>1943.5999755859</ele>
        <time>2026-08-21T10:31:50.000Z</time>
      </trkpt>
      <trkpt lat="45.26195" lon="6.0395">
        <ele>1944</ele>
        <time>2026-08-21T10:31:51.000Z</time>
      </trkpt>
      <trkpt lat="45.26194" lon="6.03949">
        <ele>1945</ele>
        <time>2026-08-21T10:31:52.000Z</time>
      </trkpt>
      <trkpt lat="45.26193" lon="6.03948">
        <ele>1946.1999511719</ele>
        <time>2026-08-21T10:31:53.000Z</time>
      </trkpt>
      <trkpt lat="45.26192" lon="6.03947">
        <ele>1946.5999755859</ele>
        <time>2026-08-21T10:31:54.000Z</time>
      </trkpt>
      <trkpt lat="45.26191" lon="6.03946">
        <ele>1946.4000244141</ele>
        <time>2026-08-21T10:31:55.000Z</time>
      </trkpt>
      <trkpt lat="45.2619" lon="6.03944">
        <ele>1946.4000244141</ele>
        <time>2026-08-21T10:31:56.000Z</time>
      </trkpt>
      <trkpt lat="45.26189" lon="6.03943">
        <ele>1946.5999755859</ele>
        <time>2026-08-21T10:31:57.000Z</time>
      </trkpt>
      <trkpt lat="45.26188" lon="6.03942">
        <ele>1946.5999755859</ele>
        <time>2026-08-21T10:31:58.000Z</time>
      </trkpt>
      <trkpt lat="45.26188" lon="6.03941">
        <ele>1946.8000488281</ele>
        <time>2026-08-21T10:31:59.000Z</time>
      </trkpt>
      <trkpt lat="45.26187" lon="6.0394">
        <ele>1947</ele>
        <time>2026-08-21T10:32:00.000Z</time>
      </trkpt>
      <trkpt lat="45.26185" lon="6.03939">
        <ele>1947.4000244141</ele>
        <time>2026-08-21T10:32:01.000Z</time>
      </trkpt>
      <trkpt lat="45.26184" lon="6.03939">
        <ele>1947.5999755859</ele>
        <time>2026-08-21T10:32:02.000Z</time>
      </trkpt>
      <trkpt lat="45.26183" lon="6.03938">
        <ele>1948</ele>
        <time>2026-08-21T10:32:03.000Z</time>
      </trkpt>
      <trkpt lat="45.26182" lon="6.03936">
        <ele>1948.5999755859</ele>
        <time>2026-08-21T10:32:04.000Z</time>
      </trkpt>
      <trkpt lat="45.26181" lon="6.03934">
        <ele>1949</ele>
        <time>2026-08-21T10:32:05.000Z</time>
      </trkpt>
      <trkpt lat="45.2618" lon="6.03935">
        <ele>1949.5999755859</ele>
        <time>2026-08-21T10:32:06.000Z</time>
      </trkpt>
      <trkpt lat="45.26179" lon="6.03934">
        <ele>1950</ele>
        <time>2026-08-21T10:32:07.000Z</time>
      </trkpt>
      <trkpt lat="45.26179" lon="6.03933">
        <ele>1950.5999755859</ele>
        <time>2026-08-21T10:32:08.000Z</time>
      </trkpt>
      <trkpt lat="45.26178" lon="6.03932">
        <ele>1950.8000488281</ele>
        <time>2026-08-21T10:32:09.000Z</time>
      </trkpt>
      <trkpt lat="45.26177" lon="6.0393">
        <ele>1950.8000488281</ele>
        <time>2026-08-21T10:32:10.000Z</time>
      </trkpt>
      <trkpt lat="45.26176" lon="6.03929">
        <ele>1950.8000488281</ele>
        <time>2026-08-21T10:32:11.000Z</time>
      </trkpt>
      <trkpt lat="45.26175" lon="6.03929">
        <ele>1951</ele>
        <time>2026-08-21T10:32:12.000Z</time>
      </trkpt>
      <trkpt lat="45.26174" lon="6.03927">
        <ele>1951.1999511719</ele>
        <time>2026-08-21T10:32:13.000Z</time>
      </trkpt>
      <trkpt lat="45.26174" lon="6.03926">
        <ele>1951.4000244141</ele>
        <time>2026-08-21T10:32:14.000Z</time>
      </trkpt>
      <trkpt lat="45.26173" lon="6.03926">
        <ele>1952</ele>
        <time>2026-08-21T10:32:15.000Z</time>
      </trkpt>
      <trkpt lat="45.26172" lon="6.03925">
        <ele>1952.5999755859</ele>
        <time>2026-08-21T10:32:16.000Z</time>
      </trkpt>
      <trkpt lat="45.26171" lon="6.03924">
        <ele>1953.8000488281</ele>
        <time>2026-08-21T10:32:17.000Z</time>
      </trkpt>
      <trkpt lat="45.26171" lon="6.03923">
        <ele>1954.1999511719</ele>
        <time>2026-08-21T10:32:18.000Z</time>
      </trkpt>
      <trkpt lat="45.2617" lon="6.03921">
        <ele>1955.1999511719</ele>
        <time>2026-08-21T10:32:19.000Z</time>
      </trkpt>
      <trkpt lat="45.26169" lon="6.0392">
        <ele>1955.5999755859</ele>
        <time>2026-08-21T10:32:20.000Z</time>
      </trkpt>
      <trkpt lat="45.26168" lon="6.03919">
        <ele>1956</ele>
        <time>2026-08-21T10:32:21.000Z</time>
      </trkpt>
      <trkpt lat="45.26167" lon="6.03918">
        <ele>1956.4000244141</ele>
        <time>2026-08-21T10:32:22.000Z</time>
      </trkpt>
      <trkpt lat="45.26166" lon="6.03917">
        <ele>1956.8000488281</ele>
        <time>2026-08-21T10:32:23.000Z</time>
      </trkpt>
      <trkpt lat="45.26166" lon="6.03916">
        <ele>1957.1999511719</ele>
        <time>2026-08-21T10:32:24.000Z</time>
      </trkpt>
      <trkpt lat="45.26165" lon="6.03915">
        <ele>1957.1999511719</ele>
        <time>2026-08-21T10:32:25.000Z</time>
      </trkpt>
      <trkpt lat="45.26164" lon="6.03914">
        <ele>1957.4000244141</ele>
        <time>2026-08-21T10:32:26.000Z</time>
      </trkpt>
      <trkpt lat="45.26163" lon="6.03912">
        <ele>1957.1999511719</ele>
        <time>2026-08-21T10:32:27.000Z</time>
      </trkpt>
      <trkpt lat="45.26162" lon="6.03911">
        <ele>1956.8000488281</ele>
        <time>2026-08-21T10:32:28.000Z</time>
      </trkpt>
      <trkpt lat="45.26161" lon="6.03909">
        <ele>1956.8000488281</ele>
        <time>2026-08-21T10:32:29.000Z</time>
      </trkpt>
      <trkpt lat="45.2616" lon="6.03908">
        <ele>1956.8000488281</ele>
        <time>2026-08-21T10:32:30.000Z</time>
      </trkpt>
      <trkpt lat="45.26159" lon="6.03907">
        <ele>1956.8000488281</ele>
        <time>2026-08-21T10:32:31.000Z</time>
      </trkpt>
      <trkpt lat="45.26159" lon="6.03906">
        <ele>1957</ele>
        <time>2026-08-21T10:32:32.000Z</time>
      </trkpt>
      <trkpt lat="45.26158" lon="6.03904">
        <ele>1957.1999511719</ele>
        <time>2026-08-21T10:32:33.000Z</time>
      </trkpt>
      <trkpt lat="45.26157" lon="6.03903">
        <ele>1957.4000244141</ele>
        <time>2026-08-21T10:32:34.000Z</time>
      </trkpt>
      <trkpt lat="45.26156" lon="6.03902">
        <ele>1957.8000488281</ele>
        <time>2026-08-21T10:32:35.000Z</time>
      </trkpt>
      <trkpt lat="45.26155" lon="6.03901">
        <ele>1958</ele>
        <time>2026-08-21T10:32:36.000Z</time>
      </trkpt>
      <trkpt lat="45.26154" lon="6.039">
        <ele>1958.1999511719</ele>
        <time>2026-08-21T10:32:37.000Z</time>
      </trkpt>
      <trkpt lat="45.26153" lon="6.03898">
        <ele>1958.1999511719</ele>
        <time>2026-08-21T10:32:38.000Z</time>
      </trkpt>
      <trkpt lat="45.26152" lon="6.03897">
        <ele>1958.1999511719</ele>
        <time>2026-08-21T10:32:39.000Z</time>
      </trkpt>
      <trkpt lat="45.26151" lon="6.03896">
        <ele>1958.1999511719</ele>
        <time>2026-08-21T10:32:40.000Z</time>
      </trkpt>
      <trkpt lat="45.2615" lon="6.03895">
        <ele>1958</ele>
        <time>2026-08-21T10:32:41.000Z</time>
      </trkpt>
      <trkpt lat="45.2615" lon="6.03893">
        <ele>1958</ele>
        <time>2026-08-21T10:32:42.000Z</time>
      </trkpt>
      <trkpt lat="45.26149" lon="6.03892">
        <ele>1957.8000488281</ele>
        <time>2026-08-21T10:32:43.000Z</time>
      </trkpt>
      <trkpt lat="45.26148" lon="6.0389">
        <ele>1957.8000488281</ele>
        <time>2026-08-21T10:32:44.000Z</time>
      </trkpt>
      <trkpt lat="45.26147" lon="6.03889">
        <ele>1957.8000488281</ele>
        <time>2026-08-21T10:32:45.000Z</time>
      </trkpt>
      <trkpt lat="45.26146" lon="6.03888">
        <ele>1958</ele>
        <time>2026-08-21T10:32:46.000Z</time>
      </trkpt>
      <trkpt lat="45.26145" lon="6.03886">
        <ele>1958</ele>
        <time>2026-08-21T10:32:47.000Z</time>
      </trkpt>
      <trkpt lat="45.26144" lon="6.03885">
        <ele>1958.1999511719</ele>
        <time>2026-08-21T10:32:48.000Z</time>
      </trkpt>
      <trkpt lat="45.26144" lon="6.03883">
        <ele>1958.1999511719</ele>
        <time>2026-08-21T10:32:49.000Z</time>
      </trkpt>
      <trkpt lat="45.26143" lon="6.03882">
        <ele>1958.1999511719</ele>
        <time>2026-08-21T10:32:50.000Z</time>
      </trkpt>
      <trkpt lat="45.26142" lon="6.0388">
        <ele>1958.4000244141</ele>
        <time>2026-08-21T10:32:51.000Z</time>
      </trkpt>
      <trkpt lat="45.26141" lon="6.03879">
        <ele>1958.4000244141</ele>
        <time>2026-08-21T10:32:52.000Z</time>
      </trkpt>
      <trkpt lat="45.26141" lon="6.03877">
        <ele>1958.5999755859</ele>
        <time>2026-08-21T10:32:53.000Z</time>
      </trkpt>
      <trkpt lat="45.2614" lon="6.03875">
        <ele>1958.8000488281</ele>
        <time>2026-08-21T10:32:54.000Z</time>
      </trkpt>
      <trkpt lat="45.26139" lon="6.03874">
        <ele>1959.1999511719</ele>
        <time>2026-08-21T10:32:55.000Z</time>
      </trkpt>
      <trkpt lat="45.26139" lon="6.03872">
        <ele>1959.5999755859</ele>
        <time>2026-08-21T10:32:56.000Z</time>
      </trkpt>
      <trkpt lat="45.26138" lon="6.03871">
        <ele>1960</ele>
        <time>2026-08-21T10:32:57.000Z</time>
      </trkpt>
      <trkpt lat="45.26137" lon="6.03869">
        <ele>1960</ele>
        <time>2026-08-21T10:32:58.000Z</time>
      </trkpt>
      <trkpt lat="45.26136" lon="6.03867">
        <ele>1960.1999511719</ele>
        <time>2026-08-21T10:32:59.000Z</time>
      </trkpt>
      <trkpt lat="45.26135" lon="6.03866">
        <ele>1960.4000244141</ele>
        <time>2026-08-21T10:33:00.000Z</time>
      </trkpt>
      <trkpt lat="45.26134" lon="6.03864">
        <ele>1960.8000488281</ele>
        <time>2026-08-21T10:33:01.000Z</time>
      </trkpt>
      <trkpt lat="45.26134" lon="6.03862">
        <ele>1961.1999511719</ele>
        <time>2026-08-21T10:33:02.000Z</time>
      </trkpt>
      <trkpt lat="45.26133" lon="6.0386">
        <ele>1961.5999755859</ele>
        <time>2026-08-21T10:33:03.000Z</time>
      </trkpt>
      <trkpt lat="45.26132" lon="6.03859">
        <ele>1962.1999511719</ele>
        <time>2026-08-21T10:33:04.000Z</time>
      </trkpt>
      <trkpt lat="45.26132" lon="6.03857">
        <ele>1962.8000488281</ele>
        <time>2026-08-21T10:33:05.000Z</time>
      </trkpt>
      <trkpt lat="45.26131" lon="6.03856">
        <ele>1963.1999511719</ele>
        <time>2026-08-21T10:33:06.000Z</time>
      </trkpt>
      <trkpt lat="45.2613" lon="6.03854">
        <ele>1963.5999755859</ele>
        <time>2026-08-21T10:33:07.000Z</time>
      </trkpt>
      <trkpt lat="45.26129" lon="6.03853">
        <ele>1964</ele>
        <time>2026-08-21T10:33:08.000Z</time>
      </trkpt>
      <trkpt lat="45.26128" lon="6.03852">
        <ele>1964.5999755859</ele>
        <time>2026-08-21T10:33:09.000Z</time>
      </trkpt>
      <trkpt lat="45.26127" lon="6.03851">
        <ele>1965</ele>
        <time>2026-08-21T10:33:10.000Z</time>
      </trkpt>
      <trkpt lat="45.26126" lon="6.03849">
        <ele>1965.5999755859</ele>
        <time>2026-08-21T10:33:11.000Z</time>
      </trkpt>
      <trkpt lat="45.26125" lon="6.03848">
        <ele>1966</ele>
        <time>2026-08-21T10:33:12.000Z</time>
      </trkpt>
      <trkpt lat="45.26123" lon="6.03848">
        <ele>1966</ele>
        <time>2026-08-21T10:33:13.000Z</time>
      </trkpt>
      <trkpt lat="45.26122" lon="6.03846">
        <ele>1965.5999755859</ele>
        <time>2026-08-21T10:33:14.000Z</time>
      </trkpt>
      <trkpt lat="45.26121" lon="6.03844">
        <ele>1965.5999755859</ele>
        <time>2026-08-21T10:33:15.000Z</time>
      </trkpt>
      <trkpt lat="45.2612" lon="6.03843">
        <ele>1965.5999755859</ele>
        <time>2026-08-21T10:33:16.000Z</time>
      </trkpt>
      <trkpt lat="45.26119" lon="6.03841">
        <ele>1965.4000244141</ele>
        <time>2026-08-21T10:33:17.000Z</time>
      </trkpt>
      <trkpt lat="45.26117" lon="6.0384">
        <ele>1965.8000488281</ele>
        <time>2026-08-21T10:33:18.000Z</time>
      </trkpt>
      <trkpt lat="45.26117" lon="6.03839">
        <ele>1966.4000244141</ele>
        <time>2026-08-21T10:33:19.000Z</time>
      </trkpt>
      <trkpt lat="45.26116" lon="6.03837">
        <ele>1966.4000244141</ele>
        <time>2026-08-21T10:33:20.000Z</time>
      </trkpt>
      <trkpt lat="45.26115" lon="6.03836">
        <ele>1966.4000244141</ele>
        <time>2026-08-21T10:33:21.000Z</time>
      </trkpt>
      <trkpt lat="45.26114" lon="6.03834">
        <ele>1966.8000488281</ele>
        <time>2026-08-21T10:33:22.000Z</time>
      </trkpt>
      <trkpt lat="45.26113" lon="6.03833">
        <ele>1967</ele>
        <time>2026-08-21T10:33:23.000Z</time>
      </trkpt>
      <trkpt lat="45.26112" lon="6.03831">
        <ele>1967.1999511719</ele>
        <time>2026-08-21T10:33:24.000Z</time>
      </trkpt>
      <trkpt lat="45.26112" lon="6.0383">
        <ele>1967.4000244141</ele>
        <time>2026-08-21T10:33:25.000Z</time>
      </trkpt>
      <trkpt lat="45.26111" lon="6.03828">
        <ele>1967.8000488281</ele>
        <time>2026-08-21T10:33:26.000Z</time>
      </trkpt>
      <trkpt lat="45.26109" lon="6.03827">
        <ele>1968.1999511719</ele>
        <time>2026-08-21T10:33:27.000Z</time>
      </trkpt>
      <trkpt lat="45.26108" lon="6.03825">
        <ele>1968.5999755859</ele>
        <time>2026-08-21T10:33:28.000Z</time>
      </trkpt>
      <trkpt lat="45.26107" lon="6.03824">
        <ele>1968.8000488281</ele>
        <time>2026-08-21T10:33:29.000Z</time>
      </trkpt>
      <trkpt lat="45.26106" lon="6.03822">
        <ele>1969</ele>
        <time>2026-08-21T10:33:30.000Z</time>
      </trkpt>
      <trkpt lat="45.26106" lon="6.03821">
        <ele>1969.1999511719</ele>
        <time>2026-08-21T10:33:31.000Z</time>
      </trkpt>
      <trkpt lat="45.26104" lon="6.03819">
        <ele>1969</ele>
        <time>2026-08-21T10:33:32.000Z</time>
      </trkpt>
      <trkpt lat="45.26103" lon="6.03817">
        <ele>1968.8000488281</ele>
        <time>2026-08-21T10:33:33.000Z</time>
      </trkpt>
      <trkpt lat="45.26103" lon="6.03816">
        <ele>1969</ele>
        <time>2026-08-21T10:33:34.000Z</time>
      </trkpt>
      <trkpt lat="45.26101" lon="6.03813">
        <ele>1969</ele>
        <time>2026-08-21T10:33:35.000Z</time>
      </trkpt>
      <trkpt lat="45.26101" lon="6.03812">
        <ele>1969</ele>
        <time>2026-08-21T10:33:36.000Z</time>
      </trkpt>
      <trkpt lat="45.261" lon="6.0381">
        <ele>1969.1999511719</ele>
        <time>2026-08-21T10:33:37.000Z</time>
      </trkpt>
      <trkpt lat="45.26099" lon="6.03808">
        <ele>1969.8000488281</ele>
        <time>2026-08-21T10:33:38.000Z</time>
      </trkpt>
      <trkpt lat="45.26098" lon="6.03806">
        <ele>1970.8000488281</ele>
        <time>2026-08-21T10:33:39.000Z</time>
      </trkpt>
      <trkpt lat="45.26097" lon="6.03804">
        <ele>1970.8000488281</ele>
        <time>2026-08-21T10:33:40.000Z</time>
      </trkpt>
      <trkpt lat="45.26097" lon="6.03803">
        <ele>1971.5999755859</ele>
        <time>2026-08-21T10:33:41.000Z</time>
      </trkpt>
      <trkpt lat="45.26096" lon="6.03801">
        <ele>1972</ele>
        <time>2026-08-21T10:33:42.000Z</time>
      </trkpt>
      <trkpt lat="45.26094" lon="6.038">
        <ele>1972.1999511719</ele>
        <time>2026-08-21T10:33:43.000Z</time>
      </trkpt>
      <trkpt lat="45.26093" lon="6.03799">
        <ele>1972.1999511719</ele>
        <time>2026-08-21T10:33:44.000Z</time>
      </trkpt>
      <trkpt lat="45.26092" lon="6.03798">
        <ele>1972.1999511719</ele>
        <time>2026-08-21T10:33:45.000Z</time>
      </trkpt>
      <trkpt lat="45.26091" lon="6.03796">
        <ele>1972</ele>
        <time>2026-08-21T10:33:46.000Z</time>
      </trkpt>
      <trkpt lat="45.2609" lon="6.03795">
        <ele>1971.8000488281</ele>
        <time>2026-08-21T10:33:47.000Z</time>
      </trkpt>
      <trkpt lat="45.26089" lon="6.03793">
        <ele>1972</ele>
        <time>2026-08-21T10:33:48.000Z</time>
      </trkpt>
      <trkpt lat="45.26088" lon="6.03791">
        <ele>1972</ele>
        <time>2026-08-21T10:33:49.000Z</time>
      </trkpt>
      <trkpt lat="45.26087" lon="6.03789">
        <ele>1972.1999511719</ele>
        <time>2026-08-21T10:33:50.000Z</time>
      </trkpt>
      <trkpt lat="45.26086" lon="6.03787">
        <ele>1972.8000488281</ele>
        <time>2026-08-21T10:33:51.000Z</time>
      </trkpt>
      <trkpt lat="45.26085" lon="6.03785">
        <ele>1973.4000244141</ele>
        <time>2026-08-21T10:33:52.000Z</time>
      </trkpt>
      <trkpt lat="45.26084" lon="6.03783">
        <ele>1974</ele>
        <time>2026-08-21T10:33:53.000Z</time>
      </trkpt>
      <trkpt lat="45.26084" lon="6.03781">
        <ele>1974.5999755859</ele>
        <time>2026-08-21T10:33:54.000Z</time>
      </trkpt>
      <trkpt lat="45.26083" lon="6.03779">
        <ele>1975</ele>
        <time>2026-08-21T10:33:55.000Z</time>
      </trkpt>
      <trkpt lat="45.26083" lon="6.03777">
        <ele>1975.1999511719</ele>
        <time>2026-08-21T10:33:56.000Z</time>
      </trkpt>
      <trkpt lat="45.26083" lon="6.03776">
        <ele>1975.1999511719</ele>
        <time>2026-08-21T10:33:57.000Z</time>
      </trkpt>
      <trkpt lat="45.26082" lon="6.03774">
        <ele>1975.1999511719</ele>
        <time>2026-08-21T10:33:58.000Z</time>
      </trkpt>
      <trkpt lat="45.26081" lon="6.03773">
        <ele>1975</ele>
        <time>2026-08-21T10:33:59.000Z</time>
      </trkpt>
      <trkpt lat="45.2608" lon="6.03771">
        <ele>1974.4000244141</ele>
        <time>2026-08-21T10:34:00.000Z</time>
      </trkpt>
      <trkpt lat="45.2608" lon="6.0377">
        <ele>1974.4000244141</ele>
        <time>2026-08-21T10:34:01.000Z</time>
      </trkpt>
      <trkpt lat="45.26079" lon="6.03768">
        <ele>1974.5999755859</ele>
        <time>2026-08-21T10:34:02.000Z</time>
      </trkpt>
      <trkpt lat="45.26077" lon="6.03766">
        <ele>1975</ele>
        <time>2026-08-21T10:34:03.000Z</time>
      </trkpt>
      <trkpt lat="45.26076" lon="6.03765">
        <ele>1975.1999511719</ele>
        <time>2026-08-21T10:34:04.000Z</time>
      </trkpt>
      <trkpt lat="45.26075" lon="6.03763">
        <ele>1975.5999755859</ele>
        <time>2026-08-21T10:34:05.000Z</time>
      </trkpt>
      <trkpt lat="45.26075" lon="6.03761">
        <ele>1976</ele>
        <time>2026-08-21T10:34:06.000Z</time>
      </trkpt>
      <trkpt lat="45.26074" lon="6.03759">
        <ele>1976.1999511719</ele>
        <time>2026-08-21T10:34:07.000Z</time>
      </trkpt>
      <trkpt lat="45.26073" lon="6.03758">
        <ele>1976.5999755859</ele>
        <time>2026-08-21T10:34:08.000Z</time>
      </trkpt>
      <trkpt lat="45.26072" lon="6.03756">
        <ele>1977</ele>
        <time>2026-08-21T10:34:09.000Z</time>
      </trkpt>
      <trkpt lat="45.26072" lon="6.03754">
        <ele>1977.4000244141</ele>
        <time>2026-08-21T10:34:10.000Z</time>
      </trkpt>
      <trkpt lat="45.26071" lon="6.03752">
        <ele>1977.5999755859</ele>
        <time>2026-08-21T10:34:11.000Z</time>
      </trkpt>
      <trkpt lat="45.26071" lon="6.0375">
        <ele>1977.8000488281</ele>
        <time>2026-08-21T10:34:12.000Z</time>
      </trkpt>
      <trkpt lat="45.2607" lon="6.03748">
        <ele>1977.8000488281</ele>
        <time>2026-08-21T10:34:13.000Z</time>
      </trkpt>
      <trkpt lat="45.26069" lon="6.03747">
        <ele>1978.1999511719</ele>
        <time>2026-08-21T10:34:14.000Z</time>
      </trkpt>
      <trkpt lat="45.26069" lon="6.03746">
        <ele>1978.4000244141</ele>
        <time>2026-08-21T10:34:15.000Z</time>
      </trkpt>
      <trkpt lat="45.26068" lon="6.03745">
        <ele>1978.8000488281</ele>
        <time>2026-08-21T10:34:16.000Z</time>
      </trkpt>
      <trkpt lat="45.26067" lon="6.03743">
        <ele>1979.1999511719</ele>
        <time>2026-08-21T10:34:17.000Z</time>
      </trkpt>
      <trkpt lat="45.26066" lon="6.03742">
        <ele>1979.4000244141</ele>
        <time>2026-08-21T10:34:18.000Z</time>
      </trkpt>
      <trkpt lat="45.26066" lon="6.0374">
        <ele>1980.1999511719</ele>
        <time>2026-08-21T10:34:19.000Z</time>
      </trkpt>
      <trkpt lat="45.26065" lon="6.03738">
        <ele>1981</ele>
        <time>2026-08-21T10:34:20.000Z</time>
      </trkpt>
      <trkpt lat="45.26064" lon="6.03735">
        <ele>1981</ele>
        <time>2026-08-21T10:34:21.000Z</time>
      </trkpt>
      <trkpt lat="45.26064" lon="6.03733">
        <ele>1981.1999511719</ele>
        <time>2026-08-21T10:34:22.000Z</time>
      </trkpt>
      <trkpt lat="45.26063" lon="6.03731">
        <ele>1981.1999511719</ele>
        <time>2026-08-21T10:34:23.000Z</time>
      </trkpt>
      <trkpt lat="45.26062" lon="6.03729">
        <ele>1980.8000488281</ele>
        <time>2026-08-21T10:34:24.000Z</time>
      </trkpt>
      <trkpt lat="45.26061" lon="6.03726">
        <ele>1980.4000244141</ele>
        <time>2026-08-21T10:34:25.000Z</time>
      </trkpt>
      <trkpt lat="45.26061" lon="6.03724">
        <ele>1980.1999511719</ele>
        <time>2026-08-21T10:34:26.000Z</time>
      </trkpt>
      <trkpt lat="45.2606" lon="6.03723">
        <ele>1979.8000488281</ele>
        <time>2026-08-21T10:34:27.000Z</time>
      </trkpt>
      <trkpt lat="45.2606" lon="6.03721">
        <ele>1979.8000488281</ele>
        <time>2026-08-21T10:34:28.000Z</time>
      </trkpt>
      <trkpt lat="45.26059" lon="6.03719">
        <ele>1979.8000488281</ele>
        <time>2026-08-21T10:34:29.000Z</time>
      </trkpt>
      <trkpt lat="45.26059" lon="6.03718">
        <ele>1979.5999755859</ele>
        <time>2026-08-21T10:34:30.000Z</time>
      </trkpt>
      <trkpt lat="45.26058" lon="6.03716">
        <ele>1979.8000488281</ele>
        <time>2026-08-21T10:34:31.000Z</time>
      </trkpt>
      <trkpt lat="45.26058" lon="6.03714">
        <ele>1980</ele>
        <time>2026-08-21T10:34:32.000Z</time>
      </trkpt>
      <trkpt lat="45.26057" lon="6.03712">
        <ele>1980</ele>
        <time>2026-08-21T10:34:33.000Z</time>
      </trkpt>
      <trkpt lat="45.26056" lon="6.0371">
        <ele>1980.1999511719</ele>
        <time>2026-08-21T10:34:34.000Z</time>
      </trkpt>
      <trkpt lat="45.26056" lon="6.03708">
        <ele>1980.8000488281</ele>
        <time>2026-08-21T10:34:35.000Z</time>
      </trkpt>
      <trkpt lat="45.26056" lon="6.03706">
        <ele>1981</ele>
        <time>2026-08-21T10:34:36.000Z</time>
      </trkpt>
      <trkpt lat="45.26055" lon="6.03704">
        <ele>1981.5999755859</ele>
        <time>2026-08-21T10:34:37.000Z</time>
      </trkpt>
      <trkpt lat="45.26054" lon="6.03702">
        <ele>1982.1999511719</ele>
        <time>2026-08-21T10:34:38.000Z</time>
      </trkpt>
      <trkpt lat="45.26054" lon="6.03701">
        <ele>1982.5999755859</ele>
        <time>2026-08-21T10:34:39.000Z</time>
      </trkpt>
      <trkpt lat="45.26053" lon="6.03699">
        <ele>1983</ele>
        <time>2026-08-21T10:34:40.000Z</time>
      </trkpt>
      <trkpt lat="45.26052" lon="6.03697">
        <ele>1983.1999511719</ele>
        <time>2026-08-21T10:34:41.000Z</time>
      </trkpt>
      <trkpt lat="45.26052" lon="6.03695">
        <ele>1983.4000244141</ele>
        <time>2026-08-21T10:34:42.000Z</time>
      </trkpt>
      <trkpt lat="45.26052" lon="6.03694">
        <ele>1983.8000488281</ele>
        <time>2026-08-21T10:34:43.000Z</time>
      </trkpt>
      <trkpt lat="45.26051" lon="6.03692">
        <ele>1984.1999511719</ele>
        <time>2026-08-21T10:34:44.000Z</time>
      </trkpt>
      <trkpt lat="45.26051" lon="6.0369">
        <ele>1984.5999755859</ele>
        <time>2026-08-21T10:34:45.000Z</time>
      </trkpt>
      <trkpt lat="45.2605" lon="6.03689">
        <ele>1984.8000488281</ele>
        <time>2026-08-21T10:34:46.000Z</time>
      </trkpt>
      <trkpt lat="45.26049" lon="6.03688">
        <ele>1985</ele>
        <time>2026-08-21T10:34:47.000Z</time>
      </trkpt>
      <trkpt lat="45.26049" lon="6.03686">
        <ele>1985</ele>
        <time>2026-08-21T10:34:48.000Z</time>
      </trkpt>
      <trkpt lat="45.26048" lon="6.03684">
        <ele>1985</ele>
        <time>2026-08-21T10:34:49.000Z</time>
      </trkpt>
      <trkpt lat="45.26048" lon="6.03682">
        <ele>1985</ele>
        <time>2026-08-21T10:34:50.000Z</time>
      </trkpt>
      <trkpt lat="45.26047" lon="6.03681">
        <ele>1985.1999511719</ele>
        <time>2026-08-21T10:34:51.000Z</time>
      </trkpt>
      <trkpt lat="45.26046" lon="6.03679">
        <ele>1985.1999511719</ele>
        <time>2026-08-21T10:34:52.000Z</time>
      </trkpt>
      <trkpt lat="45.26046" lon="6.03677">
        <ele>1985.4000244141</ele>
        <time>2026-08-21T10:34:53.000Z</time>
      </trkpt>
      <trkpt lat="45.26045" lon="6.03676">
        <ele>1985.8000488281</ele>
        <time>2026-08-21T10:34:54.000Z</time>
      </trkpt>
      <trkpt lat="45.26044" lon="6.03674">
        <ele>1986.8000488281</ele>
        <time>2026-08-21T10:34:55.000Z</time>
      </trkpt>
      <trkpt lat="45.26043" lon="6.03672">
        <ele>1987.1999511719</ele>
        <time>2026-08-21T10:34:56.000Z</time>
      </trkpt>
      <trkpt lat="45.26043" lon="6.03671">
        <ele>1988.1999511719</ele>
        <time>2026-08-21T10:34:57.000Z</time>
      </trkpt>
      <trkpt lat="45.26042" lon="6.03669">
        <ele>1989</ele>
        <time>2026-08-21T10:34:58.000Z</time>
      </trkpt>
      <trkpt lat="45.26041" lon="6.03668">
        <ele>1989.5999755859</ele>
        <time>2026-08-21T10:34:59.000Z</time>
      </trkpt>
      <trkpt lat="45.2604" lon="6.03666">
        <ele>1990</ele>
        <time>2026-08-21T10:35:00.000Z</time>
      </trkpt>
      <trkpt lat="45.26039" lon="6.03665">
        <ele>1990.1999511719</ele>
        <time>2026-08-21T10:35:01.000Z</time>
      </trkpt>
      <trkpt lat="45.26038" lon="6.03663">
        <ele>1990</ele>
        <time>2026-08-21T10:35:02.000Z</time>
      </trkpt>
      <trkpt lat="45.26037" lon="6.03662">
        <ele>1990</ele>
        <time>2026-08-21T10:35:03.000Z</time>
      </trkpt>
      <trkpt lat="45.26036" lon="6.03661">
        <ele>1990</ele>
        <time>2026-08-21T10:35:04.000Z</time>
      </trkpt>
      <trkpt lat="45.26036" lon="6.03659">
        <ele>1990</ele>
        <time>2026-08-21T10:35:05.000Z</time>
      </trkpt>
      <trkpt lat="45.26035" lon="6.03658">
        <ele>1990</ele>
        <time>2026-08-21T10:35:06.000Z</time>
      </trkpt>
      <trkpt lat="45.26034" lon="6.03656">
        <ele>1990.4000244141</ele>
        <time>2026-08-21T10:35:07.000Z</time>
      </trkpt>
      <trkpt lat="45.26033" lon="6.03655">
        <ele>1990.8000488281</ele>
        <time>2026-08-21T10:35:08.000Z</time>
      </trkpt>
      <trkpt lat="45.26032" lon="6.03653">
        <ele>1991.1999511719</ele>
        <time>2026-08-21T10:35:09.000Z</time>
      </trkpt>
      <trkpt lat="45.26031" lon="6.03651">
        <ele>1991.4000244141</ele>
        <time>2026-08-21T10:35:10.000Z</time>
      </trkpt>
      <trkpt lat="45.2603" lon="6.0365">
        <ele>1992.1999511719</ele>
        <time>2026-08-21T10:35:11.000Z</time>
      </trkpt>
      <trkpt lat="45.26029" lon="6.03648">
        <ele>1992.8000488281</ele>
        <time>2026-08-21T10:35:12.000Z</time>
      </trkpt>
      <trkpt lat="45.26028" lon="6.03647">
        <ele>1993.1999511719</ele>
        <time>2026-08-21T10:35:13.000Z</time>
      </trkpt>
      <trkpt lat="45.26027" lon="6.03646">
        <ele>1993.1999511719</ele>
        <time>2026-08-21T10:35:14.000Z</time>
      </trkpt>
      <trkpt lat="45.26027" lon="6.03645">
        <ele>1993.4000244141</ele>
        <time>2026-08-21T10:35:15.000Z</time>
      </trkpt>
      <trkpt lat="45.26026" lon="6.03643">
        <ele>1993.4000244141</ele>
        <time>2026-08-21T10:35:16.000Z</time>
      </trkpt>
      <trkpt lat="45.26025" lon="6.03642">
        <ele>1993.4000244141</ele>
        <time>2026-08-21T10:35:17.000Z</time>
      </trkpt>
      <trkpt lat="45.26024" lon="6.03641">
        <ele>1993.4000244141</ele>
        <time>2026-08-21T10:35:18.000Z</time>
      </trkpt>
      <trkpt lat="45.26023" lon="6.0364">
        <ele>1993.4000244141</ele>
        <time>2026-08-21T10:35:19.000Z</time>
      </trkpt>
      <trkpt lat="45.26021" lon="6.03639">
        <ele>1993.1999511719</ele>
        <time>2026-08-21T10:35:20.000Z</time>
      </trkpt>
      <trkpt lat="45.2602" lon="6.03638">
        <ele>1993.1999511719</ele>
        <time>2026-08-21T10:35:21.000Z</time>
      </trkpt>
      <trkpt lat="45.26019" lon="6.03637">
        <ele>1993.1999511719</ele>
        <time>2026-08-21T10:35:22.000Z</time>
      </trkpt>
      <trkpt lat="45.26018" lon="6.03636">
        <ele>1993.4000244141</ele>
        <time>2026-08-21T10:35:23.000Z</time>
      </trkpt>
      <trkpt lat="45.26017" lon="6.03634">
        <ele>1993.4000244141</ele>
        <time>2026-08-21T10:35:24.000Z</time>
      </trkpt>
      <trkpt lat="45.26015" lon="6.03633">
        <ele>1993.8000488281</ele>
        <time>2026-08-21T10:35:25.000Z</time>
      </trkpt>
      <trkpt lat="45.26015" lon="6.03632">
        <ele>1994.4000244141</ele>
        <time>2026-08-21T10:35:26.000Z</time>
      </trkpt>
      <trkpt lat="45.26014" lon="6.0363">
        <ele>1995</ele>
        <time>2026-08-21T10:35:27.000Z</time>
      </trkpt>
      <trkpt lat="45.26013" lon="6.03629">
        <ele>1995.5999755859</ele>
        <time>2026-08-21T10:35:28.000Z</time>
      </trkpt>
      <trkpt lat="45.26012" lon="6.03627">
        <ele>1995.8000488281</ele>
        <time>2026-08-21T10:35:29.000Z</time>
      </trkpt>
      <trkpt lat="45.2601" lon="6.03626">
        <ele>1996</ele>
        <time>2026-08-21T10:35:30.000Z</time>
      </trkpt>
      <trkpt lat="45.26009" lon="6.03625">
        <ele>1996.1999511719</ele>
        <time>2026-08-21T10:35:31.000Z</time>
      </trkpt>
      <trkpt lat="45.26008" lon="6.03624">
        <ele>1996.1999511719</ele>
        <time>2026-08-21T10:35:32.000Z</time>
      </trkpt>
      <trkpt lat="45.26007" lon="6.03622">
        <ele>1996.1999511719</ele>
        <time>2026-08-21T10:35:33.000Z</time>
      </trkpt>
      <trkpt lat="45.26006" lon="6.03621">
        <ele>1996.1999511719</ele>
        <time>2026-08-21T10:35:34.000Z</time>
      </trkpt>
      <trkpt lat="45.26006" lon="6.0362">
        <ele>1996.1999511719</ele>
        <time>2026-08-21T10:35:35.000Z</time>
      </trkpt>
      <trkpt lat="45.26005" lon="6.03618">
        <ele>1996.4000244141</ele>
        <time>2026-08-21T10:35:36.000Z</time>
      </trkpt>
      <trkpt lat="45.26004" lon="6.03617">
        <ele>1996.8000488281</ele>
        <time>2026-08-21T10:35:37.000Z</time>
      </trkpt>
      <trkpt lat="45.26003" lon="6.03616">
        <ele>1997.5999755859</ele>
        <time>2026-08-21T10:35:38.000Z</time>
      </trkpt>
      <trkpt lat="45.26002" lon="6.03615">
        <ele>1998</ele>
        <time>2026-08-21T10:35:39.000Z</time>
      </trkpt>
      <trkpt lat="45.26001" lon="6.03614">
        <ele>1998.5999755859</ele>
        <time>2026-08-21T10:35:40.000Z</time>
      </trkpt>
      <trkpt lat="45.26" lon="6.03613">
        <ele>1998.8000488281</ele>
        <time>2026-08-21T10:35:41.000Z</time>
      </trkpt>
      <trkpt lat="45.25999" lon="6.03612">
        <ele>1999.1999511719</ele>
        <time>2026-08-21T10:35:42.000Z</time>
      </trkpt>
      <trkpt lat="45.25998" lon="6.03611">
        <ele>1999.4000244141</ele>
        <time>2026-08-21T10:35:43.000Z</time>
      </trkpt>
      <trkpt lat="45.25997" lon="6.0361">
        <ele>1999.5999755859</ele>
        <time>2026-08-21T10:35:44.000Z</time>
      </trkpt>
      <trkpt lat="45.25996" lon="6.03608">
        <ele>2000</ele>
        <time>2026-08-21T10:35:45.000Z</time>
      </trkpt>
      <trkpt lat="45.25994" lon="6.03606">
        <ele>2000.1999511719</ele>
        <time>2026-08-21T10:35:46.000Z</time>
      </trkpt>
      <trkpt lat="45.25993" lon="6.03605">
        <ele>2000.5999755859</ele>
        <time>2026-08-21T10:35:47.000Z</time>
      </trkpt>
      <trkpt lat="45.25992" lon="6.03604">
        <ele>2000.8000488281</ele>
        <time>2026-08-21T10:35:48.000Z</time>
      </trkpt>
      <trkpt lat="45.25991" lon="6.03602">
        <ele>2000.8000488281</ele>
        <time>2026-08-21T10:35:49.000Z</time>
      </trkpt>
      <trkpt lat="45.2599" lon="6.03601">
        <ele>2001</ele>
        <time>2026-08-21T10:35:50.000Z</time>
      </trkpt>
      <trkpt lat="45.25989" lon="6.036">
        <ele>2001.1999511719</ele>
        <time>2026-08-21T10:35:51.000Z</time>
      </trkpt>
      <trkpt lat="45.25988" lon="6.03599">
        <ele>2001.4000244141</ele>
        <time>2026-08-21T10:35:52.000Z</time>
      </trkpt>
      <trkpt lat="45.25987" lon="6.03598">
        <ele>2001.5999755859</ele>
        <time>2026-08-21T10:35:53.000Z</time>
      </trkpt>
      <trkpt lat="45.25986" lon="6.03597">
        <ele>2001.8000488281</ele>
        <time>2026-08-21T10:35:54.000Z</time>
      </trkpt>
      <trkpt lat="45.25985" lon="6.03595">
        <ele>2001.8000488281</ele>
        <time>2026-08-21T10:35:55.000Z</time>
      </trkpt>
      <trkpt lat="45.25984" lon="6.03594">
        <ele>2001.8000488281</ele>
        <time>2026-08-21T10:35:56.000Z</time>
      </trkpt>
      <trkpt lat="45.25983" lon="6.03593">
        <ele>2001.8000488281</ele>
        <time>2026-08-21T10:35:57.000Z</time>
      </trkpt>
      <trkpt lat="45.25981" lon="6.03591">
        <ele>2002</ele>
        <time>2026-08-21T10:35:58.000Z</time>
      </trkpt>
      <trkpt lat="45.2598" lon="6.0359">
        <ele>2002.1999511719</ele>
        <time>2026-08-21T10:35:59.000Z</time>
      </trkpt>
      <trkpt lat="45.25979" lon="6.03588">
        <ele>2002.4000244141</ele>
        <time>2026-08-21T10:36:00.000Z</time>
      </trkpt>
      <trkpt lat="45.25979" lon="6.03587">
        <ele>2002.4000244141</ele>
        <time>2026-08-21T10:36:01.000Z</time>
      </trkpt>
      <trkpt lat="45.25978" lon="6.03586">
        <ele>2002.5999755859</ele>
        <time>2026-08-21T10:36:02.000Z</time>
      </trkpt>
      <trkpt lat="45.25977" lon="6.03585">
        <ele>2002.5999755859</ele>
        <time>2026-08-21T10:36:03.000Z</time>
      </trkpt>
      <trkpt lat="45.25976" lon="6.03584">
        <ele>2002.5999755859</ele>
        <time>2026-08-21T10:36:04.000Z</time>
      </trkpt>
      <trkpt lat="45.25976" lon="6.03583">
        <ele>2002.5999755859</ele>
        <time>2026-08-21T10:36:05.000Z</time>
      </trkpt>
      <trkpt lat="45.25975" lon="6.03581">
        <ele>2002.5999755859</ele>
        <time>2026-08-21T10:36:06.000Z</time>
      </trkpt>
      <trkpt lat="45.25974" lon="6.0358">
        <ele>2002.8000488281</ele>
        <time>2026-08-21T10:36:07.000Z</time>
      </trkpt>
      <trkpt lat="45.25973" lon="6.03579">
        <ele>2003</ele>
        <time>2026-08-21T10:36:08.000Z</time>
      </trkpt>
      <trkpt lat="45.25972" lon="6.03578">
        <ele>2003.1999511719</ele>
        <time>2026-08-21T10:36:09.000Z</time>
      </trkpt>
      <trkpt lat="45.25971" lon="6.03577">
        <ele>2003.8000488281</ele>
        <time>2026-08-21T10:36:10.000Z</time>
      </trkpt>
      <trkpt lat="45.2597" lon="6.03576">
        <ele>2004</ele>
        <time>2026-08-21T10:36:11.000Z</time>
      </trkpt>
      <trkpt lat="45.25969" lon="6.03575">
        <ele>2004.4000244141</ele>
        <time>2026-08-21T10:36:12.000Z</time>
      </trkpt>
      <trkpt lat="45.25969" lon="6.03573">
        <ele>2004.5999755859</ele>
        <time>2026-08-21T10:36:13.000Z</time>
      </trkpt>
      <trkpt lat="45.25968" lon="6.03572">
        <ele>2004.5999755859</ele>
        <time>2026-08-21T10:36:14.000Z</time>
      </trkpt>
      <trkpt lat="45.25967" lon="6.0357">
        <ele>2004.5999755859</ele>
        <time>2026-08-21T10:36:15.000Z</time>
      </trkpt>
      <trkpt lat="45.25966" lon="6.03569">
        <ele>2004.8000488281</ele>
        <time>2026-08-21T10:36:16.000Z</time>
      </trkpt>
      <trkpt lat="45.25965" lon="6.03567">
        <ele>2005</ele>
        <time>2026-08-21T10:36:17.000Z</time>
      </trkpt>
      <trkpt lat="45.25964" lon="6.03566">
        <ele>2005.4000244141</ele>
        <time>2026-08-21T10:36:18.000Z</time>
      </trkpt>
      <trkpt lat="45.25964" lon="6.03564">
        <ele>2005.4000244141</ele>
        <time>2026-08-21T10:36:19.000Z</time>
      </trkpt>
      <trkpt lat="45.25963" lon="6.03563">
        <ele>2006</ele>
        <time>2026-08-21T10:36:20.000Z</time>
      </trkpt>
      <trkpt lat="45.25962" lon="6.03561">
        <ele>2006.4000244141</ele>
        <time>2026-08-21T10:36:21.000Z</time>
      </trkpt>
      <trkpt lat="45.25961" lon="6.0356">
        <ele>2007</ele>
        <time>2026-08-21T10:36:22.000Z</time>
      </trkpt>
      <trkpt lat="45.25961" lon="6.03558">
        <ele>2007.5999755859</ele>
        <time>2026-08-21T10:36:23.000Z</time>
      </trkpt>
      <trkpt lat="45.2596" lon="6.03557">
        <ele>2008</ele>
        <time>2026-08-21T10:36:24.000Z</time>
      </trkpt>
      <trkpt lat="45.25959" lon="6.03555">
        <ele>2008.1999511719</ele>
        <time>2026-08-21T10:36:25.000Z</time>
      </trkpt>
      <trkpt lat="45.25959" lon="6.03554">
        <ele>2009</ele>
        <time>2026-08-21T10:36:26.000Z</time>
      </trkpt>
      <trkpt lat="45.25958" lon="6.03552">
        <ele>2009.4000244141</ele>
        <time>2026-08-21T10:36:27.000Z</time>
      </trkpt>
      <trkpt lat="45.25957" lon="6.03551">
        <ele>2009.8000488281</ele>
        <time>2026-08-21T10:36:28.000Z</time>
      </trkpt>
      <trkpt lat="45.25957" lon="6.03549">
        <ele>2010</ele>
        <time>2026-08-21T10:36:29.000Z</time>
      </trkpt>
      <trkpt lat="45.25956" lon="6.03548">
        <ele>2010.1999511719</ele>
        <time>2026-08-21T10:36:30.000Z</time>
      </trkpt>
      <trkpt lat="45.25955" lon="6.03546">
        <ele>2010.4000244141</ele>
        <time>2026-08-21T10:36:31.000Z</time>
      </trkpt>
      <trkpt lat="45.25954" lon="6.03545">
        <ele>2010.4000244141</ele>
        <time>2026-08-21T10:36:32.000Z</time>
      </trkpt>
      <trkpt lat="45.25953" lon="6.03543">
        <ele>2010.4000244141</ele>
        <time>2026-08-21T10:36:33.000Z</time>
      </trkpt>
      <trkpt lat="45.25953" lon="6.03542">
        <ele>2010.4000244141</ele>
        <time>2026-08-21T10:36:34.000Z</time>
      </trkpt>
      <trkpt lat="45.25952" lon="6.03541">
        <ele>2010.4000244141</ele>
        <time>2026-08-21T10:36:35.000Z</time>
      </trkpt>
      <trkpt lat="45.25951" lon="6.03539">
        <ele>2010.4000244141</ele>
        <time>2026-08-21T10:36:36.000Z</time>
      </trkpt>
      <trkpt lat="45.25951" lon="6.03538">
        <ele>2010.5999755859</ele>
        <time>2026-08-21T10:36:37.000Z</time>
      </trkpt>
      <trkpt lat="45.2595" lon="6.03537">
        <ele>2010.8000488281</ele>
        <time>2026-08-21T10:36:38.000Z</time>
      </trkpt>
      <trkpt lat="45.25949" lon="6.03536">
        <ele>2010.8000488281</ele>
        <time>2026-08-21T10:36:39.000Z</time>
      </trkpt>
      <trkpt lat="45.25948" lon="6.03534">
        <ele>2011</ele>
        <time>2026-08-21T10:36:40.000Z</time>
      </trkpt>
      <trkpt lat="45.25947" lon="6.03533">
        <ele>2011</ele>
        <time>2026-08-21T10:36:41.000Z</time>
      </trkpt>
      <trkpt lat="45.25946" lon="6.03532">
        <ele>2011.1999511719</ele>
        <time>2026-08-21T10:36:42.000Z</time>
      </trkpt>
      <trkpt lat="45.25945" lon="6.0353">
        <ele>2011.4000244141</ele>
        <time>2026-08-21T10:36:43.000Z</time>
      </trkpt>
      <trkpt lat="45.25944" lon="6.03529">
        <ele>2011.8000488281</ele>
        <time>2026-08-21T10:36:44.000Z</time>
      </trkpt>
      <trkpt lat="45.25944" lon="6.03527">
        <ele>2012.1999511719</ele>
        <time>2026-08-21T10:36:45.000Z</time>
      </trkpt>
      <trkpt lat="45.25943" lon="6.03526">
        <ele>2012.4000244141</ele>
        <time>2026-08-21T10:36:46.000Z</time>
      </trkpt>
      <trkpt lat="45.25942" lon="6.03524">
        <ele>2012.4000244141</ele>
        <time>2026-08-21T10:36:47.000Z</time>
      </trkpt>
      <trkpt lat="45.25941" lon="6.03522">
        <ele>2012.8000488281</ele>
        <time>2026-08-21T10:36:48.000Z</time>
      </trkpt>
      <trkpt lat="45.25941" lon="6.03521">
        <ele>2012.8000488281</ele>
        <time>2026-08-21T10:36:49.000Z</time>
      </trkpt>
      <trkpt lat="45.25939" lon="6.03519">
        <ele>2013</ele>
        <time>2026-08-21T10:36:50.000Z</time>
      </trkpt>
      <trkpt lat="45.25938" lon="6.03517">
        <ele>2013.8000488281</ele>
        <time>2026-08-21T10:36:51.000Z</time>
      </trkpt>
      <trkpt lat="45.25938" lon="6.03516">
        <ele>2014.5999755859</ele>
        <time>2026-08-21T10:36:52.000Z</time>
      </trkpt>
      <trkpt lat="45.25937" lon="6.03514">
        <ele>2015.8000488281</ele>
        <time>2026-08-21T10:36:53.000Z</time>
      </trkpt>
      <trkpt lat="45.25936" lon="6.03513">
        <ele>2016.4000244141</ele>
        <time>2026-08-21T10:36:54.000Z</time>
      </trkpt>
      <trkpt lat="45.25935" lon="6.03512">
        <ele>2017</ele>
        <time>2026-08-21T10:36:55.000Z</time>
      </trkpt>
      <trkpt lat="45.25934" lon="6.0351">
        <ele>2017.5999755859</ele>
        <time>2026-08-21T10:36:56.000Z</time>
      </trkpt>
      <trkpt lat="45.25933" lon="6.03509">
        <ele>2018</ele>
        <time>2026-08-21T10:36:57.000Z</time>
      </trkpt>
      <trkpt lat="45.25931" lon="6.03508">
        <ele>2018.4000244141</ele>
        <time>2026-08-21T10:36:58.000Z</time>
      </trkpt>
      <trkpt lat="45.2593" lon="6.03506">
        <ele>2019.1999511719</ele>
        <time>2026-08-21T10:36:59.000Z</time>
      </trkpt>
      <trkpt lat="45.25929" lon="6.03504">
        <ele>2019.1999511719</ele>
        <time>2026-08-21T10:37:00.000Z</time>
      </trkpt>
      <trkpt lat="45.25928" lon="6.03502">
        <ele>2019.1999511719</ele>
        <time>2026-08-21T10:37:01.000Z</time>
      </trkpt>
      <trkpt lat="45.25927" lon="6.03501">
        <ele>2019.4000244141</ele>
        <time>2026-08-21T10:37:02.000Z</time>
      </trkpt>
      <trkpt lat="45.25927" lon="6.03499">
        <ele>2019.1999511719</ele>
        <time>2026-08-21T10:37:03.000Z</time>
      </trkpt>
      <trkpt lat="45.25925" lon="6.03498">
        <ele>2019</ele>
        <time>2026-08-21T10:37:04.000Z</time>
      </trkpt>
      <trkpt lat="45.25925" lon="6.03496">
        <ele>2019.1999511719</ele>
        <time>2026-08-21T10:37:05.000Z</time>
      </trkpt>
      <trkpt lat="45.25924" lon="6.03495">
        <ele>2019</ele>
        <time>2026-08-21T10:37:06.000Z</time>
      </trkpt>
      <trkpt lat="45.25923" lon="6.03493">
        <ele>2019.1999511719</ele>
        <time>2026-08-21T10:37:07.000Z</time>
      </trkpt>
      <trkpt lat="45.25922" lon="6.03492">
        <ele>2019</ele>
        <time>2026-08-21T10:37:08.000Z</time>
      </trkpt>
      <trkpt lat="45.25921" lon="6.0349">
        <ele>2019</ele>
        <time>2026-08-21T10:37:09.000Z</time>
      </trkpt>
      <trkpt lat="45.2592" lon="6.03489">
        <ele>2019</ele>
        <time>2026-08-21T10:37:10.000Z</time>
      </trkpt>
      <trkpt lat="45.25919" lon="6.03487">
        <ele>2018.8000488281</ele>
        <time>2026-08-21T10:37:11.000Z</time>
      </trkpt>
      <trkpt lat="45.25918" lon="6.03485">
        <ele>2018.8000488281</ele>
        <time>2026-08-21T10:37:12.000Z</time>
      </trkpt>
      <trkpt lat="45.25917" lon="6.03483">
        <ele>2019</ele>
        <time>2026-08-21T10:37:13.000Z</time>
      </trkpt>
      <trkpt lat="45.25916" lon="6.03481">
        <ele>2019.1999511719</ele>
        <time>2026-08-21T10:37:14.000Z</time>
      </trkpt>
      <trkpt lat="45.25915" lon="6.0348">
        <ele>2019.1999511719</ele>
        <time>2026-08-21T10:37:15.000Z</time>
      </trkpt>
      <trkpt lat="45.25914" lon="6.03479">
        <ele>2019.1999511719</ele>
        <time>2026-08-21T10:37:16.000Z</time>
      </trkpt>
      <trkpt lat="45.25913" lon="6.03477">
        <ele>2019.1999511719</ele>
        <time>2026-08-21T10:37:17.000Z</time>
      </trkpt>
      <trkpt lat="45.25912" lon="6.03476">
        <ele>2019.1999511719</ele>
        <time>2026-08-21T10:37:18.000Z</time>
      </trkpt>
      <trkpt lat="45.25911" lon="6.03474">
        <ele>2019.1999511719</ele>
        <time>2026-08-21T10:37:19.000Z</time>
      </trkpt>
      <trkpt lat="45.2591" lon="6.03472">
        <ele>2019.1999511719</ele>
        <time>2026-08-21T10:37:20.000Z</time>
      </trkpt>
      <trkpt lat="45.25909" lon="6.0347">
        <ele>2019.5999755859</ele>
        <time>2026-08-21T10:37:21.000Z</time>
      </trkpt>
      <trkpt lat="45.25908" lon="6.03468">
        <ele>2020.4000244141</ele>
        <time>2026-08-21T10:37:22.000Z</time>
      </trkpt>
      <trkpt lat="45.25907" lon="6.03467">
        <ele>2020.5999755859</ele>
        <time>2026-08-21T10:37:23.000Z</time>
      </trkpt>
      <trkpt lat="45.25907" lon="6.03465">
        <ele>2020.8000488281</ele>
        <time>2026-08-21T10:37:24.000Z</time>
      </trkpt>
      <trkpt lat="45.25906" lon="6.03464">
        <ele>2021.4000244141</ele>
        <time>2026-08-21T10:37:25.000Z</time>
      </trkpt>
      <trkpt lat="45.25905" lon="6.03462">
        <ele>2022</ele>
        <time>2026-08-21T10:37:26.000Z</time>
      </trkpt>
      <trkpt lat="45.25904" lon="6.03461">
        <ele>2022.5999755859</ele>
        <time>2026-08-21T10:37:27.000Z</time>
      </trkpt>
      <trkpt lat="45.25902" lon="6.0346">
        <ele>2023.4000244141</ele>
        <time>2026-08-21T10:37:28.000Z</time>
      </trkpt>
      <trkpt lat="45.25901" lon="6.03458">
        <ele>2024</ele>
        <time>2026-08-21T10:37:29.000Z</time>
      </trkpt>
      <trkpt lat="45.259" lon="6.03456">
        <ele>2024</ele>
        <time>2026-08-21T10:37:30.000Z</time>
      </trkpt>
      <trkpt lat="45.25899" lon="6.03454">
        <ele>2024.1999511719</ele>
        <time>2026-08-21T10:37:31.000Z</time>
      </trkpt>
      <trkpt lat="45.25898" lon="6.03452">
        <ele>2024.8000488281</ele>
        <time>2026-08-21T10:37:32.000Z</time>
      </trkpt>
      <trkpt lat="45.25897" lon="6.0345">
        <ele>2024.8000488281</ele>
        <time>2026-08-21T10:37:33.000Z</time>
      </trkpt>
      <trkpt lat="45.25896" lon="6.03449">
        <ele>2024.8000488281</ele>
        <time>2026-08-21T10:37:34.000Z</time>
      </trkpt>
      <trkpt lat="45.25895" lon="6.03447">
        <ele>2024.5999755859</ele>
        <time>2026-08-21T10:37:35.000Z</time>
      </trkpt>
      <trkpt lat="45.25894" lon="6.03445">
        <ele>2024.1999511719</ele>
        <time>2026-08-21T10:37:36.000Z</time>
      </trkpt>
      <trkpt lat="45.25893" lon="6.03443">
        <ele>2023.8000488281</ele>
        <time>2026-08-21T10:37:37.000Z</time>
      </trkpt>
      <trkpt lat="45.25892" lon="6.03441">
        <ele>2023.5999755859</ele>
        <time>2026-08-21T10:37:38.000Z</time>
      </trkpt>
      <trkpt lat="45.25891" lon="6.03439">
        <ele>2023.4000244141</ele>
        <time>2026-08-21T10:37:39.000Z</time>
      </trkpt>
      <trkpt lat="45.2589" lon="6.03437">
        <ele>2023.1999511719</ele>
        <time>2026-08-21T10:37:40.000Z</time>
      </trkpt>
      <trkpt lat="45.25889" lon="6.03435">
        <ele>2022.8000488281</ele>
        <time>2026-08-21T10:37:41.000Z</time>
      </trkpt>
      <trkpt lat="45.25888" lon="6.03433">
        <ele>2022.8000488281</ele>
        <time>2026-08-21T10:37:42.000Z</time>
      </trkpt>
      <trkpt lat="45.25887" lon="6.03431">
        <ele>2022.8000488281</ele>
        <time>2026-08-21T10:37:43.000Z</time>
      </trkpt>
      <trkpt lat="45.25886" lon="6.03429">
        <ele>2022.8000488281</ele>
        <time>2026-08-21T10:37:44.000Z</time>
      </trkpt>
      <trkpt lat="45.25884" lon="6.03427">
        <ele>2022.8000488281</ele>
        <time>2026-08-21T10:37:45.000Z</time>
      </trkpt>
      <trkpt lat="45.25883" lon="6.03424">
        <ele>2027.4000244141</ele>
        <time>2026-08-21T10:37:46.000Z</time>
      </trkpt>
      <trkpt lat="45.25881" lon="6.03422">
        <ele>2028.4000244141</ele>
        <time>2026-08-21T10:37:47.000Z</time>
      </trkpt>
      <trkpt lat="45.2588" lon="6.03419">
        <ele>2028.5999755859</ele>
        <time>2026-08-21T10:37:48.000Z</time>
      </trkpt>
      <trkpt lat="45.25878" lon="6.03417">
        <ele>2029</ele>
        <time>2026-08-21T10:37:49.000Z</time>
      </trkpt>
      <trkpt lat="45.25877" lon="6.03415">
        <ele>2029.1999511719</ele>
        <time>2026-08-21T10:37:50.000Z</time>
      </trkpt>
      <trkpt lat="45.25876" lon="6.03412">
        <ele>2029.4000244141</ele>
        <time>2026-08-21T10:37:51.000Z</time>
      </trkpt>
      <trkpt lat="45.25874" lon="6.03409">
        <ele>2031</ele>
        <time>2026-08-21T10:37:52.000Z</time>
      </trkpt>
      <trkpt lat="45.25873" lon="6.03407">
        <ele>2030.5999755859</ele>
        <time>2026-08-21T10:37:53.000Z</time>
      </trkpt>
      <trkpt lat="45.25871" lon="6.03404">
        <ele>2030.4000244141</ele>
        <time>2026-08-21T10:37:54.000Z</time>
      </trkpt>
      <trkpt lat="45.2587" lon="6.03402">
        <ele>2030.4000244141</ele>
        <time>2026-08-21T10:37:55.000Z</time>
      </trkpt>
      <trkpt lat="45.25869" lon="6.03399">
        <ele>2030.1999511719</ele>
        <time>2026-08-21T10:37:56.000Z</time>
      </trkpt>
      <trkpt lat="45.25868" lon="6.03397">
        <ele>2030.1999511719</ele>
        <time>2026-08-21T10:37:57.000Z</time>
      </trkpt>
      <trkpt lat="45.25867" lon="6.03395">
        <ele>2030.4000244141</ele>
        <time>2026-08-21T10:37:58.000Z</time>
      </trkpt>
      <trkpt lat="45.25865" lon="6.03392">
        <ele>2030.8000488281</ele>
        <time>2026-08-21T10:37:59.000Z</time>
      </trkpt>
      <trkpt lat="45.25864" lon="6.0339">
        <ele>2030.8000488281</ele>
        <time>2026-08-21T10:38:00.000Z</time>
      </trkpt>
      <trkpt lat="45.25863" lon="6.03388">
        <ele>2030.8000488281</ele>
        <time>2026-08-21T10:38:01.000Z</time>
      </trkpt>
      <trkpt lat="45.25861" lon="6.03385">
        <ele>2030.8000488281</ele>
        <time>2026-08-21T10:38:02.000Z</time>
      </trkpt>
      <trkpt lat="45.2586" lon="6.03383">
        <ele>2030.4000244141</ele>
        <time>2026-08-21T10:38:03.000Z</time>
      </trkpt>
      <trkpt lat="45.25859" lon="6.0338">
        <ele>2030.1999511719</ele>
        <time>2026-08-21T10:38:04.000Z</time>
      </trkpt>
      <trkpt lat="45.25857" lon="6.03378">
        <ele>2030</ele>
        <time>2026-08-21T10:38:05.000Z</time>
      </trkpt>
      <trkpt lat="45.25856" lon="6.03376">
        <ele>2030</ele>
        <time>2026-08-21T10:38:06.000Z</time>
      </trkpt>
      <trkpt lat="45.25855" lon="6.03373">
        <ele>2030</ele>
        <time>2026-08-21T10:38:07.000Z</time>
      </trkpt>
      <trkpt lat="45.25854" lon="6.03371">
        <ele>2029.5999755859</ele>
        <time>2026-08-21T10:38:08.000Z</time>
      </trkpt>
      <trkpt lat="45.25852" lon="6.03369">
        <ele>2029.4000244141</ele>
        <time>2026-08-21T10:38:09.000Z</time>
      </trkpt>
      <trkpt lat="45.25851" lon="6.03366">
        <ele>2029.5999755859</ele>
        <time>2026-08-21T10:38:10.000Z</time>
      </trkpt>
      <trkpt lat="45.2585" lon="6.03364">
        <ele>2029.5999755859</ele>
        <time>2026-08-21T10:38:11.000Z</time>
      </trkpt>
      <trkpt lat="45.25849" lon="6.03361">
        <ele>2029.8000488281</ele>
        <time>2026-08-21T10:38:12.000Z</time>
      </trkpt>
      <trkpt lat="45.25848" lon="6.03359">
        <ele>2029.8000488281</ele>
        <time>2026-08-21T10:38:13.000Z</time>
      </trkpt>
      <trkpt lat="45.25847" lon="6.03357">
        <ele>2030</ele>
        <time>2026-08-21T10:38:14.000Z</time>
      </trkpt>
      <trkpt lat="45.25845" lon="6.03355">
        <ele>2030.5999755859</ele>
        <time>2026-08-21T10:38:15.000Z</time>
      </trkpt>
      <trkpt lat="45.25844" lon="6.03353">
        <ele>2031.4000244141</ele>
        <time>2026-08-21T10:38:16.000Z</time>
      </trkpt>
      <trkpt lat="45.25844" lon="6.03352">
        <ele>2032.1999511719</ele>
        <time>2026-08-21T10:38:17.000Z</time>
      </trkpt>
      <trkpt lat="45.25843" lon="6.0335">
        <ele>2032.8000488281</ele>
        <time>2026-08-21T10:38:18.000Z</time>
      </trkpt>
      <trkpt lat="45.25842" lon="6.03348">
        <ele>2033.1999511719</ele>
        <time>2026-08-21T10:38:19.000Z</time>
      </trkpt>
      <trkpt lat="45.25841" lon="6.03346">
        <ele>2033.8000488281</ele>
        <time>2026-08-21T10:38:20.000Z</time>
      </trkpt>
      <trkpt lat="45.2584" lon="6.03346">
        <ele>2034</ele>
        <time>2026-08-21T10:38:21.000Z</time>
      </trkpt>
      <trkpt lat="45.25839" lon="6.03345">
        <ele>2033.8000488281</ele>
        <time>2026-08-21T10:38:22.000Z</time>
      </trkpt>
      <trkpt lat="45.25839" lon="6.03344">
        <ele>2033.5999755859</ele>
        <time>2026-08-21T10:38:23.000Z</time>
      </trkpt>
      <trkpt lat="45.25838" lon="6.03342">
        <ele>2033.4000244141</ele>
        <time>2026-08-21T10:38:24.000Z</time>
      </trkpt>
      <trkpt lat="45.25837" lon="6.0334">
        <ele>2033</ele>
        <time>2026-08-21T10:38:25.000Z</time>
      </trkpt>
      <trkpt lat="45.25836" lon="6.03338">
        <ele>2032.8000488281</ele>
        <time>2026-08-21T10:38:26.000Z</time>
      </trkpt>
      <trkpt lat="45.25835" lon="6.03337">
        <ele>2032.5999755859</ele>
        <time>2026-08-21T10:38:27.000Z</time>
      </trkpt>
      <trkpt lat="45.25835" lon="6.03334">
        <ele>2028.8000488281</ele>
        <time>2026-08-21T10:38:28.000Z</time>
      </trkpt>
      <trkpt lat="45.25834" lon="6.03332">
        <ele>2027.4000244141</ele>
        <time>2026-08-21T10:38:29.000Z</time>
      </trkpt>
      <trkpt lat="45.25833" lon="6.0333">
        <ele>2026.8000488281</ele>
        <time>2026-08-21T10:38:30.000Z</time>
      </trkpt>
      <trkpt lat="45.25833" lon="6.03329">
        <ele>2026.5999755859</ele>
        <time>2026-08-21T10:38:31.000Z</time>
      </trkpt>
      <trkpt lat="45.25832" lon="6.03327">
        <ele>2025.8000488281</ele>
        <time>2026-08-21T10:38:32.000Z</time>
      </trkpt>
      <trkpt lat="45.25832" lon="6.03326">
        <ele>2025.1999511719</ele>
        <time>2026-08-21T10:38:33.000Z</time>
      </trkpt>
      <trkpt lat="45.25831" lon="6.03325">
        <ele>2024.8000488281</ele>
        <time>2026-08-21T10:38:34.000Z</time>
      </trkpt>
      <trkpt lat="45.2583" lon="6.03324">
        <ele>2024.4000244141</ele>
        <time>2026-08-21T10:38:35.000Z</time>
      </trkpt>
      <trkpt lat="45.25829" lon="6.03323">
        <ele>2024.4000244141</ele>
        <time>2026-08-21T10:38:36.000Z</time>
      </trkpt>
      <trkpt lat="45.25829" lon="6.03322">
        <ele>2024.4000244141</ele>
        <time>2026-08-21T10:38:37.000Z</time>
      </trkpt>
      <trkpt lat="45.25828" lon="6.03321">
        <ele>2025</ele>
        <time>2026-08-21T10:38:38.000Z</time>
      </trkpt>
      <trkpt lat="45.25827" lon="6.0332">
        <ele>2025.4000244141</ele>
        <time>2026-08-21T10:38:39.000Z</time>
      </trkpt>
      <trkpt lat="45.25827" lon="6.03318">
        <ele>2026</ele>
        <time>2026-08-21T10:38:40.000Z</time>
      </trkpt>
      <trkpt lat="45.25826" lon="6.03317">
        <ele>2026.5999755859</ele>
        <time>2026-08-21T10:38:41.000Z</time>
      </trkpt>
      <trkpt lat="45.25825" lon="6.03315">
        <ele>2026.8000488281</ele>
        <time>2026-08-21T10:38:42.000Z</time>
      </trkpt>
      <trkpt lat="45.25825" lon="6.03314">
        <ele>2027.4000244141</ele>
        <time>2026-08-21T10:38:43.000Z</time>
      </trkpt>
      <trkpt lat="45.25824" lon="6.03312">
        <ele>2027.4000244141</ele>
        <time>2026-08-21T10:38:44.000Z</time>
      </trkpt>
      <trkpt lat="45.25824" lon="6.03311">
        <ele>2028</ele>
        <time>2026-08-21T10:38:45.000Z</time>
      </trkpt>
      <trkpt lat="45.25823" lon="6.03309">
        <ele>2028.4000244141</ele>
        <time>2026-08-21T10:38:46.000Z</time>
      </trkpt>
      <trkpt lat="45.25822" lon="6.03308">
        <ele>2029</ele>
        <time>2026-08-21T10:38:47.000Z</time>
      </trkpt>
      <trkpt lat="45.25822" lon="6.03307">
        <ele>2029.4000244141</ele>
        <time>2026-08-21T10:38:48.000Z</time>
      </trkpt>
      <trkpt lat="45.25821" lon="6.03306">
        <ele>2030</ele>
        <time>2026-08-21T10:38:49.000Z</time>
      </trkpt>
      <trkpt lat="45.25821" lon="6.03305">
        <ele>2030</ele>
        <time>2026-08-21T10:38:50.000Z</time>
      </trkpt>
      <trkpt lat="45.2582" lon="6.03304">
        <ele>2030</ele>
        <time>2026-08-21T10:38:51.000Z</time>
      </trkpt>
      <trkpt lat="45.2582" lon="6.03303">
        <ele>2030.1999511719</ele>
        <time>2026-08-21T10:38:52.000Z</time>
      </trkpt>
      <trkpt lat="45.25819" lon="6.03301">
        <ele>2030.1999511719</ele>
        <time>2026-08-21T10:38:53.000Z</time>
      </trkpt>
      <trkpt lat="45.25818" lon="6.033">
        <ele>2030.4000244141</ele>
        <time>2026-08-21T10:38:54.000Z</time>
      </trkpt>
      <trkpt lat="45.25818" lon="6.03298">
        <ele>2031</ele>
        <time>2026-08-21T10:38:55.000Z</time>
      </trkpt>
      <trkpt lat="45.25817" lon="6.03298">
        <ele>2032</ele>
        <time>2026-08-21T10:38:56.000Z</time>
      </trkpt>
      <trkpt lat="45.25816" lon="6.03296">
        <ele>2032.1999511719</ele>
        <time>2026-08-21T10:38:57.000Z</time>
      </trkpt>
      <trkpt lat="45.25815" lon="6.03295">
        <ele>2032.4000244141</ele>
        <time>2026-08-21T10:38:58.000Z</time>
      </trkpt>
      <trkpt lat="45.25815" lon="6.03294">
        <ele>2032.5999755859</ele>
        <time>2026-08-21T10:38:59.000Z</time>
      </trkpt>
      <trkpt lat="45.25814" lon="6.03293">
        <ele>2033.4000244141</ele>
        <time>2026-08-21T10:39:00.000Z</time>
      </trkpt>
      <trkpt lat="45.25814" lon="6.03292">
        <ele>2034.8000488281</ele>
        <time>2026-08-21T10:39:01.000Z</time>
      </trkpt>
      <trkpt lat="45.25813" lon="6.03291">
        <ele>2035.4000244141</ele>
        <time>2026-08-21T10:39:02.000Z</time>
      </trkpt>
      <trkpt lat="45.25813" lon="6.0329">
        <ele>2036</ele>
        <time>2026-08-21T10:39:03.000Z</time>
      </trkpt>
      <trkpt lat="45.25812" lon="6.03289">
        <ele>2036.4000244141</ele>
        <time>2026-08-21T10:39:04.000Z</time>
      </trkpt>
      <trkpt lat="45.25812" lon="6.03288">
        <ele>2036.8000488281</ele>
        <time>2026-08-21T10:39:05.000Z</time>
      </trkpt>
      <trkpt lat="45.25811" lon="6.03287">
        <ele>2037.1999511719</ele>
        <time>2026-08-21T10:39:06.000Z</time>
      </trkpt>
      <trkpt lat="45.25811" lon="6.03286">
        <ele>2037.8000488281</ele>
        <time>2026-08-21T10:39:07.000Z</time>
      </trkpt>
      <trkpt lat="45.2581" lon="6.03285">
        <ele>2038.1999511719</ele>
        <time>2026-08-21T10:39:08.000Z</time>
      </trkpt>
      <trkpt lat="45.2581" lon="6.03283">
        <ele>2037.8000488281</ele>
        <time>2026-08-21T10:39:09.000Z</time>
      </trkpt>
      <trkpt lat="45.25809" lon="6.03282">
        <ele>2037.5999755859</ele>
        <time>2026-08-21T10:39:10.000Z</time>
      </trkpt>
      <trkpt lat="45.25808" lon="6.03281">
        <ele>2037.1999511719</ele>
        <time>2026-08-21T10:39:11.000Z</time>
      </trkpt>
      <trkpt lat="45.25808" lon="6.0328">
        <ele>2036.4000244141</ele>
        <time>2026-08-21T10:39:12.000Z</time>
      </trkpt>
      <trkpt lat="45.25808" lon="6.03278">
        <ele>2036</ele>
        <time>2026-08-21T10:39:13.000Z</time>
      </trkpt>
      <trkpt lat="45.25808" lon="6.03277">
        <ele>2035.4000244141</ele>
        <time>2026-08-21T10:39:14.000Z</time>
      </trkpt>
      <trkpt lat="45.25807" lon="6.03276">
        <ele>2035.4000244141</ele>
        <time>2026-08-21T10:39:15.000Z</time>
      </trkpt>
      <trkpt lat="45.25806" lon="6.03275">
        <ele>2035.4000244141</ele>
        <time>2026-08-21T10:39:16.000Z</time>
      </trkpt>
      <trkpt lat="45.25806" lon="6.03274">
        <ele>2035.5999755859</ele>
        <time>2026-08-21T10:39:17.000Z</time>
      </trkpt>
      <trkpt lat="45.25806" lon="6.03273">
        <ele>2035.8000488281</ele>
        <time>2026-08-21T10:39:18.000Z</time>
      </trkpt>
      <trkpt lat="45.25805" lon="6.03272">
        <ele>2036</ele>
        <time>2026-08-21T10:39:19.000Z</time>
      </trkpt>
      <trkpt lat="45.25805" lon="6.03271">
        <ele>2036.4000244141</ele>
        <time>2026-08-21T10:39:20.000Z</time>
      </trkpt>
      <trkpt lat="45.25805" lon="6.0327">
        <ele>2036.5999755859</ele>
        <time>2026-08-21T10:39:21.000Z</time>
      </trkpt>
      <trkpt lat="45.25804" lon="6.03269">
        <ele>2036.8000488281</ele>
        <time>2026-08-21T10:39:22.000Z</time>
      </trkpt>
      <trkpt lat="45.25804" lon="6.03268">
        <ele>2036.8000488281</ele>
        <time>2026-08-21T10:39:23.000Z</time>
      </trkpt>
      <trkpt lat="45.25803" lon="6.03267">
        <ele>2037.1999511719</ele>
        <time>2026-08-21T10:39:24.000Z</time>
      </trkpt>
      <trkpt lat="45.25803" lon="6.03266">
        <ele>2037.4000244141</ele>
        <time>2026-08-21T10:39:25.000Z</time>
      </trkpt>
      <trkpt lat="45.25803" lon="6.03265">
        <ele>2037.5999755859</ele>
        <time>2026-08-21T10:39:26.000Z</time>
      </trkpt>
      <trkpt lat="45.25802" lon="6.03264">
        <ele>2037.8000488281</ele>
        <time>2026-08-21T10:39:27.000Z</time>
      </trkpt>
      <trkpt lat="45.25802" lon="6.03263">
        <ele>2038.1999511719</ele>
        <time>2026-08-21T10:39:28.000Z</time>
      </trkpt>
      <trkpt lat="45.25802" lon="6.03262">
        <ele>2038.5999755859</ele>
        <time>2026-08-21T10:39:29.000Z</time>
      </trkpt>
      <trkpt lat="45.25801" lon="6.03261">
        <ele>2039</ele>
        <time>2026-08-21T10:39:30.000Z</time>
      </trkpt>
      <trkpt lat="45.25801" lon="6.0326">
        <ele>2039.4000244141</ele>
        <time>2026-08-21T10:39:31.000Z</time>
      </trkpt>
      <trkpt lat="45.25802" lon="6.0326">
        <ele>2039.4000244141</ele>
        <time>2026-08-21T10:39:32.000Z</time>
      </trkpt>
      <trkpt lat="45.25802" lon="6.03259">
        <ele>2039.4000244141</ele>
        <time>2026-08-21T10:39:33.000Z</time>
      </trkpt>
      <trkpt lat="45.25802" lon="6.03259">
        <ele>2039.4000244141</ele>
        <time>2026-08-21T10:39:34.000Z</time>
      </trkpt>
      <trkpt lat="45.25802" lon="6.03259">
        <ele>2039.1999511719</ele>
        <time>2026-08-21T10:39:35.000Z</time>
      </trkpt>
      <trkpt lat="45.25802" lon="6.03259">
        <ele>2039</ele>
        <time>2026-08-21T10:39:36.000Z</time>
      </trkpt>
      <trkpt lat="45.25802" lon="6.03259">
        <ele>2038.8000488281</ele>
        <time>2026-08-21T10:39:37.000Z</time>
      </trkpt>
      <trkpt lat="45.25802" lon="6.03259">
        <ele>2038.5999755859</ele>
        <time>2026-08-21T10:39:38.000Z</time>
      </trkpt>
      <trkpt lat="45.25801" lon="6.03257">
        <ele>2038.5999755859</ele>
        <time>2026-08-21T10:39:39.000Z</time>
      </trkpt>
      <trkpt lat="45.258" lon="6.03256">
        <ele>2038.8000488281</ele>
        <time>2026-08-21T10:39:40.000Z</time>
      </trkpt>
      <trkpt lat="45.25799" lon="6.03254">
        <ele>2039.4000244141</ele>
        <time>2026-08-21T10:39:41.000Z</time>
      </trkpt>
      <trkpt lat="45.25799" lon="6.03253">
        <ele>2040</ele>
        <time>2026-08-21T10:39:42.000Z</time>
      </trkpt>
      <trkpt lat="45.25799" lon="6.03252">
        <ele>2040.4000244141</ele>
        <time>2026-08-21T10:39:43.000Z</time>
      </trkpt>
      <trkpt lat="45.25799" lon="6.03251">
        <ele>2041.1999511719</ele>
        <time>2026-08-21T10:39:44.000Z</time>
      </trkpt>
      <trkpt lat="45.25798" lon="6.0325">
        <ele>2041.8000488281</ele>
        <time>2026-08-21T10:39:45.000Z</time>
      </trkpt>
      <trkpt lat="45.25798" lon="6.03249">
        <ele>2042.1999511719</ele>
        <time>2026-08-21T10:39:46.000Z</time>
      </trkpt>
      <trkpt lat="45.25798" lon="6.03247">
        <ele>2042.1999511719</ele>
        <time>2026-08-21T10:39:47.000Z</time>
      </trkpt>
      <trkpt lat="45.25798" lon="6.03246">
        <ele>2042.4000244141</ele>
        <time>2026-08-21T10:39:48.000Z</time>
      </trkpt>
      <trkpt lat="45.25798" lon="6.03245">
        <ele>2042.8000488281</ele>
        <time>2026-08-21T10:39:49.000Z</time>
      </trkpt>
      <trkpt lat="45.25798" lon="6.03244">
        <ele>2043.1999511719</ele>
        <time>2026-08-21T10:39:50.000Z</time>
      </trkpt>
      <trkpt lat="45.25797" lon="6.03243">
        <ele>2043.8000488281</ele>
        <time>2026-08-21T10:39:51.000Z</time>
      </trkpt>
      <trkpt lat="45.25797" lon="6.03241">
        <ele>2044.4000244141</ele>
        <time>2026-08-21T10:39:52.000Z</time>
      </trkpt>
      <trkpt lat="45.25797" lon="6.0324">
        <ele>2044.8000488281</ele>
        <time>2026-08-21T10:39:53.000Z</time>
      </trkpt>
      <trkpt lat="45.25796" lon="6.03239">
        <ele>2045.1999511719</ele>
        <time>2026-08-21T10:39:54.000Z</time>
      </trkpt>
      <trkpt lat="45.25796" lon="6.03238">
        <ele>2045.5999755859</ele>
        <time>2026-08-21T10:39:55.000Z</time>
      </trkpt>
      <trkpt lat="45.25795" lon="6.03236">
        <ele>2046</ele>
        <time>2026-08-21T10:39:56.000Z</time>
      </trkpt>
      <trkpt lat="45.25795" lon="6.03235">
        <ele>2046.4000244141</ele>
        <time>2026-08-21T10:39:57.000Z</time>
      </trkpt>
      <trkpt lat="45.25794" lon="6.03234">
        <ele>2046.5999755859</ele>
        <time>2026-08-21T10:39:58.000Z</time>
      </trkpt>
      <trkpt lat="45.25794" lon="6.03232">
        <ele>2046.5999755859</ele>
        <time>2026-08-21T10:39:59.000Z</time>
      </trkpt>
      <trkpt lat="45.25793" lon="6.03232">
        <ele>2047</ele>
        <time>2026-08-21T10:40:00.000Z</time>
      </trkpt>
      <trkpt lat="45.25792" lon="6.03231">
        <ele>2047.4000244141</ele>
        <time>2026-08-21T10:40:01.000Z</time>
      </trkpt>
      <trkpt lat="45.25792" lon="6.0323">
        <ele>2047.5999755859</ele>
        <time>2026-08-21T10:40:02.000Z</time>
      </trkpt>
      <trkpt lat="45.25791" lon="6.03229">
        <ele>2048</ele>
        <time>2026-08-21T10:40:03.000Z</time>
      </trkpt>
      <trkpt lat="45.2579" lon="6.03227">
        <ele>2048</ele>
        <time>2026-08-21T10:40:04.000Z</time>
      </trkpt>
      <trkpt lat="45.25789" lon="6.03227">
        <ele>2047.8000488281</ele>
        <time>2026-08-21T10:40:05.000Z</time>
      </trkpt>
      <trkpt lat="45.25788" lon="6.03226">
        <ele>2047.5999755859</ele>
        <time>2026-08-21T10:40:06.000Z</time>
      </trkpt>
      <trkpt lat="45.25787" lon="6.03225">
        <ele>2047.5999755859</ele>
        <time>2026-08-21T10:40:07.000Z</time>
      </trkpt>
      <trkpt lat="45.25786" lon="6.03224">
        <ele>2047.4000244141</ele>
        <time>2026-08-21T10:40:08.000Z</time>
      </trkpt>
      <trkpt lat="45.25785" lon="6.03223">
        <ele>2047.1999511719</ele>
        <time>2026-08-21T10:40:09.000Z</time>
      </trkpt>
      <trkpt lat="45.25784" lon="6.03221">
        <ele>2047.4000244141</ele>
        <time>2026-08-21T10:40:10.000Z</time>
      </trkpt>
      <trkpt lat="45.25782" lon="6.0322">
        <ele>2047.4000244141</ele>
        <time>2026-08-21T10:40:11.000Z</time>
      </trkpt>
      <trkpt lat="45.25781" lon="6.03218">
        <ele>2047.5999755859</ele>
        <time>2026-08-21T10:40:12.000Z</time>
      </trkpt>
      <trkpt lat="45.2578" lon="6.03217">
        <ele>2047.8000488281</ele>
        <time>2026-08-21T10:40:13.000Z</time>
      </trkpt>
      <trkpt lat="45.2578" lon="6.03215">
        <ele>2047.8000488281</ele>
        <time>2026-08-21T10:40:14.000Z</time>
      </trkpt>
      <trkpt lat="45.25779" lon="6.03214">
        <ele>2048.1999511719</ele>
        <time>2026-08-21T10:40:15.000Z</time>
      </trkpt>
      <trkpt lat="45.25778" lon="6.03213">
        <ele>2048.3999023438</ele>
        <time>2026-08-21T10:40:16.000Z</time>
      </trkpt>
      <trkpt lat="45.25777" lon="6.03213">
        <ele>2048.6000976562</ele>
        <time>2026-08-21T10:40:17.000Z</time>
      </trkpt>
      <trkpt lat="45.25776" lon="6.03211">
        <ele>2048.8000488281</ele>
        <time>2026-08-21T10:40:18.000Z</time>
      </trkpt>
      <trkpt lat="45.25775" lon="6.0321">
        <ele>2049</ele>
        <time>2026-08-21T10:40:19.000Z</time>
      </trkpt>
      <trkpt lat="45.25773" lon="6.0321">
        <ele>2049.1999511719</ele>
        <time>2026-08-21T10:40:20.000Z</time>
      </trkpt>
      <trkpt lat="45.25772" lon="6.0321">
        <ele>2049.6000976562</ele>
        <time>2026-08-21T10:40:21.000Z</time>
      </trkpt>
      <trkpt lat="45.25771" lon="6.03209">
        <ele>2050</ele>
        <time>2026-08-21T10:40:22.000Z</time>
      </trkpt>
      <trkpt lat="45.2577" lon="6.03208">
        <ele>2050</ele>
        <time>2026-08-21T10:40:23.000Z</time>
      </trkpt>
      <trkpt lat="45.25769" lon="6.03206">
        <ele>2050.1999511719</ele>
        <time>2026-08-21T10:40:24.000Z</time>
      </trkpt>
      <trkpt lat="45.25768" lon="6.03205">
        <ele>2050.1999511719</ele>
        <time>2026-08-21T10:40:25.000Z</time>
      </trkpt>
      <trkpt lat="45.25767" lon="6.03204">
        <ele>2050.3999023438</ele>
        <time>2026-08-21T10:40:26.000Z</time>
      </trkpt>
      <trkpt lat="45.25766" lon="6.03203">
        <ele>2050.8000488281</ele>
        <time>2026-08-21T10:40:27.000Z</time>
      </trkpt>
      <trkpt lat="45.25765" lon="6.03202">
        <ele>2051.3999023438</ele>
        <time>2026-08-21T10:40:28.000Z</time>
      </trkpt>
      <trkpt lat="45.25764" lon="6.032">
        <ele>2051.8000488281</ele>
        <time>2026-08-21T10:40:29.000Z</time>
      </trkpt>
      <trkpt lat="45.25762" lon="6.03199">
        <ele>2052.3999023438</ele>
        <time>2026-08-21T10:40:30.000Z</time>
      </trkpt>
      <trkpt lat="45.25761" lon="6.03198">
        <ele>2052.8000488281</ele>
        <time>2026-08-21T10:40:31.000Z</time>
      </trkpt>
      <trkpt lat="45.2576" lon="6.03198">
        <ele>2053.6000976562</ele>
        <time>2026-08-21T10:40:32.000Z</time>
      </trkpt>
      <trkpt lat="45.25759" lon="6.03197">
        <ele>2054.1999511719</ele>
        <time>2026-08-21T10:40:33.000Z</time>
      </trkpt>
      <trkpt lat="45.25757" lon="6.03196">
        <ele>2054.6000976562</ele>
        <time>2026-08-21T10:40:34.000Z</time>
      </trkpt>
      <trkpt lat="45.25756" lon="6.03196">
        <ele>2055</ele>
        <time>2026-08-21T10:40:35.000Z</time>
      </trkpt>
      <trkpt lat="45.25755" lon="6.03196">
        <ele>2055.6000976562</ele>
        <time>2026-08-21T10:40:36.000Z</time>
      </trkpt>
      <trkpt lat="45.25754" lon="6.03196">
        <ele>2056.1999511719</ele>
        <time>2026-08-21T10:40:37.000Z</time>
      </trkpt>
      <trkpt lat="45.25753" lon="6.03196">
        <ele>2057.6000976562</ele>
        <time>2026-08-21T10:40:38.000Z</time>
      </trkpt>
      <trkpt lat="45.25752" lon="6.03195">
        <ele>2057.8000488281</ele>
        <time>2026-08-21T10:40:39.000Z</time>
      </trkpt>
      <trkpt lat="45.25751" lon="6.03195">
        <ele>2058</ele>
        <time>2026-08-21T10:40:40.000Z</time>
      </trkpt>
      <trkpt lat="45.2575" lon="6.03195">
        <ele>2058.1999511719</ele>
        <time>2026-08-21T10:40:41.000Z</time>
      </trkpt>
      <trkpt lat="45.25749" lon="6.03194">
        <ele>2058.3999023438</ele>
        <time>2026-08-21T10:40:42.000Z</time>
      </trkpt>
      <trkpt lat="45.25748" lon="6.03194">
        <ele>2058.8000488281</ele>
        <time>2026-08-21T10:40:43.000Z</time>
      </trkpt>
      <trkpt lat="45.25746" lon="6.03194">
        <ele>2059</ele>
        <time>2026-08-21T10:40:44.000Z</time>
      </trkpt>
      <trkpt lat="45.25745" lon="6.03193">
        <ele>2059</ele>
        <time>2026-08-21T10:40:45.000Z</time>
      </trkpt>
      <trkpt lat="45.25744" lon="6.03193">
        <ele>2059</ele>
        <time>2026-08-21T10:40:46.000Z</time>
      </trkpt>
      <trkpt lat="45.25743" lon="6.03193">
        <ele>2058.8000488281</ele>
        <time>2026-08-21T10:40:47.000Z</time>
      </trkpt>
      <trkpt lat="45.25742" lon="6.03193">
        <ele>2058.6000976562</ele>
        <time>2026-08-21T10:40:48.000Z</time>
      </trkpt>
      <trkpt lat="45.25741" lon="6.03193">
        <ele>2058.3999023438</ele>
        <time>2026-08-21T10:40:49.000Z</time>
      </trkpt>
      <trkpt lat="45.2574" lon="6.03192">
        <ele>2058.1999511719</ele>
        <time>2026-08-21T10:40:50.000Z</time>
      </trkpt>
      <trkpt lat="45.25739" lon="6.03192">
        <ele>2058</ele>
        <time>2026-08-21T10:40:51.000Z</time>
      </trkpt>
      <trkpt lat="45.25738" lon="6.03192">
        <ele>2057.3999023438</ele>
        <time>2026-08-21T10:40:52.000Z</time>
      </trkpt>
      <trkpt lat="45.25737" lon="6.03192">
        <ele>2057</ele>
        <time>2026-08-21T10:40:53.000Z</time>
      </trkpt>
      <trkpt lat="45.25736" lon="6.03192">
        <ele>2056.1999511719</ele>
        <time>2026-08-21T10:40:54.000Z</time>
      </trkpt>
      <trkpt lat="45.25735" lon="6.03191">
        <ele>2056</ele>
        <time>2026-08-21T10:40:55.000Z</time>
      </trkpt>
      <trkpt lat="45.25734" lon="6.0319">
        <ele>2055.8000488281</ele>
        <time>2026-08-21T10:40:56.000Z</time>
      </trkpt>
      <trkpt lat="45.25733" lon="6.0319">
        <ele>2056</ele>
        <time>2026-08-21T10:40:57.000Z</time>
      </trkpt>
      <trkpt lat="45.25732" lon="6.03189">
        <ele>2056</ele>
        <time>2026-08-21T10:40:58.000Z</time>
      </trkpt>
      <trkpt lat="45.2573" lon="6.03189">
        <ele>2056.3999023438</ele>
        <time>2026-08-21T10:40:59.000Z</time>
      </trkpt>
      <trkpt lat="45.25729" lon="6.03188">
        <ele>2056.6000976562</ele>
        <time>2026-08-21T10:41:00.000Z</time>
      </trkpt>
      <trkpt lat="45.25728" lon="6.03188">
        <ele>2057.6000976562</ele>
        <time>2026-08-21T10:41:01.000Z</time>
      </trkpt>
      <trkpt lat="45.25727" lon="6.03188">
        <ele>2058.1999511719</ele>
        <time>2026-08-21T10:41:02.000Z</time>
      </trkpt>
      <trkpt lat="45.25725" lon="6.03188">
        <ele>2058.6000976562</ele>
        <time>2026-08-21T10:41:03.000Z</time>
      </trkpt>
      <trkpt lat="45.25724" lon="6.03187">
        <ele>2059</ele>
        <time>2026-08-21T10:41:04.000Z</time>
      </trkpt>
      <trkpt lat="45.25724" lon="6.03186">
        <ele>2059.1999511719</ele>
        <time>2026-08-21T10:41:05.000Z</time>
      </trkpt>
      <trkpt lat="45.25723" lon="6.03185">
        <ele>2059.3999023438</ele>
        <time>2026-08-21T10:41:06.000Z</time>
      </trkpt>
      <trkpt lat="45.25722" lon="6.03185">
        <ele>2059.6000976562</ele>
        <time>2026-08-21T10:41:07.000Z</time>
      </trkpt>
      <trkpt lat="45.2572" lon="6.03185">
        <ele>2060</ele>
        <time>2026-08-21T10:41:08.000Z</time>
      </trkpt>
      <trkpt lat="45.25719" lon="6.03185">
        <ele>2060.1999511719</ele>
        <time>2026-08-21T10:41:09.000Z</time>
      </trkpt>
      <trkpt lat="45.25718" lon="6.03185">
        <ele>2060.3999023438</ele>
        <time>2026-08-21T10:41:10.000Z</time>
      </trkpt>
      <trkpt lat="45.25717" lon="6.03185">
        <ele>2060.6000976562</ele>
        <time>2026-08-21T10:41:11.000Z</time>
      </trkpt>
      <trkpt lat="45.25716" lon="6.03185">
        <ele>2060.6000976562</ele>
        <time>2026-08-21T10:41:12.000Z</time>
      </trkpt>
      <trkpt lat="45.25715" lon="6.03185">
        <ele>2060.8000488281</ele>
        <time>2026-08-21T10:41:13.000Z</time>
      </trkpt>
      <trkpt lat="45.25714" lon="6.03184">
        <ele>2060.8000488281</ele>
        <time>2026-08-21T10:41:14.000Z</time>
      </trkpt>
      <trkpt lat="45.25713" lon="6.03184">
        <ele>2060.8000488281</ele>
        <time>2026-08-21T10:41:15.000Z</time>
      </trkpt>
      <trkpt lat="45.25712" lon="6.03184">
        <ele>2060.6000976562</ele>
        <time>2026-08-21T10:41:16.000Z</time>
      </trkpt>
      <trkpt lat="45.25711" lon="6.03184">
        <ele>2060.3999023438</ele>
        <time>2026-08-21T10:41:17.000Z</time>
      </trkpt>
      <trkpt lat="45.2571" lon="6.03184">
        <ele>2060.1999511719</ele>
        <time>2026-08-21T10:41:18.000Z</time>
      </trkpt>
      <trkpt lat="45.25709" lon="6.03184">
        <ele>2060.3999023438</ele>
        <time>2026-08-21T10:41:19.000Z</time>
      </trkpt>
      <trkpt lat="45.25707" lon="6.03184">
        <ele>2060.3999023438</ele>
        <time>2026-08-21T10:41:20.000Z</time>
      </trkpt>
      <trkpt lat="45.25706" lon="6.03183">
        <ele>2060.6000976562</ele>
        <time>2026-08-21T10:41:21.000Z</time>
      </trkpt>
      <trkpt lat="45.25705" lon="6.03183">
        <ele>2060.8000488281</ele>
        <time>2026-08-21T10:41:22.000Z</time>
      </trkpt>
      <trkpt lat="45.25704" lon="6.03182">
        <ele>2061.1999511719</ele>
        <time>2026-08-21T10:41:23.000Z</time>
      </trkpt>
      <trkpt lat="45.25703" lon="6.03182">
        <ele>2061.6000976562</ele>
        <time>2026-08-21T10:41:24.000Z</time>
      </trkpt>
      <trkpt lat="45.25702" lon="6.03182">
        <ele>2061.8000488281</ele>
        <time>2026-08-21T10:41:25.000Z</time>
      </trkpt>
      <trkpt lat="45.25701" lon="6.03182">
        <ele>2062.1999511719</ele>
        <time>2026-08-21T10:41:26.000Z</time>
      </trkpt>
      <trkpt lat="45.257" lon="6.03181">
        <ele>2062.3999023438</ele>
        <time>2026-08-21T10:41:27.000Z</time>
      </trkpt>
      <trkpt lat="45.25698" lon="6.03181">
        <ele>2062.8000488281</ele>
        <time>2026-08-21T10:41:28.000Z</time>
      </trkpt>
      <trkpt lat="45.25698" lon="6.0318">
        <ele>2063</ele>
        <time>2026-08-21T10:41:29.000Z</time>
      </trkpt>
      <trkpt lat="45.25696" lon="6.0318">
        <ele>2063.1999511719</ele>
        <time>2026-08-21T10:41:30.000Z</time>
      </trkpt>
      <trkpt lat="45.25695" lon="6.03181">
        <ele>2063.6000976562</ele>
        <time>2026-08-21T10:41:31.000Z</time>
      </trkpt>
      <trkpt lat="45.25694" lon="6.0318">
        <ele>2064</ele>
        <time>2026-08-21T10:41:32.000Z</time>
      </trkpt>
      <trkpt lat="45.25693" lon="6.0318">
        <ele>2064.1999511719</ele>
        <time>2026-08-21T10:41:33.000Z</time>
      </trkpt>
      <trkpt lat="45.25692" lon="6.0318">
        <ele>2064.3999023438</ele>
        <time>2026-08-21T10:41:34.000Z</time>
      </trkpt>
      <trkpt lat="45.25691" lon="6.03179">
        <ele>2064.6000976562</ele>
        <time>2026-08-21T10:41:35.000Z</time>
      </trkpt>
      <trkpt lat="45.2569" lon="6.03179">
        <ele>2065</ele>
        <time>2026-08-21T10:41:36.000Z</time>
      </trkpt>
      <trkpt lat="45.25689" lon="6.03179">
        <ele>2065.1999511719</ele>
        <time>2026-08-21T10:41:37.000Z</time>
      </trkpt>
      <trkpt lat="45.25688" lon="6.03179">
        <ele>2065.6000976562</ele>
        <time>2026-08-21T10:41:38.000Z</time>
      </trkpt>
      <trkpt lat="45.25687" lon="6.03179">
        <ele>2065.8000488281</ele>
        <time>2026-08-21T10:41:39.000Z</time>
      </trkpt>
      <trkpt lat="45.25686" lon="6.03179">
        <ele>2066.3999023438</ele>
        <time>2026-08-21T10:41:40.000Z</time>
      </trkpt>
      <trkpt lat="45.25685" lon="6.0318">
        <ele>2066.8000488281</ele>
        <time>2026-08-21T10:41:41.000Z</time>
      </trkpt>
      <trkpt lat="45.25683" lon="6.0318">
        <ele>2067.3999023438</ele>
        <time>2026-08-21T10:41:42.000Z</time>
      </trkpt>
      <trkpt lat="45.25682" lon="6.0318">
        <ele>2067.8000488281</ele>
        <time>2026-08-21T10:41:43.000Z</time>
      </trkpt>
      <trkpt lat="45.25681" lon="6.03182">
        <ele>2068</ele>
        <time>2026-08-21T10:41:44.000Z</time>
      </trkpt>
      <trkpt lat="45.2568" lon="6.03181">
        <ele>2068.1999511719</ele>
        <time>2026-08-21T10:41:45.000Z</time>
      </trkpt>
      <trkpt lat="45.25679" lon="6.03181">
        <ele>2068.1999511719</ele>
        <time>2026-08-21T10:41:46.000Z</time>
      </trkpt>
      <trkpt lat="45.25678" lon="6.03181">
        <ele>2068.1999511719</ele>
        <time>2026-08-21T10:41:47.000Z</time>
      </trkpt>
      <trkpt lat="45.25677" lon="6.03181">
        <ele>2068.3999023438</ele>
        <time>2026-08-21T10:41:48.000Z</time>
      </trkpt>
      <trkpt lat="45.25676" lon="6.03181">
        <ele>2068.6000976562</ele>
        <time>2026-08-21T10:41:49.000Z</time>
      </trkpt>
      <trkpt lat="45.25675" lon="6.03181">
        <ele>2068.6000976562</ele>
        <time>2026-08-21T10:41:50.000Z</time>
      </trkpt>
      <trkpt lat="45.25674" lon="6.03181">
        <ele>2069.1999511719</ele>
        <time>2026-08-21T10:41:51.000Z</time>
      </trkpt>
      <trkpt lat="45.25673" lon="6.03181">
        <ele>2069.6000976562</ele>
        <time>2026-08-21T10:41:52.000Z</time>
      </trkpt>
      <trkpt lat="45.25673" lon="6.0318">
        <ele>2069.8000488281</ele>
        <time>2026-08-21T10:41:53.000Z</time>
      </trkpt>
      <trkpt lat="45.25672" lon="6.0318">
        <ele>2070</ele>
        <time>2026-08-21T10:41:54.000Z</time>
      </trkpt>
      <trkpt lat="45.25672" lon="6.0318">
        <ele>2070.3999023438</ele>
        <time>2026-08-21T10:41:55.000Z</time>
      </trkpt>
      <trkpt lat="45.25671" lon="6.0318">
        <ele>2070.8000488281</ele>
        <time>2026-08-21T10:41:56.000Z</time>
      </trkpt>
      <trkpt lat="45.2567" lon="6.03179">
        <ele>2071</ele>
        <time>2026-08-21T10:41:57.000Z</time>
      </trkpt>
      <trkpt lat="45.2567" lon="6.03179">
        <ele>2071</ele>
        <time>2026-08-21T10:41:58.000Z</time>
      </trkpt>
      <trkpt lat="45.25669" lon="6.03178">
        <ele>2071.3999023438</ele>
        <time>2026-08-21T10:41:59.000Z</time>
      </trkpt>
      <trkpt lat="45.25668" lon="6.03178">
        <ele>2071.6000976562</ele>
        <time>2026-08-21T10:42:00.000Z</time>
      </trkpt>
      <trkpt lat="45.25667" lon="6.03178">
        <ele>2072</ele>
        <time>2026-08-21T10:42:01.000Z</time>
      </trkpt>
      <trkpt lat="45.25666" lon="6.03178">
        <ele>2072.1999511719</ele>
        <time>2026-08-21T10:42:02.000Z</time>
      </trkpt>
      <trkpt lat="45.25665" lon="6.03178">
        <ele>2072.3999023438</ele>
        <time>2026-08-21T10:42:03.000Z</time>
      </trkpt>
      <trkpt lat="45.25664" lon="6.03178">
        <ele>2072.6000976562</ele>
        <time>2026-08-21T10:42:04.000Z</time>
      </trkpt>
      <trkpt lat="45.25663" lon="6.03178">
        <ele>2072.6000976562</ele>
        <time>2026-08-21T10:42:05.000Z</time>
      </trkpt>
      <trkpt lat="45.25663" lon="6.03178">
        <ele>2073.3999023438</ele>
        <time>2026-08-21T10:42:06.000Z</time>
      </trkpt>
      <trkpt lat="45.25662" lon="6.03178">
        <ele>2074</ele>
        <time>2026-08-21T10:42:07.000Z</time>
      </trkpt>
      <trkpt lat="45.25661" lon="6.03178">
        <ele>2074</ele>
        <time>2026-08-21T10:42:08.000Z</time>
      </trkpt>
      <trkpt lat="45.2566" lon="6.03178">
        <ele>2074.1999511719</ele>
        <time>2026-08-21T10:42:09.000Z</time>
      </trkpt>
      <trkpt lat="45.25659" lon="6.03178">
        <ele>2074.3999023438</ele>
        <time>2026-08-21T10:42:10.000Z</time>
      </trkpt>
      <trkpt lat="45.25659" lon="6.03178">
        <ele>2074.3999023438</ele>
        <time>2026-08-21T10:42:11.000Z</time>
      </trkpt>
      <trkpt lat="45.25658" lon="6.03177">
        <ele>2074.6000976562</ele>
        <time>2026-08-21T10:42:12.000Z</time>
      </trkpt>
      <trkpt lat="45.25657" lon="6.03177">
        <ele>2075</ele>
        <time>2026-08-21T10:42:13.000Z</time>
      </trkpt>
      <trkpt lat="45.25656" lon="6.03177">
        <ele>2075.6000976562</ele>
        <time>2026-08-21T10:42:14.000Z</time>
      </trkpt>
      <trkpt lat="45.25656" lon="6.03176">
        <ele>2076.3999023438</ele>
        <time>2026-08-21T10:42:15.000Z</time>
      </trkpt>
      <trkpt lat="45.25655" lon="6.03176">
        <ele>2076.6000976562</ele>
        <time>2026-08-21T10:42:16.000Z</time>
      </trkpt>
      <trkpt lat="45.25654" lon="6.03175">
        <ele>2076.8000488281</ele>
        <time>2026-08-21T10:42:17.000Z</time>
      </trkpt>
      <trkpt lat="45.25653" lon="6.03174">
        <ele>2076.8000488281</ele>
        <time>2026-08-21T10:42:18.000Z</time>
      </trkpt>
      <trkpt lat="45.25652" lon="6.03174">
        <ele>2077</ele>
        <time>2026-08-21T10:42:19.000Z</time>
      </trkpt>
      <trkpt lat="45.25652" lon="6.03174">
        <ele>2077.3999023438</ele>
        <time>2026-08-21T10:42:20.000Z</time>
      </trkpt>
      <trkpt lat="45.25651" lon="6.03174">
        <ele>2078.1999511719</ele>
        <time>2026-08-21T10:42:21.000Z</time>
      </trkpt>
      <trkpt lat="45.2565" lon="6.03173">
        <ele>2078.3999023438</ele>
        <time>2026-08-21T10:42:22.000Z</time>
      </trkpt>
      <trkpt lat="45.2565" lon="6.03173">
        <ele>2078.6000976562</ele>
        <time>2026-08-21T10:42:23.000Z</time>
      </trkpt>
      <trkpt lat="45.25649" lon="6.03173">
        <ele>2078.6000976562</ele>
        <time>2026-08-21T10:42:24.000Z</time>
      </trkpt>
      <trkpt lat="45.25649" lon="6.03172">
        <ele>2079.1999511719</ele>
        <time>2026-08-21T10:42:25.000Z</time>
      </trkpt>
      <trkpt lat="45.25648" lon="6.03172">
        <ele>2080.1999511719</ele>
        <time>2026-08-21T10:42:26.000Z</time>
      </trkpt>
      <trkpt lat="45.25647" lon="6.03171">
        <ele>2080.3999023438</ele>
        <time>2026-08-21T10:42:27.000Z</time>
      </trkpt>
      <trkpt lat="45.25646" lon="6.0317">
        <ele>2080.6000976562</ele>
        <time>2026-08-21T10:42:28.000Z</time>
      </trkpt>
      <trkpt lat="45.25645" lon="6.0317">
        <ele>2081.3999023438</ele>
        <time>2026-08-21T10:42:29.000Z</time>
      </trkpt>
      <trkpt lat="45.25645" lon="6.03169">
        <ele>2082</ele>
        <time>2026-08-21T10:42:30.000Z</time>
      </trkpt>
      <trkpt lat="45.25644" lon="6.03168">
        <ele>2083.6000976562</ele>
        <time>2026-08-21T10:42:31.000Z</time>
      </trkpt>
      <trkpt lat="45.25643" lon="6.03168">
        <ele>2084.1999511719</ele>
        <time>2026-08-21T10:42:32.000Z</time>
      </trkpt>
      <trkpt lat="45.25643" lon="6.03167">
        <ele>2084.6000976562</ele>
        <time>2026-08-21T10:42:33.000Z</time>
      </trkpt>
      <trkpt lat="45.25642" lon="6.03167">
        <ele>2084.8000488281</ele>
        <time>2026-08-21T10:42:34.000Z</time>
      </trkpt>
      <trkpt lat="45.25642" lon="6.03166">
        <ele>2085.1999511719</ele>
        <time>2026-08-21T10:42:35.000Z</time>
      </trkpt>
      <trkpt lat="45.25641" lon="6.03165">
        <ele>2085.6000976562</ele>
        <time>2026-08-21T10:42:36.000Z</time>
      </trkpt>
      <trkpt lat="45.25641" lon="6.03165">
        <ele>2085.8000488281</ele>
        <time>2026-08-21T10:42:37.000Z</time>
      </trkpt>
      <trkpt lat="45.2564" lon="6.03165">
        <ele>2086</ele>
        <time>2026-08-21T10:42:38.000Z</time>
      </trkpt>
      <trkpt lat="45.25639" lon="6.03165">
        <ele>2086.3999023438</ele>
        <time>2026-08-21T10:42:39.000Z</time>
      </trkpt>
      <trkpt lat="45.25639" lon="6.03164">
        <ele>2087.3999023438</ele>
        <time>2026-08-21T10:42:40.000Z</time>
      </trkpt>
      <trkpt lat="45.25638" lon="6.03163">
        <ele>2087.6000976562</ele>
        <time>2026-08-21T10:42:41.000Z</time>
      </trkpt>
      <trkpt lat="45.25637" lon="6.03163">
        <ele>2088.1999511719</ele>
        <time>2026-08-21T10:42:42.000Z</time>
      </trkpt>
      <trkpt lat="45.25637" lon="6.03162">
        <ele>2088.6000976562</ele>
        <time>2026-08-21T10:42:43.000Z</time>
      </trkpt>
      <trkpt lat="45.25636" lon="6.03161">
        <ele>2089</ele>
        <time>2026-08-21T10:42:44.000Z</time>
      </trkpt>
      <trkpt lat="45.25635" lon="6.03161">
        <ele>2089.8000488281</ele>
        <time>2026-08-21T10:42:45.000Z</time>
      </trkpt>
      <trkpt lat="45.25635" lon="6.0316">
        <ele>2090.6000976562</ele>
        <time>2026-08-21T10:42:46.000Z</time>
      </trkpt>
      <trkpt lat="45.25634" lon="6.0316">
        <ele>2090.8000488281</ele>
        <time>2026-08-21T10:42:47.000Z</time>
      </trkpt>
      <trkpt lat="45.25634" lon="6.03159">
        <ele>2091.6000976562</ele>
        <time>2026-08-21T10:42:48.000Z</time>
      </trkpt>
      <trkpt lat="45.25633" lon="6.03158">
        <ele>2092</ele>
        <time>2026-08-21T10:42:49.000Z</time>
      </trkpt>
      <trkpt lat="45.25632" lon="6.03158">
        <ele>2092.1999511719</ele>
        <time>2026-08-21T10:42:50.000Z</time>
      </trkpt>
      <trkpt lat="45.25632" lon="6.03158">
        <ele>2093.6000976562</ele>
        <time>2026-08-21T10:42:51.000Z</time>
      </trkpt>
      <trkpt lat="45.25631" lon="6.03157">
        <ele>2094</ele>
        <time>2026-08-21T10:42:52.000Z</time>
      </trkpt>
      <trkpt lat="45.2563" lon="6.03157">
        <ele>2094.3999023438</ele>
        <time>2026-08-21T10:42:53.000Z</time>
      </trkpt>
      <trkpt lat="45.2563" lon="6.03156">
        <ele>2094.8000488281</ele>
        <time>2026-08-21T10:42:54.000Z</time>
      </trkpt>
      <trkpt lat="45.25629" lon="6.03156">
        <ele>2095.1999511719</ele>
        <time>2026-08-21T10:42:55.000Z</time>
      </trkpt>
      <trkpt lat="45.25629" lon="6.03155">
        <ele>2095.1999511719</ele>
        <time>2026-08-21T10:42:56.000Z</time>
      </trkpt>
      <trkpt lat="45.25629" lon="6.03154">
        <ele>2095</ele>
        <time>2026-08-21T10:42:57.000Z</time>
      </trkpt>
      <trkpt lat="45.25628" lon="6.03154">
        <ele>2095</ele>
        <time>2026-08-21T10:42:58.000Z</time>
      </trkpt>
      <trkpt lat="45.25627" lon="6.03153">
        <ele>2094.8000488281</ele>
        <time>2026-08-21T10:42:59.000Z</time>
      </trkpt>
      <trkpt lat="45.25627" lon="6.03153">
        <ele>2094.6000976562</ele>
        <time>2026-08-21T10:43:00.000Z</time>
      </trkpt>
      <trkpt lat="45.25626" lon="6.03152">
        <ele>2094.3999023438</ele>
        <time>2026-08-21T10:43:01.000Z</time>
      </trkpt>
      <trkpt lat="45.25625" lon="6.03152">
        <ele>2094.1999511719</ele>
        <time>2026-08-21T10:43:02.000Z</time>
      </trkpt>
      <trkpt lat="45.25625" lon="6.03152">
        <ele>2093.8000488281</ele>
        <time>2026-08-21T10:43:03.000Z</time>
      </trkpt>
      <trkpt lat="45.25624" lon="6.0315">
        <ele>2093.3999023438</ele>
        <time>2026-08-21T10:43:04.000Z</time>
      </trkpt>
      <trkpt lat="45.25624" lon="6.03149">
        <ele>2093.1999511719</ele>
        <time>2026-08-21T10:43:05.000Z</time>
      </trkpt>
      <trkpt lat="45.25624" lon="6.03148">
        <ele>2093.3999023438</ele>
        <time>2026-08-21T10:43:06.000Z</time>
      </trkpt>
      <trkpt lat="45.25623" lon="6.03147">
        <ele>2093.3999023438</ele>
        <time>2026-08-21T10:43:07.000Z</time>
      </trkpt>
      <trkpt lat="45.25622" lon="6.03145">
        <ele>2093.6000976562</ele>
        <time>2026-08-21T10:43:08.000Z</time>
      </trkpt>
      <trkpt lat="45.25622" lon="6.03144">
        <ele>2094</ele>
        <time>2026-08-21T10:43:09.000Z</time>
      </trkpt>
      <trkpt lat="45.25621" lon="6.03143">
        <ele>2094.3999023438</ele>
        <time>2026-08-21T10:43:10.000Z</time>
      </trkpt>
      <trkpt lat="45.2562" lon="6.03142">
        <ele>2094.6000976562</ele>
        <time>2026-08-21T10:43:11.000Z</time>
      </trkpt>
      <trkpt lat="45.2562" lon="6.03141">
        <ele>2094.6000976562</ele>
        <time>2026-08-21T10:43:12.000Z</time>
      </trkpt>
      <trkpt lat="45.25619" lon="6.03139">
        <ele>2094.6000976562</ele>
        <time>2026-08-21T10:43:13.000Z</time>
      </trkpt>
      <trkpt lat="45.25619" lon="6.03137">
        <ele>2093.8000488281</ele>
        <time>2026-08-21T10:43:14.000Z</time>
      </trkpt>
      <trkpt lat="45.25618" lon="6.03136">
        <ele>2093</ele>
        <time>2026-08-21T10:43:15.000Z</time>
      </trkpt>
      <trkpt lat="45.25618" lon="6.03135">
        <ele>2092.1999511719</ele>
        <time>2026-08-21T10:43:16.000Z</time>
      </trkpt>
      <trkpt lat="45.25617" lon="6.03134">
        <ele>2092</ele>
        <time>2026-08-21T10:43:17.000Z</time>
      </trkpt>
      <trkpt lat="45.25617" lon="6.03133">
        <ele>2091.8000488281</ele>
        <time>2026-08-21T10:43:18.000Z</time>
      </trkpt>
      <trkpt lat="45.25616" lon="6.03131">
        <ele>2091.3999023438</ele>
        <time>2026-08-21T10:43:19.000Z</time>
      </trkpt>
      <trkpt lat="45.25616" lon="6.0313">
        <ele>2091.1999511719</ele>
        <time>2026-08-21T10:43:20.000Z</time>
      </trkpt>
      <trkpt lat="45.25616" lon="6.03129">
        <ele>2091</ele>
        <time>2026-08-21T10:43:21.000Z</time>
      </trkpt>
      <trkpt lat="45.25615" lon="6.03127">
        <ele>2091</ele>
        <time>2026-08-21T10:43:22.000Z</time>
      </trkpt>
      <trkpt lat="45.25615" lon="6.03125">
        <ele>2091</ele>
        <time>2026-08-21T10:43:23.000Z</time>
      </trkpt>
      <trkpt lat="45.25615" lon="6.03123">
        <ele>2091.1999511719</ele>
        <time>2026-08-21T10:43:24.000Z</time>
      </trkpt>
      <trkpt lat="45.25614" lon="6.03121">
        <ele>2091.3999023438</ele>
        <time>2026-08-21T10:43:25.000Z</time>
      </trkpt>
      <trkpt lat="45.25614" lon="6.03119">
        <ele>2092.1999511719</ele>
        <time>2026-08-21T10:43:26.000Z</time>
      </trkpt>
      <trkpt lat="45.25613" lon="6.03117">
        <ele>2092.8000488281</ele>
        <time>2026-08-21T10:43:27.000Z</time>
      </trkpt>
      <trkpt lat="45.25613" lon="6.03115">
        <ele>2093.6000976562</ele>
        <time>2026-08-21T10:43:28.000Z</time>
      </trkpt>
      <trkpt lat="45.25613" lon="6.03113">
        <ele>2093.6000976562</ele>
        <time>2026-08-21T10:43:29.000Z</time>
      </trkpt>
      <trkpt lat="45.25612" lon="6.03111">
        <ele>2093.8000488281</ele>
        <time>2026-08-21T10:43:30.000Z</time>
      </trkpt>
      <trkpt lat="45.25611" lon="6.03109">
        <ele>2094.1999511719</ele>
        <time>2026-08-21T10:43:31.000Z</time>
      </trkpt>
      <trkpt lat="45.2561" lon="6.03108">
        <ele>2094.6000976562</ele>
        <time>2026-08-21T10:43:32.000Z</time>
      </trkpt>
      <trkpt lat="45.25608" lon="6.03108">
        <ele>2095</ele>
        <time>2026-08-21T10:43:33.000Z</time>
      </trkpt>
      <trkpt lat="45.25607" lon="6.03108">
        <ele>2095.8000488281</ele>
        <time>2026-08-21T10:43:34.000Z</time>
      </trkpt>
      <trkpt lat="45.25605" lon="6.03108">
        <ele>2096.6000976562</ele>
        <time>2026-08-21T10:43:35.000Z</time>
      </trkpt>
      <trkpt lat="45.25604" lon="6.03107">
        <ele>2096.6000976562</ele>
        <time>2026-08-21T10:43:36.000Z</time>
      </trkpt>
      <trkpt lat="45.25603" lon="6.03105">
        <ele>2096.6000976562</ele>
        <time>2026-08-21T10:43:37.000Z</time>
      </trkpt>
      <trkpt lat="45.25602" lon="6.03104">
        <ele>2097</ele>
        <time>2026-08-21T10:43:38.000Z</time>
      </trkpt>
      <trkpt lat="45.25601" lon="6.03103">
        <ele>2097.3999023438</ele>
        <time>2026-08-21T10:43:39.000Z</time>
      </trkpt>
      <trkpt lat="45.256" lon="6.03102">
        <ele>2098</ele>
        <time>2026-08-21T10:43:40.000Z</time>
      </trkpt>
      <trkpt lat="45.25599" lon="6.03101">
        <ele>2098.8000488281</ele>
        <time>2026-08-21T10:43:41.000Z</time>
      </trkpt>
      <trkpt lat="45.25598" lon="6.031">
        <ele>2099.3999023438</ele>
        <time>2026-08-21T10:43:42.000Z</time>
      </trkpt>
      <trkpt lat="45.25598" lon="6.03098">
        <ele>2100</ele>
        <time>2026-08-21T10:43:43.000Z</time>
      </trkpt>
      <trkpt lat="45.25597" lon="6.03097">
        <ele>2100.8000488281</ele>
        <time>2026-08-21T10:43:44.000Z</time>
      </trkpt>
      <trkpt lat="45.25596" lon="6.03096">
        <ele>2101.3999023438</ele>
        <time>2026-08-21T10:43:45.000Z</time>
      </trkpt>
      <trkpt lat="45.25595" lon="6.03095">
        <ele>2101.1999511719</ele>
        <time>2026-08-21T10:43:46.000Z</time>
      </trkpt>
      <trkpt lat="45.25594" lon="6.03095">
        <ele>2101</ele>
        <time>2026-08-21T10:43:47.000Z</time>
      </trkpt>
      <trkpt lat="45.25593" lon="6.03094">
        <ele>2100.8000488281</ele>
        <time>2026-08-21T10:43:48.000Z</time>
      </trkpt>
      <trkpt lat="45.25592" lon="6.03092">
        <ele>2100.8000488281</ele>
        <time>2026-08-21T10:43:49.000Z</time>
      </trkpt>
      <trkpt lat="45.2559" lon="6.03091">
        <ele>2100.6000976562</ele>
        <time>2026-08-21T10:43:50.000Z</time>
      </trkpt>
      <trkpt lat="45.25589" lon="6.0309">
        <ele>2100.3999023438</ele>
        <time>2026-08-21T10:43:51.000Z</time>
      </trkpt>
      <trkpt lat="45.25588" lon="6.03091">
        <ele>2100.1999511719</ele>
        <time>2026-08-21T10:43:52.000Z</time>
      </trkpt>
      <trkpt lat="45.25587" lon="6.03091">
        <ele>2098.1999511719</ele>
        <time>2026-08-21T10:43:53.000Z</time>
      </trkpt>
      <trkpt lat="45.25585" lon="6.0309">
        <ele>2096.3999023438</ele>
        <time>2026-08-21T10:43:54.000Z</time>
      </trkpt>
      <trkpt lat="45.25585" lon="6.03088">
        <ele>2095.3999023438</ele>
        <time>2026-08-21T10:43:55.000Z</time>
      </trkpt>
      <trkpt lat="45.25584" lon="6.03086">
        <ele>2094.6000976562</ele>
        <time>2026-08-21T10:43:56.000Z</time>
      </trkpt>
      <trkpt lat="45.25583" lon="6.03084">
        <ele>2092.6000976562</ele>
        <time>2026-08-21T10:43:57.000Z</time>
      </trkpt>
      <trkpt lat="45.25582" lon="6.03084">
        <ele>2092</ele>
        <time>2026-08-21T10:43:58.000Z</time>
      </trkpt>
      <trkpt lat="45.2558" lon="6.03083">
        <ele>2090.3999023438</ele>
        <time>2026-08-21T10:43:59.000Z</time>
      </trkpt>
      <trkpt lat="45.25579" lon="6.03083">
        <ele>2088.8000488281</ele>
        <time>2026-08-21T10:44:00.000Z</time>
      </trkpt>
      <trkpt lat="45.25578" lon="6.03082">
        <ele>2088.3999023438</ele>
        <time>2026-08-21T10:44:01.000Z</time>
      </trkpt>
      <trkpt lat="45.25577" lon="6.03081">
        <ele>2088</ele>
        <time>2026-08-21T10:44:02.000Z</time>
      </trkpt>
      <trkpt lat="45.25575" lon="6.03081">
        <ele>2087.8000488281</ele>
        <time>2026-08-21T10:44:03.000Z</time>
      </trkpt>
      <trkpt lat="45.25574" lon="6.0308">
        <ele>2087.6000976562</ele>
        <time>2026-08-21T10:44:04.000Z</time>
      </trkpt>
      <trkpt lat="45.25572" lon="6.0308">
        <ele>2087.3999023438</ele>
        <time>2026-08-21T10:44:05.000Z</time>
      </trkpt>
      <trkpt lat="45.25571" lon="6.03079">
        <ele>2087.1999511719</ele>
        <time>2026-08-21T10:44:06.000Z</time>
      </trkpt>
      <trkpt lat="45.25569" lon="6.03079">
        <ele>2087.1999511719</ele>
        <time>2026-08-21T10:44:07.000Z</time>
      </trkpt>
      <trkpt lat="45.25568" lon="6.03078">
        <ele>2087.1999511719</ele>
        <time>2026-08-21T10:44:08.000Z</time>
      </trkpt>
      <trkpt lat="45.25566" lon="6.03077">
        <ele>2087.1999511719</ele>
        <time>2026-08-21T10:44:09.000Z</time>
      </trkpt>
      <trkpt lat="45.25565" lon="6.03077">
        <ele>2087.1999511719</ele>
        <time>2026-08-21T10:44:10.000Z</time>
      </trkpt>
      <trkpt lat="45.25563" lon="6.03076">
        <ele>2087.1999511719</ele>
        <time>2026-08-21T10:44:11.000Z</time>
      </trkpt>
      <trkpt lat="45.25562" lon="6.03075">
        <ele>2087</ele>
        <time>2026-08-21T10:44:12.000Z</time>
      </trkpt>
      <trkpt lat="45.2556" lon="6.03074">
        <ele>2086.8000488281</ele>
        <time>2026-08-21T10:44:13.000Z</time>
      </trkpt>
      <trkpt lat="45.25559" lon="6.03072">
        <ele>2086.6000976562</ele>
        <time>2026-08-21T10:44:14.000Z</time>
      </trkpt>
      <trkpt lat="45.25558" lon="6.03071">
        <ele>2086.3999023438</ele>
        <time>2026-08-21T10:44:15.000Z</time>
      </trkpt>
      <trkpt lat="45.25556" lon="6.0307">
        <ele>2086.1999511719</ele>
        <time>2026-08-21T10:44:16.000Z</time>
      </trkpt>
      <trkpt lat="45.25555" lon="6.0307">
        <ele>2085.8000488281</ele>
        <time>2026-08-21T10:44:17.000Z</time>
      </trkpt>
      <trkpt lat="45.25554" lon="6.03069">
        <ele>2085.1999511719</ele>
        <time>2026-08-21T10:44:18.000Z</time>
      </trkpt>
      <trkpt lat="45.25552" lon="6.03069">
        <ele>2084.6000976562</ele>
        <time>2026-08-21T10:44:19.000Z</time>
      </trkpt>
      <trkpt lat="45.25551" lon="6.03068">
        <ele>2084</ele>
        <time>2026-08-21T10:44:20.000Z</time>
      </trkpt>
      <trkpt lat="45.25549" lon="6.03067">
        <ele>2083.3999023438</ele>
        <time>2026-08-21T10:44:21.000Z</time>
      </trkpt>
      <trkpt lat="45.25547" lon="6.03067">
        <ele>2082.6000976562</ele>
        <time>2026-08-21T10:44:22.000Z</time>
      </trkpt>
      <trkpt lat="45.25546" lon="6.03066">
        <ele>2081.8000488281</ele>
        <time>2026-08-21T10:44:23.000Z</time>
      </trkpt>
      <trkpt lat="45.25544" lon="6.03066">
        <ele>2080.8000488281</ele>
        <time>2026-08-21T10:44:24.000Z</time>
      </trkpt>
      <trkpt lat="45.25543" lon="6.03065">
        <ele>2080</ele>
        <time>2026-08-21T10:44:25.000Z</time>
      </trkpt>
      <trkpt lat="45.25542" lon="6.03064">
        <ele>2079.1999511719</ele>
        <time>2026-08-21T10:44:26.000Z</time>
      </trkpt>
      <trkpt lat="45.2554" lon="6.03063">
        <ele>2076.6000976562</ele>
        <time>2026-08-21T10:44:27.000Z</time>
      </trkpt>
      <trkpt lat="45.25539" lon="6.03062">
        <ele>2075.6000976562</ele>
        <time>2026-08-21T10:44:28.000Z</time>
      </trkpt>
      <trkpt lat="45.25538" lon="6.03061">
        <ele>2074.8000488281</ele>
        <time>2026-08-21T10:44:29.000Z</time>
      </trkpt>
      <trkpt lat="45.25536" lon="6.0306">
        <ele>2073.8000488281</ele>
        <time>2026-08-21T10:44:30.000Z</time>
      </trkpt>
      <trkpt lat="45.25535" lon="6.03059">
        <ele>2072.8000488281</ele>
        <time>2026-08-21T10:44:31.000Z</time>
      </trkpt>
      <trkpt lat="45.25533" lon="6.03059">
        <ele>2072</ele>
        <time>2026-08-21T10:44:32.000Z</time>
      </trkpt>
      <trkpt lat="45.25532" lon="6.03058">
        <ele>2071</ele>
        <time>2026-08-21T10:44:33.000Z</time>
      </trkpt>
      <trkpt lat="45.25531" lon="6.03057">
        <ele>2070</ele>
        <time>2026-08-21T10:44:34.000Z</time>
      </trkpt>
      <trkpt lat="45.2553" lon="6.03055">
        <ele>2069</ele>
        <time>2026-08-21T10:44:35.000Z</time>
      </trkpt>
      <trkpt lat="45.25528" lon="6.03055">
        <ele>2068.1999511719</ele>
        <time>2026-08-21T10:44:36.000Z</time>
      </trkpt>
      <trkpt lat="45.25526" lon="6.03054">
        <ele>2067.1999511719</ele>
        <time>2026-08-21T10:44:37.000Z</time>
      </trkpt>
      <trkpt lat="45.25525" lon="6.03053">
        <ele>2067</ele>
        <time>2026-08-21T10:44:38.000Z</time>
      </trkpt>
      <trkpt lat="45.25524" lon="6.03052">
        <ele>2066.8000488281</ele>
        <time>2026-08-21T10:44:39.000Z</time>
      </trkpt>
      <trkpt lat="45.25522" lon="6.03051">
        <ele>2066.3999023438</ele>
        <time>2026-08-21T10:44:40.000Z</time>
      </trkpt>
      <trkpt lat="45.25521" lon="6.0305">
        <ele>2066</ele>
        <time>2026-08-21T10:44:41.000Z</time>
      </trkpt>
      <trkpt lat="45.25519" lon="6.03048">
        <ele>2065.6000976562</ele>
        <time>2026-08-21T10:44:42.000Z</time>
      </trkpt>
      <trkpt lat="45.25518" lon="6.03047">
        <ele>2065.1999511719</ele>
        <time>2026-08-21T10:44:43.000Z</time>
      </trkpt>
      <trkpt lat="45.25516" lon="6.03045">
        <ele>2064.8000488281</ele>
        <time>2026-08-21T10:44:44.000Z</time>
      </trkpt>
      <trkpt lat="45.25515" lon="6.03044">
        <ele>2063.3999023438</ele>
        <time>2026-08-21T10:44:45.000Z</time>
      </trkpt>
      <trkpt lat="45.25514" lon="6.03042">
        <ele>2062.3999023438</ele>
        <time>2026-08-21T10:44:46.000Z</time>
      </trkpt>
      <trkpt lat="45.25513" lon="6.03041">
        <ele>2062</ele>
        <time>2026-08-21T10:44:47.000Z</time>
      </trkpt>
      <trkpt lat="45.25512" lon="6.0304">
        <ele>2061.8000488281</ele>
        <time>2026-08-21T10:44:48.000Z</time>
      </trkpt>
      <trkpt lat="45.25511" lon="6.03039">
        <ele>2061.3999023438</ele>
        <time>2026-08-21T10:44:49.000Z</time>
      </trkpt>
      <trkpt lat="45.2551" lon="6.03038">
        <ele>2060.8000488281</ele>
        <time>2026-08-21T10:44:50.000Z</time>
      </trkpt>
      <trkpt lat="45.25509" lon="6.03037">
        <ele>2060</ele>
        <time>2026-08-21T10:44:51.000Z</time>
      </trkpt>
      <trkpt lat="45.25508" lon="6.03035">
        <ele>2059.8000488281</ele>
        <time>2026-08-21T10:44:52.000Z</time>
      </trkpt>
      <trkpt lat="45.25507" lon="6.03034">
        <ele>2059.3999023438</ele>
        <time>2026-08-21T10:44:53.000Z</time>
      </trkpt>
      <trkpt lat="45.25506" lon="6.03033">
        <ele>2059.1999511719</ele>
        <time>2026-08-21T10:44:54.000Z</time>
      </trkpt>
      <trkpt lat="45.25505" lon="6.03032">
        <ele>2058.8000488281</ele>
        <time>2026-08-21T10:44:55.000Z</time>
      </trkpt>
      <trkpt lat="45.25504" lon="6.03031">
        <ele>2058.6000976562</ele>
        <time>2026-08-21T10:44:56.000Z</time>
      </trkpt>
      <trkpt lat="45.25503" lon="6.0303">
        <ele>2058.1999511719</ele>
        <time>2026-08-21T10:44:57.000Z</time>
      </trkpt>
      <trkpt lat="45.25502" lon="6.03029">
        <ele>2058</ele>
        <time>2026-08-21T10:44:58.000Z</time>
      </trkpt>
      <trkpt lat="45.25501" lon="6.03027">
        <ele>2057</ele>
        <time>2026-08-21T10:44:59.000Z</time>
      </trkpt>
      <trkpt lat="45.255" lon="6.03026">
        <ele>2056.8000488281</ele>
        <time>2026-08-21T10:45:00.000Z</time>
      </trkpt>
      <trkpt lat="45.25499" lon="6.03025">
        <ele>2056.3999023438</ele>
        <time>2026-08-21T10:45:01.000Z</time>
      </trkpt>
      <trkpt lat="45.25497" lon="6.03024">
        <ele>2055.8000488281</ele>
        <time>2026-08-21T10:45:02.000Z</time>
      </trkpt>
      <trkpt lat="45.25496" lon="6.03023">
        <ele>2055.1999511719</ele>
        <time>2026-08-21T10:45:03.000Z</time>
      </trkpt>
      <trkpt lat="45.25494" lon="6.03022">
        <ele>2054.3999023438</ele>
        <time>2026-08-21T10:45:04.000Z</time>
      </trkpt>
      <trkpt lat="45.25493" lon="6.03022">
        <ele>2053.8000488281</ele>
        <time>2026-08-21T10:45:05.000Z</time>
      </trkpt>
      <trkpt lat="45.25491" lon="6.03021">
        <ele>2052.6000976562</ele>
        <time>2026-08-21T10:45:06.000Z</time>
      </trkpt>
      <trkpt lat="45.25489" lon="6.03021">
        <ele>2051.1999511719</ele>
        <time>2026-08-21T10:45:07.000Z</time>
      </trkpt>
      <trkpt lat="45.25487" lon="6.03021">
        <ele>2051</ele>
        <time>2026-08-21T10:45:08.000Z</time>
      </trkpt>
      <trkpt lat="45.25484" lon="6.0302">
        <ele>2051</ele>
        <time>2026-08-21T10:45:09.000Z</time>
      </trkpt>
      <trkpt lat="45.25482" lon="6.03018">
        <ele>2050.8000488281</ele>
        <time>2026-08-21T10:45:10.000Z</time>
      </trkpt>
      <trkpt lat="45.2548" lon="6.03017">
        <ele>2049.6000976562</ele>
        <time>2026-08-21T10:45:11.000Z</time>
      </trkpt>
      <trkpt lat="45.25477" lon="6.03016">
        <ele>2049</ele>
        <time>2026-08-21T10:45:12.000Z</time>
      </trkpt>
      <trkpt lat="45.25475" lon="6.03015">
        <ele>2049.1999511719</ele>
        <time>2026-08-21T10:45:13.000Z</time>
      </trkpt>
      <trkpt lat="45.25473" lon="6.03013">
        <ele>2049.3999023438</ele>
        <time>2026-08-21T10:45:14.000Z</time>
      </trkpt>
      <trkpt lat="45.25471" lon="6.03012">
        <ele>2049.6000976562</ele>
        <time>2026-08-21T10:45:15.000Z</time>
      </trkpt>
      <trkpt lat="45.2547" lon="6.03011">
        <ele>2050</ele>
        <time>2026-08-21T10:45:16.000Z</time>
      </trkpt>
      <trkpt lat="45.25468" lon="6.0301">
        <ele>2050.1999511719</ele>
        <time>2026-08-21T10:45:17.000Z</time>
      </trkpt>
      <trkpt lat="45.25467" lon="6.0301">
        <ele>2050.6000976562</ele>
        <time>2026-08-21T10:45:18.000Z</time>
      </trkpt>
      <trkpt lat="45.25465" lon="6.0301">
        <ele>2051.1999511719</ele>
        <time>2026-08-21T10:45:19.000Z</time>
      </trkpt>
      <trkpt lat="45.25464" lon="6.03009">
        <ele>2051.6000976562</ele>
        <time>2026-08-21T10:45:20.000Z</time>
      </trkpt>
      <trkpt lat="45.25462" lon="6.03008">
        <ele>2051.1999511719</ele>
        <time>2026-08-21T10:45:21.000Z</time>
      </trkpt>
      <trkpt lat="45.25461" lon="6.03007">
        <ele>2050.6000976562</ele>
        <time>2026-08-21T10:45:22.000Z</time>
      </trkpt>
      <trkpt lat="45.25459" lon="6.03007">
        <ele>2050.1999511719</ele>
        <time>2026-08-21T10:45:23.000Z</time>
      </trkpt>
      <trkpt lat="45.25456" lon="6.03006">
        <ele>2049.6000976562</ele>
        <time>2026-08-21T10:45:24.000Z</time>
      </trkpt>
      <trkpt lat="45.25454" lon="6.03005">
        <ele>2049.8000488281</ele>
        <time>2026-08-21T10:45:25.000Z</time>
      </trkpt>
      <trkpt lat="45.25452" lon="6.03004">
        <ele>2049.1999511719</ele>
        <time>2026-08-21T10:45:26.000Z</time>
      </trkpt>
      <trkpt lat="45.25449" lon="6.03003">
        <ele>2049.1999511719</ele>
        <time>2026-08-21T10:45:27.000Z</time>
      </trkpt>
      <trkpt lat="45.25447" lon="6.03002">
        <ele>2049.1999511719</ele>
        <time>2026-08-21T10:45:28.000Z</time>
      </trkpt>
      <trkpt lat="45.25445" lon="6.03001">
        <ele>2049.6000976562</ele>
        <time>2026-08-21T10:45:29.000Z</time>
      </trkpt>
      <trkpt lat="45.25443" lon="6.03">
        <ele>2049.3999023438</ele>
        <time>2026-08-21T10:45:30.000Z</time>
      </trkpt>
      <trkpt lat="45.25441" lon="6.02999">
        <ele>2049</ele>
        <time>2026-08-21T10:45:31.000Z</time>
      </trkpt>
      <trkpt lat="45.25438" lon="6.02998">
        <ele>2048.3999023438</ele>
        <time>2026-08-21T10:45:32.000Z</time>
      </trkpt>
      <trkpt lat="45.25436" lon="6.02998">
        <ele>2048</ele>
        <time>2026-08-21T10:45:33.000Z</time>
      </trkpt>
      <trkpt lat="45.25434" lon="6.02997">
        <ele>2047</ele>
        <time>2026-08-21T10:45:34.000Z</time>
      </trkpt>
      <trkpt lat="45.25432" lon="6.02997">
        <ele>2045.8000488281</ele>
        <time>2026-08-21T10:45:35.000Z</time>
      </trkpt>
      <trkpt lat="45.2543" lon="6.02997">
        <ele>2044.8000488281</ele>
        <time>2026-08-21T10:45:36.000Z</time>
      </trkpt>
      <trkpt lat="45.25428" lon="6.02996">
        <ele>2043.5999755859</ele>
        <time>2026-08-21T10:45:37.000Z</time>
      </trkpt>
      <trkpt lat="45.25425" lon="6.02996">
        <ele>2042.5999755859</ele>
        <time>2026-08-21T10:45:38.000Z</time>
      </trkpt>
      <trkpt lat="45.25423" lon="6.02996">
        <ele>2041.4000244141</ele>
        <time>2026-08-21T10:45:39.000Z</time>
      </trkpt>
      <trkpt lat="45.25421" lon="6.02996">
        <ele>2041.5999755859</ele>
        <time>2026-08-21T10:45:40.000Z</time>
      </trkpt>
      <trkpt lat="45.25419" lon="6.02995">
        <ele>2041.5999755859</ele>
        <time>2026-08-21T10:45:41.000Z</time>
      </trkpt>
      <trkpt lat="45.25417" lon="6.02995">
        <ele>2040.8000488281</ele>
        <time>2026-08-21T10:45:42.000Z</time>
      </trkpt>
      <trkpt lat="45.25416" lon="6.02994">
        <ele>2040.5999755859</ele>
        <time>2026-08-21T10:45:43.000Z</time>
      </trkpt>
      <trkpt lat="45.25413" lon="6.02993">
        <ele>2040.1999511719</ele>
        <time>2026-08-21T10:45:44.000Z</time>
      </trkpt>
      <trkpt lat="45.25411" lon="6.02992">
        <ele>2039</ele>
        <time>2026-08-21T10:45:45.000Z</time>
      </trkpt>
      <trkpt lat="45.25408" lon="6.0299">
        <ele>2037.5999755859</ele>
        <time>2026-08-21T10:45:46.000Z</time>
      </trkpt>
      <trkpt lat="45.25406" lon="6.02988">
        <ele>2037.4000244141</ele>
        <time>2026-08-21T10:45:47.000Z</time>
      </trkpt>
      <trkpt lat="45.25404" lon="6.02985">
        <ele>2037.8000488281</ele>
        <time>2026-08-21T10:45:48.000Z</time>
      </trkpt>
      <trkpt lat="45.25402" lon="6.02983">
        <ele>2038.1999511719</ele>
        <time>2026-08-21T10:45:49.000Z</time>
      </trkpt>
      <trkpt lat="45.25399" lon="6.02981">
        <ele>2038.4000244141</ele>
        <time>2026-08-21T10:45:50.000Z</time>
      </trkpt>
      <trkpt lat="45.25397" lon="6.02979">
        <ele>2038.5999755859</ele>
        <time>2026-08-21T10:45:51.000Z</time>
      </trkpt>
      <trkpt lat="45.25395" lon="6.02978">
        <ele>2039</ele>
        <time>2026-08-21T10:45:52.000Z</time>
      </trkpt>
      <trkpt lat="45.25393" lon="6.02976">
        <ele>2038.5999755859</ele>
        <time>2026-08-21T10:45:53.000Z</time>
      </trkpt>
      <trkpt lat="45.25391" lon="6.02974">
        <ele>2038.4000244141</ele>
        <time>2026-08-21T10:45:54.000Z</time>
      </trkpt>
      <trkpt lat="45.25389" lon="6.02972">
        <ele>2038</ele>
        <time>2026-08-21T10:45:55.000Z</time>
      </trkpt>
      <trkpt lat="45.25387" lon="6.02971">
        <ele>2037.4000244141</ele>
        <time>2026-08-21T10:45:56.000Z</time>
      </trkpt>
      <trkpt lat="45.25385" lon="6.0297">
        <ele>2036.1999511719</ele>
        <time>2026-08-21T10:45:57.000Z</time>
      </trkpt>
      <trkpt lat="45.25383" lon="6.02968">
        <ele>2035.4000244141</ele>
        <time>2026-08-21T10:45:58.000Z</time>
      </trkpt>
      <trkpt lat="45.25381" lon="6.02967">
        <ele>2035</ele>
        <time>2026-08-21T10:45:59.000Z</time>
      </trkpt>
      <trkpt lat="45.25379" lon="6.02965">
        <ele>2034.4000244141</ele>
        <time>2026-08-21T10:46:00.000Z</time>
      </trkpt>
      <trkpt lat="45.25377" lon="6.02963">
        <ele>2033.8000488281</ele>
        <time>2026-08-21T10:46:01.000Z</time>
      </trkpt>
      <trkpt lat="45.25375" lon="6.02962">
        <ele>2033.1999511719</ele>
        <time>2026-08-21T10:46:02.000Z</time>
      </trkpt>
      <trkpt lat="45.25373" lon="6.0296">
        <ele>2032.5999755859</ele>
        <time>2026-08-21T10:46:03.000Z</time>
      </trkpt>
      <trkpt lat="45.25371" lon="6.02958">
        <ele>2032.4000244141</ele>
        <time>2026-08-21T10:46:04.000Z</time>
      </trkpt>
      <trkpt lat="45.25369" lon="6.02956">
        <ele>2032.1999511719</ele>
        <time>2026-08-21T10:46:05.000Z</time>
      </trkpt>
      <trkpt lat="45.25367" lon="6.02954">
        <ele>2031.8000488281</ele>
        <time>2026-08-21T10:46:06.000Z</time>
      </trkpt>
      <trkpt lat="45.25365" lon="6.02952">
        <ele>2031.4000244141</ele>
        <time>2026-08-21T10:46:07.000Z</time>
      </trkpt>
      <trkpt lat="45.25362" lon="6.02951">
        <ele>2031</ele>
        <time>2026-08-21T10:46:08.000Z</time>
      </trkpt>
      <trkpt lat="45.2536" lon="6.02949">
        <ele>2030.5999755859</ele>
        <time>2026-08-21T10:46:09.000Z</time>
      </trkpt>
      <trkpt lat="45.25357" lon="6.02948">
        <ele>2030</ele>
        <time>2026-08-21T10:46:10.000Z</time>
      </trkpt>
      <trkpt lat="45.25355" lon="6.02947">
        <ele>2029.4000244141</ele>
        <time>2026-08-21T10:46:11.000Z</time>
      </trkpt>
      <trkpt lat="45.25353" lon="6.02946">
        <ele>2028.8000488281</ele>
        <time>2026-08-21T10:46:12.000Z</time>
      </trkpt>
      <trkpt lat="45.2535" lon="6.02945">
        <ele>2027.8000488281</ele>
        <time>2026-08-21T10:46:13.000Z</time>
      </trkpt>
      <trkpt lat="45.25347" lon="6.02945">
        <ele>2027</ele>
        <time>2026-08-21T10:46:14.000Z</time>
      </trkpt>
      <trkpt lat="45.25345" lon="6.02944">
        <ele>2026.1999511719</ele>
        <time>2026-08-21T10:46:15.000Z</time>
      </trkpt>
      <trkpt lat="45.25342" lon="6.02944">
        <ele>2026</ele>
        <time>2026-08-21T10:46:16.000Z</time>
      </trkpt>
      <trkpt lat="45.2534" lon="6.02944">
        <ele>2026</ele>
        <time>2026-08-21T10:46:17.000Z</time>
      </trkpt>
      <trkpt lat="45.25337" lon="6.02944">
        <ele>2026.4000244141</ele>
        <time>2026-08-21T10:46:18.000Z</time>
      </trkpt>
      <trkpt lat="45.25334" lon="6.02944">
        <ele>2027.4000244141</ele>
        <time>2026-08-21T10:46:19.000Z</time>
      </trkpt>
      <trkpt lat="45.25332" lon="6.02944">
        <ele>2027.8000488281</ele>
        <time>2026-08-21T10:46:20.000Z</time>
      </trkpt>
      <trkpt lat="45.25329" lon="6.02945">
        <ele>2028</ele>
        <time>2026-08-21T10:46:21.000Z</time>
      </trkpt>
      <trkpt lat="45.25327" lon="6.02945">
        <ele>2028.1999511719</ele>
        <time>2026-08-21T10:46:22.000Z</time>
      </trkpt>
      <trkpt lat="45.25324" lon="6.02946">
        <ele>2028.1999511719</ele>
        <time>2026-08-21T10:46:23.000Z</time>
      </trkpt>
      <trkpt lat="45.25321" lon="6.02947">
        <ele>2028.4000244141</ele>
        <time>2026-08-21T10:46:24.000Z</time>
      </trkpt>
      <trkpt lat="45.25319" lon="6.02948">
        <ele>2028.5999755859</ele>
        <time>2026-08-21T10:46:25.000Z</time>
      </trkpt>
      <trkpt lat="45.25317" lon="6.02948">
        <ele>2027.5999755859</ele>
        <time>2026-08-21T10:46:26.000Z</time>
      </trkpt>
      <trkpt lat="45.25314" lon="6.02949">
        <ele>2027.4000244141</ele>
        <time>2026-08-21T10:46:27.000Z</time>
      </trkpt>
      <trkpt lat="45.25311" lon="6.02949">
        <ele>2027.1999511719</ele>
        <time>2026-08-21T10:46:28.000Z</time>
      </trkpt>
      <trkpt lat="45.25308" lon="6.02949">
        <ele>2027</ele>
        <time>2026-08-21T10:46:29.000Z</time>
      </trkpt>
      <trkpt lat="45.25305" lon="6.02948">
        <ele>2025.5999755859</ele>
        <time>2026-08-21T10:46:30.000Z</time>
      </trkpt>
      <trkpt lat="45.25302" lon="6.02947">
        <ele>2024</ele>
        <time>2026-08-21T10:46:31.000Z</time>
      </trkpt>
      <trkpt lat="45.253" lon="6.02946">
        <ele>2022.5999755859</ele>
        <time>2026-08-21T10:46:32.000Z</time>
      </trkpt>
      <trkpt lat="45.25298" lon="6.02945">
        <ele>2021.1999511719</ele>
        <time>2026-08-21T10:46:33.000Z</time>
      </trkpt>
      <trkpt lat="45.25296" lon="6.02944">
        <ele>2020</ele>
        <time>2026-08-21T10:46:34.000Z</time>
      </trkpt>
      <trkpt lat="45.25293" lon="6.02943">
        <ele>2018.5999755859</ele>
        <time>2026-08-21T10:46:35.000Z</time>
      </trkpt>
      <trkpt lat="45.25291" lon="6.02942">
        <ele>2017</ele>
        <time>2026-08-21T10:46:36.000Z</time>
      </trkpt>
      <trkpt lat="45.25288" lon="6.02942">
        <ele>2015.4000244141</ele>
        <time>2026-08-21T10:46:37.000Z</time>
      </trkpt>
      <trkpt lat="45.25286" lon="6.02941">
        <ele>2015.1999511719</ele>
        <time>2026-08-21T10:46:38.000Z</time>
      </trkpt>
      <trkpt lat="45.25283" lon="6.02941">
        <ele>2014.4000244141</ele>
        <time>2026-08-21T10:46:39.000Z</time>
      </trkpt>
      <trkpt lat="45.25281" lon="6.02941">
        <ele>2013.5999755859</ele>
        <time>2026-08-21T10:46:40.000Z</time>
      </trkpt>
      <trkpt lat="45.25278" lon="6.02941">
        <ele>2012.8000488281</ele>
        <time>2026-08-21T10:46:41.000Z</time>
      </trkpt>
      <trkpt lat="45.25276" lon="6.0294">
        <ele>2012</ele>
        <time>2026-08-21T10:46:42.000Z</time>
      </trkpt>
      <trkpt lat="45.25273" lon="6.0294">
        <ele>2011.8000488281</ele>
        <time>2026-08-21T10:46:43.000Z</time>
      </trkpt>
      <trkpt lat="45.25271" lon="6.0294">
        <ele>2011.4000244141</ele>
        <time>2026-08-21T10:46:44.000Z</time>
      </trkpt>
      <trkpt lat="45.25268" lon="6.02939">
        <ele>2011.1999511719</ele>
        <time>2026-08-21T10:46:45.000Z</time>
      </trkpt>
      <trkpt lat="45.25265" lon="6.02938">
        <ele>2011.5999755859</ele>
        <time>2026-08-21T10:46:46.000Z</time>
      </trkpt>
      <trkpt lat="45.25262" lon="6.02936">
        <ele>2012.1999511719</ele>
        <time>2026-08-21T10:46:47.000Z</time>
      </trkpt>
      <trkpt lat="45.2526" lon="6.02934">
        <ele>2012.8000488281</ele>
        <time>2026-08-21T10:46:48.000Z</time>
      </trkpt>
      <trkpt lat="45.25258" lon="6.02932">
        <ele>2013</ele>
        <time>2026-08-21T10:46:49.000Z</time>
      </trkpt>
      <trkpt lat="45.25255" lon="6.0293">
        <ele>2013.1999511719</ele>
        <time>2026-08-21T10:46:50.000Z</time>
      </trkpt>
      <trkpt lat="45.25253" lon="6.02928">
        <ele>2013.1999511719</ele>
        <time>2026-08-21T10:46:51.000Z</time>
      </trkpt>
      <trkpt lat="45.2525" lon="6.02926">
        <ele>2013</ele>
        <time>2026-08-21T10:46:52.000Z</time>
      </trkpt>
      <trkpt lat="45.25248" lon="6.02925">
        <ele>2013</ele>
        <time>2026-08-21T10:46:53.000Z</time>
      </trkpt>
      <trkpt lat="45.25245" lon="6.02924">
        <ele>2012.8000488281</ele>
        <time>2026-08-21T10:46:54.000Z</time>
      </trkpt>
      <trkpt lat="45.25242" lon="6.02923">
        <ele>2012.1999511719</ele>
        <time>2026-08-21T10:46:55.000Z</time>
      </trkpt>
      <trkpt lat="45.2524" lon="6.02922">
        <ele>2011.4000244141</ele>
        <time>2026-08-21T10:46:56.000Z</time>
      </trkpt>
      <trkpt lat="45.25237" lon="6.02921">
        <ele>2011.4000244141</ele>
        <time>2026-08-21T10:46:57.000Z</time>
      </trkpt>
      <trkpt lat="45.25235" lon="6.02921">
        <ele>2011.1999511719</ele>
        <time>2026-08-21T10:46:58.000Z</time>
      </trkpt>
      <trkpt lat="45.25232" lon="6.0292">
        <ele>2011.1999511719</ele>
        <time>2026-08-21T10:46:59.000Z</time>
      </trkpt>
      <trkpt lat="45.2523" lon="6.02921">
        <ele>2011</ele>
        <time>2026-08-21T10:47:00.000Z</time>
      </trkpt>
      <trkpt lat="45.25226" lon="6.0292">
        <ele>2009</ele>
        <time>2026-08-21T10:47:01.000Z</time>
      </trkpt>
      <trkpt lat="45.25224" lon="6.0292">
        <ele>2008.1999511719</ele>
        <time>2026-08-21T10:47:02.000Z</time>
      </trkpt>
      <trkpt lat="45.25221" lon="6.02919">
        <ele>2007.5999755859</ele>
        <time>2026-08-21T10:47:03.000Z</time>
      </trkpt>
      <trkpt lat="45.25218" lon="6.02918">
        <ele>2007</ele>
        <time>2026-08-21T10:47:04.000Z</time>
      </trkpt>
      <trkpt lat="45.25215" lon="6.02917">
        <ele>2006.4000244141</ele>
        <time>2026-08-21T10:47:05.000Z</time>
      </trkpt>
      <trkpt lat="45.25213" lon="6.02916">
        <ele>2005.8000488281</ele>
        <time>2026-08-21T10:47:06.000Z</time>
      </trkpt>
      <trkpt lat="45.25211" lon="6.02914">
        <ele>2005</ele>
        <time>2026-08-21T10:47:07.000Z</time>
      </trkpt>
      <trkpt lat="45.25209" lon="6.02912">
        <ele>2003.8000488281</ele>
        <time>2026-08-21T10:47:08.000Z</time>
      </trkpt>
      <trkpt lat="45.25207" lon="6.02909">
        <ele>2003.4000244141</ele>
        <time>2026-08-21T10:47:09.000Z</time>
      </trkpt>
      <trkpt lat="45.25205" lon="6.02907">
        <ele>2002.8000488281</ele>
        <time>2026-08-21T10:47:10.000Z</time>
      </trkpt>
      <trkpt lat="45.25204" lon="6.02904">
        <ele>2002.4000244141</ele>
        <time>2026-08-21T10:47:11.000Z</time>
      </trkpt>
      <trkpt lat="45.25203" lon="6.02902">
        <ele>2001.8000488281</ele>
        <time>2026-08-21T10:47:12.000Z</time>
      </trkpt>
      <trkpt lat="45.25201" lon="6.02899">
        <ele>1999</ele>
        <time>2026-08-21T10:47:13.000Z</time>
      </trkpt>
      <trkpt lat="45.252" lon="6.02896">
        <ele>1999.1999511719</ele>
        <time>2026-08-21T10:47:14.000Z</time>
      </trkpt>
      <trkpt lat="45.25199" lon="6.02893">
        <ele>1998.8000488281</ele>
        <time>2026-08-21T10:47:15.000Z</time>
      </trkpt>
      <trkpt lat="45.25197" lon="6.0289">
        <ele>1998.4000244141</ele>
        <time>2026-08-21T10:47:16.000Z</time>
      </trkpt>
      <trkpt lat="45.25196" lon="6.02887">
        <ele>1998</ele>
        <time>2026-08-21T10:47:17.000Z</time>
      </trkpt>
      <trkpt lat="45.25195" lon="6.02884">
        <ele>1997.5999755859</ele>
        <time>2026-08-21T10:47:18.000Z</time>
      </trkpt>
      <trkpt lat="45.25193" lon="6.02881">
        <ele>1997</ele>
        <time>2026-08-21T10:47:19.000Z</time>
      </trkpt>
      <trkpt lat="45.25192" lon="6.02879">
        <ele>1995.4000244141</ele>
        <time>2026-08-21T10:47:20.000Z</time>
      </trkpt>
      <trkpt lat="45.25191" lon="6.02876">
        <ele>1995.1999511719</ele>
        <time>2026-08-21T10:47:21.000Z</time>
      </trkpt>
      <trkpt lat="45.2519" lon="6.02874">
        <ele>1994.8000488281</ele>
        <time>2026-08-21T10:47:22.000Z</time>
      </trkpt>
      <trkpt lat="45.25188" lon="6.02871">
        <ele>1994.5999755859</ele>
        <time>2026-08-21T10:47:23.000Z</time>
      </trkpt>
      <trkpt lat="45.25187" lon="6.02868">
        <ele>1994.4000244141</ele>
        <time>2026-08-21T10:47:24.000Z</time>
      </trkpt>
      <trkpt lat="45.25186" lon="6.02866">
        <ele>1993.4000244141</ele>
        <time>2026-08-21T10:47:25.000Z</time>
      </trkpt>
      <trkpt lat="45.25185" lon="6.02863">
        <ele>1992.5999755859</ele>
        <time>2026-08-21T10:47:26.000Z</time>
      </trkpt>
      <trkpt lat="45.25184" lon="6.02861">
        <ele>1991.8000488281</ele>
        <time>2026-08-21T10:47:27.000Z</time>
      </trkpt>
      <trkpt lat="45.25183" lon="6.02859">
        <ele>1991.1999511719</ele>
        <time>2026-08-21T10:47:28.000Z</time>
      </trkpt>
      <trkpt lat="45.25181" lon="6.02856">
        <ele>1990.4000244141</ele>
        <time>2026-08-21T10:47:29.000Z</time>
      </trkpt>
      <trkpt lat="45.2518" lon="6.02854">
        <ele>1989</ele>
        <time>2026-08-21T10:47:30.000Z</time>
      </trkpt>
      <trkpt lat="45.25179" lon="6.02851">
        <ele>1987.8000488281</ele>
        <time>2026-08-21T10:47:31.000Z</time>
      </trkpt>
      <trkpt lat="45.25178" lon="6.02848">
        <ele>1986.4000244141</ele>
        <time>2026-08-21T10:47:32.000Z</time>
      </trkpt>
      <trkpt lat="45.25177" lon="6.02846">
        <ele>1986</ele>
        <time>2026-08-21T10:47:33.000Z</time>
      </trkpt>
      <trkpt lat="45.25176" lon="6.02843">
        <ele>1984.5999755859</ele>
        <time>2026-08-21T10:47:34.000Z</time>
      </trkpt>
      <trkpt lat="45.25176" lon="6.02841">
        <ele>1984</ele>
        <time>2026-08-21T10:47:35.000Z</time>
      </trkpt>
      <trkpt lat="45.25174" lon="6.02838">
        <ele>1983.5999755859</ele>
        <time>2026-08-21T10:47:36.000Z</time>
      </trkpt>
      <trkpt lat="45.25173" lon="6.02836">
        <ele>1983</ele>
        <time>2026-08-21T10:47:37.000Z</time>
      </trkpt>
      <trkpt lat="45.25172" lon="6.02833">
        <ele>1983.1999511719</ele>
        <time>2026-08-21T10:47:38.000Z</time>
      </trkpt>
      <trkpt lat="45.25171" lon="6.02831">
        <ele>1983</ele>
        <time>2026-08-21T10:47:39.000Z</time>
      </trkpt>
      <trkpt lat="45.2517" lon="6.02829">
        <ele>1982.5999755859</ele>
        <time>2026-08-21T10:47:40.000Z</time>
      </trkpt>
      <trkpt lat="45.25168" lon="6.02826">
        <ele>1982</ele>
        <time>2026-08-21T10:47:41.000Z</time>
      </trkpt>
      <trkpt lat="45.25167" lon="6.02824">
        <ele>1981.1999511719</ele>
        <time>2026-08-21T10:47:42.000Z</time>
      </trkpt>
      <trkpt lat="45.25166" lon="6.02821">
        <ele>1980.5999755859</ele>
        <time>2026-08-21T10:47:43.000Z</time>
      </trkpt>
      <trkpt lat="45.25164" lon="6.02819">
        <ele>1979.8000488281</ele>
        <time>2026-08-21T10:47:44.000Z</time>
      </trkpt>
      <trkpt lat="45.25163" lon="6.02817">
        <ele>1979</ele>
        <time>2026-08-21T10:47:45.000Z</time>
      </trkpt>
      <trkpt lat="45.25161" lon="6.02814">
        <ele>1978.4000244141</ele>
        <time>2026-08-21T10:47:46.000Z</time>
      </trkpt>
      <trkpt lat="45.2516" lon="6.02811">
        <ele>1977.5999755859</ele>
        <time>2026-08-21T10:47:47.000Z</time>
      </trkpt>
      <trkpt lat="45.25158" lon="6.02809">
        <ele>1977.8000488281</ele>
        <time>2026-08-21T10:47:48.000Z</time>
      </trkpt>
      <trkpt lat="45.25157" lon="6.02806">
        <ele>1978.1999511719</ele>
        <time>2026-08-21T10:47:49.000Z</time>
      </trkpt>
      <trkpt lat="45.25156" lon="6.02803">
        <ele>1978.4000244141</ele>
        <time>2026-08-21T10:47:50.000Z</time>
      </trkpt>
      <trkpt lat="45.25154" lon="6.028">
        <ele>1978.5999755859</ele>
        <time>2026-08-21T10:47:51.000Z</time>
      </trkpt>
      <trkpt lat="45.25153" lon="6.02798">
        <ele>1978.8000488281</ele>
        <time>2026-08-21T10:47:52.000Z</time>
      </trkpt>
      <trkpt lat="45.25151" lon="6.02794">
        <ele>1978.8000488281</ele>
        <time>2026-08-21T10:47:53.000Z</time>
      </trkpt>
      <trkpt lat="45.2515" lon="6.02792">
        <ele>1978.5999755859</ele>
        <time>2026-08-21T10:47:54.000Z</time>
      </trkpt>
      <trkpt lat="45.25149" lon="6.02788">
        <ele>1978.1999511719</ele>
        <time>2026-08-21T10:47:55.000Z</time>
      </trkpt>
      <trkpt lat="45.25148" lon="6.02785">
        <ele>1977.4000244141</ele>
        <time>2026-08-21T10:47:56.000Z</time>
      </trkpt>
      <trkpt lat="45.25147" lon="6.0278">
        <ele>1976.8000488281</ele>
        <time>2026-08-21T10:47:57.000Z</time>
      </trkpt>
      <trkpt lat="45.25147" lon="6.02778">
        <ele>1976.1999511719</ele>
        <time>2026-08-21T10:47:58.000Z</time>
      </trkpt>
      <trkpt lat="45.25145" lon="6.02775">
        <ele>1975.5999755859</ele>
        <time>2026-08-21T10:47:59.000Z</time>
      </trkpt>
      <trkpt lat="45.25145" lon="6.02772">
        <ele>1975</ele>
        <time>2026-08-21T10:48:00.000Z</time>
      </trkpt>
      <trkpt lat="45.25144" lon="6.02769">
        <ele>1974.4000244141</ele>
        <time>2026-08-21T10:48:01.000Z</time>
      </trkpt>
      <trkpt lat="45.25143" lon="6.02766">
        <ele>1974.4000244141</ele>
        <time>2026-08-21T10:48:02.000Z</time>
      </trkpt>
      <trkpt lat="45.25142" lon="6.02763">
        <ele>1974.1999511719</ele>
        <time>2026-08-21T10:48:03.000Z</time>
      </trkpt>
      <trkpt lat="45.25142" lon="6.0276">
        <ele>1974</ele>
        <time>2026-08-21T10:48:04.000Z</time>
      </trkpt>
      <trkpt lat="45.25141" lon="6.02757">
        <ele>1973.5999755859</ele>
        <time>2026-08-21T10:48:05.000Z</time>
      </trkpt>
      <trkpt lat="45.2514" lon="6.02753">
        <ele>1973</ele>
        <time>2026-08-21T10:48:06.000Z</time>
      </trkpt>
      <trkpt lat="45.2514" lon="6.0275">
        <ele>1972.5999755859</ele>
        <time>2026-08-21T10:48:07.000Z</time>
      </trkpt>
      <trkpt lat="45.2514" lon="6.02746">
        <ele>1972</ele>
        <time>2026-08-21T10:48:08.000Z</time>
      </trkpt>
      <trkpt lat="45.25139" lon="6.02743">
        <ele>1971.1999511719</ele>
        <time>2026-08-21T10:48:09.000Z</time>
      </trkpt>
      <trkpt lat="45.25139" lon="6.0274">
        <ele>1970.5999755859</ele>
        <time>2026-08-21T10:48:10.000Z</time>
      </trkpt>
      <trkpt lat="45.25138" lon="6.02737">
        <ele>1969.8000488281</ele>
        <time>2026-08-21T10:48:11.000Z</time>
      </trkpt>
      <trkpt lat="45.25138" lon="6.02734">
        <ele>1969.4000244141</ele>
        <time>2026-08-21T10:48:12.000Z</time>
      </trkpt>
      <trkpt lat="45.25138" lon="6.0273">
        <ele>1969.1999511719</ele>
        <time>2026-08-21T10:48:13.000Z</time>
      </trkpt>
      <trkpt lat="45.25139" lon="6.02726">
        <ele>1969.1999511719</ele>
        <time>2026-08-21T10:48:14.000Z</time>
      </trkpt>
      <trkpt lat="45.25139" lon="6.02723">
        <ele>1969</ele>
        <time>2026-08-21T10:48:15.000Z</time>
      </trkpt>
      <trkpt lat="45.25138" lon="6.0272">
        <ele>1968.1999511719</ele>
        <time>2026-08-21T10:48:16.000Z</time>
      </trkpt>
      <trkpt lat="45.25139" lon="6.02718">
        <ele>1967.4000244141</ele>
        <time>2026-08-21T10:48:17.000Z</time>
      </trkpt>
      <trkpt lat="45.2514" lon="6.02715">
        <ele>1966.8000488281</ele>
        <time>2026-08-21T10:48:18.000Z</time>
      </trkpt>
      <trkpt lat="45.2514" lon="6.02713">
        <ele>1966</ele>
        <time>2026-08-21T10:48:19.000Z</time>
      </trkpt>
      <trkpt lat="45.2514" lon="6.0271">
        <ele>1965.1999511719</ele>
        <time>2026-08-21T10:48:20.000Z</time>
      </trkpt>
      <trkpt lat="45.25141" lon="6.02707">
        <ele>1964.8000488281</ele>
        <time>2026-08-21T10:48:21.000Z</time>
      </trkpt>
      <trkpt lat="45.25142" lon="6.02705">
        <ele>1963.4000244141</ele>
        <time>2026-08-21T10:48:22.000Z</time>
      </trkpt>
      <trkpt lat="45.25143" lon="6.02703">
        <ele>1963</ele>
        <time>2026-08-21T10:48:23.000Z</time>
      </trkpt>
      <trkpt lat="45.25145" lon="6.02701">
        <ele>1962.5999755859</ele>
        <time>2026-08-21T10:48:24.000Z</time>
      </trkpt>
      <trkpt lat="45.25147" lon="6.027">
        <ele>1962.1999511719</ele>
        <time>2026-08-21T10:48:25.000Z</time>
      </trkpt>
      <trkpt lat="45.25149" lon="6.027">
        <ele>1961.1999511719</ele>
        <time>2026-08-21T10:48:26.000Z</time>
      </trkpt>
      <trkpt lat="45.25151" lon="6.02702">
        <ele>1960</ele>
        <time>2026-08-21T10:48:27.000Z</time>
      </trkpt>
      <trkpt lat="45.25153" lon="6.02704">
        <ele>1959</ele>
        <time>2026-08-21T10:48:28.000Z</time>
      </trkpt>
      <trkpt lat="45.25155" lon="6.02708">
        <ele>1957.5999755859</ele>
        <time>2026-08-21T10:48:29.000Z</time>
      </trkpt>
      <trkpt lat="45.25156" lon="6.02711">
        <ele>1956</ele>
        <time>2026-08-21T10:48:30.000Z</time>
      </trkpt>
      <trkpt lat="45.25158" lon="6.02714">
        <ele>1955.4000244141</ele>
        <time>2026-08-21T10:48:31.000Z</time>
      </trkpt>
      <trkpt lat="45.25159" lon="6.02716">
        <ele>1954.8000488281</ele>
        <time>2026-08-21T10:48:32.000Z</time>
      </trkpt>
      <trkpt lat="45.25161" lon="6.02718">
        <ele>1954.1999511719</ele>
        <time>2026-08-21T10:48:33.000Z</time>
      </trkpt>
      <trkpt lat="45.25163" lon="6.02721">
        <ele>1954.1999511719</ele>
        <time>2026-08-21T10:48:34.000Z</time>
      </trkpt>
      <trkpt lat="45.25164" lon="6.02724">
        <ele>1954.1999511719</ele>
        <time>2026-08-21T10:48:35.000Z</time>
      </trkpt>
      <trkpt lat="45.25165" lon="6.02726">
        <ele>1954.1999511719</ele>
        <time>2026-08-21T10:48:36.000Z</time>
      </trkpt>
      <trkpt lat="45.25167" lon="6.02728">
        <ele>1954.4000244141</ele>
        <time>2026-08-21T10:48:37.000Z</time>
      </trkpt>
      <trkpt lat="45.2517" lon="6.02731">
        <ele>1954.8000488281</ele>
        <time>2026-08-21T10:48:38.000Z</time>
      </trkpt>
      <trkpt lat="45.25172" lon="6.02733">
        <ele>1954.8000488281</ele>
        <time>2026-08-21T10:48:39.000Z</time>
      </trkpt>
      <trkpt lat="45.25174" lon="6.02734">
        <ele>1954.5999755859</ele>
        <time>2026-08-21T10:48:40.000Z</time>
      </trkpt>
      <trkpt lat="45.25177" lon="6.02736">
        <ele>1954.1999511719</ele>
        <time>2026-08-21T10:48:41.000Z</time>
      </trkpt>
      <trkpt lat="45.25179" lon="6.02738">
        <ele>1953.8000488281</ele>
        <time>2026-08-21T10:48:42.000Z</time>
      </trkpt>
      <trkpt lat="45.25181" lon="6.02739">
        <ele>1953.1999511719</ele>
        <time>2026-08-21T10:48:43.000Z</time>
      </trkpt>
      <trkpt lat="45.25184" lon="6.0274">
        <ele>1952.5999755859</ele>
        <time>2026-08-21T10:48:44.000Z</time>
      </trkpt>
      <trkpt lat="45.25186" lon="6.02741">
        <ele>1951.8000488281</ele>
        <time>2026-08-21T10:48:45.000Z</time>
      </trkpt>
      <trkpt lat="45.25189" lon="6.02742">
        <ele>1950.5999755859</ele>
        <time>2026-08-21T10:48:46.000Z</time>
      </trkpt>
      <trkpt lat="45.25191" lon="6.02743">
        <ele>1949.8000488281</ele>
        <time>2026-08-21T10:48:47.000Z</time>
      </trkpt>
      <trkpt lat="45.25194" lon="6.02744">
        <ele>1948.5999755859</ele>
        <time>2026-08-21T10:48:48.000Z</time>
      </trkpt>
      <trkpt lat="45.25196" lon="6.02745">
        <ele>1948.1999511719</ele>
        <time>2026-08-21T10:48:49.000Z</time>
      </trkpt>
      <trkpt lat="45.25198" lon="6.02746">
        <ele>1947.8000488281</ele>
        <time>2026-08-21T10:48:50.000Z</time>
      </trkpt>
      <trkpt lat="45.25201" lon="6.02748">
        <ele>1947.4000244141</ele>
        <time>2026-08-21T10:48:51.000Z</time>
      </trkpt>
      <trkpt lat="45.25203" lon="6.02749">
        <ele>1947.1999511719</ele>
        <time>2026-08-21T10:48:52.000Z</time>
      </trkpt>
      <trkpt lat="45.25206" lon="6.02751">
        <ele>1947.1999511719</ele>
        <time>2026-08-21T10:48:53.000Z</time>
      </trkpt>
      <trkpt lat="45.25208" lon="6.02752">
        <ele>1947</ele>
        <time>2026-08-21T10:48:54.000Z</time>
      </trkpt>
      <trkpt lat="45.2521" lon="6.02754">
        <ele>1946.8000488281</ele>
        <time>2026-08-21T10:48:55.000Z</time>
      </trkpt>
      <trkpt lat="45.25213" lon="6.02755">
        <ele>1946.8000488281</ele>
        <time>2026-08-21T10:48:56.000Z</time>
      </trkpt>
      <trkpt lat="45.25215" lon="6.02757">
        <ele>1946.5999755859</ele>
        <time>2026-08-21T10:48:57.000Z</time>
      </trkpt>
      <trkpt lat="45.25217" lon="6.02758">
        <ele>1946</ele>
        <time>2026-08-21T10:48:58.000Z</time>
      </trkpt>
      <trkpt lat="45.25219" lon="6.0276">
        <ele>1945.4000244141</ele>
        <time>2026-08-21T10:48:59.000Z</time>
      </trkpt>
      <trkpt lat="45.25222" lon="6.02761">
        <ele>1945</ele>
        <time>2026-08-21T10:49:00.000Z</time>
      </trkpt>
      <trkpt lat="45.25224" lon="6.02763">
        <ele>1944.8000488281</ele>
        <time>2026-08-21T10:49:01.000Z</time>
      </trkpt>
      <trkpt lat="45.25226" lon="6.02764">
        <ele>1944.8000488281</ele>
        <time>2026-08-21T10:49:02.000Z</time>
      </trkpt>
      <trkpt lat="45.25229" lon="6.02766">
        <ele>1944.4000244141</ele>
        <time>2026-08-21T10:49:03.000Z</time>
      </trkpt>
      <trkpt lat="45.25231" lon="6.02767">
        <ele>1944.1999511719</ele>
        <time>2026-08-21T10:49:04.000Z</time>
      </trkpt>
      <trkpt lat="45.25234" lon="6.02768">
        <ele>1944.1999511719</ele>
        <time>2026-08-21T10:49:05.000Z</time>
      </trkpt>
      <trkpt lat="45.25236" lon="6.02769">
        <ele>1943.8000488281</ele>
        <time>2026-08-21T10:49:06.000Z</time>
      </trkpt>
      <trkpt lat="45.25239" lon="6.0277">
        <ele>1943.4000244141</ele>
        <time>2026-08-21T10:49:07.000Z</time>
      </trkpt>
      <trkpt lat="45.25242" lon="6.02771">
        <ele>1943.4000244141</ele>
        <time>2026-08-21T10:49:08.000Z</time>
      </trkpt>
      <trkpt lat="45.25245" lon="6.02771">
        <ele>1943.5999755859</ele>
        <time>2026-08-21T10:49:09.000Z</time>
      </trkpt>
      <trkpt lat="45.25247" lon="6.0277">
        <ele>1943.8000488281</ele>
        <time>2026-08-21T10:49:10.000Z</time>
      </trkpt>
      <trkpt lat="45.2525" lon="6.02769">
        <ele>1944</ele>
        <time>2026-08-21T10:49:11.000Z</time>
      </trkpt>
      <trkpt lat="45.25252" lon="6.02767">
        <ele>1944.4000244141</ele>
        <time>2026-08-21T10:49:12.000Z</time>
      </trkpt>
      <trkpt lat="45.25254" lon="6.02765">
        <ele>1944.5999755859</ele>
        <time>2026-08-21T10:49:13.000Z</time>
      </trkpt>
      <trkpt lat="45.25256" lon="6.02763">
        <ele>1945.8000488281</ele>
        <time>2026-08-21T10:49:14.000Z</time>
      </trkpt>
      <trkpt lat="45.25258" lon="6.02761">
        <ele>1945.4000244141</ele>
        <time>2026-08-21T10:49:15.000Z</time>
      </trkpt>
      <trkpt lat="45.2526" lon="6.02758">
        <ele>1945.4000244141</ele>
        <time>2026-08-21T10:49:16.000Z</time>
      </trkpt>
      <trkpt lat="45.25262" lon="6.02755">
        <ele>1945.1999511719</ele>
        <time>2026-08-21T10:49:17.000Z</time>
      </trkpt>
      <trkpt lat="45.25263" lon="6.02753">
        <ele>1944.1999511719</ele>
        <time>2026-08-21T10:49:18.000Z</time>
      </trkpt>
      <trkpt lat="45.25265" lon="6.0275">
        <ele>1943.5999755859</ele>
        <time>2026-08-21T10:49:19.000Z</time>
      </trkpt>
      <trkpt lat="45.25266" lon="6.02747">
        <ele>1943.4000244141</ele>
        <time>2026-08-21T10:49:20.000Z</time>
      </trkpt>
      <trkpt lat="45.25268" lon="6.02744">
        <ele>1943.1999511719</ele>
        <time>2026-08-21T10:49:21.000Z</time>
      </trkpt>
      <trkpt lat="45.25269" lon="6.0274">
        <ele>1943.1999511719</ele>
        <time>2026-08-21T10:49:22.000Z</time>
      </trkpt>
      <trkpt lat="45.25269" lon="6.02737">
        <ele>1943.1999511719</ele>
        <time>2026-08-21T10:49:23.000Z</time>
      </trkpt>
      <trkpt lat="45.2527" lon="6.02734">
        <ele>1942.4000244141</ele>
        <time>2026-08-21T10:49:24.000Z</time>
      </trkpt>
      <trkpt lat="45.25271" lon="6.0273">
        <ele>1941.5999755859</ele>
        <time>2026-08-21T10:49:25.000Z</time>
      </trkpt>
      <trkpt lat="45.25272" lon="6.02727">
        <ele>1940.4000244141</ele>
        <time>2026-08-21T10:49:26.000Z</time>
      </trkpt>
      <trkpt lat="45.25273" lon="6.02723">
        <ele>1940</ele>
        <time>2026-08-21T10:49:27.000Z</time>
      </trkpt>
      <trkpt lat="45.25273" lon="6.0272">
        <ele>1939.5999755859</ele>
        <time>2026-08-21T10:49:28.000Z</time>
      </trkpt>
      <trkpt lat="45.25274" lon="6.02717">
        <ele>1939</ele>
        <time>2026-08-21T10:49:29.000Z</time>
      </trkpt>
      <trkpt lat="45.25274" lon="6.02713">
        <ele>1938</ele>
        <time>2026-08-21T10:49:30.000Z</time>
      </trkpt>
      <trkpt lat="45.25275" lon="6.02709">
        <ele>1937</ele>
        <time>2026-08-21T10:49:31.000Z</time>
      </trkpt>
      <trkpt lat="45.25275" lon="6.02705">
        <ele>1936</ele>
        <time>2026-08-21T10:49:32.000Z</time>
      </trkpt>
      <trkpt lat="45.25276" lon="6.02701">
        <ele>1934.8000488281</ele>
        <time>2026-08-21T10:49:33.000Z</time>
      </trkpt>
      <trkpt lat="45.25276" lon="6.02697">
        <ele>1933.8000488281</ele>
        <time>2026-08-21T10:49:34.000Z</time>
      </trkpt>
      <trkpt lat="45.25277" lon="6.02694">
        <ele>1932.8000488281</ele>
        <time>2026-08-21T10:49:35.000Z</time>
      </trkpt>
      <trkpt lat="45.25277" lon="6.0269">
        <ele>1933</ele>
        <time>2026-08-21T10:49:36.000Z</time>
      </trkpt>
      <trkpt lat="45.25277" lon="6.02687">
        <ele>1932.4000244141</ele>
        <time>2026-08-21T10:49:37.000Z</time>
      </trkpt>
      <trkpt lat="45.25277" lon="6.02682">
        <ele>1931.5999755859</ele>
        <time>2026-08-21T10:49:38.000Z</time>
      </trkpt>
      <trkpt lat="45.25278" lon="6.02679">
        <ele>1930.8000488281</ele>
        <time>2026-08-21T10:49:39.000Z</time>
      </trkpt>
      <trkpt lat="45.25278" lon="6.02675">
        <ele>1929.8000488281</ele>
        <time>2026-08-21T10:49:40.000Z</time>
      </trkpt>
      <trkpt lat="45.25278" lon="6.02672">
        <ele>1929</ele>
        <time>2026-08-21T10:49:41.000Z</time>
      </trkpt>
      <trkpt lat="45.25279" lon="6.02668">
        <ele>1928.1999511719</ele>
        <time>2026-08-21T10:49:42.000Z</time>
      </trkpt>
      <trkpt lat="45.25279" lon="6.02664">
        <ele>1928.4000244141</ele>
        <time>2026-08-21T10:49:43.000Z</time>
      </trkpt>
      <trkpt lat="45.25279" lon="6.0266">
        <ele>1928.4000244141</ele>
        <time>2026-08-21T10:49:44.000Z</time>
      </trkpt>
      <trkpt lat="45.2528" lon="6.02656">
        <ele>1928.4000244141</ele>
        <time>2026-08-21T10:49:45.000Z</time>
      </trkpt>
      <trkpt lat="45.2528" lon="6.02652">
        <ele>1928.4000244141</ele>
        <time>2026-08-21T10:49:46.000Z</time>
      </trkpt>
      <trkpt lat="45.2528" lon="6.02648">
        <ele>1928.1999511719</ele>
        <time>2026-08-21T10:49:47.000Z</time>
      </trkpt>
      <trkpt lat="45.25281" lon="6.02644">
        <ele>1928.1999511719</ele>
        <time>2026-08-21T10:49:48.000Z</time>
      </trkpt>
      <trkpt lat="45.25281" lon="6.02641">
        <ele>1928</ele>
        <time>2026-08-21T10:49:49.000Z</time>
      </trkpt>
      <trkpt lat="45.25281" lon="6.02637">
        <ele>1927.5999755859</ele>
        <time>2026-08-21T10:49:50.000Z</time>
      </trkpt>
      <trkpt lat="45.25281" lon="6.02633">
        <ele>1927</ele>
        <time>2026-08-21T10:49:51.000Z</time>
      </trkpt>
      <trkpt lat="45.25281" lon="6.02629">
        <ele>1927</ele>
        <time>2026-08-21T10:49:52.000Z</time>
      </trkpt>
      <trkpt lat="45.25281" lon="6.02625">
        <ele>1927</ele>
        <time>2026-08-21T10:49:53.000Z</time>
      </trkpt>
      <trkpt lat="45.2528" lon="6.02621">
        <ele>1926.8000488281</ele>
        <time>2026-08-21T10:49:54.000Z</time>
      </trkpt>
      <trkpt lat="45.2528" lon="6.02618">
        <ele>1926.8000488281</ele>
        <time>2026-08-21T10:49:55.000Z</time>
      </trkpt>
      <trkpt lat="45.25279" lon="6.02614">
        <ele>1926.1999511719</ele>
        <time>2026-08-21T10:49:56.000Z</time>
      </trkpt>
      <trkpt lat="45.25279" lon="6.02611">
        <ele>1925.8000488281</ele>
        <time>2026-08-21T10:49:57.000Z</time>
      </trkpt>
      <trkpt lat="45.25278" lon="6.02608">
        <ele>1925.1999511719</ele>
        <time>2026-08-21T10:49:58.000Z</time>
      </trkpt>
      <trkpt lat="45.25277" lon="6.02604">
        <ele>1925</ele>
        <time>2026-08-21T10:49:59.000Z</time>
      </trkpt>
      <trkpt lat="45.25276" lon="6.026">
        <ele>1924.5999755859</ele>
        <time>2026-08-21T10:50:00.000Z</time>
      </trkpt>
      <trkpt lat="45.25275" lon="6.02597">
        <ele>1924.4000244141</ele>
        <time>2026-08-21T10:50:01.000Z</time>
      </trkpt>
      <trkpt lat="45.25273" lon="6.02594">
        <ele>1923.1999511719</ele>
        <time>2026-08-21T10:50:02.000Z</time>
      </trkpt>
      <trkpt lat="45.25271" lon="6.0259">
        <ele>1922.5999755859</ele>
        <time>2026-08-21T10:50:03.000Z</time>
      </trkpt>
      <trkpt lat="45.2527" lon="6.02587">
        <ele>1921.5999755859</ele>
        <time>2026-08-21T10:50:04.000Z</time>
      </trkpt>
      <trkpt lat="45.25268" lon="6.02583">
        <ele>1921.1999511719</ele>
        <time>2026-08-21T10:50:05.000Z</time>
      </trkpt>
      <trkpt lat="45.25267" lon="6.0258">
        <ele>1920.5999755859</ele>
        <time>2026-08-21T10:50:06.000Z</time>
      </trkpt>
      <trkpt lat="45.25265" lon="6.02576">
        <ele>1919.8000488281</ele>
        <time>2026-08-21T10:50:07.000Z</time>
      </trkpt>
      <trkpt lat="45.25264" lon="6.02573">
        <ele>1919</ele>
        <time>2026-08-21T10:50:08.000Z</time>
      </trkpt>
      <trkpt lat="45.25263" lon="6.0257">
        <ele>1918.1999511719</ele>
        <time>2026-08-21T10:50:09.000Z</time>
      </trkpt>
      <trkpt lat="45.25262" lon="6.02567">
        <ele>1918</ele>
        <time>2026-08-21T10:50:10.000Z</time>
      </trkpt>
      <trkpt lat="45.25261" lon="6.02565">
        <ele>1918.1999511719</ele>
        <time>2026-08-21T10:50:11.000Z</time>
      </trkpt>
      <trkpt lat="45.2526" lon="6.02563">
        <ele>1918.1999511719</ele>
        <time>2026-08-21T10:50:12.000Z</time>
      </trkpt>
      <trkpt lat="45.25258" lon="6.0256">
        <ele>1918.1999511719</ele>
        <time>2026-08-21T10:50:13.000Z</time>
      </trkpt>
      <trkpt lat="45.25257" lon="6.02556">
        <ele>1918.4000244141</ele>
        <time>2026-08-21T10:50:14.000Z</time>
      </trkpt>
      <trkpt lat="45.25257" lon="6.02553">
        <ele>1918.1999511719</ele>
        <time>2026-08-21T10:50:15.000Z</time>
      </trkpt>
      <trkpt lat="45.25256" lon="6.0255">
        <ele>1917.8000488281</ele>
        <time>2026-08-21T10:50:16.000Z</time>
      </trkpt>
      <trkpt lat="45.25255" lon="6.02547">
        <ele>1917.5999755859</ele>
        <time>2026-08-21T10:50:17.000Z</time>
      </trkpt>
      <trkpt lat="45.25254" lon="6.02543">
        <ele>1917.4000244141</ele>
        <time>2026-08-21T10:50:18.000Z</time>
      </trkpt>
      <trkpt lat="45.25253" lon="6.0254">
        <ele>1917.1999511719</ele>
        <time>2026-08-21T10:50:19.000Z</time>
      </trkpt>
      <trkpt lat="45.25252" lon="6.02537">
        <ele>1917</ele>
        <time>2026-08-21T10:50:20.000Z</time>
      </trkpt>
      <trkpt lat="45.25251" lon="6.02533">
        <ele>1916.8000488281</ele>
        <time>2026-08-21T10:50:21.000Z</time>
      </trkpt>
      <trkpt lat="45.2525" lon="6.0253">
        <ele>1915.5999755859</ele>
        <time>2026-08-21T10:50:22.000Z</time>
      </trkpt>
      <trkpt lat="45.25249" lon="6.02527">
        <ele>1914.4000244141</ele>
        <time>2026-08-21T10:50:23.000Z</time>
      </trkpt>
      <trkpt lat="45.25247" lon="6.02524">
        <ele>1914.1999511719</ele>
        <time>2026-08-21T10:50:24.000Z</time>
      </trkpt>
      <trkpt lat="45.25246" lon="6.02521">
        <ele>1914</ele>
        <time>2026-08-21T10:50:25.000Z</time>
      </trkpt>
      <trkpt lat="45.25245" lon="6.02518">
        <ele>1913</ele>
        <time>2026-08-21T10:50:26.000Z</time>
      </trkpt>
      <trkpt lat="45.25243" lon="6.02514">
        <ele>1912.5999755859</ele>
        <time>2026-08-21T10:50:27.000Z</time>
      </trkpt>
      <trkpt lat="45.25242" lon="6.02512">
        <ele>1912.4000244141</ele>
        <time>2026-08-21T10:50:28.000Z</time>
      </trkpt>
      <trkpt lat="45.2524" lon="6.02508">
        <ele>1912</ele>
        <time>2026-08-21T10:50:29.000Z</time>
      </trkpt>
      <trkpt lat="45.25239" lon="6.02505">
        <ele>1911.5999755859</ele>
        <time>2026-08-21T10:50:30.000Z</time>
      </trkpt>
      <trkpt lat="45.25238" lon="6.02502">
        <ele>1910.5999755859</ele>
        <time>2026-08-21T10:50:31.000Z</time>
      </trkpt>
      <trkpt lat="45.25236" lon="6.025">
        <ele>1910</ele>
        <time>2026-08-21T10:50:32.000Z</time>
      </trkpt>
      <trkpt lat="45.25235" lon="6.02498">
        <ele>1909.4000244141</ele>
        <time>2026-08-21T10:50:33.000Z</time>
      </trkpt>
      <trkpt lat="45.25234" lon="6.02495">
        <ele>1909</ele>
        <time>2026-08-21T10:50:34.000Z</time>
      </trkpt>
      <trkpt lat="45.25233" lon="6.02492">
        <ele>1908.4000244141</ele>
        <time>2026-08-21T10:50:35.000Z</time>
      </trkpt>
      <trkpt lat="45.25231" lon="6.02489">
        <ele>1907.8000488281</ele>
        <time>2026-08-21T10:50:36.000Z</time>
      </trkpt>
      <trkpt lat="45.25231" lon="6.02485">
        <ele>1906</ele>
        <time>2026-08-21T10:50:37.000Z</time>
      </trkpt>
      <trkpt lat="45.25231" lon="6.02482">
        <ele>1905.5999755859</ele>
        <time>2026-08-21T10:50:38.000Z</time>
      </trkpt>
      <trkpt lat="45.2523" lon="6.02479">
        <ele>1905.1999511719</ele>
        <time>2026-08-21T10:50:39.000Z</time>
      </trkpt>
      <trkpt lat="45.25229" lon="6.02476">
        <ele>1905.1999511719</ele>
        <time>2026-08-21T10:50:40.000Z</time>
      </trkpt>
      <trkpt lat="45.25228" lon="6.02472">
        <ele>1905</ele>
        <time>2026-08-21T10:50:41.000Z</time>
      </trkpt>
      <trkpt lat="45.25227" lon="6.02469">
        <ele>1904.5999755859</ele>
        <time>2026-08-21T10:50:42.000Z</time>
      </trkpt>
      <trkpt lat="45.25226" lon="6.02466">
        <ele>1904.4000244141</ele>
        <time>2026-08-21T10:50:43.000Z</time>
      </trkpt>
      <trkpt lat="45.25226" lon="6.02463">
        <ele>1904</ele>
        <time>2026-08-21T10:50:44.000Z</time>
      </trkpt>
      <trkpt lat="45.25225" lon="6.0246">
        <ele>1903.4000244141</ele>
        <time>2026-08-21T10:50:45.000Z</time>
      </trkpt>
      <trkpt lat="45.25225" lon="6.02456">
        <ele>1903</ele>
        <time>2026-08-21T10:50:46.000Z</time>
      </trkpt>
      <trkpt lat="45.25226" lon="6.02452">
        <ele>1902.4000244141</ele>
        <time>2026-08-21T10:50:47.000Z</time>
      </trkpt>
      <trkpt lat="45.25227" lon="6.02448">
        <ele>1902</ele>
        <time>2026-08-21T10:50:48.000Z</time>
      </trkpt>
      <trkpt lat="45.25227" lon="6.02445">
        <ele>1901.4000244141</ele>
        <time>2026-08-21T10:50:49.000Z</time>
      </trkpt>
      <trkpt lat="45.25228" lon="6.02441">
        <ele>1900.5999755859</ele>
        <time>2026-08-21T10:50:50.000Z</time>
      </trkpt>
      <trkpt lat="45.25228" lon="6.02438">
        <ele>1899.1999511719</ele>
        <time>2026-08-21T10:50:51.000Z</time>
      </trkpt>
      <trkpt lat="45.25228" lon="6.02435">
        <ele>1898.5999755859</ele>
        <time>2026-08-21T10:50:52.000Z</time>
      </trkpt>
      <trkpt lat="45.25229" lon="6.02432">
        <ele>1897.8000488281</ele>
        <time>2026-08-21T10:50:53.000Z</time>
      </trkpt>
      <trkpt lat="45.25229" lon="6.02429">
        <ele>1897</ele>
        <time>2026-08-21T10:50:54.000Z</time>
      </trkpt>
      <trkpt lat="45.25229" lon="6.02427">
        <ele>1896.8000488281</ele>
        <time>2026-08-21T10:50:55.000Z</time>
      </trkpt>
      <trkpt lat="45.2523" lon="6.02423">
        <ele>1895.4000244141</ele>
        <time>2026-08-21T10:50:56.000Z</time>
      </trkpt>
      <trkpt lat="45.2523" lon="6.0242">
        <ele>1894</ele>
        <time>2026-08-21T10:50:57.000Z</time>
      </trkpt>
      <trkpt lat="45.25231" lon="6.02417">
        <ele>1893.8000488281</ele>
        <time>2026-08-21T10:50:58.000Z</time>
      </trkpt>
      <trkpt lat="45.25231" lon="6.02415">
        <ele>1894</ele>
        <time>2026-08-21T10:50:59.000Z</time>
      </trkpt>
      <trkpt lat="45.25232" lon="6.02411">
        <ele>1893.8000488281</ele>
        <time>2026-08-21T10:51:00.000Z</time>
      </trkpt>
      <trkpt lat="45.25233" lon="6.02408">
        <ele>1893.5999755859</ele>
        <time>2026-08-21T10:51:01.000Z</time>
      </trkpt>
      <trkpt lat="45.25235" lon="6.02404">
        <ele>1893.4000244141</ele>
        <time>2026-08-21T10:51:02.000Z</time>
      </trkpt>
      <trkpt lat="45.25236" lon="6.02402">
        <ele>1892.8000488281</ele>
        <time>2026-08-21T10:51:03.000Z</time>
      </trkpt>
      <trkpt lat="45.25238" lon="6.024">
        <ele>1892.4000244141</ele>
        <time>2026-08-21T10:51:04.000Z</time>
      </trkpt>
      <trkpt lat="45.25239" lon="6.02397">
        <ele>1891.8000488281</ele>
        <time>2026-08-21T10:51:05.000Z</time>
      </trkpt>
      <trkpt lat="45.2524" lon="6.02394">
        <ele>1891.8000488281</ele>
        <time>2026-08-21T10:51:06.000Z</time>
      </trkpt>
      <trkpt lat="45.25241" lon="6.02392">
        <ele>1891.5999755859</ele>
        <time>2026-08-21T10:51:07.000Z</time>
      </trkpt>
      <trkpt lat="45.25242" lon="6.02389">
        <ele>1891</ele>
        <time>2026-08-21T10:51:08.000Z</time>
      </trkpt>
      <trkpt lat="45.25243" lon="6.02386">
        <ele>1890.1999511719</ele>
        <time>2026-08-21T10:51:09.000Z</time>
      </trkpt>
      <trkpt lat="45.25244" lon="6.02382">
        <ele>1889.5999755859</ele>
        <time>2026-08-21T10:51:10.000Z</time>
      </trkpt>
      <trkpt lat="45.25245" lon="6.02379">
        <ele>1889.4000244141</ele>
        <time>2026-08-21T10:51:11.000Z</time>
      </trkpt>
      <trkpt lat="45.25248" lon="6.02377">
        <ele>1888.5999755859</ele>
        <time>2026-08-21T10:51:12.000Z</time>
      </trkpt>
      <trkpt lat="45.2525" lon="6.02376">
        <ele>1888.4000244141</ele>
        <time>2026-08-21T10:51:13.000Z</time>
      </trkpt>
      <trkpt lat="45.25253" lon="6.02376">
        <ele>1888.1999511719</ele>
        <time>2026-08-21T10:51:14.000Z</time>
      </trkpt>
      <trkpt lat="45.25256" lon="6.02378">
        <ele>1888.5999755859</ele>
        <time>2026-08-21T10:51:15.000Z</time>
      </trkpt>
      <trkpt lat="45.25258" lon="6.0238">
        <ele>1888.8000488281</ele>
        <time>2026-08-21T10:51:16.000Z</time>
      </trkpt>
      <trkpt lat="45.25261" lon="6.02383">
        <ele>1888.8000488281</ele>
        <time>2026-08-21T10:51:17.000Z</time>
      </trkpt>
      <trkpt lat="45.25264" lon="6.02384">
        <ele>1888.8000488281</ele>
        <time>2026-08-21T10:51:18.000Z</time>
      </trkpt>
      <trkpt lat="45.25266" lon="6.02386">
        <ele>1888.1999511719</ele>
        <time>2026-08-21T10:51:19.000Z</time>
      </trkpt>
      <trkpt lat="45.25269" lon="6.02388">
        <ele>1887.5999755859</ele>
        <time>2026-08-21T10:51:20.000Z</time>
      </trkpt>
      <trkpt lat="45.25272" lon="6.02389">
        <ele>1886.5999755859</ele>
        <time>2026-08-21T10:51:21.000Z</time>
      </trkpt>
      <trkpt lat="45.25274" lon="6.0239">
        <ele>1886.5999755859</ele>
        <time>2026-08-21T10:51:22.000Z</time>
      </trkpt>
      <trkpt lat="45.25277" lon="6.02392">
        <ele>1886.5999755859</ele>
        <time>2026-08-21T10:51:23.000Z</time>
      </trkpt>
      <trkpt lat="45.25279" lon="6.02392">
        <ele>1886.4000244141</ele>
        <time>2026-08-21T10:51:24.000Z</time>
      </trkpt>
      <trkpt lat="45.25282" lon="6.02393">
        <ele>1886.5999755859</ele>
        <time>2026-08-21T10:51:25.000Z</time>
      </trkpt>
      <trkpt lat="45.25284" lon="6.02395">
        <ele>1886.5999755859</ele>
        <time>2026-08-21T10:51:26.000Z</time>
      </trkpt>
      <trkpt lat="45.25287" lon="6.02397">
        <ele>1886.5999755859</ele>
        <time>2026-08-21T10:51:27.000Z</time>
      </trkpt>
      <trkpt lat="45.25289" lon="6.02398">
        <ele>1886.4000244141</ele>
        <time>2026-08-21T10:51:28.000Z</time>
      </trkpt>
      <trkpt lat="45.25292" lon="6.024">
        <ele>1886.1999511719</ele>
        <time>2026-08-21T10:51:29.000Z</time>
      </trkpt>
      <trkpt lat="45.25295" lon="6.02402">
        <ele>1885.8000488281</ele>
        <time>2026-08-21T10:51:30.000Z</time>
      </trkpt>
      <trkpt lat="45.25297" lon="6.02403">
        <ele>1885.5999755859</ele>
        <time>2026-08-21T10:51:31.000Z</time>
      </trkpt>
      <trkpt lat="45.253" lon="6.02405">
        <ele>1885</ele>
        <time>2026-08-21T10:51:32.000Z</time>
      </trkpt>
      <trkpt lat="45.25302" lon="6.02407">
        <ele>1885</ele>
        <time>2026-08-21T10:51:33.000Z</time>
      </trkpt>
      <trkpt lat="45.25305" lon="6.02408">
        <ele>1885</ele>
        <time>2026-08-21T10:51:34.000Z</time>
      </trkpt>
      <trkpt lat="45.25307" lon="6.0241">
        <ele>1885</ele>
        <time>2026-08-21T10:51:35.000Z</time>
      </trkpt>
      <trkpt lat="45.25309" lon="6.02412">
        <ele>1885.1999511719</ele>
        <time>2026-08-21T10:51:36.000Z</time>
      </trkpt>
      <trkpt lat="45.25311" lon="6.02413">
        <ele>1885.5999755859</ele>
        <time>2026-08-21T10:51:37.000Z</time>
      </trkpt>
      <trkpt lat="45.25313" lon="6.02415">
        <ele>1885.8000488281</ele>
        <time>2026-08-21T10:51:38.000Z</time>
      </trkpt>
      <trkpt lat="45.25315" lon="6.02417">
        <ele>1885.8000488281</ele>
        <time>2026-08-21T10:51:39.000Z</time>
      </trkpt>
      <trkpt lat="45.25317" lon="6.02418">
        <ele>1886</ele>
        <time>2026-08-21T10:51:40.000Z</time>
      </trkpt>
      <trkpt lat="45.25319" lon="6.0242">
        <ele>1885.5999755859</ele>
        <time>2026-08-21T10:51:41.000Z</time>
      </trkpt>
      <trkpt lat="45.25321" lon="6.02421">
        <ele>1885.5999755859</ele>
        <time>2026-08-21T10:51:42.000Z</time>
      </trkpt>
      <trkpt lat="45.25322" lon="6.02422">
        <ele>1885.5999755859</ele>
        <time>2026-08-21T10:51:43.000Z</time>
      </trkpt>
      <trkpt lat="45.25325" lon="6.02423">
        <ele>1885.8000488281</ele>
        <time>2026-08-21T10:51:44.000Z</time>
      </trkpt>
      <trkpt lat="45.25326" lon="6.02423">
        <ele>1885.8000488281</ele>
        <time>2026-08-21T10:51:45.000Z</time>
      </trkpt>
      <trkpt lat="45.25327" lon="6.02425">
        <ele>1886</ele>
        <time>2026-08-21T10:51:46.000Z</time>
      </trkpt>
      <trkpt lat="45.25329" lon="6.02426">
        <ele>1887.8000488281</ele>
        <time>2026-08-21T10:51:47.000Z</time>
      </trkpt>
      <trkpt lat="45.2533" lon="6.02427">
        <ele>1888</ele>
        <time>2026-08-21T10:51:48.000Z</time>
      </trkpt>
      <trkpt lat="45.25332" lon="6.02428">
        <ele>1887.4000244141</ele>
        <time>2026-08-21T10:51:49.000Z</time>
      </trkpt>
      <trkpt lat="45.25333" lon="6.02429">
        <ele>1886.8000488281</ele>
        <time>2026-08-21T10:51:50.000Z</time>
      </trkpt>
      <trkpt lat="45.25334" lon="6.02429">
        <ele>1886.1999511719</ele>
        <time>2026-08-21T10:51:51.000Z</time>
      </trkpt>
      <trkpt lat="45.25335" lon="6.0243">
        <ele>1885.4000244141</ele>
        <time>2026-08-21T10:51:52.000Z</time>
      </trkpt>
      <trkpt lat="45.25337" lon="6.02431">
        <ele>1882.4000244141</ele>
        <time>2026-08-21T10:51:53.000Z</time>
      </trkpt>
      <trkpt lat="45.25338" lon="6.02431">
        <ele>1881.5999755859</ele>
        <time>2026-08-21T10:51:54.000Z</time>
      </trkpt>
      <trkpt lat="45.2534" lon="6.02432">
        <ele>1881.4000244141</ele>
        <time>2026-08-21T10:51:55.000Z</time>
      </trkpt>
      <trkpt lat="45.25341" lon="6.02433">
        <ele>1880.5999755859</ele>
        <time>2026-08-21T10:51:56.000Z</time>
      </trkpt>
      <trkpt lat="45.25343" lon="6.02434">
        <ele>1880.5999755859</ele>
        <time>2026-08-21T10:51:57.000Z</time>
      </trkpt>
      <trkpt lat="45.25344" lon="6.02434">
        <ele>1880.8000488281</ele>
        <time>2026-08-21T10:51:58.000Z</time>
      </trkpt>
      <trkpt lat="45.25345" lon="6.02434">
        <ele>1880.8000488281</ele>
        <time>2026-08-21T10:51:59.000Z</time>
      </trkpt>
      <trkpt lat="45.25346" lon="6.02435">
        <ele>1881</ele>
        <time>2026-08-21T10:52:00.000Z</time>
      </trkpt>
      <trkpt lat="45.25347" lon="6.02436">
        <ele>1881.8000488281</ele>
        <time>2026-08-21T10:52:01.000Z</time>
      </trkpt>
      <trkpt lat="45.25348" lon="6.02436">
        <ele>1883.4000244141</ele>
        <time>2026-08-21T10:52:02.000Z</time>
      </trkpt>
      <trkpt lat="45.25349" lon="6.02437">
        <ele>1885.1999511719</ele>
        <time>2026-08-21T10:52:03.000Z</time>
      </trkpt>
      <trkpt lat="45.25351" lon="6.02438">
        <ele>1886.8000488281</ele>
        <time>2026-08-21T10:52:04.000Z</time>
      </trkpt>
      <trkpt lat="45.25352" lon="6.02438">
        <ele>1888.5999755859</ele>
        <time>2026-08-21T10:52:05.000Z</time>
      </trkpt>
      <trkpt lat="45.25353" lon="6.02438">
        <ele>1890.1999511719</ele>
        <time>2026-08-21T10:52:06.000Z</time>
      </trkpt>
      <trkpt lat="45.25354" lon="6.02438">
        <ele>1891.1999511719</ele>
        <time>2026-08-21T10:52:07.000Z</time>
      </trkpt>
      <trkpt lat="45.25356" lon="6.02439">
        <ele>1891.4000244141</ele>
        <time>2026-08-21T10:52:08.000Z</time>
      </trkpt>
      <trkpt lat="45.25357" lon="6.0244">
        <ele>1891.8000488281</ele>
        <time>2026-08-21T10:52:09.000Z</time>
      </trkpt>
      <trkpt lat="45.25358" lon="6.02441">
        <ele>1892</ele>
        <time>2026-08-21T10:52:10.000Z</time>
      </trkpt>
      <trkpt lat="45.25359" lon="6.02441">
        <ele>1893.4000244141</ele>
        <time>2026-08-21T10:52:11.000Z</time>
      </trkpt>
      <trkpt lat="45.25361" lon="6.02441">
        <ele>1893.5999755859</ele>
        <time>2026-08-21T10:52:12.000Z</time>
      </trkpt>
      <trkpt lat="45.25362" lon="6.02442">
        <ele>1893.4000244141</ele>
        <time>2026-08-21T10:52:13.000Z</time>
      </trkpt>
      <trkpt lat="45.25363" lon="6.02443">
        <ele>1893.1999511719</ele>
        <time>2026-08-21T10:52:14.000Z</time>
      </trkpt>
      <trkpt lat="45.25365" lon="6.02444">
        <ele>1893</ele>
        <time>2026-08-21T10:52:15.000Z</time>
      </trkpt>
      <trkpt lat="45.25366" lon="6.02444">
        <ele>1892.8000488281</ele>
        <time>2026-08-21T10:52:16.000Z</time>
      </trkpt>
      <trkpt lat="45.25367" lon="6.02445">
        <ele>1892.8000488281</ele>
        <time>2026-08-21T10:52:17.000Z</time>
      </trkpt>
      <trkpt lat="45.25368" lon="6.02445">
        <ele>1892.8000488281</ele>
        <time>2026-08-21T10:52:18.000Z</time>
      </trkpt>
      <trkpt lat="45.2537" lon="6.02446">
        <ele>1892.8000488281</ele>
        <time>2026-08-21T10:52:19.000Z</time>
      </trkpt>
      <trkpt lat="45.25371" lon="6.02446">
        <ele>1892.4000244141</ele>
        <time>2026-08-21T10:52:20.000Z</time>
      </trkpt>
      <trkpt lat="45.25372" lon="6.02447">
        <ele>1892</ele>
        <time>2026-08-21T10:52:21.000Z</time>
      </trkpt>
      <trkpt lat="45.25373" lon="6.02447">
        <ele>1891.5999755859</ele>
        <time>2026-08-21T10:52:22.000Z</time>
      </trkpt>
      <trkpt lat="45.25374" lon="6.02448">
        <ele>1890.8000488281</ele>
        <time>2026-08-21T10:52:23.000Z</time>
      </trkpt>
      <trkpt lat="45.25376" lon="6.02448">
        <ele>1889.8000488281</ele>
        <time>2026-08-21T10:52:24.000Z</time>
      </trkpt>
      <trkpt lat="45.25377" lon="6.02449">
        <ele>1889.8000488281</ele>
        <time>2026-08-21T10:52:25.000Z</time>
      </trkpt>
      <trkpt lat="45.25378" lon="6.0245">
        <ele>1889.5999755859</ele>
        <time>2026-08-21T10:52:26.000Z</time>
      </trkpt>
      <trkpt lat="45.25379" lon="6.02451">
        <ele>1889.5999755859</ele>
        <time>2026-08-21T10:52:27.000Z</time>
      </trkpt>
      <trkpt lat="45.2538" lon="6.02452">
        <ele>1889.4000244141</ele>
        <time>2026-08-21T10:52:28.000Z</time>
      </trkpt>
      <trkpt lat="45.25381" lon="6.02452">
        <ele>1892.4000244141</ele>
        <time>2026-08-21T10:52:29.000Z</time>
      </trkpt>
      <trkpt lat="45.25382" lon="6.02453">
        <ele>1893.8000488281</ele>
        <time>2026-08-21T10:52:30.000Z</time>
      </trkpt>
      <trkpt lat="45.25383" lon="6.02453">
        <ele>1894.5999755859</ele>
        <time>2026-08-21T10:52:31.000Z</time>
      </trkpt>
      <trkpt lat="45.25384" lon="6.02453">
        <ele>1895.1999511719</ele>
        <time>2026-08-21T10:52:32.000Z</time>
      </trkpt>
      <trkpt lat="45.25385" lon="6.02453">
        <ele>1895.5999755859</ele>
        <time>2026-08-21T10:52:33.000Z</time>
      </trkpt>
      <trkpt lat="45.25386" lon="6.02454">
        <ele>1896.1999511719</ele>
        <time>2026-08-21T10:52:34.000Z</time>
      </trkpt>
      <trkpt lat="45.25386" lon="6.02455">
        <ele>1897</ele>
        <time>2026-08-21T10:52:35.000Z</time>
      </trkpt>
      <trkpt lat="45.25387" lon="6.02455">
        <ele>1897.5999755859</ele>
        <time>2026-08-21T10:52:36.000Z</time>
      </trkpt>
      <trkpt lat="45.25388" lon="6.02455">
        <ele>1897.5999755859</ele>
        <time>2026-08-21T10:52:37.000Z</time>
      </trkpt>
      <trkpt lat="45.25389" lon="6.02456">
        <ele>1898.4000244141</ele>
        <time>2026-08-21T10:52:38.000Z</time>
      </trkpt>
      <trkpt lat="45.2539" lon="6.02456">
        <ele>1899.1999511719</ele>
        <time>2026-08-21T10:52:39.000Z</time>
      </trkpt>
      <trkpt lat="45.25391" lon="6.02457">
        <ele>1899.8000488281</ele>
        <time>2026-08-21T10:52:40.000Z</time>
      </trkpt>
      <trkpt lat="45.25391" lon="6.02457">
        <ele>1900.5999755859</ele>
        <time>2026-08-21T10:52:41.000Z</time>
      </trkpt>
      <trkpt lat="45.25392" lon="6.02458">
        <ele>1901.4000244141</ele>
        <time>2026-08-21T10:52:42.000Z</time>
      </trkpt>
      <trkpt lat="45.25393" lon="6.02458">
        <ele>1901.5999755859</ele>
        <time>2026-08-21T10:52:43.000Z</time>
      </trkpt>
      <trkpt lat="45.25393" lon="6.02459">
        <ele>1901.8000488281</ele>
        <time>2026-08-21T10:52:44.000Z</time>
      </trkpt>
      <trkpt lat="45.25394" lon="6.02458">
        <ele>1902</ele>
        <time>2026-08-21T10:52:45.000Z</time>
      </trkpt>
      <trkpt lat="45.25395" lon="6.02457">
        <ele>1902</ele>
        <time>2026-08-21T10:52:46.000Z</time>
      </trkpt>
      <trkpt lat="45.25396" lon="6.02458">
        <ele>1901.8000488281</ele>
        <time>2026-08-21T10:52:47.000Z</time>
      </trkpt>
      <trkpt lat="45.25397" lon="6.02458">
        <ele>1901.8000488281</ele>
        <time>2026-08-21T10:52:48.000Z</time>
      </trkpt>
      <trkpt lat="45.25398" lon="6.02458">
        <ele>1901.8000488281</ele>
        <time>2026-08-21T10:52:49.000Z</time>
      </trkpt>
      <trkpt lat="45.25398" lon="6.02458">
        <ele>1901.8000488281</ele>
        <time>2026-08-21T10:52:50.000Z</time>
      </trkpt>
      <trkpt lat="45.25399" lon="6.02459">
        <ele>1901.5999755859</ele>
        <time>2026-08-21T10:52:51.000Z</time>
      </trkpt>
      <trkpt lat="45.254" lon="6.02459">
        <ele>1901.4000244141</ele>
        <time>2026-08-21T10:52:52.000Z</time>
      </trkpt>
      <trkpt lat="45.25401" lon="6.02459">
        <ele>1901.4000244141</ele>
        <time>2026-08-21T10:52:53.000Z</time>
      </trkpt>
      <trkpt lat="45.25402" lon="6.0246">
        <ele>1901.1999511719</ele>
        <time>2026-08-21T10:52:54.000Z</time>
      </trkpt>
      <trkpt lat="45.25403" lon="6.0246">
        <ele>1900.8000488281</ele>
        <time>2026-08-21T10:52:55.000Z</time>
      </trkpt>
      <trkpt lat="45.25403" lon="6.0246">
        <ele>1900.5999755859</ele>
        <time>2026-08-21T10:52:56.000Z</time>
      </trkpt>
      <trkpt lat="45.25404" lon="6.02461">
        <ele>1900.4000244141</ele>
        <time>2026-08-21T10:52:57.000Z</time>
      </trkpt>
      <trkpt lat="45.25405" lon="6.02461">
        <ele>1900</ele>
        <time>2026-08-21T10:52:58.000Z</time>
      </trkpt>
      <trkpt lat="45.25407" lon="6.02461">
        <ele>1899.8000488281</ele>
        <time>2026-08-21T10:52:59.000Z</time>
      </trkpt>
      <trkpt lat="45.25408" lon="6.02461">
        <ele>1899.8000488281</ele>
        <time>2026-08-21T10:53:00.000Z</time>
      </trkpt>
      <trkpt lat="45.25409" lon="6.02461">
        <ele>1899.8000488281</ele>
        <time>2026-08-21T10:53:01.000Z</time>
      </trkpt>
      <trkpt lat="45.25409" lon="6.02462">
        <ele>1900.1999511719</ele>
        <time>2026-08-21T10:53:02.000Z</time>
      </trkpt>
      <trkpt lat="45.2541" lon="6.02462">
        <ele>1900.4000244141</ele>
        <time>2026-08-21T10:53:03.000Z</time>
      </trkpt>
      <trkpt lat="45.25411" lon="6.02463">
        <ele>1901</ele>
        <time>2026-08-21T10:53:04.000Z</time>
      </trkpt>
      <trkpt lat="45.25412" lon="6.02463">
        <ele>1901.4000244141</ele>
        <time>2026-08-21T10:53:05.000Z</time>
      </trkpt>
      <trkpt lat="45.25413" lon="6.02463">
        <ele>1901.5999755859</ele>
        <time>2026-08-21T10:53:06.000Z</time>
      </trkpt>
      <trkpt lat="45.25414" lon="6.02464">
        <ele>1902</ele>
        <time>2026-08-21T10:53:07.000Z</time>
      </trkpt>
      <trkpt lat="45.25416" lon="6.02464">
        <ele>1902.1999511719</ele>
        <time>2026-08-21T10:53:08.000Z</time>
      </trkpt>
      <trkpt lat="45.25417" lon="6.02464">
        <ele>1902.5999755859</ele>
        <time>2026-08-21T10:53:09.000Z</time>
      </trkpt>
      <trkpt lat="45.25418" lon="6.02465">
        <ele>1902.8000488281</ele>
        <time>2026-08-21T10:53:10.000Z</time>
      </trkpt>
      <trkpt lat="45.25419" lon="6.02465">
        <ele>1903.1999511719</ele>
        <time>2026-08-21T10:53:11.000Z</time>
      </trkpt>
      <trkpt lat="45.2542" lon="6.02466">
        <ele>1903.5999755859</ele>
        <time>2026-08-21T10:53:12.000Z</time>
      </trkpt>
      <trkpt lat="45.25421" lon="6.02467">
        <ele>1904</ele>
        <time>2026-08-21T10:53:13.000Z</time>
      </trkpt>
      <trkpt lat="45.25422" lon="6.02468">
        <ele>1904.1999511719</ele>
        <time>2026-08-21T10:53:14.000Z</time>
      </trkpt>
      <trkpt lat="45.25422" lon="6.02469">
        <ele>1904.4000244141</ele>
        <time>2026-08-21T10:53:15.000Z</time>
      </trkpt>
      <trkpt lat="45.25423" lon="6.0247">
        <ele>1904.4000244141</ele>
        <time>2026-08-21T10:53:16.000Z</time>
      </trkpt>
      <trkpt lat="45.25424" lon="6.02472">
        <ele>1904.4000244141</ele>
        <time>2026-08-21T10:53:17.000Z</time>
      </trkpt>
      <trkpt lat="45.25425" lon="6.02473">
        <ele>1904.5999755859</ele>
        <time>2026-08-21T10:53:18.000Z</time>
      </trkpt>
      <trkpt lat="45.25425" lon="6.02475">
        <ele>1904.8000488281</ele>
        <time>2026-08-21T10:53:19.000Z</time>
      </trkpt>
      <trkpt lat="45.25426" lon="6.02476">
        <ele>1905.5999755859</ele>
        <time>2026-08-21T10:53:20.000Z</time>
      </trkpt>
      <trkpt lat="45.25427" lon="6.02478">
        <ele>1905.8000488281</ele>
        <time>2026-08-21T10:53:21.000Z</time>
      </trkpt>
      <trkpt lat="45.25427" lon="6.02479">
        <ele>1906.5999755859</ele>
        <time>2026-08-21T10:53:22.000Z</time>
      </trkpt>
      <trkpt lat="45.25428" lon="6.0248">
        <ele>1907.4000244141</ele>
        <time>2026-08-21T10:53:23.000Z</time>
      </trkpt>
      <trkpt lat="45.25428" lon="6.02482">
        <ele>1908.1999511719</ele>
        <time>2026-08-21T10:53:24.000Z</time>
      </trkpt>
      <trkpt lat="45.25429" lon="6.02483">
        <ele>1908.8000488281</ele>
        <time>2026-08-21T10:53:25.000Z</time>
      </trkpt>
      <trkpt lat="45.25429" lon="6.02484">
        <ele>1910.5999755859</ele>
        <time>2026-08-21T10:53:26.000Z</time>
      </trkpt>
      <trkpt lat="45.2543" lon="6.02485">
        <ele>1912.1999511719</ele>
        <time>2026-08-21T10:53:27.000Z</time>
      </trkpt>
      <trkpt lat="45.25431" lon="6.02487">
        <ele>1913</ele>
        <time>2026-08-21T10:53:28.000Z</time>
      </trkpt>
      <trkpt lat="45.25431" lon="6.02488">
        <ele>1914.5999755859</ele>
        <time>2026-08-21T10:53:29.000Z</time>
      </trkpt>
      <trkpt lat="45.25432" lon="6.0249">
        <ele>1915.1999511719</ele>
        <time>2026-08-21T10:53:30.000Z</time>
      </trkpt>
      <trkpt lat="45.25433" lon="6.02491">
        <ele>1915.8000488281</ele>
        <time>2026-08-21T10:53:31.000Z</time>
      </trkpt>
      <trkpt lat="45.25434" lon="6.02493">
        <ele>1916.1999511719</ele>
        <time>2026-08-21T10:53:32.000Z</time>
      </trkpt>
      <trkpt lat="45.25435" lon="6.02495">
        <ele>1916.5999755859</ele>
        <time>2026-08-21T10:53:33.000Z</time>
      </trkpt>
      <trkpt lat="45.25435" lon="6.02496">
        <ele>1916.5999755859</ele>
        <time>2026-08-21T10:53:34.000Z</time>
      </trkpt>
      <trkpt lat="45.25436" lon="6.02497">
        <ele>1916.4000244141</ele>
        <time>2026-08-21T10:53:35.000Z</time>
      </trkpt>
      <trkpt lat="45.25437" lon="6.02499">
        <ele>1916.4000244141</ele>
        <time>2026-08-21T10:53:36.000Z</time>
      </trkpt>
      <trkpt lat="45.25438" lon="6.025">
        <ele>1916.1999511719</ele>
        <time>2026-08-21T10:53:37.000Z</time>
      </trkpt>
      <trkpt lat="45.25439" lon="6.02501">
        <ele>1916</ele>
        <time>2026-08-21T10:53:38.000Z</time>
      </trkpt>
      <trkpt lat="45.2544" lon="6.02503">
        <ele>1913.1999511719</ele>
        <time>2026-08-21T10:53:39.000Z</time>
      </trkpt>
      <trkpt lat="45.25441" lon="6.02504">
        <ele>1913.5999755859</ele>
        <time>2026-08-21T10:53:40.000Z</time>
      </trkpt>
      <trkpt lat="45.25442" lon="6.02505">
        <ele>1914.1999511719</ele>
        <time>2026-08-21T10:53:41.000Z</time>
      </trkpt>
      <trkpt lat="45.25442" lon="6.02506">
        <ele>1914.4000244141</ele>
        <time>2026-08-21T10:53:42.000Z</time>
      </trkpt>
      <trkpt lat="45.25443" lon="6.02508">
        <ele>1914.8000488281</ele>
        <time>2026-08-21T10:53:43.000Z</time>
      </trkpt>
      <trkpt lat="45.25444" lon="6.02509">
        <ele>1915</ele>
        <time>2026-08-21T10:53:44.000Z</time>
      </trkpt>
      <trkpt lat="45.25445" lon="6.0251">
        <ele>1915</ele>
        <time>2026-08-21T10:53:45.000Z</time>
      </trkpt>
      <trkpt lat="45.25446" lon="6.02511">
        <ele>1915.1999511719</ele>
        <time>2026-08-21T10:53:46.000Z</time>
      </trkpt>
      <trkpt lat="45.25448" lon="6.02512">
        <ele>1915.4000244141</ele>
        <time>2026-08-21T10:53:47.000Z</time>
      </trkpt>
      <trkpt lat="45.25449" lon="6.02514">
        <ele>1915.1999511719</ele>
        <time>2026-08-21T10:53:48.000Z</time>
      </trkpt>
      <trkpt lat="45.25449" lon="6.02516">
        <ele>1914.8000488281</ele>
        <time>2026-08-21T10:53:49.000Z</time>
      </trkpt>
      <trkpt lat="45.25449" lon="6.02517">
        <ele>1914.4000244141</ele>
        <time>2026-08-21T10:53:50.000Z</time>
      </trkpt>
      <trkpt lat="45.2545" lon="6.02518">
        <ele>1914</ele>
        <time>2026-08-21T10:53:51.000Z</time>
      </trkpt>
      <trkpt lat="45.2545" lon="6.0252">
        <ele>1913.8000488281</ele>
        <time>2026-08-21T10:53:52.000Z</time>
      </trkpt>
      <trkpt lat="45.2545" lon="6.02521">
        <ele>1913.8000488281</ele>
        <time>2026-08-21T10:53:53.000Z</time>
      </trkpt>
      <trkpt lat="45.25451" lon="6.02522">
        <ele>1914</ele>
        <time>2026-08-21T10:53:54.000Z</time>
      </trkpt>
      <trkpt lat="45.25451" lon="6.02523">
        <ele>1914.4000244141</ele>
        <time>2026-08-21T10:53:55.000Z</time>
      </trkpt>
      <trkpt lat="45.25452" lon="6.02523">
        <ele>1914.5999755859</ele>
        <time>2026-08-21T10:53:56.000Z</time>
      </trkpt>
      <trkpt lat="45.25453" lon="6.02523">
        <ele>1915</ele>
        <time>2026-08-21T10:53:57.000Z</time>
      </trkpt>
      <trkpt lat="45.25454" lon="6.02523">
        <ele>1915.4000244141</ele>
        <time>2026-08-21T10:53:58.000Z</time>
      </trkpt>
      <trkpt lat="45.25455" lon="6.02524">
        <ele>1915.5999755859</ele>
        <time>2026-08-21T10:53:59.000Z</time>
      </trkpt>
      <trkpt lat="45.25456" lon="6.02525">
        <ele>1915.8000488281</ele>
        <time>2026-08-21T10:54:00.000Z</time>
      </trkpt>
      <trkpt lat="45.25456" lon="6.02525">
        <ele>1915.8000488281</ele>
        <time>2026-08-21T10:54:01.000Z</time>
      </trkpt>
      <trkpt lat="45.25457" lon="6.02526">
        <ele>1915.8000488281</ele>
        <time>2026-08-21T10:54:02.000Z</time>
      </trkpt>
      <trkpt lat="45.25458" lon="6.02527">
        <ele>1916</ele>
        <time>2026-08-21T10:54:03.000Z</time>
      </trkpt>
      <trkpt lat="45.25459" lon="6.02528">
        <ele>1916</ele>
        <time>2026-08-21T10:54:04.000Z</time>
      </trkpt>
      <trkpt lat="45.2546" lon="6.02528">
        <ele>1916.1999511719</ele>
        <time>2026-08-21T10:54:05.000Z</time>
      </trkpt>
      <trkpt lat="45.25461" lon="6.02529">
        <ele>1916.4000244141</ele>
        <time>2026-08-21T10:54:06.000Z</time>
      </trkpt>
      <trkpt lat="45.25462" lon="6.02529">
        <ele>1916.4000244141</ele>
        <time>2026-08-21T10:54:07.000Z</time>
      </trkpt>
      <trkpt lat="45.25463" lon="6.0253">
        <ele>1916.5999755859</ele>
        <time>2026-08-21T10:54:08.000Z</time>
      </trkpt>
      <trkpt lat="45.25464" lon="6.0253">
        <ele>1916.8000488281</ele>
        <time>2026-08-21T10:54:09.000Z</time>
      </trkpt>
      <trkpt lat="45.25465" lon="6.02531">
        <ele>1916.8000488281</ele>
        <time>2026-08-21T10:54:10.000Z</time>
      </trkpt>
      <trkpt lat="45.25466" lon="6.02531">
        <ele>1917.8000488281</ele>
        <time>2026-08-21T10:54:11.000Z</time>
      </trkpt>
      <trkpt lat="45.25467" lon="6.02531">
        <ele>1918.5999755859</ele>
        <time>2026-08-21T10:54:12.000Z</time>
      </trkpt>
      <trkpt lat="45.25468" lon="6.02532">
        <ele>1920.4000244141</ele>
        <time>2026-08-21T10:54:13.000Z</time>
      </trkpt>
      <trkpt lat="45.25468" lon="6.02533">
        <ele>1921.1999511719</ele>
        <time>2026-08-21T10:54:14.000Z</time>
      </trkpt>
      <trkpt lat="45.25469" lon="6.02533">
        <ele>1922.1999511719</ele>
        <time>2026-08-21T10:54:15.000Z</time>
      </trkpt>
      <trkpt lat="45.2547" lon="6.02533">
        <ele>1923</ele>
        <time>2026-08-21T10:54:16.000Z</time>
      </trkpt>
      <trkpt lat="45.25471" lon="6.02533">
        <ele>1923.5999755859</ele>
        <time>2026-08-21T10:54:17.000Z</time>
      </trkpt>
      <trkpt lat="45.25471" lon="6.02532">
        <ele>1923.8000488281</ele>
        <time>2026-08-21T10:54:18.000Z</time>
      </trkpt>
      <trkpt lat="45.25472" lon="6.02533">
        <ele>1923.8000488281</ele>
        <time>2026-08-21T10:54:19.000Z</time>
      </trkpt>
      <trkpt lat="45.25472" lon="6.02535">
        <ele>1923.8000488281</ele>
        <time>2026-08-21T10:54:20.000Z</time>
      </trkpt>
      <trkpt lat="45.25473" lon="6.02536">
        <ele>1924</ele>
        <time>2026-08-21T10:54:21.000Z</time>
      </trkpt>
      <trkpt lat="45.25473" lon="6.02537">
        <ele>1924.1999511719</ele>
        <time>2026-08-21T10:54:22.000Z</time>
      </trkpt>
      <trkpt lat="45.25473" lon="6.02538">
        <ele>1924.1999511719</ele>
        <time>2026-08-21T10:54:23.000Z</time>
      </trkpt>
      <trkpt lat="45.25472" lon="6.02539">
        <ele>1924.1999511719</ele>
        <time>2026-08-21T10:54:24.000Z</time>
      </trkpt>
      <trkpt lat="45.25472" lon="6.02539">
        <ele>1924.1999511719</ele>
        <time>2026-08-21T10:54:25.000Z</time>
      </trkpt>
      <trkpt lat="45.25472" lon="6.02539">
        <ele>1924.1999511719</ele>
        <time>2026-08-21T10:54:26.000Z</time>
      </trkpt>
      <trkpt lat="45.25473" lon="6.0254">
        <ele>1924.1999511719</ele>
        <time>2026-08-21T10:54:27.000Z</time>
      </trkpt>
      <trkpt lat="45.25473" lon="6.02541">
        <ele>1924.4000244141</ele>
        <time>2026-08-21T10:54:28.000Z</time>
      </trkpt>
      <trkpt lat="45.25473" lon="6.02541">
        <ele>1924.8000488281</ele>
        <time>2026-08-21T10:54:29.000Z</time>
      </trkpt>
      <trkpt lat="45.25474" lon="6.02542">
        <ele>1925</ele>
        <time>2026-08-21T10:54:30.000Z</time>
      </trkpt>
      <trkpt lat="45.25474" lon="6.02542">
        <ele>1925.1999511719</ele>
        <time>2026-08-21T10:54:31.000Z</time>
      </trkpt>
      <trkpt lat="45.25475" lon="6.02543">
        <ele>1925.1999511719</ele>
        <time>2026-08-21T10:54:32.000Z</time>
      </trkpt>
      <trkpt lat="45.25475" lon="6.02544">
        <ele>1925.4000244141</ele>
        <time>2026-08-21T10:54:33.000Z</time>
      </trkpt>
      <trkpt lat="45.25475" lon="6.02545">
        <ele>1925.4000244141</ele>
        <time>2026-08-21T10:54:34.000Z</time>
      </trkpt>
      <trkpt lat="45.25475" lon="6.02545">
        <ele>1925.4000244141</ele>
        <time>2026-08-21T10:54:35.000Z</time>
      </trkpt>
      <trkpt lat="45.25476" lon="6.02545">
        <ele>1925.5999755859</ele>
        <time>2026-08-21T10:54:36.000Z</time>
      </trkpt>
      <trkpt lat="45.25477" lon="6.02545">
        <ele>1925.5999755859</ele>
        <time>2026-08-21T10:54:37.000Z</time>
      </trkpt>
      <trkpt lat="45.25477" lon="6.02545">
        <ele>1925.5999755859</ele>
        <time>2026-08-21T10:54:38.000Z</time>
      </trkpt>
      <trkpt lat="45.25477" lon="6.02546">
        <ele>1925.5999755859</ele>
        <time>2026-08-21T10:54:39.000Z</time>
      </trkpt>
      <trkpt lat="45.25476" lon="6.02547">
        <ele>1925.5999755859</ele>
        <time>2026-08-21T10:54:40.000Z</time>
      </trkpt>
      <trkpt lat="45.25476" lon="6.02548">
        <ele>1925.8000488281</ele>
        <time>2026-08-21T10:54:41.000Z</time>
      </trkpt>
      <trkpt lat="45.25477" lon="6.02548">
        <ele>1925.8000488281</ele>
        <time>2026-08-21T10:54:42.000Z</time>
      </trkpt>
      <trkpt lat="45.25477" lon="6.0255">
        <ele>1927.4000244141</ele>
        <time>2026-08-21T10:54:43.000Z</time>
      </trkpt>
      <trkpt lat="45.25477" lon="6.0255">
        <ele>1928.5999755859</ele>
        <time>2026-08-21T10:54:44.000Z</time>
      </trkpt>
      <trkpt lat="45.25477" lon="6.0255">
        <ele>1928.8000488281</ele>
        <time>2026-08-21T10:54:45.000Z</time>
      </trkpt>
      <trkpt lat="45.25477" lon="6.0255">
        <ele>1928.8000488281</ele>
        <time>2026-08-21T10:54:46.000Z</time>
      </trkpt>
      <trkpt lat="45.25478" lon="6.02551">
        <ele>1929</ele>
        <time>2026-08-21T10:54:47.000Z</time>
      </trkpt>
      <trkpt lat="45.25478" lon="6.02552">
        <ele>1929.1999511719</ele>
        <time>2026-08-21T10:54:48.000Z</time>
      </trkpt>
      <trkpt lat="45.25478" lon="6.02552">
        <ele>1929.5999755859</ele>
        <time>2026-08-21T10:54:49.000Z</time>
      </trkpt>
      <trkpt lat="45.25479" lon="6.02552">
        <ele>1928.5999755859</ele>
        <time>2026-08-21T10:54:50.000Z</time>
      </trkpt>
      <trkpt lat="45.2548" lon="6.02553">
        <ele>1927.5999755859</ele>
        <time>2026-08-21T10:54:51.000Z</time>
      </trkpt>
      <trkpt lat="45.2548" lon="6.02553">
        <ele>1926.8000488281</ele>
        <time>2026-08-21T10:54:52.000Z</time>
      </trkpt>
      <trkpt lat="45.2548" lon="6.02553">
        <ele>1925.8000488281</ele>
        <time>2026-08-21T10:54:53.000Z</time>
      </trkpt>
      <trkpt lat="45.25482" lon="6.02553">
        <ele>1924.8000488281</ele>
        <time>2026-08-21T10:54:54.000Z</time>
      </trkpt>
      <trkpt lat="45.25482" lon="6.02553">
        <ele>1924.5999755859</ele>
        <time>2026-08-21T10:54:55.000Z</time>
      </trkpt>
      <trkpt lat="45.25482" lon="6.02553">
        <ele>1924.5999755859</ele>
        <time>2026-08-21T10:54:56.000Z</time>
      </trkpt>
      <trkpt lat="45.25483" lon="6.02553">
        <ele>1924.5999755859</ele>
        <time>2026-08-21T10:54:57.000Z</time>
      </trkpt>
      <trkpt lat="45.25483" lon="6.02553">
        <ele>1924.5999755859</ele>
        <time>2026-08-21T10:54:58.000Z</time>
      </trkpt>
      <trkpt lat="45.25484" lon="6.02553">
        <ele>1924.5999755859</ele>
        <time>2026-08-21T10:54:59.000Z</time>
      </trkpt>
      <trkpt lat="45.25484" lon="6.02553">
        <ele>1924.4000244141</ele>
        <time>2026-08-21T10:55:00.000Z</time>
      </trkpt>
      <trkpt lat="45.25485" lon="6.02553">
        <ele>1924.4000244141</ele>
        <time>2026-08-21T10:55:01.000Z</time>
      </trkpt>
      <trkpt lat="45.25486" lon="6.02553">
        <ele>1925</ele>
        <time>2026-08-21T10:55:02.000Z</time>
      </trkpt>
      <trkpt lat="45.25487" lon="6.02553">
        <ele>1925.5999755859</ele>
        <time>2026-08-21T10:55:03.000Z</time>
      </trkpt>
      <trkpt lat="45.25488" lon="6.02553">
        <ele>1926</ele>
        <time>2026-08-21T10:55:04.000Z</time>
      </trkpt>
      <trkpt lat="45.25489" lon="6.02553">
        <ele>1926.5999755859</ele>
        <time>2026-08-21T10:55:05.000Z</time>
      </trkpt>
      <trkpt lat="45.25489" lon="6.02552">
        <ele>1927</ele>
        <time>2026-08-21T10:55:06.000Z</time>
      </trkpt>
      <trkpt lat="45.2549" lon="6.02552">
        <ele>1927.5999755859</ele>
        <time>2026-08-21T10:55:07.000Z</time>
      </trkpt>
      <trkpt lat="45.2549" lon="6.02552">
        <ele>1928</ele>
        <time>2026-08-21T10:55:08.000Z</time>
      </trkpt>
      <trkpt lat="45.25491" lon="6.02551">
        <ele>1928.4000244141</ele>
        <time>2026-08-21T10:55:09.000Z</time>
      </trkpt>
      <trkpt lat="45.25492" lon="6.02551">
        <ele>1928.8000488281</ele>
        <time>2026-08-21T10:55:10.000Z</time>
      </trkpt>
      <trkpt lat="45.25493" lon="6.02551">
        <ele>1929.1999511719</ele>
        <time>2026-08-21T10:55:11.000Z</time>
      </trkpt>
      <trkpt lat="45.25494" lon="6.0255">
        <ele>1929.5999755859</ele>
        <time>2026-08-21T10:55:12.000Z</time>
      </trkpt>
      <trkpt lat="45.25495" lon="6.02549">
        <ele>1930.1999511719</ele>
        <time>2026-08-21T10:55:13.000Z</time>
      </trkpt>
      <trkpt lat="45.25496" lon="6.02549">
        <ele>1930.4000244141</ele>
        <time>2026-08-21T10:55:14.000Z</time>
      </trkpt>
      <trkpt lat="45.25496" lon="6.02549">
        <ele>1931</ele>
        <time>2026-08-21T10:55:15.000Z</time>
      </trkpt>
      <trkpt lat="45.25497" lon="6.02549">
        <ele>1931.1999511719</ele>
        <time>2026-08-21T10:55:16.000Z</time>
      </trkpt>
      <trkpt lat="45.25497" lon="6.02548">
        <ele>1931.5999755859</ele>
        <time>2026-08-21T10:55:17.000Z</time>
      </trkpt>
      <trkpt lat="45.25497" lon="6.02548">
        <ele>1932</ele>
        <time>2026-08-21T10:55:18.000Z</time>
      </trkpt>
      <trkpt lat="45.25498" lon="6.02548">
        <ele>1932.1999511719</ele>
        <time>2026-08-21T10:55:19.000Z</time>
      </trkpt>
      <trkpt lat="45.25499" lon="6.02548">
        <ele>1932.4000244141</ele>
        <time>2026-08-21T10:55:20.000Z</time>
      </trkpt>
      <trkpt lat="45.255" lon="6.02548">
        <ele>1932.5999755859</ele>
        <time>2026-08-21T10:55:21.000Z</time>
      </trkpt>
      <trkpt lat="45.25501" lon="6.02548">
        <ele>1932.5999755859</ele>
        <time>2026-08-21T10:55:22.000Z</time>
      </trkpt>
      <trkpt lat="45.25501" lon="6.02547">
        <ele>1932.8000488281</ele>
        <time>2026-08-21T10:55:23.000Z</time>
      </trkpt>
      <trkpt lat="45.25502" lon="6.02547">
        <ele>1933</ele>
        <time>2026-08-21T10:55:24.000Z</time>
      </trkpt>
      <trkpt lat="45.25503" lon="6.02546">
        <ele>1933.1999511719</ele>
        <time>2026-08-21T10:55:25.000Z</time>
      </trkpt>
      <trkpt lat="45.25503" lon="6.02546">
        <ele>1933.5999755859</ele>
        <time>2026-08-21T10:55:26.000Z</time>
      </trkpt>
      <trkpt lat="45.25504" lon="6.02545">
        <ele>1933.8000488281</ele>
        <time>2026-08-21T10:55:27.000Z</time>
      </trkpt>
      <trkpt lat="45.25504" lon="6.02545">
        <ele>1934</ele>
        <time>2026-08-21T10:55:28.000Z</time>
      </trkpt>
      <trkpt lat="45.25505" lon="6.02544">
        <ele>1934.1999511719</ele>
        <time>2026-08-21T10:55:29.000Z</time>
      </trkpt>
      <trkpt lat="45.25506" lon="6.02543">
        <ele>1934.4000244141</ele>
        <time>2026-08-21T10:55:30.000Z</time>
      </trkpt>
      <trkpt lat="45.25507" lon="6.02543">
        <ele>1934.8000488281</ele>
        <time>2026-08-21T10:55:31.000Z</time>
      </trkpt>
      <trkpt lat="45.25508" lon="6.02542">
        <ele>1935</ele>
        <time>2026-08-21T10:55:32.000Z</time>
      </trkpt>
      <trkpt lat="45.25508" lon="6.02542">
        <ele>1935.5999755859</ele>
        <time>2026-08-21T10:55:33.000Z</time>
      </trkpt>
      <trkpt lat="45.25509" lon="6.02542">
        <ele>1935.8000488281</ele>
        <time>2026-08-21T10:55:34.000Z</time>
      </trkpt>
      <trkpt lat="45.25509" lon="6.02542">
        <ele>1936</ele>
        <time>2026-08-21T10:55:35.000Z</time>
      </trkpt>
      <trkpt lat="45.25509" lon="6.02541">
        <ele>1936.1999511719</ele>
        <time>2026-08-21T10:55:36.000Z</time>
      </trkpt>
      <trkpt lat="45.2551" lon="6.02542">
        <ele>1936.1999511719</ele>
        <time>2026-08-21T10:55:37.000Z</time>
      </trkpt>
      <trkpt lat="45.2551" lon="6.02541">
        <ele>1936.1999511719</ele>
        <time>2026-08-21T10:55:38.000Z</time>
      </trkpt>
      <trkpt lat="45.25511" lon="6.02541">
        <ele>1936</ele>
        <time>2026-08-21T10:55:39.000Z</time>
      </trkpt>
      <trkpt lat="45.25512" lon="6.02541">
        <ele>1935.5999755859</ele>
        <time>2026-08-21T10:55:40.000Z</time>
      </trkpt>
      <trkpt lat="45.25512" lon="6.0254">
        <ele>1935.1999511719</ele>
        <time>2026-08-21T10:55:41.000Z</time>
      </trkpt>
      <trkpt lat="45.25513" lon="6.02539">
        <ele>1934.8000488281</ele>
        <time>2026-08-21T10:55:42.000Z</time>
      </trkpt>
      <trkpt lat="45.25515" lon="6.02538">
        <ele>1934.5999755859</ele>
        <time>2026-08-21T10:55:43.000Z</time>
      </trkpt>
      <trkpt lat="45.25515" lon="6.02538">
        <ele>1934.1999511719</ele>
        <time>2026-08-21T10:55:44.000Z</time>
      </trkpt>
      <trkpt lat="45.25516" lon="6.02537">
        <ele>1934</ele>
        <time>2026-08-21T10:55:45.000Z</time>
      </trkpt>
      <trkpt lat="45.25517" lon="6.02536">
        <ele>1933.5999755859</ele>
        <time>2026-08-21T10:55:46.000Z</time>
      </trkpt>
      <trkpt lat="45.25517" lon="6.02536">
        <ele>1934</ele>
        <time>2026-08-21T10:55:47.000Z</time>
      </trkpt>
      <trkpt lat="45.25518" lon="6.02535">
        <ele>1934.5999755859</ele>
        <time>2026-08-21T10:55:48.000Z</time>
      </trkpt>
      <trkpt lat="45.25519" lon="6.02535">
        <ele>1935</ele>
        <time>2026-08-21T10:55:49.000Z</time>
      </trkpt>
      <trkpt lat="45.2552" lon="6.02534">
        <ele>1935.5999755859</ele>
        <time>2026-08-21T10:55:50.000Z</time>
      </trkpt>
      <trkpt lat="45.25521" lon="6.02534">
        <ele>1935.8000488281</ele>
        <time>2026-08-21T10:55:51.000Z</time>
      </trkpt>
      <trkpt lat="45.25521" lon="6.02533">
        <ele>1936.4000244141</ele>
        <time>2026-08-21T10:55:52.000Z</time>
      </trkpt>
      <trkpt lat="45.25521" lon="6.02533">
        <ele>1936.8000488281</ele>
        <time>2026-08-21T10:55:53.000Z</time>
      </trkpt>
      <trkpt lat="45.25522" lon="6.02533">
        <ele>1937.1999511719</ele>
        <time>2026-08-21T10:55:54.000Z</time>
      </trkpt>
      <trkpt lat="45.25523" lon="6.02533">
        <ele>1938.8000488281</ele>
        <time>2026-08-21T10:55:55.000Z</time>
      </trkpt>
      <trkpt lat="45.25523" lon="6.02533">
        <ele>1939.5999755859</ele>
        <time>2026-08-21T10:55:56.000Z</time>
      </trkpt>
      <trkpt lat="45.25523" lon="6.02534">
        <ele>1940</ele>
        <time>2026-08-21T10:55:57.000Z</time>
      </trkpt>
      <trkpt lat="45.25523" lon="6.02534">
        <ele>1940.1999511719</ele>
        <time>2026-08-21T10:55:58.000Z</time>
      </trkpt>
      <trkpt lat="45.25524" lon="6.02535">
        <ele>1940.4000244141</ele>
        <time>2026-08-21T10:55:59.000Z</time>
      </trkpt>
      <trkpt lat="45.25524" lon="6.02536">
        <ele>1940.5999755859</ele>
        <time>2026-08-21T10:56:00.000Z</time>
      </trkpt>
      <trkpt lat="45.25524" lon="6.02536">
        <ele>1941</ele>
        <time>2026-08-21T10:56:01.000Z</time>
      </trkpt>
      <trkpt lat="45.25525" lon="6.02536">
        <ele>1941.1999511719</ele>
        <time>2026-08-21T10:56:02.000Z</time>
      </trkpt>
      <trkpt lat="45.25526" lon="6.02536">
        <ele>1941.4000244141</ele>
        <time>2026-08-21T10:56:03.000Z</time>
      </trkpt>
      <trkpt lat="45.25526" lon="6.02537">
        <ele>1941.1999511719</ele>
        <time>2026-08-21T10:56:04.000Z</time>
      </trkpt>
      <trkpt lat="45.25527" lon="6.02537">
        <ele>1941</ele>
        <time>2026-08-21T10:56:05.000Z</time>
      </trkpt>
      <trkpt lat="45.25527" lon="6.02536">
        <ele>1941</ele>
        <time>2026-08-21T10:56:06.000Z</time>
      </trkpt>
      <trkpt lat="45.25528" lon="6.02536">
        <ele>1940.8000488281</ele>
        <time>2026-08-21T10:56:07.000Z</time>
      </trkpt>
      <trkpt lat="45.25529" lon="6.02535">
        <ele>1940.5999755859</ele>
        <time>2026-08-21T10:56:08.000Z</time>
      </trkpt>
      <trkpt lat="45.25529" lon="6.02534">
        <ele>1940</ele>
        <time>2026-08-21T10:56:09.000Z</time>
      </trkpt>
      <trkpt lat="45.2553" lon="6.02533">
        <ele>1939.5999755859</ele>
        <time>2026-08-21T10:56:10.000Z</time>
      </trkpt>
      <trkpt lat="45.2553" lon="6.02533">
        <ele>1939.4000244141</ele>
        <time>2026-08-21T10:56:11.000Z</time>
      </trkpt>
      <trkpt lat="45.2553" lon="6.02532">
        <ele>1939.4000244141</ele>
        <time>2026-08-21T10:56:12.000Z</time>
      </trkpt>
      <trkpt lat="45.25532" lon="6.02531">
        <ele>1938.8000488281</ele>
        <time>2026-08-21T10:56:13.000Z</time>
      </trkpt>
      <trkpt lat="45.25533" lon="6.0253">
        <ele>1938.8000488281</ele>
        <time>2026-08-21T10:56:14.000Z</time>
      </trkpt>
      <trkpt lat="45.25533" lon="6.02529">
        <ele>1938.8000488281</ele>
        <time>2026-08-21T10:56:15.000Z</time>
      </trkpt>
      <trkpt lat="45.25534" lon="6.02529">
        <ele>1939</ele>
        <time>2026-08-21T10:56:16.000Z</time>
      </trkpt>
      <trkpt lat="45.25534" lon="6.02529">
        <ele>1939</ele>
        <time>2026-08-21T10:56:17.000Z</time>
      </trkpt>
      <trkpt lat="45.25535" lon="6.02528">
        <ele>1939.1999511719</ele>
        <time>2026-08-21T10:56:18.000Z</time>
      </trkpt>
      <trkpt lat="45.25537" lon="6.02527">
        <ele>1939.4000244141</ele>
        <time>2026-08-21T10:56:19.000Z</time>
      </trkpt>
      <trkpt lat="45.25537" lon="6.02526">
        <ele>1939.5999755859</ele>
        <time>2026-08-21T10:56:20.000Z</time>
      </trkpt>
      <trkpt lat="45.25538" lon="6.02525">
        <ele>1939.8000488281</ele>
        <time>2026-08-21T10:56:21.000Z</time>
      </trkpt>
      <trkpt lat="45.25538" lon="6.02524">
        <ele>1939.8000488281</ele>
        <time>2026-08-21T10:56:22.000Z</time>
      </trkpt>
      <trkpt lat="45.25539" lon="6.02523">
        <ele>1940</ele>
        <time>2026-08-21T10:56:23.000Z</time>
      </trkpt>
      <trkpt lat="45.25541" lon="6.02523">
        <ele>1940.1999511719</ele>
        <time>2026-08-21T10:56:24.000Z</time>
      </trkpt>
      <trkpt lat="45.25542" lon="6.02523">
        <ele>1940.5999755859</ele>
        <time>2026-08-21T10:56:25.000Z</time>
      </trkpt>
      <trkpt lat="45.25543" lon="6.02523">
        <ele>1941</ele>
        <time>2026-08-21T10:56:26.000Z</time>
      </trkpt>
      <trkpt lat="45.25544" lon="6.02522">
        <ele>1941.1999511719</ele>
        <time>2026-08-21T10:56:27.000Z</time>
      </trkpt>
      <trkpt lat="45.25544" lon="6.02521">
        <ele>1941.5999755859</ele>
        <time>2026-08-21T10:56:28.000Z</time>
      </trkpt>
      <trkpt lat="45.25545" lon="6.02521">
        <ele>1942</ele>
        <time>2026-08-21T10:56:29.000Z</time>
      </trkpt>
      <trkpt lat="45.25546" lon="6.0252">
        <ele>1942.8000488281</ele>
        <time>2026-08-21T10:56:30.000Z</time>
      </trkpt>
      <trkpt lat="45.25547" lon="6.0252">
        <ele>1943.4000244141</ele>
        <time>2026-08-21T10:56:31.000Z</time>
      </trkpt>
      <trkpt lat="45.25548" lon="6.02519">
        <ele>1943.8000488281</ele>
        <time>2026-08-21T10:56:32.000Z</time>
      </trkpt>
      <trkpt lat="45.25548" lon="6.02518">
        <ele>1944.5999755859</ele>
        <time>2026-08-21T10:56:33.000Z</time>
      </trkpt>
      <trkpt lat="45.25549" lon="6.02518">
        <ele>1945.1999511719</ele>
        <time>2026-08-21T10:56:34.000Z</time>
      </trkpt>
      <trkpt lat="45.2555" lon="6.02517">
        <ele>1945.4000244141</ele>
        <time>2026-08-21T10:56:35.000Z</time>
      </trkpt>
      <trkpt lat="45.25551" lon="6.02517">
        <ele>1946.5999755859</ele>
        <time>2026-08-21T10:56:36.000Z</time>
      </trkpt>
      <trkpt lat="45.25551" lon="6.02517">
        <ele>1947</ele>
        <time>2026-08-21T10:56:37.000Z</time>
      </trkpt>
      <trkpt lat="45.25552" lon="6.02516">
        <ele>1947.4000244141</ele>
        <time>2026-08-21T10:56:38.000Z</time>
      </trkpt>
      <trkpt lat="45.25552" lon="6.02516">
        <ele>1948</ele>
        <time>2026-08-21T10:56:39.000Z</time>
      </trkpt>
      <trkpt lat="45.25553" lon="6.02516">
        <ele>1949</ele>
        <time>2026-08-21T10:56:40.000Z</time>
      </trkpt>
      <trkpt lat="45.25553" lon="6.02516">
        <ele>1950</ele>
        <time>2026-08-21T10:56:41.000Z</time>
      </trkpt>
      <trkpt lat="45.25554" lon="6.02516">
        <ele>1950</ele>
        <time>2026-08-21T10:56:42.000Z</time>
      </trkpt>
      <trkpt lat="45.25554" lon="6.02515">
        <ele>1950.1999511719</ele>
        <time>2026-08-21T10:56:43.000Z</time>
      </trkpt>
      <trkpt lat="45.25554" lon="6.02515">
        <ele>1950.8000488281</ele>
        <time>2026-08-21T10:56:44.000Z</time>
      </trkpt>
      <trkpt lat="45.25555" lon="6.02515">
        <ele>1951.1999511719</ele>
        <time>2026-08-21T10:56:45.000Z</time>
      </trkpt>
      <trkpt lat="45.25555" lon="6.02515">
        <ele>1952.1999511719</ele>
        <time>2026-08-21T10:56:46.000Z</time>
      </trkpt>
      <trkpt lat="45.25556" lon="6.02515">
        <ele>1952.8000488281</ele>
        <time>2026-08-21T10:56:47.000Z</time>
      </trkpt>
      <trkpt lat="45.25557" lon="6.02514">
        <ele>1953.5999755859</ele>
        <time>2026-08-21T10:56:48.000Z</time>
      </trkpt>
      <trkpt lat="45.25557" lon="6.02515">
        <ele>1954.1999511719</ele>
        <time>2026-08-21T10:56:49.000Z</time>
      </trkpt>
      <trkpt lat="45.25558" lon="6.02515">
        <ele>1954.8000488281</ele>
        <time>2026-08-21T10:56:50.000Z</time>
      </trkpt>
      <trkpt lat="45.25558" lon="6.02514">
        <ele>1955</ele>
        <time>2026-08-21T10:56:51.000Z</time>
      </trkpt>
      <trkpt lat="45.25558" lon="6.02513">
        <ele>1955.1999511719</ele>
        <time>2026-08-21T10:56:52.000Z</time>
      </trkpt>
      <trkpt lat="45.25559" lon="6.02513">
        <ele>1955.1999511719</ele>
        <time>2026-08-21T10:56:53.000Z</time>
      </trkpt>
      <trkpt lat="45.2556" lon="6.02512">
        <ele>1955.5999755859</ele>
        <time>2026-08-21T10:56:54.000Z</time>
      </trkpt>
      <trkpt lat="45.2556" lon="6.02512">
        <ele>1956</ele>
        <time>2026-08-21T10:56:55.000Z</time>
      </trkpt>
      <trkpt lat="45.25561" lon="6.02511">
        <ele>1956.4000244141</ele>
        <time>2026-08-21T10:56:56.000Z</time>
      </trkpt>
      <trkpt lat="45.25561" lon="6.02511">
        <ele>1956.8000488281</ele>
        <time>2026-08-21T10:56:57.000Z</time>
      </trkpt>
      <trkpt lat="45.25562" lon="6.02511">
        <ele>1956.8000488281</ele>
        <time>2026-08-21T10:56:58.000Z</time>
      </trkpt>
      <trkpt lat="45.25562" lon="6.02511">
        <ele>1957</ele>
        <time>2026-08-21T10:56:59.000Z</time>
      </trkpt>
      <trkpt lat="45.25563" lon="6.02511">
        <ele>1957</ele>
        <time>2026-08-21T10:57:00.000Z</time>
      </trkpt>
      <trkpt lat="45.25563" lon="6.0251">
        <ele>1956.8000488281</ele>
        <time>2026-08-21T10:57:01.000Z</time>
      </trkpt>
      <trkpt lat="45.25564" lon="6.0251">
        <ele>1956.5999755859</ele>
        <time>2026-08-21T10:57:02.000Z</time>
      </trkpt>
      <trkpt lat="45.25564" lon="6.02509">
        <ele>1956.5999755859</ele>
        <time>2026-08-21T10:57:03.000Z</time>
      </trkpt>
      <trkpt lat="45.25565" lon="6.02508">
        <ele>1956.4000244141</ele>
        <time>2026-08-21T10:57:04.000Z</time>
      </trkpt>
      <trkpt lat="45.25566" lon="6.02508">
        <ele>1956.4000244141</ele>
        <time>2026-08-21T10:57:05.000Z</time>
      </trkpt>
      <trkpt lat="45.25567" lon="6.02508">
        <ele>1956.4000244141</ele>
        <time>2026-08-21T10:57:06.000Z</time>
      </trkpt>
      <trkpt lat="45.25567" lon="6.02507">
        <ele>1956.4000244141</ele>
        <time>2026-08-21T10:57:07.000Z</time>
      </trkpt>
      <trkpt lat="45.25568" lon="6.02507">
        <ele>1956.1999511719</ele>
        <time>2026-08-21T10:57:08.000Z</time>
      </trkpt>
      <trkpt lat="45.25568" lon="6.02507">
        <ele>1956</ele>
        <time>2026-08-21T10:57:09.000Z</time>
      </trkpt>
      <trkpt lat="45.25569" lon="6.02507">
        <ele>1956</ele>
        <time>2026-08-21T10:57:10.000Z</time>
      </trkpt>
      <trkpt lat="45.2557" lon="6.02508">
        <ele>1956</ele>
        <time>2026-08-21T10:57:11.000Z</time>
      </trkpt>
      <trkpt lat="45.2557" lon="6.02507">
        <ele>1956.1999511719</ele>
        <time>2026-08-21T10:57:12.000Z</time>
      </trkpt>
      <trkpt lat="45.25571" lon="6.02507">
        <ele>1956.4000244141</ele>
        <time>2026-08-21T10:57:13.000Z</time>
      </trkpt>
      <trkpt lat="45.25572" lon="6.02507">
        <ele>1956.5999755859</ele>
        <time>2026-08-21T10:57:14.000Z</time>
      </trkpt>
      <trkpt lat="45.25573" lon="6.02507">
        <ele>1957.1999511719</ele>
        <time>2026-08-21T10:57:15.000Z</time>
      </trkpt>
      <trkpt lat="45.25573" lon="6.02508">
        <ele>1957.4000244141</ele>
        <time>2026-08-21T10:57:16.000Z</time>
      </trkpt>
      <trkpt lat="45.25574" lon="6.02508">
        <ele>1957.8000488281</ele>
        <time>2026-08-21T10:57:17.000Z</time>
      </trkpt>
      <trkpt lat="45.25574" lon="6.02508">
        <ele>1958</ele>
        <time>2026-08-21T10:57:18.000Z</time>
      </trkpt>
      <trkpt lat="45.25575" lon="6.02508">
        <ele>1958.4000244141</ele>
        <time>2026-08-21T10:57:19.000Z</time>
      </trkpt>
      <trkpt lat="45.25576" lon="6.02509">
        <ele>1959</ele>
        <time>2026-08-21T10:57:20.000Z</time>
      </trkpt>
      <trkpt lat="45.25576" lon="6.02509">
        <ele>1959.1999511719</ele>
        <time>2026-08-21T10:57:21.000Z</time>
      </trkpt>
      <trkpt lat="45.25577" lon="6.02509">
        <ele>1959.4000244141</ele>
        <time>2026-08-21T10:57:22.000Z</time>
      </trkpt>
      <trkpt lat="45.25577" lon="6.02509">
        <ele>1959.5999755859</ele>
        <time>2026-08-21T10:57:23.000Z</time>
      </trkpt>
      <trkpt lat="45.25578" lon="6.02509">
        <ele>1959.8000488281</ele>
        <time>2026-08-21T10:57:24.000Z</time>
      </trkpt>
      <trkpt lat="45.25578" lon="6.02509">
        <ele>1959.8000488281</ele>
        <time>2026-08-21T10:57:25.000Z</time>
      </trkpt>
      <trkpt lat="45.25579" lon="6.02509">
        <ele>1959.8000488281</ele>
        <time>2026-08-21T10:57:26.000Z</time>
      </trkpt>
      <trkpt lat="45.2558" lon="6.0251">
        <ele>1960</ele>
        <time>2026-08-21T10:57:27.000Z</time>
      </trkpt>
      <trkpt lat="45.25581" lon="6.0251">
        <ele>1960.1999511719</ele>
        <time>2026-08-21T10:57:28.000Z</time>
      </trkpt>
      <trkpt lat="45.25581" lon="6.0251">
        <ele>1960.4000244141</ele>
        <time>2026-08-21T10:57:29.000Z</time>
      </trkpt>
      <trkpt lat="45.25582" lon="6.0251">
        <ele>1960.5999755859</ele>
        <time>2026-08-21T10:57:30.000Z</time>
      </trkpt>
      <trkpt lat="45.25582" lon="6.0251">
        <ele>1960.5999755859</ele>
        <time>2026-08-21T10:57:31.000Z</time>
      </trkpt>
      <trkpt lat="45.25582" lon="6.0251">
        <ele>1960.5999755859</ele>
        <time>2026-08-21T10:57:32.000Z</time>
      </trkpt>
      <trkpt lat="45.25582" lon="6.02511">
        <ele>1960.5999755859</ele>
        <time>2026-08-21T10:57:33.000Z</time>
      </trkpt>
      <trkpt lat="45.25583" lon="6.02511">
        <ele>1959</ele>
        <time>2026-08-21T10:57:34.000Z</time>
      </trkpt>
      <trkpt lat="45.25583" lon="6.02511">
        <ele>1958.4000244141</ele>
        <time>2026-08-21T10:57:35.000Z</time>
      </trkpt>
      <trkpt lat="45.25584" lon="6.02511">
        <ele>1957.8000488281</ele>
        <time>2026-08-21T10:57:36.000Z</time>
      </trkpt>
      <trkpt lat="45.25584" lon="6.02511">
        <ele>1957.1999511719</ele>
        <time>2026-08-21T10:57:37.000Z</time>
      </trkpt>
      <trkpt lat="45.25585" lon="6.02511">
        <ele>1955.8000488281</ele>
        <time>2026-08-21T10:57:38.000Z</time>
      </trkpt>
      <trkpt lat="45.25586" lon="6.02511">
        <ele>1955.4000244141</ele>
        <time>2026-08-21T10:57:39.000Z</time>
      </trkpt>
      <trkpt lat="45.25586" lon="6.02511">
        <ele>1955</ele>
        <time>2026-08-21T10:57:40.000Z</time>
      </trkpt>
      <trkpt lat="45.25587" lon="6.02511">
        <ele>1954.5999755859</ele>
        <time>2026-08-21T10:57:41.000Z</time>
      </trkpt>
      <trkpt lat="45.25588" lon="6.02512">
        <ele>1954.1999511719</ele>
        <time>2026-08-21T10:57:42.000Z</time>
      </trkpt>
      <trkpt lat="45.25588" lon="6.02512">
        <ele>1953.8000488281</ele>
        <time>2026-08-21T10:57:43.000Z</time>
      </trkpt>
      <trkpt lat="45.25589" lon="6.02512">
        <ele>1953.4000244141</ele>
        <time>2026-08-21T10:57:44.000Z</time>
      </trkpt>
      <trkpt lat="45.25589" lon="6.02512">
        <ele>1953.8000488281</ele>
        <time>2026-08-21T10:57:45.000Z</time>
      </trkpt>
      <trkpt lat="45.25589" lon="6.02512">
        <ele>1954</ele>
        <time>2026-08-21T10:57:46.000Z</time>
      </trkpt>
      <trkpt lat="45.25589" lon="6.02512">
        <ele>1954</ele>
        <time>2026-08-21T10:57:47.000Z</time>
      </trkpt>
      <trkpt lat="45.2559" lon="6.02512">
        <ele>1954.1999511719</ele>
        <time>2026-08-21T10:57:48.000Z</time>
      </trkpt>
      <trkpt lat="45.2559" lon="6.02513">
        <ele>1954.4000244141</ele>
        <time>2026-08-21T10:57:49.000Z</time>
      </trkpt>
      <trkpt lat="45.25591" lon="6.02513">
        <ele>1955.8000488281</ele>
        <time>2026-08-21T10:57:50.000Z</time>
      </trkpt>
      <trkpt lat="45.25592" lon="6.02512">
        <ele>1956</ele>
        <time>2026-08-21T10:57:51.000Z</time>
      </trkpt>
      <trkpt lat="45.25592" lon="6.02512">
        <ele>1956.1999511719</ele>
        <time>2026-08-21T10:57:52.000Z</time>
      </trkpt>
      <trkpt lat="45.25592" lon="6.02512">
        <ele>1957</ele>
        <time>2026-08-21T10:57:53.000Z</time>
      </trkpt>
      <trkpt lat="45.25593" lon="6.02512">
        <ele>1957.5999755859</ele>
        <time>2026-08-21T10:57:54.000Z</time>
      </trkpt>
      <trkpt lat="45.25593" lon="6.02513">
        <ele>1958.1999511719</ele>
        <time>2026-08-21T10:57:55.000Z</time>
      </trkpt>
      <trkpt lat="45.25594" lon="6.02512">
        <ele>1959</ele>
        <time>2026-08-21T10:57:56.000Z</time>
      </trkpt>
      <trkpt lat="45.25595" lon="6.02513">
        <ele>1960.5999755859</ele>
        <time>2026-08-21T10:57:57.000Z</time>
      </trkpt>
      <trkpt lat="45.25595" lon="6.02512">
        <ele>1962</ele>
        <time>2026-08-21T10:57:58.000Z</time>
      </trkpt>
      <trkpt lat="45.25596" lon="6.02513">
        <ele>1962.8000488281</ele>
        <time>2026-08-21T10:57:59.000Z</time>
      </trkpt>
      <trkpt lat="45.25597" lon="6.02513">
        <ele>1963.5999755859</ele>
        <time>2026-08-21T10:58:00.000Z</time>
      </trkpt>
      <trkpt lat="45.25597" lon="6.02512">
        <ele>1964.4000244141</ele>
        <time>2026-08-21T10:58:01.000Z</time>
      </trkpt>
      <trkpt lat="45.25597" lon="6.02512">
        <ele>1965</ele>
        <time>2026-08-21T10:58:02.000Z</time>
      </trkpt>
      <trkpt lat="45.25597" lon="6.02512">
        <ele>1965.8000488281</ele>
        <time>2026-08-21T10:58:03.000Z</time>
      </trkpt>
      <trkpt lat="45.25598" lon="6.02511">
        <ele>1966.1999511719</ele>
        <time>2026-08-21T10:58:04.000Z</time>
      </trkpt>
      <trkpt lat="45.25599" lon="6.02511">
        <ele>1967.4000244141</ele>
        <time>2026-08-21T10:58:05.000Z</time>
      </trkpt>
      <trkpt lat="45.25599" lon="6.02511">
        <ele>1967.5999755859</ele>
        <time>2026-08-21T10:58:06.000Z</time>
      </trkpt>
      <trkpt lat="45.25601" lon="6.02511">
        <ele>1968</ele>
        <time>2026-08-21T10:58:07.000Z</time>
      </trkpt>
      <trkpt lat="45.25602" lon="6.02511">
        <ele>1968.1999511719</ele>
        <time>2026-08-21T10:58:08.000Z</time>
      </trkpt>
      <trkpt lat="45.25602" lon="6.02512">
        <ele>1968.8000488281</ele>
        <time>2026-08-21T10:58:09.000Z</time>
      </trkpt>
      <trkpt lat="45.25603" lon="6.02512">
        <ele>1968.5999755859</ele>
        <time>2026-08-21T10:58:10.000Z</time>
      </trkpt>
      <trkpt lat="45.25604" lon="6.02513">
        <ele>1967.8000488281</ele>
        <time>2026-08-21T10:58:11.000Z</time>
      </trkpt>
      <trkpt lat="45.25605" lon="6.02514">
        <ele>1967.5999755859</ele>
        <time>2026-08-21T10:58:12.000Z</time>
      </trkpt>
      <trkpt lat="45.25606" lon="6.02515">
        <ele>1967.1999511719</ele>
        <time>2026-08-21T10:58:13.000Z</time>
      </trkpt>
      <trkpt lat="45.25607" lon="6.02515">
        <ele>1967.1999511719</ele>
        <time>2026-08-21T10:58:14.000Z</time>
      </trkpt>
      <trkpt lat="45.25609" lon="6.02516">
        <ele>1967</ele>
        <time>2026-08-21T10:58:15.000Z</time>
      </trkpt>
      <trkpt lat="45.25611" lon="6.02515">
        <ele>1967.1999511719</ele>
        <time>2026-08-21T10:58:16.000Z</time>
      </trkpt>
      <trkpt lat="45.25613" lon="6.02515">
        <ele>1967.8000488281</ele>
        <time>2026-08-21T10:58:17.000Z</time>
      </trkpt>
      <trkpt lat="45.25615" lon="6.02515">
        <ele>1968.1999511719</ele>
        <time>2026-08-21T10:58:18.000Z</time>
      </trkpt>
      <trkpt lat="45.25617" lon="6.02514">
        <ele>1969</ele>
        <time>2026-08-21T10:58:19.000Z</time>
      </trkpt>
      <trkpt lat="45.25619" lon="6.02513">
        <ele>1971</ele>
        <time>2026-08-21T10:58:20.000Z</time>
      </trkpt>
      <trkpt lat="45.25621" lon="6.02513">
        <ele>1972.8000488281</ele>
        <time>2026-08-21T10:58:21.000Z</time>
      </trkpt>
      <trkpt lat="45.25623" lon="6.02512">
        <ele>1974.4000244141</ele>
        <time>2026-08-21T10:58:22.000Z</time>
      </trkpt>
      <trkpt lat="45.25625" lon="6.02511">
        <ele>1976</ele>
        <time>2026-08-21T10:58:23.000Z</time>
      </trkpt>
      <trkpt lat="45.25627" lon="6.02511">
        <ele>1976.4000244141</ele>
        <time>2026-08-21T10:58:24.000Z</time>
      </trkpt>
      <trkpt lat="45.25629" lon="6.0251">
        <ele>1976.5999755859</ele>
        <time>2026-08-21T10:58:25.000Z</time>
      </trkpt>
      <trkpt lat="45.25631" lon="6.02509">
        <ele>1976.8000488281</ele>
        <time>2026-08-21T10:58:26.000Z</time>
      </trkpt>
      <trkpt lat="45.25633" lon="6.02508">
        <ele>1977</ele>
        <time>2026-08-21T10:58:27.000Z</time>
      </trkpt>
      <trkpt lat="45.25635" lon="6.02508">
        <ele>1977.4000244141</ele>
        <time>2026-08-21T10:58:28.000Z</time>
      </trkpt>
      <trkpt lat="45.25637" lon="6.02508">
        <ele>1978.1999511719</ele>
        <time>2026-08-21T10:58:29.000Z</time>
      </trkpt>
      <trkpt lat="45.25638" lon="6.02507">
        <ele>1978.4000244141</ele>
        <time>2026-08-21T10:58:30.000Z</time>
      </trkpt>
      <trkpt lat="45.2564" lon="6.02507">
        <ele>1978.5999755859</ele>
        <time>2026-08-21T10:58:31.000Z</time>
      </trkpt>
      <trkpt lat="45.25642" lon="6.02506">
        <ele>1978.8000488281</ele>
        <time>2026-08-21T10:58:32.000Z</time>
      </trkpt>
      <trkpt lat="45.25644" lon="6.02506">
        <ele>1978.8000488281</ele>
        <time>2026-08-21T10:58:33.000Z</time>
      </trkpt>
      <trkpt lat="45.25646" lon="6.02507">
        <ele>1978.8000488281</ele>
        <time>2026-08-21T10:58:34.000Z</time>
      </trkpt>
      <trkpt lat="45.25648" lon="6.02507">
        <ele>1978.5999755859</ele>
        <time>2026-08-21T10:58:35.000Z</time>
      </trkpt>
      <trkpt lat="45.2565" lon="6.02508">
        <ele>1978.5999755859</ele>
        <time>2026-08-21T10:58:36.000Z</time>
      </trkpt>
      <trkpt lat="45.25652" lon="6.02508">
        <ele>1978.4000244141</ele>
        <time>2026-08-21T10:58:37.000Z</time>
      </trkpt>
      <trkpt lat="45.25655" lon="6.02509">
        <ele>1976.4000244141</ele>
        <time>2026-08-21T10:58:38.000Z</time>
      </trkpt>
      <trkpt lat="45.25657" lon="6.02508">
        <ele>1975.1999511719</ele>
        <time>2026-08-21T10:58:39.000Z</time>
      </trkpt>
      <trkpt lat="45.25659" lon="6.02508">
        <ele>1975</ele>
        <time>2026-08-21T10:58:40.000Z</time>
      </trkpt>
      <trkpt lat="45.25661" lon="6.02507">
        <ele>1974.8000488281</ele>
        <time>2026-08-21T10:58:41.000Z</time>
      </trkpt>
      <trkpt lat="45.25662" lon="6.02507">
        <ele>1974.4000244141</ele>
        <time>2026-08-21T10:58:42.000Z</time>
      </trkpt>
      <trkpt lat="45.25664" lon="6.02506">
        <ele>1974.4000244141</ele>
        <time>2026-08-21T10:58:43.000Z</time>
      </trkpt>
      <trkpt lat="45.25665" lon="6.02505">
        <ele>1974.5999755859</ele>
        <time>2026-08-21T10:58:44.000Z</time>
      </trkpt>
      <trkpt lat="45.25667" lon="6.02504">
        <ele>1975.4000244141</ele>
        <time>2026-08-21T10:58:45.000Z</time>
      </trkpt>
      <trkpt lat="45.25669" lon="6.02503">
        <ele>1975.8000488281</ele>
        <time>2026-08-21T10:58:46.000Z</time>
      </trkpt>
      <trkpt lat="45.25671" lon="6.02501">
        <ele>1976.1999511719</ele>
        <time>2026-08-21T10:58:47.000Z</time>
      </trkpt>
      <trkpt lat="45.25672" lon="6.025">
        <ele>1977</ele>
        <time>2026-08-21T10:58:48.000Z</time>
      </trkpt>
      <trkpt lat="45.25674" lon="6.02499">
        <ele>1977</ele>
        <time>2026-08-21T10:58:49.000Z</time>
      </trkpt>
      <trkpt lat="45.25676" lon="6.02497">
        <ele>1977.1999511719</ele>
        <time>2026-08-21T10:58:50.000Z</time>
      </trkpt>
      <trkpt lat="45.25677" lon="6.02496">
        <ele>1977.4000244141</ele>
        <time>2026-08-21T10:58:51.000Z</time>
      </trkpt>
      <trkpt lat="45.25679" lon="6.02496">
        <ele>1977.5999755859</ele>
        <time>2026-08-21T10:58:52.000Z</time>
      </trkpt>
      <trkpt lat="45.2568" lon="6.02496">
        <ele>1977.5999755859</ele>
        <time>2026-08-21T10:58:53.000Z</time>
      </trkpt>
      <trkpt lat="45.25681" lon="6.02496">
        <ele>1977</ele>
        <time>2026-08-21T10:58:54.000Z</time>
      </trkpt>
      <trkpt lat="45.25682" lon="6.02496">
        <ele>1976.5999755859</ele>
        <time>2026-08-21T10:58:55.000Z</time>
      </trkpt>
      <trkpt lat="45.25683" lon="6.02496">
        <ele>1976</ele>
        <time>2026-08-21T10:58:56.000Z</time>
      </trkpt>
      <trkpt lat="45.25684" lon="6.02495">
        <ele>1975.4000244141</ele>
        <time>2026-08-21T10:58:57.000Z</time>
      </trkpt>
      <trkpt lat="45.25686" lon="6.02495">
        <ele>1975</ele>
        <time>2026-08-21T10:58:58.000Z</time>
      </trkpt>
      <trkpt lat="45.25687" lon="6.02495">
        <ele>1974.4000244141</ele>
        <time>2026-08-21T10:58:59.000Z</time>
      </trkpt>
      <trkpt lat="45.25688" lon="6.02496">
        <ele>1973.8000488281</ele>
        <time>2026-08-21T10:59:00.000Z</time>
      </trkpt>
      <trkpt lat="45.25688" lon="6.02497">
        <ele>1973.4000244141</ele>
        <time>2026-08-21T10:59:01.000Z</time>
      </trkpt>
      <trkpt lat="45.25689" lon="6.02497">
        <ele>1972.8000488281</ele>
        <time>2026-08-21T10:59:02.000Z</time>
      </trkpt>
      <trkpt lat="45.2569" lon="6.02497">
        <ele>1970.1999511719</ele>
        <time>2026-08-21T10:59:03.000Z</time>
      </trkpt>
      <trkpt lat="45.25691" lon="6.02496">
        <ele>1969.8000488281</ele>
        <time>2026-08-21T10:59:04.000Z</time>
      </trkpt>
      <trkpt lat="45.25693" lon="6.02495">
        <ele>1969.5999755859</ele>
        <time>2026-08-21T10:59:05.000Z</time>
      </trkpt>
      <trkpt lat="45.25694" lon="6.02494">
        <ele>1969.1999511719</ele>
        <time>2026-08-21T10:59:06.000Z</time>
      </trkpt>
      <trkpt lat="45.25695" lon="6.02493">
        <ele>1968.1999511719</ele>
        <time>2026-08-21T10:59:07.000Z</time>
      </trkpt>
      <trkpt lat="45.25696" lon="6.02492">
        <ele>1965</ele>
        <time>2026-08-21T10:59:08.000Z</time>
      </trkpt>
      <trkpt lat="45.25698" lon="6.02491">
        <ele>1965</ele>
        <time>2026-08-21T10:59:09.000Z</time>
      </trkpt>
      <trkpt lat="45.257" lon="6.02491">
        <ele>1965</ele>
        <time>2026-08-21T10:59:10.000Z</time>
      </trkpt>
      <trkpt lat="45.25701" lon="6.02491">
        <ele>1965</ele>
        <time>2026-08-21T10:59:11.000Z</time>
      </trkpt>
      <trkpt lat="45.25703" lon="6.02491">
        <ele>1965.1999511719</ele>
        <time>2026-08-21T10:59:12.000Z</time>
      </trkpt>
      <trkpt lat="45.25704" lon="6.0249">
        <ele>1965.8000488281</ele>
        <time>2026-08-21T10:59:13.000Z</time>
      </trkpt>
      <trkpt lat="45.25705" lon="6.02489">
        <ele>1966.1999511719</ele>
        <time>2026-08-21T10:59:14.000Z</time>
      </trkpt>
      <trkpt lat="45.25707" lon="6.02489">
        <ele>1966.5999755859</ele>
        <time>2026-08-21T10:59:15.000Z</time>
      </trkpt>
      <trkpt lat="45.25707" lon="6.02488">
        <ele>1967</ele>
        <time>2026-08-21T10:59:16.000Z</time>
      </trkpt>
      <trkpt lat="45.25708" lon="6.02488">
        <ele>1967.4000244141</ele>
        <time>2026-08-21T10:59:17.000Z</time>
      </trkpt>
      <trkpt lat="45.2571" lon="6.02488">
        <ele>1967.8000488281</ele>
        <time>2026-08-21T10:59:18.000Z</time>
      </trkpt>
      <trkpt lat="45.2571" lon="6.02487">
        <ele>1967.5999755859</ele>
        <time>2026-08-21T10:59:19.000Z</time>
      </trkpt>
      <trkpt lat="45.25711" lon="6.02486">
        <ele>1967.1999511719</ele>
        <time>2026-08-21T10:59:20.000Z</time>
      </trkpt>
      <trkpt lat="45.25712" lon="6.02486">
        <ele>1967</ele>
        <time>2026-08-21T10:59:21.000Z</time>
      </trkpt>
      <trkpt lat="45.25713" lon="6.02485">
        <ele>1967</ele>
        <time>2026-08-21T10:59:22.000Z</time>
      </trkpt>
      <trkpt lat="45.25715" lon="6.02484">
        <ele>1967</ele>
        <time>2026-08-21T10:59:23.000Z</time>
      </trkpt>
      <trkpt lat="45.25716" lon="6.02484">
        <ele>1967.1999511719</ele>
        <time>2026-08-21T10:59:24.000Z</time>
      </trkpt>
      <trkpt lat="45.25717" lon="6.02484">
        <ele>1967.4000244141</ele>
        <time>2026-08-21T10:59:25.000Z</time>
      </trkpt>
      <trkpt lat="45.25718" lon="6.02483">
        <ele>1967.5999755859</ele>
        <time>2026-08-21T10:59:26.000Z</time>
      </trkpt>
      <trkpt lat="45.25719" lon="6.02483">
        <ele>1968.1999511719</ele>
        <time>2026-08-21T10:59:27.000Z</time>
      </trkpt>
      <trkpt lat="45.2572" lon="6.02483">
        <ele>1968.8000488281</ele>
        <time>2026-08-21T10:59:28.000Z</time>
      </trkpt>
      <trkpt lat="45.25721" lon="6.02483">
        <ele>1969</ele>
        <time>2026-08-21T10:59:29.000Z</time>
      </trkpt>
      <trkpt lat="45.25722" lon="6.02483">
        <ele>1969.1999511719</ele>
        <time>2026-08-21T10:59:30.000Z</time>
      </trkpt>
      <trkpt lat="45.25723" lon="6.02483">
        <ele>1969.5999755859</ele>
        <time>2026-08-21T10:59:31.000Z</time>
      </trkpt>
      <trkpt lat="45.25724" lon="6.02484">
        <ele>1969.8000488281</ele>
        <time>2026-08-21T10:59:32.000Z</time>
      </trkpt>
      <trkpt lat="45.25725" lon="6.02484">
        <ele>1970.1999511719</ele>
        <time>2026-08-21T10:59:33.000Z</time>
      </trkpt>
      <trkpt lat="45.25726" lon="6.02486">
        <ele>1970.5999755859</ele>
        <time>2026-08-21T10:59:34.000Z</time>
      </trkpt>
      <trkpt lat="45.25728" lon="6.02486">
        <ele>1971</ele>
        <time>2026-08-21T10:59:35.000Z</time>
      </trkpt>
      <trkpt lat="45.25728" lon="6.02487">
        <ele>1971.5999755859</ele>
        <time>2026-08-21T10:59:36.000Z</time>
      </trkpt>
      <trkpt lat="45.25729" lon="6.02487">
        <ele>1971.8000488281</ele>
        <time>2026-08-21T10:59:37.000Z</time>
      </trkpt>
      <trkpt lat="45.2573" lon="6.02488">
        <ele>1972</ele>
        <time>2026-08-21T10:59:38.000Z</time>
      </trkpt>
      <trkpt lat="45.25731" lon="6.02489">
        <ele>1972</ele>
        <time>2026-08-21T10:59:39.000Z</time>
      </trkpt>
      <trkpt lat="45.25732" lon="6.0249">
        <ele>1972.1999511719</ele>
        <time>2026-08-21T10:59:40.000Z</time>
      </trkpt>
      <trkpt lat="45.25733" lon="6.02491">
        <ele>1972.4000244141</ele>
        <time>2026-08-21T10:59:41.000Z</time>
      </trkpt>
      <trkpt lat="45.25734" lon="6.02491">
        <ele>1972.8000488281</ele>
        <time>2026-08-21T10:59:42.000Z</time>
      </trkpt>
      <trkpt lat="45.25735" lon="6.02491">
        <ele>1973</ele>
        <time>2026-08-21T10:59:43.000Z</time>
      </trkpt>
      <trkpt lat="45.25737" lon="6.02492">
        <ele>1973.1999511719</ele>
        <time>2026-08-21T10:59:44.000Z</time>
      </trkpt>
      <trkpt lat="45.25737" lon="6.02493">
        <ele>1973.4000244141</ele>
        <time>2026-08-21T10:59:45.000Z</time>
      </trkpt>
      <trkpt lat="45.25737" lon="6.02494">
        <ele>1973.8000488281</ele>
        <time>2026-08-21T10:59:46.000Z</time>
      </trkpt>
      <trkpt lat="45.25737" lon="6.02493">
        <ele>1974</ele>
        <time>2026-08-21T10:59:47.000Z</time>
      </trkpt>
      <trkpt lat="45.25738" lon="6.02494">
        <ele>1973.8000488281</ele>
        <time>2026-08-21T10:59:48.000Z</time>
      </trkpt>
      <trkpt lat="45.25739" lon="6.02494">
        <ele>1973.8000488281</ele>
        <time>2026-08-21T10:59:49.000Z</time>
      </trkpt>
      <trkpt lat="45.2574" lon="6.02493">
        <ele>1973.8000488281</ele>
        <time>2026-08-21T10:59:50.000Z</time>
      </trkpt>
      <trkpt lat="45.25741" lon="6.02494">
        <ele>1974</ele>
        <time>2026-08-21T10:59:51.000Z</time>
      </trkpt>
      <trkpt lat="45.25742" lon="6.02494">
        <ele>1974.1999511719</ele>
        <time>2026-08-21T10:59:52.000Z</time>
      </trkpt>
      <trkpt lat="45.25743" lon="6.02495">
        <ele>1974.5999755859</ele>
        <time>2026-08-21T10:59:53.000Z</time>
      </trkpt>
      <trkpt lat="45.25744" lon="6.02496">
        <ele>1975.1999511719</ele>
        <time>2026-08-21T10:59:54.000Z</time>
      </trkpt>
      <trkpt lat="45.25745" lon="6.02495">
        <ele>1975.4000244141</ele>
        <time>2026-08-21T10:59:55.000Z</time>
      </trkpt>
      <trkpt lat="45.25746" lon="6.02495">
        <ele>1975.8000488281</ele>
        <time>2026-08-21T10:59:56.000Z</time>
      </trkpt>
      <trkpt lat="45.25746" lon="6.02496">
        <ele>1976</ele>
        <time>2026-08-21T10:59:57.000Z</time>
      </trkpt>
      <trkpt lat="45.25746" lon="6.02496">
        <ele>1976.1999511719</ele>
        <time>2026-08-21T10:59:58.000Z</time>
      </trkpt>
      <trkpt lat="45.25747" lon="6.02497">
        <ele>1977</ele>
        <time>2026-08-21T10:59:59.000Z</time>
      </trkpt>
      <trkpt lat="45.25747" lon="6.02497">
        <ele>1977.8000488281</ele>
        <time>2026-08-21T11:00:00.000Z</time>
      </trkpt>
      <trkpt lat="45.25748" lon="6.02497">
        <ele>1978.8000488281</ele>
        <time>2026-08-21T11:00:01.000Z</time>
      </trkpt>
      <trkpt lat="45.25748" lon="6.02497">
        <ele>1979.5999755859</ele>
        <time>2026-08-21T11:00:02.000Z</time>
      </trkpt>
      <trkpt lat="45.25749" lon="6.02498">
        <ele>1980.4000244141</ele>
        <time>2026-08-21T11:00:03.000Z</time>
      </trkpt>
      <trkpt lat="45.2575" lon="6.02498">
        <ele>1980.5999755859</ele>
        <time>2026-08-21T11:00:04.000Z</time>
      </trkpt>
      <trkpt lat="45.25751" lon="6.02498">
        <ele>1982.4000244141</ele>
        <time>2026-08-21T11:00:05.000Z</time>
      </trkpt>
      <trkpt lat="45.25752" lon="6.02499">
        <ele>1982.5999755859</ele>
        <time>2026-08-21T11:00:06.000Z</time>
      </trkpt>
      <trkpt lat="45.25753" lon="6.025">
        <ele>1983.5999755859</ele>
        <time>2026-08-21T11:00:07.000Z</time>
      </trkpt>
      <trkpt lat="45.25753" lon="6.025">
        <ele>1984.5999755859</ele>
        <time>2026-08-21T11:00:08.000Z</time>
      </trkpt>
      <trkpt lat="45.25753" lon="6.02501">
        <ele>1985.4000244141</ele>
        <time>2026-08-21T11:00:09.000Z</time>
      </trkpt>
      <trkpt lat="45.25754" lon="6.02502">
        <ele>1986.4000244141</ele>
        <time>2026-08-21T11:00:10.000Z</time>
      </trkpt>
      <trkpt lat="45.25754" lon="6.02503">
        <ele>1986.8000488281</ele>
        <time>2026-08-21T11:00:11.000Z</time>
      </trkpt>
      <trkpt lat="45.25754" lon="6.02504">
        <ele>1987.1999511719</ele>
        <time>2026-08-21T11:00:12.000Z</time>
      </trkpt>
      <trkpt lat="45.25754" lon="6.02504">
        <ele>1987.5999755859</ele>
        <time>2026-08-21T11:00:13.000Z</time>
      </trkpt>
      <trkpt lat="45.25755" lon="6.02505">
        <ele>1988.4000244141</ele>
        <time>2026-08-21T11:00:14.000Z</time>
      </trkpt>
      <trkpt lat="45.25755" lon="6.02506">
        <ele>1988.8000488281</ele>
        <time>2026-08-21T11:00:15.000Z</time>
      </trkpt>
      <trkpt lat="45.25756" lon="6.02506">
        <ele>1988.8000488281</ele>
        <time>2026-08-21T11:00:16.000Z</time>
      </trkpt>
      <trkpt lat="45.25757" lon="6.02506">
        <ele>1989.1999511719</ele>
        <time>2026-08-21T11:00:17.000Z</time>
      </trkpt>
      <trkpt lat="45.25758" lon="6.02507">
        <ele>1989.1999511719</ele>
        <time>2026-08-21T11:00:18.000Z</time>
      </trkpt>
      <trkpt lat="45.25759" lon="6.02508">
        <ele>1989.1999511719</ele>
        <time>2026-08-21T11:00:19.000Z</time>
      </trkpt>
      <trkpt lat="45.2576" lon="6.02508">
        <ele>1989.1999511719</ele>
        <time>2026-08-21T11:00:20.000Z</time>
      </trkpt>
      <trkpt lat="45.2576" lon="6.02509">
        <ele>1989.1999511719</ele>
        <time>2026-08-21T11:00:21.000Z</time>
      </trkpt>
      <trkpt lat="45.25761" lon="6.0251">
        <ele>1989.1999511719</ele>
        <time>2026-08-21T11:00:22.000Z</time>
      </trkpt>
      <trkpt lat="45.25762" lon="6.0251">
        <ele>1989.1999511719</ele>
        <time>2026-08-21T11:00:23.000Z</time>
      </trkpt>
      <trkpt lat="45.25762" lon="6.02511">
        <ele>1989</ele>
        <time>2026-08-21T11:00:24.000Z</time>
      </trkpt>
      <trkpt lat="45.25763" lon="6.02512">
        <ele>1989</ele>
        <time>2026-08-21T11:00:25.000Z</time>
      </trkpt>
      <trkpt lat="45.25764" lon="6.02512">
        <ele>1989</ele>
        <time>2026-08-21T11:00:26.000Z</time>
      </trkpt>
      <trkpt lat="45.25764" lon="6.02513">
        <ele>1989</ele>
        <time>2026-08-21T11:00:27.000Z</time>
      </trkpt>
      <trkpt lat="45.25765" lon="6.02513">
        <ele>1988.8000488281</ele>
        <time>2026-08-21T11:00:28.000Z</time>
      </trkpt>
      <trkpt lat="45.25765" lon="6.02514">
        <ele>1989.1999511719</ele>
        <time>2026-08-21T11:00:29.000Z</time>
      </trkpt>
      <trkpt lat="45.25766" lon="6.02514">
        <ele>1989.5999755859</ele>
        <time>2026-08-21T11:00:30.000Z</time>
      </trkpt>
      <trkpt lat="45.25766" lon="6.02514">
        <ele>1989.5999755859</ele>
        <time>2026-08-21T11:00:31.000Z</time>
      </trkpt>
      <trkpt lat="45.25766" lon="6.02514">
        <ele>1989.4000244141</ele>
        <time>2026-08-21T11:00:32.000Z</time>
      </trkpt>
      <trkpt lat="45.25766" lon="6.02514">
        <ele>1989.1999511719</ele>
        <time>2026-08-21T11:00:33.000Z</time>
      </trkpt>
      <trkpt lat="45.25767" lon="6.02515">
        <ele>1989</ele>
        <time>2026-08-21T11:00:34.000Z</time>
      </trkpt>
      <trkpt lat="45.25768" lon="6.02516">
        <ele>1989</ele>
        <time>2026-08-21T11:00:35.000Z</time>
      </trkpt>
      <trkpt lat="45.25769" lon="6.02516">
        <ele>1988.8000488281</ele>
        <time>2026-08-21T11:00:36.000Z</time>
      </trkpt>
      <trkpt lat="45.25769" lon="6.02516">
        <ele>1988.5999755859</ele>
        <time>2026-08-21T11:00:37.000Z</time>
      </trkpt>
      <trkpt lat="45.2577" lon="6.02516">
        <ele>1989</ele>
        <time>2026-08-21T11:00:38.000Z</time>
      </trkpt>
      <trkpt lat="45.25771" lon="6.02515">
        <ele>1989.8000488281</ele>
        <time>2026-08-21T11:00:39.000Z</time>
      </trkpt>
      <trkpt lat="45.25772" lon="6.02516">
        <ele>1990.4000244141</ele>
        <time>2026-08-21T11:00:40.000Z</time>
      </trkpt>
      <trkpt lat="45.25772" lon="6.02515">
        <ele>1990.8000488281</ele>
        <time>2026-08-21T11:00:41.000Z</time>
      </trkpt>
      <trkpt lat="45.25773" lon="6.02515">
        <ele>1991.5999755859</ele>
        <time>2026-08-21T11:00:42.000Z</time>
      </trkpt>
      <trkpt lat="45.25774" lon="6.02514">
        <ele>1992.8000488281</ele>
        <time>2026-08-21T11:00:43.000Z</time>
      </trkpt>
      <trkpt lat="45.25774" lon="6.02515">
        <ele>1993</ele>
        <time>2026-08-21T11:00:44.000Z</time>
      </trkpt>
      <trkpt lat="45.25775" lon="6.02515">
        <ele>1993</ele>
        <time>2026-08-21T11:00:45.000Z</time>
      </trkpt>
      <trkpt lat="45.25776" lon="6.02515">
        <ele>1994.5999755859</ele>
        <time>2026-08-21T11:00:46.000Z</time>
      </trkpt>
      <trkpt lat="45.25777" lon="6.02515">
        <ele>1994.5999755859</ele>
        <time>2026-08-21T11:00:47.000Z</time>
      </trkpt>
      <trkpt lat="45.25778" lon="6.02516">
        <ele>1995</ele>
        <time>2026-08-21T11:00:48.000Z</time>
      </trkpt>
      <trkpt lat="45.25778" lon="6.02517">
        <ele>1995.4000244141</ele>
        <time>2026-08-21T11:00:49.000Z</time>
      </trkpt>
      <trkpt lat="45.25779" lon="6.02518">
        <ele>1995.8000488281</ele>
        <time>2026-08-21T11:00:50.000Z</time>
      </trkpt>
      <trkpt lat="45.25779" lon="6.02519">
        <ele>1996.1999511719</ele>
        <time>2026-08-21T11:00:51.000Z</time>
      </trkpt>
      <trkpt lat="45.2578" lon="6.02519">
        <ele>1997</ele>
        <time>2026-08-21T11:00:52.000Z</time>
      </trkpt>
      <trkpt lat="45.2578" lon="6.02519">
        <ele>1997</ele>
        <time>2026-08-21T11:00:53.000Z</time>
      </trkpt>
      <trkpt lat="45.25781" lon="6.0252">
        <ele>1997</ele>
        <time>2026-08-21T11:00:54.000Z</time>
      </trkpt>
      <trkpt lat="45.25782" lon="6.0252">
        <ele>1997.1999511719</ele>
        <time>2026-08-21T11:00:55.000Z</time>
      </trkpt>
      <trkpt lat="45.25782" lon="6.02521">
        <ele>1997.1999511719</ele>
        <time>2026-08-21T11:00:56.000Z</time>
      </trkpt>
      <trkpt lat="45.25783" lon="6.02522">
        <ele>1997.1999511719</ele>
        <time>2026-08-21T11:00:57.000Z</time>
      </trkpt>
      <trkpt lat="45.25783" lon="6.02522">
        <ele>1997.1999511719</ele>
        <time>2026-08-21T11:00:58.000Z</time>
      </trkpt>
      <trkpt lat="45.25784" lon="6.02523">
        <ele>1997.4000244141</ele>
        <time>2026-08-21T11:00:59.000Z</time>
      </trkpt>
      <trkpt lat="45.25784" lon="6.02524">
        <ele>1997.4000244141</ele>
        <time>2026-08-21T11:01:00.000Z</time>
      </trkpt>
      <trkpt lat="45.25785" lon="6.02525">
        <ele>1997.4000244141</ele>
        <time>2026-08-21T11:01:01.000Z</time>
      </trkpt>
      <trkpt lat="45.25785" lon="6.02526">
        <ele>1997.4000244141</ele>
        <time>2026-08-21T11:01:02.000Z</time>
      </trkpt>
      <trkpt lat="45.25786" lon="6.02527">
        <ele>1997.5999755859</ele>
        <time>2026-08-21T11:01:03.000Z</time>
      </trkpt>
      <trkpt lat="45.25786" lon="6.02529">
        <ele>1997.5999755859</ele>
        <time>2026-08-21T11:01:04.000Z</time>
      </trkpt>
      <trkpt lat="45.25787" lon="6.02531">
        <ele>1997.5999755859</ele>
        <time>2026-08-21T11:01:05.000Z</time>
      </trkpt>
      <trkpt lat="45.25788" lon="6.02534">
        <ele>1997.8000488281</ele>
        <time>2026-08-21T11:01:06.000Z</time>
      </trkpt>
      <trkpt lat="45.25788" lon="6.02536">
        <ele>1998</ele>
        <time>2026-08-21T11:01:07.000Z</time>
      </trkpt>
      <trkpt lat="45.25789" lon="6.02538">
        <ele>1998</ele>
        <time>2026-08-21T11:01:08.000Z</time>
      </trkpt>
      <trkpt lat="45.25789" lon="6.02542">
        <ele>1998.1999511719</ele>
        <time>2026-08-21T11:01:09.000Z</time>
      </trkpt>
      <trkpt lat="45.25788" lon="6.02544">
        <ele>1999.4000244141</ele>
        <time>2026-08-21T11:01:10.000Z</time>
      </trkpt>
      <trkpt lat="45.25788" lon="6.02547">
        <ele>2000.1999511719</ele>
        <time>2026-08-21T11:01:11.000Z</time>
      </trkpt>
      <trkpt lat="45.25788" lon="6.02548">
        <ele>2001.4000244141</ele>
        <time>2026-08-21T11:01:12.000Z</time>
      </trkpt>
      <trkpt lat="45.25788" lon="6.0255">
        <ele>2002</ele>
        <time>2026-08-21T11:01:13.000Z</time>
      </trkpt>
      <trkpt lat="45.25788" lon="6.02551">
        <ele>2002.5999755859</ele>
        <time>2026-08-21T11:01:14.000Z</time>
      </trkpt>
      <trkpt lat="45.25788" lon="6.02552">
        <ele>2003</ele>
        <time>2026-08-21T11:01:15.000Z</time>
      </trkpt>
      <trkpt lat="45.25787" lon="6.02553">
        <ele>2003.8000488281</ele>
        <time>2026-08-21T11:01:16.000Z</time>
      </trkpt>
      <trkpt lat="45.25788" lon="6.02555">
        <ele>2003.5999755859</ele>
        <time>2026-08-21T11:01:17.000Z</time>
      </trkpt>
      <trkpt lat="45.25787" lon="6.02556">
        <ele>2003.4000244141</ele>
        <time>2026-08-21T11:01:18.000Z</time>
      </trkpt>
      <trkpt lat="45.25788" lon="6.02557">
        <ele>2003.4000244141</ele>
        <time>2026-08-21T11:01:19.000Z</time>
      </trkpt>
      <trkpt lat="45.25788" lon="6.02558">
        <ele>2003</ele>
        <time>2026-08-21T11:01:20.000Z</time>
      </trkpt>
      <trkpt lat="45.25789" lon="6.02559">
        <ele>2002.8000488281</ele>
        <time>2026-08-21T11:01:21.000Z</time>
      </trkpt>
      <trkpt lat="45.25789" lon="6.02561">
        <ele>2002.5999755859</ele>
        <time>2026-08-21T11:01:22.000Z</time>
      </trkpt>
      <trkpt lat="45.2579" lon="6.02562">
        <ele>2002.4000244141</ele>
        <time>2026-08-21T11:01:23.000Z</time>
      </trkpt>
      <trkpt lat="45.2579" lon="6.02563">
        <ele>2002.1999511719</ele>
        <time>2026-08-21T11:01:24.000Z</time>
      </trkpt>
      <trkpt lat="45.25791" lon="6.02564">
        <ele>2002</ele>
        <time>2026-08-21T11:01:25.000Z</time>
      </trkpt>
      <trkpt lat="45.25792" lon="6.02565">
        <ele>2001.4000244141</ele>
        <time>2026-08-21T11:01:26.000Z</time>
      </trkpt>
      <trkpt lat="45.25792" lon="6.02567">
        <ele>2001.1999511719</ele>
        <time>2026-08-21T11:01:27.000Z</time>
      </trkpt>
      <trkpt lat="45.25793" lon="6.02568">
        <ele>2001.1999511719</ele>
        <time>2026-08-21T11:01:28.000Z</time>
      </trkpt>
      <trkpt lat="45.25793" lon="6.02568">
        <ele>2001</ele>
        <time>2026-08-21T11:01:29.000Z</time>
      </trkpt>
      <trkpt lat="45.25794" lon="6.02569">
        <ele>2000.8000488281</ele>
        <time>2026-08-21T11:01:30.000Z</time>
      </trkpt>
      <trkpt lat="45.25794" lon="6.0257">
        <ele>2001.1999511719</ele>
        <time>2026-08-21T11:01:31.000Z</time>
      </trkpt>
      <trkpt lat="45.25794" lon="6.02571">
        <ele>2001.4000244141</ele>
        <time>2026-08-21T11:01:32.000Z</time>
      </trkpt>
      <trkpt lat="45.25795" lon="6.02572">
        <ele>2001.5999755859</ele>
        <time>2026-08-21T11:01:33.000Z</time>
      </trkpt>
      <trkpt lat="45.25795" lon="6.02573">
        <ele>2001.8000488281</ele>
        <time>2026-08-21T11:01:34.000Z</time>
      </trkpt>
      <trkpt lat="45.25795" lon="6.02573">
        <ele>2002</ele>
        <time>2026-08-21T11:01:35.000Z</time>
      </trkpt>
      <trkpt lat="45.25795" lon="6.02574">
        <ele>2002.1999511719</ele>
        <time>2026-08-21T11:01:36.000Z</time>
      </trkpt>
      <trkpt lat="45.25796" lon="6.02575">
        <ele>2002.4000244141</ele>
        <time>2026-08-21T11:01:37.000Z</time>
      </trkpt>
      <trkpt lat="45.25796" lon="6.02575">
        <ele>2002.5999755859</ele>
        <time>2026-08-21T11:01:38.000Z</time>
      </trkpt>
      <trkpt lat="45.25796" lon="6.02576">
        <ele>2002.8000488281</ele>
        <time>2026-08-21T11:01:39.000Z</time>
      </trkpt>
      <trkpt lat="45.25796" lon="6.02577">
        <ele>2004</ele>
        <time>2026-08-21T11:01:40.000Z</time>
      </trkpt>
      <trkpt lat="45.25797" lon="6.02578">
        <ele>2004.1999511719</ele>
        <time>2026-08-21T11:01:41.000Z</time>
      </trkpt>
      <trkpt lat="45.25797" lon="6.02579">
        <ele>2004.5999755859</ele>
        <time>2026-08-21T11:01:42.000Z</time>
      </trkpt>
      <trkpt lat="45.25798" lon="6.0258">
        <ele>2004.8000488281</ele>
        <time>2026-08-21T11:01:43.000Z</time>
      </trkpt>
      <trkpt lat="45.25798" lon="6.02581">
        <ele>2005.1999511719</ele>
        <time>2026-08-21T11:01:44.000Z</time>
      </trkpt>
      <trkpt lat="45.25798" lon="6.02582">
        <ele>2006</ele>
        <time>2026-08-21T11:01:45.000Z</time>
      </trkpt>
      <trkpt lat="45.25798" lon="6.02583">
        <ele>2006.5999755859</ele>
        <time>2026-08-21T11:01:46.000Z</time>
      </trkpt>
      <trkpt lat="45.25799" lon="6.02584">
        <ele>2007</ele>
        <time>2026-08-21T11:01:47.000Z</time>
      </trkpt>
      <trkpt lat="45.25799" lon="6.02584">
        <ele>2007.1999511719</ele>
        <time>2026-08-21T11:01:48.000Z</time>
      </trkpt>
      <trkpt lat="45.258" lon="6.02585">
        <ele>2007.4000244141</ele>
        <time>2026-08-21T11:01:49.000Z</time>
      </trkpt>
      <trkpt lat="45.258" lon="6.02585">
        <ele>2007.8000488281</ele>
        <time>2026-08-21T11:01:50.000Z</time>
      </trkpt>
      <trkpt lat="45.258" lon="6.02587">
        <ele>2008</ele>
        <time>2026-08-21T11:01:51.000Z</time>
      </trkpt>
      <trkpt lat="45.25801" lon="6.02588">
        <ele>2008.1999511719</ele>
        <time>2026-08-21T11:01:52.000Z</time>
      </trkpt>
      <trkpt lat="45.25801" lon="6.02589">
        <ele>2008.1999511719</ele>
        <time>2026-08-21T11:01:53.000Z</time>
      </trkpt>
      <trkpt lat="45.25801" lon="6.0259">
        <ele>2008.5999755859</ele>
        <time>2026-08-21T11:01:54.000Z</time>
      </trkpt>
      <trkpt lat="45.25801" lon="6.0259">
        <ele>2008.8000488281</ele>
        <time>2026-08-21T11:01:55.000Z</time>
      </trkpt>
      <trkpt lat="45.25802" lon="6.02591">
        <ele>2009.1999511719</ele>
        <time>2026-08-21T11:01:56.000Z</time>
      </trkpt>
      <trkpt lat="45.25802" lon="6.02592">
        <ele>2009.5999755859</ele>
        <time>2026-08-21T11:01:57.000Z</time>
      </trkpt>
      <trkpt lat="45.25802" lon="6.02592">
        <ele>2010.1999511719</ele>
        <time>2026-08-21T11:01:58.000Z</time>
      </trkpt>
      <trkpt lat="45.25802" lon="6.02593">
        <ele>2010.5999755859</ele>
        <time>2026-08-21T11:01:59.000Z</time>
      </trkpt>
      <trkpt lat="45.25803" lon="6.02594">
        <ele>2011.1999511719</ele>
        <time>2026-08-21T11:02:00.000Z</time>
      </trkpt>
      <trkpt lat="45.25803" lon="6.02595">
        <ele>2011.1999511719</ele>
        <time>2026-08-21T11:02:01.000Z</time>
      </trkpt>
      <trkpt lat="45.25803" lon="6.02596">
        <ele>2011.8000488281</ele>
        <time>2026-08-21T11:02:02.000Z</time>
      </trkpt>
      <trkpt lat="45.25803" lon="6.02597">
        <ele>2012</ele>
        <time>2026-08-21T11:02:03.000Z</time>
      </trkpt>
      <trkpt lat="45.25803" lon="6.02598">
        <ele>2012</ele>
        <time>2026-08-21T11:02:04.000Z</time>
      </trkpt>
      <trkpt lat="45.25803" lon="6.02598">
        <ele>2012.8000488281</ele>
        <time>2026-08-21T11:02:05.000Z</time>
      </trkpt>
      <trkpt lat="45.25804" lon="6.02598">
        <ele>2013.5999755859</ele>
        <time>2026-08-21T11:02:06.000Z</time>
      </trkpt>
      <trkpt lat="45.25805" lon="6.02599">
        <ele>2014.4000244141</ele>
        <time>2026-08-21T11:02:07.000Z</time>
      </trkpt>
      <trkpt lat="45.25805" lon="6.02599">
        <ele>2014.4000244141</ele>
        <time>2026-08-21T11:02:08.000Z</time>
      </trkpt>
      <trkpt lat="45.25806" lon="6.02599">
        <ele>2014.4000244141</ele>
        <time>2026-08-21T11:02:09.000Z</time>
      </trkpt>
      <trkpt lat="45.25807" lon="6.026">
        <ele>2015</ele>
        <time>2026-08-21T11:02:10.000Z</time>
      </trkpt>
      <trkpt lat="45.25807" lon="6.026">
        <ele>2015.4000244141</ele>
        <time>2026-08-21T11:02:11.000Z</time>
      </trkpt>
      <trkpt lat="45.25807" lon="6.026">
        <ele>2016</ele>
        <time>2026-08-21T11:02:12.000Z</time>
      </trkpt>
      <trkpt lat="45.25808" lon="6.02601">
        <ele>2016.4000244141</ele>
        <time>2026-08-21T11:02:13.000Z</time>
      </trkpt>
      <trkpt lat="45.25808" lon="6.02602">
        <ele>2016.8000488281</ele>
        <time>2026-08-21T11:02:14.000Z</time>
      </trkpt>
      <trkpt lat="45.25808" lon="6.02602">
        <ele>2017</ele>
        <time>2026-08-21T11:02:15.000Z</time>
      </trkpt>
      <trkpt lat="45.25809" lon="6.02603">
        <ele>2017.8000488281</ele>
        <time>2026-08-21T11:02:16.000Z</time>
      </trkpt>
      <trkpt lat="45.25809" lon="6.02604">
        <ele>2018</ele>
        <time>2026-08-21T11:02:17.000Z</time>
      </trkpt>
      <trkpt lat="45.25809" lon="6.02605">
        <ele>2018.4000244141</ele>
        <time>2026-08-21T11:02:18.000Z</time>
      </trkpt>
      <trkpt lat="45.2581" lon="6.02605">
        <ele>2018.5999755859</ele>
        <time>2026-08-21T11:02:19.000Z</time>
      </trkpt>
      <trkpt lat="45.2581" lon="6.02606">
        <ele>2019</ele>
        <time>2026-08-21T11:02:20.000Z</time>
      </trkpt>
      <trkpt lat="45.2581" lon="6.02607">
        <ele>2019.4000244141</ele>
        <time>2026-08-21T11:02:21.000Z</time>
      </trkpt>
      <trkpt lat="45.2581" lon="6.02608">
        <ele>2020</ele>
        <time>2026-08-21T11:02:22.000Z</time>
      </trkpt>
      <trkpt lat="45.25809" lon="6.02609">
        <ele>2020.4000244141</ele>
        <time>2026-08-21T11:02:23.000Z</time>
      </trkpt>
      <trkpt lat="45.25809" lon="6.02609">
        <ele>2020.5999755859</ele>
        <time>2026-08-21T11:02:24.000Z</time>
      </trkpt>
      <trkpt lat="45.25808" lon="6.0261">
        <ele>2021</ele>
        <time>2026-08-21T11:02:25.000Z</time>
      </trkpt>
      <trkpt lat="45.25808" lon="6.0261">
        <ele>2021.1999511719</ele>
        <time>2026-08-21T11:02:26.000Z</time>
      </trkpt>
      <trkpt lat="45.25807" lon="6.02611">
        <ele>2021.4000244141</ele>
        <time>2026-08-21T11:02:27.000Z</time>
      </trkpt>
      <trkpt lat="45.25807" lon="6.02611">
        <ele>2021.8000488281</ele>
        <time>2026-08-21T11:02:28.000Z</time>
      </trkpt>
      <trkpt lat="45.25807" lon="6.02611">
        <ele>2022</ele>
        <time>2026-08-21T11:02:29.000Z</time>
      </trkpt>
      <trkpt lat="45.25806" lon="6.02612">
        <ele>2022.1999511719</ele>
        <time>2026-08-21T11:02:30.000Z</time>
      </trkpt>
      <trkpt lat="45.25806" lon="6.02613">
        <ele>2022.5999755859</ele>
        <time>2026-08-21T11:02:31.000Z</time>
      </trkpt>
      <trkpt lat="45.25806" lon="6.02614">
        <ele>2022.8000488281</ele>
        <time>2026-08-21T11:02:32.000Z</time>
      </trkpt>
      <trkpt lat="45.25806" lon="6.02614">
        <ele>2022.8000488281</ele>
        <time>2026-08-21T11:02:33.000Z</time>
      </trkpt>
      <trkpt lat="45.25806" lon="6.02615">
        <ele>2022.8000488281</ele>
        <time>2026-08-21T11:02:34.000Z</time>
      </trkpt>
      <trkpt lat="45.25806" lon="6.02616">
        <ele>2023</ele>
        <time>2026-08-21T11:02:35.000Z</time>
      </trkpt>
      <trkpt lat="45.25807" lon="6.02616">
        <ele>2023</ele>
        <time>2026-08-21T11:02:36.000Z</time>
      </trkpt>
      <trkpt lat="45.25808" lon="6.02617">
        <ele>2023</ele>
        <time>2026-08-21T11:02:37.000Z</time>
      </trkpt>
      <trkpt lat="45.25808" lon="6.02617">
        <ele>2023.4000244141</ele>
        <time>2026-08-21T11:02:38.000Z</time>
      </trkpt>
      <trkpt lat="45.25809" lon="6.02618">
        <ele>2023.5999755859</ele>
        <time>2026-08-21T11:02:39.000Z</time>
      </trkpt>
      <trkpt lat="45.25809" lon="6.02619">
        <ele>2023.8000488281</ele>
        <time>2026-08-21T11:02:40.000Z</time>
      </trkpt>
      <trkpt lat="45.25809" lon="6.02619">
        <ele>2024</ele>
        <time>2026-08-21T11:02:41.000Z</time>
      </trkpt>
      <trkpt lat="45.2581" lon="6.0262">
        <ele>2024.5999755859</ele>
        <time>2026-08-21T11:02:42.000Z</time>
      </trkpt>
      <trkpt lat="45.2581" lon="6.02621">
        <ele>2025</ele>
        <time>2026-08-21T11:02:43.000Z</time>
      </trkpt>
      <trkpt lat="45.2581" lon="6.02622">
        <ele>2025.1999511719</ele>
        <time>2026-08-21T11:02:44.000Z</time>
      </trkpt>
      <trkpt lat="45.2581" lon="6.02623">
        <ele>2025.4000244141</ele>
        <time>2026-08-21T11:02:45.000Z</time>
      </trkpt>
      <trkpt lat="45.2581" lon="6.02623">
        <ele>2025.8000488281</ele>
        <time>2026-08-21T11:02:46.000Z</time>
      </trkpt>
      <trkpt lat="45.2581" lon="6.02624">
        <ele>2026</ele>
        <time>2026-08-21T11:02:47.000Z</time>
      </trkpt>
      <trkpt lat="45.2581" lon="6.02626">
        <ele>2026.4000244141</ele>
        <time>2026-08-21T11:02:48.000Z</time>
      </trkpt>
      <trkpt lat="45.2581" lon="6.02627">
        <ele>2026.5999755859</ele>
        <time>2026-08-21T11:02:49.000Z</time>
      </trkpt>
      <trkpt lat="45.2581" lon="6.02627">
        <ele>2026.5999755859</ele>
        <time>2026-08-21T11:02:50.000Z</time>
      </trkpt>
      <trkpt lat="45.2581" lon="6.02628">
        <ele>2027</ele>
        <time>2026-08-21T11:02:51.000Z</time>
      </trkpt>
      <trkpt lat="45.2581" lon="6.02629">
        <ele>2027.1999511719</ele>
        <time>2026-08-21T11:02:52.000Z</time>
      </trkpt>
      <trkpt lat="45.2581" lon="6.0263">
        <ele>2027.1999511719</ele>
        <time>2026-08-21T11:02:53.000Z</time>
      </trkpt>
      <trkpt lat="45.2581" lon="6.0263">
        <ele>2027.4000244141</ele>
        <time>2026-08-21T11:02:54.000Z</time>
      </trkpt>
      <trkpt lat="45.2581" lon="6.02631">
        <ele>2027.5999755859</ele>
        <time>2026-08-21T11:02:55.000Z</time>
      </trkpt>
      <trkpt lat="45.2581" lon="6.02631">
        <ele>2027.8000488281</ele>
        <time>2026-08-21T11:02:56.000Z</time>
      </trkpt>
      <trkpt lat="45.2581" lon="6.02632">
        <ele>2028</ele>
        <time>2026-08-21T11:02:57.000Z</time>
      </trkpt>
      <trkpt lat="45.2581" lon="6.02633">
        <ele>2028.1999511719</ele>
        <time>2026-08-21T11:02:58.000Z</time>
      </trkpt>
      <trkpt lat="45.2581" lon="6.02633">
        <ele>2028.4000244141</ele>
        <time>2026-08-21T11:02:59.000Z</time>
      </trkpt>
      <trkpt lat="45.2581" lon="6.02634">
        <ele>2028.5999755859</ele>
        <time>2026-08-21T11:03:00.000Z</time>
      </trkpt>
      <trkpt lat="45.2581" lon="6.02635">
        <ele>2028.8000488281</ele>
        <time>2026-08-21T11:03:01.000Z</time>
      </trkpt>
      <trkpt lat="45.2581" lon="6.02636">
        <ele>2028.8000488281</ele>
        <time>2026-08-21T11:03:02.000Z</time>
      </trkpt>
      <trkpt lat="45.25811" lon="6.02637">
        <ele>2028.8000488281</ele>
        <time>2026-08-21T11:03:03.000Z</time>
      </trkpt>
      <trkpt lat="45.25811" lon="6.02638">
        <ele>2028.8000488281</ele>
        <time>2026-08-21T11:03:04.000Z</time>
      </trkpt>
      <trkpt lat="45.25812" lon="6.02639">
        <ele>2029</ele>
        <time>2026-08-21T11:03:05.000Z</time>
      </trkpt>
      <trkpt lat="45.25812" lon="6.02639">
        <ele>2029.4000244141</ele>
        <time>2026-08-21T11:03:06.000Z</time>
      </trkpt>
      <trkpt lat="45.25812" lon="6.0264">
        <ele>2029.5999755859</ele>
        <time>2026-08-21T11:03:07.000Z</time>
      </trkpt>
      <trkpt lat="45.25812" lon="6.02641">
        <ele>2030.4000244141</ele>
        <time>2026-08-21T11:03:08.000Z</time>
      </trkpt>
      <trkpt lat="45.25813" lon="6.02642">
        <ele>2030.8000488281</ele>
        <time>2026-08-21T11:03:09.000Z</time>
      </trkpt>
      <trkpt lat="45.25814" lon="6.02642">
        <ele>2031</ele>
        <time>2026-08-21T11:03:10.000Z</time>
      </trkpt>
      <trkpt lat="45.25814" lon="6.02643">
        <ele>2031</ele>
        <time>2026-08-21T11:03:11.000Z</time>
      </trkpt>
      <trkpt lat="45.25814" lon="6.02645">
        <ele>2031.8000488281</ele>
        <time>2026-08-21T11:03:12.000Z</time>
      </trkpt>
      <trkpt lat="45.25814" lon="6.02645">
        <ele>2032</ele>
        <time>2026-08-21T11:03:13.000Z</time>
      </trkpt>
      <trkpt lat="45.25815" lon="6.02646">
        <ele>2032.4000244141</ele>
        <time>2026-08-21T11:03:14.000Z</time>
      </trkpt>
      <trkpt lat="45.25816" lon="6.02647">
        <ele>2032.5999755859</ele>
        <time>2026-08-21T11:03:15.000Z</time>
      </trkpt>
      <trkpt lat="45.25817" lon="6.02649">
        <ele>2032.8000488281</ele>
        <time>2026-08-21T11:03:16.000Z</time>
      </trkpt>
      <trkpt lat="45.25818" lon="6.02649">
        <ele>2033.1999511719</ele>
        <time>2026-08-21T11:03:17.000Z</time>
      </trkpt>
      <trkpt lat="45.25819" lon="6.0265">
        <ele>2033.4000244141</ele>
        <time>2026-08-21T11:03:18.000Z</time>
      </trkpt>
      <trkpt lat="45.2582" lon="6.02651">
        <ele>2032.5999755859</ele>
        <time>2026-08-21T11:03:19.000Z</time>
      </trkpt>
      <trkpt lat="45.2582" lon="6.02651">
        <ele>2032.4000244141</ele>
        <time>2026-08-21T11:03:20.000Z</time>
      </trkpt>
      <trkpt lat="45.25821" lon="6.02652">
        <ele>2032.1999511719</ele>
        <time>2026-08-21T11:03:21.000Z</time>
      </trkpt>
      <trkpt lat="45.25821" lon="6.02652">
        <ele>2032</ele>
        <time>2026-08-21T11:03:22.000Z</time>
      </trkpt>
      <trkpt lat="45.25821" lon="6.02653">
        <ele>2031.4000244141</ele>
        <time>2026-08-21T11:03:23.000Z</time>
      </trkpt>
      <trkpt lat="45.25821" lon="6.02654">
        <ele>2030.5999755859</ele>
        <time>2026-08-21T11:03:24.000Z</time>
      </trkpt>
      <trkpt lat="45.25822" lon="6.02654">
        <ele>2030.8000488281</ele>
        <time>2026-08-21T11:03:25.000Z</time>
      </trkpt>
      <trkpt lat="45.25822" lon="6.02655">
        <ele>2031</ele>
        <time>2026-08-21T11:03:26.000Z</time>
      </trkpt>
      <trkpt lat="45.25823" lon="6.02655">
        <ele>2032.1999511719</ele>
        <time>2026-08-21T11:03:27.000Z</time>
      </trkpt>
      <trkpt lat="45.25823" lon="6.02655">
        <ele>2032.8000488281</ele>
        <time>2026-08-21T11:03:28.000Z</time>
      </trkpt>
      <trkpt lat="45.25823" lon="6.02656">
        <ele>2033.1999511719</ele>
        <time>2026-08-21T11:03:29.000Z</time>
      </trkpt>
      <trkpt lat="45.25824" lon="6.02657">
        <ele>2033.4000244141</ele>
        <time>2026-08-21T11:03:30.000Z</time>
      </trkpt>
      <trkpt lat="45.25824" lon="6.02657">
        <ele>2033.5999755859</ele>
        <time>2026-08-21T11:03:31.000Z</time>
      </trkpt>
      <trkpt lat="45.25825" lon="6.02657">
        <ele>2033.4000244141</ele>
        <time>2026-08-21T11:03:32.000Z</time>
      </trkpt>
      <trkpt lat="45.25826" lon="6.02658">
        <ele>2033.4000244141</ele>
        <time>2026-08-21T11:03:33.000Z</time>
      </trkpt>
      <trkpt lat="45.25826" lon="6.02658">
        <ele>2033.1999511719</ele>
        <time>2026-08-21T11:03:34.000Z</time>
      </trkpt>
      <trkpt lat="45.25827" lon="6.02659">
        <ele>2033</ele>
        <time>2026-08-21T11:03:35.000Z</time>
      </trkpt>
      <trkpt lat="45.25827" lon="6.0266">
        <ele>2032.8000488281</ele>
        <time>2026-08-21T11:03:36.000Z</time>
      </trkpt>
      <trkpt lat="45.25828" lon="6.02661">
        <ele>2032.8000488281</ele>
        <time>2026-08-21T11:03:37.000Z</time>
      </trkpt>
      <trkpt lat="45.25828" lon="6.02661">
        <ele>2032.5999755859</ele>
        <time>2026-08-21T11:03:38.000Z</time>
      </trkpt>
      <trkpt lat="45.25829" lon="6.02661">
        <ele>2032.5999755859</ele>
        <time>2026-08-21T11:03:39.000Z</time>
      </trkpt>
      <trkpt lat="45.2583" lon="6.02662">
        <ele>2032.5999755859</ele>
        <time>2026-08-21T11:03:40.000Z</time>
      </trkpt>
      <trkpt lat="45.2583" lon="6.02663">
        <ele>2032.5999755859</ele>
        <time>2026-08-21T11:03:41.000Z</time>
      </trkpt>
      <trkpt lat="45.2583" lon="6.02664">
        <ele>2032.5999755859</ele>
        <time>2026-08-21T11:03:42.000Z</time>
      </trkpt>
      <trkpt lat="45.25831" lon="6.02665">
        <ele>2033</ele>
        <time>2026-08-21T11:03:43.000Z</time>
      </trkpt>
      <trkpt lat="45.25831" lon="6.02666">
        <ele>2033.4000244141</ele>
        <time>2026-08-21T11:03:44.000Z</time>
      </trkpt>
      <trkpt lat="45.25831" lon="6.02667">
        <ele>2033.8000488281</ele>
        <time>2026-08-21T11:03:45.000Z</time>
      </trkpt>
      <trkpt lat="45.25831" lon="6.02668">
        <ele>2034</ele>
        <time>2026-08-21T11:03:46.000Z</time>
      </trkpt>
      <trkpt lat="45.25831" lon="6.02669">
        <ele>2034.4000244141</ele>
        <time>2026-08-21T11:03:47.000Z</time>
      </trkpt>
      <trkpt lat="45.25831" lon="6.0267">
        <ele>2034.8000488281</ele>
        <time>2026-08-21T11:03:48.000Z</time>
      </trkpt>
      <trkpt lat="45.25831" lon="6.0267">
        <ele>2035.1999511719</ele>
        <time>2026-08-21T11:03:49.000Z</time>
      </trkpt>
      <trkpt lat="45.25831" lon="6.02671">
        <ele>2035.5999755859</ele>
        <time>2026-08-21T11:03:50.000Z</time>
      </trkpt>
      <trkpt lat="45.25832" lon="6.02672">
        <ele>2036</ele>
        <time>2026-08-21T11:03:51.000Z</time>
      </trkpt>
      <trkpt lat="45.25832" lon="6.02672">
        <ele>2036.1999511719</ele>
        <time>2026-08-21T11:03:52.000Z</time>
      </trkpt>
      <trkpt lat="45.25832" lon="6.02674">
        <ele>2036.5999755859</ele>
        <time>2026-08-21T11:03:53.000Z</time>
      </trkpt>
      <trkpt lat="45.25832" lon="6.02675">
        <ele>2037</ele>
        <time>2026-08-21T11:03:54.000Z</time>
      </trkpt>
      <trkpt lat="45.25833" lon="6.02676">
        <ele>2037.4000244141</ele>
        <time>2026-08-21T11:03:55.000Z</time>
      </trkpt>
      <trkpt lat="45.25833" lon="6.02678">
        <ele>2037.5999755859</ele>
        <time>2026-08-21T11:03:56.000Z</time>
      </trkpt>
      <trkpt lat="45.25834" lon="6.02679">
        <ele>2037.8000488281</ele>
        <time>2026-08-21T11:03:57.000Z</time>
      </trkpt>
      <trkpt lat="45.25834" lon="6.02679">
        <ele>2037.8000488281</ele>
        <time>2026-08-21T11:03:58.000Z</time>
      </trkpt>
      <trkpt lat="45.25834" lon="6.0268">
        <ele>2038</ele>
        <time>2026-08-21T11:03:59.000Z</time>
      </trkpt>
      <trkpt lat="45.25835" lon="6.02682">
        <ele>2038</ele>
        <time>2026-08-21T11:04:00.000Z</time>
      </trkpt>
      <trkpt lat="45.25835" lon="6.02683">
        <ele>2038.4000244141</ele>
        <time>2026-08-21T11:04:01.000Z</time>
      </trkpt>
      <trkpt lat="45.25835" lon="6.02685">
        <ele>2038.5999755859</ele>
        <time>2026-08-21T11:04:02.000Z</time>
      </trkpt>
      <trkpt lat="45.25835" lon="6.02686">
        <ele>2038.8000488281</ele>
        <time>2026-08-21T11:04:03.000Z</time>
      </trkpt>
      <trkpt lat="45.25836" lon="6.02687">
        <ele>2038.8000488281</ele>
        <time>2026-08-21T11:04:04.000Z</time>
      </trkpt>
      <trkpt lat="45.25836" lon="6.02688">
        <ele>2039.1999511719</ele>
        <time>2026-08-21T11:04:05.000Z</time>
      </trkpt>
      <trkpt lat="45.25836" lon="6.02689">
        <ele>2039.1999511719</ele>
        <time>2026-08-21T11:04:06.000Z</time>
      </trkpt>
      <trkpt lat="45.25836" lon="6.0269">
        <ele>2039.4000244141</ele>
        <time>2026-08-21T11:04:07.000Z</time>
      </trkpt>
      <trkpt lat="45.25837" lon="6.02692">
        <ele>2039.5999755859</ele>
        <time>2026-08-21T11:04:08.000Z</time>
      </trkpt>
      <trkpt lat="45.25837" lon="6.02693">
        <ele>2039.8000488281</ele>
        <time>2026-08-21T11:04:09.000Z</time>
      </trkpt>
      <trkpt lat="45.25838" lon="6.02694">
        <ele>2040.1999511719</ele>
        <time>2026-08-21T11:04:10.000Z</time>
      </trkpt>
      <trkpt lat="45.25838" lon="6.02695">
        <ele>2040.5999755859</ele>
        <time>2026-08-21T11:04:11.000Z</time>
      </trkpt>
      <trkpt lat="45.25839" lon="6.02697">
        <ele>2040.5999755859</ele>
        <time>2026-08-21T11:04:12.000Z</time>
      </trkpt>
      <trkpt lat="45.25839" lon="6.02699">
        <ele>2040.8000488281</ele>
        <time>2026-08-21T11:04:13.000Z</time>
      </trkpt>
      <trkpt lat="45.2584" lon="6.02701">
        <ele>2040.8000488281</ele>
        <time>2026-08-21T11:04:14.000Z</time>
      </trkpt>
      <trkpt lat="45.2584" lon="6.02702">
        <ele>2041</ele>
        <time>2026-08-21T11:04:15.000Z</time>
      </trkpt>
      <trkpt lat="45.2584" lon="6.02704">
        <ele>2041.4000244141</ele>
        <time>2026-08-21T11:04:16.000Z</time>
      </trkpt>
      <trkpt lat="45.2584" lon="6.02706">
        <ele>2041.4000244141</ele>
        <time>2026-08-21T11:04:17.000Z</time>
      </trkpt>
      <trkpt lat="45.25841" lon="6.02708">
        <ele>2041.5999755859</ele>
        <time>2026-08-21T11:04:18.000Z</time>
      </trkpt>
      <trkpt lat="45.25841" lon="6.02709">
        <ele>2042</ele>
        <time>2026-08-21T11:04:19.000Z</time>
      </trkpt>
      <trkpt lat="45.25842" lon="6.02711">
        <ele>2042</ele>
        <time>2026-08-21T11:04:20.000Z</time>
      </trkpt>
      <trkpt lat="45.25842" lon="6.02713">
        <ele>2042.1999511719</ele>
        <time>2026-08-21T11:04:21.000Z</time>
      </trkpt>
      <trkpt lat="45.25843" lon="6.02714">
        <ele>2042</ele>
        <time>2026-08-21T11:04:22.000Z</time>
      </trkpt>
      <trkpt lat="45.25844" lon="6.02716">
        <ele>2042</ele>
        <time>2026-08-21T11:04:23.000Z</time>
      </trkpt>
      <trkpt lat="45.25844" lon="6.02717">
        <ele>2042</ele>
        <time>2026-08-21T11:04:24.000Z</time>
      </trkpt>
      <trkpt lat="45.25845" lon="6.02718">
        <ele>2041.8000488281</ele>
        <time>2026-08-21T11:04:25.000Z</time>
      </trkpt>
      <trkpt lat="45.25846" lon="6.0272">
        <ele>2042</ele>
        <time>2026-08-21T11:04:26.000Z</time>
      </trkpt>
      <trkpt lat="45.25847" lon="6.02721">
        <ele>2042.1999511719</ele>
        <time>2026-08-21T11:04:27.000Z</time>
      </trkpt>
      <trkpt lat="45.25848" lon="6.02724">
        <ele>2042.8000488281</ele>
        <time>2026-08-21T11:04:28.000Z</time>
      </trkpt>
      <trkpt lat="45.25849" lon="6.02726">
        <ele>2043.4000244141</ele>
        <time>2026-08-21T11:04:29.000Z</time>
      </trkpt>
      <trkpt lat="45.2585" lon="6.02728">
        <ele>2044.1999511719</ele>
        <time>2026-08-21T11:04:30.000Z</time>
      </trkpt>
      <trkpt lat="45.25851" lon="6.0273">
        <ele>2045.4000244141</ele>
        <time>2026-08-21T11:04:31.000Z</time>
      </trkpt>
      <trkpt lat="45.25852" lon="6.02733">
        <ele>2046.4000244141</ele>
        <time>2026-08-21T11:04:32.000Z</time>
      </trkpt>
      <trkpt lat="45.25853" lon="6.02736">
        <ele>2046.8000488281</ele>
        <time>2026-08-21T11:04:33.000Z</time>
      </trkpt>
      <trkpt lat="45.25853" lon="6.02739">
        <ele>2047</ele>
        <time>2026-08-21T11:04:34.000Z</time>
      </trkpt>
      <trkpt lat="45.25854" lon="6.02742">
        <ele>2047.5999755859</ele>
        <time>2026-08-21T11:04:35.000Z</time>
      </trkpt>
      <trkpt lat="45.25854" lon="6.02745">
        <ele>2047.5999755859</ele>
        <time>2026-08-21T11:04:36.000Z</time>
      </trkpt>
      <trkpt lat="45.25854" lon="6.02747">
        <ele>2047.8000488281</ele>
        <time>2026-08-21T11:04:37.000Z</time>
      </trkpt>
      <trkpt lat="45.25854" lon="6.02749">
        <ele>2047.8000488281</ele>
        <time>2026-08-21T11:04:38.000Z</time>
      </trkpt>
      <trkpt lat="45.25854" lon="6.02751">
        <ele>2048</ele>
        <time>2026-08-21T11:04:39.000Z</time>
      </trkpt>
      <trkpt lat="45.25854" lon="6.02752">
        <ele>2048.1999511719</ele>
        <time>2026-08-21T11:04:40.000Z</time>
      </trkpt>
      <trkpt lat="45.25854" lon="6.02753">
        <ele>2048.3999023438</ele>
        <time>2026-08-21T11:04:41.000Z</time>
      </trkpt>
      <trkpt lat="45.25854" lon="6.02754">
        <ele>2048.6000976562</ele>
        <time>2026-08-21T11:04:42.000Z</time>
      </trkpt>
      <trkpt lat="45.25854" lon="6.02755">
        <ele>2048.8000488281</ele>
        <time>2026-08-21T11:04:43.000Z</time>
      </trkpt>
      <trkpt lat="45.25854" lon="6.02756">
        <ele>2049</ele>
        <time>2026-08-21T11:04:44.000Z</time>
      </trkpt>
      <trkpt lat="45.25854" lon="6.02756">
        <ele>2048</ele>
        <time>2026-08-21T11:04:45.000Z</time>
      </trkpt>
      <trkpt lat="45.25855" lon="6.02757">
        <ele>2047.8000488281</ele>
        <time>2026-08-21T11:04:46.000Z</time>
      </trkpt>
      <trkpt lat="45.25855" lon="6.02757">
        <ele>2047.4000244141</ele>
        <time>2026-08-21T11:04:47.000Z</time>
      </trkpt>
      <trkpt lat="45.25855" lon="6.02759">
        <ele>2047.1999511719</ele>
        <time>2026-08-21T11:04:48.000Z</time>
      </trkpt>
      <trkpt lat="45.25855" lon="6.02759">
        <ele>2046.8000488281</ele>
        <time>2026-08-21T11:04:49.000Z</time>
      </trkpt>
      <trkpt lat="45.25855" lon="6.0276">
        <ele>2046.5999755859</ele>
        <time>2026-08-21T11:04:50.000Z</time>
      </trkpt>
      <trkpt lat="45.25855" lon="6.0276">
        <ele>2046.4000244141</ele>
        <time>2026-08-21T11:04:51.000Z</time>
      </trkpt>
      <trkpt lat="45.25855" lon="6.02762">
        <ele>2046.1999511719</ele>
        <time>2026-08-21T11:04:52.000Z</time>
      </trkpt>
      <trkpt lat="45.25855" lon="6.02763">
        <ele>2045.8000488281</ele>
        <time>2026-08-21T11:04:53.000Z</time>
      </trkpt>
      <trkpt lat="45.25855" lon="6.02764">
        <ele>2045.5999755859</ele>
        <time>2026-08-21T11:04:54.000Z</time>
      </trkpt>
      <trkpt lat="45.25855" lon="6.02765">
        <ele>2045</ele>
        <time>2026-08-21T11:04:55.000Z</time>
      </trkpt>
      <trkpt lat="45.25855" lon="6.02767">
        <ele>2044.1999511719</ele>
        <time>2026-08-21T11:04:56.000Z</time>
      </trkpt>
      <trkpt lat="45.25855" lon="6.02768">
        <ele>2043.5999755859</ele>
        <time>2026-08-21T11:04:57.000Z</time>
      </trkpt>
      <trkpt lat="45.25854" lon="6.02768">
        <ele>2042.8000488281</ele>
        <time>2026-08-21T11:04:58.000Z</time>
      </trkpt>
      <trkpt lat="45.25854" lon="6.02768">
        <ele>2039.5999755859</ele>
        <time>2026-08-21T11:04:59.000Z</time>
      </trkpt>
      <trkpt lat="45.25854" lon="6.02769">
        <ele>2039</ele>
        <time>2026-08-21T11:05:00.000Z</time>
      </trkpt>
      <trkpt lat="45.25854" lon="6.0277">
        <ele>2039</ele>
        <time>2026-08-21T11:05:01.000Z</time>
      </trkpt>
      <trkpt lat="45.25854" lon="6.02771">
        <ele>2038.8000488281</ele>
        <time>2026-08-21T11:05:02.000Z</time>
      </trkpt>
      <trkpt lat="45.25854" lon="6.02773">
        <ele>2037.5999755859</ele>
        <time>2026-08-21T11:05:03.000Z</time>
      </trkpt>
      <trkpt lat="45.25854" lon="6.02775">
        <ele>2037</ele>
        <time>2026-08-21T11:05:04.000Z</time>
      </trkpt>
      <trkpt lat="45.25854" lon="6.02776">
        <ele>2036.1999511719</ele>
        <time>2026-08-21T11:05:05.000Z</time>
      </trkpt>
      <trkpt lat="45.25853" lon="6.02778">
        <ele>2035.5999755859</ele>
        <time>2026-08-21T11:05:06.000Z</time>
      </trkpt>
      <trkpt lat="45.25853" lon="6.0278">
        <ele>2034.8000488281</ele>
        <time>2026-08-21T11:05:07.000Z</time>
      </trkpt>
      <trkpt lat="45.25853" lon="6.02782">
        <ele>2033.8000488281</ele>
        <time>2026-08-21T11:05:08.000Z</time>
      </trkpt>
      <trkpt lat="45.25853" lon="6.02784">
        <ele>2032.8000488281</ele>
        <time>2026-08-21T11:05:09.000Z</time>
      </trkpt>
      <trkpt lat="45.25852" lon="6.02786">
        <ele>2032.5999755859</ele>
        <time>2026-08-21T11:05:10.000Z</time>
      </trkpt>
      <trkpt lat="45.25852" lon="6.02789">
        <ele>2032.5999755859</ele>
        <time>2026-08-21T11:05:11.000Z</time>
      </trkpt>
      <trkpt lat="45.25852" lon="6.02792">
        <ele>2031.8000488281</ele>
        <time>2026-08-21T11:05:12.000Z</time>
      </trkpt>
      <trkpt lat="45.25852" lon="6.02794">
        <ele>2031.4000244141</ele>
        <time>2026-08-21T11:05:13.000Z</time>
      </trkpt>
      <trkpt lat="45.25851" lon="6.02797">
        <ele>2031.4000244141</ele>
        <time>2026-08-21T11:05:14.000Z</time>
      </trkpt>
      <trkpt lat="45.25851" lon="6.028">
        <ele>2031.4000244141</ele>
        <time>2026-08-21T11:05:15.000Z</time>
      </trkpt>
      <trkpt lat="45.2585" lon="6.02802">
        <ele>2032</ele>
        <time>2026-08-21T11:05:16.000Z</time>
      </trkpt>
      <trkpt lat="45.2585" lon="6.02805">
        <ele>2033</ele>
        <time>2026-08-21T11:05:17.000Z</time>
      </trkpt>
      <trkpt lat="45.25849" lon="6.02807">
        <ele>2033.5999755859</ele>
        <time>2026-08-21T11:05:18.000Z</time>
      </trkpt>
      <trkpt lat="45.25848" lon="6.02809">
        <ele>2034.4000244141</ele>
        <time>2026-08-21T11:05:19.000Z</time>
      </trkpt>
      <trkpt lat="45.25848" lon="6.02812">
        <ele>2034.5999755859</ele>
        <time>2026-08-21T11:05:20.000Z</time>
      </trkpt>
      <trkpt lat="45.25848" lon="6.02814">
        <ele>2034.8000488281</ele>
        <time>2026-08-21T11:05:21.000Z</time>
      </trkpt>
      <trkpt lat="45.25848" lon="6.02815">
        <ele>2034.8000488281</ele>
        <time>2026-08-21T11:05:22.000Z</time>
      </trkpt>
      <trkpt lat="45.25849" lon="6.02818">
        <ele>2035</ele>
        <time>2026-08-21T11:05:23.000Z</time>
      </trkpt>
      <trkpt lat="45.25849" lon="6.02819">
        <ele>2035</ele>
        <time>2026-08-21T11:05:24.000Z</time>
      </trkpt>
      <trkpt lat="45.2585" lon="6.02821">
        <ele>2033.8000488281</ele>
        <time>2026-08-21T11:05:25.000Z</time>
      </trkpt>
      <trkpt lat="45.2585" lon="6.02823">
        <ele>2032.4000244141</ele>
        <time>2026-08-21T11:05:26.000Z</time>
      </trkpt>
      <trkpt lat="45.2585" lon="6.02825">
        <ele>2031.8000488281</ele>
        <time>2026-08-21T11:05:27.000Z</time>
      </trkpt>
      <trkpt lat="45.25851" lon="6.02827">
        <ele>2031</ele>
        <time>2026-08-21T11:05:28.000Z</time>
      </trkpt>
      <trkpt lat="45.25851" lon="6.02829">
        <ele>2030.1999511719</ele>
        <time>2026-08-21T11:05:29.000Z</time>
      </trkpt>
      <trkpt lat="45.25852" lon="6.02831">
        <ele>2029</ele>
        <time>2026-08-21T11:05:30.000Z</time>
      </trkpt>
      <trkpt lat="45.25852" lon="6.02834">
        <ele>2027.8000488281</ele>
        <time>2026-08-21T11:05:31.000Z</time>
      </trkpt>
      <trkpt lat="45.25852" lon="6.02837">
        <ele>2026.5999755859</ele>
        <time>2026-08-21T11:05:32.000Z</time>
      </trkpt>
      <trkpt lat="45.25852" lon="6.02839">
        <ele>2026.1999511719</ele>
        <time>2026-08-21T11:05:33.000Z</time>
      </trkpt>
      <trkpt lat="45.25852" lon="6.02841">
        <ele>2026</ele>
        <time>2026-08-21T11:05:34.000Z</time>
      </trkpt>
      <trkpt lat="45.25852" lon="6.02843">
        <ele>2025.5999755859</ele>
        <time>2026-08-21T11:05:35.000Z</time>
      </trkpt>
      <trkpt lat="45.25852" lon="6.02844">
        <ele>2025.4000244141</ele>
        <time>2026-08-21T11:05:36.000Z</time>
      </trkpt>
      <trkpt lat="45.25852" lon="6.02846">
        <ele>2025.8000488281</ele>
        <time>2026-08-21T11:05:37.000Z</time>
      </trkpt>
      <trkpt lat="45.25852" lon="6.02848">
        <ele>2026.1999511719</ele>
        <time>2026-08-21T11:05:38.000Z</time>
      </trkpt>
      <trkpt lat="45.25852" lon="6.02849">
        <ele>2026</ele>
        <time>2026-08-21T11:05:39.000Z</time>
      </trkpt>
      <trkpt lat="45.25852" lon="6.02851">
        <ele>2025.5999755859</ele>
        <time>2026-08-21T11:05:40.000Z</time>
      </trkpt>
      <trkpt lat="45.25852" lon="6.02853">
        <ele>2025</ele>
        <time>2026-08-21T11:05:41.000Z</time>
      </trkpt>
      <trkpt lat="45.25852" lon="6.02855">
        <ele>2024.1999511719</ele>
        <time>2026-08-21T11:05:42.000Z</time>
      </trkpt>
      <trkpt lat="45.25851" lon="6.02858">
        <ele>2023.5999755859</ele>
        <time>2026-08-21T11:05:43.000Z</time>
      </trkpt>
      <trkpt lat="45.2585" lon="6.0286">
        <ele>2022.8000488281</ele>
        <time>2026-08-21T11:05:44.000Z</time>
      </trkpt>
      <trkpt lat="45.2585" lon="6.02862">
        <ele>2021.8000488281</ele>
        <time>2026-08-21T11:05:45.000Z</time>
      </trkpt>
      <trkpt lat="45.25849" lon="6.02865">
        <ele>2022.1999511719</ele>
        <time>2026-08-21T11:05:46.000Z</time>
      </trkpt>
      <trkpt lat="45.25849" lon="6.02868">
        <ele>2023</ele>
        <time>2026-08-21T11:05:47.000Z</time>
      </trkpt>
      <trkpt lat="45.25848" lon="6.0287">
        <ele>2023</ele>
        <time>2026-08-21T11:05:48.000Z</time>
      </trkpt>
      <trkpt lat="45.25847" lon="6.02871">
        <ele>2023.4000244141</ele>
        <time>2026-08-21T11:05:49.000Z</time>
      </trkpt>
      <trkpt lat="45.25847" lon="6.02874">
        <ele>2023.4000244141</ele>
        <time>2026-08-21T11:05:50.000Z</time>
      </trkpt>
      <trkpt lat="45.25846" lon="6.02877">
        <ele>2023.1999511719</ele>
        <time>2026-08-21T11:05:51.000Z</time>
      </trkpt>
      <trkpt lat="45.25846" lon="6.02879">
        <ele>2022.5999755859</ele>
        <time>2026-08-21T11:05:52.000Z</time>
      </trkpt>
      <trkpt lat="45.25845" lon="6.02881">
        <ele>2022</ele>
        <time>2026-08-21T11:05:53.000Z</time>
      </trkpt>
      <trkpt lat="45.25844" lon="6.02884">
        <ele>2021.1999511719</ele>
        <time>2026-08-21T11:05:54.000Z</time>
      </trkpt>
      <trkpt lat="45.25844" lon="6.02885">
        <ele>2020.4000244141</ele>
        <time>2026-08-21T11:05:55.000Z</time>
      </trkpt>
      <trkpt lat="45.25843" lon="6.02888">
        <ele>2020.1999511719</ele>
        <time>2026-08-21T11:05:56.000Z</time>
      </trkpt>
      <trkpt lat="45.25843" lon="6.0289">
        <ele>2019.8000488281</ele>
        <time>2026-08-21T11:05:57.000Z</time>
      </trkpt>
      <trkpt lat="45.25842" lon="6.02892">
        <ele>2019.5999755859</ele>
        <time>2026-08-21T11:05:58.000Z</time>
      </trkpt>
      <trkpt lat="45.25842" lon="6.02894">
        <ele>2019.4000244141</ele>
        <time>2026-08-21T11:05:59.000Z</time>
      </trkpt>
      <trkpt lat="45.25842" lon="6.02897">
        <ele>2019.1999511719</ele>
        <time>2026-08-21T11:06:00.000Z</time>
      </trkpt>
      <trkpt lat="45.25841" lon="6.02899">
        <ele>2018.8000488281</ele>
        <time>2026-08-21T11:06:01.000Z</time>
      </trkpt>
      <trkpt lat="45.2584" lon="6.029">
        <ele>2018.5999755859</ele>
        <time>2026-08-21T11:06:02.000Z</time>
      </trkpt>
      <trkpt lat="45.25839" lon="6.02902">
        <ele>2018.4000244141</ele>
        <time>2026-08-21T11:06:03.000Z</time>
      </trkpt>
      <trkpt lat="45.25838" lon="6.02905">
        <ele>2018.1999511719</ele>
        <time>2026-08-21T11:06:04.000Z</time>
      </trkpt>
      <trkpt lat="45.25837" lon="6.02907">
        <ele>2017.8000488281</ele>
        <time>2026-08-21T11:06:05.000Z</time>
      </trkpt>
      <trkpt lat="45.25836" lon="6.02909">
        <ele>2017.5999755859</ele>
        <time>2026-08-21T11:06:06.000Z</time>
      </trkpt>
      <trkpt lat="45.25835" lon="6.02911">
        <ele>2018.4000244141</ele>
        <time>2026-08-21T11:06:07.000Z</time>
      </trkpt>
      <trkpt lat="45.25835" lon="6.02914">
        <ele>2019.4000244141</ele>
        <time>2026-08-21T11:06:08.000Z</time>
      </trkpt>
      <trkpt lat="45.25834" lon="6.02917">
        <ele>2019.8000488281</ele>
        <time>2026-08-21T11:06:09.000Z</time>
      </trkpt>
      <trkpt lat="45.25833" lon="6.0292">
        <ele>2020.1999511719</ele>
        <time>2026-08-21T11:06:10.000Z</time>
      </trkpt>
      <trkpt lat="45.25833" lon="6.02923">
        <ele>2020.5999755859</ele>
        <time>2026-08-21T11:06:11.000Z</time>
      </trkpt>
      <trkpt lat="45.25832" lon="6.02926">
        <ele>2023.4000244141</ele>
        <time>2026-08-21T11:06:12.000Z</time>
      </trkpt>
      <trkpt lat="45.25832" lon="6.02928">
        <ele>2024.1999511719</ele>
        <time>2026-08-21T11:06:13.000Z</time>
      </trkpt>
      <trkpt lat="45.25832" lon="6.02931">
        <ele>2023.8000488281</ele>
        <time>2026-08-21T11:06:14.000Z</time>
      </trkpt>
      <trkpt lat="45.25832" lon="6.02934">
        <ele>2023.4000244141</ele>
        <time>2026-08-21T11:06:15.000Z</time>
      </trkpt>
      <trkpt lat="45.25832" lon="6.02938">
        <ele>2023.1999511719</ele>
        <time>2026-08-21T11:06:16.000Z</time>
      </trkpt>
      <trkpt lat="45.25832" lon="6.02941">
        <ele>2023</ele>
        <time>2026-08-21T11:06:17.000Z</time>
      </trkpt>
      <trkpt lat="45.25831" lon="6.02945">
        <ele>2022</ele>
        <time>2026-08-21T11:06:18.000Z</time>
      </trkpt>
      <trkpt lat="45.25831" lon="6.02947">
        <ele>2021.5999755859</ele>
        <time>2026-08-21T11:06:19.000Z</time>
      </trkpt>
      <trkpt lat="45.25831" lon="6.02949">
        <ele>2021.4000244141</ele>
        <time>2026-08-21T11:06:20.000Z</time>
      </trkpt>
      <trkpt lat="45.25831" lon="6.02952">
        <ele>2021</ele>
        <time>2026-08-21T11:06:21.000Z</time>
      </trkpt>
      <trkpt lat="45.25831" lon="6.02954">
        <ele>2020.8000488281</ele>
        <time>2026-08-21T11:06:22.000Z</time>
      </trkpt>
      <trkpt lat="45.25831" lon="6.02957">
        <ele>2020.4000244141</ele>
        <time>2026-08-21T11:06:23.000Z</time>
      </trkpt>
      <trkpt lat="45.25832" lon="6.02961">
        <ele>2020</ele>
        <time>2026-08-21T11:06:24.000Z</time>
      </trkpt>
      <trkpt lat="45.25832" lon="6.02964">
        <ele>2019.4000244141</ele>
        <time>2026-08-21T11:06:25.000Z</time>
      </trkpt>
      <trkpt lat="45.25833" lon="6.02967">
        <ele>2019</ele>
        <time>2026-08-21T11:06:26.000Z</time>
      </trkpt>
      <trkpt lat="45.25833" lon="6.02969">
        <ele>2018.4000244141</ele>
        <time>2026-08-21T11:06:27.000Z</time>
      </trkpt>
      <trkpt lat="45.25834" lon="6.02971">
        <ele>2017</ele>
        <time>2026-08-21T11:06:28.000Z</time>
      </trkpt>
      <trkpt lat="45.25834" lon="6.02974">
        <ele>2016.8000488281</ele>
        <time>2026-08-21T11:06:29.000Z</time>
      </trkpt>
      <trkpt lat="45.25834" lon="6.02976">
        <ele>2016.4000244141</ele>
        <time>2026-08-21T11:06:30.000Z</time>
      </trkpt>
      <trkpt lat="45.25834" lon="6.02979">
        <ele>2016.1999511719</ele>
        <time>2026-08-21T11:06:31.000Z</time>
      </trkpt>
      <trkpt lat="45.25835" lon="6.02981">
        <ele>2014.1999511719</ele>
        <time>2026-08-21T11:06:32.000Z</time>
      </trkpt>
      <trkpt lat="45.25835" lon="6.02984">
        <ele>2012</ele>
        <time>2026-08-21T11:06:33.000Z</time>
      </trkpt>
      <trkpt lat="45.25835" lon="6.02986">
        <ele>2009.8000488281</ele>
        <time>2026-08-21T11:06:34.000Z</time>
      </trkpt>
      <trkpt lat="45.25836" lon="6.02989">
        <ele>2009.4000244141</ele>
        <time>2026-08-21T11:06:35.000Z</time>
      </trkpt>
      <trkpt lat="45.25837" lon="6.02991">
        <ele>2008.4000244141</ele>
        <time>2026-08-21T11:06:36.000Z</time>
      </trkpt>
      <trkpt lat="45.25838" lon="6.02994">
        <ele>2008.1999511719</ele>
        <time>2026-08-21T11:06:37.000Z</time>
      </trkpt>
      <trkpt lat="45.25838" lon="6.02996">
        <ele>2008</ele>
        <time>2026-08-21T11:06:38.000Z</time>
      </trkpt>
      <trkpt lat="45.25838" lon="6.02999">
        <ele>2008</ele>
        <time>2026-08-21T11:06:39.000Z</time>
      </trkpt>
      <trkpt lat="45.25838" lon="6.03001">
        <ele>2007.8000488281</ele>
        <time>2026-08-21T11:06:40.000Z</time>
      </trkpt>
      <trkpt lat="45.25838" lon="6.03003">
        <ele>2007.5999755859</ele>
        <time>2026-08-21T11:06:41.000Z</time>
      </trkpt>
      <trkpt lat="45.25838" lon="6.03006">
        <ele>2007.4000244141</ele>
        <time>2026-08-21T11:06:42.000Z</time>
      </trkpt>
      <trkpt lat="45.25838" lon="6.03008">
        <ele>2007</ele>
        <time>2026-08-21T11:06:43.000Z</time>
      </trkpt>
      <trkpt lat="45.25839" lon="6.0301">
        <ele>2006.8000488281</ele>
        <time>2026-08-21T11:06:44.000Z</time>
      </trkpt>
      <trkpt lat="45.25839" lon="6.03013">
        <ele>2006.5999755859</ele>
        <time>2026-08-21T11:06:45.000Z</time>
      </trkpt>
      <trkpt lat="45.2584" lon="6.03015">
        <ele>2006</ele>
        <time>2026-08-21T11:06:46.000Z</time>
      </trkpt>
      <trkpt lat="45.2584" lon="6.03018">
        <ele>2006.1999511719</ele>
        <time>2026-08-21T11:06:47.000Z</time>
      </trkpt>
      <trkpt lat="45.2584" lon="6.03021">
        <ele>2006.5999755859</ele>
        <time>2026-08-21T11:06:48.000Z</time>
      </trkpt>
      <trkpt lat="45.2584" lon="6.03024">
        <ele>2006.8000488281</ele>
        <time>2026-08-21T11:06:49.000Z</time>
      </trkpt>
      <trkpt lat="45.25839" lon="6.03027">
        <ele>2007</ele>
        <time>2026-08-21T11:06:50.000Z</time>
      </trkpt>
      <trkpt lat="45.25839" lon="6.0303">
        <ele>2010</ele>
        <time>2026-08-21T11:06:51.000Z</time>
      </trkpt>
      <trkpt lat="45.25839" lon="6.03032">
        <ele>2010.4000244141</ele>
        <time>2026-08-21T11:06:52.000Z</time>
      </trkpt>
      <trkpt lat="45.25839" lon="6.03034">
        <ele>2010.5999755859</ele>
        <time>2026-08-21T11:06:53.000Z</time>
      </trkpt>
      <trkpt lat="45.2584" lon="6.03036">
        <ele>2011</ele>
        <time>2026-08-21T11:06:54.000Z</time>
      </trkpt>
      <trkpt lat="45.2584" lon="6.03039">
        <ele>2011.1999511719</ele>
        <time>2026-08-21T11:06:55.000Z</time>
      </trkpt>
      <trkpt lat="45.25841" lon="6.03041">
        <ele>2011.8000488281</ele>
        <time>2026-08-21T11:06:56.000Z</time>
      </trkpt>
      <trkpt lat="45.25842" lon="6.03045">
        <ele>2012.4000244141</ele>
        <time>2026-08-21T11:06:57.000Z</time>
      </trkpt>
      <trkpt lat="45.25842" lon="6.03048">
        <ele>2012.4000244141</ele>
        <time>2026-08-21T11:06:58.000Z</time>
      </trkpt>
      <trkpt lat="45.25842" lon="6.0305">
        <ele>2012.4000244141</ele>
        <time>2026-08-21T11:06:59.000Z</time>
      </trkpt>
      <trkpt lat="45.25843" lon="6.03054">
        <ele>2012.8000488281</ele>
        <time>2026-08-21T11:07:00.000Z</time>
      </trkpt>
      <trkpt lat="45.25843" lon="6.03057">
        <ele>2013</ele>
        <time>2026-08-21T11:07:01.000Z</time>
      </trkpt>
      <trkpt lat="45.25843" lon="6.03059">
        <ele>2013.4000244141</ele>
        <time>2026-08-21T11:07:02.000Z</time>
      </trkpt>
      <trkpt lat="45.25845" lon="6.03061">
        <ele>2013.8000488281</ele>
        <time>2026-08-21T11:07:03.000Z</time>
      </trkpt>
      <trkpt lat="45.25846" lon="6.03063">
        <ele>2014.1999511719</ele>
        <time>2026-08-21T11:07:04.000Z</time>
      </trkpt>
      <trkpt lat="45.25847" lon="6.03066">
        <ele>2014.5999755859</ele>
        <time>2026-08-21T11:07:05.000Z</time>
      </trkpt>
      <trkpt lat="45.25847" lon="6.03069">
        <ele>2014.8000488281</ele>
        <time>2026-08-21T11:07:06.000Z</time>
      </trkpt>
      <trkpt lat="45.25847" lon="6.03072">
        <ele>2014.4000244141</ele>
        <time>2026-08-21T11:07:07.000Z</time>
      </trkpt>
      <trkpt lat="45.25846" lon="6.03073">
        <ele>2013.8000488281</ele>
        <time>2026-08-21T11:07:08.000Z</time>
      </trkpt>
      <trkpt lat="45.25844" lon="6.03074">
        <ele>2013.4000244141</ele>
        <time>2026-08-21T11:07:09.000Z</time>
      </trkpt>
      <trkpt lat="45.25843" lon="6.03075">
        <ele>2012</ele>
        <time>2026-08-21T11:07:10.000Z</time>
      </trkpt>
      <trkpt lat="45.25842" lon="6.03075">
        <ele>2011.1999511719</ele>
        <time>2026-08-21T11:07:11.000Z</time>
      </trkpt>
      <trkpt lat="45.25842" lon="6.03076">
        <ele>2010.8000488281</ele>
        <time>2026-08-21T11:07:12.000Z</time>
      </trkpt>
      <trkpt lat="45.25841" lon="6.03077">
        <ele>2010.4000244141</ele>
        <time>2026-08-21T11:07:13.000Z</time>
      </trkpt>
      <trkpt lat="45.2584" lon="6.03077">
        <ele>2009.4000244141</ele>
        <time>2026-08-21T11:07:14.000Z</time>
      </trkpt>
      <trkpt lat="45.25839" lon="6.03077">
        <ele>2008.8000488281</ele>
        <time>2026-08-21T11:07:15.000Z</time>
      </trkpt>
      <trkpt lat="45.25839" lon="6.03078">
        <ele>2008.5999755859</ele>
        <time>2026-08-21T11:07:16.000Z</time>
      </trkpt>
      <trkpt lat="45.25838" lon="6.03078">
        <ele>2008.5999755859</ele>
        <time>2026-08-21T11:07:17.000Z</time>
      </trkpt>
      <trkpt lat="45.25838" lon="6.03079">
        <ele>2008.5999755859</ele>
        <time>2026-08-21T11:07:18.000Z</time>
      </trkpt>
      <trkpt lat="45.25837" lon="6.0308">
        <ele>2008.5999755859</ele>
        <time>2026-08-21T11:07:19.000Z</time>
      </trkpt>
      <trkpt lat="45.25836" lon="6.03081">
        <ele>2009</ele>
        <time>2026-08-21T11:07:20.000Z</time>
      </trkpt>
      <trkpt lat="45.25835" lon="6.03082">
        <ele>2009.4000244141</ele>
        <time>2026-08-21T11:07:21.000Z</time>
      </trkpt>
      <trkpt lat="45.25834" lon="6.03082">
        <ele>2009.5999755859</ele>
        <time>2026-08-21T11:07:22.000Z</time>
      </trkpt>
      <trkpt lat="45.25833" lon="6.03084">
        <ele>2009.8000488281</ele>
        <time>2026-08-21T11:07:23.000Z</time>
      </trkpt>
      <trkpt lat="45.25833" lon="6.03085">
        <ele>2010.1999511719</ele>
        <time>2026-08-21T11:07:24.000Z</time>
      </trkpt>
      <trkpt lat="45.25832" lon="6.03086">
        <ele>2010.8000488281</ele>
        <time>2026-08-21T11:07:25.000Z</time>
      </trkpt>
      <trkpt lat="45.25831" lon="6.03087">
        <ele>2011.4000244141</ele>
        <time>2026-08-21T11:07:26.000Z</time>
      </trkpt>
      <trkpt lat="45.25831" lon="6.03088">
        <ele>2012</ele>
        <time>2026-08-21T11:07:27.000Z</time>
      </trkpt>
      <trkpt lat="45.2583" lon="6.03089">
        <ele>2012.5999755859</ele>
        <time>2026-08-21T11:07:28.000Z</time>
      </trkpt>
      <trkpt lat="45.2583" lon="6.0309">
        <ele>2013.4000244141</ele>
        <time>2026-08-21T11:07:29.000Z</time>
      </trkpt>
      <trkpt lat="45.2583" lon="6.03091">
        <ele>2014.1999511719</ele>
        <time>2026-08-21T11:07:30.000Z</time>
      </trkpt>
      <trkpt lat="45.25829" lon="6.03092">
        <ele>2014.8000488281</ele>
        <time>2026-08-21T11:07:31.000Z</time>
      </trkpt>
      <trkpt lat="45.25828" lon="6.03093">
        <ele>2015.1999511719</ele>
        <time>2026-08-21T11:07:32.000Z</time>
      </trkpt>
      <trkpt lat="45.25828" lon="6.03095">
        <ele>2015.8000488281</ele>
        <time>2026-08-21T11:07:33.000Z</time>
      </trkpt>
      <trkpt lat="45.25827" lon="6.03096">
        <ele>2016.4000244141</ele>
        <time>2026-08-21T11:07:34.000Z</time>
      </trkpt>
      <trkpt lat="45.25827" lon="6.03097">
        <ele>2017</ele>
        <time>2026-08-21T11:07:35.000Z</time>
      </trkpt>
      <trkpt lat="45.25826" lon="6.03098">
        <ele>2018.5999755859</ele>
        <time>2026-08-21T11:07:36.000Z</time>
      </trkpt>
      <trkpt lat="45.25826" lon="6.03099">
        <ele>2020</ele>
        <time>2026-08-21T11:07:37.000Z</time>
      </trkpt>
      <trkpt lat="45.25826" lon="6.031">
        <ele>2019.8000488281</ele>
        <time>2026-08-21T11:07:38.000Z</time>
      </trkpt>
      <trkpt lat="45.25825" lon="6.03102">
        <ele>2019.5999755859</ele>
        <time>2026-08-21T11:07:39.000Z</time>
      </trkpt>
      <trkpt lat="45.25825" lon="6.03102">
        <ele>2019.4000244141</ele>
        <time>2026-08-21T11:07:40.000Z</time>
      </trkpt>
      <trkpt lat="45.25825" lon="6.03104">
        <ele>2018.4000244141</ele>
        <time>2026-08-21T11:07:41.000Z</time>
      </trkpt>
      <trkpt lat="45.25824" lon="6.03105">
        <ele>2017.8000488281</ele>
        <time>2026-08-21T11:07:42.000Z</time>
      </trkpt>
      <trkpt lat="45.25824" lon="6.03105">
        <ele>2017.5999755859</ele>
        <time>2026-08-21T11:07:43.000Z</time>
      </trkpt>
      <trkpt lat="45.25824" lon="6.03107">
        <ele>2017.5999755859</ele>
        <time>2026-08-21T11:07:44.000Z</time>
      </trkpt>
      <trkpt lat="45.25823" lon="6.03108">
        <ele>2017</ele>
        <time>2026-08-21T11:07:45.000Z</time>
      </trkpt>
      <trkpt lat="45.25823" lon="6.03109">
        <ele>2017.1999511719</ele>
        <time>2026-08-21T11:07:46.000Z</time>
      </trkpt>
      <trkpt lat="45.25823" lon="6.0311">
        <ele>2017.4000244141</ele>
        <time>2026-08-21T11:07:47.000Z</time>
      </trkpt>
      <trkpt lat="45.25822" lon="6.03111">
        <ele>2017.5999755859</ele>
        <time>2026-08-21T11:07:48.000Z</time>
      </trkpt>
      <trkpt lat="45.25822" lon="6.03112">
        <ele>2018</ele>
        <time>2026-08-21T11:07:49.000Z</time>
      </trkpt>
      <trkpt lat="45.25822" lon="6.03113">
        <ele>2018.5999755859</ele>
        <time>2026-08-21T11:07:50.000Z</time>
      </trkpt>
      <trkpt lat="45.25822" lon="6.03115">
        <ele>2019.1999511719</ele>
        <time>2026-08-21T11:07:51.000Z</time>
      </trkpt>
      <trkpt lat="45.25822" lon="6.03116">
        <ele>2020.1999511719</ele>
        <time>2026-08-21T11:07:52.000Z</time>
      </trkpt>
      <trkpt lat="45.25822" lon="6.03117">
        <ele>2020.5999755859</ele>
        <time>2026-08-21T11:07:53.000Z</time>
      </trkpt>
      <trkpt lat="45.25822" lon="6.03118">
        <ele>2021.1999511719</ele>
        <time>2026-08-21T11:07:54.000Z</time>
      </trkpt>
      <trkpt lat="45.25821" lon="6.03119">
        <ele>2021.5999755859</ele>
        <time>2026-08-21T11:07:55.000Z</time>
      </trkpt>
      <trkpt lat="45.25821" lon="6.0312">
        <ele>2022</ele>
        <time>2026-08-21T11:07:56.000Z</time>
      </trkpt>
      <trkpt lat="45.25821" lon="6.03121">
        <ele>2022.1999511719</ele>
        <time>2026-08-21T11:07:57.000Z</time>
      </trkpt>
      <trkpt lat="45.25821" lon="6.03122">
        <ele>2022.4000244141</ele>
        <time>2026-08-21T11:07:58.000Z</time>
      </trkpt>
      <trkpt lat="45.25821" lon="6.03123">
        <ele>2023</ele>
        <time>2026-08-21T11:07:59.000Z</time>
      </trkpt>
      <trkpt lat="45.25821" lon="6.03125">
        <ele>2023.5999755859</ele>
        <time>2026-08-21T11:08:00.000Z</time>
      </trkpt>
      <trkpt lat="45.2582" lon="6.03126">
        <ele>2024</ele>
        <time>2026-08-21T11:08:01.000Z</time>
      </trkpt>
      <trkpt lat="45.2582" lon="6.03128">
        <ele>2024.5999755859</ele>
        <time>2026-08-21T11:08:02.000Z</time>
      </trkpt>
      <trkpt lat="45.2582" lon="6.03129">
        <ele>2025.5999755859</ele>
        <time>2026-08-21T11:08:03.000Z</time>
      </trkpt>
      <trkpt lat="45.2582" lon="6.0313">
        <ele>2025.4000244141</ele>
        <time>2026-08-21T11:08:04.000Z</time>
      </trkpt>
      <trkpt lat="45.25819" lon="6.03131">
        <ele>2025.1999511719</ele>
        <time>2026-08-21T11:08:05.000Z</time>
      </trkpt>
      <trkpt lat="45.25819" lon="6.03132">
        <ele>2024.8000488281</ele>
        <time>2026-08-21T11:08:06.000Z</time>
      </trkpt>
      <trkpt lat="45.25819" lon="6.03132">
        <ele>2024.5999755859</ele>
        <time>2026-08-21T11:08:07.000Z</time>
      </trkpt>
      <trkpt lat="45.25818" lon="6.03133">
        <ele>2024.5999755859</ele>
        <time>2026-08-21T11:08:08.000Z</time>
      </trkpt>
      <trkpt lat="45.25818" lon="6.03134">
        <ele>2024.5999755859</ele>
        <time>2026-08-21T11:08:09.000Z</time>
      </trkpt>
      <trkpt lat="45.25818" lon="6.03135">
        <ele>2024.8000488281</ele>
        <time>2026-08-21T11:08:10.000Z</time>
      </trkpt>
      <trkpt lat="45.25818" lon="6.03136">
        <ele>2025</ele>
        <time>2026-08-21T11:08:11.000Z</time>
      </trkpt>
      <trkpt lat="45.25818" lon="6.03137">
        <ele>2025.4000244141</ele>
        <time>2026-08-21T11:08:12.000Z</time>
      </trkpt>
      <trkpt lat="45.25818" lon="6.03138">
        <ele>2025.8000488281</ele>
        <time>2026-08-21T11:08:13.000Z</time>
      </trkpt>
      <trkpt lat="45.25818" lon="6.03139">
        <ele>2026</ele>
        <time>2026-08-21T11:08:14.000Z</time>
      </trkpt>
      <trkpt lat="45.25818" lon="6.0314">
        <ele>2025.8000488281</ele>
        <time>2026-08-21T11:08:15.000Z</time>
      </trkpt>
      <trkpt lat="45.25818" lon="6.0314">
        <ele>2025.8000488281</ele>
        <time>2026-08-21T11:08:16.000Z</time>
      </trkpt>
      <trkpt lat="45.25818" lon="6.03141">
        <ele>2025.5999755859</ele>
        <time>2026-08-21T11:08:17.000Z</time>
      </trkpt>
      <trkpt lat="45.25818" lon="6.03142">
        <ele>2025.4000244141</ele>
        <time>2026-08-21T11:08:18.000Z</time>
      </trkpt>
      <trkpt lat="45.25818" lon="6.03144">
        <ele>2025.4000244141</ele>
        <time>2026-08-21T11:08:19.000Z</time>
      </trkpt>
      <trkpt lat="45.25818" lon="6.03145">
        <ele>2025.5999755859</ele>
        <time>2026-08-21T11:08:20.000Z</time>
      </trkpt>
      <trkpt lat="45.25818" lon="6.03146">
        <ele>2025.8000488281</ele>
        <time>2026-08-21T11:08:21.000Z</time>
      </trkpt>
      <trkpt lat="45.25817" lon="6.03147">
        <ele>2026.1999511719</ele>
        <time>2026-08-21T11:08:22.000Z</time>
      </trkpt>
      <trkpt lat="45.25817" lon="6.03148">
        <ele>2026.4000244141</ele>
        <time>2026-08-21T11:08:23.000Z</time>
      </trkpt>
      <trkpt lat="45.25817" lon="6.03149">
        <ele>2026.5999755859</ele>
        <time>2026-08-21T11:08:24.000Z</time>
      </trkpt>
      <trkpt lat="45.25817" lon="6.0315">
        <ele>2027.4000244141</ele>
        <time>2026-08-21T11:08:25.000Z</time>
      </trkpt>
      <trkpt lat="45.25817" lon="6.0315">
        <ele>2027.5999755859</ele>
        <time>2026-08-21T11:08:26.000Z</time>
      </trkpt>
      <trkpt lat="45.25817" lon="6.0315">
        <ele>2027.8000488281</ele>
        <time>2026-08-21T11:08:27.000Z</time>
      </trkpt>
      <trkpt lat="45.25816" lon="6.03152">
        <ele>2028</ele>
        <time>2026-08-21T11:08:28.000Z</time>
      </trkpt>
      <trkpt lat="45.25816" lon="6.03153">
        <ele>2028.1999511719</ele>
        <time>2026-08-21T11:08:29.000Z</time>
      </trkpt>
      <trkpt lat="45.25816" lon="6.03154">
        <ele>2028.1999511719</ele>
        <time>2026-08-21T11:08:30.000Z</time>
      </trkpt>
      <trkpt lat="45.25816" lon="6.03154">
        <ele>2028.4000244141</ele>
        <time>2026-08-21T11:08:31.000Z</time>
      </trkpt>
      <trkpt lat="45.25816" lon="6.03154">
        <ele>2028.4000244141</ele>
        <time>2026-08-21T11:08:32.000Z</time>
      </trkpt>
      <trkpt lat="45.25815" lon="6.03156">
        <ele>2028.5999755859</ele>
        <time>2026-08-21T11:08:33.000Z</time>
      </trkpt>
      <trkpt lat="45.25815" lon="6.03158">
        <ele>2029</ele>
        <time>2026-08-21T11:08:34.000Z</time>
      </trkpt>
      <trkpt lat="45.25816" lon="6.03159">
        <ele>2029.1999511719</ele>
        <time>2026-08-21T11:08:35.000Z</time>
      </trkpt>
      <trkpt lat="45.25816" lon="6.0316">
        <ele>2029.5999755859</ele>
        <time>2026-08-21T11:08:36.000Z</time>
      </trkpt>
      <trkpt lat="45.25816" lon="6.03161">
        <ele>2029.8000488281</ele>
        <time>2026-08-21T11:08:37.000Z</time>
      </trkpt>
      <trkpt lat="45.25816" lon="6.03162">
        <ele>2029.8000488281</ele>
        <time>2026-08-21T11:08:38.000Z</time>
      </trkpt>
      <trkpt lat="45.25816" lon="6.03163">
        <ele>2030</ele>
        <time>2026-08-21T11:08:39.000Z</time>
      </trkpt>
      <trkpt lat="45.25816" lon="6.03164">
        <ele>2030.4000244141</ele>
        <time>2026-08-21T11:08:40.000Z</time>
      </trkpt>
      <trkpt lat="45.25817" lon="6.03165">
        <ele>2030.5999755859</ele>
        <time>2026-08-21T11:08:41.000Z</time>
      </trkpt>
      <trkpt lat="45.25817" lon="6.03166">
        <ele>2031</ele>
        <time>2026-08-21T11:08:42.000Z</time>
      </trkpt>
      <trkpt lat="45.25817" lon="6.03166">
        <ele>2031.4000244141</ele>
        <time>2026-08-21T11:08:43.000Z</time>
      </trkpt>
      <trkpt lat="45.25818" lon="6.03167">
        <ele>2031.5999755859</ele>
        <time>2026-08-21T11:08:44.000Z</time>
      </trkpt>
      <trkpt lat="45.25818" lon="6.03168">
        <ele>2032.1999511719</ele>
        <time>2026-08-21T11:08:45.000Z</time>
      </trkpt>
      <trkpt lat="45.25818" lon="6.03169">
        <ele>2032.5999755859</ele>
        <time>2026-08-21T11:08:46.000Z</time>
      </trkpt>
      <trkpt lat="45.25818" lon="6.0317">
        <ele>2033.1999511719</ele>
        <time>2026-08-21T11:08:47.000Z</time>
      </trkpt>
      <trkpt lat="45.25819" lon="6.03171">
        <ele>2034.1999511719</ele>
        <time>2026-08-21T11:08:48.000Z</time>
      </trkpt>
      <trkpt lat="45.25819" lon="6.03172">
        <ele>2034.8000488281</ele>
        <time>2026-08-21T11:08:49.000Z</time>
      </trkpt>
      <trkpt lat="45.2582" lon="6.03173">
        <ele>2035.5999755859</ele>
        <time>2026-08-21T11:08:50.000Z</time>
      </trkpt>
      <trkpt lat="45.2582" lon="6.03174">
        <ele>2036.1999511719</ele>
        <time>2026-08-21T11:08:51.000Z</time>
      </trkpt>
      <trkpt lat="45.2582" lon="6.03176">
        <ele>2036.8000488281</ele>
        <time>2026-08-21T11:08:52.000Z</time>
      </trkpt>
      <trkpt lat="45.25821" lon="6.03177">
        <ele>2038.1999511719</ele>
        <time>2026-08-21T11:08:53.000Z</time>
      </trkpt>
      <trkpt lat="45.25821" lon="6.03178">
        <ele>2039.5999755859</ele>
        <time>2026-08-21T11:08:54.000Z</time>
      </trkpt>
      <trkpt lat="45.25821" lon="6.03179">
        <ele>2040.1999511719</ele>
        <time>2026-08-21T11:08:55.000Z</time>
      </trkpt>
      <trkpt lat="45.25822" lon="6.0318">
        <ele>2041</ele>
        <time>2026-08-21T11:08:56.000Z</time>
      </trkpt>
      <trkpt lat="45.25822" lon="6.03181">
        <ele>2042</ele>
        <time>2026-08-21T11:08:57.000Z</time>
      </trkpt>
      <trkpt lat="45.25823" lon="6.03182">
        <ele>2042.8000488281</ele>
        <time>2026-08-21T11:08:58.000Z</time>
      </trkpt>
      <trkpt lat="45.25823" lon="6.03183">
        <ele>2043</ele>
        <time>2026-08-21T11:08:59.000Z</time>
      </trkpt>
      <trkpt lat="45.25824" lon="6.03185">
        <ele>2043.1999511719</ele>
        <time>2026-08-21T11:09:00.000Z</time>
      </trkpt>
      <trkpt lat="45.25825" lon="6.03186">
        <ele>2043.4000244141</ele>
        <time>2026-08-21T11:09:01.000Z</time>
      </trkpt>
      <trkpt lat="45.25826" lon="6.03187">
        <ele>2043.5999755859</ele>
        <time>2026-08-21T11:09:02.000Z</time>
      </trkpt>
      <trkpt lat="45.25827" lon="6.03188">
        <ele>2043.1999511719</ele>
        <time>2026-08-21T11:09:03.000Z</time>
      </trkpt>
      <trkpt lat="45.25828" lon="6.03188">
        <ele>2042.4000244141</ele>
        <time>2026-08-21T11:09:04.000Z</time>
      </trkpt>
      <trkpt lat="45.25829" lon="6.03189">
        <ele>2042.1999511719</ele>
        <time>2026-08-21T11:09:05.000Z</time>
      </trkpt>
      <trkpt lat="45.2583" lon="6.0319">
        <ele>2042</ele>
        <time>2026-08-21T11:09:06.000Z</time>
      </trkpt>
      <trkpt lat="45.25831" lon="6.03192">
        <ele>2041.8000488281</ele>
        <time>2026-08-21T11:09:07.000Z</time>
      </trkpt>
      <trkpt lat="45.25832" lon="6.03193">
        <ele>2041.8000488281</ele>
        <time>2026-08-21T11:09:08.000Z</time>
      </trkpt>
      <trkpt lat="45.25833" lon="6.03194">
        <ele>2041.5999755859</ele>
        <time>2026-08-21T11:09:09.000Z</time>
      </trkpt>
      <trkpt lat="45.25834" lon="6.03195">
        <ele>2043</ele>
        <time>2026-08-21T11:09:10.000Z</time>
      </trkpt>
      <trkpt lat="45.25835" lon="6.03197">
        <ele>2043.5999755859</ele>
        <time>2026-08-21T11:09:11.000Z</time>
      </trkpt>
      <trkpt lat="45.25836" lon="6.03198">
        <ele>2044.1999511719</ele>
        <time>2026-08-21T11:09:12.000Z</time>
      </trkpt>
      <trkpt lat="45.25838" lon="6.032">
        <ele>2044.5999755859</ele>
        <time>2026-08-21T11:09:13.000Z</time>
      </trkpt>
      <trkpt lat="45.25839" lon="6.03201">
        <ele>2045.1999511719</ele>
        <time>2026-08-21T11:09:14.000Z</time>
      </trkpt>
      <trkpt lat="45.25841" lon="6.03202">
        <ele>2045.5999755859</ele>
        <time>2026-08-21T11:09:15.000Z</time>
      </trkpt>
      <trkpt lat="45.25842" lon="6.03203">
        <ele>2044.5999755859</ele>
        <time>2026-08-21T11:09:16.000Z</time>
      </trkpt>
      <trkpt lat="45.25843" lon="6.03204">
        <ele>2043</ele>
        <time>2026-08-21T11:09:17.000Z</time>
      </trkpt>
      <trkpt lat="45.25844" lon="6.03204">
        <ele>2042</ele>
        <time>2026-08-21T11:09:18.000Z</time>
      </trkpt>
      <trkpt lat="45.25845" lon="6.03205">
        <ele>2041.1999511719</ele>
        <time>2026-08-21T11:09:19.000Z</time>
      </trkpt>
      <trkpt lat="45.25846" lon="6.03207">
        <ele>2041</ele>
        <time>2026-08-21T11:09:20.000Z</time>
      </trkpt>
      <trkpt lat="45.25846" lon="6.03209">
        <ele>2040.1999511719</ele>
        <time>2026-08-21T11:09:21.000Z</time>
      </trkpt>
      <trkpt lat="45.25847" lon="6.0321">
        <ele>2039.4000244141</ele>
        <time>2026-08-21T11:09:22.000Z</time>
      </trkpt>
      <trkpt lat="45.25848" lon="6.03211">
        <ele>2039.8000488281</ele>
        <time>2026-08-21T11:09:23.000Z</time>
      </trkpt>
      <trkpt lat="45.25849" lon="6.03213">
        <ele>2040</ele>
        <time>2026-08-21T11:09:24.000Z</time>
      </trkpt>
      <trkpt lat="45.2585" lon="6.03214">
        <ele>2040.5999755859</ele>
        <time>2026-08-21T11:09:25.000Z</time>
      </trkpt>
      <trkpt lat="45.25851" lon="6.03216">
        <ele>2040.8000488281</ele>
        <time>2026-08-21T11:09:26.000Z</time>
      </trkpt>
      <trkpt lat="45.25852" lon="6.03217">
        <ele>2041</ele>
        <time>2026-08-21T11:09:27.000Z</time>
      </trkpt>
      <trkpt lat="45.25852" lon="6.03218">
        <ele>2041.1999511719</ele>
        <time>2026-08-21T11:09:28.000Z</time>
      </trkpt>
      <trkpt lat="45.25853" lon="6.03219">
        <ele>2041.1999511719</ele>
        <time>2026-08-21T11:09:29.000Z</time>
      </trkpt>
      <trkpt lat="45.25853" lon="6.03221">
        <ele>2041.1999511719</ele>
        <time>2026-08-21T11:09:30.000Z</time>
      </trkpt>
      <trkpt lat="45.25854" lon="6.03222">
        <ele>2041.4000244141</ele>
        <time>2026-08-21T11:09:31.000Z</time>
      </trkpt>
      <trkpt lat="45.25855" lon="6.03223">
        <ele>2041.8000488281</ele>
        <time>2026-08-21T11:09:32.000Z</time>
      </trkpt>
      <trkpt lat="45.25855" lon="6.03224">
        <ele>2042</ele>
        <time>2026-08-21T11:09:33.000Z</time>
      </trkpt>
      <trkpt lat="45.25856" lon="6.03225">
        <ele>2042.4000244141</ele>
        <time>2026-08-21T11:09:34.000Z</time>
      </trkpt>
      <trkpt lat="45.25856" lon="6.03226">
        <ele>2042.5999755859</ele>
        <time>2026-08-21T11:09:35.000Z</time>
      </trkpt>
      <trkpt lat="45.25856" lon="6.03228">
        <ele>2043</ele>
        <time>2026-08-21T11:09:36.000Z</time>
      </trkpt>
      <trkpt lat="45.25857" lon="6.03229">
        <ele>2043.5999755859</ele>
        <time>2026-08-21T11:09:37.000Z</time>
      </trkpt>
      <trkpt lat="45.25857" lon="6.0323">
        <ele>2044</ele>
        <time>2026-08-21T11:09:38.000Z</time>
      </trkpt>
      <trkpt lat="45.25857" lon="6.03231">
        <ele>2044</ele>
        <time>2026-08-21T11:09:39.000Z</time>
      </trkpt>
      <trkpt lat="45.25858" lon="6.03232">
        <ele>2044.1999511719</ele>
        <time>2026-08-21T11:09:40.000Z</time>
      </trkpt>
      <trkpt lat="45.25858" lon="6.03233">
        <ele>2044.1999511719</ele>
        <time>2026-08-21T11:09:41.000Z</time>
      </trkpt>
      <trkpt lat="45.25858" lon="6.03234">
        <ele>2044.5999755859</ele>
        <time>2026-08-21T11:09:42.000Z</time>
      </trkpt>
      <trkpt lat="45.25859" lon="6.03236">
        <ele>2044.8000488281</ele>
        <time>2026-08-21T11:09:43.000Z</time>
      </trkpt>
      <trkpt lat="45.25859" lon="6.03237">
        <ele>2045.5999755859</ele>
        <time>2026-08-21T11:09:44.000Z</time>
      </trkpt>
      <trkpt lat="45.2586" lon="6.03238">
        <ele>2046.1999511719</ele>
        <time>2026-08-21T11:09:45.000Z</time>
      </trkpt>
      <trkpt lat="45.2586" lon="6.03239">
        <ele>2047</ele>
        <time>2026-08-21T11:09:46.000Z</time>
      </trkpt>
      <trkpt lat="45.2586" lon="6.0324">
        <ele>2047.4000244141</ele>
        <time>2026-08-21T11:09:47.000Z</time>
      </trkpt>
      <trkpt lat="45.25861" lon="6.03241">
        <ele>2048</ele>
        <time>2026-08-21T11:09:48.000Z</time>
      </trkpt>
      <trkpt lat="45.25861" lon="6.03242">
        <ele>2048.6000976562</ele>
        <time>2026-08-21T11:09:49.000Z</time>
      </trkpt>
      <trkpt lat="45.25862" lon="6.03244">
        <ele>2049</ele>
        <time>2026-08-21T11:09:50.000Z</time>
      </trkpt>
      <trkpt lat="45.25862" lon="6.03245">
        <ele>2049.1999511719</ele>
        <time>2026-08-21T11:09:51.000Z</time>
      </trkpt>
      <trkpt lat="45.25863" lon="6.03246">
        <ele>2050.1999511719</ele>
        <time>2026-08-21T11:09:52.000Z</time>
      </trkpt>
      <trkpt lat="45.25863" lon="6.03247">
        <ele>2050.6000976562</ele>
        <time>2026-08-21T11:09:53.000Z</time>
      </trkpt>
      <trkpt lat="45.25863" lon="6.03248">
        <ele>2050.8000488281</ele>
        <time>2026-08-21T11:09:54.000Z</time>
      </trkpt>
      <trkpt lat="45.25863" lon="6.03249">
        <ele>2051.1999511719</ele>
        <time>2026-08-21T11:09:55.000Z</time>
      </trkpt>
      <trkpt lat="45.25863" lon="6.03251">
        <ele>2051.3999023438</ele>
        <time>2026-08-21T11:09:56.000Z</time>
      </trkpt>
      <trkpt lat="45.25864" lon="6.03252">
        <ele>2051.1999511719</ele>
        <time>2026-08-21T11:09:57.000Z</time>
      </trkpt>
      <trkpt lat="45.25864" lon="6.03253">
        <ele>2051.3999023438</ele>
        <time>2026-08-21T11:09:58.000Z</time>
      </trkpt>
      <trkpt lat="45.25864" lon="6.03254">
        <ele>2051.3999023438</ele>
        <time>2026-08-21T11:09:59.000Z</time>
      </trkpt>
      <trkpt lat="45.25865" lon="6.03255">
        <ele>2051.3999023438</ele>
        <time>2026-08-21T11:10:00.000Z</time>
      </trkpt>
      <trkpt lat="45.25865" lon="6.03256">
        <ele>2051.6000976562</ele>
        <time>2026-08-21T11:10:01.000Z</time>
      </trkpt>
      <trkpt lat="45.25865" lon="6.03258">
        <ele>2051.8000488281</ele>
        <time>2026-08-21T11:10:02.000Z</time>
      </trkpt>
      <trkpt lat="45.25866" lon="6.03259">
        <ele>2052</ele>
        <time>2026-08-21T11:10:03.000Z</time>
      </trkpt>
      <trkpt lat="45.25866" lon="6.0326">
        <ele>2052.1999511719</ele>
        <time>2026-08-21T11:10:04.000Z</time>
      </trkpt>
      <trkpt lat="45.25867" lon="6.03261">
        <ele>2052.1999511719</ele>
        <time>2026-08-21T11:10:05.000Z</time>
      </trkpt>
      <trkpt lat="45.25867" lon="6.03263">
        <ele>2052.1999511719</ele>
        <time>2026-08-21T11:10:06.000Z</time>
      </trkpt>
      <trkpt lat="45.25868" lon="6.03264">
        <ele>2052.1999511719</ele>
        <time>2026-08-21T11:10:07.000Z</time>
      </trkpt>
      <trkpt lat="45.25869" lon="6.03264">
        <ele>2052.3999023438</ele>
        <time>2026-08-21T11:10:08.000Z</time>
      </trkpt>
      <trkpt lat="45.25869" lon="6.03265">
        <ele>2052.3999023438</ele>
        <time>2026-08-21T11:10:09.000Z</time>
      </trkpt>
      <trkpt lat="45.2587" lon="6.03266">
        <ele>2052.8000488281</ele>
        <time>2026-08-21T11:10:10.000Z</time>
      </trkpt>
      <trkpt lat="45.2587" lon="6.03268">
        <ele>2053</ele>
        <time>2026-08-21T11:10:11.000Z</time>
      </trkpt>
      <trkpt lat="45.25871" lon="6.03269">
        <ele>2053.1999511719</ele>
        <time>2026-08-21T11:10:12.000Z</time>
      </trkpt>
      <trkpt lat="45.25871" lon="6.03271">
        <ele>2053.1999511719</ele>
        <time>2026-08-21T11:10:13.000Z</time>
      </trkpt>
      <trkpt lat="45.25872" lon="6.03272">
        <ele>2053.3999023438</ele>
        <time>2026-08-21T11:10:14.000Z</time>
      </trkpt>
      <trkpt lat="45.25873" lon="6.03273">
        <ele>2053.8000488281</ele>
        <time>2026-08-21T11:10:15.000Z</time>
      </trkpt>
      <trkpt lat="45.25873" lon="6.03275">
        <ele>2054</ele>
        <time>2026-08-21T11:10:16.000Z</time>
      </trkpt>
      <trkpt lat="45.25873" lon="6.03276">
        <ele>2054.1999511719</ele>
        <time>2026-08-21T11:10:17.000Z</time>
      </trkpt>
      <trkpt lat="45.25874" lon="6.03278">
        <ele>2054.6000976562</ele>
        <time>2026-08-21T11:10:18.000Z</time>
      </trkpt>
      <trkpt lat="45.25875" lon="6.0328">
        <ele>2054.8000488281</ele>
        <time>2026-08-21T11:10:19.000Z</time>
      </trkpt>
      <trkpt lat="45.25876" lon="6.03281">
        <ele>2055</ele>
        <time>2026-08-21T11:10:20.000Z</time>
      </trkpt>
      <trkpt lat="45.25877" lon="6.03283">
        <ele>2055.1999511719</ele>
        <time>2026-08-21T11:10:21.000Z</time>
      </trkpt>
      <trkpt lat="45.25878" lon="6.03285">
        <ele>2055.1999511719</ele>
        <time>2026-08-21T11:10:22.000Z</time>
      </trkpt>
      <trkpt lat="45.25879" lon="6.03287">
        <ele>2055.3999023438</ele>
        <time>2026-08-21T11:10:23.000Z</time>
      </trkpt>
      <trkpt lat="45.2588" lon="6.03288">
        <ele>2055.8000488281</ele>
        <time>2026-08-21T11:10:24.000Z</time>
      </trkpt>
      <trkpt lat="45.25882" lon="6.0329">
        <ele>2056</ele>
        <time>2026-08-21T11:10:25.000Z</time>
      </trkpt>
      <trkpt lat="45.25883" lon="6.03292">
        <ele>2057</ele>
        <time>2026-08-21T11:10:26.000Z</time>
      </trkpt>
      <trkpt lat="45.25885" lon="6.03293">
        <ele>2057.3999023438</ele>
        <time>2026-08-21T11:10:27.000Z</time>
      </trkpt>
      <trkpt lat="45.25887" lon="6.03295">
        <ele>2058.1999511719</ele>
        <time>2026-08-21T11:10:28.000Z</time>
      </trkpt>
      <trkpt lat="45.25888" lon="6.03298">
        <ele>2059</ele>
        <time>2026-08-21T11:10:29.000Z</time>
      </trkpt>
      <trkpt lat="45.2589" lon="6.03299">
        <ele>2059.6000976562</ele>
        <time>2026-08-21T11:10:30.000Z</time>
      </trkpt>
      <trkpt lat="45.25892" lon="6.03301">
        <ele>2060.3999023438</ele>
        <time>2026-08-21T11:10:31.000Z</time>
      </trkpt>
      <trkpt lat="45.25894" lon="6.03303">
        <ele>2061.1999511719</ele>
        <time>2026-08-21T11:10:32.000Z</time>
      </trkpt>
      <trkpt lat="45.25896" lon="6.03304">
        <ele>2061.8000488281</ele>
        <time>2026-08-21T11:10:33.000Z</time>
      </trkpt>
      <trkpt lat="45.25898" lon="6.03306">
        <ele>2062</ele>
        <time>2026-08-21T11:10:34.000Z</time>
      </trkpt>
      <trkpt lat="45.259" lon="6.03308">
        <ele>2062</ele>
        <time>2026-08-21T11:10:35.000Z</time>
      </trkpt>
      <trkpt lat="45.25902" lon="6.0331">
        <ele>2062</ele>
        <time>2026-08-21T11:10:36.000Z</time>
      </trkpt>
      <trkpt lat="45.25904" lon="6.03312">
        <ele>2062.1999511719</ele>
        <time>2026-08-21T11:10:37.000Z</time>
      </trkpt>
      <trkpt lat="45.25906" lon="6.03314">
        <ele>2062.3999023438</ele>
        <time>2026-08-21T11:10:38.000Z</time>
      </trkpt>
      <trkpt lat="45.25908" lon="6.03316">
        <ele>2062.6000976562</ele>
        <time>2026-08-21T11:10:39.000Z</time>
      </trkpt>
      <trkpt lat="45.2591" lon="6.03317">
        <ele>2063</ele>
        <time>2026-08-21T11:10:40.000Z</time>
      </trkpt>
      <trkpt lat="45.25912" lon="6.03319">
        <ele>2063.1999511719</ele>
        <time>2026-08-21T11:10:41.000Z</time>
      </trkpt>
      <trkpt lat="45.25913" lon="6.0332">
        <ele>2063.6000976562</ele>
        <time>2026-08-21T11:10:42.000Z</time>
      </trkpt>
      <trkpt lat="45.25915" lon="6.03322">
        <ele>2063.6000976562</ele>
        <time>2026-08-21T11:10:43.000Z</time>
      </trkpt>
      <trkpt lat="45.25916" lon="6.03324">
        <ele>2063.8000488281</ele>
        <time>2026-08-21T11:10:44.000Z</time>
      </trkpt>
      <trkpt lat="45.25918" lon="6.03326">
        <ele>2064</ele>
        <time>2026-08-21T11:10:45.000Z</time>
      </trkpt>
      <trkpt lat="45.25919" lon="6.03328">
        <ele>2064</ele>
        <time>2026-08-21T11:10:46.000Z</time>
      </trkpt>
      <trkpt lat="45.2592" lon="6.03331">
        <ele>2065.1999511719</ele>
        <time>2026-08-21T11:10:47.000Z</time>
      </trkpt>
      <trkpt lat="45.25921" lon="6.03333">
        <ele>2065.8000488281</ele>
        <time>2026-08-21T11:10:48.000Z</time>
      </trkpt>
      <trkpt lat="45.25922" lon="6.03335">
        <ele>2067</ele>
        <time>2026-08-21T11:10:49.000Z</time>
      </trkpt>
      <trkpt lat="45.25922" lon="6.03337">
        <ele>2067.3999023438</ele>
        <time>2026-08-21T11:10:50.000Z</time>
      </trkpt>
      <trkpt lat="45.25923" lon="6.03338">
        <ele>2068</ele>
        <time>2026-08-21T11:10:51.000Z</time>
      </trkpt>
      <trkpt lat="45.25924" lon="6.0334">
        <ele>2069.3999023438</ele>
        <time>2026-08-21T11:10:52.000Z</time>
      </trkpt>
      <trkpt lat="45.25925" lon="6.03342">
        <ele>2070</ele>
        <time>2026-08-21T11:10:53.000Z</time>
      </trkpt>
      <trkpt lat="45.25926" lon="6.03344">
        <ele>2070.8000488281</ele>
        <time>2026-08-21T11:10:54.000Z</time>
      </trkpt>
      <trkpt lat="45.25927" lon="6.03346">
        <ele>2071.6000976562</ele>
        <time>2026-08-21T11:10:55.000Z</time>
      </trkpt>
      <trkpt lat="45.25929" lon="6.03348">
        <ele>2072</ele>
        <time>2026-08-21T11:10:56.000Z</time>
      </trkpt>
      <trkpt lat="45.2593" lon="6.03349">
        <ele>2072.1999511719</ele>
        <time>2026-08-21T11:10:57.000Z</time>
      </trkpt>
      <trkpt lat="45.25931" lon="6.03351">
        <ele>2072.1999511719</ele>
        <time>2026-08-21T11:10:58.000Z</time>
      </trkpt>
      <trkpt lat="45.25932" lon="6.03352">
        <ele>2072.1999511719</ele>
        <time>2026-08-21T11:10:59.000Z</time>
      </trkpt>
      <trkpt lat="45.25933" lon="6.03354">
        <ele>2072.1999511719</ele>
        <time>2026-08-21T11:11:00.000Z</time>
      </trkpt>
      <trkpt lat="45.25935" lon="6.03355">
        <ele>2072.3999023438</ele>
        <time>2026-08-21T11:11:01.000Z</time>
      </trkpt>
      <trkpt lat="45.25936" lon="6.03358">
        <ele>2072.8000488281</ele>
        <time>2026-08-21T11:11:02.000Z</time>
      </trkpt>
      <trkpt lat="45.25937" lon="6.03359">
        <ele>2073.3999023438</ele>
        <time>2026-08-21T11:11:03.000Z</time>
      </trkpt>
      <trkpt lat="45.25939" lon="6.03361">
        <ele>2073.8000488281</ele>
        <time>2026-08-21T11:11:04.000Z</time>
      </trkpt>
      <trkpt lat="45.2594" lon="6.03362">
        <ele>2074.6000976562</ele>
        <time>2026-08-21T11:11:05.000Z</time>
      </trkpt>
      <trkpt lat="45.25941" lon="6.03364">
        <ele>2075.1999511719</ele>
        <time>2026-08-21T11:11:06.000Z</time>
      </trkpt>
      <trkpt lat="45.25943" lon="6.03365">
        <ele>2076</ele>
        <time>2026-08-21T11:11:07.000Z</time>
      </trkpt>
      <trkpt lat="45.25944" lon="6.03367">
        <ele>2077.3999023438</ele>
        <time>2026-08-21T11:11:08.000Z</time>
      </trkpt>
      <trkpt lat="45.25946" lon="6.03369">
        <ele>2077.8000488281</ele>
        <time>2026-08-21T11:11:09.000Z</time>
      </trkpt>
      <trkpt lat="45.25947" lon="6.0337">
        <ele>2078</ele>
        <time>2026-08-21T11:11:10.000Z</time>
      </trkpt>
      <trkpt lat="45.25948" lon="6.03371">
        <ele>2078</ele>
        <time>2026-08-21T11:11:11.000Z</time>
      </trkpt>
      <trkpt lat="45.2595" lon="6.03372">
        <ele>2078</ele>
        <time>2026-08-21T11:11:12.000Z</time>
      </trkpt>
      <trkpt lat="45.25951" lon="6.03373">
        <ele>2076.3999023438</ele>
        <time>2026-08-21T11:11:13.000Z</time>
      </trkpt>
      <trkpt lat="45.25952" lon="6.03375">
        <ele>2076</ele>
        <time>2026-08-21T11:11:14.000Z</time>
      </trkpt>
      <trkpt lat="45.25954" lon="6.03376">
        <ele>2074.8000488281</ele>
        <time>2026-08-21T11:11:15.000Z</time>
      </trkpt>
      <trkpt lat="45.25955" lon="6.03377">
        <ele>2074</ele>
        <time>2026-08-21T11:11:16.000Z</time>
      </trkpt>
      <trkpt lat="45.25956" lon="6.03379">
        <ele>2073.6000976562</ele>
        <time>2026-08-21T11:11:17.000Z</time>
      </trkpt>
      <trkpt lat="45.25958" lon="6.0338">
        <ele>2073.3999023438</ele>
        <time>2026-08-21T11:11:18.000Z</time>
      </trkpt>
      <trkpt lat="45.25959" lon="6.03381">
        <ele>2072.3999023438</ele>
        <time>2026-08-21T11:11:19.000Z</time>
      </trkpt>
      <trkpt lat="45.2596" lon="6.03382">
        <ele>2071.8000488281</ele>
        <time>2026-08-21T11:11:20.000Z</time>
      </trkpt>
      <trkpt lat="45.25961" lon="6.03383">
        <ele>2071.3999023438</ele>
        <time>2026-08-21T11:11:21.000Z</time>
      </trkpt>
      <trkpt lat="45.25963" lon="6.03384">
        <ele>2071</ele>
        <time>2026-08-21T11:11:22.000Z</time>
      </trkpt>
      <trkpt lat="45.25964" lon="6.03385">
        <ele>2070.3999023438</ele>
        <time>2026-08-21T11:11:23.000Z</time>
      </trkpt>
      <trkpt lat="45.25965" lon="6.03386">
        <ele>2070.1999511719</ele>
        <time>2026-08-21T11:11:24.000Z</time>
      </trkpt>
      <trkpt lat="45.25967" lon="6.03387">
        <ele>2070</ele>
        <time>2026-08-21T11:11:25.000Z</time>
      </trkpt>
      <trkpt lat="45.25968" lon="6.03389">
        <ele>2069.3999023438</ele>
        <time>2026-08-21T11:11:26.000Z</time>
      </trkpt>
      <trkpt lat="45.25969" lon="6.03391">
        <ele>2068.6000976562</ele>
        <time>2026-08-21T11:11:27.000Z</time>
      </trkpt>
      <trkpt lat="45.25971" lon="6.03391">
        <ele>2068.1999511719</ele>
        <time>2026-08-21T11:11:28.000Z</time>
      </trkpt>
      <trkpt lat="45.25972" lon="6.03392">
        <ele>2068</ele>
        <time>2026-08-21T11:11:29.000Z</time>
      </trkpt>
      <trkpt lat="45.25973" lon="6.03393">
        <ele>2067</ele>
        <time>2026-08-21T11:11:30.000Z</time>
      </trkpt>
      <trkpt lat="45.25974" lon="6.03394">
        <ele>2065.8000488281</ele>
        <time>2026-08-21T11:11:31.000Z</time>
      </trkpt>
      <trkpt lat="45.25976" lon="6.03396">
        <ele>2065.1999511719</ele>
        <time>2026-08-21T11:11:32.000Z</time>
      </trkpt>
      <trkpt lat="45.25977" lon="6.03396">
        <ele>2065.1999511719</ele>
        <time>2026-08-21T11:11:33.000Z</time>
      </trkpt>
      <trkpt lat="45.25978" lon="6.03397">
        <ele>2065.1999511719</ele>
        <time>2026-08-21T11:11:34.000Z</time>
      </trkpt>
      <trkpt lat="45.25979" lon="6.03398">
        <ele>2065.1999511719</ele>
        <time>2026-08-21T11:11:35.000Z</time>
      </trkpt>
      <trkpt lat="45.2598" lon="6.03399">
        <ele>2065.3999023438</ele>
        <time>2026-08-21T11:11:36.000Z</time>
      </trkpt>
      <trkpt lat="45.25981" lon="6.03399">
        <ele>2065.6000976562</ele>
        <time>2026-08-21T11:11:37.000Z</time>
      </trkpt>
      <trkpt lat="45.25982" lon="6.03401">
        <ele>2066.3999023438</ele>
        <time>2026-08-21T11:11:38.000Z</time>
      </trkpt>
      <trkpt lat="45.25983" lon="6.03402">
        <ele>2067.6000976562</ele>
        <time>2026-08-21T11:11:39.000Z</time>
      </trkpt>
      <trkpt lat="45.25984" lon="6.03403">
        <ele>2068.1999511719</ele>
        <time>2026-08-21T11:11:40.000Z</time>
      </trkpt>
      <trkpt lat="45.25985" lon="6.03404">
        <ele>2068.6000976562</ele>
        <time>2026-08-21T11:11:41.000Z</time>
      </trkpt>
      <trkpt lat="45.25986" lon="6.03406">
        <ele>2068.6000976562</ele>
        <time>2026-08-21T11:11:42.000Z</time>
      </trkpt>
      <trkpt lat="45.25987" lon="6.03407">
        <ele>2068.8000488281</ele>
        <time>2026-08-21T11:11:43.000Z</time>
      </trkpt>
      <trkpt lat="45.25989" lon="6.03408">
        <ele>2068.8000488281</ele>
        <time>2026-08-21T11:11:44.000Z</time>
      </trkpt>
      <trkpt lat="45.2599" lon="6.03409">
        <ele>2068.8000488281</ele>
        <time>2026-08-21T11:11:45.000Z</time>
      </trkpt>
      <trkpt lat="45.25992" lon="6.0341">
        <ele>2069.3999023438</ele>
        <time>2026-08-21T11:11:46.000Z</time>
      </trkpt>
      <trkpt lat="45.25993" lon="6.0341">
        <ele>2069.3999023438</ele>
        <time>2026-08-21T11:11:47.000Z</time>
      </trkpt>
      <trkpt lat="45.25994" lon="6.03411">
        <ele>2069.8000488281</ele>
        <time>2026-08-21T11:11:48.000Z</time>
      </trkpt>
      <trkpt lat="45.25995" lon="6.03412">
        <ele>2070</ele>
        <time>2026-08-21T11:11:49.000Z</time>
      </trkpt>
      <trkpt lat="45.25997" lon="6.03412">
        <ele>2070.3999023438</ele>
        <time>2026-08-21T11:11:50.000Z</time>
      </trkpt>
      <trkpt lat="45.25998" lon="6.03414">
        <ele>2070.6000976562</ele>
        <time>2026-08-21T11:11:51.000Z</time>
      </trkpt>
      <trkpt lat="45.25999" lon="6.03414">
        <ele>2070.3999023438</ele>
        <time>2026-08-21T11:11:52.000Z</time>
      </trkpt>
      <trkpt lat="45.26" lon="6.03415">
        <ele>2070</ele>
        <time>2026-08-21T11:11:53.000Z</time>
      </trkpt>
      <trkpt lat="45.26001" lon="6.03416">
        <ele>2069.6000976562</ele>
        <time>2026-08-21T11:11:54.000Z</time>
      </trkpt>
      <trkpt lat="45.26003" lon="6.03417">
        <ele>2069.1999511719</ele>
        <time>2026-08-21T11:11:55.000Z</time>
      </trkpt>
      <trkpt lat="45.26004" lon="6.03417">
        <ele>2068.8000488281</ele>
        <time>2026-08-21T11:11:56.000Z</time>
      </trkpt>
      <trkpt lat="45.26005" lon="6.03419">
        <ele>2068.3999023438</ele>
        <time>2026-08-21T11:11:57.000Z</time>
      </trkpt>
      <trkpt lat="45.26006" lon="6.0342">
        <ele>2068.3999023438</ele>
        <time>2026-08-21T11:11:58.000Z</time>
      </trkpt>
      <trkpt lat="45.26007" lon="6.0342">
        <ele>2068.6000976562</ele>
        <time>2026-08-21T11:11:59.000Z</time>
      </trkpt>
      <trkpt lat="45.26008" lon="6.03421">
        <ele>2068.8000488281</ele>
        <time>2026-08-21T11:12:00.000Z</time>
      </trkpt>
      <trkpt lat="45.26009" lon="6.03422">
        <ele>2069</ele>
        <time>2026-08-21T11:12:01.000Z</time>
      </trkpt>
      <trkpt lat="45.2601" lon="6.03423">
        <ele>2069.1999511719</ele>
        <time>2026-08-21T11:12:02.000Z</time>
      </trkpt>
      <trkpt lat="45.26012" lon="6.03424">
        <ele>2069.6000976562</ele>
        <time>2026-08-21T11:12:03.000Z</time>
      </trkpt>
      <trkpt lat="45.26013" lon="6.03425">
        <ele>2069.8000488281</ele>
        <time>2026-08-21T11:12:04.000Z</time>
      </trkpt>
      <trkpt lat="45.26015" lon="6.03426">
        <ele>2069.8000488281</ele>
        <time>2026-08-21T11:12:05.000Z</time>
      </trkpt>
      <trkpt lat="45.26016" lon="6.03426">
        <ele>2070.3999023438</ele>
        <time>2026-08-21T11:12:06.000Z</time>
      </trkpt>
      <trkpt lat="45.26017" lon="6.03427">
        <ele>2071.3999023438</ele>
        <time>2026-08-21T11:12:07.000Z</time>
      </trkpt>
      <trkpt lat="45.26019" lon="6.03428">
        <ele>2072.3999023438</ele>
        <time>2026-08-21T11:12:08.000Z</time>
      </trkpt>
      <trkpt lat="45.26021" lon="6.03429">
        <ele>2072.3999023438</ele>
        <time>2026-08-21T11:12:09.000Z</time>
      </trkpt>
      <trkpt lat="45.26021" lon="6.03427">
        <ele>2072.8000488281</ele>
        <time>2026-08-21T11:12:10.000Z</time>
      </trkpt>
      <trkpt lat="45.26023" lon="6.03427">
        <ele>2073.1999511719</ele>
        <time>2026-08-21T11:12:11.000Z</time>
      </trkpt>
      <trkpt lat="45.26024" lon="6.03427">
        <ele>2073.6000976562</ele>
        <time>2026-08-21T11:12:12.000Z</time>
      </trkpt>
      <trkpt lat="45.26026" lon="6.03429">
        <ele>2073.1999511719</ele>
        <time>2026-08-21T11:12:13.000Z</time>
      </trkpt>
      <trkpt lat="45.26027" lon="6.03429">
        <ele>2073.1999511719</ele>
        <time>2026-08-21T11:12:14.000Z</time>
      </trkpt>
      <trkpt lat="45.26028" lon="6.0343">
        <ele>2073.1999511719</ele>
        <time>2026-08-21T11:12:15.000Z</time>
      </trkpt>
      <trkpt lat="45.2603" lon="6.03431">
        <ele>2073.1999511719</ele>
        <time>2026-08-21T11:12:16.000Z</time>
      </trkpt>
      <trkpt lat="45.26031" lon="6.03432">
        <ele>2073.1999511719</ele>
        <time>2026-08-21T11:12:17.000Z</time>
      </trkpt>
      <trkpt lat="45.26033" lon="6.03433">
        <ele>2074</ele>
        <time>2026-08-21T11:12:18.000Z</time>
      </trkpt>
      <trkpt lat="45.26034" lon="6.03434">
        <ele>2074.1999511719</ele>
        <time>2026-08-21T11:12:19.000Z</time>
      </trkpt>
      <trkpt lat="45.26036" lon="6.03436">
        <ele>2074.6000976562</ele>
        <time>2026-08-21T11:12:20.000Z</time>
      </trkpt>
      <trkpt lat="45.26038" lon="6.03437">
        <ele>2074.8000488281</ele>
        <time>2026-08-21T11:12:21.000Z</time>
      </trkpt>
      <trkpt lat="45.26039" lon="6.03438">
        <ele>2074.8000488281</ele>
        <time>2026-08-21T11:12:22.000Z</time>
      </trkpt>
      <trkpt lat="45.26041" lon="6.03439">
        <ele>2075.3999023438</ele>
        <time>2026-08-21T11:12:23.000Z</time>
      </trkpt>
      <trkpt lat="45.26042" lon="6.0344">
        <ele>2075.6000976562</ele>
        <time>2026-08-21T11:12:24.000Z</time>
      </trkpt>
      <trkpt lat="45.26044" lon="6.0344">
        <ele>2075.8000488281</ele>
        <time>2026-08-21T11:12:25.000Z</time>
      </trkpt>
      <trkpt lat="45.26045" lon="6.03441">
        <ele>2076</ele>
        <time>2026-08-21T11:12:26.000Z</time>
      </trkpt>
      <trkpt lat="45.26046" lon="6.03441">
        <ele>2076</ele>
        <time>2026-08-21T11:12:27.000Z</time>
      </trkpt>
      <trkpt lat="45.26048" lon="6.03442">
        <ele>2076.1999511719</ele>
        <time>2026-08-21T11:12:28.000Z</time>
      </trkpt>
      <trkpt lat="45.26049" lon="6.03442">
        <ele>2076.1999511719</ele>
        <time>2026-08-21T11:12:29.000Z</time>
      </trkpt>
      <trkpt lat="45.26051" lon="6.03443">
        <ele>2076.3999023438</ele>
        <time>2026-08-21T11:12:30.000Z</time>
      </trkpt>
      <trkpt lat="45.26052" lon="6.03444">
        <ele>2076.6000976562</ele>
        <time>2026-08-21T11:12:31.000Z</time>
      </trkpt>
      <trkpt lat="45.26054" lon="6.03444">
        <ele>2076.6000976562</ele>
        <time>2026-08-21T11:12:32.000Z</time>
      </trkpt>
      <trkpt lat="45.26056" lon="6.03444">
        <ele>2076.8000488281</ele>
        <time>2026-08-21T11:12:33.000Z</time>
      </trkpt>
      <trkpt lat="45.26057" lon="6.03444">
        <ele>2077.8000488281</ele>
        <time>2026-08-21T11:12:34.000Z</time>
      </trkpt>
      <trkpt lat="45.26059" lon="6.03445">
        <ele>2078</ele>
        <time>2026-08-21T11:12:35.000Z</time>
      </trkpt>
      <trkpt lat="45.26061" lon="6.03446">
        <ele>2078.3999023438</ele>
        <time>2026-08-21T11:12:36.000Z</time>
      </trkpt>
      <trkpt lat="45.26063" lon="6.03446">
        <ele>2078.8000488281</ele>
        <time>2026-08-21T11:12:37.000Z</time>
      </trkpt>
      <trkpt lat="45.26065" lon="6.03447">
        <ele>2080.3999023438</ele>
        <time>2026-08-21T11:12:38.000Z</time>
      </trkpt>
      <trkpt lat="45.26067" lon="6.03448">
        <ele>2081.1999511719</ele>
        <time>2026-08-21T11:12:39.000Z</time>
      </trkpt>
      <trkpt lat="45.2607" lon="6.03448">
        <ele>2082.1999511719</ele>
        <time>2026-08-21T11:12:40.000Z</time>
      </trkpt>
      <trkpt lat="45.26072" lon="6.03449">
        <ele>2083.3999023438</ele>
        <time>2026-08-21T11:12:41.000Z</time>
      </trkpt>
      <trkpt lat="45.26074" lon="6.03449">
        <ele>2084.3999023438</ele>
        <time>2026-08-21T11:12:42.000Z</time>
      </trkpt>
      <trkpt lat="45.26076" lon="6.03449">
        <ele>2085.3999023438</ele>
        <time>2026-08-21T11:12:43.000Z</time>
      </trkpt>
      <trkpt lat="45.26079" lon="6.0345">
        <ele>2089.8000488281</ele>
        <time>2026-08-21T11:12:44.000Z</time>
      </trkpt>
      <trkpt lat="45.26081" lon="6.0345">
        <ele>2089.8000488281</ele>
        <time>2026-08-21T11:12:45.000Z</time>
      </trkpt>
      <trkpt lat="45.26083" lon="6.03451">
        <ele>2090.8000488281</ele>
        <time>2026-08-21T11:12:46.000Z</time>
      </trkpt>
      <trkpt lat="45.26085" lon="6.03452">
        <ele>2090.6000976562</ele>
        <time>2026-08-21T11:12:47.000Z</time>
      </trkpt>
      <trkpt lat="45.26087" lon="6.03452">
        <ele>2090.3999023438</ele>
        <time>2026-08-21T11:12:48.000Z</time>
      </trkpt>
      <trkpt lat="45.2609" lon="6.03453">
        <ele>2090</ele>
        <time>2026-08-21T11:12:49.000Z</time>
      </trkpt>
      <trkpt lat="45.26091" lon="6.03454">
        <ele>2089.8000488281</ele>
        <time>2026-08-21T11:12:50.000Z</time>
      </trkpt>
      <trkpt lat="45.26094" lon="6.03454">
        <ele>2089.3999023438</ele>
        <time>2026-08-21T11:12:51.000Z</time>
      </trkpt>
      <trkpt lat="45.26096" lon="6.03455">
        <ele>2089.1999511719</ele>
        <time>2026-08-21T11:12:52.000Z</time>
      </trkpt>
      <trkpt lat="45.26097" lon="6.03456">
        <ele>2088.8000488281</ele>
        <time>2026-08-21T11:12:53.000Z</time>
      </trkpt>
      <trkpt lat="45.26099" lon="6.03456">
        <ele>2088.6000976562</ele>
        <time>2026-08-21T11:12:54.000Z</time>
      </trkpt>
      <trkpt lat="45.26101" lon="6.03457">
        <ele>2088.3999023438</ele>
        <time>2026-08-21T11:12:55.000Z</time>
      </trkpt>
      <trkpt lat="45.26103" lon="6.03458">
        <ele>2088</ele>
        <time>2026-08-21T11:12:56.000Z</time>
      </trkpt>
      <trkpt lat="45.26105" lon="6.03459">
        <ele>2087.8000488281</ele>
        <time>2026-08-21T11:12:57.000Z</time>
      </trkpt>
      <trkpt lat="45.26106" lon="6.0346">
        <ele>2087.3999023438</ele>
        <time>2026-08-21T11:12:58.000Z</time>
      </trkpt>
      <trkpt lat="45.26108" lon="6.0346">
        <ele>2087.1999511719</ele>
        <time>2026-08-21T11:12:59.000Z</time>
      </trkpt>
      <trkpt lat="45.2611" lon="6.03461">
        <ele>2087.1999511719</ele>
        <time>2026-08-21T11:13:00.000Z</time>
      </trkpt>
      <trkpt lat="45.26111" lon="6.03462">
        <ele>2087.1999511719</ele>
        <time>2026-08-21T11:13:01.000Z</time>
      </trkpt>
      <trkpt lat="45.26113" lon="6.03463">
        <ele>2087</ele>
        <time>2026-08-21T11:13:02.000Z</time>
      </trkpt>
      <trkpt lat="45.26115" lon="6.03464">
        <ele>2087</ele>
        <time>2026-08-21T11:13:03.000Z</time>
      </trkpt>
      <trkpt lat="45.26116" lon="6.03465">
        <ele>2087</ele>
        <time>2026-08-21T11:13:04.000Z</time>
      </trkpt>
      <trkpt lat="45.26118" lon="6.03465">
        <ele>2087</ele>
        <time>2026-08-21T11:13:05.000Z</time>
      </trkpt>
      <trkpt lat="45.26119" lon="6.03466">
        <ele>2087.3999023438</ele>
        <time>2026-08-21T11:13:06.000Z</time>
      </trkpt>
      <trkpt lat="45.26121" lon="6.03467">
        <ele>2087.6000976562</ele>
        <time>2026-08-21T11:13:07.000Z</time>
      </trkpt>
      <trkpt lat="45.26122" lon="6.03467">
        <ele>2087.8000488281</ele>
        <time>2026-08-21T11:13:08.000Z</time>
      </trkpt>
      <trkpt lat="45.26124" lon="6.03467">
        <ele>2088</ele>
        <time>2026-08-21T11:13:09.000Z</time>
      </trkpt>
      <trkpt lat="45.26126" lon="6.03467">
        <ele>2088</ele>
        <time>2026-08-21T11:13:10.000Z</time>
      </trkpt>
      <trkpt lat="45.26128" lon="6.03468">
        <ele>2088.1999511719</ele>
        <time>2026-08-21T11:13:11.000Z</time>
      </trkpt>
      <trkpt lat="45.26129" lon="6.03469">
        <ele>2088.6000976562</ele>
        <time>2026-08-21T11:13:12.000Z</time>
      </trkpt>
      <trkpt lat="45.2613" lon="6.03469">
        <ele>2089</ele>
        <time>2026-08-21T11:13:13.000Z</time>
      </trkpt>
      <trkpt lat="45.26132" lon="6.0347">
        <ele>2090.3999023438</ele>
        <time>2026-08-21T11:13:14.000Z</time>
      </trkpt>
      <trkpt lat="45.26133" lon="6.0347">
        <ele>2091</ele>
        <time>2026-08-21T11:13:15.000Z</time>
      </trkpt>
      <trkpt lat="45.26135" lon="6.03471">
        <ele>2091.6000976562</ele>
        <time>2026-08-21T11:13:16.000Z</time>
      </trkpt>
      <trkpt lat="45.26136" lon="6.03471">
        <ele>2091.8000488281</ele>
        <time>2026-08-21T11:13:17.000Z</time>
      </trkpt>
      <trkpt lat="45.26138" lon="6.03472">
        <ele>2092</ele>
        <time>2026-08-21T11:13:18.000Z</time>
      </trkpt>
      <trkpt lat="45.26139" lon="6.03473">
        <ele>2092.8000488281</ele>
        <time>2026-08-21T11:13:19.000Z</time>
      </trkpt>
      <trkpt lat="45.2614" lon="6.03473">
        <ele>2093.3999023438</ele>
        <time>2026-08-21T11:13:20.000Z</time>
      </trkpt>
      <trkpt lat="45.26141" lon="6.03473">
        <ele>2093.1999511719</ele>
        <time>2026-08-21T11:13:21.000Z</time>
      </trkpt>
      <trkpt lat="45.26143" lon="6.03474">
        <ele>2092.8000488281</ele>
        <time>2026-08-21T11:13:22.000Z</time>
      </trkpt>
      <trkpt lat="45.26145" lon="6.03475">
        <ele>2092.3999023438</ele>
        <time>2026-08-21T11:13:23.000Z</time>
      </trkpt>
      <trkpt lat="45.26146" lon="6.03475">
        <ele>2092</ele>
        <time>2026-08-21T11:13:24.000Z</time>
      </trkpt>
      <trkpt lat="45.26148" lon="6.03476">
        <ele>2091.6000976562</ele>
        <time>2026-08-21T11:13:25.000Z</time>
      </trkpt>
      <trkpt lat="45.26149" lon="6.03476">
        <ele>2091.1999511719</ele>
        <time>2026-08-21T11:13:26.000Z</time>
      </trkpt>
      <trkpt lat="45.26151" lon="6.03477">
        <ele>2091</ele>
        <time>2026-08-21T11:13:27.000Z</time>
      </trkpt>
      <trkpt lat="45.26152" lon="6.03478">
        <ele>2091.1999511719</ele>
        <time>2026-08-21T11:13:28.000Z</time>
      </trkpt>
      <trkpt lat="45.26153" lon="6.03479">
        <ele>2091.3999023438</ele>
        <time>2026-08-21T11:13:29.000Z</time>
      </trkpt>
      <trkpt lat="45.26155" lon="6.0348">
        <ele>2091.3999023438</ele>
        <time>2026-08-21T11:13:30.000Z</time>
      </trkpt>
      <trkpt lat="45.26156" lon="6.03481">
        <ele>2090.3999023438</ele>
        <time>2026-08-21T11:13:31.000Z</time>
      </trkpt>
      <trkpt lat="45.26157" lon="6.03483">
        <ele>2089.3999023438</ele>
        <time>2026-08-21T11:13:32.000Z</time>
      </trkpt>
      <trkpt lat="45.26158" lon="6.03484">
        <ele>2088.3999023438</ele>
        <time>2026-08-21T11:13:33.000Z</time>
      </trkpt>
      <trkpt lat="45.26159" lon="6.03485">
        <ele>2087.1999511719</ele>
        <time>2026-08-21T11:13:34.000Z</time>
      </trkpt>
      <trkpt lat="45.26161" lon="6.03486">
        <ele>2086.1999511719</ele>
        <time>2026-08-21T11:13:35.000Z</time>
      </trkpt>
      <trkpt lat="45.26162" lon="6.03486">
        <ele>2085.1999511719</ele>
        <time>2026-08-21T11:13:36.000Z</time>
      </trkpt>
      <trkpt lat="45.26164" lon="6.03487">
        <ele>2084.1999511719</ele>
        <time>2026-08-21T11:13:37.000Z</time>
      </trkpt>
      <trkpt lat="45.26165" lon="6.03488">
        <ele>2083.8000488281</ele>
        <time>2026-08-21T11:13:38.000Z</time>
      </trkpt>
      <trkpt lat="45.26167" lon="6.03489">
        <ele>2083.6000976562</ele>
        <time>2026-08-21T11:13:39.000Z</time>
      </trkpt>
      <trkpt lat="45.26169" lon="6.0349">
        <ele>2083.3999023438</ele>
        <time>2026-08-21T11:13:40.000Z</time>
      </trkpt>
      <trkpt lat="45.2617" lon="6.03491">
        <ele>2082.8000488281</ele>
        <time>2026-08-21T11:13:41.000Z</time>
      </trkpt>
      <trkpt lat="45.26172" lon="6.03493">
        <ele>2082.1999511719</ele>
        <time>2026-08-21T11:13:42.000Z</time>
      </trkpt>
      <trkpt lat="45.26173" lon="6.03494">
        <ele>2081.3999023438</ele>
        <time>2026-08-21T11:13:43.000Z</time>
      </trkpt>
      <trkpt lat="45.26174" lon="6.03495">
        <ele>2081.1999511719</ele>
        <time>2026-08-21T11:13:44.000Z</time>
      </trkpt>
      <trkpt lat="45.26176" lon="6.03496">
        <ele>2080.3999023438</ele>
        <time>2026-08-21T11:13:45.000Z</time>
      </trkpt>
      <trkpt lat="45.26177" lon="6.03497">
        <ele>2080.6000976562</ele>
        <time>2026-08-21T11:13:46.000Z</time>
      </trkpt>
      <trkpt lat="45.26179" lon="6.03498">
        <ele>2080.6000976562</ele>
        <time>2026-08-21T11:13:47.000Z</time>
      </trkpt>
      <trkpt lat="45.26181" lon="6.035">
        <ele>2080.8000488281</ele>
        <time>2026-08-21T11:13:48.000Z</time>
      </trkpt>
      <trkpt lat="45.26183" lon="6.03501">
        <ele>2080.8000488281</ele>
        <time>2026-08-21T11:13:49.000Z</time>
      </trkpt>
      <trkpt lat="45.26184" lon="6.03501">
        <ele>2080.8000488281</ele>
        <time>2026-08-21T11:13:50.000Z</time>
      </trkpt>
      <trkpt lat="45.26185" lon="6.03502">
        <ele>2080.6000976562</ele>
        <time>2026-08-21T11:13:51.000Z</time>
      </trkpt>
      <trkpt lat="45.26186" lon="6.03503">
        <ele>2080.8000488281</ele>
        <time>2026-08-21T11:13:52.000Z</time>
      </trkpt>
      <trkpt lat="45.26187" lon="6.03504">
        <ele>2080.8000488281</ele>
        <time>2026-08-21T11:13:53.000Z</time>
      </trkpt>
      <trkpt lat="45.26189" lon="6.03505">
        <ele>2081</ele>
        <time>2026-08-21T11:13:54.000Z</time>
      </trkpt>
      <trkpt lat="45.2619" lon="6.03507">
        <ele>2081.6000976562</ele>
        <time>2026-08-21T11:13:55.000Z</time>
      </trkpt>
      <trkpt lat="45.26191" lon="6.03508">
        <ele>2082</ele>
        <time>2026-08-21T11:13:56.000Z</time>
      </trkpt>
      <trkpt lat="45.26192" lon="6.0351">
        <ele>2082.3999023438</ele>
        <time>2026-08-21T11:13:57.000Z</time>
      </trkpt>
      <trkpt lat="45.26193" lon="6.03511">
        <ele>2082.8000488281</ele>
        <time>2026-08-21T11:13:58.000Z</time>
      </trkpt>
      <trkpt lat="45.26194" lon="6.03513">
        <ele>2083</ele>
        <time>2026-08-21T11:13:59.000Z</time>
      </trkpt>
      <trkpt lat="45.26195" lon="6.03515">
        <ele>2083.3999023438</ele>
        <time>2026-08-21T11:14:00.000Z</time>
      </trkpt>
      <trkpt lat="45.26195" lon="6.03516">
        <ele>2083.8000488281</ele>
        <time>2026-08-21T11:14:01.000Z</time>
      </trkpt>
      <trkpt lat="45.26196" lon="6.03518">
        <ele>2084.3999023438</ele>
        <time>2026-08-21T11:14:02.000Z</time>
      </trkpt>
      <trkpt lat="45.26197" lon="6.0352">
        <ele>2085.6000976562</ele>
        <time>2026-08-21T11:14:03.000Z</time>
      </trkpt>
      <trkpt lat="45.26198" lon="6.03521">
        <ele>2086</ele>
        <time>2026-08-21T11:14:04.000Z</time>
      </trkpt>
      <trkpt lat="45.26199" lon="6.03523">
        <ele>2086.3999023438</ele>
        <time>2026-08-21T11:14:05.000Z</time>
      </trkpt>
      <trkpt lat="45.26199" lon="6.03525">
        <ele>2086.8000488281</ele>
        <time>2026-08-21T11:14:06.000Z</time>
      </trkpt>
      <trkpt lat="45.262" lon="6.03527">
        <ele>2087.3999023438</ele>
        <time>2026-08-21T11:14:07.000Z</time>
      </trkpt>
      <trkpt lat="45.26201" lon="6.03528">
        <ele>2087.8000488281</ele>
        <time>2026-08-21T11:14:08.000Z</time>
      </trkpt>
      <trkpt lat="45.26203" lon="6.03529">
        <ele>2087.6000976562</ele>
        <time>2026-08-21T11:14:09.000Z</time>
      </trkpt>
      <trkpt lat="45.26204" lon="6.0353">
        <ele>2087.3999023438</ele>
        <time>2026-08-21T11:14:10.000Z</time>
      </trkpt>
      <trkpt lat="45.26205" lon="6.03531">
        <ele>2087.1999511719</ele>
        <time>2026-08-21T11:14:11.000Z</time>
      </trkpt>
      <trkpt lat="45.26206" lon="6.03532">
        <ele>2087</ele>
        <time>2026-08-21T11:14:12.000Z</time>
      </trkpt>
      <trkpt lat="45.26207" lon="6.03532">
        <ele>2086.8000488281</ele>
        <time>2026-08-21T11:14:13.000Z</time>
      </trkpt>
      <trkpt lat="45.26208" lon="6.03533">
        <ele>2086.8000488281</ele>
        <time>2026-08-21T11:14:14.000Z</time>
      </trkpt>
      <trkpt lat="45.26209" lon="6.03534">
        <ele>2086.8000488281</ele>
        <time>2026-08-21T11:14:15.000Z</time>
      </trkpt>
      <trkpt lat="45.2621" lon="6.03533">
        <ele>2087</ele>
        <time>2026-08-21T11:14:16.000Z</time>
      </trkpt>
      <trkpt lat="45.26212" lon="6.03533">
        <ele>2087.3999023438</ele>
        <time>2026-08-21T11:14:17.000Z</time>
      </trkpt>
      <trkpt lat="45.26213" lon="6.03532">
        <ele>2087.3999023438</ele>
        <time>2026-08-21T11:14:18.000Z</time>
      </trkpt>
      <trkpt lat="45.26214" lon="6.03531">
        <ele>2087.8000488281</ele>
        <time>2026-08-21T11:14:19.000Z</time>
      </trkpt>
      <trkpt lat="45.26215" lon="6.03531">
        <ele>2088</ele>
        <time>2026-08-21T11:14:20.000Z</time>
      </trkpt>
      <trkpt lat="45.26218" lon="6.0353">
        <ele>2088.3999023438</ele>
        <time>2026-08-21T11:14:21.000Z</time>
      </trkpt>
      <trkpt lat="45.26219" lon="6.03529">
        <ele>2088.8000488281</ele>
        <time>2026-08-21T11:14:22.000Z</time>
      </trkpt>
      <trkpt lat="45.26221" lon="6.03528">
        <ele>2089</ele>
        <time>2026-08-21T11:14:23.000Z</time>
      </trkpt>
      <trkpt lat="45.26223" lon="6.03528">
        <ele>2089.3999023438</ele>
        <time>2026-08-21T11:14:24.000Z</time>
      </trkpt>
      <trkpt lat="45.26224" lon="6.03527">
        <ele>2089.6000976562</ele>
        <time>2026-08-21T11:14:25.000Z</time>
      </trkpt>
      <trkpt lat="45.26225" lon="6.03527">
        <ele>2088.8000488281</ele>
        <time>2026-08-21T11:14:26.000Z</time>
      </trkpt>
      <trkpt lat="45.26226" lon="6.03527">
        <ele>2088.8000488281</ele>
        <time>2026-08-21T11:14:27.000Z</time>
      </trkpt>
      <trkpt lat="45.26227" lon="6.03527">
        <ele>2088.6000976562</ele>
        <time>2026-08-21T11:14:28.000Z</time>
      </trkpt>
      <trkpt lat="45.26228" lon="6.03527">
        <ele>2088.3999023438</ele>
        <time>2026-08-21T11:14:29.000Z</time>
      </trkpt>
      <trkpt lat="45.2623" lon="6.03527">
        <ele>2088.6000976562</ele>
        <time>2026-08-21T11:14:30.000Z</time>
      </trkpt>
      <trkpt lat="45.26231" lon="6.03527">
        <ele>2089.1999511719</ele>
        <time>2026-08-21T11:14:31.000Z</time>
      </trkpt>
      <trkpt lat="45.26233" lon="6.03527">
        <ele>2089.8000488281</ele>
        <time>2026-08-21T11:14:32.000Z</time>
      </trkpt>
      <trkpt lat="45.26235" lon="6.03528">
        <ele>2090.1999511719</ele>
        <time>2026-08-21T11:14:33.000Z</time>
      </trkpt>
      <trkpt lat="45.26236" lon="6.03527">
        <ele>2090.6000976562</ele>
        <time>2026-08-21T11:14:34.000Z</time>
      </trkpt>
      <trkpt lat="45.26237" lon="6.03527">
        <ele>2090.6000976562</ele>
        <time>2026-08-21T11:14:35.000Z</time>
      </trkpt>
      <trkpt lat="45.26239" lon="6.03527">
        <ele>2091</ele>
        <time>2026-08-21T11:14:36.000Z</time>
      </trkpt>
      <trkpt lat="45.26241" lon="6.03528">
        <ele>2090.8000488281</ele>
        <time>2026-08-21T11:14:37.000Z</time>
      </trkpt>
      <trkpt lat="45.26242" lon="6.03527">
        <ele>2090.6000976562</ele>
        <time>2026-08-21T11:14:38.000Z</time>
      </trkpt>
      <trkpt lat="45.26244" lon="6.03527">
        <ele>2090.3999023438</ele>
        <time>2026-08-21T11:14:39.000Z</time>
      </trkpt>
      <trkpt lat="45.26246" lon="6.03527">
        <ele>2090.1999511719</ele>
        <time>2026-08-21T11:14:40.000Z</time>
      </trkpt>
      <trkpt lat="45.26247" lon="6.03526">
        <ele>2090.1999511719</ele>
        <time>2026-08-21T11:14:41.000Z</time>
      </trkpt>
      <trkpt lat="45.26249" lon="6.03526">
        <ele>2090.1999511719</ele>
        <time>2026-08-21T11:14:42.000Z</time>
      </trkpt>
      <trkpt lat="45.26251" lon="6.03526">
        <ele>2090.1999511719</ele>
        <time>2026-08-21T11:14:43.000Z</time>
      </trkpt>
      <trkpt lat="45.26252" lon="6.03527">
        <ele>2090.1999511719</ele>
        <time>2026-08-21T11:14:44.000Z</time>
      </trkpt>
      <trkpt lat="45.26253" lon="6.03526">
        <ele>2090.6000976562</ele>
        <time>2026-08-21T11:14:45.000Z</time>
      </trkpt>
      <trkpt lat="45.26254" lon="6.03526">
        <ele>2091</ele>
        <time>2026-08-21T11:14:46.000Z</time>
      </trkpt>
      <trkpt lat="45.26255" lon="6.03526">
        <ele>2091.1999511719</ele>
        <time>2026-08-21T11:14:47.000Z</time>
      </trkpt>
      <trkpt lat="45.26256" lon="6.03526">
        <ele>2091.6000976562</ele>
        <time>2026-08-21T11:14:48.000Z</time>
      </trkpt>
      <trkpt lat="45.26257" lon="6.03526">
        <ele>2092.1999511719</ele>
        <time>2026-08-21T11:14:49.000Z</time>
      </trkpt>
      <trkpt lat="45.26258" lon="6.03525">
        <ele>2093.3999023438</ele>
        <time>2026-08-21T11:14:50.000Z</time>
      </trkpt>
      <trkpt lat="45.26259" lon="6.03525">
        <ele>2093.8000488281</ele>
        <time>2026-08-21T11:14:51.000Z</time>
      </trkpt>
      <trkpt lat="45.2626" lon="6.03525">
        <ele>2094.6000976562</ele>
        <time>2026-08-21T11:14:52.000Z</time>
      </trkpt>
      <trkpt lat="45.26262" lon="6.03526">
        <ele>2095</ele>
        <time>2026-08-21T11:14:53.000Z</time>
      </trkpt>
      <trkpt lat="45.26263" lon="6.03526">
        <ele>2095.6000976562</ele>
        <time>2026-08-21T11:14:54.000Z</time>
      </trkpt>
      <trkpt lat="45.26264" lon="6.03526">
        <ele>2096.3999023438</ele>
        <time>2026-08-21T11:14:55.000Z</time>
      </trkpt>
      <trkpt lat="45.26265" lon="6.03526">
        <ele>2097.1999511719</ele>
        <time>2026-08-21T11:14:56.000Z</time>
      </trkpt>
      <trkpt lat="45.26267" lon="6.03527">
        <ele>2098.1999511719</ele>
        <time>2026-08-21T11:14:57.000Z</time>
      </trkpt>
      <trkpt lat="45.26268" lon="6.03527">
        <ele>2098.1999511719</ele>
        <time>2026-08-21T11:14:58.000Z</time>
      </trkpt>
      <trkpt lat="45.2627" lon="6.03527">
        <ele>2098.6000976562</ele>
        <time>2026-08-21T11:14:59.000Z</time>
      </trkpt>
      <trkpt lat="45.26271" lon="6.03527">
        <ele>2098.8000488281</ele>
        <time>2026-08-21T11:15:00.000Z</time>
      </trkpt>
      <trkpt lat="45.26271" lon="6.03527">
        <ele>2099</ele>
        <time>2026-08-21T11:15:01.000Z</time>
      </trkpt>
      <trkpt lat="45.26272" lon="6.03527">
        <ele>2099</ele>
        <time>2026-08-21T11:15:02.000Z</time>
      </trkpt>
      <trkpt lat="45.26273" lon="6.03526">
        <ele>2099.1999511719</ele>
        <time>2026-08-21T11:15:03.000Z</time>
      </trkpt>
      <trkpt lat="45.26274" lon="6.03526">
        <ele>2100</ele>
        <time>2026-08-21T11:15:04.000Z</time>
      </trkpt>
      <trkpt lat="45.26275" lon="6.03526">
        <ele>2100.8000488281</ele>
        <time>2026-08-21T11:15:05.000Z</time>
      </trkpt>
      <trkpt lat="45.26274" lon="6.03526">
        <ele>2100.6000976562</ele>
        <time>2026-08-21T11:15:06.000Z</time>
      </trkpt>
      <trkpt lat="45.26275" lon="6.03526">
        <ele>2100.3999023438</ele>
        <time>2026-08-21T11:15:07.000Z</time>
      </trkpt>
      <trkpt lat="45.26276" lon="6.03526">
        <ele>2100</ele>
        <time>2026-08-21T11:15:08.000Z</time>
      </trkpt>
      <trkpt lat="45.26277" lon="6.03526">
        <ele>2099.3999023438</ele>
        <time>2026-08-21T11:15:09.000Z</time>
      </trkpt>
      <trkpt lat="45.26278" lon="6.03526">
        <ele>2099.1999511719</ele>
        <time>2026-08-21T11:15:10.000Z</time>
      </trkpt>
      <trkpt lat="45.26279" lon="6.03525">
        <ele>2099</ele>
        <time>2026-08-21T11:15:11.000Z</time>
      </trkpt>
      <trkpt lat="45.26281" lon="6.03525">
        <ele>2099</ele>
        <time>2026-08-21T11:15:12.000Z</time>
      </trkpt>
      <trkpt lat="45.26281" lon="6.03525">
        <ele>2099</ele>
        <time>2026-08-21T11:15:13.000Z</time>
      </trkpt>
      <trkpt lat="45.26282" lon="6.03524">
        <ele>2098.8000488281</ele>
        <time>2026-08-21T11:15:14.000Z</time>
      </trkpt>
      <trkpt lat="45.26283" lon="6.03524">
        <ele>2099</ele>
        <time>2026-08-21T11:15:15.000Z</time>
      </trkpt>
      <trkpt lat="45.26284" lon="6.03524">
        <ele>2099.3999023438</ele>
        <time>2026-08-21T11:15:16.000Z</time>
      </trkpt>
      <trkpt lat="45.26284" lon="6.03524">
        <ele>2099.6000976562</ele>
        <time>2026-08-21T11:15:17.000Z</time>
      </trkpt>
      <trkpt lat="45.26283" lon="6.03523">
        <ele>2100.1999511719</ele>
        <time>2026-08-21T11:15:18.000Z</time>
      </trkpt>
      <trkpt lat="45.26283" lon="6.03523">
        <ele>2100.6000976562</ele>
        <time>2026-08-21T11:15:19.000Z</time>
      </trkpt>
      <trkpt lat="45.26282" lon="6.03521">
        <ele>2100.8000488281</ele>
        <time>2026-08-21T11:15:20.000Z</time>
      </trkpt>
      <trkpt lat="45.26282" lon="6.03521">
        <ele>2100.8000488281</ele>
        <time>2026-08-21T11:15:21.000Z</time>
      </trkpt>
      <trkpt lat="45.26281" lon="6.03519">
        <ele>2100.6000976562</ele>
        <time>2026-08-21T11:15:22.000Z</time>
      </trkpt>
      <trkpt lat="45.26281" lon="6.03517">
        <ele>2100.1999511719</ele>
        <time>2026-08-21T11:15:23.000Z</time>
      </trkpt>
      <trkpt lat="45.26281" lon="6.03515">
        <ele>2100</ele>
        <time>2026-08-21T11:15:24.000Z</time>
      </trkpt>
      <trkpt lat="45.26282" lon="6.03516">
        <ele>2100</ele>
        <time>2026-08-21T11:15:25.000Z</time>
      </trkpt>
      <trkpt lat="45.26283" lon="6.03517">
        <ele>2099.8000488281</ele>
        <time>2026-08-21T11:15:26.000Z</time>
      </trkpt>
      <trkpt lat="45.26283" lon="6.03517">
        <ele>2099.8000488281</ele>
        <time>2026-08-21T11:15:27.000Z</time>
      </trkpt>
      <trkpt lat="45.26284" lon="6.03517">
        <ele>2099.6000976562</ele>
        <time>2026-08-21T11:15:28.000Z</time>
      </trkpt>
      <trkpt lat="45.26284" lon="6.03518">
        <ele>2099.8000488281</ele>
        <time>2026-08-21T11:15:29.000Z</time>
      </trkpt>
      <trkpt lat="45.26285" lon="6.03518">
        <ele>2099.8000488281</ele>
        <time>2026-08-21T11:15:30.000Z</time>
      </trkpt>
      <trkpt lat="45.26286" lon="6.03518">
        <ele>2099.6000976562</ele>
        <time>2026-08-21T11:15:31.000Z</time>
      </trkpt>
      <trkpt lat="45.26286" lon="6.03517">
        <ele>2099.6000976562</ele>
        <time>2026-08-21T11:15:32.000Z</time>
      </trkpt>
      <trkpt lat="45.26286" lon="6.03517">
        <ele>2099.6000976562</ele>
        <time>2026-08-21T11:15:33.000Z</time>
      </trkpt>
      <trkpt lat="45.26286" lon="6.03517">
        <ele>2099.6000976562</ele>
        <time>2026-08-21T11:15:34.000Z</time>
      </trkpt>
      <trkpt lat="45.26286" lon="6.03516">
        <ele>2099.6000976562</ele>
        <time>2026-08-21T11:15:35.000Z</time>
      </trkpt>
      <trkpt lat="45.26287" lon="6.03515">
        <ele>2099.6000976562</ele>
        <time>2026-08-21T11:15:36.000Z</time>
      </trkpt>
      <trkpt lat="45.26287" lon="6.03515">
        <ele>2100</ele>
        <time>2026-08-21T11:15:37.000Z</time>
      </trkpt>
      <trkpt lat="45.26287" lon="6.03515">
        <ele>2100.1999511719</ele>
        <time>2026-08-21T11:15:38.000Z</time>
      </trkpt>
      <trkpt lat="45.26288" lon="6.03515">
        <ele>2100.3999023438</ele>
        <time>2026-08-21T11:15:39.000Z</time>
      </trkpt>
      <trkpt lat="45.26287" lon="6.03513">
        <ele>2100.3999023438</ele>
        <time>2026-08-21T11:15:40.000Z</time>
      </trkpt>
      <trkpt lat="45.26287" lon="6.03513">
        <ele>2100.8000488281</ele>
        <time>2026-08-21T11:15:41.000Z</time>
      </trkpt>
      <trkpt lat="45.26286" lon="6.03512">
        <ele>2101</ele>
        <time>2026-08-21T11:15:42.000Z</time>
      </trkpt>
      <trkpt lat="45.26286" lon="6.03512">
        <ele>2101.3999023438</ele>
        <time>2026-08-21T11:15:43.000Z</time>
      </trkpt>
      <trkpt lat="45.26286" lon="6.0351">
        <ele>2101.6000976562</ele>
        <time>2026-08-21T11:15:44.000Z</time>
      </trkpt>
      <trkpt lat="45.26285" lon="6.03509">
        <ele>2102.1999511719</ele>
        <time>2026-08-21T11:15:45.000Z</time>
      </trkpt>
      <trkpt lat="45.26286" lon="6.03508">
        <ele>2102.8000488281</ele>
        <time>2026-08-21T11:15:46.000Z</time>
      </trkpt>
      <trkpt lat="45.26287" lon="6.03509">
        <ele>2103</ele>
        <time>2026-08-21T11:15:47.000Z</time>
      </trkpt>
      <trkpt lat="45.26288" lon="6.0351">
        <ele>2103.1999511719</ele>
        <time>2026-08-21T11:15:48.000Z</time>
      </trkpt>
      <trkpt lat="45.26287" lon="6.0351">
        <ele>2103.1999511719</ele>
        <time>2026-08-21T11:15:49.000Z</time>
      </trkpt>
      <trkpt lat="45.26288" lon="6.0351">
        <ele>2103.3999023438</ele>
        <time>2026-08-21T11:15:50.000Z</time>
      </trkpt>
      <trkpt lat="45.26288" lon="6.03509">
        <ele>2103.8000488281</ele>
        <time>2026-08-21T11:15:51.000Z</time>
      </trkpt>
      <trkpt lat="45.26287" lon="6.03507">
        <ele>2104</ele>
        <time>2026-08-21T11:15:52.000Z</time>
      </trkpt>
      <trkpt lat="45.26287" lon="6.03507">
        <ele>2105</ele>
        <time>2026-08-21T11:15:53.000Z</time>
      </trkpt>
      <trkpt lat="45.26288" lon="6.03506">
        <ele>2105.8000488281</ele>
        <time>2026-08-21T11:15:54.000Z</time>
      </trkpt>
      <trkpt lat="45.26289" lon="6.03507">
        <ele>2106.8000488281</ele>
        <time>2026-08-21T11:15:55.000Z</time>
      </trkpt>
      <trkpt lat="45.26289" lon="6.03508">
        <ele>2107</ele>
        <time>2026-08-21T11:15:56.000Z</time>
      </trkpt>
      <trkpt lat="45.2629" lon="6.03508">
        <ele>2107.1999511719</ele>
        <time>2026-08-21T11:15:57.000Z</time>
      </trkpt>
      <trkpt lat="45.2629" lon="6.03509">
        <ele>2108.3999023438</ele>
        <time>2026-08-21T11:15:58.000Z</time>
      </trkpt>
      <trkpt lat="45.2629" lon="6.03509">
        <ele>2109</ele>
        <time>2026-08-21T11:15:59.000Z</time>
      </trkpt>
      <trkpt lat="45.2629" lon="6.03508">
        <ele>2109.3999023438</ele>
        <time>2026-08-21T11:16:00.000Z</time>
      </trkpt>
      <trkpt lat="45.26291" lon="6.03507">
        <ele>2109.3999023438</ele>
        <time>2026-08-21T11:16:01.000Z</time>
      </trkpt>
      <trkpt lat="45.26291" lon="6.03506">
        <ele>2109.6000976562</ele>
        <time>2026-08-21T11:16:02.000Z</time>
      </trkpt>
      <trkpt lat="45.26292" lon="6.03506">
        <ele>2109.8000488281</ele>
        <time>2026-08-21T11:16:03.000Z</time>
      </trkpt>
      <trkpt lat="45.26292" lon="6.03507">
        <ele>2109.8000488281</ele>
        <time>2026-08-21T11:16:04.000Z</time>
      </trkpt>
      <trkpt lat="45.26292" lon="6.03508">
        <ele>2110.1999511719</ele>
        <time>2026-08-21T11:16:05.000Z</time>
      </trkpt>
      <trkpt lat="45.26293" lon="6.03508">
        <ele>2110.6000976562</ele>
        <time>2026-08-21T11:16:06.000Z</time>
      </trkpt>
      <trkpt lat="45.26293" lon="6.03508">
        <ele>2112.1999511719</ele>
        <time>2026-08-21T11:16:07.000Z</time>
      </trkpt>
      <trkpt lat="45.26294" lon="6.03508">
        <ele>2112.8000488281</ele>
        <time>2026-08-21T11:16:08.000Z</time>
      </trkpt>
      <trkpt lat="45.26294" lon="6.03509">
        <ele>2113.8000488281</ele>
        <time>2026-08-21T11:16:09.000Z</time>
      </trkpt>
      <trkpt lat="45.26294" lon="6.03509">
        <ele>2114.1999511719</ele>
        <time>2026-08-21T11:16:10.000Z</time>
      </trkpt>
      <trkpt lat="45.26295" lon="6.03509">
        <ele>2114.3999023438</ele>
        <time>2026-08-21T11:16:11.000Z</time>
      </trkpt>
      <trkpt lat="45.26295" lon="6.0351">
        <ele>2114.6000976562</ele>
        <time>2026-08-21T11:16:12.000Z</time>
      </trkpt>
      <trkpt lat="45.26296" lon="6.0351">
        <ele>2115.6000976562</ele>
        <time>2026-08-21T11:16:13.000Z</time>
      </trkpt>
      <trkpt lat="45.26297" lon="6.0351">
        <ele>2116.1999511719</ele>
        <time>2026-08-21T11:16:14.000Z</time>
      </trkpt>
      <trkpt lat="45.26298" lon="6.0351">
        <ele>2117.1999511719</ele>
        <time>2026-08-21T11:16:15.000Z</time>
      </trkpt>
      <trkpt lat="45.26297" lon="6.0351">
        <ele>2118.1999511719</ele>
        <time>2026-08-21T11:16:16.000Z</time>
      </trkpt>
      <trkpt lat="45.26298" lon="6.0351">
        <ele>2119.3999023438</ele>
        <time>2026-08-21T11:16:17.000Z</time>
      </trkpt>
      <trkpt lat="45.26298" lon="6.03509">
        <ele>2120.3999023438</ele>
        <time>2026-08-21T11:16:18.000Z</time>
      </trkpt>
      <trkpt lat="45.26299" lon="6.03508">
        <ele>2121.3999023438</ele>
        <time>2026-08-21T11:16:19.000Z</time>
      </trkpt>
      <trkpt lat="45.26299" lon="6.03508">
        <ele>2121</ele>
        <time>2026-08-21T11:16:20.000Z</time>
      </trkpt>
      <trkpt lat="45.26299" lon="6.03508">
        <ele>2120.8000488281</ele>
        <time>2026-08-21T11:16:21.000Z</time>
      </trkpt>
      <trkpt lat="45.26299" lon="6.03509">
        <ele>2120.3999023438</ele>
        <time>2026-08-21T11:16:22.000Z</time>
      </trkpt>
      <trkpt lat="45.263" lon="6.03508">
        <ele>2120.1999511719</ele>
        <time>2026-08-21T11:16:23.000Z</time>
      </trkpt>
      <trkpt lat="45.26301" lon="6.03508">
        <ele>2119.3999023438</ele>
        <time>2026-08-21T11:16:24.000Z</time>
      </trkpt>
      <trkpt lat="45.26302" lon="6.03508">
        <ele>2119.1999511719</ele>
        <time>2026-08-21T11:16:25.000Z</time>
      </trkpt>
      <trkpt lat="45.26303" lon="6.03508">
        <ele>2119.1999511719</ele>
        <time>2026-08-21T11:16:26.000Z</time>
      </trkpt>
      <trkpt lat="45.26303" lon="6.03508">
        <ele>2119.3999023438</ele>
        <time>2026-08-21T11:16:27.000Z</time>
      </trkpt>
      <trkpt lat="45.26303" lon="6.03509">
        <ele>2119.6000976562</ele>
        <time>2026-08-21T11:16:28.000Z</time>
      </trkpt>
      <trkpt lat="45.26304" lon="6.03509">
        <ele>2119.6000976562</ele>
        <time>2026-08-21T11:16:29.000Z</time>
      </trkpt>
      <trkpt lat="45.26304" lon="6.03509">
        <ele>2119.8000488281</ele>
        <time>2026-08-21T11:16:30.000Z</time>
      </trkpt>
      <trkpt lat="45.26305" lon="6.03509">
        <ele>2119.8000488281</ele>
        <time>2026-08-21T11:16:31.000Z</time>
      </trkpt>
      <trkpt lat="45.26306" lon="6.0351">
        <ele>2118.8000488281</ele>
        <time>2026-08-21T11:16:32.000Z</time>
      </trkpt>
      <trkpt lat="45.26307" lon="6.0351">
        <ele>2117.8000488281</ele>
        <time>2026-08-21T11:16:33.000Z</time>
      </trkpt>
      <trkpt lat="45.26307" lon="6.03509">
        <ele>2117.3999023438</ele>
        <time>2026-08-21T11:16:34.000Z</time>
      </trkpt>
      <trkpt lat="45.26308" lon="6.03509">
        <ele>2117.1999511719</ele>
        <time>2026-08-21T11:16:35.000Z</time>
      </trkpt>
      <trkpt lat="45.26308" lon="6.03508">
        <ele>2116.8000488281</ele>
        <time>2026-08-21T11:16:36.000Z</time>
      </trkpt>
      <trkpt lat="45.26309" lon="6.03508">
        <ele>2116</ele>
        <time>2026-08-21T11:16:37.000Z</time>
      </trkpt>
      <trkpt lat="45.26309" lon="6.03508">
        <ele>2115.6000976562</ele>
        <time>2026-08-21T11:16:38.000Z</time>
      </trkpt>
      <trkpt lat="45.2631" lon="6.03508">
        <ele>2115.1999511719</ele>
        <time>2026-08-21T11:16:39.000Z</time>
      </trkpt>
      <trkpt lat="45.26311" lon="6.03508">
        <ele>2115</ele>
        <time>2026-08-21T11:16:40.000Z</time>
      </trkpt>
      <trkpt lat="45.26312" lon="6.03508">
        <ele>2115</ele>
        <time>2026-08-21T11:16:41.000Z</time>
      </trkpt>
      <trkpt lat="45.26312" lon="6.03507">
        <ele>2115</ele>
        <time>2026-08-21T11:16:42.000Z</time>
      </trkpt>
      <trkpt lat="45.26313" lon="6.03508">
        <ele>2115</ele>
        <time>2026-08-21T11:16:43.000Z</time>
      </trkpt>
      <trkpt lat="45.26313" lon="6.03508">
        <ele>2115</ele>
        <time>2026-08-21T11:16:44.000Z</time>
      </trkpt>
      <trkpt lat="45.26314" lon="6.03508">
        <ele>2115</ele>
        <time>2026-08-21T11:16:45.000Z</time>
      </trkpt>
      <trkpt lat="45.26314" lon="6.03508">
        <ele>2115.1999511719</ele>
        <time>2026-08-21T11:16:46.000Z</time>
      </trkpt>
      <trkpt lat="45.26315" lon="6.03508">
        <ele>2116</ele>
        <time>2026-08-21T11:16:47.000Z</time>
      </trkpt>
      <trkpt lat="45.26315" lon="6.03508">
        <ele>2116.6000976562</ele>
        <time>2026-08-21T11:16:48.000Z</time>
      </trkpt>
      <trkpt lat="45.26316" lon="6.03508">
        <ele>2117.6000976562</ele>
        <time>2026-08-21T11:16:49.000Z</time>
      </trkpt>
      <trkpt lat="45.26316" lon="6.03508">
        <ele>2118.1999511719</ele>
        <time>2026-08-21T11:16:50.000Z</time>
      </trkpt>
      <trkpt lat="45.26317" lon="6.03508">
        <ele>2118.6000976562</ele>
        <time>2026-08-21T11:16:51.000Z</time>
      </trkpt>
      <trkpt lat="45.26317" lon="6.03508">
        <ele>2119</ele>
        <time>2026-08-21T11:16:52.000Z</time>
      </trkpt>
      <trkpt lat="45.26318" lon="6.03508">
        <ele>2119.8000488281</ele>
        <time>2026-08-21T11:16:53.000Z</time>
      </trkpt>
      <trkpt lat="45.26318" lon="6.03506">
        <ele>2119.8000488281</ele>
        <time>2026-08-21T11:16:54.000Z</time>
      </trkpt>
      <trkpt lat="45.26319" lon="6.03505">
        <ele>2119.8000488281</ele>
        <time>2026-08-21T11:16:55.000Z</time>
      </trkpt>
      <trkpt lat="45.2632" lon="6.03505">
        <ele>2119.6000976562</ele>
        <time>2026-08-21T11:16:56.000Z</time>
      </trkpt>
      <trkpt lat="45.26321" lon="6.03505">
        <ele>2119.3999023438</ele>
        <time>2026-08-21T11:16:57.000Z</time>
      </trkpt>
      <trkpt lat="45.26322" lon="6.03505">
        <ele>2119.1999511719</ele>
        <time>2026-08-21T11:16:58.000Z</time>
      </trkpt>
      <trkpt lat="45.26323" lon="6.03504">
        <ele>2118.3999023438</ele>
        <time>2026-08-21T11:16:59.000Z</time>
      </trkpt>
      <trkpt lat="45.26324" lon="6.03504">
        <ele>2118.1999511719</ele>
        <time>2026-08-21T11:17:00.000Z</time>
      </trkpt>
      <trkpt lat="45.26325" lon="6.03503">
        <ele>2118</ele>
        <time>2026-08-21T11:17:01.000Z</time>
      </trkpt>
      <trkpt lat="45.26326" lon="6.03503">
        <ele>2117.3999023438</ele>
        <time>2026-08-21T11:17:02.000Z</time>
      </trkpt>
      <trkpt lat="45.26327" lon="6.03502">
        <ele>2117</ele>
        <time>2026-08-21T11:17:03.000Z</time>
      </trkpt>
      <trkpt lat="45.26328" lon="6.03502">
        <ele>2117</ele>
        <time>2026-08-21T11:17:04.000Z</time>
      </trkpt>
      <trkpt lat="45.26329" lon="6.03502">
        <ele>2116.8000488281</ele>
        <time>2026-08-21T11:17:05.000Z</time>
      </trkpt>
      <trkpt lat="45.2633" lon="6.03502">
        <ele>2116.8000488281</ele>
        <time>2026-08-21T11:17:06.000Z</time>
      </trkpt>
      <trkpt lat="45.2633" lon="6.03502">
        <ele>2117</ele>
        <time>2026-08-21T11:17:07.000Z</time>
      </trkpt>
      <trkpt lat="45.2633" lon="6.03502">
        <ele>2117</ele>
        <time>2026-08-21T11:17:08.000Z</time>
      </trkpt>
      <trkpt lat="45.26331" lon="6.03502">
        <ele>2117</ele>
        <time>2026-08-21T11:17:09.000Z</time>
      </trkpt>
      <trkpt lat="45.26331" lon="6.03502">
        <ele>2117</ele>
        <time>2026-08-21T11:17:10.000Z</time>
      </trkpt>
      <trkpt lat="45.26332" lon="6.03502">
        <ele>2117.1999511719</ele>
        <time>2026-08-21T11:17:11.000Z</time>
      </trkpt>
      <trkpt lat="45.26333" lon="6.03502">
        <ele>2117.3999023438</ele>
        <time>2026-08-21T11:17:12.000Z</time>
      </trkpt>
      <trkpt lat="45.26334" lon="6.03502">
        <ele>2117.6000976562</ele>
        <time>2026-08-21T11:17:13.000Z</time>
      </trkpt>
      <trkpt lat="45.26334" lon="6.03501">
        <ele>2117.8000488281</ele>
        <time>2026-08-21T11:17:14.000Z</time>
      </trkpt>
      <trkpt lat="45.26335" lon="6.03501">
        <ele>2118</ele>
        <time>2026-08-21T11:17:15.000Z</time>
      </trkpt>
      <trkpt lat="45.26335" lon="6.035">
        <ele>2118.1999511719</ele>
        <time>2026-08-21T11:17:16.000Z</time>
      </trkpt>
      <trkpt lat="45.26336" lon="6.03499">
        <ele>2118.1999511719</ele>
        <time>2026-08-21T11:17:17.000Z</time>
      </trkpt>
      <trkpt lat="45.26337" lon="6.03499">
        <ele>2118</ele>
        <time>2026-08-21T11:17:18.000Z</time>
      </trkpt>
      <trkpt lat="45.26337" lon="6.03499">
        <ele>2117.8000488281</ele>
        <time>2026-08-21T11:17:19.000Z</time>
      </trkpt>
      <trkpt lat="45.26337" lon="6.03498">
        <ele>2117.3999023438</ele>
        <time>2026-08-21T11:17:20.000Z</time>
      </trkpt>
      <trkpt lat="45.26338" lon="6.03497">
        <ele>2117</ele>
        <time>2026-08-21T11:17:21.000Z</time>
      </trkpt>
      <trkpt lat="45.26338" lon="6.03496">
        <ele>2116.3999023438</ele>
        <time>2026-08-21T11:17:22.000Z</time>
      </trkpt>
      <trkpt lat="45.26338" lon="6.03495">
        <ele>2115.8000488281</ele>
        <time>2026-08-21T11:17:23.000Z</time>
      </trkpt>
      <trkpt lat="45.26338" lon="6.03494">
        <ele>2115.6000976562</ele>
        <time>2026-08-21T11:17:24.000Z</time>
      </trkpt>
      <trkpt lat="45.26339" lon="6.03493">
        <ele>2115.3999023438</ele>
        <time>2026-08-21T11:17:25.000Z</time>
      </trkpt>
      <trkpt lat="45.26339" lon="6.03493">
        <ele>2114.3999023438</ele>
        <time>2026-08-21T11:17:26.000Z</time>
      </trkpt>
      <trkpt lat="45.26339" lon="6.03492">
        <ele>2113.3999023438</ele>
        <time>2026-08-21T11:17:27.000Z</time>
      </trkpt>
      <trkpt lat="45.26338" lon="6.03492">
        <ele>2113</ele>
        <time>2026-08-21T11:17:28.000Z</time>
      </trkpt>
      <trkpt lat="45.26337" lon="6.03491">
        <ele>2112.6000976562</ele>
        <time>2026-08-21T11:17:29.000Z</time>
      </trkpt>
      <trkpt lat="45.26337" lon="6.03491">
        <ele>2112.1999511719</ele>
        <time>2026-08-21T11:17:30.000Z</time>
      </trkpt>
      <trkpt lat="45.26336" lon="6.03491">
        <ele>2111.8000488281</ele>
        <time>2026-08-21T11:17:31.000Z</time>
      </trkpt>
      <trkpt lat="45.26335" lon="6.0349">
        <ele>2110.3999023438</ele>
        <time>2026-08-21T11:17:32.000Z</time>
      </trkpt>
      <trkpt lat="45.26334" lon="6.0349">
        <ele>2109.8000488281</ele>
        <time>2026-08-21T11:17:33.000Z</time>
      </trkpt>
      <trkpt lat="45.26334" lon="6.0349">
        <ele>2109.3999023438</ele>
        <time>2026-08-21T11:17:34.000Z</time>
      </trkpt>
      <trkpt lat="45.26333" lon="6.0349">
        <ele>2109</ele>
        <time>2026-08-21T11:17:35.000Z</time>
      </trkpt>
      <trkpt lat="45.26333" lon="6.03491">
        <ele>2108.3999023438</ele>
        <time>2026-08-21T11:17:36.000Z</time>
      </trkpt>
      <trkpt lat="45.26332" lon="6.03491">
        <ele>2108</ele>
        <time>2026-08-21T11:17:37.000Z</time>
      </trkpt>
      <trkpt lat="45.26331" lon="6.03491">
        <ele>2107.3999023438</ele>
        <time>2026-08-21T11:17:38.000Z</time>
      </trkpt>
      <trkpt lat="45.26331" lon="6.03489">
        <ele>2106.3999023438</ele>
        <time>2026-08-21T11:17:39.000Z</time>
      </trkpt>
      <trkpt lat="45.26332" lon="6.03488">
        <ele>2105.3999023438</ele>
        <time>2026-08-21T11:17:40.000Z</time>
      </trkpt>
      <trkpt lat="45.26332" lon="6.03487">
        <ele>2105.1999511719</ele>
        <time>2026-08-21T11:17:41.000Z</time>
      </trkpt>
      <trkpt lat="45.26332" lon="6.03487">
        <ele>2105</ele>
        <time>2026-08-21T11:17:42.000Z</time>
      </trkpt>
      <trkpt lat="45.26331" lon="6.03488">
        <ele>2103.8000488281</ele>
        <time>2026-08-21T11:17:43.000Z</time>
      </trkpt>
      <trkpt lat="45.26331" lon="6.03488">
        <ele>2103.6000976562</ele>
        <time>2026-08-21T11:17:44.000Z</time>
      </trkpt>
      <trkpt lat="45.2633" lon="6.03488">
        <ele>2103.3999023438</ele>
        <time>2026-08-21T11:17:45.000Z</time>
      </trkpt>
      <trkpt lat="45.26329" lon="6.03486">
        <ele>2103.1999511719</ele>
        <time>2026-08-21T11:17:46.000Z</time>
      </trkpt>
      <trkpt lat="45.26329" lon="6.03485">
        <ele>2103</ele>
        <time>2026-08-21T11:17:47.000Z</time>
      </trkpt>
      <trkpt lat="45.26329" lon="6.03484">
        <ele>2102.8000488281</ele>
        <time>2026-08-21T11:17:48.000Z</time>
      </trkpt>
      <trkpt lat="45.26329" lon="6.03483">
        <ele>2102.6000976562</ele>
        <time>2026-08-21T11:17:49.000Z</time>
      </trkpt>
      <trkpt lat="45.26329" lon="6.03483">
        <ele>2102.3999023438</ele>
        <time>2026-08-21T11:17:50.000Z</time>
      </trkpt>
      <trkpt lat="45.26329" lon="6.03483">
        <ele>2102.1999511719</ele>
        <time>2026-08-21T11:17:51.000Z</time>
      </trkpt>
      <trkpt lat="45.26329" lon="6.03482">
        <ele>2102.3999023438</ele>
        <time>2026-08-21T11:17:52.000Z</time>
      </trkpt>
      <trkpt lat="45.26329" lon="6.03482">
        <ele>2102.6000976562</ele>
        <time>2026-08-21T11:17:53.000Z</time>
      </trkpt>
      <trkpt lat="45.26329" lon="6.03482">
        <ele>2102.8000488281</ele>
        <time>2026-08-21T11:17:54.000Z</time>
      </trkpt>
      <trkpt lat="45.26327" lon="6.03481">
        <ele>2103</ele>
        <time>2026-08-21T11:17:55.000Z</time>
      </trkpt>
      <trkpt lat="45.26327" lon="6.0348">
        <ele>2103.1999511719</ele>
        <time>2026-08-21T11:17:56.000Z</time>
      </trkpt>
      <trkpt lat="45.26327" lon="6.03478">
        <ele>2103.1999511719</ele>
        <time>2026-08-21T11:17:57.000Z</time>
      </trkpt>
      <trkpt lat="45.26328" lon="6.03477">
        <ele>2103.1999511719</ele>
        <time>2026-08-21T11:17:58.000Z</time>
      </trkpt>
      <trkpt lat="45.26329" lon="6.03477">
        <ele>2103.3999023438</ele>
        <time>2026-08-21T11:17:59.000Z</time>
      </trkpt>
      <trkpt lat="45.2633" lon="6.03477">
        <ele>2103.1999511719</ele>
        <time>2026-08-21T11:18:00.000Z</time>
      </trkpt>
      <trkpt lat="45.26332" lon="6.03477">
        <ele>2103</ele>
        <time>2026-08-21T11:18:01.000Z</time>
      </trkpt>
      <trkpt lat="45.26333" lon="6.03477">
        <ele>2102.6000976562</ele>
        <time>2026-08-21T11:18:02.000Z</time>
      </trkpt>
      <trkpt lat="45.26334" lon="6.03476">
        <ele>2102.3999023438</ele>
        <time>2026-08-21T11:18:03.000Z</time>
      </trkpt>
      <trkpt lat="45.26335" lon="6.03474">
        <ele>2102</ele>
        <time>2026-08-21T11:18:04.000Z</time>
      </trkpt>
      <trkpt lat="45.26336" lon="6.03474">
        <ele>2101.6000976562</ele>
        <time>2026-08-21T11:18:05.000Z</time>
      </trkpt>
      <trkpt lat="45.26337" lon="6.03473">
        <ele>2101.3999023438</ele>
        <time>2026-08-21T11:18:06.000Z</time>
      </trkpt>
      <trkpt lat="45.26338" lon="6.03472">
        <ele>2101</ele>
        <time>2026-08-21T11:18:07.000Z</time>
      </trkpt>
      <trkpt lat="45.26339" lon="6.03473">
        <ele>2100.6000976562</ele>
        <time>2026-08-21T11:18:08.000Z</time>
      </trkpt>
      <trkpt lat="45.2634" lon="6.03475">
        <ele>2100.1999511719</ele>
        <time>2026-08-21T11:18:09.000Z</time>
      </trkpt>
      <trkpt lat="45.2634" lon="6.03476">
        <ele>2100</ele>
        <time>2026-08-21T11:18:10.000Z</time>
      </trkpt>
      <trkpt lat="45.26341" lon="6.03476">
        <ele>2100</ele>
        <time>2026-08-21T11:18:11.000Z</time>
      </trkpt>
      <trkpt lat="45.26343" lon="6.03476">
        <ele>2100</ele>
        <time>2026-08-21T11:18:12.000Z</time>
      </trkpt>
      <trkpt lat="45.26344" lon="6.03476">
        <ele>2100.3999023438</ele>
        <time>2026-08-21T11:18:13.000Z</time>
      </trkpt>
      <trkpt lat="45.26345" lon="6.03476">
        <ele>2100.6000976562</ele>
        <time>2026-08-21T11:18:14.000Z</time>
      </trkpt>
      <trkpt lat="45.26346" lon="6.03476">
        <ele>2101.1999511719</ele>
        <time>2026-08-21T11:18:15.000Z</time>
      </trkpt>
      <trkpt lat="45.26347" lon="6.03476">
        <ele>2101.8000488281</ele>
        <time>2026-08-21T11:18:16.000Z</time>
      </trkpt>
      <trkpt lat="45.26348" lon="6.03476">
        <ele>2102.3999023438</ele>
        <time>2026-08-21T11:18:17.000Z</time>
      </trkpt>
      <trkpt lat="45.26349" lon="6.03475">
        <ele>2102.6000976562</ele>
        <time>2026-08-21T11:18:18.000Z</time>
      </trkpt>
      <trkpt lat="45.2635" lon="6.03475">
        <ele>2102.6000976562</ele>
        <time>2026-08-21T11:18:19.000Z</time>
      </trkpt>
      <trkpt lat="45.26352" lon="6.03475">
        <ele>2102.6000976562</ele>
        <time>2026-08-21T11:18:20.000Z</time>
      </trkpt>
      <trkpt lat="45.26353" lon="6.03475">
        <ele>2102.6000976562</ele>
        <time>2026-08-21T11:18:21.000Z</time>
      </trkpt>
      <trkpt lat="45.26354" lon="6.03474">
        <ele>2102.6000976562</ele>
        <time>2026-08-21T11:18:22.000Z</time>
      </trkpt>
      <trkpt lat="45.26356" lon="6.03474">
        <ele>2102.8000488281</ele>
        <time>2026-08-21T11:18:23.000Z</time>
      </trkpt>
      <trkpt lat="45.26358" lon="6.03474">
        <ele>2102.8000488281</ele>
        <time>2026-08-21T11:18:24.000Z</time>
      </trkpt>
      <trkpt lat="45.2636" lon="6.03475">
        <ele>2102.6000976562</ele>
        <time>2026-08-21T11:18:25.000Z</time>
      </trkpt>
      <trkpt lat="45.26361" lon="6.03476">
        <ele>2102.3999023438</ele>
        <time>2026-08-21T11:18:26.000Z</time>
      </trkpt>
      <trkpt lat="45.26363" lon="6.03476">
        <ele>2102</ele>
        <time>2026-08-21T11:18:27.000Z</time>
      </trkpt>
      <trkpt lat="45.26364" lon="6.03476">
        <ele>2102.1999511719</ele>
        <time>2026-08-21T11:18:28.000Z</time>
      </trkpt>
      <trkpt lat="45.26365" lon="6.03476">
        <ele>2102.1999511719</ele>
        <time>2026-08-21T11:18:29.000Z</time>
      </trkpt>
      <trkpt lat="45.26366" lon="6.03475">
        <ele>2102.1999511719</ele>
        <time>2026-08-21T11:18:30.000Z</time>
      </trkpt>
      <trkpt lat="45.26367" lon="6.03475">
        <ele>2102.3999023438</ele>
        <time>2026-08-21T11:18:31.000Z</time>
      </trkpt>
      <trkpt lat="45.26368" lon="6.03475">
        <ele>2102.3999023438</ele>
        <time>2026-08-21T11:18:32.000Z</time>
      </trkpt>
      <trkpt lat="45.2637" lon="6.03476">
        <ele>2102.8000488281</ele>
        <time>2026-08-21T11:18:33.000Z</time>
      </trkpt>
      <trkpt lat="45.26372" lon="6.03476">
        <ele>2103.3999023438</ele>
        <time>2026-08-21T11:18:34.000Z</time>
      </trkpt>
      <trkpt lat="45.26373" lon="6.03477">
        <ele>2103.8000488281</ele>
        <time>2026-08-21T11:18:35.000Z</time>
      </trkpt>
      <trkpt lat="45.26375" lon="6.03477">
        <ele>2106</ele>
        <time>2026-08-21T11:18:36.000Z</time>
      </trkpt>
      <trkpt lat="45.26376" lon="6.03477">
        <ele>2107</ele>
        <time>2026-08-21T11:18:37.000Z</time>
      </trkpt>
      <trkpt lat="45.26377" lon="6.03478">
        <ele>2107.3999023438</ele>
        <time>2026-08-21T11:18:38.000Z</time>
      </trkpt>
      <trkpt lat="45.26379" lon="6.03478">
        <ele>2107.8000488281</ele>
        <time>2026-08-21T11:18:39.000Z</time>
      </trkpt>
      <trkpt lat="45.2638" lon="6.03478">
        <ele>2107.3999023438</ele>
        <time>2026-08-21T11:18:40.000Z</time>
      </trkpt>
      <trkpt lat="45.26382" lon="6.03479">
        <ele>2107</ele>
        <time>2026-08-21T11:18:41.000Z</time>
      </trkpt>
      <trkpt lat="45.26383" lon="6.03478">
        <ele>2106.8000488281</ele>
        <time>2026-08-21T11:18:42.000Z</time>
      </trkpt>
      <trkpt lat="45.26385" lon="6.03478">
        <ele>2106.6000976562</ele>
        <time>2026-08-21T11:18:43.000Z</time>
      </trkpt>
      <trkpt lat="45.26386" lon="6.03477">
        <ele>2106.3999023438</ele>
        <time>2026-08-21T11:18:44.000Z</time>
      </trkpt>
      <trkpt lat="45.26387" lon="6.03476">
        <ele>2106.1999511719</ele>
        <time>2026-08-21T11:18:45.000Z</time>
      </trkpt>
      <trkpt lat="45.26388" lon="6.03476">
        <ele>2106.1999511719</ele>
        <time>2026-08-21T11:18:46.000Z</time>
      </trkpt>
      <trkpt lat="45.2639" lon="6.03476">
        <ele>2106</ele>
        <time>2026-08-21T11:18:47.000Z</time>
      </trkpt>
      <trkpt lat="45.26391" lon="6.03476">
        <ele>2106</ele>
        <time>2026-08-21T11:18:48.000Z</time>
      </trkpt>
      <trkpt lat="45.26391" lon="6.03476">
        <ele>2105.8000488281</ele>
        <time>2026-08-21T11:18:49.000Z</time>
      </trkpt>
      <trkpt lat="45.26392" lon="6.03476">
        <ele>2105.3999023438</ele>
        <time>2026-08-21T11:18:50.000Z</time>
      </trkpt>
      <trkpt lat="45.26393" lon="6.03475">
        <ele>2105.3999023438</ele>
        <time>2026-08-21T11:18:51.000Z</time>
      </trkpt>
      <trkpt lat="45.26393" lon="6.03475">
        <ele>2105.6000976562</ele>
        <time>2026-08-21T11:18:52.000Z</time>
      </trkpt>
      <trkpt lat="45.26394" lon="6.03474">
        <ele>2105.6000976562</ele>
        <time>2026-08-21T11:18:53.000Z</time>
      </trkpt>
      <trkpt lat="45.26395" lon="6.03473">
        <ele>2106</ele>
        <time>2026-08-21T11:18:54.000Z</time>
      </trkpt>
      <trkpt lat="45.26396" lon="6.03472">
        <ele>2106.1999511719</ele>
        <time>2026-08-21T11:18:55.000Z</time>
      </trkpt>
      <trkpt lat="45.26397" lon="6.03472">
        <ele>2106.1999511719</ele>
        <time>2026-08-21T11:18:56.000Z</time>
      </trkpt>
      <trkpt lat="45.26398" lon="6.03472">
        <ele>2106.3999023438</ele>
        <time>2026-08-21T11:18:57.000Z</time>
      </trkpt>
      <trkpt lat="45.26399" lon="6.03471">
        <ele>2105.1999511719</ele>
        <time>2026-08-21T11:18:58.000Z</time>
      </trkpt>
      <trkpt lat="45.264" lon="6.03471">
        <ele>2104.8000488281</ele>
        <time>2026-08-21T11:18:59.000Z</time>
      </trkpt>
      <trkpt lat="45.264" lon="6.03471">
        <ele>2104.1999511719</ele>
        <time>2026-08-21T11:19:00.000Z</time>
      </trkpt>
      <trkpt lat="45.26401" lon="6.0347">
        <ele>2103.1999511719</ele>
        <time>2026-08-21T11:19:01.000Z</time>
      </trkpt>
      <trkpt lat="45.26402" lon="6.03471">
        <ele>2102</ele>
        <time>2026-08-21T11:19:02.000Z</time>
      </trkpt>
      <trkpt lat="45.26403" lon="6.03471">
        <ele>2101</ele>
        <time>2026-08-21T11:19:03.000Z</time>
      </trkpt>
      <trkpt lat="45.26405" lon="6.03473">
        <ele>2099.8000488281</ele>
        <time>2026-08-21T11:19:04.000Z</time>
      </trkpt>
      <trkpt lat="45.26405" lon="6.03474">
        <ele>2098.8000488281</ele>
        <time>2026-08-21T11:19:05.000Z</time>
      </trkpt>
      <trkpt lat="45.26406" lon="6.03474">
        <ele>2097</ele>
        <time>2026-08-21T11:19:06.000Z</time>
      </trkpt>
      <trkpt lat="45.26406" lon="6.03473">
        <ele>2096</ele>
        <time>2026-08-21T11:19:07.000Z</time>
      </trkpt>
      <trkpt lat="45.26406" lon="6.03472">
        <ele>2095.1999511719</ele>
        <time>2026-08-21T11:19:08.000Z</time>
      </trkpt>
      <trkpt lat="45.26406" lon="6.03472">
        <ele>2094.3999023438</ele>
        <time>2026-08-21T11:19:09.000Z</time>
      </trkpt>
      <trkpt lat="45.26405" lon="6.03471">
        <ele>2093.6000976562</ele>
        <time>2026-08-21T11:19:10.000Z</time>
      </trkpt>
      <trkpt lat="45.26405" lon="6.03471">
        <ele>2093</ele>
        <time>2026-08-21T11:19:11.000Z</time>
      </trkpt>
      <trkpt lat="45.26405" lon="6.03471">
        <ele>2092.6000976562</ele>
        <time>2026-08-21T11:19:12.000Z</time>
      </trkpt>
      <trkpt lat="45.26405" lon="6.03471">
        <ele>2092.1999511719</ele>
        <time>2026-08-21T11:19:13.000Z</time>
      </trkpt>
      <trkpt lat="45.26405" lon="6.03471">
        <ele>2092</ele>
        <time>2026-08-21T11:19:14.000Z</time>
      </trkpt>
      <trkpt lat="45.26405" lon="6.03471">
        <ele>2092</ele>
        <time>2026-08-21T11:19:15.000Z</time>
      </trkpt>
      <trkpt lat="45.26405" lon="6.03471">
        <ele>2091.8000488281</ele>
        <time>2026-08-21T11:19:16.000Z</time>
      </trkpt>
      <trkpt lat="45.26405" lon="6.03471">
        <ele>2091.6000976562</ele>
        <time>2026-08-21T11:19:17.000Z</time>
      </trkpt>
      <trkpt lat="45.26405" lon="6.03471">
        <ele>2091.6000976562</ele>
        <time>2026-08-21T11:19:18.000Z</time>
      </trkpt>
      <trkpt lat="45.26405" lon="6.0347">
        <ele>2091.3999023438</ele>
        <time>2026-08-21T11:19:19.000Z</time>
      </trkpt>
      <trkpt lat="45.26404" lon="6.0347">
        <ele>2091.8000488281</ele>
        <time>2026-08-21T11:19:20.000Z</time>
      </trkpt>
      <trkpt lat="45.26406" lon="6.03469">
        <ele>2092</ele>
        <time>2026-08-21T11:19:21.000Z</time>
      </trkpt>
      <trkpt lat="45.26406" lon="6.03469">
        <ele>2092.1999511719</ele>
        <time>2026-08-21T11:19:22.000Z</time>
      </trkpt>
      <trkpt lat="45.26406" lon="6.03469">
        <ele>2092.1999511719</ele>
        <time>2026-08-21T11:19:23.000Z</time>
      </trkpt>
      <trkpt lat="45.26407" lon="6.03467">
        <ele>2092.3999023438</ele>
        <time>2026-08-21T11:19:24.000Z</time>
      </trkpt>
      <trkpt lat="45.26408" lon="6.03468">
        <ele>2092.3999023438</ele>
        <time>2026-08-21T11:19:25.000Z</time>
      </trkpt>
      <trkpt lat="45.26408" lon="6.03469">
        <ele>2092.1999511719</ele>
        <time>2026-08-21T11:19:26.000Z</time>
      </trkpt>
      <trkpt lat="45.26409" lon="6.03469">
        <ele>2092.1999511719</ele>
        <time>2026-08-21T11:19:27.000Z</time>
      </trkpt>
      <trkpt lat="45.26409" lon="6.03468">
        <ele>2092</ele>
        <time>2026-08-21T11:19:28.000Z</time>
      </trkpt>
      <trkpt lat="45.26409" lon="6.03467">
        <ele>2091.8000488281</ele>
        <time>2026-08-21T11:19:29.000Z</time>
      </trkpt>
      <trkpt lat="45.2641" lon="6.03467">
        <ele>2091.6000976562</ele>
        <time>2026-08-21T11:19:30.000Z</time>
      </trkpt>
      <trkpt lat="45.26411" lon="6.03467">
        <ele>2091.6000976562</ele>
        <time>2026-08-21T11:19:31.000Z</time>
      </trkpt>
      <trkpt lat="45.26411" lon="6.03467">
        <ele>2091.3999023438</ele>
        <time>2026-08-21T11:19:32.000Z</time>
      </trkpt>
      <trkpt lat="45.26412" lon="6.03467">
        <ele>2091.1999511719</ele>
        <time>2026-08-21T11:19:33.000Z</time>
      </trkpt>
      <trkpt lat="45.26412" lon="6.03466">
        <ele>2091</ele>
        <time>2026-08-21T11:19:34.000Z</time>
      </trkpt>
      <trkpt lat="45.26413" lon="6.03467">
        <ele>2090.8000488281</ele>
        <time>2026-08-21T11:19:35.000Z</time>
      </trkpt>
      <trkpt lat="45.26413" lon="6.03467">
        <ele>2090.6000976562</ele>
        <time>2026-08-21T11:19:36.000Z</time>
      </trkpt>
      <trkpt lat="45.26414" lon="6.03467">
        <ele>2090.3999023438</ele>
        <time>2026-08-21T11:19:37.000Z</time>
      </trkpt>
      <trkpt lat="45.26414" lon="6.03467">
        <ele>2090.1999511719</ele>
        <time>2026-08-21T11:19:38.000Z</time>
      </trkpt>
      <trkpt lat="45.26414" lon="6.03468">
        <ele>2089.8000488281</ele>
        <time>2026-08-21T11:19:39.000Z</time>
      </trkpt>
      <trkpt lat="45.26415" lon="6.03467">
        <ele>2089.3999023438</ele>
        <time>2026-08-21T11:19:40.000Z</time>
      </trkpt>
      <trkpt lat="45.26416" lon="6.03466">
        <ele>2088.8000488281</ele>
        <time>2026-08-21T11:19:41.000Z</time>
      </trkpt>
      <trkpt lat="45.26418" lon="6.03465">
        <ele>2088.6000976562</ele>
        <time>2026-08-21T11:19:42.000Z</time>
      </trkpt>
      <trkpt lat="45.2642" lon="6.03465">
        <ele>2088.3999023438</ele>
        <time>2026-08-21T11:19:43.000Z</time>
      </trkpt>
      <trkpt lat="45.26421" lon="6.03466">
        <ele>2087.3999023438</ele>
        <time>2026-08-21T11:19:44.000Z</time>
      </trkpt>
      <trkpt lat="45.26423" lon="6.03467">
        <ele>2086.8000488281</ele>
        <time>2026-08-21T11:19:45.000Z</time>
      </trkpt>
      <trkpt lat="45.26425" lon="6.03467">
        <ele>2086.1999511719</ele>
        <time>2026-08-21T11:19:46.000Z</time>
      </trkpt>
      <trkpt lat="45.26427" lon="6.03467">
        <ele>2085.6000976562</ele>
        <time>2026-08-21T11:19:47.000Z</time>
      </trkpt>
      <trkpt lat="45.26428" lon="6.03467">
        <ele>2085</ele>
        <time>2026-08-21T11:19:48.000Z</time>
      </trkpt>
      <trkpt lat="45.26429" lon="6.03467">
        <ele>2084.1999511719</ele>
        <time>2026-08-21T11:19:49.000Z</time>
      </trkpt>
      <trkpt lat="45.26429" lon="6.03467">
        <ele>2084</ele>
        <time>2026-08-21T11:19:50.000Z</time>
      </trkpt>
      <trkpt lat="45.2643" lon="6.03467">
        <ele>2083.8000488281</ele>
        <time>2026-08-21T11:19:51.000Z</time>
      </trkpt>
      <trkpt lat="45.26431" lon="6.03467">
        <ele>2083.6000976562</ele>
        <time>2026-08-21T11:19:52.000Z</time>
      </trkpt>
      <trkpt lat="45.26432" lon="6.03468">
        <ele>2083.1999511719</ele>
        <time>2026-08-21T11:19:53.000Z</time>
      </trkpt>
      <trkpt lat="45.26434" lon="6.03467">
        <ele>2083</ele>
        <time>2026-08-21T11:19:54.000Z</time>
      </trkpt>
      <trkpt lat="45.26435" lon="6.03466">
        <ele>2083</ele>
        <time>2026-08-21T11:19:55.000Z</time>
      </trkpt>
      <trkpt lat="45.26435" lon="6.03465">
        <ele>2082.8000488281</ele>
        <time>2026-08-21T11:19:56.000Z</time>
      </trkpt>
      <trkpt lat="45.26437" lon="6.03464">
        <ele>2083.3999023438</ele>
        <time>2026-08-21T11:19:57.000Z</time>
      </trkpt>
      <trkpt lat="45.26437" lon="6.03464">
        <ele>2083.3999023438</ele>
        <time>2026-08-21T11:19:58.000Z</time>
      </trkpt>
      <trkpt lat="45.26437" lon="6.03464">
        <ele>2083.1999511719</ele>
        <time>2026-08-21T11:19:59.000Z</time>
      </trkpt>
      <trkpt lat="45.26437" lon="6.03464">
        <ele>2083</ele>
        <time>2026-08-21T11:20:00.000Z</time>
      </trkpt>
      <trkpt lat="45.26438" lon="6.03462">
        <ele>2083</ele>
        <time>2026-08-21T11:20:01.000Z</time>
      </trkpt>
      <trkpt lat="45.26439" lon="6.03462">
        <ele>2082.6000976562</ele>
        <time>2026-08-21T11:20:02.000Z</time>
      </trkpt>
      <trkpt lat="45.26441" lon="6.03461">
        <ele>2082.8000488281</ele>
        <time>2026-08-21T11:20:03.000Z</time>
      </trkpt>
      <trkpt lat="45.26441" lon="6.03461">
        <ele>2083</ele>
        <time>2026-08-21T11:20:04.000Z</time>
      </trkpt>
      <trkpt lat="45.26442" lon="6.0346">
        <ele>2083</ele>
        <time>2026-08-21T11:20:05.000Z</time>
      </trkpt>
      <trkpt lat="45.26442" lon="6.03459">
        <ele>2082.8000488281</ele>
        <time>2026-08-21T11:20:06.000Z</time>
      </trkpt>
      <trkpt lat="45.26442" lon="6.03459">
        <ele>2082.3999023438</ele>
        <time>2026-08-21T11:20:07.000Z</time>
      </trkpt>
      <trkpt lat="45.26442" lon="6.03459">
        <ele>2080.8000488281</ele>
        <time>2026-08-21T11:20:08.000Z</time>
      </trkpt>
      <trkpt lat="45.26442" lon="6.03459">
        <ele>2079.3999023438</ele>
        <time>2026-08-21T11:20:09.000Z</time>
      </trkpt>
      <trkpt lat="45.26443" lon="6.03459">
        <ele>2078.8000488281</ele>
        <time>2026-08-21T11:20:10.000Z</time>
      </trkpt>
      <trkpt lat="45.26443" lon="6.03459">
        <ele>2077.8000488281</ele>
        <time>2026-08-21T11:20:11.000Z</time>
      </trkpt>
      <trkpt lat="45.26443" lon="6.03458">
        <ele>2077.3999023438</ele>
        <time>2026-08-21T11:20:12.000Z</time>
      </trkpt>
      <trkpt lat="45.26444" lon="6.03458">
        <ele>2077</ele>
        <time>2026-08-21T11:20:13.000Z</time>
      </trkpt>
      <trkpt lat="45.26444" lon="6.03459">
        <ele>2076.6000976562</ele>
        <time>2026-08-21T11:20:14.000Z</time>
      </trkpt>
      <trkpt lat="45.26444" lon="6.03459">
        <ele>2076.1999511719</ele>
        <time>2026-08-21T11:20:15.000Z</time>
      </trkpt>
      <trkpt lat="45.26445" lon="6.03459">
        <ele>2075.8000488281</ele>
        <time>2026-08-21T11:20:16.000Z</time>
      </trkpt>
      <trkpt lat="45.26446" lon="6.0346">
        <ele>2075.3999023438</ele>
        <time>2026-08-21T11:20:17.000Z</time>
      </trkpt>
      <trkpt lat="45.26447" lon="6.0346">
        <ele>2075</ele>
        <time>2026-08-21T11:20:18.000Z</time>
      </trkpt>
      <trkpt lat="45.26447" lon="6.0346">
        <ele>2074.1999511719</ele>
        <time>2026-08-21T11:20:19.000Z</time>
      </trkpt>
      <trkpt lat="45.26447" lon="6.0346">
        <ele>2073.3999023438</ele>
        <time>2026-08-21T11:20:20.000Z</time>
      </trkpt>
      <trkpt lat="45.26448" lon="6.03459">
        <ele>2073.1999511719</ele>
        <time>2026-08-21T11:20:21.000Z</time>
      </trkpt>
      <trkpt lat="45.26448" lon="6.03458">
        <ele>2073</ele>
        <time>2026-08-21T11:20:22.000Z</time>
      </trkpt>
      <trkpt lat="45.26449" lon="6.03458">
        <ele>2072.3999023438</ele>
        <time>2026-08-21T11:20:23.000Z</time>
      </trkpt>
      <trkpt lat="45.2645" lon="6.03457">
        <ele>2072.3999023438</ele>
        <time>2026-08-21T11:20:24.000Z</time>
      </trkpt>
      <trkpt lat="45.2645" lon="6.03457">
        <ele>2072.1999511719</ele>
        <time>2026-08-21T11:20:25.000Z</time>
      </trkpt>
      <trkpt lat="45.26451" lon="6.03457">
        <ele>2072</ele>
        <time>2026-08-21T11:20:26.000Z</time>
      </trkpt>
      <trkpt lat="45.26451" lon="6.03457">
        <ele>2071.8000488281</ele>
        <time>2026-08-21T11:20:27.000Z</time>
      </trkpt>
      <trkpt lat="45.2645" lon="6.03457">
        <ele>2071.6000976562</ele>
        <time>2026-08-21T11:20:28.000Z</time>
      </trkpt>
      <trkpt lat="45.2645" lon="6.03457">
        <ele>2071.1999511719</ele>
        <time>2026-08-21T11:20:29.000Z</time>
      </trkpt>
      <trkpt lat="45.2645" lon="6.03456">
        <ele>2071</ele>
        <time>2026-08-21T11:20:30.000Z</time>
      </trkpt>
      <trkpt lat="45.26451" lon="6.03455">
        <ele>2070.6000976562</ele>
        <time>2026-08-21T11:20:31.000Z</time>
      </trkpt>
      <trkpt lat="45.26453" lon="6.03455">
        <ele>2069.8000488281</ele>
        <time>2026-08-21T11:20:32.000Z</time>
      </trkpt>
      <trkpt lat="45.26453" lon="6.03457">
        <ele>2069</ele>
        <time>2026-08-21T11:20:33.000Z</time>
      </trkpt>
      <trkpt lat="45.26453" lon="6.03459">
        <ele>2068.1999511719</ele>
        <time>2026-08-21T11:20:34.000Z</time>
      </trkpt>
      <trkpt lat="45.26453" lon="6.0346">
        <ele>2067.8000488281</ele>
        <time>2026-08-21T11:20:35.000Z</time>
      </trkpt>
      <trkpt lat="45.26453" lon="6.03461">
        <ele>2067.3999023438</ele>
        <time>2026-08-21T11:20:36.000Z</time>
      </trkpt>
      <trkpt lat="45.26454" lon="6.03461">
        <ele>2067.1999511719</ele>
        <time>2026-08-21T11:20:37.000Z</time>
      </trkpt>
      <trkpt lat="45.26454" lon="6.0346">
        <ele>2067</ele>
        <time>2026-08-21T11:20:38.000Z</time>
      </trkpt>
      <trkpt lat="45.26455" lon="6.03461">
        <ele>2066.1999511719</ele>
        <time>2026-08-21T11:20:39.000Z</time>
      </trkpt>
      <trkpt lat="45.26455" lon="6.0346">
        <ele>2066</ele>
        <time>2026-08-21T11:20:40.000Z</time>
      </trkpt>
      <trkpt lat="45.26455" lon="6.0346">
        <ele>2065.6000976562</ele>
        <time>2026-08-21T11:20:41.000Z</time>
      </trkpt>
      <trkpt lat="45.26456" lon="6.03459">
        <ele>2065.3999023438</ele>
        <time>2026-08-21T11:20:42.000Z</time>
      </trkpt>
      <trkpt lat="45.26456" lon="6.03459">
        <ele>2065.1999511719</ele>
        <time>2026-08-21T11:20:43.000Z</time>
      </trkpt>
      <trkpt lat="45.26457" lon="6.03458">
        <ele>2065</ele>
        <time>2026-08-21T11:20:44.000Z</time>
      </trkpt>
      <trkpt lat="45.26458" lon="6.03457">
        <ele>2064.8000488281</ele>
        <time>2026-08-21T11:20:45.000Z</time>
      </trkpt>
      <trkpt lat="45.26458" lon="6.03458">
        <ele>2064</ele>
        <time>2026-08-21T11:20:46.000Z</time>
      </trkpt>
      <trkpt lat="45.26458" lon="6.03458">
        <ele>2063.6000976562</ele>
        <time>2026-08-21T11:20:47.000Z</time>
      </trkpt>
      <trkpt lat="45.26459" lon="6.03458">
        <ele>2063</ele>
        <time>2026-08-21T11:20:48.000Z</time>
      </trkpt>
      <trkpt lat="45.26459" lon="6.03459">
        <ele>2062.8000488281</ele>
        <time>2026-08-21T11:20:49.000Z</time>
      </trkpt>
      <trkpt lat="45.26459" lon="6.03459">
        <ele>2062.3999023438</ele>
        <time>2026-08-21T11:20:50.000Z</time>
      </trkpt>
      <trkpt lat="45.2646" lon="6.0346">
        <ele>2061.8000488281</ele>
        <time>2026-08-21T11:20:51.000Z</time>
      </trkpt>
      <trkpt lat="45.2646" lon="6.03461">
        <ele>2061.3999023438</ele>
        <time>2026-08-21T11:20:52.000Z</time>
      </trkpt>
      <trkpt lat="45.26461" lon="6.03459">
        <ele>2060.8000488281</ele>
        <time>2026-08-21T11:20:53.000Z</time>
      </trkpt>
      <trkpt lat="45.26462" lon="6.03459">
        <ele>2060.3999023438</ele>
        <time>2026-08-21T11:20:54.000Z</time>
      </trkpt>
      <trkpt lat="45.26462" lon="6.03459">
        <ele>2059.8000488281</ele>
        <time>2026-08-21T11:20:55.000Z</time>
      </trkpt>
      <trkpt lat="45.26463" lon="6.03459">
        <ele>2059.8000488281</ele>
        <time>2026-08-21T11:20:56.000Z</time>
      </trkpt>
      <trkpt lat="45.26464" lon="6.03458">
        <ele>2059.6000976562</ele>
        <time>2026-08-21T11:20:57.000Z</time>
      </trkpt>
      <trkpt lat="45.26464" lon="6.03458">
        <ele>2059.3999023438</ele>
        <time>2026-08-21T11:20:58.000Z</time>
      </trkpt>
      <trkpt lat="45.26465" lon="6.03457">
        <ele>2059.1999511719</ele>
        <time>2026-08-21T11:20:59.000Z</time>
      </trkpt>
      <trkpt lat="45.26467" lon="6.03457">
        <ele>2059</ele>
        <time>2026-08-21T11:21:00.000Z</time>
      </trkpt>
      <trkpt lat="45.26468" lon="6.03459">
        <ele>2058.1999511719</ele>
        <time>2026-08-21T11:21:01.000Z</time>
      </trkpt>
      <trkpt lat="45.26469" lon="6.03459">
        <ele>2057.8000488281</ele>
        <time>2026-08-21T11:21:02.000Z</time>
      </trkpt>
      <trkpt lat="45.2647" lon="6.0346">
        <ele>2057.1999511719</ele>
        <time>2026-08-21T11:21:03.000Z</time>
      </trkpt>
      <trkpt lat="45.26471" lon="6.0346">
        <ele>2056.8000488281</ele>
        <time>2026-08-21T11:21:04.000Z</time>
      </trkpt>
      <trkpt lat="45.26472" lon="6.0346">
        <ele>2056.3999023438</ele>
        <time>2026-08-21T11:21:05.000Z</time>
      </trkpt>
      <trkpt lat="45.26474" lon="6.03461">
        <ele>2056</ele>
        <time>2026-08-21T11:21:06.000Z</time>
      </trkpt>
      <trkpt lat="45.26475" lon="6.0346">
        <ele>2055.6000976562</ele>
        <time>2026-08-21T11:21:07.000Z</time>
      </trkpt>
      <trkpt lat="45.26477" lon="6.0346">
        <ele>2055.6000976562</ele>
        <time>2026-08-21T11:21:08.000Z</time>
      </trkpt>
      <trkpt lat="45.26478" lon="6.0346">
        <ele>2055.6000976562</ele>
        <time>2026-08-21T11:21:09.000Z</time>
      </trkpt>
      <trkpt lat="45.2648" lon="6.0346">
        <ele>2055.6000976562</ele>
        <time>2026-08-21T11:21:10.000Z</time>
      </trkpt>
      <trkpt lat="45.26481" lon="6.03461">
        <ele>2055.8000488281</ele>
        <time>2026-08-21T11:21:11.000Z</time>
      </trkpt>
      <trkpt lat="45.26483" lon="6.03462">
        <ele>2055.8000488281</ele>
        <time>2026-08-21T11:21:12.000Z</time>
      </trkpt>
      <trkpt lat="45.26485" lon="6.03463">
        <ele>2055.8000488281</ele>
        <time>2026-08-21T11:21:13.000Z</time>
      </trkpt>
      <trkpt lat="45.26487" lon="6.03465">
        <ele>2057</ele>
        <time>2026-08-21T11:21:14.000Z</time>
      </trkpt>
      <trkpt lat="45.2649" lon="6.03467">
        <ele>2057.8000488281</ele>
        <time>2026-08-21T11:21:15.000Z</time>
      </trkpt>
      <trkpt lat="45.26492" lon="6.03469">
        <ele>2058.6000976562</ele>
        <time>2026-08-21T11:21:16.000Z</time>
      </trkpt>
      <trkpt lat="45.26494" lon="6.03471">
        <ele>2059.1999511719</ele>
        <time>2026-08-21T11:21:17.000Z</time>
      </trkpt>
      <trkpt lat="45.26497" lon="6.03472">
        <ele>2059.8000488281</ele>
        <time>2026-08-21T11:21:18.000Z</time>
      </trkpt>
      <trkpt lat="45.26499" lon="6.03474">
        <ele>2060</ele>
        <time>2026-08-21T11:21:19.000Z</time>
      </trkpt>
      <trkpt lat="45.26502" lon="6.03477">
        <ele>2061.1999511719</ele>
        <time>2026-08-21T11:21:20.000Z</time>
      </trkpt>
      <trkpt lat="45.26504" lon="6.03479">
        <ele>2061.6000976562</ele>
        <time>2026-08-21T11:21:21.000Z</time>
      </trkpt>
      <trkpt lat="45.26506" lon="6.03481">
        <ele>2062</ele>
        <time>2026-08-21T11:21:22.000Z</time>
      </trkpt>
      <trkpt lat="45.26509" lon="6.03483">
        <ele>2062.1999511719</ele>
        <time>2026-08-21T11:21:23.000Z</time>
      </trkpt>
      <trkpt lat="45.26511" lon="6.03485">
        <ele>2062.6000976562</ele>
        <time>2026-08-21T11:21:24.000Z</time>
      </trkpt>
      <trkpt lat="45.26514" lon="6.03487">
        <ele>2063.1999511719</ele>
        <time>2026-08-21T11:21:25.000Z</time>
      </trkpt>
      <trkpt lat="45.26516" lon="6.03489">
        <ele>2064</ele>
        <time>2026-08-21T11:21:26.000Z</time>
      </trkpt>
      <trkpt lat="45.26518" lon="6.03491">
        <ele>2064.3999023438</ele>
        <time>2026-08-21T11:21:27.000Z</time>
      </trkpt>
      <trkpt lat="45.26521" lon="6.03493">
        <ele>2064.6000976562</ele>
        <time>2026-08-21T11:21:28.000Z</time>
      </trkpt>
      <trkpt lat="45.26523" lon="6.03495">
        <ele>2064.6000976562</ele>
        <time>2026-08-21T11:21:29.000Z</time>
      </trkpt>
      <trkpt lat="45.26526" lon="6.03497">
        <ele>2064.8000488281</ele>
        <time>2026-08-21T11:21:30.000Z</time>
      </trkpt>
      <trkpt lat="45.26528" lon="6.03499">
        <ele>2064.3999023438</ele>
        <time>2026-08-21T11:21:31.000Z</time>
      </trkpt>
      <trkpt lat="45.26529" lon="6.03501">
        <ele>2064.1999511719</ele>
        <time>2026-08-21T11:21:32.000Z</time>
      </trkpt>
      <trkpt lat="45.26531" lon="6.03502">
        <ele>2064</ele>
        <time>2026-08-21T11:21:33.000Z</time>
      </trkpt>
      <trkpt lat="45.26533" lon="6.03504">
        <ele>2063.3999023438</ele>
        <time>2026-08-21T11:21:34.000Z</time>
      </trkpt>
      <trkpt lat="45.26536" lon="6.03506">
        <ele>2062.8000488281</ele>
        <time>2026-08-21T11:21:35.000Z</time>
      </trkpt>
      <trkpt lat="45.26538" lon="6.03507">
        <ele>2062.1999511719</ele>
        <time>2026-08-21T11:21:36.000Z</time>
      </trkpt>
      <trkpt lat="45.26541" lon="6.03508">
        <ele>2061.1999511719</ele>
        <time>2026-08-21T11:21:37.000Z</time>
      </trkpt>
      <trkpt lat="45.26543" lon="6.03508">
        <ele>2060</ele>
        <time>2026-08-21T11:21:38.000Z</time>
      </trkpt>
      <trkpt lat="45.26546" lon="6.03509">
        <ele>2059.1999511719</ele>
        <time>2026-08-21T11:21:39.000Z</time>
      </trkpt>
      <trkpt lat="45.26548" lon="6.03509">
        <ele>2059.1999511719</ele>
        <time>2026-08-21T11:21:40.000Z</time>
      </trkpt>
      <trkpt lat="45.2655" lon="6.0351">
        <ele>2058.8000488281</ele>
        <time>2026-08-21T11:21:41.000Z</time>
      </trkpt>
      <trkpt lat="45.26552" lon="6.03511">
        <ele>2058.8000488281</ele>
        <time>2026-08-21T11:21:42.000Z</time>
      </trkpt>
      <trkpt lat="45.26554" lon="6.03512">
        <ele>2058.6000976562</ele>
        <time>2026-08-21T11:21:43.000Z</time>
      </trkpt>
      <trkpt lat="45.26556" lon="6.03514">
        <ele>2058.6000976562</ele>
        <time>2026-08-21T11:21:44.000Z</time>
      </trkpt>
      <trkpt lat="45.26557" lon="6.03515">
        <ele>2058.8000488281</ele>
        <time>2026-08-21T11:21:45.000Z</time>
      </trkpt>
      <trkpt lat="45.26559" lon="6.03517">
        <ele>2058.3999023438</ele>
        <time>2026-08-21T11:21:46.000Z</time>
      </trkpt>
      <trkpt lat="45.26561" lon="6.03518">
        <ele>2058.3999023438</ele>
        <time>2026-08-21T11:21:47.000Z</time>
      </trkpt>
      <trkpt lat="45.26562" lon="6.0352">
        <ele>2058.6000976562</ele>
        <time>2026-08-21T11:21:48.000Z</time>
      </trkpt>
      <trkpt lat="45.26564" lon="6.03521">
        <ele>2058.8000488281</ele>
        <time>2026-08-21T11:21:49.000Z</time>
      </trkpt>
      <trkpt lat="45.26567" lon="6.03522">
        <ele>2059.8000488281</ele>
        <time>2026-08-21T11:21:50.000Z</time>
      </trkpt>
      <trkpt lat="45.26568" lon="6.03523">
        <ele>2060.6000976562</ele>
        <time>2026-08-21T11:21:51.000Z</time>
      </trkpt>
      <trkpt lat="45.2657" lon="6.03524">
        <ele>2061.6000976562</ele>
        <time>2026-08-21T11:21:52.000Z</time>
      </trkpt>
      <trkpt lat="45.26571" lon="6.03523">
        <ele>2061.6000976562</ele>
        <time>2026-08-21T11:21:53.000Z</time>
      </trkpt>
      <trkpt lat="45.26571" lon="6.03522">
        <ele>2061.6000976562</ele>
        <time>2026-08-21T11:21:54.000Z</time>
      </trkpt>
      <trkpt lat="45.26571" lon="6.03522">
        <ele>2061.6000976562</ele>
        <time>2026-08-21T11:21:55.000Z</time>
      </trkpt>
      <trkpt lat="45.26572" lon="6.03522">
        <ele>2060.3999023438</ele>
        <time>2026-08-21T11:21:56.000Z</time>
      </trkpt>
      <trkpt lat="45.26573" lon="6.03522">
        <ele>2059</ele>
        <time>2026-08-21T11:21:57.000Z</time>
      </trkpt>
      <trkpt lat="45.26574" lon="6.03521">
        <ele>2057.8000488281</ele>
        <time>2026-08-21T11:21:58.000Z</time>
      </trkpt>
      <trkpt lat="45.26575" lon="6.03521">
        <ele>2057.1999511719</ele>
        <time>2026-08-21T11:21:59.000Z</time>
      </trkpt>
      <trkpt lat="45.26576" lon="6.0352">
        <ele>2056.8000488281</ele>
        <time>2026-08-21T11:22:00.000Z</time>
      </trkpt>
      <trkpt lat="45.26577" lon="6.03519">
        <ele>2056.1999511719</ele>
        <time>2026-08-21T11:22:01.000Z</time>
      </trkpt>
      <trkpt lat="45.26579" lon="6.03519">
        <ele>2055.8000488281</ele>
        <time>2026-08-21T11:22:02.000Z</time>
      </trkpt>
      <trkpt lat="45.2658" lon="6.03519">
        <ele>2055.1999511719</ele>
        <time>2026-08-21T11:22:03.000Z</time>
      </trkpt>
      <trkpt lat="45.26581" lon="6.03518">
        <ele>2053.6000976562</ele>
        <time>2026-08-21T11:22:04.000Z</time>
      </trkpt>
      <trkpt lat="45.26584" lon="6.03518">
        <ele>2051.8000488281</ele>
        <time>2026-08-21T11:22:05.000Z</time>
      </trkpt>
      <trkpt lat="45.26586" lon="6.03518">
        <ele>2051</ele>
        <time>2026-08-21T11:22:06.000Z</time>
      </trkpt>
      <trkpt lat="45.26587" lon="6.03519">
        <ele>2050.3999023438</ele>
        <time>2026-08-21T11:22:07.000Z</time>
      </trkpt>
      <trkpt lat="45.26589" lon="6.0352">
        <ele>2049.6000976562</ele>
        <time>2026-08-21T11:22:08.000Z</time>
      </trkpt>
      <trkpt lat="45.2659" lon="6.0352">
        <ele>2048.8000488281</ele>
        <time>2026-08-21T11:22:09.000Z</time>
      </trkpt>
      <trkpt lat="45.26592" lon="6.03522">
        <ele>2047.8000488281</ele>
        <time>2026-08-21T11:22:10.000Z</time>
      </trkpt>
      <trkpt lat="45.26594" lon="6.03523">
        <ele>2046.5999755859</ele>
        <time>2026-08-21T11:22:11.000Z</time>
      </trkpt>
      <trkpt lat="45.26595" lon="6.03524">
        <ele>2045.4000244141</ele>
        <time>2026-08-21T11:22:12.000Z</time>
      </trkpt>
      <trkpt lat="45.26596" lon="6.03525">
        <ele>2044.1999511719</ele>
        <time>2026-08-21T11:22:13.000Z</time>
      </trkpt>
      <trkpt lat="45.26598" lon="6.03526">
        <ele>2043.1999511719</ele>
        <time>2026-08-21T11:22:14.000Z</time>
      </trkpt>
      <trkpt lat="45.26599" lon="6.03528">
        <ele>2042</ele>
        <time>2026-08-21T11:22:15.000Z</time>
      </trkpt>
      <trkpt lat="45.26599" lon="6.0353">
        <ele>2040.8000488281</ele>
        <time>2026-08-21T11:22:16.000Z</time>
      </trkpt>
      <trkpt lat="45.26601" lon="6.0353">
        <ele>2040.8000488281</ele>
        <time>2026-08-21T11:22:17.000Z</time>
      </trkpt>
      <trkpt lat="45.26602" lon="6.03531">
        <ele>2040.8000488281</ele>
        <time>2026-08-21T11:22:18.000Z</time>
      </trkpt>
      <trkpt lat="45.26603" lon="6.03532">
        <ele>2040.5999755859</ele>
        <time>2026-08-21T11:22:19.000Z</time>
      </trkpt>
      <trkpt lat="45.26605" lon="6.03533">
        <ele>2040.4000244141</ele>
        <time>2026-08-21T11:22:20.000Z</time>
      </trkpt>
      <trkpt lat="45.26606" lon="6.03533">
        <ele>2040</ele>
        <time>2026-08-21T11:22:21.000Z</time>
      </trkpt>
      <trkpt lat="45.26608" lon="6.03533">
        <ele>2039.5999755859</ele>
        <time>2026-08-21T11:22:22.000Z</time>
      </trkpt>
      <trkpt lat="45.2661" lon="6.03535">
        <ele>2039.5999755859</ele>
        <time>2026-08-21T11:22:23.000Z</time>
      </trkpt>
      <trkpt lat="45.26612" lon="6.03537">
        <ele>2039.5999755859</ele>
        <time>2026-08-21T11:22:24.000Z</time>
      </trkpt>
      <trkpt lat="45.26614" lon="6.03539">
        <ele>2039.5999755859</ele>
        <time>2026-08-21T11:22:25.000Z</time>
      </trkpt>
      <trkpt lat="45.26616" lon="6.03541">
        <ele>2039.8000488281</ele>
        <time>2026-08-21T11:22:26.000Z</time>
      </trkpt>
      <trkpt lat="45.26618" lon="6.03544">
        <ele>2040</ele>
        <time>2026-08-21T11:22:27.000Z</time>
      </trkpt>
      <trkpt lat="45.2662" lon="6.03547">
        <ele>2040.1999511719</ele>
        <time>2026-08-21T11:22:28.000Z</time>
      </trkpt>
      <trkpt lat="45.26622" lon="6.03549">
        <ele>2040.4000244141</ele>
        <time>2026-08-21T11:22:29.000Z</time>
      </trkpt>
      <trkpt lat="45.26624" lon="6.03552">
        <ele>2040.4000244141</ele>
        <time>2026-08-21T11:22:30.000Z</time>
      </trkpt>
      <trkpt lat="45.26626" lon="6.03554">
        <ele>2040.5999755859</ele>
        <time>2026-08-21T11:22:31.000Z</time>
      </trkpt>
      <trkpt lat="45.26628" lon="6.03557">
        <ele>2041</ele>
        <time>2026-08-21T11:22:32.000Z</time>
      </trkpt>
      <trkpt lat="45.26629" lon="6.0356">
        <ele>2041</ele>
        <time>2026-08-21T11:22:33.000Z</time>
      </trkpt>
      <trkpt lat="45.26631" lon="6.03561">
        <ele>2041.1999511719</ele>
        <time>2026-08-21T11:22:34.000Z</time>
      </trkpt>
      <trkpt lat="45.26633" lon="6.03562">
        <ele>2041.1999511719</ele>
        <time>2026-08-21T11:22:35.000Z</time>
      </trkpt>
      <trkpt lat="45.26636" lon="6.03563">
        <ele>2041.4000244141</ele>
        <time>2026-08-21T11:22:36.000Z</time>
      </trkpt>
      <trkpt lat="45.26638" lon="6.03566">
        <ele>2041.1999511719</ele>
        <time>2026-08-21T11:22:37.000Z</time>
      </trkpt>
      <trkpt lat="45.2664" lon="6.03568">
        <ele>2041.1999511719</ele>
        <time>2026-08-21T11:22:38.000Z</time>
      </trkpt>
      <trkpt lat="45.26642" lon="6.03571">
        <ele>2041</ele>
        <time>2026-08-21T11:22:39.000Z</time>
      </trkpt>
      <trkpt lat="45.26644" lon="6.03573">
        <ele>2041</ele>
        <time>2026-08-21T11:22:40.000Z</time>
      </trkpt>
      <trkpt lat="45.26647" lon="6.03576">
        <ele>2041.4000244141</ele>
        <time>2026-08-21T11:22:41.000Z</time>
      </trkpt>
      <trkpt lat="45.26649" lon="6.03577">
        <ele>2041.5999755859</ele>
        <time>2026-08-21T11:22:42.000Z</time>
      </trkpt>
      <trkpt lat="45.26649" lon="6.03579">
        <ele>2041.5999755859</ele>
        <time>2026-08-21T11:22:43.000Z</time>
      </trkpt>
      <trkpt lat="45.26651" lon="6.0358">
        <ele>2042</ele>
        <time>2026-08-21T11:22:44.000Z</time>
      </trkpt>
      <trkpt lat="45.26651" lon="6.03581">
        <ele>2042.4000244141</ele>
        <time>2026-08-21T11:22:45.000Z</time>
      </trkpt>
      <trkpt lat="45.26652" lon="6.03583">
        <ele>2042.8000488281</ele>
        <time>2026-08-21T11:22:46.000Z</time>
      </trkpt>
      <trkpt lat="45.26653" lon="6.03585">
        <ele>2043.1999511719</ele>
        <time>2026-08-21T11:22:47.000Z</time>
      </trkpt>
      <trkpt lat="45.26654" lon="6.03586">
        <ele>2043.4000244141</ele>
        <time>2026-08-21T11:22:48.000Z</time>
      </trkpt>
      <trkpt lat="45.26654" lon="6.03587">
        <ele>2043.8000488281</ele>
        <time>2026-08-21T11:22:49.000Z</time>
      </trkpt>
      <trkpt lat="45.26655" lon="6.03587">
        <ele>2044.1999511719</ele>
        <time>2026-08-21T11:22:50.000Z</time>
      </trkpt>
      <trkpt lat="45.26655" lon="6.03587">
        <ele>2044.5999755859</ele>
        <time>2026-08-21T11:22:51.000Z</time>
      </trkpt>
      <trkpt lat="45.26655" lon="6.03586">
        <ele>2045</ele>
        <time>2026-08-21T11:22:52.000Z</time>
      </trkpt>
      <trkpt lat="45.26656" lon="6.03586">
        <ele>2044.5999755859</ele>
        <time>2026-08-21T11:22:53.000Z</time>
      </trkpt>
      <trkpt lat="45.26658" lon="6.03586">
        <ele>2044.1999511719</ele>
        <time>2026-08-21T11:22:54.000Z</time>
      </trkpt>
      <trkpt lat="45.26659" lon="6.03588">
        <ele>2043.8000488281</ele>
        <time>2026-08-21T11:22:55.000Z</time>
      </trkpt>
      <trkpt lat="45.26659" lon="6.03588">
        <ele>2043.4000244141</ele>
        <time>2026-08-21T11:22:56.000Z</time>
      </trkpt>
      <trkpt lat="45.2666" lon="6.03588">
        <ele>2043</ele>
        <time>2026-08-21T11:22:57.000Z</time>
      </trkpt>
      <trkpt lat="45.26661" lon="6.03588">
        <ele>2042.5999755859</ele>
        <time>2026-08-21T11:22:58.000Z</time>
      </trkpt>
      <trkpt lat="45.26662" lon="6.0359">
        <ele>2039.8000488281</ele>
        <time>2026-08-21T11:22:59.000Z</time>
      </trkpt>
      <trkpt lat="45.26661" lon="6.0359">
        <ele>2040.4000244141</ele>
        <time>2026-08-21T11:23:00.000Z</time>
      </trkpt>
      <trkpt lat="45.26661" lon="6.03591">
        <ele>2040.5999755859</ele>
        <time>2026-08-21T11:23:01.000Z</time>
      </trkpt>
      <trkpt lat="45.26662" lon="6.03591">
        <ele>2040.5999755859</ele>
        <time>2026-08-21T11:23:02.000Z</time>
      </trkpt>
      <trkpt lat="45.26663" lon="6.03592">
        <ele>2040.4000244141</ele>
        <time>2026-08-21T11:23:03.000Z</time>
      </trkpt>
      <trkpt lat="45.26664" lon="6.03592">
        <ele>2040.1999511719</ele>
        <time>2026-08-21T11:23:04.000Z</time>
      </trkpt>
      <trkpt lat="45.26665" lon="6.03591">
        <ele>2040</ele>
        <time>2026-08-21T11:23:05.000Z</time>
      </trkpt>
      <trkpt lat="45.26665" lon="6.03592">
        <ele>2040</ele>
        <time>2026-08-21T11:23:06.000Z</time>
      </trkpt>
      <trkpt lat="45.26666" lon="6.03593">
        <ele>2040</ele>
        <time>2026-08-21T11:23:07.000Z</time>
      </trkpt>
      <trkpt lat="45.26665" lon="6.03594">
        <ele>2040.4000244141</ele>
        <time>2026-08-21T11:23:08.000Z</time>
      </trkpt>
      <trkpt lat="45.26666" lon="6.03595">
        <ele>2040.8000488281</ele>
        <time>2026-08-21T11:23:09.000Z</time>
      </trkpt>
      <trkpt lat="45.26666" lon="6.03596">
        <ele>2041</ele>
        <time>2026-08-21T11:23:10.000Z</time>
      </trkpt>
      <trkpt lat="45.26668" lon="6.03596">
        <ele>2041.4000244141</ele>
        <time>2026-08-21T11:23:11.000Z</time>
      </trkpt>
      <trkpt lat="45.26669" lon="6.03597">
        <ele>2041.4000244141</ele>
        <time>2026-08-21T11:23:12.000Z</time>
      </trkpt>
      <trkpt lat="45.2667" lon="6.03598">
        <ele>2041.4000244141</ele>
        <time>2026-08-21T11:23:13.000Z</time>
      </trkpt>
      <trkpt lat="45.2667" lon="6.03598">
        <ele>2041.4000244141</ele>
        <time>2026-08-21T11:23:14.000Z</time>
      </trkpt>
      <trkpt lat="45.26671" lon="6.03598">
        <ele>2041.4000244141</ele>
        <time>2026-08-21T11:23:15.000Z</time>
      </trkpt>
      <trkpt lat="45.26672" lon="6.03599">
        <ele>2041.5999755859</ele>
        <time>2026-08-21T11:23:16.000Z</time>
      </trkpt>
      <trkpt lat="45.26673" lon="6.03599">
        <ele>2041.5999755859</ele>
        <time>2026-08-21T11:23:17.000Z</time>
      </trkpt>
      <trkpt lat="45.26674" lon="6.036">
        <ele>2041.8000488281</ele>
        <time>2026-08-21T11:23:18.000Z</time>
      </trkpt>
      <trkpt lat="45.26675" lon="6.03602">
        <ele>2042</ele>
        <time>2026-08-21T11:23:19.000Z</time>
      </trkpt>
      <trkpt lat="45.26676" lon="6.03602">
        <ele>2042</ele>
        <time>2026-08-21T11:23:20.000Z</time>
      </trkpt>
      <trkpt lat="45.26678" lon="6.03603">
        <ele>2042</ele>
        <time>2026-08-21T11:23:21.000Z</time>
      </trkpt>
      <trkpt lat="45.26679" lon="6.03603">
        <ele>2042.1999511719</ele>
        <time>2026-08-21T11:23:22.000Z</time>
      </trkpt>
      <trkpt lat="45.2668" lon="6.03603">
        <ele>2042</ele>
        <time>2026-08-21T11:23:23.000Z</time>
      </trkpt>
      <trkpt lat="45.26681" lon="6.03603">
        <ele>2041.8000488281</ele>
        <time>2026-08-21T11:23:24.000Z</time>
      </trkpt>
      <trkpt lat="45.26682" lon="6.03603">
        <ele>2041.5999755859</ele>
        <time>2026-08-21T11:23:25.000Z</time>
      </trkpt>
      <trkpt lat="45.26682" lon="6.03602">
        <ele>2041.4000244141</ele>
        <time>2026-08-21T11:23:26.000Z</time>
      </trkpt>
      <trkpt lat="45.26683" lon="6.03601">
        <ele>2041.4000244141</ele>
        <time>2026-08-21T11:23:27.000Z</time>
      </trkpt>
      <trkpt lat="45.26684" lon="6.03602">
        <ele>2041.1999511719</ele>
        <time>2026-08-21T11:23:28.000Z</time>
      </trkpt>
      <trkpt lat="45.26684" lon="6.03601">
        <ele>2040.8000488281</ele>
        <time>2026-08-21T11:23:29.000Z</time>
      </trkpt>
      <trkpt lat="45.26686" lon="6.03601">
        <ele>2040.5999755859</ele>
        <time>2026-08-21T11:23:30.000Z</time>
      </trkpt>
      <trkpt lat="45.26687" lon="6.03602">
        <ele>2040.5999755859</ele>
        <time>2026-08-21T11:23:31.000Z</time>
      </trkpt>
      <trkpt lat="45.26688" lon="6.03603">
        <ele>2040.4000244141</ele>
        <time>2026-08-21T11:23:32.000Z</time>
      </trkpt>
      <trkpt lat="45.26689" lon="6.03603">
        <ele>2040.1999511719</ele>
        <time>2026-08-21T11:23:33.000Z</time>
      </trkpt>
      <trkpt lat="45.26689" lon="6.03604">
        <ele>2040.1999511719</ele>
        <time>2026-08-21T11:23:34.000Z</time>
      </trkpt>
      <trkpt lat="45.2669" lon="6.03605">
        <ele>2040.1999511719</ele>
        <time>2026-08-21T11:23:35.000Z</time>
      </trkpt>
      <trkpt lat="45.2669" lon="6.03605">
        <ele>2040.4000244141</ele>
        <time>2026-08-21T11:23:36.000Z</time>
      </trkpt>
      <trkpt lat="45.26691" lon="6.03605">
        <ele>2040.8000488281</ele>
        <time>2026-08-21T11:23:37.000Z</time>
      </trkpt>
      <trkpt lat="45.26692" lon="6.03605">
        <ele>2041</ele>
        <time>2026-08-21T11:23:38.000Z</time>
      </trkpt>
      <trkpt lat="45.26692" lon="6.03606">
        <ele>2041.4000244141</ele>
        <time>2026-08-21T11:23:39.000Z</time>
      </trkpt>
      <trkpt lat="45.26692" lon="6.03608">
        <ele>2041.5999755859</ele>
        <time>2026-08-21T11:23:40.000Z</time>
      </trkpt>
      <trkpt lat="45.26693" lon="6.0361">
        <ele>2042</ele>
        <time>2026-08-21T11:23:41.000Z</time>
      </trkpt>
      <trkpt lat="45.26692" lon="6.03611">
        <ele>2042.5999755859</ele>
        <time>2026-08-21T11:23:42.000Z</time>
      </trkpt>
      <trkpt lat="45.26693" lon="6.03611">
        <ele>2043</ele>
        <time>2026-08-21T11:23:43.000Z</time>
      </trkpt>
      <trkpt lat="45.26693" lon="6.03613">
        <ele>2043.1999511719</ele>
        <time>2026-08-21T11:23:44.000Z</time>
      </trkpt>
      <trkpt lat="45.26694" lon="6.03614">
        <ele>2043.1999511719</ele>
        <time>2026-08-21T11:23:45.000Z</time>
      </trkpt>
      <trkpt lat="45.26696" lon="6.03615">
        <ele>2044.1999511719</ele>
        <time>2026-08-21T11:23:46.000Z</time>
      </trkpt>
      <trkpt lat="45.26697" lon="6.03616">
        <ele>2044.1999511719</ele>
        <time>2026-08-21T11:23:47.000Z</time>
      </trkpt>
      <trkpt lat="45.26697" lon="6.03617">
        <ele>2044.1999511719</ele>
        <time>2026-08-21T11:23:48.000Z</time>
      </trkpt>
      <trkpt lat="45.26699" lon="6.03619">
        <ele>2044</ele>
        <time>2026-08-21T11:23:49.000Z</time>
      </trkpt>
      <trkpt lat="45.267" lon="6.0362">
        <ele>2044</ele>
        <time>2026-08-21T11:23:50.000Z</time>
      </trkpt>
      <trkpt lat="45.26701" lon="6.03621">
        <ele>2044</ele>
        <time>2026-08-21T11:23:51.000Z</time>
      </trkpt>
      <trkpt lat="45.26702" lon="6.03622">
        <ele>2043.8000488281</ele>
        <time>2026-08-21T11:23:52.000Z</time>
      </trkpt>
      <trkpt lat="45.26703" lon="6.03623">
        <ele>2044</ele>
        <time>2026-08-21T11:23:53.000Z</time>
      </trkpt>
      <trkpt lat="45.26704" lon="6.03625">
        <ele>2044.4000244141</ele>
        <time>2026-08-21T11:23:54.000Z</time>
      </trkpt>
      <trkpt lat="45.26705" lon="6.03626">
        <ele>2045</ele>
        <time>2026-08-21T11:23:55.000Z</time>
      </trkpt>
      <trkpt lat="45.26705" lon="6.03628">
        <ele>2045.5999755859</ele>
        <time>2026-08-21T11:23:56.000Z</time>
      </trkpt>
      <trkpt lat="45.26706" lon="6.03631">
        <ele>2046.5999755859</ele>
        <time>2026-08-21T11:23:57.000Z</time>
      </trkpt>
      <trkpt lat="45.26708" lon="6.03632">
        <ele>2047.1999511719</ele>
        <time>2026-08-21T11:23:58.000Z</time>
      </trkpt>
      <trkpt lat="45.26709" lon="6.03633">
        <ele>2047.4000244141</ele>
        <time>2026-08-21T11:23:59.000Z</time>
      </trkpt>
      <trkpt lat="45.2671" lon="6.03634">
        <ele>2047.5999755859</ele>
        <time>2026-08-21T11:24:00.000Z</time>
      </trkpt>
      <trkpt lat="45.26711" lon="6.03635">
        <ele>2047.5999755859</ele>
        <time>2026-08-21T11:24:01.000Z</time>
      </trkpt>
      <trkpt lat="45.26712" lon="6.03636">
        <ele>2048</ele>
        <time>2026-08-21T11:24:02.000Z</time>
      </trkpt>
      <trkpt lat="45.26713" lon="6.03637">
        <ele>2048.1999511719</ele>
        <time>2026-08-21T11:24:03.000Z</time>
      </trkpt>
      <trkpt lat="45.26714" lon="6.03638">
        <ele>2048.1999511719</ele>
        <time>2026-08-21T11:24:04.000Z</time>
      </trkpt>
      <trkpt lat="45.26714" lon="6.03639">
        <ele>2048.3999023438</ele>
        <time>2026-08-21T11:24:05.000Z</time>
      </trkpt>
      <trkpt lat="45.26715" lon="6.03639">
        <ele>2048.6000976562</ele>
        <time>2026-08-21T11:24:06.000Z</time>
      </trkpt>
      <trkpt lat="45.26716" lon="6.03639">
        <ele>2048.6000976562</ele>
        <time>2026-08-21T11:24:07.000Z</time>
      </trkpt>
      <trkpt lat="45.26717" lon="6.03639">
        <ele>2048.8000488281</ele>
        <time>2026-08-21T11:24:08.000Z</time>
      </trkpt>
      <trkpt lat="45.26717" lon="6.0364">
        <ele>2048.3999023438</ele>
        <time>2026-08-21T11:24:09.000Z</time>
      </trkpt>
      <trkpt lat="45.26718" lon="6.0364">
        <ele>2048</ele>
        <time>2026-08-21T11:24:10.000Z</time>
      </trkpt>
      <trkpt lat="45.26718" lon="6.03641">
        <ele>2048.1999511719</ele>
        <time>2026-08-21T11:24:11.000Z</time>
      </trkpt>
      <trkpt lat="45.26719" lon="6.03643">
        <ele>2048.1999511719</ele>
        <time>2026-08-21T11:24:12.000Z</time>
      </trkpt>
      <trkpt lat="45.26719" lon="6.03643">
        <ele>2048.3999023438</ele>
        <time>2026-08-21T11:24:13.000Z</time>
      </trkpt>
      <trkpt lat="45.2672" lon="6.03645">
        <ele>2048.3999023438</ele>
        <time>2026-08-21T11:24:14.000Z</time>
      </trkpt>
      <trkpt lat="45.26721" lon="6.03646">
        <ele>2048.3999023438</ele>
        <time>2026-08-21T11:24:15.000Z</time>
      </trkpt>
      <trkpt lat="45.26722" lon="6.03647">
        <ele>2048</ele>
        <time>2026-08-21T11:24:16.000Z</time>
      </trkpt>
      <trkpt lat="45.26725" lon="6.03648">
        <ele>2047.5999755859</ele>
        <time>2026-08-21T11:24:17.000Z</time>
      </trkpt>
      <trkpt lat="45.26727" lon="6.0365">
        <ele>2047.4000244141</ele>
        <time>2026-08-21T11:24:18.000Z</time>
      </trkpt>
      <trkpt lat="45.26729" lon="6.03652">
        <ele>2047</ele>
        <time>2026-08-21T11:24:19.000Z</time>
      </trkpt>
      <trkpt lat="45.26731" lon="6.03654">
        <ele>2046.5999755859</ele>
        <time>2026-08-21T11:24:20.000Z</time>
      </trkpt>
      <trkpt lat="45.26733" lon="6.03656">
        <ele>2045</ele>
        <time>2026-08-21T11:24:21.000Z</time>
      </trkpt>
      <trkpt lat="45.26735" lon="6.03658">
        <ele>2044.5999755859</ele>
        <time>2026-08-21T11:24:22.000Z</time>
      </trkpt>
      <trkpt lat="45.26737" lon="6.03659">
        <ele>2043.1999511719</ele>
        <time>2026-08-21T11:24:23.000Z</time>
      </trkpt>
      <trkpt lat="45.26739" lon="6.03662">
        <ele>2042.5999755859</ele>
        <time>2026-08-21T11:24:24.000Z</time>
      </trkpt>
      <trkpt lat="45.26741" lon="6.03664">
        <ele>2042.1999511719</ele>
        <time>2026-08-21T11:24:25.000Z</time>
      </trkpt>
      <trkpt lat="45.26743" lon="6.03666">
        <ele>2042</ele>
        <time>2026-08-21T11:24:26.000Z</time>
      </trkpt>
      <trkpt lat="45.26745" lon="6.03667">
        <ele>2042</ele>
        <time>2026-08-21T11:24:27.000Z</time>
      </trkpt>
      <trkpt lat="45.26747" lon="6.03667">
        <ele>2043</ele>
        <time>2026-08-21T11:24:28.000Z</time>
      </trkpt>
      <trkpt lat="45.26749" lon="6.03667">
        <ele>2044</ele>
        <time>2026-08-21T11:24:29.000Z</time>
      </trkpt>
      <trkpt lat="45.26751" lon="6.03668">
        <ele>2044.8000488281</ele>
        <time>2026-08-21T11:24:30.000Z</time>
      </trkpt>
      <trkpt lat="45.26753" lon="6.03668">
        <ele>2046.1999511719</ele>
        <time>2026-08-21T11:24:31.000Z</time>
      </trkpt>
      <trkpt lat="45.26756" lon="6.03669">
        <ele>2046.8000488281</ele>
        <time>2026-08-21T11:24:32.000Z</time>
      </trkpt>
      <trkpt lat="45.26758" lon="6.03669">
        <ele>2046.5999755859</ele>
        <time>2026-08-21T11:24:33.000Z</time>
      </trkpt>
      <trkpt lat="45.2676" lon="6.0367">
        <ele>2046.1999511719</ele>
        <time>2026-08-21T11:24:34.000Z</time>
      </trkpt>
      <trkpt lat="45.26762" lon="6.0367">
        <ele>2046</ele>
        <time>2026-08-21T11:24:35.000Z</time>
      </trkpt>
      <trkpt lat="45.26765" lon="6.03671">
        <ele>2045.5999755859</ele>
        <time>2026-08-21T11:24:36.000Z</time>
      </trkpt>
      <trkpt lat="45.26767" lon="6.03671">
        <ele>2044.8000488281</ele>
        <time>2026-08-21T11:24:37.000Z</time>
      </trkpt>
      <trkpt lat="45.26769" lon="6.0367">
        <ele>2043.8000488281</ele>
        <time>2026-08-21T11:24:38.000Z</time>
      </trkpt>
      <trkpt lat="45.26771" lon="6.0367">
        <ele>2042.4000244141</ele>
        <time>2026-08-21T11:24:39.000Z</time>
      </trkpt>
      <trkpt lat="45.26774" lon="6.03669">
        <ele>2042.5999755859</ele>
        <time>2026-08-21T11:24:40.000Z</time>
      </trkpt>
      <trkpt lat="45.26776" lon="6.03668">
        <ele>2042.5999755859</ele>
        <time>2026-08-21T11:24:41.000Z</time>
      </trkpt>
      <trkpt lat="45.26779" lon="6.03666">
        <ele>2043</ele>
        <time>2026-08-21T11:24:42.000Z</time>
      </trkpt>
      <trkpt lat="45.26781" lon="6.03665">
        <ele>2044</ele>
        <time>2026-08-21T11:24:43.000Z</time>
      </trkpt>
      <trkpt lat="45.26784" lon="6.03663">
        <ele>2045</ele>
        <time>2026-08-21T11:24:44.000Z</time>
      </trkpt>
      <trkpt lat="45.26786" lon="6.03662">
        <ele>2045.4000244141</ele>
        <time>2026-08-21T11:24:45.000Z</time>
      </trkpt>
      <trkpt lat="45.26789" lon="6.03661">
        <ele>2045.8000488281</ele>
        <time>2026-08-21T11:24:46.000Z</time>
      </trkpt>
      <trkpt lat="45.26792" lon="6.0366">
        <ele>2045.8000488281</ele>
        <time>2026-08-21T11:24:47.000Z</time>
      </trkpt>
      <trkpt lat="45.26794" lon="6.03658">
        <ele>2045.5999755859</ele>
        <time>2026-08-21T11:24:48.000Z</time>
      </trkpt>
      <trkpt lat="45.26796" lon="6.03656">
        <ele>2045.5999755859</ele>
        <time>2026-08-21T11:24:49.000Z</time>
      </trkpt>
      <trkpt lat="45.26799" lon="6.03654">
        <ele>2045.8000488281</ele>
        <time>2026-08-21T11:24:50.000Z</time>
      </trkpt>
      <trkpt lat="45.26801" lon="6.03652">
        <ele>2045.5999755859</ele>
        <time>2026-08-21T11:24:51.000Z</time>
      </trkpt>
      <trkpt lat="45.26803" lon="6.0365">
        <ele>2045.4000244141</ele>
        <time>2026-08-21T11:24:52.000Z</time>
      </trkpt>
      <trkpt lat="45.26805" lon="6.03648">
        <ele>2045.1999511719</ele>
        <time>2026-08-21T11:24:53.000Z</time>
      </trkpt>
      <trkpt lat="45.26808" lon="6.03645">
        <ele>2044</ele>
        <time>2026-08-21T11:24:54.000Z</time>
      </trkpt>
      <trkpt lat="45.26811" lon="6.03643">
        <ele>2042.8000488281</ele>
        <time>2026-08-21T11:24:55.000Z</time>
      </trkpt>
      <trkpt lat="45.26813" lon="6.03642">
        <ele>2041.8000488281</ele>
        <time>2026-08-21T11:24:56.000Z</time>
      </trkpt>
      <trkpt lat="45.26816" lon="6.0364">
        <ele>2040.5999755859</ele>
        <time>2026-08-21T11:24:57.000Z</time>
      </trkpt>
      <trkpt lat="45.26819" lon="6.03638">
        <ele>2040</ele>
        <time>2026-08-21T11:24:58.000Z</time>
      </trkpt>
      <trkpt lat="45.26821" lon="6.03637">
        <ele>2039.8000488281</ele>
        <time>2026-08-21T11:24:59.000Z</time>
      </trkpt>
      <trkpt lat="45.26824" lon="6.03636">
        <ele>2039.5999755859</ele>
        <time>2026-08-21T11:25:00.000Z</time>
      </trkpt>
      <trkpt lat="45.26826" lon="6.03636">
        <ele>2039.8000488281</ele>
        <time>2026-08-21T11:25:01.000Z</time>
      </trkpt>
      <trkpt lat="45.26828" lon="6.03637">
        <ele>2040</ele>
        <time>2026-08-21T11:25:02.000Z</time>
      </trkpt>
      <trkpt lat="45.2683" lon="6.03637">
        <ele>2040.1999511719</ele>
        <time>2026-08-21T11:25:03.000Z</time>
      </trkpt>
      <trkpt lat="45.26832" lon="6.03636">
        <ele>2040.5999755859</ele>
        <time>2026-08-21T11:25:04.000Z</time>
      </trkpt>
      <trkpt lat="45.26833" lon="6.03635">
        <ele>2040.8000488281</ele>
        <time>2026-08-21T11:25:05.000Z</time>
      </trkpt>
      <trkpt lat="45.26835" lon="6.03634">
        <ele>2041</ele>
        <time>2026-08-21T11:25:06.000Z</time>
      </trkpt>
      <trkpt lat="45.26836" lon="6.03633">
        <ele>2041.4000244141</ele>
        <time>2026-08-21T11:25:07.000Z</time>
      </trkpt>
      <trkpt lat="45.26838" lon="6.03633">
        <ele>2041.5999755859</ele>
        <time>2026-08-21T11:25:08.000Z</time>
      </trkpt>
      <trkpt lat="45.26839" lon="6.03633">
        <ele>2040.8000488281</ele>
        <time>2026-08-21T11:25:09.000Z</time>
      </trkpt>
      <trkpt lat="45.26841" lon="6.03632">
        <ele>2040.1999511719</ele>
        <time>2026-08-21T11:25:10.000Z</time>
      </trkpt>
      <trkpt lat="45.26842" lon="6.03631">
        <ele>2039.4000244141</ele>
        <time>2026-08-21T11:25:11.000Z</time>
      </trkpt>
      <trkpt lat="45.26844" lon="6.03631">
        <ele>2038.8000488281</ele>
        <time>2026-08-21T11:25:12.000Z</time>
      </trkpt>
      <trkpt lat="45.26845" lon="6.03631">
        <ele>2038</ele>
        <time>2026-08-21T11:25:13.000Z</time>
      </trkpt>
      <trkpt lat="45.26847" lon="6.0363">
        <ele>2037.4000244141</ele>
        <time>2026-08-21T11:25:14.000Z</time>
      </trkpt>
      <trkpt lat="45.26849" lon="6.0363">
        <ele>2036.5999755859</ele>
        <time>2026-08-21T11:25:15.000Z</time>
      </trkpt>
      <trkpt lat="45.2685" lon="6.03629">
        <ele>2036.4000244141</ele>
        <time>2026-08-21T11:25:16.000Z</time>
      </trkpt>
      <trkpt lat="45.26852" lon="6.03628">
        <ele>2036</ele>
        <time>2026-08-21T11:25:17.000Z</time>
      </trkpt>
      <trkpt lat="45.26853" lon="6.03628">
        <ele>2035.5999755859</ele>
        <time>2026-08-21T11:25:18.000Z</time>
      </trkpt>
      <trkpt lat="45.26855" lon="6.03627">
        <ele>2034.4000244141</ele>
        <time>2026-08-21T11:25:19.000Z</time>
      </trkpt>
      <trkpt lat="45.26856" lon="6.03627">
        <ele>2033.4000244141</ele>
        <time>2026-08-21T11:25:20.000Z</time>
      </trkpt>
      <trkpt lat="45.26858" lon="6.03626">
        <ele>2032.1999511719</ele>
        <time>2026-08-21T11:25:21.000Z</time>
      </trkpt>
      <trkpt lat="45.2686" lon="6.03626">
        <ele>2031.1999511719</ele>
        <time>2026-08-21T11:25:22.000Z</time>
      </trkpt>
      <trkpt lat="45.26861" lon="6.03625">
        <ele>2030</ele>
        <time>2026-08-21T11:25:23.000Z</time>
      </trkpt>
      <trkpt lat="45.26863" lon="6.03624">
        <ele>2030</ele>
        <time>2026-08-21T11:25:24.000Z</time>
      </trkpt>
      <trkpt lat="45.26865" lon="6.03624">
        <ele>2030</ele>
        <time>2026-08-21T11:25:25.000Z</time>
      </trkpt>
      <trkpt lat="45.26866" lon="6.03623">
        <ele>2030</ele>
        <time>2026-08-21T11:25:26.000Z</time>
      </trkpt>
      <trkpt lat="45.26868" lon="6.03623">
        <ele>2029.5999755859</ele>
        <time>2026-08-21T11:25:27.000Z</time>
      </trkpt>
      <trkpt lat="45.26869" lon="6.03623">
        <ele>2029.1999511719</ele>
        <time>2026-08-21T11:25:28.000Z</time>
      </trkpt>
      <trkpt lat="45.26871" lon="6.03623">
        <ele>2028.8000488281</ele>
        <time>2026-08-21T11:25:29.000Z</time>
      </trkpt>
      <trkpt lat="45.26873" lon="6.03623">
        <ele>2028</ele>
        <time>2026-08-21T11:25:30.000Z</time>
      </trkpt>
      <trkpt lat="45.26875" lon="6.03623">
        <ele>2026.1999511719</ele>
        <time>2026-08-21T11:25:31.000Z</time>
      </trkpt>
      <trkpt lat="45.26878" lon="6.03623">
        <ele>2025.4000244141</ele>
        <time>2026-08-21T11:25:32.000Z</time>
      </trkpt>
      <trkpt lat="45.2688" lon="6.03623">
        <ele>2024.4000244141</ele>
        <time>2026-08-21T11:25:33.000Z</time>
      </trkpt>
      <trkpt lat="45.26882" lon="6.03623">
        <ele>2023</ele>
        <time>2026-08-21T11:25:34.000Z</time>
      </trkpt>
      <trkpt lat="45.26884" lon="6.03622">
        <ele>2022.1999511719</ele>
        <time>2026-08-21T11:25:35.000Z</time>
      </trkpt>
      <trkpt lat="45.26886" lon="6.03622">
        <ele>2021.4000244141</ele>
        <time>2026-08-21T11:25:36.000Z</time>
      </trkpt>
      <trkpt lat="45.26888" lon="6.03621">
        <ele>2020.5999755859</ele>
        <time>2026-08-21T11:25:37.000Z</time>
      </trkpt>
      <trkpt lat="45.26891" lon="6.03621">
        <ele>2019.8000488281</ele>
        <time>2026-08-21T11:25:38.000Z</time>
      </trkpt>
      <trkpt lat="45.26894" lon="6.03621">
        <ele>2019</ele>
        <time>2026-08-21T11:25:39.000Z</time>
      </trkpt>
      <trkpt lat="45.26897" lon="6.03621">
        <ele>2017</ele>
        <time>2026-08-21T11:25:40.000Z</time>
      </trkpt>
      <trkpt lat="45.26899" lon="6.0362">
        <ele>2015</ele>
        <time>2026-08-21T11:25:41.000Z</time>
      </trkpt>
      <trkpt lat="45.26902" lon="6.0362">
        <ele>2014.4000244141</ele>
        <time>2026-08-21T11:25:42.000Z</time>
      </trkpt>
      <trkpt lat="45.26905" lon="6.0362">
        <ele>2013.5999755859</ele>
        <time>2026-08-21T11:25:43.000Z</time>
      </trkpt>
      <trkpt lat="45.26907" lon="6.03619">
        <ele>2013</ele>
        <time>2026-08-21T11:25:44.000Z</time>
      </trkpt>
      <trkpt lat="45.2691" lon="6.03619">
        <ele>2012.8000488281</ele>
        <time>2026-08-21T11:25:45.000Z</time>
      </trkpt>
      <trkpt lat="45.26912" lon="6.03619">
        <ele>2012.4000244141</ele>
        <time>2026-08-21T11:25:46.000Z</time>
      </trkpt>
      <trkpt lat="45.26915" lon="6.03618">
        <ele>2012.1999511719</ele>
        <time>2026-08-21T11:25:47.000Z</time>
      </trkpt>
      <trkpt lat="45.26918" lon="6.03617">
        <ele>2011.8000488281</ele>
        <time>2026-08-21T11:25:48.000Z</time>
      </trkpt>
      <trkpt lat="45.26921" lon="6.03617">
        <ele>2011.5999755859</ele>
        <time>2026-08-21T11:25:49.000Z</time>
      </trkpt>
      <trkpt lat="45.26923" lon="6.03618">
        <ele>2012.4000244141</ele>
        <time>2026-08-21T11:25:50.000Z</time>
      </trkpt>
      <trkpt lat="45.26926" lon="6.03619">
        <ele>2012.5999755859</ele>
        <time>2026-08-21T11:25:51.000Z</time>
      </trkpt>
      <trkpt lat="45.26929" lon="6.03619">
        <ele>2012.8000488281</ele>
        <time>2026-08-21T11:25:52.000Z</time>
      </trkpt>
      <trkpt lat="45.26932" lon="6.03619">
        <ele>2013</ele>
        <time>2026-08-21T11:25:53.000Z</time>
      </trkpt>
      <trkpt lat="45.26934" lon="6.03619">
        <ele>2013.1999511719</ele>
        <time>2026-08-21T11:25:54.000Z</time>
      </trkpt>
      <trkpt lat="45.26936" lon="6.03618">
        <ele>2013.5999755859</ele>
        <time>2026-08-21T11:25:55.000Z</time>
      </trkpt>
      <trkpt lat="45.26939" lon="6.03618">
        <ele>2013.4000244141</ele>
        <time>2026-08-21T11:25:56.000Z</time>
      </trkpt>
      <trkpt lat="45.26941" lon="6.03617">
        <ele>2013</ele>
        <time>2026-08-21T11:25:57.000Z</time>
      </trkpt>
      <trkpt lat="45.26944" lon="6.03617">
        <ele>2012.8000488281</ele>
        <time>2026-08-21T11:25:58.000Z</time>
      </trkpt>
      <trkpt lat="45.26947" lon="6.03617">
        <ele>2011.5999755859</ele>
        <time>2026-08-21T11:25:59.000Z</time>
      </trkpt>
      <trkpt lat="45.26949" lon="6.03616">
        <ele>2010.5999755859</ele>
        <time>2026-08-21T11:26:00.000Z</time>
      </trkpt>
      <trkpt lat="45.26952" lon="6.03616">
        <ele>2009.4000244141</ele>
        <time>2026-08-21T11:26:01.000Z</time>
      </trkpt>
      <trkpt lat="45.26955" lon="6.03615">
        <ele>2008</ele>
        <time>2026-08-21T11:26:02.000Z</time>
      </trkpt>
      <trkpt lat="45.26958" lon="6.03614">
        <ele>2007.5999755859</ele>
        <time>2026-08-21T11:26:03.000Z</time>
      </trkpt>
      <trkpt lat="45.26961" lon="6.03613">
        <ele>2005.5999755859</ele>
        <time>2026-08-21T11:26:04.000Z</time>
      </trkpt>
      <trkpt lat="45.26964" lon="6.03612">
        <ele>2005.4000244141</ele>
        <time>2026-08-21T11:26:05.000Z</time>
      </trkpt>
      <trkpt lat="45.26967" lon="6.03611">
        <ele>2004.8000488281</ele>
        <time>2026-08-21T11:26:06.000Z</time>
      </trkpt>
      <trkpt lat="45.2697" lon="6.0361">
        <ele>2003.4000244141</ele>
        <time>2026-08-21T11:26:07.000Z</time>
      </trkpt>
      <trkpt lat="45.26972" lon="6.03609">
        <ele>2002</ele>
        <time>2026-08-21T11:26:08.000Z</time>
      </trkpt>
      <trkpt lat="45.26975" lon="6.03608">
        <ele>2002</ele>
        <time>2026-08-21T11:26:09.000Z</time>
      </trkpt>
      <trkpt lat="45.26977" lon="6.03608">
        <ele>2000</ele>
        <time>2026-08-21T11:26:10.000Z</time>
      </trkpt>
      <trkpt lat="45.2698" lon="6.03607">
        <ele>1999</ele>
        <time>2026-08-21T11:26:11.000Z</time>
      </trkpt>
      <trkpt lat="45.26983" lon="6.03607">
        <ele>1997.8000488281</ele>
        <time>2026-08-21T11:26:12.000Z</time>
      </trkpt>
      <trkpt lat="45.26986" lon="6.03607">
        <ele>1997.5999755859</ele>
        <time>2026-08-21T11:26:13.000Z</time>
      </trkpt>
      <trkpt lat="45.26989" lon="6.03607">
        <ele>1997.4000244141</ele>
        <time>2026-08-21T11:26:14.000Z</time>
      </trkpt>
      <trkpt lat="45.26991" lon="6.03606">
        <ele>1997.5999755859</ele>
        <time>2026-08-21T11:26:15.000Z</time>
      </trkpt>
      <trkpt lat="45.26993" lon="6.03605">
        <ele>1997.5999755859</ele>
        <time>2026-08-21T11:26:16.000Z</time>
      </trkpt>
      <trkpt lat="45.26996" lon="6.03604">
        <ele>1997.8000488281</ele>
        <time>2026-08-21T11:26:17.000Z</time>
      </trkpt>
      <trkpt lat="45.26999" lon="6.03603">
        <ele>1997.8000488281</ele>
        <time>2026-08-21T11:26:18.000Z</time>
      </trkpt>
      <trkpt lat="45.27001" lon="6.03602">
        <ele>1998</ele>
        <time>2026-08-21T11:26:19.000Z</time>
      </trkpt>
      <trkpt lat="45.27004" lon="6.036">
        <ele>1997.8000488281</ele>
        <time>2026-08-21T11:26:20.000Z</time>
      </trkpt>
      <trkpt lat="45.27007" lon="6.036">
        <ele>1997.5999755859</ele>
        <time>2026-08-21T11:26:21.000Z</time>
      </trkpt>
      <trkpt lat="45.27009" lon="6.03598">
        <ele>1997.1999511719</ele>
        <time>2026-08-21T11:26:22.000Z</time>
      </trkpt>
      <trkpt lat="45.27012" lon="6.03598">
        <ele>1997</ele>
        <time>2026-08-21T11:26:23.000Z</time>
      </trkpt>
      <trkpt lat="45.27015" lon="6.03597">
        <ele>1996.4000244141</ele>
        <time>2026-08-21T11:26:24.000Z</time>
      </trkpt>
      <trkpt lat="45.27017" lon="6.03597">
        <ele>1995.5999755859</ele>
        <time>2026-08-21T11:26:25.000Z</time>
      </trkpt>
      <trkpt lat="45.27019" lon="6.03596">
        <ele>1995</ele>
        <time>2026-08-21T11:26:26.000Z</time>
      </trkpt>
      <trkpt lat="45.27022" lon="6.03595">
        <ele>1994.4000244141</ele>
        <time>2026-08-21T11:26:27.000Z</time>
      </trkpt>
      <trkpt lat="45.27024" lon="6.03595">
        <ele>1994</ele>
        <time>2026-08-21T11:26:28.000Z</time>
      </trkpt>
      <trkpt lat="45.27027" lon="6.03594">
        <ele>1993.4000244141</ele>
        <time>2026-08-21T11:26:29.000Z</time>
      </trkpt>
      <trkpt lat="45.27029" lon="6.03594">
        <ele>1992.5999755859</ele>
        <time>2026-08-21T11:26:30.000Z</time>
      </trkpt>
      <trkpt lat="45.27032" lon="6.03594">
        <ele>1991.8000488281</ele>
        <time>2026-08-21T11:26:31.000Z</time>
      </trkpt>
      <trkpt lat="45.27033" lon="6.03594">
        <ele>1990.8000488281</ele>
        <time>2026-08-21T11:26:32.000Z</time>
      </trkpt>
      <trkpt lat="45.27035" lon="6.03594">
        <ele>1990</ele>
        <time>2026-08-21T11:26:33.000Z</time>
      </trkpt>
      <trkpt lat="45.27037" lon="6.03593">
        <ele>1988.4000244141</ele>
        <time>2026-08-21T11:26:34.000Z</time>
      </trkpt>
      <trkpt lat="45.27039" lon="6.03592">
        <ele>1986.5999755859</ele>
        <time>2026-08-21T11:26:35.000Z</time>
      </trkpt>
      <trkpt lat="45.27042" lon="6.03592">
        <ele>1986</ele>
        <time>2026-08-21T11:26:36.000Z</time>
      </trkpt>
      <trkpt lat="45.27043" lon="6.03591">
        <ele>1985.5999755859</ele>
        <time>2026-08-21T11:26:37.000Z</time>
      </trkpt>
      <trkpt lat="45.27045" lon="6.03591">
        <ele>1985.1999511719</ele>
        <time>2026-08-21T11:26:38.000Z</time>
      </trkpt>
      <trkpt lat="45.27047" lon="6.03591">
        <ele>1984.8000488281</ele>
        <time>2026-08-21T11:26:39.000Z</time>
      </trkpt>
      <trkpt lat="45.27049" lon="6.0359">
        <ele>1984.4000244141</ele>
        <time>2026-08-21T11:26:40.000Z</time>
      </trkpt>
      <trkpt lat="45.27051" lon="6.0359">
        <ele>1983.8000488281</ele>
        <time>2026-08-21T11:26:41.000Z</time>
      </trkpt>
      <trkpt lat="45.27053" lon="6.0359">
        <ele>1982.5999755859</ele>
        <time>2026-08-21T11:26:42.000Z</time>
      </trkpt>
      <trkpt lat="45.27055" lon="6.0359">
        <ele>1981.5999755859</ele>
        <time>2026-08-21T11:26:43.000Z</time>
      </trkpt>
      <trkpt lat="45.27056" lon="6.0359">
        <ele>1980.4000244141</ele>
        <time>2026-08-21T11:26:44.000Z</time>
      </trkpt>
      <trkpt lat="45.27058" lon="6.03589">
        <ele>1979.4000244141</ele>
        <time>2026-08-21T11:26:45.000Z</time>
      </trkpt>
      <trkpt lat="45.2706" lon="6.03589">
        <ele>1978.4000244141</ele>
        <time>2026-08-21T11:26:46.000Z</time>
      </trkpt>
      <trkpt lat="45.27061" lon="6.03589">
        <ele>1977.1999511719</ele>
        <time>2026-08-21T11:26:47.000Z</time>
      </trkpt>
      <trkpt lat="45.27063" lon="6.03589">
        <ele>1976.1999511719</ele>
        <time>2026-08-21T11:26:48.000Z</time>
      </trkpt>
      <trkpt lat="45.27064" lon="6.03589">
        <ele>1976</ele>
        <time>2026-08-21T11:26:49.000Z</time>
      </trkpt>
      <trkpt lat="45.27066" lon="6.03588">
        <ele>1975.5999755859</ele>
        <time>2026-08-21T11:26:50.000Z</time>
      </trkpt>
      <trkpt lat="45.27068" lon="6.03588">
        <ele>1975.1999511719</ele>
        <time>2026-08-21T11:26:51.000Z</time>
      </trkpt>
      <trkpt lat="45.27069" lon="6.03587">
        <ele>1974.5999755859</ele>
        <time>2026-08-21T11:26:52.000Z</time>
      </trkpt>
      <trkpt lat="45.27071" lon="6.03587">
        <ele>1973.8000488281</ele>
        <time>2026-08-21T11:26:53.000Z</time>
      </trkpt>
      <trkpt lat="45.27073" lon="6.03587">
        <ele>1972.8000488281</ele>
        <time>2026-08-21T11:26:54.000Z</time>
      </trkpt>
      <trkpt lat="45.27075" lon="6.03586">
        <ele>1971.8000488281</ele>
        <time>2026-08-21T11:26:55.000Z</time>
      </trkpt>
      <trkpt lat="45.27077" lon="6.03586">
        <ele>1970.8000488281</ele>
        <time>2026-08-21T11:26:56.000Z</time>
      </trkpt>
      <trkpt lat="45.27079" lon="6.03585">
        <ele>1970</ele>
        <time>2026-08-21T11:26:57.000Z</time>
      </trkpt>
      <trkpt lat="45.27081" lon="6.03584">
        <ele>1969</ele>
        <time>2026-08-21T11:26:58.000Z</time>
      </trkpt>
      <trkpt lat="45.27083" lon="6.03583">
        <ele>1968</ele>
        <time>2026-08-21T11:26:59.000Z</time>
      </trkpt>
      <trkpt lat="45.27086" lon="6.03583">
        <ele>1967.4000244141</ele>
        <time>2026-08-21T11:27:00.000Z</time>
      </trkpt>
      <trkpt lat="45.27088" lon="6.03582">
        <ele>1966.5999755859</ele>
        <time>2026-08-21T11:27:01.000Z</time>
      </trkpt>
      <trkpt lat="45.27091" lon="6.03582">
        <ele>1966</ele>
        <time>2026-08-21T11:27:02.000Z</time>
      </trkpt>
      <trkpt lat="45.27094" lon="6.03582">
        <ele>1965.5999755859</ele>
        <time>2026-08-21T11:27:03.000Z</time>
      </trkpt>
      <trkpt lat="45.27096" lon="6.03583">
        <ele>1965.1999511719</ele>
        <time>2026-08-21T11:27:04.000Z</time>
      </trkpt>
      <trkpt lat="45.27099" lon="6.03582">
        <ele>1964.5999755859</ele>
        <time>2026-08-21T11:27:05.000Z</time>
      </trkpt>
      <trkpt lat="45.27101" lon="6.03581">
        <ele>1964.1999511719</ele>
        <time>2026-08-21T11:27:06.000Z</time>
      </trkpt>
      <trkpt lat="45.27104" lon="6.03581">
        <ele>1963.4000244141</ele>
        <time>2026-08-21T11:27:07.000Z</time>
      </trkpt>
      <trkpt lat="45.27106" lon="6.03579">
        <ele>1962.4000244141</ele>
        <time>2026-08-21T11:27:08.000Z</time>
      </trkpt>
      <trkpt lat="45.27109" lon="6.03578">
        <ele>1961.5999755859</ele>
        <time>2026-08-21T11:27:09.000Z</time>
      </trkpt>
      <trkpt lat="45.27112" lon="6.03577">
        <ele>1960.5999755859</ele>
        <time>2026-08-21T11:27:10.000Z</time>
      </trkpt>
      <trkpt lat="45.27114" lon="6.03575">
        <ele>1960.4000244141</ele>
        <time>2026-08-21T11:27:11.000Z</time>
      </trkpt>
      <trkpt lat="45.27117" lon="6.03575">
        <ele>1960</ele>
        <time>2026-08-21T11:27:12.000Z</time>
      </trkpt>
      <trkpt lat="45.2712" lon="6.03575">
        <ele>1959.8000488281</ele>
        <time>2026-08-21T11:27:13.000Z</time>
      </trkpt>
      <trkpt lat="45.27123" lon="6.03575">
        <ele>1959.4000244141</ele>
        <time>2026-08-21T11:27:14.000Z</time>
      </trkpt>
      <trkpt lat="45.27126" lon="6.03575">
        <ele>1959.1999511719</ele>
        <time>2026-08-21T11:27:15.000Z</time>
      </trkpt>
      <trkpt lat="45.27129" lon="6.03574">
        <ele>1959</ele>
        <time>2026-08-21T11:27:16.000Z</time>
      </trkpt>
      <trkpt lat="45.27132" lon="6.03574">
        <ele>1958.8000488281</ele>
        <time>2026-08-21T11:27:17.000Z</time>
      </trkpt>
      <trkpt lat="45.27134" lon="6.03574">
        <ele>1958.5999755859</ele>
        <time>2026-08-21T11:27:18.000Z</time>
      </trkpt>
      <trkpt lat="45.27137" lon="6.03573">
        <ele>1958.5999755859</ele>
        <time>2026-08-21T11:27:19.000Z</time>
      </trkpt>
      <trkpt lat="45.2714" lon="6.03573">
        <ele>1958.4000244141</ele>
        <time>2026-08-21T11:27:20.000Z</time>
      </trkpt>
      <trkpt lat="45.27142" lon="6.03572">
        <ele>1958.1999511719</ele>
        <time>2026-08-21T11:27:21.000Z</time>
      </trkpt>
      <trkpt lat="45.27145" lon="6.03571">
        <ele>1958</ele>
        <time>2026-08-21T11:27:22.000Z</time>
      </trkpt>
      <trkpt lat="45.27147" lon="6.03571">
        <ele>1957.1999511719</ele>
        <time>2026-08-21T11:27:23.000Z</time>
      </trkpt>
      <trkpt lat="45.2715" lon="6.0357">
        <ele>1956.5999755859</ele>
        <time>2026-08-21T11:27:24.000Z</time>
      </trkpt>
      <trkpt lat="45.27153" lon="6.0357">
        <ele>1956.4000244141</ele>
        <time>2026-08-21T11:27:25.000Z</time>
      </trkpt>
      <trkpt lat="45.27156" lon="6.03569">
        <ele>1956.4000244141</ele>
        <time>2026-08-21T11:27:26.000Z</time>
      </trkpt>
      <trkpt lat="45.27159" lon="6.03569">
        <ele>1956.1999511719</ele>
        <time>2026-08-21T11:27:27.000Z</time>
      </trkpt>
      <trkpt lat="45.27162" lon="6.03568">
        <ele>1956</ele>
        <time>2026-08-21T11:27:28.000Z</time>
      </trkpt>
      <trkpt lat="45.27165" lon="6.03567">
        <ele>1955.5999755859</ele>
        <time>2026-08-21T11:27:29.000Z</time>
      </trkpt>
      <trkpt lat="45.27167" lon="6.03566">
        <ele>1955.4000244141</ele>
        <time>2026-08-21T11:27:30.000Z</time>
      </trkpt>
      <trkpt lat="45.2717" lon="6.03566">
        <ele>1955</ele>
        <time>2026-08-21T11:27:31.000Z</time>
      </trkpt>
      <trkpt lat="45.27173" lon="6.03565">
        <ele>1954.4000244141</ele>
        <time>2026-08-21T11:27:32.000Z</time>
      </trkpt>
      <trkpt lat="45.27176" lon="6.03565">
        <ele>1953.8000488281</ele>
        <time>2026-08-21T11:27:33.000Z</time>
      </trkpt>
      <trkpt lat="45.27179" lon="6.03564">
        <ele>1953.4000244141</ele>
        <time>2026-08-21T11:27:34.000Z</time>
      </trkpt>
      <trkpt lat="45.27183" lon="6.03563">
        <ele>1952.8000488281</ele>
        <time>2026-08-21T11:27:35.000Z</time>
      </trkpt>
      <trkpt lat="45.27186" lon="6.03563">
        <ele>1952.1999511719</ele>
        <time>2026-08-21T11:27:36.000Z</time>
      </trkpt>
      <trkpt lat="45.27189" lon="6.03563">
        <ele>1951.5999755859</ele>
        <time>2026-08-21T11:27:37.000Z</time>
      </trkpt>
      <trkpt lat="45.27192" lon="6.03562">
        <ele>1949.5999755859</ele>
        <time>2026-08-21T11:27:38.000Z</time>
      </trkpt>
      <trkpt lat="45.27195" lon="6.03562">
        <ele>1948.8000488281</ele>
        <time>2026-08-21T11:27:39.000Z</time>
      </trkpt>
      <trkpt lat="45.27198" lon="6.03562">
        <ele>1948</ele>
        <time>2026-08-21T11:27:40.000Z</time>
      </trkpt>
      <trkpt lat="45.27201" lon="6.03562">
        <ele>1947.1999511719</ele>
        <time>2026-08-21T11:27:41.000Z</time>
      </trkpt>
      <trkpt lat="45.27203" lon="6.03562">
        <ele>1947.1999511719</ele>
        <time>2026-08-21T11:27:42.000Z</time>
      </trkpt>
      <trkpt lat="45.27206" lon="6.03562">
        <ele>1947</ele>
        <time>2026-08-21T11:27:43.000Z</time>
      </trkpt>
      <trkpt lat="45.27209" lon="6.03562">
        <ele>1947</ele>
        <time>2026-08-21T11:27:44.000Z</time>
      </trkpt>
      <trkpt lat="45.27213" lon="6.03561">
        <ele>1947</ele>
        <time>2026-08-21T11:27:45.000Z</time>
      </trkpt>
      <trkpt lat="45.27216" lon="6.03561">
        <ele>1947</ele>
        <time>2026-08-21T11:27:46.000Z</time>
      </trkpt>
      <trkpt lat="45.27219" lon="6.03561">
        <ele>1947</ele>
        <time>2026-08-21T11:27:47.000Z</time>
      </trkpt>
      <trkpt lat="45.27222" lon="6.03562">
        <ele>1947</ele>
        <time>2026-08-21T11:27:48.000Z</time>
      </trkpt>
      <trkpt lat="45.27224" lon="6.03562">
        <ele>1947.1999511719</ele>
        <time>2026-08-21T11:27:49.000Z</time>
      </trkpt>
      <trkpt lat="45.27227" lon="6.03563">
        <ele>1947</ele>
        <time>2026-08-21T11:27:50.000Z</time>
      </trkpt>
      <trkpt lat="45.2723" lon="6.03564">
        <ele>1947.1999511719</ele>
        <time>2026-08-21T11:27:51.000Z</time>
      </trkpt>
      <trkpt lat="45.27233" lon="6.03565">
        <ele>1947.5999755859</ele>
        <time>2026-08-21T11:27:52.000Z</time>
      </trkpt>
      <trkpt lat="45.27236" lon="6.03567">
        <ele>1947.8000488281</ele>
        <time>2026-08-21T11:27:53.000Z</time>
      </trkpt>
      <trkpt lat="45.27239" lon="6.03569">
        <ele>1948</ele>
        <time>2026-08-21T11:27:54.000Z</time>
      </trkpt>
      <trkpt lat="45.27241" lon="6.03572">
        <ele>1948.1999511719</ele>
        <time>2026-08-21T11:27:55.000Z</time>
      </trkpt>
      <trkpt lat="45.27243" lon="6.03574">
        <ele>1948.4000244141</ele>
        <time>2026-08-21T11:27:56.000Z</time>
      </trkpt>
      <trkpt lat="45.27246" lon="6.03577">
        <ele>1948</ele>
        <time>2026-08-21T11:27:57.000Z</time>
      </trkpt>
      <trkpt lat="45.27247" lon="6.0358">
        <ele>1948.1999511719</ele>
        <time>2026-08-21T11:27:58.000Z</time>
      </trkpt>
      <trkpt lat="45.27249" lon="6.03584">
        <ele>1948.1999511719</ele>
        <time>2026-08-21T11:27:59.000Z</time>
      </trkpt>
      <trkpt lat="45.27251" lon="6.03586">
        <ele>1948.1999511719</ele>
        <time>2026-08-21T11:28:00.000Z</time>
      </trkpt>
      <trkpt lat="45.27253" lon="6.0359">
        <ele>1948.4000244141</ele>
        <time>2026-08-21T11:28:01.000Z</time>
      </trkpt>
      <trkpt lat="45.27255" lon="6.03594">
        <ele>1948.5999755859</ele>
        <time>2026-08-21T11:28:02.000Z</time>
      </trkpt>
      <trkpt lat="45.27257" lon="6.03597">
        <ele>1948.8000488281</ele>
        <time>2026-08-21T11:28:03.000Z</time>
      </trkpt>
      <trkpt lat="45.27258" lon="6.03601">
        <ele>1948.8000488281</ele>
        <time>2026-08-21T11:28:04.000Z</time>
      </trkpt>
      <trkpt lat="45.2726" lon="6.03605">
        <ele>1948.8000488281</ele>
        <time>2026-08-21T11:28:05.000Z</time>
      </trkpt>
      <trkpt lat="45.27261" lon="6.03609">
        <ele>1948.4000244141</ele>
        <time>2026-08-21T11:28:06.000Z</time>
      </trkpt>
      <trkpt lat="45.27263" lon="6.03612">
        <ele>1947.5999755859</ele>
        <time>2026-08-21T11:28:07.000Z</time>
      </trkpt>
      <trkpt lat="45.27264" lon="6.03616">
        <ele>1947.1999511719</ele>
        <time>2026-08-21T11:28:08.000Z</time>
      </trkpt>
      <trkpt lat="45.27265" lon="6.0362">
        <ele>1946.8000488281</ele>
        <time>2026-08-21T11:28:09.000Z</time>
      </trkpt>
      <trkpt lat="45.27267" lon="6.03623">
        <ele>1946.4000244141</ele>
        <time>2026-08-21T11:28:10.000Z</time>
      </trkpt>
      <trkpt lat="45.27268" lon="6.03627">
        <ele>1945.8000488281</ele>
        <time>2026-08-21T11:28:11.000Z</time>
      </trkpt>
      <trkpt lat="45.27269" lon="6.03631">
        <ele>1945.1999511719</ele>
        <time>2026-08-21T11:28:12.000Z</time>
      </trkpt>
      <trkpt lat="45.2727" lon="6.03635">
        <ele>1945.1999511719</ele>
        <time>2026-08-21T11:28:13.000Z</time>
      </trkpt>
      <trkpt lat="45.2727" lon="6.03638">
        <ele>1944.8000488281</ele>
        <time>2026-08-21T11:28:14.000Z</time>
      </trkpt>
      <trkpt lat="45.27271" lon="6.03642">
        <ele>1944.5999755859</ele>
        <time>2026-08-21T11:28:15.000Z</time>
      </trkpt>
      <trkpt lat="45.27272" lon="6.03646">
        <ele>1944.1999511719</ele>
        <time>2026-08-21T11:28:16.000Z</time>
      </trkpt>
      <trkpt lat="45.27272" lon="6.0365">
        <ele>1944</ele>
        <time>2026-08-21T11:28:17.000Z</time>
      </trkpt>
      <trkpt lat="45.27272" lon="6.03655">
        <ele>1944.1999511719</ele>
        <time>2026-08-21T11:28:18.000Z</time>
      </trkpt>
      <trkpt lat="45.27272" lon="6.03658">
        <ele>1944.1999511719</ele>
        <time>2026-08-21T11:28:19.000Z</time>
      </trkpt>
      <trkpt lat="45.27272" lon="6.03663">
        <ele>1944.1999511719</ele>
        <time>2026-08-21T11:28:20.000Z</time>
      </trkpt>
      <trkpt lat="45.27272" lon="6.03666">
        <ele>1944.1999511719</ele>
        <time>2026-08-21T11:28:21.000Z</time>
      </trkpt>
      <trkpt lat="45.27272" lon="6.0367">
        <ele>1943.8000488281</ele>
        <time>2026-08-21T11:28:22.000Z</time>
      </trkpt>
      <trkpt lat="45.27272" lon="6.03675">
        <ele>1943.4000244141</ele>
        <time>2026-08-21T11:28:23.000Z</time>
      </trkpt>
      <trkpt lat="45.27272" lon="6.03678">
        <ele>1942.5999755859</ele>
        <time>2026-08-21T11:28:24.000Z</time>
      </trkpt>
      <trkpt lat="45.27272" lon="6.03683">
        <ele>1942.4000244141</ele>
        <time>2026-08-21T11:28:25.000Z</time>
      </trkpt>
      <trkpt lat="45.27273" lon="6.03686">
        <ele>1942</ele>
        <time>2026-08-21T11:28:26.000Z</time>
      </trkpt>
      <trkpt lat="45.27273" lon="6.0369">
        <ele>1941.8000488281</ele>
        <time>2026-08-21T11:28:27.000Z</time>
      </trkpt>
      <trkpt lat="45.27273" lon="6.03695">
        <ele>1941.5999755859</ele>
        <time>2026-08-21T11:28:28.000Z</time>
      </trkpt>
      <trkpt lat="45.27273" lon="6.03699">
        <ele>1941.5999755859</ele>
        <time>2026-08-21T11:28:29.000Z</time>
      </trkpt>
      <trkpt lat="45.27273" lon="6.03702">
        <ele>1941.5999755859</ele>
        <time>2026-08-21T11:28:30.000Z</time>
      </trkpt>
      <trkpt lat="45.27273" lon="6.03706">
        <ele>1941.4000244141</ele>
        <time>2026-08-21T11:28:31.000Z</time>
      </trkpt>
      <trkpt lat="45.27274" lon="6.0371">
        <ele>1940.8000488281</ele>
        <time>2026-08-21T11:28:32.000Z</time>
      </trkpt>
      <trkpt lat="45.27274" lon="6.03714">
        <ele>1940.5999755859</ele>
        <time>2026-08-21T11:28:33.000Z</time>
      </trkpt>
      <trkpt lat="45.27275" lon="6.03717">
        <ele>1940</ele>
        <time>2026-08-21T11:28:34.000Z</time>
      </trkpt>
      <trkpt lat="45.27276" lon="6.03721">
        <ele>1939.4000244141</ele>
        <time>2026-08-21T11:28:35.000Z</time>
      </trkpt>
      <trkpt lat="45.27276" lon="6.03725">
        <ele>1938.4000244141</ele>
        <time>2026-08-21T11:28:36.000Z</time>
      </trkpt>
      <trkpt lat="45.27277" lon="6.03728">
        <ele>1936.8000488281</ele>
        <time>2026-08-21T11:28:37.000Z</time>
      </trkpt>
      <trkpt lat="45.27278" lon="6.03731">
        <ele>1936.4000244141</ele>
        <time>2026-08-21T11:28:38.000Z</time>
      </trkpt>
      <trkpt lat="45.27278" lon="6.03735">
        <ele>1936.4000244141</ele>
        <time>2026-08-21T11:28:39.000Z</time>
      </trkpt>
      <trkpt lat="45.27278" lon="6.03738">
        <ele>1935.5999755859</ele>
        <time>2026-08-21T11:28:40.000Z</time>
      </trkpt>
      <trkpt lat="45.27279" lon="6.03741">
        <ele>1935</ele>
        <time>2026-08-21T11:28:41.000Z</time>
      </trkpt>
      <trkpt lat="45.2728" lon="6.03744">
        <ele>1935</ele>
        <time>2026-08-21T11:28:42.000Z</time>
      </trkpt>
      <trkpt lat="45.27281" lon="6.03747">
        <ele>1933.1999511719</ele>
        <time>2026-08-21T11:28:43.000Z</time>
      </trkpt>
      <trkpt lat="45.27282" lon="6.03751">
        <ele>1933.1999511719</ele>
        <time>2026-08-21T11:28:44.000Z</time>
      </trkpt>
      <trkpt lat="45.27283" lon="6.03754">
        <ele>1932.1999511719</ele>
        <time>2026-08-21T11:28:45.000Z</time>
      </trkpt>
      <trkpt lat="45.27284" lon="6.03758">
        <ele>1932.1999511719</ele>
        <time>2026-08-21T11:28:46.000Z</time>
      </trkpt>
      <trkpt lat="45.27285" lon="6.03762">
        <ele>1932.4000244141</ele>
        <time>2026-08-21T11:28:47.000Z</time>
      </trkpt>
      <trkpt lat="45.27286" lon="6.03765">
        <ele>1932.4000244141</ele>
        <time>2026-08-21T11:28:48.000Z</time>
      </trkpt>
      <trkpt lat="45.27287" lon="6.03769">
        <ele>1931.5999755859</ele>
        <time>2026-08-21T11:28:49.000Z</time>
      </trkpt>
      <trkpt lat="45.27288" lon="6.03772">
        <ele>1931.1999511719</ele>
        <time>2026-08-21T11:28:50.000Z</time>
      </trkpt>
      <trkpt lat="45.2729" lon="6.03775">
        <ele>1930.8000488281</ele>
        <time>2026-08-21T11:28:51.000Z</time>
      </trkpt>
      <trkpt lat="45.27291" lon="6.03778">
        <ele>1930.1999511719</ele>
        <time>2026-08-21T11:28:52.000Z</time>
      </trkpt>
      <trkpt lat="45.27293" lon="6.03781">
        <ele>1929.4000244141</ele>
        <time>2026-08-21T11:28:53.000Z</time>
      </trkpt>
      <trkpt lat="45.27296" lon="6.03782">
        <ele>1928.8000488281</ele>
        <time>2026-08-21T11:28:54.000Z</time>
      </trkpt>
      <trkpt lat="45.27299" lon="6.03782">
        <ele>1928</ele>
        <time>2026-08-21T11:28:55.000Z</time>
      </trkpt>
      <trkpt lat="45.27302" lon="6.03782">
        <ele>1927.4000244141</ele>
        <time>2026-08-21T11:28:56.000Z</time>
      </trkpt>
      <trkpt lat="45.27305" lon="6.03781">
        <ele>1926.5999755859</ele>
        <time>2026-08-21T11:28:57.000Z</time>
      </trkpt>
      <trkpt lat="45.27308" lon="6.03783">
        <ele>1925.5999755859</ele>
        <time>2026-08-21T11:28:58.000Z</time>
      </trkpt>
      <trkpt lat="45.2731" lon="6.03785">
        <ele>1924.4000244141</ele>
        <time>2026-08-21T11:28:59.000Z</time>
      </trkpt>
      <trkpt lat="45.27313" lon="6.03788">
        <ele>1923.4000244141</ele>
        <time>2026-08-21T11:29:00.000Z</time>
      </trkpt>
      <trkpt lat="45.27314" lon="6.03791">
        <ele>1923</ele>
        <time>2026-08-21T11:29:01.000Z</time>
      </trkpt>
      <trkpt lat="45.27317" lon="6.03795">
        <ele>1922.4000244141</ele>
        <time>2026-08-21T11:29:02.000Z</time>
      </trkpt>
      <trkpt lat="45.27318" lon="6.03799">
        <ele>1923</ele>
        <time>2026-08-21T11:29:03.000Z</time>
      </trkpt>
      <trkpt lat="45.27319" lon="6.03802">
        <ele>1923</ele>
        <time>2026-08-21T11:29:04.000Z</time>
      </trkpt>
      <trkpt lat="45.27321" lon="6.03805">
        <ele>1923.5999755859</ele>
        <time>2026-08-21T11:29:05.000Z</time>
      </trkpt>
      <trkpt lat="45.27322" lon="6.03809">
        <ele>1924</ele>
        <time>2026-08-21T11:29:06.000Z</time>
      </trkpt>
      <trkpt lat="45.27324" lon="6.03812">
        <ele>1924.4000244141</ele>
        <time>2026-08-21T11:29:07.000Z</time>
      </trkpt>
      <trkpt lat="45.27325" lon="6.03815">
        <ele>1924.8000488281</ele>
        <time>2026-08-21T11:29:08.000Z</time>
      </trkpt>
      <trkpt lat="45.27327" lon="6.03819">
        <ele>1925</ele>
        <time>2026-08-21T11:29:09.000Z</time>
      </trkpt>
      <trkpt lat="45.27328" lon="6.03822">
        <ele>1925.1999511719</ele>
        <time>2026-08-21T11:29:10.000Z</time>
      </trkpt>
      <trkpt lat="45.2733" lon="6.03826">
        <ele>1925.1999511719</ele>
        <time>2026-08-21T11:29:11.000Z</time>
      </trkpt>
      <trkpt lat="45.27332" lon="6.03829">
        <ele>1925.1999511719</ele>
        <time>2026-08-21T11:29:12.000Z</time>
      </trkpt>
      <trkpt lat="45.27333" lon="6.03833">
        <ele>1925.4000244141</ele>
        <time>2026-08-21T11:29:13.000Z</time>
      </trkpt>
      <trkpt lat="45.27336" lon="6.03836">
        <ele>1926</ele>
        <time>2026-08-21T11:29:14.000Z</time>
      </trkpt>
      <trkpt lat="45.27337" lon="6.03838">
        <ele>1926.5999755859</ele>
        <time>2026-08-21T11:29:15.000Z</time>
      </trkpt>
      <trkpt lat="45.2734" lon="6.03842">
        <ele>1926.5999755859</ele>
        <time>2026-08-21T11:29:16.000Z</time>
      </trkpt>
      <trkpt lat="45.27342" lon="6.03845">
        <ele>1926.4000244141</ele>
        <time>2026-08-21T11:29:17.000Z</time>
      </trkpt>
      <trkpt lat="45.27344" lon="6.03847">
        <ele>1926.1999511719</ele>
        <time>2026-08-21T11:29:18.000Z</time>
      </trkpt>
      <trkpt lat="45.27347" lon="6.0385">
        <ele>1925.4000244141</ele>
        <time>2026-08-21T11:29:19.000Z</time>
      </trkpt>
      <trkpt lat="45.27349" lon="6.03852">
        <ele>1924.4000244141</ele>
        <time>2026-08-21T11:29:20.000Z</time>
      </trkpt>
      <trkpt lat="45.27351" lon="6.03855">
        <ele>1924.4000244141</ele>
        <time>2026-08-21T11:29:21.000Z</time>
      </trkpt>
      <trkpt lat="45.27354" lon="6.03857">
        <ele>1924</ele>
        <time>2026-08-21T11:29:22.000Z</time>
      </trkpt>
      <trkpt lat="45.27356" lon="6.0386">
        <ele>1923.5999755859</ele>
        <time>2026-08-21T11:29:23.000Z</time>
      </trkpt>
      <trkpt lat="45.27359" lon="6.03863">
        <ele>1923.1999511719</ele>
        <time>2026-08-21T11:29:24.000Z</time>
      </trkpt>
      <trkpt lat="45.27361" lon="6.03866">
        <ele>1922</ele>
        <time>2026-08-21T11:29:25.000Z</time>
      </trkpt>
      <trkpt lat="45.27363" lon="6.03868">
        <ele>1921</ele>
        <time>2026-08-21T11:29:26.000Z</time>
      </trkpt>
      <trkpt lat="45.27366" lon="6.03871">
        <ele>1921</ele>
        <time>2026-08-21T11:29:27.000Z</time>
      </trkpt>
      <trkpt lat="45.27368" lon="6.03873">
        <ele>1920.5999755859</ele>
        <time>2026-08-21T11:29:28.000Z</time>
      </trkpt>
      <trkpt lat="45.2737" lon="6.03876">
        <ele>1920</ele>
        <time>2026-08-21T11:29:29.000Z</time>
      </trkpt>
      <trkpt lat="45.27372" lon="6.03879">
        <ele>1919.4000244141</ele>
        <time>2026-08-21T11:29:30.000Z</time>
      </trkpt>
      <trkpt lat="45.27374" lon="6.03882">
        <ele>1919.1999511719</ele>
        <time>2026-08-21T11:29:31.000Z</time>
      </trkpt>
      <trkpt lat="45.27376" lon="6.03884">
        <ele>1918.8000488281</ele>
        <time>2026-08-21T11:29:32.000Z</time>
      </trkpt>
      <trkpt lat="45.27378" lon="6.03888">
        <ele>1918.4000244141</ele>
        <time>2026-08-21T11:29:33.000Z</time>
      </trkpt>
      <trkpt lat="45.2738" lon="6.03891">
        <ele>1917.8000488281</ele>
        <time>2026-08-21T11:29:34.000Z</time>
      </trkpt>
      <trkpt lat="45.27382" lon="6.03893">
        <ele>1917.1999511719</ele>
        <time>2026-08-21T11:29:35.000Z</time>
      </trkpt>
      <trkpt lat="45.27385" lon="6.03895">
        <ele>1916.4000244141</ele>
        <time>2026-08-21T11:29:36.000Z</time>
      </trkpt>
      <trkpt lat="45.27387" lon="6.03897">
        <ele>1916.4000244141</ele>
        <time>2026-08-21T11:29:37.000Z</time>
      </trkpt>
      <trkpt lat="45.27389" lon="6.039">
        <ele>1915.8000488281</ele>
        <time>2026-08-21T11:29:38.000Z</time>
      </trkpt>
      <trkpt lat="45.27391" lon="6.03903">
        <ele>1915.5999755859</ele>
        <time>2026-08-21T11:29:39.000Z</time>
      </trkpt>
      <trkpt lat="45.27393" lon="6.03906">
        <ele>1915.4000244141</ele>
        <time>2026-08-21T11:29:40.000Z</time>
      </trkpt>
      <trkpt lat="45.27395" lon="6.03909">
        <ele>1915.4000244141</ele>
        <time>2026-08-21T11:29:41.000Z</time>
      </trkpt>
      <trkpt lat="45.27397" lon="6.03912">
        <ele>1915.5999755859</ele>
        <time>2026-08-21T11:29:42.000Z</time>
      </trkpt>
      <trkpt lat="45.27399" lon="6.03915">
        <ele>1915.5999755859</ele>
        <time>2026-08-21T11:29:43.000Z</time>
      </trkpt>
      <trkpt lat="45.274" lon="6.03918">
        <ele>1915.5999755859</ele>
        <time>2026-08-21T11:29:44.000Z</time>
      </trkpt>
      <trkpt lat="45.27401" lon="6.03921">
        <ele>1915</ele>
        <time>2026-08-21T11:29:45.000Z</time>
      </trkpt>
      <trkpt lat="45.27403" lon="6.03924">
        <ele>1914.1999511719</ele>
        <time>2026-08-21T11:29:46.000Z</time>
      </trkpt>
      <trkpt lat="45.27404" lon="6.03928">
        <ele>1913.4000244141</ele>
        <time>2026-08-21T11:29:47.000Z</time>
      </trkpt>
      <trkpt lat="45.27406" lon="6.03931">
        <ele>1912.5999755859</ele>
        <time>2026-08-21T11:29:48.000Z</time>
      </trkpt>
      <trkpt lat="45.27408" lon="6.03934">
        <ele>1911.1999511719</ele>
        <time>2026-08-21T11:29:49.000Z</time>
      </trkpt>
      <trkpt lat="45.27409" lon="6.03937">
        <ele>1910.5999755859</ele>
        <time>2026-08-21T11:29:50.000Z</time>
      </trkpt>
      <trkpt lat="45.2741" lon="6.03941">
        <ele>1910</ele>
        <time>2026-08-21T11:29:51.000Z</time>
      </trkpt>
      <trkpt lat="45.27412" lon="6.03945">
        <ele>1909.4000244141</ele>
        <time>2026-08-21T11:29:52.000Z</time>
      </trkpt>
      <trkpt lat="45.27413" lon="6.03948">
        <ele>1908.8000488281</ele>
        <time>2026-08-21T11:29:53.000Z</time>
      </trkpt>
      <trkpt lat="45.27415" lon="6.03952">
        <ele>1908.1999511719</ele>
        <time>2026-08-21T11:29:54.000Z</time>
      </trkpt>
      <trkpt lat="45.27417" lon="6.03956">
        <ele>1907.5999755859</ele>
        <time>2026-08-21T11:29:55.000Z</time>
      </trkpt>
      <trkpt lat="45.27418" lon="6.0396">
        <ele>1907.1999511719</ele>
        <time>2026-08-21T11:29:56.000Z</time>
      </trkpt>
      <trkpt lat="45.27419" lon="6.03963">
        <ele>1906.8000488281</ele>
        <time>2026-08-21T11:29:57.000Z</time>
      </trkpt>
      <trkpt lat="45.2742" lon="6.03967">
        <ele>1906.8000488281</ele>
        <time>2026-08-21T11:29:58.000Z</time>
      </trkpt>
      <trkpt lat="45.27422" lon="6.03971">
        <ele>1906.8000488281</ele>
        <time>2026-08-21T11:29:59.000Z</time>
      </trkpt>
      <trkpt lat="45.27423" lon="6.03974">
        <ele>1906.5999755859</ele>
        <time>2026-08-21T11:30:00.000Z</time>
      </trkpt>
      <trkpt lat="45.27425" lon="6.03979">
        <ele>1906.8000488281</ele>
        <time>2026-08-21T11:30:01.000Z</time>
      </trkpt>
      <trkpt lat="45.27426" lon="6.03982">
        <ele>1906.5999755859</ele>
        <time>2026-08-21T11:30:02.000Z</time>
      </trkpt>
      <trkpt lat="45.27427" lon="6.03986">
        <ele>1906.1999511719</ele>
        <time>2026-08-21T11:30:03.000Z</time>
      </trkpt>
      <trkpt lat="45.27429" lon="6.0399">
        <ele>1905.5999755859</ele>
        <time>2026-08-21T11:30:04.000Z</time>
      </trkpt>
      <trkpt lat="45.27431" lon="6.03993">
        <ele>1905.4000244141</ele>
        <time>2026-08-21T11:30:05.000Z</time>
      </trkpt>
      <trkpt lat="45.27432" lon="6.03996">
        <ele>1905.1999511719</ele>
        <time>2026-08-21T11:30:06.000Z</time>
      </trkpt>
      <trkpt lat="45.27434" lon="6.03999">
        <ele>1905</ele>
        <time>2026-08-21T11:30:07.000Z</time>
      </trkpt>
      <trkpt lat="45.27436" lon="6.04002">
        <ele>1905</ele>
        <time>2026-08-21T11:30:08.000Z</time>
      </trkpt>
      <trkpt lat="45.27439" lon="6.04004">
        <ele>1905</ele>
        <time>2026-08-21T11:30:09.000Z</time>
      </trkpt>
      <trkpt lat="45.27441" lon="6.04007">
        <ele>1905</ele>
        <time>2026-08-21T11:30:10.000Z</time>
      </trkpt>
      <trkpt lat="45.27443" lon="6.0401">
        <ele>1905</ele>
        <time>2026-08-21T11:30:11.000Z</time>
      </trkpt>
      <trkpt lat="45.27446" lon="6.04013">
        <ele>1905</ele>
        <time>2026-08-21T11:30:12.000Z</time>
      </trkpt>
      <trkpt lat="45.27448" lon="6.04015">
        <ele>1905</ele>
        <time>2026-08-21T11:30:13.000Z</time>
      </trkpt>
      <trkpt lat="45.2745" lon="6.04017">
        <ele>1904.8000488281</ele>
        <time>2026-08-21T11:30:14.000Z</time>
      </trkpt>
      <trkpt lat="45.27452" lon="6.0402">
        <ele>1904.4000244141</ele>
        <time>2026-08-21T11:30:15.000Z</time>
      </trkpt>
      <trkpt lat="45.27454" lon="6.04022">
        <ele>1903.4000244141</ele>
        <time>2026-08-21T11:30:16.000Z</time>
      </trkpt>
      <trkpt lat="45.27457" lon="6.04023">
        <ele>1903</ele>
        <time>2026-08-21T11:30:17.000Z</time>
      </trkpt>
      <trkpt lat="45.27459" lon="6.04026">
        <ele>1902.5999755859</ele>
        <time>2026-08-21T11:30:18.000Z</time>
      </trkpt>
      <trkpt lat="45.27461" lon="6.04028">
        <ele>1902.1999511719</ele>
        <time>2026-08-21T11:30:19.000Z</time>
      </trkpt>
      <trkpt lat="45.27464" lon="6.04031">
        <ele>1901.5999755859</ele>
        <time>2026-08-21T11:30:20.000Z</time>
      </trkpt>
      <trkpt lat="45.27466" lon="6.04034">
        <ele>1901</ele>
        <time>2026-08-21T11:30:21.000Z</time>
      </trkpt>
      <trkpt lat="45.27469" lon="6.04036">
        <ele>1900.5999755859</ele>
        <time>2026-08-21T11:30:22.000Z</time>
      </trkpt>
      <trkpt lat="45.27472" lon="6.04038">
        <ele>1899.1999511719</ele>
        <time>2026-08-21T11:30:23.000Z</time>
      </trkpt>
      <trkpt lat="45.27474" lon="6.04039">
        <ele>1898.1999511719</ele>
        <time>2026-08-21T11:30:24.000Z</time>
      </trkpt>
      <trkpt lat="45.27477" lon="6.04041">
        <ele>1897.4000244141</ele>
        <time>2026-08-21T11:30:25.000Z</time>
      </trkpt>
      <trkpt lat="45.2748" lon="6.04042">
        <ele>1896.8000488281</ele>
        <time>2026-08-21T11:30:26.000Z</time>
      </trkpt>
      <trkpt lat="45.27483" lon="6.04043">
        <ele>1896.5999755859</ele>
        <time>2026-08-21T11:30:27.000Z</time>
      </trkpt>
      <trkpt lat="45.27486" lon="6.04044">
        <ele>1896.5999755859</ele>
        <time>2026-08-21T11:30:28.000Z</time>
      </trkpt>
      <trkpt lat="45.27488" lon="6.04045">
        <ele>1896.8000488281</ele>
        <time>2026-08-21T11:30:29.000Z</time>
      </trkpt>
      <trkpt lat="45.27492" lon="6.04047">
        <ele>1897</ele>
        <time>2026-08-21T11:30:30.000Z</time>
      </trkpt>
      <trkpt lat="45.27494" lon="6.04048">
        <ele>1897</ele>
        <time>2026-08-21T11:30:31.000Z</time>
      </trkpt>
      <trkpt lat="45.27497" lon="6.04049">
        <ele>1897</ele>
        <time>2026-08-21T11:30:32.000Z</time>
      </trkpt>
      <trkpt lat="45.275" lon="6.0405">
        <ele>1897</ele>
        <time>2026-08-21T11:30:33.000Z</time>
      </trkpt>
      <trkpt lat="45.27503" lon="6.04051">
        <ele>1896.8000488281</ele>
        <time>2026-08-21T11:30:34.000Z</time>
      </trkpt>
      <trkpt lat="45.27506" lon="6.04051">
        <ele>1896.4000244141</ele>
        <time>2026-08-21T11:30:35.000Z</time>
      </trkpt>
      <trkpt lat="45.27509" lon="6.04052">
        <ele>1895.8000488281</ele>
        <time>2026-08-21T11:30:36.000Z</time>
      </trkpt>
      <trkpt lat="45.27512" lon="6.04053">
        <ele>1895.4000244141</ele>
        <time>2026-08-21T11:30:37.000Z</time>
      </trkpt>
      <trkpt lat="45.27515" lon="6.04053">
        <ele>1895.1999511719</ele>
        <time>2026-08-21T11:30:38.000Z</time>
      </trkpt>
      <trkpt lat="45.27519" lon="6.04054">
        <ele>1894.8000488281</ele>
        <time>2026-08-21T11:30:39.000Z</time>
      </trkpt>
      <trkpt lat="45.27522" lon="6.04054">
        <ele>1894.4000244141</ele>
        <time>2026-08-21T11:30:40.000Z</time>
      </trkpt>
      <trkpt lat="45.27524" lon="6.04054">
        <ele>1894.4000244141</ele>
        <time>2026-08-21T11:30:41.000Z</time>
      </trkpt>
      <trkpt lat="45.27527" lon="6.04055">
        <ele>1893.5999755859</ele>
        <time>2026-08-21T11:30:42.000Z</time>
      </trkpt>
      <trkpt lat="45.27529" lon="6.04056">
        <ele>1893.1999511719</ele>
        <time>2026-08-21T11:30:43.000Z</time>
      </trkpt>
      <trkpt lat="45.27532" lon="6.04058">
        <ele>1892.5999755859</ele>
        <time>2026-08-21T11:30:44.000Z</time>
      </trkpt>
      <trkpt lat="45.27534" lon="6.04061">
        <ele>1891.4000244141</ele>
        <time>2026-08-21T11:30:45.000Z</time>
      </trkpt>
      <trkpt lat="45.27536" lon="6.04063">
        <ele>1891</ele>
        <time>2026-08-21T11:30:46.000Z</time>
      </trkpt>
      <trkpt lat="45.27538" lon="6.04066">
        <ele>1890.5999755859</ele>
        <time>2026-08-21T11:30:47.000Z</time>
      </trkpt>
      <trkpt lat="45.27541" lon="6.04069">
        <ele>1890</ele>
        <time>2026-08-21T11:30:48.000Z</time>
      </trkpt>
      <trkpt lat="45.27544" lon="6.04072">
        <ele>1889</ele>
        <time>2026-08-21T11:30:49.000Z</time>
      </trkpt>
      <trkpt lat="45.27546" lon="6.04075">
        <ele>1887.4000244141</ele>
        <time>2026-08-21T11:30:50.000Z</time>
      </trkpt>
      <trkpt lat="45.27549" lon="6.04077">
        <ele>1886.5999755859</ele>
        <time>2026-08-21T11:30:51.000Z</time>
      </trkpt>
      <trkpt lat="45.2755" lon="6.04079">
        <ele>1886.4000244141</ele>
        <time>2026-08-21T11:30:52.000Z</time>
      </trkpt>
      <trkpt lat="45.27553" lon="6.04082">
        <ele>1886.1999511719</ele>
        <time>2026-08-21T11:30:53.000Z</time>
      </trkpt>
      <trkpt lat="45.27554" lon="6.04085">
        <ele>1885.8000488281</ele>
        <time>2026-08-21T11:30:54.000Z</time>
      </trkpt>
      <trkpt lat="45.27557" lon="6.04088">
        <ele>1885.1999511719</ele>
        <time>2026-08-21T11:30:55.000Z</time>
      </trkpt>
      <trkpt lat="45.27559" lon="6.04092">
        <ele>1884.5999755859</ele>
        <time>2026-08-21T11:30:56.000Z</time>
      </trkpt>
      <trkpt lat="45.27561" lon="6.04095">
        <ele>1884</ele>
        <time>2026-08-21T11:30:57.000Z</time>
      </trkpt>
      <trkpt lat="45.27563" lon="6.04098">
        <ele>1883.4000244141</ele>
        <time>2026-08-21T11:30:58.000Z</time>
      </trkpt>
      <trkpt lat="45.27566" lon="6.041">
        <ele>1883.5999755859</ele>
        <time>2026-08-21T11:30:59.000Z</time>
      </trkpt>
      <trkpt lat="45.27568" lon="6.04103">
        <ele>1883.5999755859</ele>
        <time>2026-08-21T11:31:00.000Z</time>
      </trkpt>
      <trkpt lat="45.2757" lon="6.04106">
        <ele>1883.4000244141</ele>
        <time>2026-08-21T11:31:01.000Z</time>
      </trkpt>
      <trkpt lat="45.27572" lon="6.04109">
        <ele>1883.4000244141</ele>
        <time>2026-08-21T11:31:02.000Z</time>
      </trkpt>
      <trkpt lat="45.27574" lon="6.04112">
        <ele>1883.1999511719</ele>
        <time>2026-08-21T11:31:03.000Z</time>
      </trkpt>
      <trkpt lat="45.27576" lon="6.04115">
        <ele>1883</ele>
        <time>2026-08-21T11:31:04.000Z</time>
      </trkpt>
      <trkpt lat="45.27578" lon="6.04118">
        <ele>1882.8000488281</ele>
        <time>2026-08-21T11:31:05.000Z</time>
      </trkpt>
      <trkpt lat="45.2758" lon="6.04121">
        <ele>1882.5999755859</ele>
        <time>2026-08-21T11:31:06.000Z</time>
      </trkpt>
      <trkpt lat="45.27582" lon="6.04124">
        <ele>1882.8000488281</ele>
        <time>2026-08-21T11:31:07.000Z</time>
      </trkpt>
      <trkpt lat="45.27584" lon="6.04127">
        <ele>1883.1999511719</ele>
        <time>2026-08-21T11:31:08.000Z</time>
      </trkpt>
      <trkpt lat="45.27586" lon="6.04129">
        <ele>1883.4000244141</ele>
        <time>2026-08-21T11:31:09.000Z</time>
      </trkpt>
      <trkpt lat="45.27589" lon="6.04132">
        <ele>1882.8000488281</ele>
        <time>2026-08-21T11:31:10.000Z</time>
      </trkpt>
      <trkpt lat="45.27591" lon="6.04135">
        <ele>1882.8000488281</ele>
        <time>2026-08-21T11:31:11.000Z</time>
      </trkpt>
      <trkpt lat="45.27593" lon="6.04138">
        <ele>1882.5999755859</ele>
        <time>2026-08-21T11:31:12.000Z</time>
      </trkpt>
      <trkpt lat="45.27595" lon="6.0414">
        <ele>1882.4000244141</ele>
        <time>2026-08-21T11:31:13.000Z</time>
      </trkpt>
      <trkpt lat="45.27597" lon="6.04143">
        <ele>1882.1999511719</ele>
        <time>2026-08-21T11:31:14.000Z</time>
      </trkpt>
      <trkpt lat="45.27599" lon="6.04146">
        <ele>1882</ele>
        <time>2026-08-21T11:31:15.000Z</time>
      </trkpt>
      <trkpt lat="45.27601" lon="6.04149">
        <ele>1881.5999755859</ele>
        <time>2026-08-21T11:31:16.000Z</time>
      </trkpt>
      <trkpt lat="45.27603" lon="6.04152">
        <ele>1881.8000488281</ele>
        <time>2026-08-21T11:31:17.000Z</time>
      </trkpt>
      <trkpt lat="45.27605" lon="6.04155">
        <ele>1882.1999511719</ele>
        <time>2026-08-21T11:31:18.000Z</time>
      </trkpt>
      <trkpt lat="45.27607" lon="6.04159">
        <ele>1882.5999755859</ele>
        <time>2026-08-21T11:31:19.000Z</time>
      </trkpt>
      <trkpt lat="45.27609" lon="6.04162">
        <ele>1883.4000244141</ele>
        <time>2026-08-21T11:31:20.000Z</time>
      </trkpt>
      <trkpt lat="45.27611" lon="6.04164">
        <ele>1884</ele>
        <time>2026-08-21T11:31:21.000Z</time>
      </trkpt>
      <trkpt lat="45.27613" lon="6.04166">
        <ele>1885</ele>
        <time>2026-08-21T11:31:22.000Z</time>
      </trkpt>
      <trkpt lat="45.27614" lon="6.04168">
        <ele>1885</ele>
        <time>2026-08-21T11:31:23.000Z</time>
      </trkpt>
      <trkpt lat="45.27615" lon="6.04169">
        <ele>1885.1999511719</ele>
        <time>2026-08-21T11:31:24.000Z</time>
      </trkpt>
      <trkpt lat="45.27616" lon="6.0417">
        <ele>1885.1999511719</ele>
        <time>2026-08-21T11:31:25.000Z</time>
      </trkpt>
      <trkpt lat="45.27616" lon="6.04173">
        <ele>1885.1999511719</ele>
        <time>2026-08-21T11:31:26.000Z</time>
      </trkpt>
      <trkpt lat="45.27617" lon="6.04176">
        <ele>1885.1999511719</ele>
        <time>2026-08-21T11:31:27.000Z</time>
      </trkpt>
      <trkpt lat="45.27619" lon="6.04179">
        <ele>1885.1999511719</ele>
        <time>2026-08-21T11:31:28.000Z</time>
      </trkpt>
      <trkpt lat="45.27621" lon="6.04182">
        <ele>1885</ele>
        <time>2026-08-21T11:31:29.000Z</time>
      </trkpt>
      <trkpt lat="45.27623" lon="6.04185">
        <ele>1884.5999755859</ele>
        <time>2026-08-21T11:31:30.000Z</time>
      </trkpt>
      <trkpt lat="45.27625" lon="6.04188">
        <ele>1884.4000244141</ele>
        <time>2026-08-21T11:31:31.000Z</time>
      </trkpt>
      <trkpt lat="45.27627" lon="6.0419">
        <ele>1884.1999511719</ele>
        <time>2026-08-21T11:31:32.000Z</time>
      </trkpt>
      <trkpt lat="45.27629" lon="6.04193">
        <ele>1883.8000488281</ele>
        <time>2026-08-21T11:31:33.000Z</time>
      </trkpt>
      <trkpt lat="45.27631" lon="6.04196">
        <ele>1883.5999755859</ele>
        <time>2026-08-21T11:31:34.000Z</time>
      </trkpt>
      <trkpt lat="45.27634" lon="6.04199">
        <ele>1883.1999511719</ele>
        <time>2026-08-21T11:31:35.000Z</time>
      </trkpt>
      <trkpt lat="45.27636" lon="6.04202">
        <ele>1883</ele>
        <time>2026-08-21T11:31:36.000Z</time>
      </trkpt>
      <trkpt lat="45.27638" lon="6.04204">
        <ele>1882.1999511719</ele>
        <time>2026-08-21T11:31:37.000Z</time>
      </trkpt>
      <trkpt lat="45.27641" lon="6.04206">
        <ele>1881.5999755859</ele>
        <time>2026-08-21T11:31:38.000Z</time>
      </trkpt>
      <trkpt lat="45.27644" lon="6.04209">
        <ele>1880.8000488281</ele>
        <time>2026-08-21T11:31:39.000Z</time>
      </trkpt>
      <trkpt lat="45.27646" lon="6.04212">
        <ele>1880.5999755859</ele>
        <time>2026-08-21T11:31:40.000Z</time>
      </trkpt>
      <trkpt lat="45.27648" lon="6.04215">
        <ele>1880.1999511719</ele>
        <time>2026-08-21T11:31:41.000Z</time>
      </trkpt>
      <trkpt lat="45.27651" lon="6.04218">
        <ele>1879.8000488281</ele>
        <time>2026-08-21T11:31:42.000Z</time>
      </trkpt>
      <trkpt lat="45.27653" lon="6.04222">
        <ele>1880</ele>
        <time>2026-08-21T11:31:43.000Z</time>
      </trkpt>
      <trkpt lat="45.27656" lon="6.04226">
        <ele>1881.1999511719</ele>
        <time>2026-08-21T11:31:44.000Z</time>
      </trkpt>
      <trkpt lat="45.27658" lon="6.04229">
        <ele>1881.4000244141</ele>
        <time>2026-08-21T11:31:45.000Z</time>
      </trkpt>
      <trkpt lat="45.2766" lon="6.04233">
        <ele>1881.1999511719</ele>
        <time>2026-08-21T11:31:46.000Z</time>
      </trkpt>
      <trkpt lat="45.27662" lon="6.04236">
        <ele>1880.1999511719</ele>
        <time>2026-08-21T11:31:47.000Z</time>
      </trkpt>
      <trkpt lat="45.27665" lon="6.04239">
        <ele>1880</ele>
        <time>2026-08-21T11:31:48.000Z</time>
      </trkpt>
      <trkpt lat="45.27668" lon="6.04242">
        <ele>1879.5999755859</ele>
        <time>2026-08-21T11:31:49.000Z</time>
      </trkpt>
      <trkpt lat="45.27669" lon="6.04245">
        <ele>1876</ele>
        <time>2026-08-21T11:31:50.000Z</time>
      </trkpt>
      <trkpt lat="45.27671" lon="6.04248">
        <ele>1875</ele>
        <time>2026-08-21T11:31:51.000Z</time>
      </trkpt>
      <trkpt lat="45.27673" lon="6.04251">
        <ele>1874.1999511719</ele>
        <time>2026-08-21T11:31:52.000Z</time>
      </trkpt>
      <trkpt lat="45.27675" lon="6.04255">
        <ele>1873.1999511719</ele>
        <time>2026-08-21T11:31:53.000Z</time>
      </trkpt>
      <trkpt lat="45.27676" lon="6.0426">
        <ele>1872.1999511719</ele>
        <time>2026-08-21T11:31:54.000Z</time>
      </trkpt>
      <trkpt lat="45.27678" lon="6.04264">
        <ele>1871</ele>
        <time>2026-08-21T11:31:55.000Z</time>
      </trkpt>
      <trkpt lat="45.2768" lon="6.04267">
        <ele>1870.1999511719</ele>
        <time>2026-08-21T11:31:56.000Z</time>
      </trkpt>
      <trkpt lat="45.27682" lon="6.04271">
        <ele>1869.5999755859</ele>
        <time>2026-08-21T11:31:57.000Z</time>
      </trkpt>
      <trkpt lat="45.27684" lon="6.04274">
        <ele>1868.8000488281</ele>
        <time>2026-08-21T11:31:58.000Z</time>
      </trkpt>
      <trkpt lat="45.27687" lon="6.04277">
        <ele>1868</ele>
        <time>2026-08-21T11:31:59.000Z</time>
      </trkpt>
      <trkpt lat="45.27689" lon="6.0428">
        <ele>1866.5999755859</ele>
        <time>2026-08-21T11:32:00.000Z</time>
      </trkpt>
      <trkpt lat="45.27691" lon="6.04283">
        <ele>1865.1999511719</ele>
        <time>2026-08-21T11:32:01.000Z</time>
      </trkpt>
      <trkpt lat="45.27694" lon="6.04286">
        <ele>1864.8000488281</ele>
        <time>2026-08-21T11:32:02.000Z</time>
      </trkpt>
      <trkpt lat="45.27696" lon="6.04289">
        <ele>1864.1999511719</ele>
        <time>2026-08-21T11:32:03.000Z</time>
      </trkpt>
      <trkpt lat="45.27698" lon="6.04292">
        <ele>1863.5999755859</ele>
        <time>2026-08-21T11:32:04.000Z</time>
      </trkpt>
      <trkpt lat="45.27701" lon="6.04294">
        <ele>1863.1999511719</ele>
        <time>2026-08-21T11:32:05.000Z</time>
      </trkpt>
      <trkpt lat="45.27703" lon="6.04297">
        <ele>1862.8000488281</ele>
        <time>2026-08-21T11:32:06.000Z</time>
      </trkpt>
      <trkpt lat="45.27706" lon="6.043">
        <ele>1862</ele>
        <time>2026-08-21T11:32:07.000Z</time>
      </trkpt>
      <trkpt lat="45.27708" lon="6.04302">
        <ele>1861.4000244141</ele>
        <time>2026-08-21T11:32:08.000Z</time>
      </trkpt>
      <trkpt lat="45.27711" lon="6.04305">
        <ele>1860.5999755859</ele>
        <time>2026-08-21T11:32:09.000Z</time>
      </trkpt>
      <trkpt lat="45.27713" lon="6.04308">
        <ele>1860.4000244141</ele>
        <time>2026-08-21T11:32:10.000Z</time>
      </trkpt>
      <trkpt lat="45.27716" lon="6.04311">
        <ele>1860.4000244141</ele>
        <time>2026-08-21T11:32:11.000Z</time>
      </trkpt>
      <trkpt lat="45.27718" lon="6.04314">
        <ele>1860.1999511719</ele>
        <time>2026-08-21T11:32:12.000Z</time>
      </trkpt>
      <trkpt lat="45.2772" lon="6.04317">
        <ele>1861</ele>
        <time>2026-08-21T11:32:13.000Z</time>
      </trkpt>
      <trkpt lat="45.27722" lon="6.04322">
        <ele>1861.1999511719</ele>
        <time>2026-08-21T11:32:14.000Z</time>
      </trkpt>
      <trkpt lat="45.27724" lon="6.04325">
        <ele>1861.4000244141</ele>
        <time>2026-08-21T11:32:15.000Z</time>
      </trkpt>
      <trkpt lat="45.27726" lon="6.04329">
        <ele>1861.5999755859</ele>
        <time>2026-08-21T11:32:16.000Z</time>
      </trkpt>
      <trkpt lat="45.27727" lon="6.04333">
        <ele>1861</ele>
        <time>2026-08-21T11:32:17.000Z</time>
      </trkpt>
      <trkpt lat="45.27729" lon="6.04337">
        <ele>1860.4000244141</ele>
        <time>2026-08-21T11:32:18.000Z</time>
      </trkpt>
      <trkpt lat="45.27731" lon="6.0434">
        <ele>1860.1999511719</ele>
        <time>2026-08-21T11:32:19.000Z</time>
      </trkpt>
      <trkpt lat="45.27733" lon="6.04343">
        <ele>1859.5999755859</ele>
        <time>2026-08-21T11:32:20.000Z</time>
      </trkpt>
      <trkpt lat="45.27735" lon="6.04346">
        <ele>1859</ele>
        <time>2026-08-21T11:32:21.000Z</time>
      </trkpt>
      <trkpt lat="45.27737" lon="6.04349">
        <ele>1858.4000244141</ele>
        <time>2026-08-21T11:32:22.000Z</time>
      </trkpt>
      <trkpt lat="45.2774" lon="6.04352">
        <ele>1858.1999511719</ele>
        <time>2026-08-21T11:32:23.000Z</time>
      </trkpt>
      <trkpt lat="45.27742" lon="6.04355">
        <ele>1857.5999755859</ele>
        <time>2026-08-21T11:32:24.000Z</time>
      </trkpt>
      <trkpt lat="45.27744" lon="6.04357">
        <ele>1857.1999511719</ele>
        <time>2026-08-21T11:32:25.000Z</time>
      </trkpt>
      <trkpt lat="45.27746" lon="6.0436">
        <ele>1856.8000488281</ele>
        <time>2026-08-21T11:32:26.000Z</time>
      </trkpt>
      <trkpt lat="45.27749" lon="6.04363">
        <ele>1856.4000244141</ele>
        <time>2026-08-21T11:32:27.000Z</time>
      </trkpt>
      <trkpt lat="45.27751" lon="6.04366">
        <ele>1856</ele>
        <time>2026-08-21T11:32:28.000Z</time>
      </trkpt>
      <trkpt lat="45.27754" lon="6.04369">
        <ele>1855.5999755859</ele>
        <time>2026-08-21T11:32:29.000Z</time>
      </trkpt>
      <trkpt lat="45.27756" lon="6.04372">
        <ele>1855</ele>
        <time>2026-08-21T11:32:30.000Z</time>
      </trkpt>
      <trkpt lat="45.27759" lon="6.04375">
        <ele>1854.5999755859</ele>
        <time>2026-08-21T11:32:31.000Z</time>
      </trkpt>
      <trkpt lat="45.27762" lon="6.04378">
        <ele>1854.4000244141</ele>
        <time>2026-08-21T11:32:32.000Z</time>
      </trkpt>
      <trkpt lat="45.27765" lon="6.0438">
        <ele>1854</ele>
        <time>2026-08-21T11:32:33.000Z</time>
      </trkpt>
      <trkpt lat="45.27767" lon="6.04383">
        <ele>1853.1999511719</ele>
        <time>2026-08-21T11:32:34.000Z</time>
      </trkpt>
      <trkpt lat="45.2777" lon="6.04386">
        <ele>1852.8000488281</ele>
        <time>2026-08-21T11:32:35.000Z</time>
      </trkpt>
      <trkpt lat="45.27772" lon="6.04388">
        <ele>1852</ele>
        <time>2026-08-21T11:32:36.000Z</time>
      </trkpt>
      <trkpt lat="45.27774" lon="6.04391">
        <ele>1851.5999755859</ele>
        <time>2026-08-21T11:32:37.000Z</time>
      </trkpt>
      <trkpt lat="45.27777" lon="6.04393">
        <ele>1851.1999511719</ele>
        <time>2026-08-21T11:32:38.000Z</time>
      </trkpt>
      <trkpt lat="45.27779" lon="6.04396">
        <ele>1850.4000244141</ele>
        <time>2026-08-21T11:32:39.000Z</time>
      </trkpt>
      <trkpt lat="45.27781" lon="6.04398">
        <ele>1849.5999755859</ele>
        <time>2026-08-21T11:32:40.000Z</time>
      </trkpt>
      <trkpt lat="45.27784" lon="6.044">
        <ele>1848.5999755859</ele>
        <time>2026-08-21T11:32:41.000Z</time>
      </trkpt>
      <trkpt lat="45.27785" lon="6.04403">
        <ele>1848.5999755859</ele>
        <time>2026-08-21T11:32:42.000Z</time>
      </trkpt>
      <trkpt lat="45.27787" lon="6.04406">
        <ele>1848.4000244141</ele>
        <time>2026-08-21T11:32:43.000Z</time>
      </trkpt>
      <trkpt lat="45.27789" lon="6.04409">
        <ele>1847.8000488281</ele>
        <time>2026-08-21T11:32:44.000Z</time>
      </trkpt>
      <trkpt lat="45.27791" lon="6.04412">
        <ele>1847.8000488281</ele>
        <time>2026-08-21T11:32:45.000Z</time>
      </trkpt>
      <trkpt lat="45.27793" lon="6.04415">
        <ele>1846.5999755859</ele>
        <time>2026-08-21T11:32:46.000Z</time>
      </trkpt>
      <trkpt lat="45.27795" lon="6.04419">
        <ele>1846.4000244141</ele>
        <time>2026-08-21T11:32:47.000Z</time>
      </trkpt>
      <trkpt lat="45.27797" lon="6.04422">
        <ele>1846.1999511719</ele>
        <time>2026-08-21T11:32:48.000Z</time>
      </trkpt>
      <trkpt lat="45.27799" lon="6.04425">
        <ele>1846</ele>
        <time>2026-08-21T11:32:49.000Z</time>
      </trkpt>
      <trkpt lat="45.27801" lon="6.04428">
        <ele>1845.5999755859</ele>
        <time>2026-08-21T11:32:50.000Z</time>
      </trkpt>
      <trkpt lat="45.27803" lon="6.04431">
        <ele>1845.1999511719</ele>
        <time>2026-08-21T11:32:51.000Z</time>
      </trkpt>
      <trkpt lat="45.27805" lon="6.04434">
        <ele>1844.5999755859</ele>
        <time>2026-08-21T11:32:52.000Z</time>
      </trkpt>
      <trkpt lat="45.27807" lon="6.04437">
        <ele>1843.8000488281</ele>
        <time>2026-08-21T11:32:53.000Z</time>
      </trkpt>
      <trkpt lat="45.2781" lon="6.04439">
        <ele>1843</ele>
        <time>2026-08-21T11:32:54.000Z</time>
      </trkpt>
      <trkpt lat="45.27812" lon="6.04442">
        <ele>1842.1999511719</ele>
        <time>2026-08-21T11:32:55.000Z</time>
      </trkpt>
      <trkpt lat="45.27815" lon="6.04445">
        <ele>1842.1999511719</ele>
        <time>2026-08-21T11:32:56.000Z</time>
      </trkpt>
      <trkpt lat="45.27817" lon="6.04447">
        <ele>1839.8000488281</ele>
        <time>2026-08-21T11:32:57.000Z</time>
      </trkpt>
      <trkpt lat="45.27819" lon="6.04449">
        <ele>1837.4000244141</ele>
        <time>2026-08-21T11:32:58.000Z</time>
      </trkpt>
      <trkpt lat="45.27822" lon="6.04452">
        <ele>1837</ele>
        <time>2026-08-21T11:32:59.000Z</time>
      </trkpt>
      <trkpt lat="45.27825" lon="6.04455">
        <ele>1836.5999755859</ele>
        <time>2026-08-21T11:33:00.000Z</time>
      </trkpt>
      <trkpt lat="45.27827" lon="6.04457">
        <ele>1835.8000488281</ele>
        <time>2026-08-21T11:33:01.000Z</time>
      </trkpt>
      <trkpt lat="45.2783" lon="6.0446">
        <ele>1834.8000488281</ele>
        <time>2026-08-21T11:33:02.000Z</time>
      </trkpt>
      <trkpt lat="45.27832" lon="6.04464">
        <ele>1833.8000488281</ele>
        <time>2026-08-21T11:33:03.000Z</time>
      </trkpt>
      <trkpt lat="45.27834" lon="6.04467">
        <ele>1833.1999511719</ele>
        <time>2026-08-21T11:33:04.000Z</time>
      </trkpt>
      <trkpt lat="45.27836" lon="6.04471">
        <ele>1833.1999511719</ele>
        <time>2026-08-21T11:33:05.000Z</time>
      </trkpt>
      <trkpt lat="45.27837" lon="6.04475">
        <ele>1832.1999511719</ele>
        <time>2026-08-21T11:33:06.000Z</time>
      </trkpt>
      <trkpt lat="45.27839" lon="6.04479">
        <ele>1831.1999511719</ele>
        <time>2026-08-21T11:33:07.000Z</time>
      </trkpt>
      <trkpt lat="45.27841" lon="6.04481">
        <ele>1830.4000244141</ele>
        <time>2026-08-21T11:33:08.000Z</time>
      </trkpt>
      <trkpt lat="45.27843" lon="6.04484">
        <ele>1829.4000244141</ele>
        <time>2026-08-21T11:33:09.000Z</time>
      </trkpt>
      <trkpt lat="45.27844" lon="6.04487">
        <ele>1829</ele>
        <time>2026-08-21T11:33:10.000Z</time>
      </trkpt>
      <trkpt lat="45.27846" lon="6.04491">
        <ele>1828.4000244141</ele>
        <time>2026-08-21T11:33:11.000Z</time>
      </trkpt>
      <trkpt lat="45.27848" lon="6.04494">
        <ele>1829</ele>
        <time>2026-08-21T11:33:12.000Z</time>
      </trkpt>
      <trkpt lat="45.27849" lon="6.04497">
        <ele>1829.1999511719</ele>
        <time>2026-08-21T11:33:13.000Z</time>
      </trkpt>
      <trkpt lat="45.27851" lon="6.045">
        <ele>1829.5999755859</ele>
        <time>2026-08-21T11:33:14.000Z</time>
      </trkpt>
      <trkpt lat="45.27852" lon="6.04503">
        <ele>1829.8000488281</ele>
        <time>2026-08-21T11:33:15.000Z</time>
      </trkpt>
      <trkpt lat="45.27853" lon="6.04507">
        <ele>1828.8000488281</ele>
        <time>2026-08-21T11:33:16.000Z</time>
      </trkpt>
      <trkpt lat="45.27854" lon="6.0451">
        <ele>1828.4000244141</ele>
        <time>2026-08-21T11:33:17.000Z</time>
      </trkpt>
      <trkpt lat="45.27855" lon="6.04513">
        <ele>1827.8000488281</ele>
        <time>2026-08-21T11:33:18.000Z</time>
      </trkpt>
      <trkpt lat="45.27857" lon="6.04517">
        <ele>1827.4000244141</ele>
        <time>2026-08-21T11:33:19.000Z</time>
      </trkpt>
      <trkpt lat="45.27858" lon="6.04522">
        <ele>1826.8000488281</ele>
        <time>2026-08-21T11:33:20.000Z</time>
      </trkpt>
      <trkpt lat="45.27859" lon="6.04526">
        <ele>1826.1999511719</ele>
        <time>2026-08-21T11:33:21.000Z</time>
      </trkpt>
      <trkpt lat="45.27859" lon="6.04529">
        <ele>1825.4000244141</ele>
        <time>2026-08-21T11:33:22.000Z</time>
      </trkpt>
      <trkpt lat="45.27861" lon="6.04533">
        <ele>1824.8000488281</ele>
        <time>2026-08-21T11:33:23.000Z</time>
      </trkpt>
      <trkpt lat="45.27862" lon="6.04536">
        <ele>1822.1999511719</ele>
        <time>2026-08-21T11:33:24.000Z</time>
      </trkpt>
      <trkpt lat="45.27863" lon="6.0454">
        <ele>1819.5999755859</ele>
        <time>2026-08-21T11:33:25.000Z</time>
      </trkpt>
      <trkpt lat="45.27865" lon="6.04545">
        <ele>1818.5999755859</ele>
        <time>2026-08-21T11:33:26.000Z</time>
      </trkpt>
      <trkpt lat="45.27866" lon="6.04549">
        <ele>1817.4000244141</ele>
        <time>2026-08-21T11:33:27.000Z</time>
      </trkpt>
      <trkpt lat="45.27867" lon="6.04552">
        <ele>1817</ele>
        <time>2026-08-21T11:33:28.000Z</time>
      </trkpt>
      <trkpt lat="45.27868" lon="6.04556">
        <ele>1815.5999755859</ele>
        <time>2026-08-21T11:33:29.000Z</time>
      </trkpt>
      <trkpt lat="45.2787" lon="6.04559">
        <ele>1815</ele>
        <time>2026-08-21T11:33:30.000Z</time>
      </trkpt>
      <trkpt lat="45.27872" lon="6.04562">
        <ele>1814.4000244141</ele>
        <time>2026-08-21T11:33:31.000Z</time>
      </trkpt>
      <trkpt lat="45.27873" lon="6.04567">
        <ele>1813.5999755859</ele>
        <time>2026-08-21T11:33:32.000Z</time>
      </trkpt>
      <trkpt lat="45.27875" lon="6.0457">
        <ele>1812</ele>
        <time>2026-08-21T11:33:33.000Z</time>
      </trkpt>
      <trkpt lat="45.27876" lon="6.04575">
        <ele>1810.4000244141</ele>
        <time>2026-08-21T11:33:34.000Z</time>
      </trkpt>
      <trkpt lat="45.27877" lon="6.04579">
        <ele>1810.4000244141</ele>
        <time>2026-08-21T11:33:35.000Z</time>
      </trkpt>
      <trkpt lat="45.27879" lon="6.04582">
        <ele>1810.5999755859</ele>
        <time>2026-08-21T11:33:36.000Z</time>
      </trkpt>
      <trkpt lat="45.2788" lon="6.04585">
        <ele>1811</ele>
        <time>2026-08-21T11:33:37.000Z</time>
      </trkpt>
      <trkpt lat="45.27882" lon="6.04588">
        <ele>1811.1999511719</ele>
        <time>2026-08-21T11:33:38.000Z</time>
      </trkpt>
      <trkpt lat="45.27883" lon="6.04591">
        <ele>1811.5999755859</ele>
        <time>2026-08-21T11:33:39.000Z</time>
      </trkpt>
      <trkpt lat="45.27885" lon="6.04594">
        <ele>1811.5999755859</ele>
        <time>2026-08-21T11:33:40.000Z</time>
      </trkpt>
      <trkpt lat="45.27886" lon="6.04596">
        <ele>1811.5999755859</ele>
        <time>2026-08-21T11:33:41.000Z</time>
      </trkpt>
      <trkpt lat="45.27888" lon="6.04598">
        <ele>1811.4000244141</ele>
        <time>2026-08-21T11:33:42.000Z</time>
      </trkpt>
      <trkpt lat="45.2789" lon="6.04599">
        <ele>1811.4000244141</ele>
        <time>2026-08-21T11:33:43.000Z</time>
      </trkpt>
      <trkpt lat="45.27891" lon="6.04599">
        <ele>1811.4000244141</ele>
        <time>2026-08-21T11:33:44.000Z</time>
      </trkpt>
      <trkpt lat="45.27893" lon="6.04598">
        <ele>1810.5999755859</ele>
        <time>2026-08-21T11:33:45.000Z</time>
      </trkpt>
      <trkpt lat="45.27895" lon="6.04598">
        <ele>1810.1999511719</ele>
        <time>2026-08-21T11:33:46.000Z</time>
      </trkpt>
      <trkpt lat="45.27898" lon="6.04596">
        <ele>1809.8000488281</ele>
        <time>2026-08-21T11:33:47.000Z</time>
      </trkpt>
      <trkpt lat="45.279" lon="6.04595">
        <ele>1809.4000244141</ele>
        <time>2026-08-21T11:33:48.000Z</time>
      </trkpt>
      <trkpt lat="45.27901" lon="6.04593">
        <ele>1809</ele>
        <time>2026-08-21T11:33:49.000Z</time>
      </trkpt>
      <trkpt lat="45.27904" lon="6.04591">
        <ele>1808.5999755859</ele>
        <time>2026-08-21T11:33:50.000Z</time>
      </trkpt>
      <trkpt lat="45.27906" lon="6.04589">
        <ele>1807.1999511719</ele>
        <time>2026-08-21T11:33:51.000Z</time>
      </trkpt>
      <trkpt lat="45.27908" lon="6.04587">
        <ele>1805.8000488281</ele>
        <time>2026-08-21T11:33:52.000Z</time>
      </trkpt>
      <trkpt lat="45.2791" lon="6.04585">
        <ele>1805.1999511719</ele>
        <time>2026-08-21T11:33:53.000Z</time>
      </trkpt>
      <trkpt lat="45.27911" lon="6.04582">
        <ele>1804.4000244141</ele>
        <time>2026-08-21T11:33:54.000Z</time>
      </trkpt>
      <trkpt lat="45.27912" lon="6.04579">
        <ele>1803</ele>
        <time>2026-08-21T11:33:55.000Z</time>
      </trkpt>
      <trkpt lat="45.27913" lon="6.04576">
        <ele>1802.8000488281</ele>
        <time>2026-08-21T11:33:56.000Z</time>
      </trkpt>
      <trkpt lat="45.27913" lon="6.04573">
        <ele>1802.4000244141</ele>
        <time>2026-08-21T11:33:57.000Z</time>
      </trkpt>
      <trkpt lat="45.27914" lon="6.0457">
        <ele>1802.1999511719</ele>
        <time>2026-08-21T11:33:58.000Z</time>
      </trkpt>
      <trkpt lat="45.27915" lon="6.04567">
        <ele>1801.8000488281</ele>
        <time>2026-08-21T11:33:59.000Z</time>
      </trkpt>
      <trkpt lat="45.27916" lon="6.04565">
        <ele>1801.4000244141</ele>
        <time>2026-08-21T11:34:00.000Z</time>
      </trkpt>
      <trkpt lat="45.27917" lon="6.04562">
        <ele>1800.8000488281</ele>
        <time>2026-08-21T11:34:01.000Z</time>
      </trkpt>
      <trkpt lat="45.27918" lon="6.0456">
        <ele>1801</ele>
        <time>2026-08-21T11:34:02.000Z</time>
      </trkpt>
      <trkpt lat="45.27919" lon="6.04558">
        <ele>1801</ele>
        <time>2026-08-21T11:34:03.000Z</time>
      </trkpt>
      <trkpt lat="45.27921" lon="6.04555">
        <ele>1801.1999511719</ele>
        <time>2026-08-21T11:34:04.000Z</time>
      </trkpt>
      <trkpt lat="45.27922" lon="6.04553">
        <ele>1801.1999511719</ele>
        <time>2026-08-21T11:34:05.000Z</time>
      </trkpt>
      <trkpt lat="45.27923" lon="6.0455">
        <ele>1804.1999511719</ele>
        <time>2026-08-21T11:34:06.000Z</time>
      </trkpt>
      <trkpt lat="45.27924" lon="6.04547">
        <ele>1804.1999511719</ele>
        <time>2026-08-21T11:34:07.000Z</time>
      </trkpt>
      <trkpt lat="45.27925" lon="6.04545">
        <ele>1804.4000244141</ele>
        <time>2026-08-21T11:34:08.000Z</time>
      </trkpt>
      <trkpt lat="45.27926" lon="6.04542">
        <ele>1804.5999755859</ele>
        <time>2026-08-21T11:34:09.000Z</time>
      </trkpt>
      <trkpt lat="45.27927" lon="6.0454">
        <ele>1805</ele>
        <time>2026-08-21T11:34:10.000Z</time>
      </trkpt>
      <trkpt lat="45.27928" lon="6.04537">
        <ele>1805.1999511719</ele>
        <time>2026-08-21T11:34:11.000Z</time>
      </trkpt>
      <trkpt lat="45.27929" lon="6.04534">
        <ele>1806</ele>
        <time>2026-08-21T11:34:12.000Z</time>
      </trkpt>
      <trkpt lat="45.2793" lon="6.04532">
        <ele>1806.4000244141</ele>
        <time>2026-08-21T11:34:13.000Z</time>
      </trkpt>
      <trkpt lat="45.27931" lon="6.04528">
        <ele>1806.5999755859</ele>
        <time>2026-08-21T11:34:14.000Z</time>
      </trkpt>
      <trkpt lat="45.27932" lon="6.04525">
        <ele>1807.1999511719</ele>
        <time>2026-08-21T11:34:15.000Z</time>
      </trkpt>
      <trkpt lat="45.27933" lon="6.04523">
        <ele>1807.8000488281</ele>
        <time>2026-08-21T11:34:16.000Z</time>
      </trkpt>
      <trkpt lat="45.27934" lon="6.0452">
        <ele>1809</ele>
        <time>2026-08-21T11:34:17.000Z</time>
      </trkpt>
      <trkpt lat="45.27935" lon="6.04517">
        <ele>1809.1999511719</ele>
        <time>2026-08-21T11:34:18.000Z</time>
      </trkpt>
      <trkpt lat="45.27936" lon="6.04515">
        <ele>1809.4000244141</ele>
        <time>2026-08-21T11:34:19.000Z</time>
      </trkpt>
      <trkpt lat="45.27938" lon="6.04512">
        <ele>1809.5999755859</ele>
        <time>2026-08-21T11:34:20.000Z</time>
      </trkpt>
      <trkpt lat="45.27938" lon="6.04509">
        <ele>1809.5999755859</ele>
        <time>2026-08-21T11:34:21.000Z</time>
      </trkpt>
      <trkpt lat="45.27939" lon="6.04507">
        <ele>1809.4000244141</ele>
        <time>2026-08-21T11:34:22.000Z</time>
      </trkpt>
      <trkpt lat="45.2794" lon="6.04504">
        <ele>1809</ele>
        <time>2026-08-21T11:34:23.000Z</time>
      </trkpt>
      <trkpt lat="45.27941" lon="6.04502">
        <ele>1808.5999755859</ele>
        <time>2026-08-21T11:34:24.000Z</time>
      </trkpt>
      <trkpt lat="45.27942" lon="6.04499">
        <ele>1808.5999755859</ele>
        <time>2026-08-21T11:34:25.000Z</time>
      </trkpt>
      <trkpt lat="45.27943" lon="6.04495">
        <ele>1808.8000488281</ele>
        <time>2026-08-21T11:34:26.000Z</time>
      </trkpt>
      <trkpt lat="45.27943" lon="6.04493">
        <ele>1809</ele>
        <time>2026-08-21T11:34:27.000Z</time>
      </trkpt>
      <trkpt lat="45.27944" lon="6.0449">
        <ele>1809.5999755859</ele>
        <time>2026-08-21T11:34:28.000Z</time>
      </trkpt>
      <trkpt lat="45.27945" lon="6.04487">
        <ele>1810.1999511719</ele>
        <time>2026-08-21T11:34:29.000Z</time>
      </trkpt>
      <trkpt lat="45.27946" lon="6.04484">
        <ele>1810.5999755859</ele>
        <time>2026-08-21T11:34:30.000Z</time>
      </trkpt>
      <trkpt lat="45.27947" lon="6.04481">
        <ele>1810.8000488281</ele>
        <time>2026-08-21T11:34:31.000Z</time>
      </trkpt>
      <trkpt lat="45.27947" lon="6.04479">
        <ele>1811.4000244141</ele>
        <time>2026-08-21T11:34:32.000Z</time>
      </trkpt>
      <trkpt lat="45.27947" lon="6.04477">
        <ele>1812.1999511719</ele>
        <time>2026-08-21T11:34:33.000Z</time>
      </trkpt>
      <trkpt lat="45.27947" lon="6.04474">
        <ele>1812.5999755859</ele>
        <time>2026-08-21T11:34:34.000Z</time>
      </trkpt>
      <trkpt lat="45.27947" lon="6.04472">
        <ele>1813.1999511719</ele>
        <time>2026-08-21T11:34:35.000Z</time>
      </trkpt>
      <trkpt lat="45.27948" lon="6.0447">
        <ele>1813.1999511719</ele>
        <time>2026-08-21T11:34:36.000Z</time>
      </trkpt>
      <trkpt lat="45.27948" lon="6.04468">
        <ele>1813.1999511719</ele>
        <time>2026-08-21T11:34:37.000Z</time>
      </trkpt>
      <trkpt lat="45.27947" lon="6.04466">
        <ele>1813.1999511719</ele>
        <time>2026-08-21T11:34:38.000Z</time>
      </trkpt>
      <trkpt lat="45.27947" lon="6.04464">
        <ele>1813.1999511719</ele>
        <time>2026-08-21T11:34:39.000Z</time>
      </trkpt>
      <trkpt lat="45.27947" lon="6.04462">
        <ele>1813.1999511719</ele>
        <time>2026-08-21T11:34:40.000Z</time>
      </trkpt>
      <trkpt lat="45.27946" lon="6.04459">
        <ele>1813.4000244141</ele>
        <time>2026-08-21T11:34:41.000Z</time>
      </trkpt>
      <trkpt lat="45.27945" lon="6.04457">
        <ele>1813.5999755859</ele>
        <time>2026-08-21T11:34:42.000Z</time>
      </trkpt>
      <trkpt lat="45.27945" lon="6.04455">
        <ele>1814</ele>
        <time>2026-08-21T11:34:43.000Z</time>
      </trkpt>
      <trkpt lat="45.27944" lon="6.04452">
        <ele>1814.1999511719</ele>
        <time>2026-08-21T11:34:44.000Z</time>
      </trkpt>
      <trkpt lat="45.27944" lon="6.0445">
        <ele>1814.5999755859</ele>
        <time>2026-08-21T11:34:45.000Z</time>
      </trkpt>
      <trkpt lat="45.27944" lon="6.04447">
        <ele>1814.8000488281</ele>
        <time>2026-08-21T11:34:46.000Z</time>
      </trkpt>
      <trkpt lat="45.27943" lon="6.04444">
        <ele>1815</ele>
        <time>2026-08-21T11:34:47.000Z</time>
      </trkpt>
      <trkpt lat="45.27942" lon="6.04442">
        <ele>1814.8000488281</ele>
        <time>2026-08-21T11:34:48.000Z</time>
      </trkpt>
      <trkpt lat="45.27941" lon="6.04439">
        <ele>1814.5999755859</ele>
        <time>2026-08-21T11:34:49.000Z</time>
      </trkpt>
      <trkpt lat="45.27941" lon="6.04436">
        <ele>1814.5999755859</ele>
        <time>2026-08-21T11:34:50.000Z</time>
      </trkpt>
      <trkpt lat="45.2794" lon="6.04433">
        <ele>1814.4000244141</ele>
        <time>2026-08-21T11:34:51.000Z</time>
      </trkpt>
      <trkpt lat="45.27939" lon="6.04429">
        <ele>1814.1999511719</ele>
        <time>2026-08-21T11:34:52.000Z</time>
      </trkpt>
      <trkpt lat="45.27938" lon="6.04426">
        <ele>1814.1999511719</ele>
        <time>2026-08-21T11:34:53.000Z</time>
      </trkpt>
      <trkpt lat="45.27938" lon="6.04423">
        <ele>1814.1999511719</ele>
        <time>2026-08-21T11:34:54.000Z</time>
      </trkpt>
      <trkpt lat="45.27938" lon="6.04419">
        <ele>1814.1999511719</ele>
        <time>2026-08-21T11:34:55.000Z</time>
      </trkpt>
      <trkpt lat="45.27939" lon="6.04416">
        <ele>1814</ele>
        <time>2026-08-21T11:34:56.000Z</time>
      </trkpt>
      <trkpt lat="45.27941" lon="6.04413">
        <ele>1813.8000488281</ele>
        <time>2026-08-21T11:34:57.000Z</time>
      </trkpt>
      <trkpt lat="45.27944" lon="6.04412">
        <ele>1813.8000488281</ele>
        <time>2026-08-21T11:34:58.000Z</time>
      </trkpt>
      <trkpt lat="45.27946" lon="6.04413">
        <ele>1814</ele>
        <time>2026-08-21T11:34:59.000Z</time>
      </trkpt>
      <trkpt lat="45.27948" lon="6.04414">
        <ele>1814</ele>
        <time>2026-08-21T11:35:00.000Z</time>
      </trkpt>
      <trkpt lat="45.27951" lon="6.04416">
        <ele>1814.1999511719</ele>
        <time>2026-08-21T11:35:01.000Z</time>
      </trkpt>
      <trkpt lat="45.27952" lon="6.04418">
        <ele>1814.1999511719</ele>
        <time>2026-08-21T11:35:02.000Z</time>
      </trkpt>
      <trkpt lat="45.27954" lon="6.04421">
        <ele>1814.1999511719</ele>
        <time>2026-08-21T11:35:03.000Z</time>
      </trkpt>
      <trkpt lat="45.27956" lon="6.04423">
        <ele>1814.1999511719</ele>
        <time>2026-08-21T11:35:04.000Z</time>
      </trkpt>
      <trkpt lat="45.27958" lon="6.04425">
        <ele>1814</ele>
        <time>2026-08-21T11:35:05.000Z</time>
      </trkpt>
      <trkpt lat="45.27961" lon="6.04426">
        <ele>1813.8000488281</ele>
        <time>2026-08-21T11:35:06.000Z</time>
      </trkpt>
      <trkpt lat="45.27963" lon="6.04428">
        <ele>1813.5999755859</ele>
        <time>2026-08-21T11:35:07.000Z</time>
      </trkpt>
      <trkpt lat="45.27965" lon="6.04428">
        <ele>1813.4000244141</ele>
        <time>2026-08-21T11:35:08.000Z</time>
      </trkpt>
      <trkpt lat="45.27968" lon="6.04428">
        <ele>1813.1999511719</ele>
        <time>2026-08-21T11:35:09.000Z</time>
      </trkpt>
      <trkpt lat="45.2797" lon="6.04427">
        <ele>1813.1999511719</ele>
        <time>2026-08-21T11:35:10.000Z</time>
      </trkpt>
      <trkpt lat="45.27972" lon="6.04426">
        <ele>1813.1999511719</ele>
        <time>2026-08-21T11:35:11.000Z</time>
      </trkpt>
      <trkpt lat="45.27974" lon="6.04424">
        <ele>1813.4000244141</ele>
        <time>2026-08-21T11:35:12.000Z</time>
      </trkpt>
      <trkpt lat="45.27975" lon="6.04422">
        <ele>1814</ele>
        <time>2026-08-21T11:35:13.000Z</time>
      </trkpt>
      <trkpt lat="45.27976" lon="6.0442">
        <ele>1814.5999755859</ele>
        <time>2026-08-21T11:35:14.000Z</time>
      </trkpt>
      <trkpt lat="45.27978" lon="6.04417">
        <ele>1814.8000488281</ele>
        <time>2026-08-21T11:35:15.000Z</time>
      </trkpt>
      <trkpt lat="45.27978" lon="6.04414">
        <ele>1815</ele>
        <time>2026-08-21T11:35:16.000Z</time>
      </trkpt>
      <trkpt lat="45.27978" lon="6.0441">
        <ele>1815.5999755859</ele>
        <time>2026-08-21T11:35:17.000Z</time>
      </trkpt>
      <trkpt lat="45.27978" lon="6.04407">
        <ele>1815.8000488281</ele>
        <time>2026-08-21T11:35:18.000Z</time>
      </trkpt>
      <trkpt lat="45.27978" lon="6.04405">
        <ele>1815.8000488281</ele>
        <time>2026-08-21T11:35:19.000Z</time>
      </trkpt>
      <trkpt lat="45.27978" lon="6.04402">
        <ele>1815.8000488281</ele>
        <time>2026-08-21T11:35:20.000Z</time>
      </trkpt>
      <trkpt lat="45.27978" lon="6.04398">
        <ele>1815.8000488281</ele>
        <time>2026-08-21T11:35:21.000Z</time>
      </trkpt>
      <trkpt lat="45.27978" lon="6.04396">
        <ele>1815.8000488281</ele>
        <time>2026-08-21T11:35:22.000Z</time>
      </trkpt>
      <trkpt lat="45.27978" lon="6.04393">
        <ele>1816.1999511719</ele>
        <time>2026-08-21T11:35:23.000Z</time>
      </trkpt>
      <trkpt lat="45.27978" lon="6.04391">
        <ele>1816.1999511719</ele>
        <time>2026-08-21T11:35:24.000Z</time>
      </trkpt>
      <trkpt lat="45.27979" lon="6.04388">
        <ele>1816.5999755859</ele>
        <time>2026-08-21T11:35:25.000Z</time>
      </trkpt>
      <trkpt lat="45.27979" lon="6.04385">
        <ele>1816.5999755859</ele>
        <time>2026-08-21T11:35:26.000Z</time>
      </trkpt>
      <trkpt lat="45.27979" lon="6.04383">
        <ele>1816.5999755859</ele>
        <time>2026-08-21T11:35:27.000Z</time>
      </trkpt>
      <trkpt lat="45.27979" lon="6.04379">
        <ele>1816.8000488281</ele>
        <time>2026-08-21T11:35:28.000Z</time>
      </trkpt>
      <trkpt lat="45.27979" lon="6.04376">
        <ele>1816.8000488281</ele>
        <time>2026-08-21T11:35:29.000Z</time>
      </trkpt>
      <trkpt lat="45.2798" lon="6.04372">
        <ele>1816.8000488281</ele>
        <time>2026-08-21T11:35:30.000Z</time>
      </trkpt>
      <trkpt lat="45.2798" lon="6.04369">
        <ele>1816.8000488281</ele>
        <time>2026-08-21T11:35:31.000Z</time>
      </trkpt>
      <trkpt lat="45.27982" lon="6.04365">
        <ele>1816.8000488281</ele>
        <time>2026-08-21T11:35:32.000Z</time>
      </trkpt>
      <trkpt lat="45.27984" lon="6.04362">
        <ele>1816.4000244141</ele>
        <time>2026-08-21T11:35:33.000Z</time>
      </trkpt>
      <trkpt lat="45.27985" lon="6.04359">
        <ele>1815.8000488281</ele>
        <time>2026-08-21T11:35:34.000Z</time>
      </trkpt>
      <trkpt lat="45.27987" lon="6.04356">
        <ele>1815.5999755859</ele>
        <time>2026-08-21T11:35:35.000Z</time>
      </trkpt>
      <trkpt lat="45.27988" lon="6.04353">
        <ele>1815.4000244141</ele>
        <time>2026-08-21T11:35:36.000Z</time>
      </trkpt>
      <trkpt lat="45.2799" lon="6.0435">
        <ele>1815.1999511719</ele>
        <time>2026-08-21T11:35:37.000Z</time>
      </trkpt>
      <trkpt lat="45.27991" lon="6.04347">
        <ele>1815.4000244141</ele>
        <time>2026-08-21T11:35:38.000Z</time>
      </trkpt>
      <trkpt lat="45.27992" lon="6.04344">
        <ele>1815.5999755859</ele>
        <time>2026-08-21T11:35:39.000Z</time>
      </trkpt>
      <trkpt lat="45.27992" lon="6.04341">
        <ele>1815.8000488281</ele>
        <time>2026-08-21T11:35:40.000Z</time>
      </trkpt>
      <trkpt lat="45.27992" lon="6.04338">
        <ele>1816.4000244141</ele>
        <time>2026-08-21T11:35:41.000Z</time>
      </trkpt>
      <trkpt lat="45.27993" lon="6.04335">
        <ele>1816.8000488281</ele>
        <time>2026-08-21T11:35:42.000Z</time>
      </trkpt>
      <trkpt lat="45.27994" lon="6.04332">
        <ele>1817.4000244141</ele>
        <time>2026-08-21T11:35:43.000Z</time>
      </trkpt>
      <trkpt lat="45.27995" lon="6.04328">
        <ele>1817.8000488281</ele>
        <time>2026-08-21T11:35:44.000Z</time>
      </trkpt>
      <trkpt lat="45.27995" lon="6.04325">
        <ele>1818.4000244141</ele>
        <time>2026-08-21T11:35:45.000Z</time>
      </trkpt>
      <trkpt lat="45.27995" lon="6.04322">
        <ele>1820</ele>
        <time>2026-08-21T11:35:46.000Z</time>
      </trkpt>
      <trkpt lat="45.27995" lon="6.04319">
        <ele>1821</ele>
        <time>2026-08-21T11:35:47.000Z</time>
      </trkpt>
      <trkpt lat="45.27994" lon="6.04315">
        <ele>1822</ele>
        <time>2026-08-21T11:35:48.000Z</time>
      </trkpt>
      <trkpt lat="45.27994" lon="6.04312">
        <ele>1822.4000244141</ele>
        <time>2026-08-21T11:35:49.000Z</time>
      </trkpt>
      <trkpt lat="45.27993" lon="6.04309">
        <ele>1822.8000488281</ele>
        <time>2026-08-21T11:35:50.000Z</time>
      </trkpt>
      <trkpt lat="45.27994" lon="6.04307">
        <ele>1823.1999511719</ele>
        <time>2026-08-21T11:35:51.000Z</time>
      </trkpt>
      <trkpt lat="45.27995" lon="6.04304">
        <ele>1823.1999511719</ele>
        <time>2026-08-21T11:35:52.000Z</time>
      </trkpt>
      <trkpt lat="45.27996" lon="6.04301">
        <ele>1823.4000244141</ele>
        <time>2026-08-21T11:35:53.000Z</time>
      </trkpt>
      <trkpt lat="45.27997" lon="6.04298">
        <ele>1823</ele>
        <time>2026-08-21T11:35:54.000Z</time>
      </trkpt>
      <trkpt lat="45.27997" lon="6.04295">
        <ele>1822.5999755859</ele>
        <time>2026-08-21T11:35:55.000Z</time>
      </trkpt>
      <trkpt lat="45.27998" lon="6.04292">
        <ele>1822.1999511719</ele>
        <time>2026-08-21T11:35:56.000Z</time>
      </trkpt>
      <trkpt lat="45.27999" lon="6.04287">
        <ele>1820.5999755859</ele>
        <time>2026-08-21T11:35:57.000Z</time>
      </trkpt>
      <trkpt lat="45.28" lon="6.04284">
        <ele>1819</ele>
        <time>2026-08-21T11:35:58.000Z</time>
      </trkpt>
      <trkpt lat="45.28" lon="6.0428">
        <ele>1818.8000488281</ele>
        <time>2026-08-21T11:35:59.000Z</time>
      </trkpt>
      <trkpt lat="45.28001" lon="6.04276">
        <ele>1818.5999755859</ele>
        <time>2026-08-21T11:36:00.000Z</time>
      </trkpt>
      <trkpt lat="45.28001" lon="6.04272">
        <ele>1817.8000488281</ele>
        <time>2026-08-21T11:36:01.000Z</time>
      </trkpt>
      <trkpt lat="45.28002" lon="6.04268">
        <ele>1816.4000244141</ele>
        <time>2026-08-21T11:36:02.000Z</time>
      </trkpt>
      <trkpt lat="45.28002" lon="6.04264">
        <ele>1815.5999755859</ele>
        <time>2026-08-21T11:36:03.000Z</time>
      </trkpt>
      <trkpt lat="45.28002" lon="6.0426">
        <ele>1814.4000244141</ele>
        <time>2026-08-21T11:36:04.000Z</time>
      </trkpt>
      <trkpt lat="45.28003" lon="6.04256">
        <ele>1814.1999511719</ele>
        <time>2026-08-21T11:36:05.000Z</time>
      </trkpt>
      <trkpt lat="45.28003" lon="6.04253">
        <ele>1814.1999511719</ele>
        <time>2026-08-21T11:36:06.000Z</time>
      </trkpt>
      <trkpt lat="45.28003" lon="6.04249">
        <ele>1814.4000244141</ele>
        <time>2026-08-21T11:36:07.000Z</time>
      </trkpt>
      <trkpt lat="45.28002" lon="6.04246">
        <ele>1814.5999755859</ele>
        <time>2026-08-21T11:36:08.000Z</time>
      </trkpt>
      <trkpt lat="45.28001" lon="6.04243">
        <ele>1814.8000488281</ele>
        <time>2026-08-21T11:36:09.000Z</time>
      </trkpt>
      <trkpt lat="45.28" lon="6.04239">
        <ele>1815.1999511719</ele>
        <time>2026-08-21T11:36:10.000Z</time>
      </trkpt>
      <trkpt lat="45.27999" lon="6.04236">
        <ele>1815.4000244141</ele>
        <time>2026-08-21T11:36:11.000Z</time>
      </trkpt>
      <trkpt lat="45.27999" lon="6.04232">
        <ele>1815.4000244141</ele>
        <time>2026-08-21T11:36:12.000Z</time>
      </trkpt>
      <trkpt lat="45.27998" lon="6.04228">
        <ele>1815.4000244141</ele>
        <time>2026-08-21T11:36:13.000Z</time>
      </trkpt>
      <trkpt lat="45.27997" lon="6.04224">
        <ele>1815.4000244141</ele>
        <time>2026-08-21T11:36:14.000Z</time>
      </trkpt>
      <trkpt lat="45.27997" lon="6.0422">
        <ele>1815</ele>
        <time>2026-08-21T11:36:15.000Z</time>
      </trkpt>
      <trkpt lat="45.27997" lon="6.04217">
        <ele>1814.5999755859</ele>
        <time>2026-08-21T11:36:16.000Z</time>
      </trkpt>
      <trkpt lat="45.27997" lon="6.04213">
        <ele>1814.4000244141</ele>
        <time>2026-08-21T11:36:17.000Z</time>
      </trkpt>
      <trkpt lat="45.27997" lon="6.04209">
        <ele>1814.4000244141</ele>
        <time>2026-08-21T11:36:18.000Z</time>
      </trkpt>
      <trkpt lat="45.27997" lon="6.04205">
        <ele>1814.4000244141</ele>
        <time>2026-08-21T11:36:19.000Z</time>
      </trkpt>
      <trkpt lat="45.27998" lon="6.04201">
        <ele>1814.4000244141</ele>
        <time>2026-08-21T11:36:20.000Z</time>
      </trkpt>
      <trkpt lat="45.27999" lon="6.04197">
        <ele>1814.4000244141</ele>
        <time>2026-08-21T11:36:21.000Z</time>
      </trkpt>
      <trkpt lat="45.28" lon="6.04194">
        <ele>1813.5999755859</ele>
        <time>2026-08-21T11:36:22.000Z</time>
      </trkpt>
      <trkpt lat="45.28001" lon="6.0419">
        <ele>1813.5999755859</ele>
        <time>2026-08-21T11:36:23.000Z</time>
      </trkpt>
      <trkpt lat="45.28003" lon="6.04186">
        <ele>1813.8000488281</ele>
        <time>2026-08-21T11:36:24.000Z</time>
      </trkpt>
      <trkpt lat="45.28005" lon="6.04183">
        <ele>1813.8000488281</ele>
        <time>2026-08-21T11:36:25.000Z</time>
      </trkpt>
      <trkpt lat="45.28008" lon="6.04181">
        <ele>1813.8000488281</ele>
        <time>2026-08-21T11:36:26.000Z</time>
      </trkpt>
      <trkpt lat="45.2801" lon="6.04179">
        <ele>1813.8000488281</ele>
        <time>2026-08-21T11:36:27.000Z</time>
      </trkpt>
      <trkpt lat="45.28013" lon="6.04178">
        <ele>1813.5999755859</ele>
        <time>2026-08-21T11:36:28.000Z</time>
      </trkpt>
      <trkpt lat="45.28015" lon="6.04177">
        <ele>1813</ele>
        <time>2026-08-21T11:36:29.000Z</time>
      </trkpt>
      <trkpt lat="45.28018" lon="6.04176">
        <ele>1812.8000488281</ele>
        <time>2026-08-21T11:36:30.000Z</time>
      </trkpt>
      <trkpt lat="45.28021" lon="6.04175">
        <ele>1812.5999755859</ele>
        <time>2026-08-21T11:36:31.000Z</time>
      </trkpt>
      <trkpt lat="45.28023" lon="6.04174">
        <ele>1812.5999755859</ele>
        <time>2026-08-21T11:36:32.000Z</time>
      </trkpt>
      <trkpt lat="45.28025" lon="6.04173">
        <ele>1812.8000488281</ele>
        <time>2026-08-21T11:36:33.000Z</time>
      </trkpt>
      <trkpt lat="45.28027" lon="6.04172">
        <ele>1813.4000244141</ele>
        <time>2026-08-21T11:36:34.000Z</time>
      </trkpt>
      <trkpt lat="45.2803" lon="6.04172">
        <ele>1814</ele>
        <time>2026-08-21T11:36:35.000Z</time>
      </trkpt>
      <trkpt lat="45.28032" lon="6.04171">
        <ele>1814.4000244141</ele>
        <time>2026-08-21T11:36:36.000Z</time>
      </trkpt>
      <trkpt lat="45.28034" lon="6.0417">
        <ele>1815</ele>
        <time>2026-08-21T11:36:37.000Z</time>
      </trkpt>
      <trkpt lat="45.28036" lon="6.04169">
        <ele>1815.1999511719</ele>
        <time>2026-08-21T11:36:38.000Z</time>
      </trkpt>
      <trkpt lat="45.28039" lon="6.04168">
        <ele>1815.5999755859</ele>
        <time>2026-08-21T11:36:39.000Z</time>
      </trkpt>
      <trkpt lat="45.2804" lon="6.04166">
        <ele>1816</ele>
        <time>2026-08-21T11:36:40.000Z</time>
      </trkpt>
      <trkpt lat="45.28043" lon="6.04164">
        <ele>1816.1999511719</ele>
        <time>2026-08-21T11:36:41.000Z</time>
      </trkpt>
      <trkpt lat="45.28045" lon="6.04162">
        <ele>1816.4000244141</ele>
        <time>2026-08-21T11:36:42.000Z</time>
      </trkpt>
      <trkpt lat="45.28046" lon="6.0416">
        <ele>1816.4000244141</ele>
        <time>2026-08-21T11:36:43.000Z</time>
      </trkpt>
      <trkpt lat="45.28048" lon="6.04157">
        <ele>1816.5999755859</ele>
        <time>2026-08-21T11:36:44.000Z</time>
      </trkpt>
      <trkpt lat="45.28048" lon="6.04154">
        <ele>1816.8000488281</ele>
        <time>2026-08-21T11:36:45.000Z</time>
      </trkpt>
      <trkpt lat="45.28049" lon="6.04151">
        <ele>1816.8000488281</ele>
        <time>2026-08-21T11:36:46.000Z</time>
      </trkpt>
      <trkpt lat="45.28049" lon="6.04147">
        <ele>1816.8000488281</ele>
        <time>2026-08-21T11:36:47.000Z</time>
      </trkpt>
      <trkpt lat="45.28049" lon="6.04143">
        <ele>1816.8000488281</ele>
        <time>2026-08-21T11:36:48.000Z</time>
      </trkpt>
      <trkpt lat="45.28049" lon="6.0414">
        <ele>1816.5999755859</ele>
        <time>2026-08-21T11:36:49.000Z</time>
      </trkpt>
      <trkpt lat="45.28049" lon="6.04135">
        <ele>1815.8000488281</ele>
        <time>2026-08-21T11:36:50.000Z</time>
      </trkpt>
      <trkpt lat="45.28048" lon="6.04131">
        <ele>1815.5999755859</ele>
        <time>2026-08-21T11:36:51.000Z</time>
      </trkpt>
      <trkpt lat="45.28047" lon="6.04128">
        <ele>1815</ele>
        <time>2026-08-21T11:36:52.000Z</time>
      </trkpt>
      <trkpt lat="45.28046" lon="6.04123">
        <ele>1814.8000488281</ele>
        <time>2026-08-21T11:36:53.000Z</time>
      </trkpt>
      <trkpt lat="45.28045" lon="6.04119">
        <ele>1814.1999511719</ele>
        <time>2026-08-21T11:36:54.000Z</time>
      </trkpt>
      <trkpt lat="45.28044" lon="6.04116">
        <ele>1814</ele>
        <time>2026-08-21T11:36:55.000Z</time>
      </trkpt>
      <trkpt lat="45.28043" lon="6.04111">
        <ele>1813.8000488281</ele>
        <time>2026-08-21T11:36:56.000Z</time>
      </trkpt>
      <trkpt lat="45.28042" lon="6.04108">
        <ele>1813.5999755859</ele>
        <time>2026-08-21T11:36:57.000Z</time>
      </trkpt>
      <trkpt lat="45.28041" lon="6.04104">
        <ele>1813.5999755859</ele>
        <time>2026-08-21T11:36:58.000Z</time>
      </trkpt>
      <trkpt lat="45.2804" lon="6.04101">
        <ele>1813.1999511719</ele>
        <time>2026-08-21T11:36:59.000Z</time>
      </trkpt>
      <trkpt lat="45.28039" lon="6.04097">
        <ele>1813.1999511719</ele>
        <time>2026-08-21T11:37:00.000Z</time>
      </trkpt>
      <trkpt lat="45.28037" lon="6.04094">
        <ele>1813.1999511719</ele>
        <time>2026-08-21T11:37:01.000Z</time>
      </trkpt>
      <trkpt lat="45.28036" lon="6.04091">
        <ele>1813.4000244141</ele>
        <time>2026-08-21T11:37:02.000Z</time>
      </trkpt>
      <trkpt lat="45.28034" lon="6.04088">
        <ele>1813.4000244141</ele>
        <time>2026-08-21T11:37:03.000Z</time>
      </trkpt>
      <trkpt lat="45.28033" lon="6.04085">
        <ele>1813.1999511719</ele>
        <time>2026-08-21T11:37:04.000Z</time>
      </trkpt>
      <trkpt lat="45.28031" lon="6.04082">
        <ele>1813</ele>
        <time>2026-08-21T11:37:05.000Z</time>
      </trkpt>
      <trkpt lat="45.28029" lon="6.0408">
        <ele>1812.8000488281</ele>
        <time>2026-08-21T11:37:06.000Z</time>
      </trkpt>
      <trkpt lat="45.28026" lon="6.04077">
        <ele>1812.5999755859</ele>
        <time>2026-08-21T11:37:07.000Z</time>
      </trkpt>
      <trkpt lat="45.28024" lon="6.04074">
        <ele>1811.8000488281</ele>
        <time>2026-08-21T11:37:08.000Z</time>
      </trkpt>
      <trkpt lat="45.28022" lon="6.04071">
        <ele>1811.1999511719</ele>
        <time>2026-08-21T11:37:09.000Z</time>
      </trkpt>
      <trkpt lat="45.28021" lon="6.04068">
        <ele>1810.5999755859</ele>
        <time>2026-08-21T11:37:10.000Z</time>
      </trkpt>
      <trkpt lat="45.28019" lon="6.04065">
        <ele>1810.1999511719</ele>
        <time>2026-08-21T11:37:11.000Z</time>
      </trkpt>
      <trkpt lat="45.28017" lon="6.04062">
        <ele>1810</ele>
        <time>2026-08-21T11:37:12.000Z</time>
      </trkpt>
      <trkpt lat="45.28015" lon="6.04059">
        <ele>1809.8000488281</ele>
        <time>2026-08-21T11:37:13.000Z</time>
      </trkpt>
      <trkpt lat="45.28013" lon="6.04056">
        <ele>1809.1999511719</ele>
        <time>2026-08-21T11:37:14.000Z</time>
      </trkpt>
      <trkpt lat="45.28011" lon="6.04054">
        <ele>1808.8000488281</ele>
        <time>2026-08-21T11:37:15.000Z</time>
      </trkpt>
      <trkpt lat="45.2801" lon="6.04051">
        <ele>1808.1999511719</ele>
        <time>2026-08-21T11:37:16.000Z</time>
      </trkpt>
      <trkpt lat="45.28008" lon="6.04048">
        <ele>1807.5999755859</ele>
        <time>2026-08-21T11:37:17.000Z</time>
      </trkpt>
      <trkpt lat="45.28006" lon="6.04046">
        <ele>1807</ele>
        <time>2026-08-21T11:37:18.000Z</time>
      </trkpt>
      <trkpt lat="45.28004" lon="6.04043">
        <ele>1806.4000244141</ele>
        <time>2026-08-21T11:37:19.000Z</time>
      </trkpt>
      <trkpt lat="45.28002" lon="6.04039">
        <ele>1805.4000244141</ele>
        <time>2026-08-21T11:37:20.000Z</time>
      </trkpt>
      <trkpt lat="45.28001" lon="6.04035">
        <ele>1804.8000488281</ele>
        <time>2026-08-21T11:37:21.000Z</time>
      </trkpt>
      <trkpt lat="45.28001" lon="6.0403">
        <ele>1803.5999755859</ele>
        <time>2026-08-21T11:37:22.000Z</time>
      </trkpt>
      <trkpt lat="45.28002" lon="6.04025">
        <ele>1803</ele>
        <time>2026-08-21T11:37:23.000Z</time>
      </trkpt>
      <trkpt lat="45.28002" lon="6.0402">
        <ele>1802.1999511719</ele>
        <time>2026-08-21T11:37:24.000Z</time>
      </trkpt>
      <trkpt lat="45.28003" lon="6.04017">
        <ele>1800.8000488281</ele>
        <time>2026-08-21T11:37:25.000Z</time>
      </trkpt>
      <trkpt lat="45.28005" lon="6.04013">
        <ele>1800.8000488281</ele>
        <time>2026-08-21T11:37:26.000Z</time>
      </trkpt>
      <trkpt lat="45.28007" lon="6.04011">
        <ele>1801</ele>
        <time>2026-08-21T11:37:27.000Z</time>
      </trkpt>
      <trkpt lat="45.2801" lon="6.04009">
        <ele>1801.8000488281</ele>
        <time>2026-08-21T11:37:28.000Z</time>
      </trkpt>
      <trkpt lat="45.28013" lon="6.04007">
        <ele>1802.4000244141</ele>
        <time>2026-08-21T11:37:29.000Z</time>
      </trkpt>
      <trkpt lat="45.28015" lon="6.04007">
        <ele>1803</ele>
        <time>2026-08-21T11:37:30.000Z</time>
      </trkpt>
      <trkpt lat="45.28017" lon="6.0401">
        <ele>1803</ele>
        <time>2026-08-21T11:37:31.000Z</time>
      </trkpt>
      <trkpt lat="45.28019" lon="6.04012">
        <ele>1802.8000488281</ele>
        <time>2026-08-21T11:37:32.000Z</time>
      </trkpt>
      <trkpt lat="45.28021" lon="6.04013">
        <ele>1802.5999755859</ele>
        <time>2026-08-21T11:37:33.000Z</time>
      </trkpt>
      <trkpt lat="45.28023" lon="6.04013">
        <ele>1802.5999755859</ele>
        <time>2026-08-21T11:37:34.000Z</time>
      </trkpt>
      <trkpt lat="45.28025" lon="6.04013">
        <ele>1802.1999511719</ele>
        <time>2026-08-21T11:37:35.000Z</time>
      </trkpt>
      <trkpt lat="45.28026" lon="6.04013">
        <ele>1802</ele>
        <time>2026-08-21T11:37:36.000Z</time>
      </trkpt>
      <trkpt lat="45.28028" lon="6.04014">
        <ele>1801.8000488281</ele>
        <time>2026-08-21T11:37:37.000Z</time>
      </trkpt>
      <trkpt lat="45.28029" lon="6.04015">
        <ele>1801.5999755859</ele>
        <time>2026-08-21T11:37:38.000Z</time>
      </trkpt>
      <trkpt lat="45.28031" lon="6.04017">
        <ele>1801.5999755859</ele>
        <time>2026-08-21T11:37:39.000Z</time>
      </trkpt>
      <trkpt lat="45.28033" lon="6.04019">
        <ele>1801.5999755859</ele>
        <time>2026-08-21T11:37:40.000Z</time>
      </trkpt>
      <trkpt lat="45.28034" lon="6.0402">
        <ele>1802</ele>
        <time>2026-08-21T11:37:41.000Z</time>
      </trkpt>
      <trkpt lat="45.28036" lon="6.04022">
        <ele>1802.1999511719</ele>
        <time>2026-08-21T11:37:42.000Z</time>
      </trkpt>
      <trkpt lat="45.28038" lon="6.04024">
        <ele>1802.1999511719</ele>
        <time>2026-08-21T11:37:43.000Z</time>
      </trkpt>
      <trkpt lat="45.2804" lon="6.04025">
        <ele>1801.8000488281</ele>
        <time>2026-08-21T11:37:44.000Z</time>
      </trkpt>
      <trkpt lat="45.28041" lon="6.04026">
        <ele>1801.8000488281</ele>
        <time>2026-08-21T11:37:45.000Z</time>
      </trkpt>
      <trkpt lat="45.28043" lon="6.04026">
        <ele>1801.8000488281</ele>
        <time>2026-08-21T11:37:46.000Z</time>
      </trkpt>
      <trkpt lat="45.28045" lon="6.04026">
        <ele>1801.8000488281</ele>
        <time>2026-08-21T11:37:47.000Z</time>
      </trkpt>
      <trkpt lat="45.28046" lon="6.04026">
        <ele>1802.1999511719</ele>
        <time>2026-08-21T11:37:48.000Z</time>
      </trkpt>
      <trkpt lat="45.28048" lon="6.04027">
        <ele>1802.5999755859</ele>
        <time>2026-08-21T11:37:49.000Z</time>
      </trkpt>
      <trkpt lat="45.2805" lon="6.04029">
        <ele>1802.8000488281</ele>
        <time>2026-08-21T11:37:50.000Z</time>
      </trkpt>
      <trkpt lat="45.28051" lon="6.0403">
        <ele>1803.1999511719</ele>
        <time>2026-08-21T11:37:51.000Z</time>
      </trkpt>
      <trkpt lat="45.28053" lon="6.0403">
        <ele>1803.4000244141</ele>
        <time>2026-08-21T11:37:52.000Z</time>
      </trkpt>
      <trkpt lat="45.28055" lon="6.04031">
        <ele>1803.8000488281</ele>
        <time>2026-08-21T11:37:53.000Z</time>
      </trkpt>
      <trkpt lat="45.28056" lon="6.04031">
        <ele>1803.8000488281</ele>
        <time>2026-08-21T11:37:54.000Z</time>
      </trkpt>
      <trkpt lat="45.28058" lon="6.04031">
        <ele>1804</ele>
        <time>2026-08-21T11:37:55.000Z</time>
      </trkpt>
      <trkpt lat="45.28059" lon="6.04032">
        <ele>1804.1999511719</ele>
        <time>2026-08-21T11:37:56.000Z</time>
      </trkpt>
      <trkpt lat="45.28061" lon="6.04032">
        <ele>1804.5999755859</ele>
        <time>2026-08-21T11:37:57.000Z</time>
      </trkpt>
      <trkpt lat="45.28063" lon="6.04031">
        <ele>1805</ele>
        <time>2026-08-21T11:37:58.000Z</time>
      </trkpt>
      <trkpt lat="45.28064" lon="6.04031">
        <ele>1805.4000244141</ele>
        <time>2026-08-21T11:37:59.000Z</time>
      </trkpt>
      <trkpt lat="45.28066" lon="6.0403">
        <ele>1805.5999755859</ele>
        <time>2026-08-21T11:38:00.000Z</time>
      </trkpt>
      <trkpt lat="45.28068" lon="6.04029">
        <ele>1805.8000488281</ele>
        <time>2026-08-21T11:38:01.000Z</time>
      </trkpt>
      <trkpt lat="45.28069" lon="6.0403">
        <ele>1806.1999511719</ele>
        <time>2026-08-21T11:38:02.000Z</time>
      </trkpt>
      <trkpt lat="45.2807" lon="6.0403">
        <ele>1806.4000244141</ele>
        <time>2026-08-21T11:38:03.000Z</time>
      </trkpt>
      <trkpt lat="45.28072" lon="6.04029">
        <ele>1806.8000488281</ele>
        <time>2026-08-21T11:38:04.000Z</time>
      </trkpt>
      <trkpt lat="45.28073" lon="6.04029">
        <ele>1807.1999511719</ele>
        <time>2026-08-21T11:38:05.000Z</time>
      </trkpt>
      <trkpt lat="45.28074" lon="6.04029">
        <ele>1807.5999755859</ele>
        <time>2026-08-21T11:38:06.000Z</time>
      </trkpt>
      <trkpt lat="45.28075" lon="6.04029">
        <ele>1808</ele>
        <time>2026-08-21T11:38:07.000Z</time>
      </trkpt>
      <trkpt lat="45.28075" lon="6.0403">
        <ele>1808.4000244141</ele>
        <time>2026-08-21T11:38:08.000Z</time>
      </trkpt>
      <trkpt lat="45.28076" lon="6.0403">
        <ele>1808.4000244141</ele>
        <time>2026-08-21T11:38:09.000Z</time>
      </trkpt>
      <trkpt lat="45.28077" lon="6.0403">
        <ele>1808.4000244141</ele>
        <time>2026-08-21T11:38:10.000Z</time>
      </trkpt>
      <trkpt lat="45.28078" lon="6.04031">
        <ele>1808.4000244141</ele>
        <time>2026-08-21T11:38:11.000Z</time>
      </trkpt>
      <trkpt lat="45.28078" lon="6.04032">
        <ele>1808.4000244141</ele>
        <time>2026-08-21T11:38:12.000Z</time>
      </trkpt>
      <trkpt lat="45.28079" lon="6.04033">
        <ele>1808.1999511719</ele>
        <time>2026-08-21T11:38:13.000Z</time>
      </trkpt>
      <trkpt lat="45.2808" lon="6.04033">
        <ele>1808</ele>
        <time>2026-08-21T11:38:14.000Z</time>
      </trkpt>
      <trkpt lat="45.28081" lon="6.04034">
        <ele>1806.4000244141</ele>
        <time>2026-08-21T11:38:15.000Z</time>
      </trkpt>
      <trkpt lat="45.28082" lon="6.04035">
        <ele>1806</ele>
        <time>2026-08-21T11:38:16.000Z</time>
      </trkpt>
      <trkpt lat="45.28083" lon="6.04035">
        <ele>1805.8000488281</ele>
        <time>2026-08-21T11:38:17.000Z</time>
      </trkpt>
      <trkpt lat="45.28084" lon="6.04035">
        <ele>1805.5999755859</ele>
        <time>2026-08-21T11:38:18.000Z</time>
      </trkpt>
      <trkpt lat="45.28085" lon="6.04036">
        <ele>1805.4000244141</ele>
        <time>2026-08-21T11:38:19.000Z</time>
      </trkpt>
      <trkpt lat="45.28086" lon="6.04037">
        <ele>1805</ele>
        <time>2026-08-21T11:38:20.000Z</time>
      </trkpt>
      <trkpt lat="45.28087" lon="6.04038">
        <ele>1805</ele>
        <time>2026-08-21T11:38:21.000Z</time>
      </trkpt>
      <trkpt lat="45.28088" lon="6.04039">
        <ele>1805</ele>
        <time>2026-08-21T11:38:22.000Z</time>
      </trkpt>
      <trkpt lat="45.28089" lon="6.04039">
        <ele>1805.1999511719</ele>
        <time>2026-08-21T11:38:23.000Z</time>
      </trkpt>
      <trkpt lat="45.28091" lon="6.0404">
        <ele>1805.4000244141</ele>
        <time>2026-08-21T11:38:24.000Z</time>
      </trkpt>
      <trkpt lat="45.28092" lon="6.04041">
        <ele>1805.4000244141</ele>
        <time>2026-08-21T11:38:25.000Z</time>
      </trkpt>
      <trkpt lat="45.28094" lon="6.04042">
        <ele>1805.4000244141</ele>
        <time>2026-08-21T11:38:26.000Z</time>
      </trkpt>
      <trkpt lat="45.28095" lon="6.04043">
        <ele>1805.1999511719</ele>
        <time>2026-08-21T11:38:27.000Z</time>
      </trkpt>
      <trkpt lat="45.28096" lon="6.04043">
        <ele>1805.1999511719</ele>
        <time>2026-08-21T11:38:28.000Z</time>
      </trkpt>
      <trkpt lat="45.28098" lon="6.04044">
        <ele>1805.1999511719</ele>
        <time>2026-08-21T11:38:29.000Z</time>
      </trkpt>
      <trkpt lat="45.28099" lon="6.04046">
        <ele>1805.1999511719</ele>
        <time>2026-08-21T11:38:30.000Z</time>
      </trkpt>
      <trkpt lat="45.281" lon="6.04048">
        <ele>1805.1999511719</ele>
        <time>2026-08-21T11:38:31.000Z</time>
      </trkpt>
      <trkpt lat="45.28102" lon="6.0405">
        <ele>1805.8000488281</ele>
        <time>2026-08-21T11:38:32.000Z</time>
      </trkpt>
      <trkpt lat="45.28104" lon="6.04052">
        <ele>1806.1999511719</ele>
        <time>2026-08-21T11:38:33.000Z</time>
      </trkpt>
      <trkpt lat="45.28106" lon="6.04053">
        <ele>1806.8000488281</ele>
        <time>2026-08-21T11:38:34.000Z</time>
      </trkpt>
      <trkpt lat="45.28108" lon="6.04056">
        <ele>1807.1999511719</ele>
        <time>2026-08-21T11:38:35.000Z</time>
      </trkpt>
      <trkpt lat="45.2811" lon="6.04058">
        <ele>1807.5999755859</ele>
        <time>2026-08-21T11:38:36.000Z</time>
      </trkpt>
      <trkpt lat="45.28111" lon="6.0406">
        <ele>1807.8000488281</ele>
        <time>2026-08-21T11:38:37.000Z</time>
      </trkpt>
      <trkpt lat="45.28113" lon="6.04062">
        <ele>1808</ele>
        <time>2026-08-21T11:38:38.000Z</time>
      </trkpt>
      <trkpt lat="45.28114" lon="6.04064">
        <ele>1808.1999511719</ele>
        <time>2026-08-21T11:38:39.000Z</time>
      </trkpt>
      <trkpt lat="45.28116" lon="6.04066">
        <ele>1808.4000244141</ele>
        <time>2026-08-21T11:38:40.000Z</time>
      </trkpt>
      <trkpt lat="45.28117" lon="6.04069">
        <ele>1808.8000488281</ele>
        <time>2026-08-21T11:38:41.000Z</time>
      </trkpt>
      <trkpt lat="45.28118" lon="6.04071">
        <ele>1809</ele>
        <time>2026-08-21T11:38:42.000Z</time>
      </trkpt>
      <trkpt lat="45.2812" lon="6.04073">
        <ele>1809.1999511719</ele>
        <time>2026-08-21T11:38:43.000Z</time>
      </trkpt>
      <trkpt lat="45.28121" lon="6.04075">
        <ele>1809.1999511719</ele>
        <time>2026-08-21T11:38:44.000Z</time>
      </trkpt>
      <trkpt lat="45.28121" lon="6.04077">
        <ele>1809.1999511719</ele>
        <time>2026-08-21T11:38:45.000Z</time>
      </trkpt>
      <trkpt lat="45.28122" lon="6.04079">
        <ele>1809</ele>
        <time>2026-08-21T11:38:46.000Z</time>
      </trkpt>
      <trkpt lat="45.28124" lon="6.04081">
        <ele>1808.8000488281</ele>
        <time>2026-08-21T11:38:47.000Z</time>
      </trkpt>
      <trkpt lat="45.28125" lon="6.04083">
        <ele>1807.8000488281</ele>
        <time>2026-08-21T11:38:48.000Z</time>
      </trkpt>
      <trkpt lat="45.28126" lon="6.04085">
        <ele>1807.4000244141</ele>
        <time>2026-08-21T11:38:49.000Z</time>
      </trkpt>
      <trkpt lat="45.28128" lon="6.04087">
        <ele>1807</ele>
        <time>2026-08-21T11:38:50.000Z</time>
      </trkpt>
      <trkpt lat="45.28129" lon="6.04089">
        <ele>1806.1999511719</ele>
        <time>2026-08-21T11:38:51.000Z</time>
      </trkpt>
      <trkpt lat="45.28131" lon="6.04092">
        <ele>1805.8000488281</ele>
        <time>2026-08-21T11:38:52.000Z</time>
      </trkpt>
      <trkpt lat="45.28133" lon="6.04093">
        <ele>1805.1999511719</ele>
        <time>2026-08-21T11:38:53.000Z</time>
      </trkpt>
      <trkpt lat="45.28135" lon="6.04095">
        <ele>1805</ele>
        <time>2026-08-21T11:38:54.000Z</time>
      </trkpt>
      <trkpt lat="45.28137" lon="6.04097">
        <ele>1804.8000488281</ele>
        <time>2026-08-21T11:38:55.000Z</time>
      </trkpt>
      <trkpt lat="45.28139" lon="6.04098">
        <ele>1805.1999511719</ele>
        <time>2026-08-21T11:38:56.000Z</time>
      </trkpt>
      <trkpt lat="45.28141" lon="6.041">
        <ele>1805.1999511719</ele>
        <time>2026-08-21T11:38:57.000Z</time>
      </trkpt>
      <trkpt lat="45.28144" lon="6.04101">
        <ele>1805.1999511719</ele>
        <time>2026-08-21T11:38:58.000Z</time>
      </trkpt>
      <trkpt lat="45.28146" lon="6.04103">
        <ele>1805.1999511719</ele>
        <time>2026-08-21T11:38:59.000Z</time>
      </trkpt>
      <trkpt lat="45.28148" lon="6.04104">
        <ele>1805</ele>
        <time>2026-08-21T11:39:00.000Z</time>
      </trkpt>
      <trkpt lat="45.28151" lon="6.04105">
        <ele>1804.5999755859</ele>
        <time>2026-08-21T11:39:01.000Z</time>
      </trkpt>
      <trkpt lat="45.28153" lon="6.04105">
        <ele>1804.1999511719</ele>
        <time>2026-08-21T11:39:02.000Z</time>
      </trkpt>
      <trkpt lat="45.28155" lon="6.04105">
        <ele>1804</ele>
        <time>2026-08-21T11:39:03.000Z</time>
      </trkpt>
      <trkpt lat="45.28157" lon="6.04105">
        <ele>1803.8000488281</ele>
        <time>2026-08-21T11:39:04.000Z</time>
      </trkpt>
      <trkpt lat="45.28158" lon="6.04104">
        <ele>1803.5999755859</ele>
        <time>2026-08-21T11:39:05.000Z</time>
      </trkpt>
      <trkpt lat="45.2816" lon="6.04102">
        <ele>1803.5999755859</ele>
        <time>2026-08-21T11:39:06.000Z</time>
      </trkpt>
      <trkpt lat="45.28162" lon="6.04101">
        <ele>1803.4000244141</ele>
        <time>2026-08-21T11:39:07.000Z</time>
      </trkpt>
      <trkpt lat="45.28164" lon="6.04101">
        <ele>1803.4000244141</ele>
        <time>2026-08-21T11:39:08.000Z</time>
      </trkpt>
      <trkpt lat="45.28166" lon="6.04101">
        <ele>1803.1999511719</ele>
        <time>2026-08-21T11:39:09.000Z</time>
      </trkpt>
      <trkpt lat="45.2817" lon="6.04101">
        <ele>1803</ele>
        <time>2026-08-21T11:39:10.000Z</time>
      </trkpt>
      <trkpt lat="45.28172" lon="6.04102">
        <ele>1802.8000488281</ele>
        <time>2026-08-21T11:39:11.000Z</time>
      </trkpt>
      <trkpt lat="45.28173" lon="6.04103">
        <ele>1802.5999755859</ele>
        <time>2026-08-21T11:39:12.000Z</time>
      </trkpt>
      <trkpt lat="45.28176" lon="6.04102">
        <ele>1802.4000244141</ele>
        <time>2026-08-21T11:39:13.000Z</time>
      </trkpt>
      <trkpt lat="45.28178" lon="6.04102">
        <ele>1801.8000488281</ele>
        <time>2026-08-21T11:39:14.000Z</time>
      </trkpt>
      <trkpt lat="45.2818" lon="6.04102">
        <ele>1801</ele>
        <time>2026-08-21T11:39:15.000Z</time>
      </trkpt>
      <trkpt lat="45.28182" lon="6.04102">
        <ele>1800</ele>
        <time>2026-08-21T11:39:16.000Z</time>
      </trkpt>
      <trkpt lat="45.28184" lon="6.04102">
        <ele>1798.8000488281</ele>
        <time>2026-08-21T11:39:17.000Z</time>
      </trkpt>
      <trkpt lat="45.28186" lon="6.04101">
        <ele>1798.5999755859</ele>
        <time>2026-08-21T11:39:18.000Z</time>
      </trkpt>
      <trkpt lat="45.28188" lon="6.041">
        <ele>1798</ele>
        <time>2026-08-21T11:39:19.000Z</time>
      </trkpt>
      <trkpt lat="45.2819" lon="6.04099">
        <ele>1797.5999755859</ele>
        <time>2026-08-21T11:39:20.000Z</time>
      </trkpt>
      <trkpt lat="45.28192" lon="6.04098">
        <ele>1797</ele>
        <time>2026-08-21T11:39:21.000Z</time>
      </trkpt>
      <trkpt lat="45.28194" lon="6.04095">
        <ele>1797.5999755859</ele>
        <time>2026-08-21T11:39:22.000Z</time>
      </trkpt>
      <trkpt lat="45.28196" lon="6.04094">
        <ele>1798.4000244141</ele>
        <time>2026-08-21T11:39:23.000Z</time>
      </trkpt>
      <trkpt lat="45.28199" lon="6.04094">
        <ele>1798.5999755859</ele>
        <time>2026-08-21T11:39:24.000Z</time>
      </trkpt>
      <trkpt lat="45.28202" lon="6.04093">
        <ele>1798.5999755859</ele>
        <time>2026-08-21T11:39:25.000Z</time>
      </trkpt>
      <trkpt lat="45.28205" lon="6.04093">
        <ele>1798.8000488281</ele>
        <time>2026-08-21T11:39:26.000Z</time>
      </trkpt>
      <trkpt lat="45.28208" lon="6.04093">
        <ele>1798.8000488281</ele>
        <time>2026-08-21T11:39:27.000Z</time>
      </trkpt>
      <trkpt lat="45.28211" lon="6.04093">
        <ele>1798.4000244141</ele>
        <time>2026-08-21T11:39:28.000Z</time>
      </trkpt>
      <trkpt lat="45.28214" lon="6.04093">
        <ele>1797.1999511719</ele>
        <time>2026-08-21T11:39:29.000Z</time>
      </trkpt>
      <trkpt lat="45.28216" lon="6.04093">
        <ele>1797</ele>
        <time>2026-08-21T11:39:30.000Z</time>
      </trkpt>
      <trkpt lat="45.28219" lon="6.04094">
        <ele>1797</ele>
        <time>2026-08-21T11:39:31.000Z</time>
      </trkpt>
      <trkpt lat="45.28221" lon="6.04094">
        <ele>1796.1999511719</ele>
        <time>2026-08-21T11:39:32.000Z</time>
      </trkpt>
      <trkpt lat="45.28223" lon="6.04094">
        <ele>1795.8000488281</ele>
        <time>2026-08-21T11:39:33.000Z</time>
      </trkpt>
      <trkpt lat="45.28226" lon="6.04093">
        <ele>1796</ele>
        <time>2026-08-21T11:39:34.000Z</time>
      </trkpt>
      <trkpt lat="45.28228" lon="6.04093">
        <ele>1796</ele>
        <time>2026-08-21T11:39:35.000Z</time>
      </trkpt>
      <trkpt lat="45.28231" lon="6.04093">
        <ele>1796.1999511719</ele>
        <time>2026-08-21T11:39:36.000Z</time>
      </trkpt>
      <trkpt lat="45.28233" lon="6.04094">
        <ele>1796.1999511719</ele>
        <time>2026-08-21T11:39:37.000Z</time>
      </trkpt>
      <trkpt lat="45.28235" lon="6.04095">
        <ele>1796.8000488281</ele>
        <time>2026-08-21T11:39:38.000Z</time>
      </trkpt>
      <trkpt lat="45.28238" lon="6.04095">
        <ele>1797.4000244141</ele>
        <time>2026-08-21T11:39:39.000Z</time>
      </trkpt>
      <trkpt lat="45.2824" lon="6.04095">
        <ele>1796</ele>
        <time>2026-08-21T11:39:40.000Z</time>
      </trkpt>
      <trkpt lat="45.28243" lon="6.04095">
        <ele>1794.5999755859</ele>
        <time>2026-08-21T11:39:41.000Z</time>
      </trkpt>
      <trkpt lat="45.28246" lon="6.04095">
        <ele>1793.4000244141</ele>
        <time>2026-08-21T11:39:42.000Z</time>
      </trkpt>
      <trkpt lat="45.28248" lon="6.04095">
        <ele>1792</ele>
        <time>2026-08-21T11:39:43.000Z</time>
      </trkpt>
      <trkpt lat="45.28251" lon="6.04095">
        <ele>1790.5999755859</ele>
        <time>2026-08-21T11:39:44.000Z</time>
      </trkpt>
      <trkpt lat="45.28253" lon="6.04095">
        <ele>1791</ele>
        <time>2026-08-21T11:39:45.000Z</time>
      </trkpt>
      <trkpt lat="45.28256" lon="6.04095">
        <ele>1791.1999511719</ele>
        <time>2026-08-21T11:39:46.000Z</time>
      </trkpt>
      <trkpt lat="45.28258" lon="6.04095">
        <ele>1791.1999511719</ele>
        <time>2026-08-21T11:39:47.000Z</time>
      </trkpt>
      <trkpt lat="45.28261" lon="6.04095">
        <ele>1791.1999511719</ele>
        <time>2026-08-21T11:39:48.000Z</time>
      </trkpt>
      <trkpt lat="45.28263" lon="6.04096">
        <ele>1791.4000244141</ele>
        <time>2026-08-21T11:39:49.000Z</time>
      </trkpt>
      <trkpt lat="45.28266" lon="6.04096">
        <ele>1791.8000488281</ele>
        <time>2026-08-21T11:39:50.000Z</time>
      </trkpt>
      <trkpt lat="45.28269" lon="6.04097">
        <ele>1792.8000488281</ele>
        <time>2026-08-21T11:39:51.000Z</time>
      </trkpt>
      <trkpt lat="45.28271" lon="6.04097">
        <ele>1793.1999511719</ele>
        <time>2026-08-21T11:39:52.000Z</time>
      </trkpt>
      <trkpt lat="45.28273" lon="6.04098">
        <ele>1793.1999511719</ele>
        <time>2026-08-21T11:39:53.000Z</time>
      </trkpt>
      <trkpt lat="45.28275" lon="6.041">
        <ele>1793</ele>
        <time>2026-08-21T11:39:54.000Z</time>
      </trkpt>
      <trkpt lat="45.28277" lon="6.04102">
        <ele>1793</ele>
        <time>2026-08-21T11:39:55.000Z</time>
      </trkpt>
      <trkpt lat="45.28278" lon="6.04106">
        <ele>1793.4000244141</ele>
        <time>2026-08-21T11:39:56.000Z</time>
      </trkpt>
      <trkpt lat="45.28279" lon="6.04109">
        <ele>1793.5999755859</ele>
        <time>2026-08-21T11:39:57.000Z</time>
      </trkpt>
      <trkpt lat="45.28281" lon="6.04112">
        <ele>1794</ele>
        <time>2026-08-21T11:39:58.000Z</time>
      </trkpt>
      <trkpt lat="45.28283" lon="6.04115">
        <ele>1794.5999755859</ele>
        <time>2026-08-21T11:39:59.000Z</time>
      </trkpt>
      <trkpt lat="45.28285" lon="6.04116">
        <ele>1794.4000244141</ele>
        <time>2026-08-21T11:40:00.000Z</time>
      </trkpt>
      <trkpt lat="45.28287" lon="6.04119">
        <ele>1794.1999511719</ele>
        <time>2026-08-21T11:40:01.000Z</time>
      </trkpt>
      <trkpt lat="45.28289" lon="6.04121">
        <ele>1793.8000488281</ele>
        <time>2026-08-21T11:40:02.000Z</time>
      </trkpt>
      <trkpt lat="45.28292" lon="6.04123">
        <ele>1793.5999755859</ele>
        <time>2026-08-21T11:40:03.000Z</time>
      </trkpt>
      <trkpt lat="45.28294" lon="6.04125">
        <ele>1791.5999755859</ele>
        <time>2026-08-21T11:40:04.000Z</time>
      </trkpt>
      <trkpt lat="45.28296" lon="6.04127">
        <ele>1791.1999511719</ele>
        <time>2026-08-21T11:40:05.000Z</time>
      </trkpt>
      <trkpt lat="45.28298" lon="6.0413">
        <ele>1790.5999755859</ele>
        <time>2026-08-21T11:40:06.000Z</time>
      </trkpt>
      <trkpt lat="45.283" lon="6.04132">
        <ele>1790.4000244141</ele>
        <time>2026-08-21T11:40:07.000Z</time>
      </trkpt>
      <trkpt lat="45.28303" lon="6.04134">
        <ele>1790.1999511719</ele>
        <time>2026-08-21T11:40:08.000Z</time>
      </trkpt>
      <trkpt lat="45.28306" lon="6.04136">
        <ele>1789</ele>
        <time>2026-08-21T11:40:09.000Z</time>
      </trkpt>
      <trkpt lat="45.28308" lon="6.04139">
        <ele>1787.8000488281</ele>
        <time>2026-08-21T11:40:10.000Z</time>
      </trkpt>
      <trkpt lat="45.28311" lon="6.04142">
        <ele>1787.5999755859</ele>
        <time>2026-08-21T11:40:11.000Z</time>
      </trkpt>
      <trkpt lat="45.28312" lon="6.04144">
        <ele>1786.4000244141</ele>
        <time>2026-08-21T11:40:12.000Z</time>
      </trkpt>
      <trkpt lat="45.28315" lon="6.04146">
        <ele>1786.4000244141</ele>
        <time>2026-08-21T11:40:13.000Z</time>
      </trkpt>
      <trkpt lat="45.28317" lon="6.04148">
        <ele>1786</ele>
        <time>2026-08-21T11:40:14.000Z</time>
      </trkpt>
      <trkpt lat="45.28319" lon="6.0415">
        <ele>1785.5999755859</ele>
        <time>2026-08-21T11:40:15.000Z</time>
      </trkpt>
      <trkpt lat="45.28322" lon="6.04152">
        <ele>1785.5999755859</ele>
        <time>2026-08-21T11:40:16.000Z</time>
      </trkpt>
      <trkpt lat="45.28325" lon="6.04153">
        <ele>1785.5999755859</ele>
        <time>2026-08-21T11:40:17.000Z</time>
      </trkpt>
      <trkpt lat="45.28327" lon="6.04155">
        <ele>1785.4000244141</ele>
        <time>2026-08-21T11:40:18.000Z</time>
      </trkpt>
      <trkpt lat="45.2833" lon="6.04156">
        <ele>1785.4000244141</ele>
        <time>2026-08-21T11:40:19.000Z</time>
      </trkpt>
      <trkpt lat="45.28332" lon="6.04157">
        <ele>1785.4000244141</ele>
        <time>2026-08-21T11:40:20.000Z</time>
      </trkpt>
      <trkpt lat="45.28335" lon="6.04159">
        <ele>1785.4000244141</ele>
        <time>2026-08-21T11:40:21.000Z</time>
      </trkpt>
      <trkpt lat="45.28338" lon="6.0416">
        <ele>1785.5999755859</ele>
        <time>2026-08-21T11:40:22.000Z</time>
      </trkpt>
      <trkpt lat="45.2834" lon="6.04161">
        <ele>1785.4000244141</ele>
        <time>2026-08-21T11:40:23.000Z</time>
      </trkpt>
      <trkpt lat="45.28343" lon="6.04161">
        <ele>1784.8000488281</ele>
        <time>2026-08-21T11:40:24.000Z</time>
      </trkpt>
      <trkpt lat="45.28345" lon="6.04162">
        <ele>1784.5999755859</ele>
        <time>2026-08-21T11:40:25.000Z</time>
      </trkpt>
      <trkpt lat="45.28347" lon="6.04163">
        <ele>1784.4000244141</ele>
        <time>2026-08-21T11:40:26.000Z</time>
      </trkpt>
      <trkpt lat="45.2835" lon="6.04164">
        <ele>1783.8000488281</ele>
        <time>2026-08-21T11:40:27.000Z</time>
      </trkpt>
      <trkpt lat="45.28352" lon="6.04165">
        <ele>1783</ele>
        <time>2026-08-21T11:40:28.000Z</time>
      </trkpt>
      <trkpt lat="45.28355" lon="6.04166">
        <ele>1783</ele>
        <time>2026-08-21T11:40:29.000Z</time>
      </trkpt>
      <trkpt lat="45.28357" lon="6.04167">
        <ele>1782.8000488281</ele>
        <time>2026-08-21T11:40:30.000Z</time>
      </trkpt>
      <trkpt lat="45.2836" lon="6.04168">
        <ele>1782.8000488281</ele>
        <time>2026-08-21T11:40:31.000Z</time>
      </trkpt>
      <trkpt lat="45.28363" lon="6.04168">
        <ele>1782.4000244141</ele>
        <time>2026-08-21T11:40:32.000Z</time>
      </trkpt>
      <trkpt lat="45.28365" lon="6.04169">
        <ele>1782</ele>
        <time>2026-08-21T11:40:33.000Z</time>
      </trkpt>
      <trkpt lat="45.28368" lon="6.04171">
        <ele>1781.8000488281</ele>
        <time>2026-08-21T11:40:34.000Z</time>
      </trkpt>
      <trkpt lat="45.2837" lon="6.04172">
        <ele>1781.5999755859</ele>
        <time>2026-08-21T11:40:35.000Z</time>
      </trkpt>
      <trkpt lat="45.28373" lon="6.04173">
        <ele>1781.1999511719</ele>
        <time>2026-08-21T11:40:36.000Z</time>
      </trkpt>
      <trkpt lat="45.28375" lon="6.04174">
        <ele>1781.1999511719</ele>
        <time>2026-08-21T11:40:37.000Z</time>
      </trkpt>
      <trkpt lat="45.28378" lon="6.04174">
        <ele>1781</ele>
        <time>2026-08-21T11:40:38.000Z</time>
      </trkpt>
      <trkpt lat="45.28381" lon="6.04176">
        <ele>1780.5999755859</ele>
        <time>2026-08-21T11:40:39.000Z</time>
      </trkpt>
      <trkpt lat="45.28384" lon="6.04176">
        <ele>1780.1999511719</ele>
        <time>2026-08-21T11:40:40.000Z</time>
      </trkpt>
      <trkpt lat="45.28387" lon="6.04176">
        <ele>1779.8000488281</ele>
        <time>2026-08-21T11:40:41.000Z</time>
      </trkpt>
      <trkpt lat="45.2839" lon="6.04176">
        <ele>1779.1999511719</ele>
        <time>2026-08-21T11:40:42.000Z</time>
      </trkpt>
      <trkpt lat="45.28393" lon="6.04177">
        <ele>1778.8000488281</ele>
        <time>2026-08-21T11:40:43.000Z</time>
      </trkpt>
      <trkpt lat="45.28396" lon="6.04177">
        <ele>1778.5999755859</ele>
        <time>2026-08-21T11:40:44.000Z</time>
      </trkpt>
      <trkpt lat="45.28398" lon="6.04177">
        <ele>1778</ele>
        <time>2026-08-21T11:40:45.000Z</time>
      </trkpt>
      <trkpt lat="45.28401" lon="6.04178">
        <ele>1778</ele>
        <time>2026-08-21T11:40:46.000Z</time>
      </trkpt>
      <trkpt lat="45.28403" lon="6.04179">
        <ele>1777.8000488281</ele>
        <time>2026-08-21T11:40:47.000Z</time>
      </trkpt>
      <trkpt lat="45.28406" lon="6.0418">
        <ele>1777</ele>
        <time>2026-08-21T11:40:48.000Z</time>
      </trkpt>
      <trkpt lat="45.28409" lon="6.04181">
        <ele>1776.1999511719</ele>
        <time>2026-08-21T11:40:49.000Z</time>
      </trkpt>
      <trkpt lat="45.28411" lon="6.04182">
        <ele>1776</ele>
        <time>2026-08-21T11:40:50.000Z</time>
      </trkpt>
      <trkpt lat="45.28415" lon="6.04182">
        <ele>1775.5999755859</ele>
        <time>2026-08-21T11:40:51.000Z</time>
      </trkpt>
      <trkpt lat="45.28417" lon="6.04182">
        <ele>1775.8000488281</ele>
        <time>2026-08-21T11:40:52.000Z</time>
      </trkpt>
      <trkpt lat="45.2842" lon="6.04182">
        <ele>1775.8000488281</ele>
        <time>2026-08-21T11:40:53.000Z</time>
      </trkpt>
      <trkpt lat="45.28422" lon="6.04182">
        <ele>1776.4000244141</ele>
        <time>2026-08-21T11:40:54.000Z</time>
      </trkpt>
      <trkpt lat="45.28424" lon="6.04183">
        <ele>1777</ele>
        <time>2026-08-21T11:40:55.000Z</time>
      </trkpt>
      <trkpt lat="45.28428" lon="6.04183">
        <ele>1777.4000244141</ele>
        <time>2026-08-21T11:40:56.000Z</time>
      </trkpt>
      <trkpt lat="45.2843" lon="6.04183">
        <ele>1777.5999755859</ele>
        <time>2026-08-21T11:40:57.000Z</time>
      </trkpt>
      <trkpt lat="45.28433" lon="6.04183">
        <ele>1777.8000488281</ele>
        <time>2026-08-21T11:40:58.000Z</time>
      </trkpt>
      <trkpt lat="45.28435" lon="6.04183">
        <ele>1778</ele>
        <time>2026-08-21T11:40:59.000Z</time>
      </trkpt>
      <trkpt lat="45.28438" lon="6.04183">
        <ele>1777.8000488281</ele>
        <time>2026-08-21T11:41:00.000Z</time>
      </trkpt>
      <trkpt lat="45.28441" lon="6.04183">
        <ele>1777.5999755859</ele>
        <time>2026-08-21T11:41:01.000Z</time>
      </trkpt>
      <trkpt lat="45.28443" lon="6.04183">
        <ele>1777.1999511719</ele>
        <time>2026-08-21T11:41:02.000Z</time>
      </trkpt>
      <trkpt lat="45.28446" lon="6.04183">
        <ele>1776.8000488281</ele>
        <time>2026-08-21T11:41:03.000Z</time>
      </trkpt>
      <trkpt lat="45.28449" lon="6.04183">
        <ele>1776.1999511719</ele>
        <time>2026-08-21T11:41:04.000Z</time>
      </trkpt>
      <trkpt lat="45.28452" lon="6.04183">
        <ele>1775.5999755859</ele>
        <time>2026-08-21T11:41:05.000Z</time>
      </trkpt>
      <trkpt lat="45.28455" lon="6.04184">
        <ele>1774.8000488281</ele>
        <time>2026-08-21T11:41:06.000Z</time>
      </trkpt>
      <trkpt lat="45.28458" lon="6.04185">
        <ele>1773.4000244141</ele>
        <time>2026-08-21T11:41:07.000Z</time>
      </trkpt>
      <trkpt lat="45.28461" lon="6.04186">
        <ele>1773</ele>
        <time>2026-08-21T11:41:08.000Z</time>
      </trkpt>
      <trkpt lat="45.28464" lon="6.04188">
        <ele>1772.5999755859</ele>
        <time>2026-08-21T11:41:09.000Z</time>
      </trkpt>
      <trkpt lat="45.28467" lon="6.04189">
        <ele>1772.1999511719</ele>
        <time>2026-08-21T11:41:10.000Z</time>
      </trkpt>
      <trkpt lat="45.2847" lon="6.0419">
        <ele>1772.5999755859</ele>
        <time>2026-08-21T11:41:11.000Z</time>
      </trkpt>
      <trkpt lat="45.28473" lon="6.04191">
        <ele>1773</ele>
        <time>2026-08-21T11:41:12.000Z</time>
      </trkpt>
      <trkpt lat="45.28476" lon="6.04192">
        <ele>1774.1999511719</ele>
        <time>2026-08-21T11:41:13.000Z</time>
      </trkpt>
      <trkpt lat="45.28478" lon="6.04192">
        <ele>1774.5999755859</ele>
        <time>2026-08-21T11:41:14.000Z</time>
      </trkpt>
      <trkpt lat="45.28481" lon="6.04193">
        <ele>1774.8000488281</ele>
        <time>2026-08-21T11:41:15.000Z</time>
      </trkpt>
      <trkpt lat="45.28484" lon="6.04194">
        <ele>1775.1999511719</ele>
        <time>2026-08-21T11:41:16.000Z</time>
      </trkpt>
      <trkpt lat="45.28486" lon="6.04194">
        <ele>1775.4000244141</ele>
        <time>2026-08-21T11:41:17.000Z</time>
      </trkpt>
      <trkpt lat="45.28489" lon="6.04195">
        <ele>1773.8000488281</ele>
        <time>2026-08-21T11:41:18.000Z</time>
      </trkpt>
      <trkpt lat="45.28492" lon="6.04196">
        <ele>1772.1999511719</ele>
        <time>2026-08-21T11:41:19.000Z</time>
      </trkpt>
      <trkpt lat="45.28495" lon="6.04197">
        <ele>1770.8000488281</ele>
        <time>2026-08-21T11:41:20.000Z</time>
      </trkpt>
      <trkpt lat="45.28497" lon="6.04199">
        <ele>1769.1999511719</ele>
        <time>2026-08-21T11:41:21.000Z</time>
      </trkpt>
      <trkpt lat="45.28499" lon="6.04201">
        <ele>1768</ele>
        <time>2026-08-21T11:41:22.000Z</time>
      </trkpt>
      <trkpt lat="45.28501" lon="6.04203">
        <ele>1768.5999755859</ele>
        <time>2026-08-21T11:41:23.000Z</time>
      </trkpt>
      <trkpt lat="45.28501" lon="6.04206">
        <ele>1769.5999755859</ele>
        <time>2026-08-21T11:41:24.000Z</time>
      </trkpt>
      <trkpt lat="45.28502" lon="6.04208">
        <ele>1770</ele>
        <time>2026-08-21T11:41:25.000Z</time>
      </trkpt>
      <trkpt lat="45.28503" lon="6.0421">
        <ele>1770</ele>
        <time>2026-08-21T11:41:26.000Z</time>
      </trkpt>
      <trkpt lat="45.28504" lon="6.04212">
        <ele>1770</ele>
        <time>2026-08-21T11:41:27.000Z</time>
      </trkpt>
      <trkpt lat="45.28505" lon="6.04214">
        <ele>1770</ele>
        <time>2026-08-21T11:41:28.000Z</time>
      </trkpt>
      <trkpt lat="45.28507" lon="6.04216">
        <ele>1770</ele>
        <time>2026-08-21T11:41:29.000Z</time>
      </trkpt>
      <trkpt lat="45.28508" lon="6.04218">
        <ele>1770</ele>
        <time>2026-08-21T11:41:30.000Z</time>
      </trkpt>
      <trkpt lat="45.2851" lon="6.0422">
        <ele>1770</ele>
        <time>2026-08-21T11:41:31.000Z</time>
      </trkpt>
      <trkpt lat="45.28512" lon="6.04222">
        <ele>1768</ele>
        <time>2026-08-21T11:41:32.000Z</time>
      </trkpt>
      <trkpt lat="45.28513" lon="6.04224">
        <ele>1766.4000244141</ele>
        <time>2026-08-21T11:41:33.000Z</time>
      </trkpt>
      <trkpt lat="45.28515" lon="6.04226">
        <ele>1766.1999511719</ele>
        <time>2026-08-21T11:41:34.000Z</time>
      </trkpt>
      <trkpt lat="45.28516" lon="6.04228">
        <ele>1765.5999755859</ele>
        <time>2026-08-21T11:41:35.000Z</time>
      </trkpt>
      <trkpt lat="45.28517" lon="6.0423">
        <ele>1765</ele>
        <time>2026-08-21T11:41:36.000Z</time>
      </trkpt>
      <trkpt lat="45.28518" lon="6.04232">
        <ele>1763.5999755859</ele>
        <time>2026-08-21T11:41:37.000Z</time>
      </trkpt>
      <trkpt lat="45.2852" lon="6.04234">
        <ele>1762.4000244141</ele>
        <time>2026-08-21T11:41:38.000Z</time>
      </trkpt>
      <trkpt lat="45.28521" lon="6.04235">
        <ele>1761</ele>
        <time>2026-08-21T11:41:39.000Z</time>
      </trkpt>
      <trkpt lat="45.28523" lon="6.04236">
        <ele>1759.8000488281</ele>
        <time>2026-08-21T11:41:40.000Z</time>
      </trkpt>
      <trkpt lat="45.28525" lon="6.04237">
        <ele>1759.1999511719</ele>
        <time>2026-08-21T11:41:41.000Z</time>
      </trkpt>
      <trkpt lat="45.28526" lon="6.04238">
        <ele>1759.8000488281</ele>
        <time>2026-08-21T11:41:42.000Z</time>
      </trkpt>
      <trkpt lat="45.28527" lon="6.0424">
        <ele>1760.1999511719</ele>
        <time>2026-08-21T11:41:43.000Z</time>
      </trkpt>
      <trkpt lat="45.28528" lon="6.04242">
        <ele>1760.5999755859</ele>
        <time>2026-08-21T11:41:44.000Z</time>
      </trkpt>
      <trkpt lat="45.28529" lon="6.04244">
        <ele>1761</ele>
        <time>2026-08-21T11:41:45.000Z</time>
      </trkpt>
      <trkpt lat="45.2853" lon="6.04246">
        <ele>1761.4000244141</ele>
        <time>2026-08-21T11:41:46.000Z</time>
      </trkpt>
      <trkpt lat="45.28532" lon="6.04247">
        <ele>1761.8000488281</ele>
        <time>2026-08-21T11:41:47.000Z</time>
      </trkpt>
      <trkpt lat="45.28533" lon="6.04249">
        <ele>1762.1999511719</ele>
        <time>2026-08-21T11:41:48.000Z</time>
      </trkpt>
      <trkpt lat="45.28535" lon="6.0425">
        <ele>1761.1999511719</ele>
        <time>2026-08-21T11:41:49.000Z</time>
      </trkpt>
      <trkpt lat="45.28537" lon="6.04252">
        <ele>1760.8000488281</ele>
        <time>2026-08-21T11:41:50.000Z</time>
      </trkpt>
      <trkpt lat="45.28538" lon="6.04252">
        <ele>1760.5999755859</ele>
        <time>2026-08-21T11:41:51.000Z</time>
      </trkpt>
      <trkpt lat="45.28539" lon="6.04255">
        <ele>1760.1999511719</ele>
        <time>2026-08-21T11:41:52.000Z</time>
      </trkpt>
      <trkpt lat="45.2854" lon="6.04257">
        <ele>1760</ele>
        <time>2026-08-21T11:41:53.000Z</time>
      </trkpt>
      <trkpt lat="45.28541" lon="6.04259">
        <ele>1759.5999755859</ele>
        <time>2026-08-21T11:41:54.000Z</time>
      </trkpt>
      <trkpt lat="45.28542" lon="6.04262">
        <ele>1759.1999511719</ele>
        <time>2026-08-21T11:41:55.000Z</time>
      </trkpt>
      <trkpt lat="45.28543" lon="6.04264">
        <ele>1759</ele>
        <time>2026-08-21T11:41:56.000Z</time>
      </trkpt>
      <trkpt lat="45.28545" lon="6.04266">
        <ele>1758.5999755859</ele>
        <time>2026-08-21T11:41:57.000Z</time>
      </trkpt>
      <trkpt lat="45.28546" lon="6.04269">
        <ele>1758.4000244141</ele>
        <time>2026-08-21T11:41:58.000Z</time>
      </trkpt>
      <trkpt lat="45.28548" lon="6.04271">
        <ele>1758</ele>
        <time>2026-08-21T11:41:59.000Z</time>
      </trkpt>
      <trkpt lat="45.28549" lon="6.04273">
        <ele>1757.8000488281</ele>
        <time>2026-08-21T11:42:00.000Z</time>
      </trkpt>
      <trkpt lat="45.28551" lon="6.04275">
        <ele>1757.4000244141</ele>
        <time>2026-08-21T11:42:01.000Z</time>
      </trkpt>
      <trkpt lat="45.28553" lon="6.04276">
        <ele>1757.1999511719</ele>
        <time>2026-08-21T11:42:02.000Z</time>
      </trkpt>
      <trkpt lat="45.28555" lon="6.04278">
        <ele>1757.1999511719</ele>
        <time>2026-08-21T11:42:03.000Z</time>
      </trkpt>
      <trkpt lat="45.28557" lon="6.0428">
        <ele>1757.1999511719</ele>
        <time>2026-08-21T11:42:04.000Z</time>
      </trkpt>
      <trkpt lat="45.28558" lon="6.04283">
        <ele>1757</ele>
        <time>2026-08-21T11:42:05.000Z</time>
      </trkpt>
      <trkpt lat="45.2856" lon="6.04286">
        <ele>1757</ele>
        <time>2026-08-21T11:42:06.000Z</time>
      </trkpt>
      <trkpt lat="45.28561" lon="6.04288">
        <ele>1757</ele>
        <time>2026-08-21T11:42:07.000Z</time>
      </trkpt>
      <trkpt lat="45.28564" lon="6.04289">
        <ele>1757</ele>
        <time>2026-08-21T11:42:08.000Z</time>
      </trkpt>
      <trkpt lat="45.28566" lon="6.04291">
        <ele>1757.1999511719</ele>
        <time>2026-08-21T11:42:09.000Z</time>
      </trkpt>
      <trkpt lat="45.28567" lon="6.04293">
        <ele>1757.1999511719</ele>
        <time>2026-08-21T11:42:10.000Z</time>
      </trkpt>
      <trkpt lat="45.28569" lon="6.04295">
        <ele>1757.4000244141</ele>
        <time>2026-08-21T11:42:11.000Z</time>
      </trkpt>
      <trkpt lat="45.28571" lon="6.04298">
        <ele>1757.4000244141</ele>
        <time>2026-08-21T11:42:12.000Z</time>
      </trkpt>
      <trkpt lat="45.28572" lon="6.043">
        <ele>1757.4000244141</ele>
        <time>2026-08-21T11:42:13.000Z</time>
      </trkpt>
      <trkpt lat="45.28573" lon="6.04303">
        <ele>1757.4000244141</ele>
        <time>2026-08-21T11:42:14.000Z</time>
      </trkpt>
      <trkpt lat="45.28574" lon="6.04304">
        <ele>1757.4000244141</ele>
        <time>2026-08-21T11:42:15.000Z</time>
      </trkpt>
      <trkpt lat="45.28576" lon="6.04307">
        <ele>1756.8000488281</ele>
        <time>2026-08-21T11:42:16.000Z</time>
      </trkpt>
      <trkpt lat="45.28577" lon="6.04309">
        <ele>1756.1999511719</ele>
        <time>2026-08-21T11:42:17.000Z</time>
      </trkpt>
      <trkpt lat="45.28578" lon="6.04311">
        <ele>1755.5999755859</ele>
        <time>2026-08-21T11:42:18.000Z</time>
      </trkpt>
      <trkpt lat="45.2858" lon="6.04312">
        <ele>1755</ele>
        <time>2026-08-21T11:42:19.000Z</time>
      </trkpt>
      <trkpt lat="45.28581" lon="6.04314">
        <ele>1754.5999755859</ele>
        <time>2026-08-21T11:42:20.000Z</time>
      </trkpt>
      <trkpt lat="45.28582" lon="6.04317">
        <ele>1754</ele>
        <time>2026-08-21T11:42:21.000Z</time>
      </trkpt>
      <trkpt lat="45.28584" lon="6.0432">
        <ele>1753.4000244141</ele>
        <time>2026-08-21T11:42:22.000Z</time>
      </trkpt>
      <trkpt lat="45.28586" lon="6.04323">
        <ele>1752.8000488281</ele>
        <time>2026-08-21T11:42:23.000Z</time>
      </trkpt>
      <trkpt lat="45.28587" lon="6.04325">
        <ele>1752.1999511719</ele>
        <time>2026-08-21T11:42:24.000Z</time>
      </trkpt>
      <trkpt lat="45.28589" lon="6.04326">
        <ele>1751.5999755859</ele>
        <time>2026-08-21T11:42:25.000Z</time>
      </trkpt>
      <trkpt lat="45.28591" lon="6.04329">
        <ele>1750.5999755859</ele>
        <time>2026-08-21T11:42:26.000Z</time>
      </trkpt>
      <trkpt lat="45.28593" lon="6.04331">
        <ele>1749.5999755859</ele>
        <time>2026-08-21T11:42:27.000Z</time>
      </trkpt>
      <trkpt lat="45.28594" lon="6.04334">
        <ele>1748.8000488281</ele>
        <time>2026-08-21T11:42:28.000Z</time>
      </trkpt>
      <trkpt lat="45.28596" lon="6.04337">
        <ele>1747.8000488281</ele>
        <time>2026-08-21T11:42:29.000Z</time>
      </trkpt>
      <trkpt lat="45.28598" lon="6.04339">
        <ele>1746.8000488281</ele>
        <time>2026-08-21T11:42:30.000Z</time>
      </trkpt>
      <trkpt lat="45.28599" lon="6.04342">
        <ele>1747.4000244141</ele>
        <time>2026-08-21T11:42:31.000Z</time>
      </trkpt>
      <trkpt lat="45.28601" lon="6.04344">
        <ele>1747.1999511719</ele>
        <time>2026-08-21T11:42:32.000Z</time>
      </trkpt>
      <trkpt lat="45.28603" lon="6.04347">
        <ele>1747</ele>
        <time>2026-08-21T11:42:33.000Z</time>
      </trkpt>
      <trkpt lat="45.28605" lon="6.0435">
        <ele>1746.4000244141</ele>
        <time>2026-08-21T11:42:34.000Z</time>
      </trkpt>
      <trkpt lat="45.28606" lon="6.04353">
        <ele>1746.1999511719</ele>
        <time>2026-08-21T11:42:35.000Z</time>
      </trkpt>
      <trkpt lat="45.28609" lon="6.04356">
        <ele>1745.8000488281</ele>
        <time>2026-08-21T11:42:36.000Z</time>
      </trkpt>
      <trkpt lat="45.28611" lon="6.04358">
        <ele>1745.5999755859</ele>
        <time>2026-08-21T11:42:37.000Z</time>
      </trkpt>
      <trkpt lat="45.28613" lon="6.0436">
        <ele>1745.1999511719</ele>
        <time>2026-08-21T11:42:38.000Z</time>
      </trkpt>
      <trkpt lat="45.28615" lon="6.04363">
        <ele>1744.8000488281</ele>
        <time>2026-08-21T11:42:39.000Z</time>
      </trkpt>
      <trkpt lat="45.28617" lon="6.04367">
        <ele>1743.1999511719</ele>
        <time>2026-08-21T11:42:40.000Z</time>
      </trkpt>
      <trkpt lat="45.28619" lon="6.0437">
        <ele>1742.4000244141</ele>
        <time>2026-08-21T11:42:41.000Z</time>
      </trkpt>
      <trkpt lat="45.2862" lon="6.04373">
        <ele>1742</ele>
        <time>2026-08-21T11:42:42.000Z</time>
      </trkpt>
      <trkpt lat="45.28622" lon="6.04375">
        <ele>1741.4000244141</ele>
        <time>2026-08-21T11:42:43.000Z</time>
      </trkpt>
      <trkpt lat="45.28624" lon="6.04377">
        <ele>1741</ele>
        <time>2026-08-21T11:42:44.000Z</time>
      </trkpt>
      <trkpt lat="45.28626" lon="6.0438">
        <ele>1740.8000488281</ele>
        <time>2026-08-21T11:42:45.000Z</time>
      </trkpt>
      <trkpt lat="45.28628" lon="6.04382">
        <ele>1741</ele>
        <time>2026-08-21T11:42:46.000Z</time>
      </trkpt>
      <trkpt lat="45.2863" lon="6.04384">
        <ele>1741.1999511719</ele>
        <time>2026-08-21T11:42:47.000Z</time>
      </trkpt>
      <trkpt lat="45.28631" lon="6.04385">
        <ele>1741.5999755859</ele>
        <time>2026-08-21T11:42:48.000Z</time>
      </trkpt>
      <trkpt lat="45.28633" lon="6.04387">
        <ele>1742</ele>
        <time>2026-08-21T11:42:49.000Z</time>
      </trkpt>
      <trkpt lat="45.28635" lon="6.04389">
        <ele>1742.5999755859</ele>
        <time>2026-08-21T11:42:50.000Z</time>
      </trkpt>
      <trkpt lat="45.28637" lon="6.0439">
        <ele>1742.8000488281</ele>
        <time>2026-08-21T11:42:51.000Z</time>
      </trkpt>
      <trkpt lat="45.28639" lon="6.04392">
        <ele>1742.8000488281</ele>
        <time>2026-08-21T11:42:52.000Z</time>
      </trkpt>
      <trkpt lat="45.28641" lon="6.04393">
        <ele>1743.5999755859</ele>
        <time>2026-08-21T11:42:53.000Z</time>
      </trkpt>
      <trkpt lat="45.28643" lon="6.04396">
        <ele>1743.5999755859</ele>
        <time>2026-08-21T11:42:54.000Z</time>
      </trkpt>
      <trkpt lat="45.28644" lon="6.04397">
        <ele>1743.5999755859</ele>
        <time>2026-08-21T11:42:55.000Z</time>
      </trkpt>
      <trkpt lat="45.28646" lon="6.044">
        <ele>1743.4000244141</ele>
        <time>2026-08-21T11:42:56.000Z</time>
      </trkpt>
      <trkpt lat="45.28647" lon="6.04402">
        <ele>1743.1999511719</ele>
        <time>2026-08-21T11:42:57.000Z</time>
      </trkpt>
      <trkpt lat="45.28649" lon="6.04403">
        <ele>1741.8000488281</ele>
        <time>2026-08-21T11:42:58.000Z</time>
      </trkpt>
      <trkpt lat="45.28651" lon="6.04404">
        <ele>1740.4000244141</ele>
        <time>2026-08-21T11:42:59.000Z</time>
      </trkpt>
      <trkpt lat="45.28652" lon="6.04406">
        <ele>1739.1999511719</ele>
        <time>2026-08-21T11:43:00.000Z</time>
      </trkpt>
      <trkpt lat="45.28654" lon="6.04407">
        <ele>1737.8000488281</ele>
        <time>2026-08-21T11:43:01.000Z</time>
      </trkpt>
      <trkpt lat="45.28655" lon="6.04408">
        <ele>1736.4000244141</ele>
        <time>2026-08-21T11:43:02.000Z</time>
      </trkpt>
      <trkpt lat="45.28657" lon="6.0441">
        <ele>1735</ele>
        <time>2026-08-21T11:43:03.000Z</time>
      </trkpt>
      <trkpt lat="45.28659" lon="6.04412">
        <ele>1735.5999755859</ele>
        <time>2026-08-21T11:43:04.000Z</time>
      </trkpt>
      <trkpt lat="45.28661" lon="6.04413">
        <ele>1735.5999755859</ele>
        <time>2026-08-21T11:43:05.000Z</time>
      </trkpt>
      <trkpt lat="45.28663" lon="6.04413">
        <ele>1735.4000244141</ele>
        <time>2026-08-21T11:43:06.000Z</time>
      </trkpt>
      <trkpt lat="45.28665" lon="6.04413">
        <ele>1735.4000244141</ele>
        <time>2026-08-21T11:43:07.000Z</time>
      </trkpt>
      <trkpt lat="45.28667" lon="6.04413">
        <ele>1735.1999511719</ele>
        <time>2026-08-21T11:43:08.000Z</time>
      </trkpt>
      <trkpt lat="45.28669" lon="6.04414">
        <ele>1735.1999511719</ele>
        <time>2026-08-21T11:43:09.000Z</time>
      </trkpt>
      <trkpt lat="45.28672" lon="6.04415">
        <ele>1735</ele>
        <time>2026-08-21T11:43:10.000Z</time>
      </trkpt>
      <trkpt lat="45.28674" lon="6.04416">
        <ele>1735</ele>
        <time>2026-08-21T11:43:11.000Z</time>
      </trkpt>
      <trkpt lat="45.28675" lon="6.04417">
        <ele>1734.4000244141</ele>
        <time>2026-08-21T11:43:12.000Z</time>
      </trkpt>
      <trkpt lat="45.28678" lon="6.04419">
        <ele>1734.1999511719</ele>
        <time>2026-08-21T11:43:13.000Z</time>
      </trkpt>
      <trkpt lat="45.28681" lon="6.0442">
        <ele>1733.8000488281</ele>
        <time>2026-08-21T11:43:14.000Z</time>
      </trkpt>
      <trkpt lat="45.28684" lon="6.04422">
        <ele>1733.5999755859</ele>
        <time>2026-08-21T11:43:15.000Z</time>
      </trkpt>
      <trkpt lat="45.28687" lon="6.04424">
        <ele>1733.4000244141</ele>
        <time>2026-08-21T11:43:16.000Z</time>
      </trkpt>
      <trkpt lat="45.2869" lon="6.04427">
        <ele>1734</ele>
        <time>2026-08-21T11:43:17.000Z</time>
      </trkpt>
      <trkpt lat="45.28692" lon="6.0443">
        <ele>1734.5999755859</ele>
        <time>2026-08-21T11:43:18.000Z</time>
      </trkpt>
      <trkpt lat="45.28694" lon="6.04433">
        <ele>1735.4000244141</ele>
        <time>2026-08-21T11:43:19.000Z</time>
      </trkpt>
      <trkpt lat="45.28696" lon="6.04435">
        <ele>1736</ele>
        <time>2026-08-21T11:43:20.000Z</time>
      </trkpt>
      <trkpt lat="45.28698" lon="6.04437">
        <ele>1736.5999755859</ele>
        <time>2026-08-21T11:43:21.000Z</time>
      </trkpt>
      <trkpt lat="45.287" lon="6.04439">
        <ele>1736.8000488281</ele>
        <time>2026-08-21T11:43:22.000Z</time>
      </trkpt>
      <trkpt lat="45.28703" lon="6.04441">
        <ele>1736.8000488281</ele>
        <time>2026-08-21T11:43:23.000Z</time>
      </trkpt>
      <trkpt lat="45.28706" lon="6.04443">
        <ele>1737</ele>
        <time>2026-08-21T11:43:24.000Z</time>
      </trkpt>
      <trkpt lat="45.28708" lon="6.04445">
        <ele>1737</ele>
        <time>2026-08-21T11:43:25.000Z</time>
      </trkpt>
      <trkpt lat="45.28711" lon="6.04447">
        <ele>1736.5999755859</ele>
        <time>2026-08-21T11:43:26.000Z</time>
      </trkpt>
      <trkpt lat="45.28714" lon="6.04449">
        <ele>1736.1999511719</ele>
        <time>2026-08-21T11:43:27.000Z</time>
      </trkpt>
      <trkpt lat="45.28717" lon="6.04451">
        <ele>1735.8000488281</ele>
        <time>2026-08-21T11:43:28.000Z</time>
      </trkpt>
      <trkpt lat="45.28719" lon="6.04453">
        <ele>1735.5999755859</ele>
        <time>2026-08-21T11:43:29.000Z</time>
      </trkpt>
      <trkpt lat="45.28722" lon="6.04455">
        <ele>1734.8000488281</ele>
        <time>2026-08-21T11:43:30.000Z</time>
      </trkpt>
      <trkpt lat="45.28725" lon="6.04456">
        <ele>1734.8000488281</ele>
        <time>2026-08-21T11:43:31.000Z</time>
      </trkpt>
      <trkpt lat="45.28727" lon="6.04457">
        <ele>1734.5999755859</ele>
        <time>2026-08-21T11:43:32.000Z</time>
      </trkpt>
      <trkpt lat="45.2873" lon="6.04459">
        <ele>1734.4000244141</ele>
        <time>2026-08-21T11:43:33.000Z</time>
      </trkpt>
      <trkpt lat="45.28732" lon="6.0446">
        <ele>1733.8000488281</ele>
        <time>2026-08-21T11:43:34.000Z</time>
      </trkpt>
      <trkpt lat="45.28735" lon="6.04461">
        <ele>1734</ele>
        <time>2026-08-21T11:43:35.000Z</time>
      </trkpt>
      <trkpt lat="45.28737" lon="6.04462">
        <ele>1734</ele>
        <time>2026-08-21T11:43:36.000Z</time>
      </trkpt>
      <trkpt lat="45.2874" lon="6.04464">
        <ele>1734.1999511719</ele>
        <time>2026-08-21T11:43:37.000Z</time>
      </trkpt>
      <trkpt lat="45.28743" lon="6.04465">
        <ele>1734.1999511719</ele>
        <time>2026-08-21T11:43:38.000Z</time>
      </trkpt>
      <trkpt lat="45.28745" lon="6.04467">
        <ele>1734.5999755859</ele>
        <time>2026-08-21T11:43:39.000Z</time>
      </trkpt>
      <trkpt lat="45.28748" lon="6.04468">
        <ele>1734.5999755859</ele>
        <time>2026-08-21T11:43:40.000Z</time>
      </trkpt>
      <trkpt lat="45.2875" lon="6.0447">
        <ele>1734.4000244141</ele>
        <time>2026-08-21T11:43:41.000Z</time>
      </trkpt>
      <trkpt lat="45.28752" lon="6.04472">
        <ele>1734.1999511719</ele>
        <time>2026-08-21T11:43:42.000Z</time>
      </trkpt>
      <trkpt lat="45.28754" lon="6.04474">
        <ele>1734.1999511719</ele>
        <time>2026-08-21T11:43:43.000Z</time>
      </trkpt>
      <trkpt lat="45.28755" lon="6.04475">
        <ele>1734</ele>
        <time>2026-08-21T11:43:44.000Z</time>
      </trkpt>
      <trkpt lat="45.28757" lon="6.04477">
        <ele>1733.5999755859</ele>
        <time>2026-08-21T11:43:45.000Z</time>
      </trkpt>
      <trkpt lat="45.28758" lon="6.04478">
        <ele>1733.4000244141</ele>
        <time>2026-08-21T11:43:46.000Z</time>
      </trkpt>
      <trkpt lat="45.2876" lon="6.04479">
        <ele>1733</ele>
        <time>2026-08-21T11:43:47.000Z</time>
      </trkpt>
      <trkpt lat="45.28762" lon="6.04481">
        <ele>1732.8000488281</ele>
        <time>2026-08-21T11:43:48.000Z</time>
      </trkpt>
      <trkpt lat="45.28764" lon="6.04482">
        <ele>1732.8000488281</ele>
        <time>2026-08-21T11:43:49.000Z</time>
      </trkpt>
      <trkpt lat="45.28766" lon="6.04484">
        <ele>1732.5999755859</ele>
        <time>2026-08-21T11:43:50.000Z</time>
      </trkpt>
      <trkpt lat="45.28767" lon="6.04486">
        <ele>1732.5999755859</ele>
        <time>2026-08-21T11:43:51.000Z</time>
      </trkpt>
      <trkpt lat="45.2877" lon="6.04488">
        <ele>1732.4000244141</ele>
        <time>2026-08-21T11:43:52.000Z</time>
      </trkpt>
      <trkpt lat="45.28772" lon="6.0449">
        <ele>1732</ele>
        <time>2026-08-21T11:43:53.000Z</time>
      </trkpt>
      <trkpt lat="45.28773" lon="6.04492">
        <ele>1731.1999511719</ele>
        <time>2026-08-21T11:43:54.000Z</time>
      </trkpt>
      <trkpt lat="45.28775" lon="6.04494">
        <ele>1731</ele>
        <time>2026-08-21T11:43:55.000Z</time>
      </trkpt>
      <trkpt lat="45.28777" lon="6.04495">
        <ele>1730.4000244141</ele>
        <time>2026-08-21T11:43:56.000Z</time>
      </trkpt>
      <trkpt lat="45.28778" lon="6.04497">
        <ele>1729.5999755859</ele>
        <time>2026-08-21T11:43:57.000Z</time>
      </trkpt>
      <trkpt lat="45.28779" lon="6.04499">
        <ele>1727.8000488281</ele>
        <time>2026-08-21T11:43:58.000Z</time>
      </trkpt>
      <trkpt lat="45.2878" lon="6.04501">
        <ele>1726.5999755859</ele>
        <time>2026-08-21T11:43:59.000Z</time>
      </trkpt>
      <trkpt lat="45.2878" lon="6.04503">
        <ele>1725.1999511719</ele>
        <time>2026-08-21T11:44:00.000Z</time>
      </trkpt>
      <trkpt lat="45.28781" lon="6.04505">
        <ele>1724.5999755859</ele>
        <time>2026-08-21T11:44:01.000Z</time>
      </trkpt>
      <trkpt lat="45.28782" lon="6.04507">
        <ele>1724</ele>
        <time>2026-08-21T11:44:02.000Z</time>
      </trkpt>
      <trkpt lat="45.28782" lon="6.04508">
        <ele>1723.4000244141</ele>
        <time>2026-08-21T11:44:03.000Z</time>
      </trkpt>
      <trkpt lat="45.28782" lon="6.04509">
        <ele>1723</ele>
        <time>2026-08-21T11:44:04.000Z</time>
      </trkpt>
      <trkpt lat="45.28782" lon="6.0451">
        <ele>1722.8000488281</ele>
        <time>2026-08-21T11:44:05.000Z</time>
      </trkpt>
      <trkpt lat="45.28783" lon="6.04511">
        <ele>1722.5999755859</ele>
        <time>2026-08-21T11:44:06.000Z</time>
      </trkpt>
      <trkpt lat="45.28783" lon="6.04512">
        <ele>1722.4000244141</ele>
        <time>2026-08-21T11:44:07.000Z</time>
      </trkpt>
      <trkpt lat="45.28784" lon="6.04513">
        <ele>1722.1999511719</ele>
        <time>2026-08-21T11:44:08.000Z</time>
      </trkpt>
      <trkpt lat="45.28785" lon="6.04515">
        <ele>1722</ele>
        <time>2026-08-21T11:44:09.000Z</time>
      </trkpt>
      <trkpt lat="45.28786" lon="6.04517">
        <ele>1721.8000488281</ele>
        <time>2026-08-21T11:44:10.000Z</time>
      </trkpt>
      <trkpt lat="45.28787" lon="6.04518">
        <ele>1721.8000488281</ele>
        <time>2026-08-21T11:44:11.000Z</time>
      </trkpt>
      <trkpt lat="45.28787" lon="6.0452">
        <ele>1721.8000488281</ele>
        <time>2026-08-21T11:44:12.000Z</time>
      </trkpt>
      <trkpt lat="45.28788" lon="6.04521">
        <ele>1721.8000488281</ele>
        <time>2026-08-21T11:44:13.000Z</time>
      </trkpt>
      <trkpt lat="45.28789" lon="6.04522">
        <ele>1721.5999755859</ele>
        <time>2026-08-21T11:44:14.000Z</time>
      </trkpt>
      <trkpt lat="45.28789" lon="6.04524">
        <ele>1721.4000244141</ele>
        <time>2026-08-21T11:44:15.000Z</time>
      </trkpt>
      <trkpt lat="45.28788" lon="6.04526">
        <ele>1720.8000488281</ele>
        <time>2026-08-21T11:44:16.000Z</time>
      </trkpt>
      <trkpt lat="45.28788" lon="6.04529">
        <ele>1720</ele>
        <time>2026-08-21T11:44:17.000Z</time>
      </trkpt>
      <trkpt lat="45.28788" lon="6.0453">
        <ele>1719.4000244141</ele>
        <time>2026-08-21T11:44:18.000Z</time>
      </trkpt>
      <trkpt lat="45.28789" lon="6.04532">
        <ele>1718</ele>
        <time>2026-08-21T11:44:19.000Z</time>
      </trkpt>
      <trkpt lat="45.28789" lon="6.04534">
        <ele>1717.5999755859</ele>
        <time>2026-08-21T11:44:20.000Z</time>
      </trkpt>
      <trkpt lat="45.28789" lon="6.04536">
        <ele>1717.1999511719</ele>
        <time>2026-08-21T11:44:21.000Z</time>
      </trkpt>
      <trkpt lat="45.28789" lon="6.04539">
        <ele>1716.8000488281</ele>
        <time>2026-08-21T11:44:22.000Z</time>
      </trkpt>
      <trkpt lat="45.2879" lon="6.04541">
        <ele>1716.1999511719</ele>
        <time>2026-08-21T11:44:23.000Z</time>
      </trkpt>
      <trkpt lat="45.28791" lon="6.04544">
        <ele>1715.4000244141</ele>
        <time>2026-08-21T11:44:24.000Z</time>
      </trkpt>
      <trkpt lat="45.28792" lon="6.04547">
        <ele>1714.8000488281</ele>
        <time>2026-08-21T11:44:25.000Z</time>
      </trkpt>
      <trkpt lat="45.28793" lon="6.04549">
        <ele>1714</ele>
        <time>2026-08-21T11:44:26.000Z</time>
      </trkpt>
      <trkpt lat="45.28794" lon="6.0455">
        <ele>1712.5999755859</ele>
        <time>2026-08-21T11:44:27.000Z</time>
      </trkpt>
      <trkpt lat="45.28795" lon="6.04552">
        <ele>1712.4000244141</ele>
        <time>2026-08-21T11:44:28.000Z</time>
      </trkpt>
      <trkpt lat="45.28796" lon="6.04554">
        <ele>1712</ele>
        <time>2026-08-21T11:44:29.000Z</time>
      </trkpt>
      <trkpt lat="45.28798" lon="6.04556">
        <ele>1711.5999755859</ele>
        <time>2026-08-21T11:44:30.000Z</time>
      </trkpt>
      <trkpt lat="45.28799" lon="6.04557">
        <ele>1711.4000244141</ele>
        <time>2026-08-21T11:44:31.000Z</time>
      </trkpt>
      <trkpt lat="45.288" lon="6.04559">
        <ele>1711</ele>
        <time>2026-08-21T11:44:32.000Z</time>
      </trkpt>
      <trkpt lat="45.28801" lon="6.04561">
        <ele>1710.5999755859</ele>
        <time>2026-08-21T11:44:33.000Z</time>
      </trkpt>
      <trkpt lat="45.28802" lon="6.04563">
        <ele>1710.4000244141</ele>
        <time>2026-08-21T11:44:34.000Z</time>
      </trkpt>
      <trkpt lat="45.28803" lon="6.04565">
        <ele>1710</ele>
        <time>2026-08-21T11:44:35.000Z</time>
      </trkpt>
      <trkpt lat="45.28804" lon="6.04567">
        <ele>1709.8000488281</ele>
        <time>2026-08-21T11:44:36.000Z</time>
      </trkpt>
      <trkpt lat="45.28804" lon="6.04569">
        <ele>1709.4000244141</ele>
        <time>2026-08-21T11:44:37.000Z</time>
      </trkpt>
      <trkpt lat="45.28805" lon="6.04571">
        <ele>1708.4000244141</ele>
        <time>2026-08-21T11:44:38.000Z</time>
      </trkpt>
      <trkpt lat="45.28806" lon="6.04572">
        <ele>1707.1999511719</ele>
        <time>2026-08-21T11:44:39.000Z</time>
      </trkpt>
      <trkpt lat="45.28807" lon="6.04574">
        <ele>1706.1999511719</ele>
        <time>2026-08-21T11:44:40.000Z</time>
      </trkpt>
      <trkpt lat="45.28809" lon="6.04574">
        <ele>1705</ele>
        <time>2026-08-21T11:44:41.000Z</time>
      </trkpt>
      <trkpt lat="45.28812" lon="6.04575">
        <ele>1704</ele>
        <time>2026-08-21T11:44:42.000Z</time>
      </trkpt>
      <trkpt lat="45.28813" lon="6.04577">
        <ele>1703.1999511719</ele>
        <time>2026-08-21T11:44:43.000Z</time>
      </trkpt>
      <trkpt lat="45.28815" lon="6.0458">
        <ele>1702.8000488281</ele>
        <time>2026-08-21T11:44:44.000Z</time>
      </trkpt>
      <trkpt lat="45.28815" lon="6.04584">
        <ele>1702.8000488281</ele>
        <time>2026-08-21T11:44:45.000Z</time>
      </trkpt>
      <trkpt lat="45.28815" lon="6.04588">
        <ele>1702.8000488281</ele>
        <time>2026-08-21T11:44:46.000Z</time>
      </trkpt>
      <trkpt lat="45.28815" lon="6.04592">
        <ele>1703.1999511719</ele>
        <time>2026-08-21T11:44:47.000Z</time>
      </trkpt>
      <trkpt lat="45.28814" lon="6.04596">
        <ele>1703.1999511719</ele>
        <time>2026-08-21T11:44:48.000Z</time>
      </trkpt>
      <trkpt lat="45.28814" lon="6.046">
        <ele>1703.1999511719</ele>
        <time>2026-08-21T11:44:49.000Z</time>
      </trkpt>
      <trkpt lat="45.28815" lon="6.04603">
        <ele>1703.1999511719</ele>
        <time>2026-08-21T11:44:50.000Z</time>
      </trkpt>
      <trkpt lat="45.28816" lon="6.04606">
        <ele>1702.8000488281</ele>
        <time>2026-08-21T11:44:51.000Z</time>
      </trkpt>
      <trkpt lat="45.28817" lon="6.04608">
        <ele>1702</ele>
        <time>2026-08-21T11:44:52.000Z</time>
      </trkpt>
      <trkpt lat="45.28818" lon="6.04611">
        <ele>1702</ele>
        <time>2026-08-21T11:44:53.000Z</time>
      </trkpt>
      <trkpt lat="45.28819" lon="6.04612">
        <ele>1701.8000488281</ele>
        <time>2026-08-21T11:44:54.000Z</time>
      </trkpt>
      <trkpt lat="45.2882" lon="6.04615">
        <ele>1702.1999511719</ele>
        <time>2026-08-21T11:44:55.000Z</time>
      </trkpt>
      <trkpt lat="45.28821" lon="6.04616">
        <ele>1702.5999755859</ele>
        <time>2026-08-21T11:44:56.000Z</time>
      </trkpt>
      <trkpt lat="45.28823" lon="6.04618">
        <ele>1702</ele>
        <time>2026-08-21T11:44:57.000Z</time>
      </trkpt>
      <trkpt lat="45.28825" lon="6.04619">
        <ele>1701.8000488281</ele>
        <time>2026-08-21T11:44:58.000Z</time>
      </trkpt>
      <trkpt lat="45.28826" lon="6.0462">
        <ele>1701.1999511719</ele>
        <time>2026-08-21T11:44:59.000Z</time>
      </trkpt>
      <trkpt lat="45.28828" lon="6.04621">
        <ele>1701.1999511719</ele>
        <time>2026-08-21T11:45:00.000Z</time>
      </trkpt>
      <trkpt lat="45.2883" lon="6.04623">
        <ele>1701</ele>
        <time>2026-08-21T11:45:01.000Z</time>
      </trkpt>
      <trkpt lat="45.28832" lon="6.04625">
        <ele>1699</ele>
        <time>2026-08-21T11:45:02.000Z</time>
      </trkpt>
      <trkpt lat="45.28833" lon="6.04627">
        <ele>1698.1999511719</ele>
        <time>2026-08-21T11:45:03.000Z</time>
      </trkpt>
      <trkpt lat="45.28835" lon="6.04629">
        <ele>1698</ele>
        <time>2026-08-21T11:45:04.000Z</time>
      </trkpt>
      <trkpt lat="45.28836" lon="6.0463">
        <ele>1697.4000244141</ele>
        <time>2026-08-21T11:45:05.000Z</time>
      </trkpt>
      <trkpt lat="45.28838" lon="6.04631">
        <ele>1696.5999755859</ele>
        <time>2026-08-21T11:45:06.000Z</time>
      </trkpt>
      <trkpt lat="45.28839" lon="6.04633">
        <ele>1696</ele>
        <time>2026-08-21T11:45:07.000Z</time>
      </trkpt>
      <trkpt lat="45.2884" lon="6.04635">
        <ele>1695.8000488281</ele>
        <time>2026-08-21T11:45:08.000Z</time>
      </trkpt>
      <trkpt lat="45.28841" lon="6.04637">
        <ele>1695.5999755859</ele>
        <time>2026-08-21T11:45:09.000Z</time>
      </trkpt>
      <trkpt lat="45.28842" lon="6.04639">
        <ele>1695.4000244141</ele>
        <time>2026-08-21T11:45:10.000Z</time>
      </trkpt>
      <trkpt lat="45.28843" lon="6.04642">
        <ele>1695</ele>
        <time>2026-08-21T11:45:11.000Z</time>
      </trkpt>
      <trkpt lat="45.28843" lon="6.04645">
        <ele>1694.8000488281</ele>
        <time>2026-08-21T11:45:12.000Z</time>
      </trkpt>
      <trkpt lat="45.28842" lon="6.04648">
        <ele>1694.5999755859</ele>
        <time>2026-08-21T11:45:13.000Z</time>
      </trkpt>
      <trkpt lat="45.28843" lon="6.0465">
        <ele>1694.4000244141</ele>
        <time>2026-08-21T11:45:14.000Z</time>
      </trkpt>
      <trkpt lat="45.28844" lon="6.04652">
        <ele>1694</ele>
        <time>2026-08-21T11:45:15.000Z</time>
      </trkpt>
      <trkpt lat="45.28846" lon="6.04654">
        <ele>1693.1999511719</ele>
        <time>2026-08-21T11:45:16.000Z</time>
      </trkpt>
      <trkpt lat="45.28847" lon="6.04656">
        <ele>1693</ele>
        <time>2026-08-21T11:45:17.000Z</time>
      </trkpt>
      <trkpt lat="45.28848" lon="6.04658">
        <ele>1693</ele>
        <time>2026-08-21T11:45:18.000Z</time>
      </trkpt>
      <trkpt lat="45.28849" lon="6.0466">
        <ele>1692.8000488281</ele>
        <time>2026-08-21T11:45:19.000Z</time>
      </trkpt>
      <trkpt lat="45.28851" lon="6.04662">
        <ele>1692</ele>
        <time>2026-08-21T11:45:20.000Z</time>
      </trkpt>
      <trkpt lat="45.28852" lon="6.04664">
        <ele>1691</ele>
        <time>2026-08-21T11:45:21.000Z</time>
      </trkpt>
      <trkpt lat="45.28853" lon="6.04665">
        <ele>1690.1999511719</ele>
        <time>2026-08-21T11:45:22.000Z</time>
      </trkpt>
      <trkpt lat="45.28855" lon="6.04667">
        <ele>1689.4000244141</ele>
        <time>2026-08-21T11:45:23.000Z</time>
      </trkpt>
      <trkpt lat="45.28856" lon="6.04668">
        <ele>1688.5999755859</ele>
        <time>2026-08-21T11:45:24.000Z</time>
      </trkpt>
      <trkpt lat="45.28858" lon="6.04669">
        <ele>1687.8000488281</ele>
        <time>2026-08-21T11:45:25.000Z</time>
      </trkpt>
      <trkpt lat="45.28859" lon="6.0467">
        <ele>1687</ele>
        <time>2026-08-21T11:45:26.000Z</time>
      </trkpt>
      <trkpt lat="45.28861" lon="6.04671">
        <ele>1686.4000244141</ele>
        <time>2026-08-21T11:45:27.000Z</time>
      </trkpt>
      <trkpt lat="45.28862" lon="6.04672">
        <ele>1685.8000488281</ele>
        <time>2026-08-21T11:45:28.000Z</time>
      </trkpt>
      <trkpt lat="45.28864" lon="6.04674">
        <ele>1685.4000244141</ele>
        <time>2026-08-21T11:45:29.000Z</time>
      </trkpt>
      <trkpt lat="45.28866" lon="6.04677">
        <ele>1684.8000488281</ele>
        <time>2026-08-21T11:45:30.000Z</time>
      </trkpt>
      <trkpt lat="45.28867" lon="6.0468">
        <ele>1684.1999511719</ele>
        <time>2026-08-21T11:45:31.000Z</time>
      </trkpt>
      <trkpt lat="45.28868" lon="6.04682">
        <ele>1683.5999755859</ele>
        <time>2026-08-21T11:45:32.000Z</time>
      </trkpt>
      <trkpt lat="45.28869" lon="6.04685">
        <ele>1683.5999755859</ele>
        <time>2026-08-21T11:45:33.000Z</time>
      </trkpt>
      <trkpt lat="45.28869" lon="6.04688">
        <ele>1683.5999755859</ele>
        <time>2026-08-21T11:45:34.000Z</time>
      </trkpt>
      <trkpt lat="45.28869" lon="6.04691">
        <ele>1683.5999755859</ele>
        <time>2026-08-21T11:45:35.000Z</time>
      </trkpt>
      <trkpt lat="45.28871" lon="6.04696">
        <ele>1683.5999755859</ele>
        <time>2026-08-21T11:45:36.000Z</time>
      </trkpt>
      <trkpt lat="45.28871" lon="6.04699">
        <ele>1683.1999511719</ele>
        <time>2026-08-21T11:45:37.000Z</time>
      </trkpt>
      <trkpt lat="45.2887" lon="6.04702">
        <ele>1682.8000488281</ele>
        <time>2026-08-21T11:45:38.000Z</time>
      </trkpt>
      <trkpt lat="45.2887" lon="6.04705">
        <ele>1682.4000244141</ele>
        <time>2026-08-21T11:45:39.000Z</time>
      </trkpt>
      <trkpt lat="45.28869" lon="6.04707">
        <ele>1681.5999755859</ele>
        <time>2026-08-21T11:45:40.000Z</time>
      </trkpt>
      <trkpt lat="45.28868" lon="6.04708">
        <ele>1680.5999755859</ele>
        <time>2026-08-21T11:45:41.000Z</time>
      </trkpt>
      <trkpt lat="45.28868" lon="6.0471">
        <ele>1679.8000488281</ele>
        <time>2026-08-21T11:45:42.000Z</time>
      </trkpt>
      <trkpt lat="45.28867" lon="6.04711">
        <ele>1679</ele>
        <time>2026-08-21T11:45:43.000Z</time>
      </trkpt>
      <trkpt lat="45.28866" lon="6.04712">
        <ele>1678.1999511719</ele>
        <time>2026-08-21T11:45:44.000Z</time>
      </trkpt>
      <trkpt lat="45.28865" lon="6.04713">
        <ele>1677.1999511719</ele>
        <time>2026-08-21T11:45:45.000Z</time>
      </trkpt>
      <trkpt lat="45.28864" lon="6.04715">
        <ele>1676.4000244141</ele>
        <time>2026-08-21T11:45:46.000Z</time>
      </trkpt>
      <trkpt lat="45.28863" lon="6.04715">
        <ele>1675.5999755859</ele>
        <time>2026-08-21T11:45:47.000Z</time>
      </trkpt>
      <trkpt lat="45.28862" lon="6.04715">
        <ele>1674.8000488281</ele>
        <time>2026-08-21T11:45:48.000Z</time>
      </trkpt>
      <trkpt lat="45.28861" lon="6.04716">
        <ele>1673.8000488281</ele>
        <time>2026-08-21T11:45:49.000Z</time>
      </trkpt>
      <trkpt lat="45.2886" lon="6.04717">
        <ele>1673</ele>
        <time>2026-08-21T11:45:50.000Z</time>
      </trkpt>
      <trkpt lat="45.28859" lon="6.04717">
        <ele>1672.1999511719</ele>
        <time>2026-08-21T11:45:51.000Z</time>
      </trkpt>
      <trkpt lat="45.28858" lon="6.04717">
        <ele>1671.4000244141</ele>
        <time>2026-08-21T11:45:52.000Z</time>
      </trkpt>
      <trkpt lat="45.28857" lon="6.04717">
        <ele>1670.4000244141</ele>
        <time>2026-08-21T11:45:53.000Z</time>
      </trkpt>
      <trkpt lat="45.28856" lon="6.04717">
        <ele>1669.5999755859</ele>
        <time>2026-08-21T11:45:54.000Z</time>
      </trkpt>
      <trkpt lat="45.28855" lon="6.04718">
        <ele>1668.8000488281</ele>
        <time>2026-08-21T11:45:55.000Z</time>
      </trkpt>
      <trkpt lat="45.28855" lon="6.04719">
        <ele>1668.1999511719</ele>
        <time>2026-08-21T11:45:56.000Z</time>
      </trkpt>
      <trkpt lat="45.28855" lon="6.0472">
        <ele>1667.4000244141</ele>
        <time>2026-08-21T11:45:57.000Z</time>
      </trkpt>
      <trkpt lat="45.28856" lon="6.04721">
        <ele>1666</ele>
        <time>2026-08-21T11:45:58.000Z</time>
      </trkpt>
      <trkpt lat="45.28856" lon="6.04721">
        <ele>1665.4000244141</ele>
        <time>2026-08-21T11:45:59.000Z</time>
      </trkpt>
      <trkpt lat="45.28857" lon="6.04722">
        <ele>1664.8000488281</ele>
        <time>2026-08-21T11:46:00.000Z</time>
      </trkpt>
      <trkpt lat="45.28858" lon="6.04722">
        <ele>1664.8000488281</ele>
        <time>2026-08-21T11:46:01.000Z</time>
      </trkpt>
      <trkpt lat="45.28859" lon="6.04723">
        <ele>1665</ele>
        <time>2026-08-21T11:46:02.000Z</time>
      </trkpt>
      <trkpt lat="45.2886" lon="6.04725">
        <ele>1665</ele>
        <time>2026-08-21T11:46:03.000Z</time>
      </trkpt>
      <trkpt lat="45.28861" lon="6.04726">
        <ele>1665.1999511719</ele>
        <time>2026-08-21T11:46:04.000Z</time>
      </trkpt>
      <trkpt lat="45.28862" lon="6.04727">
        <ele>1665.1999511719</ele>
        <time>2026-08-21T11:46:05.000Z</time>
      </trkpt>
      <trkpt lat="45.28863" lon="6.04729">
        <ele>1664.4000244141</ele>
        <time>2026-08-21T11:46:06.000Z</time>
      </trkpt>
      <trkpt lat="45.28865" lon="6.04731">
        <ele>1663.5999755859</ele>
        <time>2026-08-21T11:46:07.000Z</time>
      </trkpt>
      <trkpt lat="45.28866" lon="6.04732">
        <ele>1662.8000488281</ele>
        <time>2026-08-21T11:46:08.000Z</time>
      </trkpt>
      <trkpt lat="45.28867" lon="6.04734">
        <ele>1661.8000488281</ele>
        <time>2026-08-21T11:46:09.000Z</time>
      </trkpt>
      <trkpt lat="45.28868" lon="6.04736">
        <ele>1661</ele>
        <time>2026-08-21T11:46:10.000Z</time>
      </trkpt>
      <trkpt lat="45.28869" lon="6.04739">
        <ele>1660.1999511719</ele>
        <time>2026-08-21T11:46:11.000Z</time>
      </trkpt>
      <trkpt lat="45.28869" lon="6.04741">
        <ele>1661</ele>
        <time>2026-08-21T11:46:12.000Z</time>
      </trkpt>
      <trkpt lat="45.28868" lon="6.04743">
        <ele>1662.4000244141</ele>
        <time>2026-08-21T11:46:13.000Z</time>
      </trkpt>
      <trkpt lat="45.28868" lon="6.04746">
        <ele>1662.8000488281</ele>
        <time>2026-08-21T11:46:14.000Z</time>
      </trkpt>
      <trkpt lat="45.28867" lon="6.04747">
        <ele>1663.1999511719</ele>
        <time>2026-08-21T11:46:15.000Z</time>
      </trkpt>
      <trkpt lat="45.28866" lon="6.04749">
        <ele>1663.5999755859</ele>
        <time>2026-08-21T11:46:16.000Z</time>
      </trkpt>
      <trkpt lat="45.28865" lon="6.0475">
        <ele>1664.1999511719</ele>
        <time>2026-08-21T11:46:17.000Z</time>
      </trkpt>
      <trkpt lat="45.28863" lon="6.0475">
        <ele>1664.4000244141</ele>
        <time>2026-08-21T11:46:18.000Z</time>
      </trkpt>
      <trkpt lat="45.28862" lon="6.04751">
        <ele>1664.4000244141</ele>
        <time>2026-08-21T11:46:19.000Z</time>
      </trkpt>
      <trkpt lat="45.28861" lon="6.04751">
        <ele>1664.5999755859</ele>
        <time>2026-08-21T11:46:20.000Z</time>
      </trkpt>
      <trkpt lat="45.2886" lon="6.04752">
        <ele>1664.4000244141</ele>
        <time>2026-08-21T11:46:21.000Z</time>
      </trkpt>
      <trkpt lat="45.28859" lon="6.04752">
        <ele>1664</ele>
        <time>2026-08-21T11:46:22.000Z</time>
      </trkpt>
      <trkpt lat="45.28858" lon="6.04752">
        <ele>1663.8000488281</ele>
        <time>2026-08-21T11:46:23.000Z</time>
      </trkpt>
      <trkpt lat="45.28857" lon="6.04753">
        <ele>1663</ele>
        <time>2026-08-21T11:46:24.000Z</time>
      </trkpt>
      <trkpt lat="45.28856" lon="6.04753">
        <ele>1662.8000488281</ele>
        <time>2026-08-21T11:46:25.000Z</time>
      </trkpt>
      <trkpt lat="45.28855" lon="6.04753">
        <ele>1662.4000244141</ele>
        <time>2026-08-21T11:46:26.000Z</time>
      </trkpt>
      <trkpt lat="45.28854" lon="6.04753">
        <ele>1662.1999511719</ele>
        <time>2026-08-21T11:46:27.000Z</time>
      </trkpt>
      <trkpt lat="45.28852" lon="6.04753">
        <ele>1661.8000488281</ele>
        <time>2026-08-21T11:46:28.000Z</time>
      </trkpt>
      <trkpt lat="45.28851" lon="6.04753">
        <ele>1662</ele>
        <time>2026-08-21T11:46:29.000Z</time>
      </trkpt>
      <trkpt lat="45.2885" lon="6.04752">
        <ele>1661.8000488281</ele>
        <time>2026-08-21T11:46:30.000Z</time>
      </trkpt>
      <trkpt lat="45.28849" lon="6.04751">
        <ele>1661.4000244141</ele>
        <time>2026-08-21T11:46:31.000Z</time>
      </trkpt>
      <trkpt lat="45.28848" lon="6.04751">
        <ele>1661.1999511719</ele>
        <time>2026-08-21T11:46:32.000Z</time>
      </trkpt>
      <trkpt lat="45.28848" lon="6.04751">
        <ele>1660.1999511719</ele>
        <time>2026-08-21T11:46:33.000Z</time>
      </trkpt>
      <trkpt lat="45.28847" lon="6.04751">
        <ele>1659.4000244141</ele>
        <time>2026-08-21T11:46:34.000Z</time>
      </trkpt>
      <trkpt lat="45.28846" lon="6.0475">
        <ele>1659.1999511719</ele>
        <time>2026-08-21T11:46:35.000Z</time>
      </trkpt>
      <trkpt lat="45.28846" lon="6.04751">
        <ele>1659.4000244141</ele>
        <time>2026-08-21T11:46:36.000Z</time>
      </trkpt>
      <trkpt lat="45.28845" lon="6.04752">
        <ele>1659.1999511719</ele>
        <time>2026-08-21T11:46:37.000Z</time>
      </trkpt>
      <trkpt lat="45.28845" lon="6.04753">
        <ele>1659.1999511719</ele>
        <time>2026-08-21T11:46:38.000Z</time>
      </trkpt>
      <trkpt lat="45.28844" lon="6.04754">
        <ele>1659</ele>
        <time>2026-08-21T11:46:39.000Z</time>
      </trkpt>
      <trkpt lat="45.28843" lon="6.04754">
        <ele>1658.1999511719</ele>
        <time>2026-08-21T11:46:40.000Z</time>
      </trkpt>
      <trkpt lat="45.28841" lon="6.04754">
        <ele>1657.8000488281</ele>
        <time>2026-08-21T11:46:41.000Z</time>
      </trkpt>
      <trkpt lat="45.2884" lon="6.04755">
        <ele>1657.1999511719</ele>
        <time>2026-08-21T11:46:42.000Z</time>
      </trkpt>
      <trkpt lat="45.28839" lon="6.04756">
        <ele>1656.8000488281</ele>
        <time>2026-08-21T11:46:43.000Z</time>
      </trkpt>
      <trkpt lat="45.28837" lon="6.04757">
        <ele>1656.1999511719</ele>
        <time>2026-08-21T11:46:44.000Z</time>
      </trkpt>
      <trkpt lat="45.28837" lon="6.04759">
        <ele>1655.4000244141</ele>
        <time>2026-08-21T11:46:45.000Z</time>
      </trkpt>
      <trkpt lat="45.28836" lon="6.04761">
        <ele>1655.1999511719</ele>
        <time>2026-08-21T11:46:46.000Z</time>
      </trkpt>
      <trkpt lat="45.28835" lon="6.04765">
        <ele>1655</ele>
        <time>2026-08-21T11:46:47.000Z</time>
      </trkpt>
      <trkpt lat="45.28835" lon="6.04767">
        <ele>1653.8000488281</ele>
        <time>2026-08-21T11:46:48.000Z</time>
      </trkpt>
      <trkpt lat="45.28835" lon="6.0477">
        <ele>1653.1999511719</ele>
        <time>2026-08-21T11:46:49.000Z</time>
      </trkpt>
      <trkpt lat="45.28836" lon="6.04772">
        <ele>1652.4000244141</ele>
        <time>2026-08-21T11:46:50.000Z</time>
      </trkpt>
      <trkpt lat="45.28835" lon="6.04774">
        <ele>1652.1999511719</ele>
        <time>2026-08-21T11:46:51.000Z</time>
      </trkpt>
      <trkpt lat="45.28835" lon="6.04776">
        <ele>1652</ele>
        <time>2026-08-21T11:46:52.000Z</time>
      </trkpt>
      <trkpt lat="45.28834" lon="6.04779">
        <ele>1651.5999755859</ele>
        <time>2026-08-21T11:46:53.000Z</time>
      </trkpt>
      <trkpt lat="45.28832" lon="6.04781">
        <ele>1651</ele>
        <time>2026-08-21T11:46:54.000Z</time>
      </trkpt>
      <trkpt lat="45.28831" lon="6.04783">
        <ele>1650.4000244141</ele>
        <time>2026-08-21T11:46:55.000Z</time>
      </trkpt>
      <trkpt lat="45.2883" lon="6.04785">
        <ele>1649.5999755859</ele>
        <time>2026-08-21T11:46:56.000Z</time>
      </trkpt>
      <trkpt lat="45.28828" lon="6.04788">
        <ele>1648.8000488281</ele>
        <time>2026-08-21T11:46:57.000Z</time>
      </trkpt>
      <trkpt lat="45.28828" lon="6.0479">
        <ele>1647.8000488281</ele>
        <time>2026-08-21T11:46:58.000Z</time>
      </trkpt>
      <trkpt lat="45.28826" lon="6.04792">
        <ele>1647</ele>
        <time>2026-08-21T11:46:59.000Z</time>
      </trkpt>
      <trkpt lat="45.28825" lon="6.04795">
        <ele>1646.5999755859</ele>
        <time>2026-08-21T11:47:00.000Z</time>
      </trkpt>
      <trkpt lat="45.28823" lon="6.04796">
        <ele>1646</ele>
        <time>2026-08-21T11:47:01.000Z</time>
      </trkpt>
      <trkpt lat="45.28822" lon="6.04798">
        <ele>1646.5999755859</ele>
        <time>2026-08-21T11:47:02.000Z</time>
      </trkpt>
      <trkpt lat="45.28821" lon="6.048">
        <ele>1646.5999755859</ele>
        <time>2026-08-21T11:47:03.000Z</time>
      </trkpt>
      <trkpt lat="45.2882" lon="6.04801">
        <ele>1646.5999755859</ele>
        <time>2026-08-21T11:47:04.000Z</time>
      </trkpt>
      <trkpt lat="45.28819" lon="6.04802">
        <ele>1646.8000488281</ele>
        <time>2026-08-21T11:47:05.000Z</time>
      </trkpt>
      <trkpt lat="45.28819" lon="6.04803">
        <ele>1646.8000488281</ele>
        <time>2026-08-21T11:47:06.000Z</time>
      </trkpt>
      <trkpt lat="45.28819" lon="6.04805">
        <ele>1645.5999755859</ele>
        <time>2026-08-21T11:47:07.000Z</time>
      </trkpt>
      <trkpt lat="45.28818" lon="6.04807">
        <ele>1645</ele>
        <time>2026-08-21T11:47:08.000Z</time>
      </trkpt>
      <trkpt lat="45.28818" lon="6.04807">
        <ele>1644.8000488281</ele>
        <time>2026-08-21T11:47:09.000Z</time>
      </trkpt>
      <trkpt lat="45.28818" lon="6.04808">
        <ele>1644.5999755859</ele>
        <time>2026-08-21T11:47:10.000Z</time>
      </trkpt>
      <trkpt lat="45.28818" lon="6.04809">
        <ele>1644.4000244141</ele>
        <time>2026-08-21T11:47:11.000Z</time>
      </trkpt>
      <trkpt lat="45.28819" lon="6.0481">
        <ele>1644.1999511719</ele>
        <time>2026-08-21T11:47:12.000Z</time>
      </trkpt>
      <trkpt lat="45.28818" lon="6.04811">
        <ele>1644</ele>
        <time>2026-08-21T11:47:13.000Z</time>
      </trkpt>
      <trkpt lat="45.28819" lon="6.04813">
        <ele>1643</ele>
        <time>2026-08-21T11:47:14.000Z</time>
      </trkpt>
      <trkpt lat="45.2882" lon="6.04815">
        <ele>1643.1999511719</ele>
        <time>2026-08-21T11:47:15.000Z</time>
      </trkpt>
      <trkpt lat="45.2882" lon="6.04817">
        <ele>1643.1999511719</ele>
        <time>2026-08-21T11:47:16.000Z</time>
      </trkpt>
      <trkpt lat="45.28821" lon="6.04818">
        <ele>1643</ele>
        <time>2026-08-21T11:47:17.000Z</time>
      </trkpt>
      <trkpt lat="45.28822" lon="6.04819">
        <ele>1643</ele>
        <time>2026-08-21T11:47:18.000Z</time>
      </trkpt>
      <trkpt lat="45.28823" lon="6.04821">
        <ele>1642.8000488281</ele>
        <time>2026-08-21T11:47:19.000Z</time>
      </trkpt>
      <trkpt lat="45.28823" lon="6.04822">
        <ele>1642.4000244141</ele>
        <time>2026-08-21T11:47:20.000Z</time>
      </trkpt>
      <trkpt lat="45.28824" lon="6.04822">
        <ele>1642.1999511719</ele>
        <time>2026-08-21T11:47:21.000Z</time>
      </trkpt>
      <trkpt lat="45.28825" lon="6.04823">
        <ele>1640.8000488281</ele>
        <time>2026-08-21T11:47:22.000Z</time>
      </trkpt>
      <trkpt lat="45.28825" lon="6.04826">
        <ele>1639.8000488281</ele>
        <time>2026-08-21T11:47:23.000Z</time>
      </trkpt>
      <trkpt lat="45.28825" lon="6.04829">
        <ele>1638.8000488281</ele>
        <time>2026-08-21T11:47:24.000Z</time>
      </trkpt>
      <trkpt lat="45.28826" lon="6.04831">
        <ele>1637.8000488281</ele>
        <time>2026-08-21T11:47:25.000Z</time>
      </trkpt>
      <trkpt lat="45.28826" lon="6.04834">
        <ele>1636.8000488281</ele>
        <time>2026-08-21T11:47:26.000Z</time>
      </trkpt>
      <trkpt lat="45.28826" lon="6.04838">
        <ele>1635.8000488281</ele>
        <time>2026-08-21T11:47:27.000Z</time>
      </trkpt>
      <trkpt lat="45.28826" lon="6.04841">
        <ele>1634.8000488281</ele>
        <time>2026-08-21T11:47:28.000Z</time>
      </trkpt>
      <trkpt lat="45.28826" lon="6.04844">
        <ele>1634.4000244141</ele>
        <time>2026-08-21T11:47:29.000Z</time>
      </trkpt>
      <trkpt lat="45.28827" lon="6.04848">
        <ele>1634.4000244141</ele>
        <time>2026-08-21T11:47:30.000Z</time>
      </trkpt>
      <trkpt lat="45.28826" lon="6.04851">
        <ele>1634.4000244141</ele>
        <time>2026-08-21T11:47:31.000Z</time>
      </trkpt>
      <trkpt lat="45.28826" lon="6.04855">
        <ele>1634.1999511719</ele>
        <time>2026-08-21T11:47:32.000Z</time>
      </trkpt>
      <trkpt lat="45.28826" lon="6.04858">
        <ele>1634.1999511719</ele>
        <time>2026-08-21T11:47:33.000Z</time>
      </trkpt>
      <trkpt lat="45.28826" lon="6.04861">
        <ele>1634</ele>
        <time>2026-08-21T11:47:34.000Z</time>
      </trkpt>
      <trkpt lat="45.28826" lon="6.04864">
        <ele>1633.8000488281</ele>
        <time>2026-08-21T11:47:35.000Z</time>
      </trkpt>
      <trkpt lat="45.28827" lon="6.04866">
        <ele>1633.8000488281</ele>
        <time>2026-08-21T11:47:36.000Z</time>
      </trkpt>
      <trkpt lat="45.28828" lon="6.04868">
        <ele>1633.4000244141</ele>
        <time>2026-08-21T11:47:37.000Z</time>
      </trkpt>
      <trkpt lat="45.28829" lon="6.0487">
        <ele>1632.5999755859</ele>
        <time>2026-08-21T11:47:38.000Z</time>
      </trkpt>
      <trkpt lat="45.28829" lon="6.04873">
        <ele>1632</ele>
        <time>2026-08-21T11:47:39.000Z</time>
      </trkpt>
      <trkpt lat="45.28829" lon="6.04875">
        <ele>1631.8000488281</ele>
        <time>2026-08-21T11:47:40.000Z</time>
      </trkpt>
      <trkpt lat="45.28829" lon="6.04876">
        <ele>1631.5999755859</ele>
        <time>2026-08-21T11:47:41.000Z</time>
      </trkpt>
      <trkpt lat="45.28828" lon="6.04878">
        <ele>1631.1999511719</ele>
        <time>2026-08-21T11:47:42.000Z</time>
      </trkpt>
      <trkpt lat="45.28828" lon="6.04878">
        <ele>1630.8000488281</ele>
        <time>2026-08-21T11:47:43.000Z</time>
      </trkpt>
      <trkpt lat="45.28829" lon="6.04879">
        <ele>1630.4000244141</ele>
        <time>2026-08-21T11:47:44.000Z</time>
      </trkpt>
      <trkpt lat="45.28829" lon="6.0488">
        <ele>1630.1999511719</ele>
        <time>2026-08-21T11:47:45.000Z</time>
      </trkpt>
      <trkpt lat="45.28829" lon="6.04882">
        <ele>1630.1999511719</ele>
        <time>2026-08-21T11:47:46.000Z</time>
      </trkpt>
      <trkpt lat="45.28829" lon="6.04884">
        <ele>1630</ele>
        <time>2026-08-21T11:47:47.000Z</time>
      </trkpt>
      <trkpt lat="45.28828" lon="6.04886">
        <ele>1629.8000488281</ele>
        <time>2026-08-21T11:47:48.000Z</time>
      </trkpt>
      <trkpt lat="45.28826" lon="6.04888">
        <ele>1629.5999755859</ele>
        <time>2026-08-21T11:47:49.000Z</time>
      </trkpt>
      <trkpt lat="45.28824" lon="6.04889">
        <ele>1629.4000244141</ele>
        <time>2026-08-21T11:47:50.000Z</time>
      </trkpt>
      <trkpt lat="45.28824" lon="6.04891">
        <ele>1629.1999511719</ele>
        <time>2026-08-21T11:47:51.000Z</time>
      </trkpt>
      <trkpt lat="45.28823" lon="6.04893">
        <ele>1629</ele>
        <time>2026-08-21T11:47:52.000Z</time>
      </trkpt>
      <trkpt lat="45.28823" lon="6.04896">
        <ele>1628.8000488281</ele>
        <time>2026-08-21T11:47:53.000Z</time>
      </trkpt>
      <trkpt lat="45.28823" lon="6.04899">
        <ele>1628.5999755859</ele>
        <time>2026-08-21T11:47:54.000Z</time>
      </trkpt>
      <trkpt lat="45.28823" lon="6.04901">
        <ele>1628.4000244141</ele>
        <time>2026-08-21T11:47:55.000Z</time>
      </trkpt>
      <trkpt lat="45.28822" lon="6.04903">
        <ele>1628.1999511719</ele>
        <time>2026-08-21T11:47:56.000Z</time>
      </trkpt>
      <trkpt lat="45.28822" lon="6.04905">
        <ele>1628.1999511719</ele>
        <time>2026-08-21T11:47:57.000Z</time>
      </trkpt>
      <trkpt lat="45.28821" lon="6.04907">
        <ele>1628</ele>
        <time>2026-08-21T11:47:58.000Z</time>
      </trkpt>
      <trkpt lat="45.28821" lon="6.04908">
        <ele>1627.4000244141</ele>
        <time>2026-08-21T11:47:59.000Z</time>
      </trkpt>
      <trkpt lat="45.28822" lon="6.04909">
        <ele>1625.5999755859</ele>
        <time>2026-08-21T11:48:00.000Z</time>
      </trkpt>
      <trkpt lat="45.28821" lon="6.04911">
        <ele>1624.8000488281</ele>
        <time>2026-08-21T11:48:01.000Z</time>
      </trkpt>
      <trkpt lat="45.2882" lon="6.04912">
        <ele>1623.5999755859</ele>
        <time>2026-08-21T11:48:02.000Z</time>
      </trkpt>
      <trkpt lat="45.28819" lon="6.04913">
        <ele>1622.4000244141</ele>
        <time>2026-08-21T11:48:03.000Z</time>
      </trkpt>
      <trkpt lat="45.28819" lon="6.04913">
        <ele>1621.4000244141</ele>
        <time>2026-08-21T11:48:04.000Z</time>
      </trkpt>
      <trkpt lat="45.28818" lon="6.04913">
        <ele>1620.1999511719</ele>
        <time>2026-08-21T11:48:05.000Z</time>
      </trkpt>
      <trkpt lat="45.28817" lon="6.04914">
        <ele>1619</ele>
        <time>2026-08-21T11:48:06.000Z</time>
      </trkpt>
      <trkpt lat="45.28816" lon="6.04914">
        <ele>1618.8000488281</ele>
        <time>2026-08-21T11:48:07.000Z</time>
      </trkpt>
      <trkpt lat="45.28815" lon="6.04914">
        <ele>1618.5999755859</ele>
        <time>2026-08-21T11:48:08.000Z</time>
      </trkpt>
      <trkpt lat="45.28815" lon="6.04915">
        <ele>1618.4000244141</ele>
        <time>2026-08-21T11:48:09.000Z</time>
      </trkpt>
      <trkpt lat="45.28814" lon="6.04916">
        <ele>1618.1999511719</ele>
        <time>2026-08-21T11:48:10.000Z</time>
      </trkpt>
      <trkpt lat="45.28814" lon="6.04917">
        <ele>1617</ele>
        <time>2026-08-21T11:48:11.000Z</time>
      </trkpt>
      <trkpt lat="45.28814" lon="6.04918">
        <ele>1615.8000488281</ele>
        <time>2026-08-21T11:48:12.000Z</time>
      </trkpt>
      <trkpt lat="45.28814" lon="6.04918">
        <ele>1614.5999755859</ele>
        <time>2026-08-21T11:48:13.000Z</time>
      </trkpt>
      <trkpt lat="45.28813" lon="6.0492">
        <ele>1613.4000244141</ele>
        <time>2026-08-21T11:48:14.000Z</time>
      </trkpt>
      <trkpt lat="45.28812" lon="6.04921">
        <ele>1612.1999511719</ele>
        <time>2026-08-21T11:48:15.000Z</time>
      </trkpt>
      <trkpt lat="45.2881" lon="6.04922">
        <ele>1610.8000488281</ele>
        <time>2026-08-21T11:48:16.000Z</time>
      </trkpt>
      <trkpt lat="45.28809" lon="6.04923">
        <ele>1610.8000488281</ele>
        <time>2026-08-21T11:48:17.000Z</time>
      </trkpt>
      <trkpt lat="45.28807" lon="6.04923">
        <ele>1610.8000488281</ele>
        <time>2026-08-21T11:48:18.000Z</time>
      </trkpt>
      <trkpt lat="45.28806" lon="6.04923">
        <ele>1610.5999755859</ele>
        <time>2026-08-21T11:48:19.000Z</time>
      </trkpt>
      <trkpt lat="45.28805" lon="6.04924">
        <ele>1610.4000244141</ele>
        <time>2026-08-21T11:48:20.000Z</time>
      </trkpt>
      <trkpt lat="45.28803" lon="6.04924">
        <ele>1610</ele>
        <time>2026-08-21T11:48:21.000Z</time>
      </trkpt>
      <trkpt lat="45.28802" lon="6.04923">
        <ele>1609.5999755859</ele>
        <time>2026-08-21T11:48:22.000Z</time>
      </trkpt>
      <trkpt lat="45.28801" lon="6.04923">
        <ele>1609.1999511719</ele>
        <time>2026-08-21T11:48:23.000Z</time>
      </trkpt>
      <trkpt lat="45.288" lon="6.04923">
        <ele>1608.8000488281</ele>
        <time>2026-08-21T11:48:24.000Z</time>
      </trkpt>
      <trkpt lat="45.28798" lon="6.04923">
        <ele>1608</ele>
        <time>2026-08-21T11:48:25.000Z</time>
      </trkpt>
      <trkpt lat="45.28797" lon="6.04924">
        <ele>1607.1999511719</ele>
        <time>2026-08-21T11:48:26.000Z</time>
      </trkpt>
      <trkpt lat="45.28797" lon="6.04926">
        <ele>1606.4000244141</ele>
        <time>2026-08-21T11:48:27.000Z</time>
      </trkpt>
      <trkpt lat="45.28798" lon="6.04927">
        <ele>1606.1999511719</ele>
        <time>2026-08-21T11:48:28.000Z</time>
      </trkpt>
      <trkpt lat="45.288" lon="6.04929">
        <ele>1606</ele>
        <time>2026-08-21T11:48:29.000Z</time>
      </trkpt>
      <trkpt lat="45.28801" lon="6.04932">
        <ele>1605.8000488281</ele>
        <time>2026-08-21T11:48:30.000Z</time>
      </trkpt>
      <trkpt lat="45.28802" lon="6.04935">
        <ele>1605.5999755859</ele>
        <time>2026-08-21T11:48:31.000Z</time>
      </trkpt>
      <trkpt lat="45.28803" lon="6.04938">
        <ele>1605.4000244141</ele>
        <time>2026-08-21T11:48:32.000Z</time>
      </trkpt>
      <trkpt lat="45.28802" lon="6.04941">
        <ele>1607.1999511719</ele>
        <time>2026-08-21T11:48:33.000Z</time>
      </trkpt>
      <trkpt lat="45.288" lon="6.04942">
        <ele>1607.1999511719</ele>
        <time>2026-08-21T11:48:34.000Z</time>
      </trkpt>
      <trkpt lat="45.28798" lon="6.04943">
        <ele>1607.1999511719</ele>
        <time>2026-08-21T11:48:35.000Z</time>
      </trkpt>
      <trkpt lat="45.28797" lon="6.04942">
        <ele>1607</ele>
        <time>2026-08-21T11:48:36.000Z</time>
      </trkpt>
      <trkpt lat="45.28795" lon="6.04942">
        <ele>1606.8000488281</ele>
        <time>2026-08-21T11:48:37.000Z</time>
      </trkpt>
      <trkpt lat="45.28795" lon="6.04942">
        <ele>1606.5999755859</ele>
        <time>2026-08-21T11:48:38.000Z</time>
      </trkpt>
      <trkpt lat="45.28794" lon="6.04943">
        <ele>1606.4000244141</ele>
        <time>2026-08-21T11:48:39.000Z</time>
      </trkpt>
      <trkpt lat="45.28793" lon="6.04943">
        <ele>1606</ele>
        <time>2026-08-21T11:48:40.000Z</time>
      </trkpt>
      <trkpt lat="45.28792" lon="6.04943">
        <ele>1605.8000488281</ele>
        <time>2026-08-21T11:48:41.000Z</time>
      </trkpt>
      <trkpt lat="45.28791" lon="6.04944">
        <ele>1605.8000488281</ele>
        <time>2026-08-21T11:48:42.000Z</time>
      </trkpt>
      <trkpt lat="45.2879" lon="6.04944">
        <ele>1605.5999755859</ele>
        <time>2026-08-21T11:48:43.000Z</time>
      </trkpt>
      <trkpt lat="45.28788" lon="6.04945">
        <ele>1605.4000244141</ele>
        <time>2026-08-21T11:48:44.000Z</time>
      </trkpt>
      <trkpt lat="45.28787" lon="6.04946">
        <ele>1604.4000244141</ele>
        <time>2026-08-21T11:48:45.000Z</time>
      </trkpt>
      <trkpt lat="45.28786" lon="6.04948">
        <ele>1604</ele>
        <time>2026-08-21T11:48:46.000Z</time>
      </trkpt>
      <trkpt lat="45.28786" lon="6.0495">
        <ele>1603.5999755859</ele>
        <time>2026-08-21T11:48:47.000Z</time>
      </trkpt>
      <trkpt lat="45.28787" lon="6.04953">
        <ele>1603.1999511719</ele>
        <time>2026-08-21T11:48:48.000Z</time>
      </trkpt>
      <trkpt lat="45.28788" lon="6.04956">
        <ele>1602.8000488281</ele>
        <time>2026-08-21T11:48:49.000Z</time>
      </trkpt>
      <trkpt lat="45.28788" lon="6.0496">
        <ele>1602</ele>
        <time>2026-08-21T11:48:50.000Z</time>
      </trkpt>
      <trkpt lat="45.28789" lon="6.04963">
        <ele>1601.1999511719</ele>
        <time>2026-08-21T11:48:51.000Z</time>
      </trkpt>
      <trkpt lat="45.2879" lon="6.04966">
        <ele>1601.1999511719</ele>
        <time>2026-08-21T11:48:52.000Z</time>
      </trkpt>
      <trkpt lat="45.2879" lon="6.0497">
        <ele>1601</ele>
        <time>2026-08-21T11:48:53.000Z</time>
      </trkpt>
      <trkpt lat="45.2879" lon="6.04974">
        <ele>1600.8000488281</ele>
        <time>2026-08-21T11:48:54.000Z</time>
      </trkpt>
      <trkpt lat="45.28791" lon="6.04979">
        <ele>1601</ele>
        <time>2026-08-21T11:48:55.000Z</time>
      </trkpt>
      <trkpt lat="45.28792" lon="6.04983">
        <ele>1600.8000488281</ele>
        <time>2026-08-21T11:48:56.000Z</time>
      </trkpt>
      <trkpt lat="45.28792" lon="6.04987">
        <ele>1600.4000244141</ele>
        <time>2026-08-21T11:48:57.000Z</time>
      </trkpt>
      <trkpt lat="45.28792" lon="6.04991">
        <ele>1599.8000488281</ele>
        <time>2026-08-21T11:48:58.000Z</time>
      </trkpt>
      <trkpt lat="45.28793" lon="6.04994">
        <ele>1599</ele>
        <time>2026-08-21T11:48:59.000Z</time>
      </trkpt>
      <trkpt lat="45.28793" lon="6.04998">
        <ele>1596.5999755859</ele>
        <time>2026-08-21T11:49:00.000Z</time>
      </trkpt>
      <trkpt lat="45.28793" lon="6.05001">
        <ele>1595.5999755859</ele>
        <time>2026-08-21T11:49:01.000Z</time>
      </trkpt>
      <trkpt lat="45.28793" lon="6.05005">
        <ele>1594.4000244141</ele>
        <time>2026-08-21T11:49:02.000Z</time>
      </trkpt>
      <trkpt lat="45.28792" lon="6.05009">
        <ele>1593.4000244141</ele>
        <time>2026-08-21T11:49:03.000Z</time>
      </trkpt>
      <trkpt lat="45.28792" lon="6.05012">
        <ele>1592.5999755859</ele>
        <time>2026-08-21T11:49:04.000Z</time>
      </trkpt>
      <trkpt lat="45.2879" lon="6.05015">
        <ele>1591.8000488281</ele>
        <time>2026-08-21T11:49:05.000Z</time>
      </trkpt>
      <trkpt lat="45.2879" lon="6.05017">
        <ele>1591</ele>
        <time>2026-08-21T11:49:06.000Z</time>
      </trkpt>
      <trkpt lat="45.28789" lon="6.05019">
        <ele>1590.8000488281</ele>
        <time>2026-08-21T11:49:07.000Z</time>
      </trkpt>
      <trkpt lat="45.28789" lon="6.05021">
        <ele>1591</ele>
        <time>2026-08-21T11:49:08.000Z</time>
      </trkpt>
      <trkpt lat="45.2879" lon="6.05023">
        <ele>1590.8000488281</ele>
        <time>2026-08-21T11:49:09.000Z</time>
      </trkpt>
      <trkpt lat="45.2879" lon="6.05025">
        <ele>1591</ele>
        <time>2026-08-21T11:49:10.000Z</time>
      </trkpt>
      <trkpt lat="45.28791" lon="6.05027">
        <ele>1591.5999755859</ele>
        <time>2026-08-21T11:49:11.000Z</time>
      </trkpt>
      <trkpt lat="45.28791" lon="6.05029">
        <ele>1592</ele>
        <time>2026-08-21T11:49:12.000Z</time>
      </trkpt>
      <trkpt lat="45.28791" lon="6.05031">
        <ele>1592</ele>
        <time>2026-08-21T11:49:13.000Z</time>
      </trkpt>
      <trkpt lat="45.28791" lon="6.05035">
        <ele>1591.4000244141</ele>
        <time>2026-08-21T11:49:14.000Z</time>
      </trkpt>
      <trkpt lat="45.2879" lon="6.05037">
        <ele>1591</ele>
        <time>2026-08-21T11:49:15.000Z</time>
      </trkpt>
      <trkpt lat="45.28789" lon="6.0504">
        <ele>1590.4000244141</ele>
        <time>2026-08-21T11:49:16.000Z</time>
      </trkpt>
      <trkpt lat="45.28787" lon="6.05043">
        <ele>1589.1999511719</ele>
        <time>2026-08-21T11:49:17.000Z</time>
      </trkpt>
      <trkpt lat="45.28786" lon="6.05046">
        <ele>1588.1999511719</ele>
        <time>2026-08-21T11:49:18.000Z</time>
      </trkpt>
      <trkpt lat="45.28784" lon="6.05049">
        <ele>1587.8000488281</ele>
        <time>2026-08-21T11:49:19.000Z</time>
      </trkpt>
      <trkpt lat="45.28783" lon="6.05052">
        <ele>1587.5999755859</ele>
        <time>2026-08-21T11:49:20.000Z</time>
      </trkpt>
      <trkpt lat="45.28782" lon="6.05054">
        <ele>1587</ele>
        <time>2026-08-21T11:49:21.000Z</time>
      </trkpt>
      <trkpt lat="45.28781" lon="6.05057">
        <ele>1587.1999511719</ele>
        <time>2026-08-21T11:49:22.000Z</time>
      </trkpt>
      <trkpt lat="45.28781" lon="6.0506">
        <ele>1586.8000488281</ele>
        <time>2026-08-21T11:49:23.000Z</time>
      </trkpt>
      <trkpt lat="45.28782" lon="6.05062">
        <ele>1586.8000488281</ele>
        <time>2026-08-21T11:49:24.000Z</time>
      </trkpt>
      <trkpt lat="45.28783" lon="6.05065">
        <ele>1586.8000488281</ele>
        <time>2026-08-21T11:49:25.000Z</time>
      </trkpt>
      <trkpt lat="45.28784" lon="6.05067">
        <ele>1586.4000244141</ele>
        <time>2026-08-21T11:49:26.000Z</time>
      </trkpt>
      <trkpt lat="45.28784" lon="6.0507">
        <ele>1586</ele>
        <time>2026-08-21T11:49:27.000Z</time>
      </trkpt>
      <trkpt lat="45.28785" lon="6.05074">
        <ele>1585.5999755859</ele>
        <time>2026-08-21T11:49:28.000Z</time>
      </trkpt>
      <trkpt lat="45.28785" lon="6.05078">
        <ele>1585.4000244141</ele>
        <time>2026-08-21T11:49:29.000Z</time>
      </trkpt>
      <trkpt lat="45.28785" lon="6.05083">
        <ele>1585.1999511719</ele>
        <time>2026-08-21T11:49:30.000Z</time>
      </trkpt>
      <trkpt lat="45.28785" lon="6.05088">
        <ele>1584.8000488281</ele>
        <time>2026-08-21T11:49:31.000Z</time>
      </trkpt>
      <trkpt lat="45.28786" lon="6.05093">
        <ele>1584.5999755859</ele>
        <time>2026-08-21T11:49:32.000Z</time>
      </trkpt>
      <trkpt lat="45.28786" lon="6.05098">
        <ele>1584.4000244141</ele>
        <time>2026-08-21T11:49:33.000Z</time>
      </trkpt>
      <trkpt lat="45.28786" lon="6.05103">
        <ele>1584</ele>
        <time>2026-08-21T11:49:34.000Z</time>
      </trkpt>
      <trkpt lat="45.28786" lon="6.05107">
        <ele>1583.4000244141</ele>
        <time>2026-08-21T11:49:35.000Z</time>
      </trkpt>
      <trkpt lat="45.28786" lon="6.05111">
        <ele>1582.4000244141</ele>
        <time>2026-08-21T11:49:36.000Z</time>
      </trkpt>
      <trkpt lat="45.28787" lon="6.05115">
        <ele>1582</ele>
        <time>2026-08-21T11:49:37.000Z</time>
      </trkpt>
      <trkpt lat="45.28787" lon="6.05118">
        <ele>1581.1999511719</ele>
        <time>2026-08-21T11:49:38.000Z</time>
      </trkpt>
      <trkpt lat="45.28788" lon="6.05122">
        <ele>1579.5999755859</ele>
        <time>2026-08-21T11:49:39.000Z</time>
      </trkpt>
      <trkpt lat="45.28788" lon="6.05124">
        <ele>1578</ele>
        <time>2026-08-21T11:49:40.000Z</time>
      </trkpt>
      <trkpt lat="45.28787" lon="6.05127">
        <ele>1576.4000244141</ele>
        <time>2026-08-21T11:49:41.000Z</time>
      </trkpt>
      <trkpt lat="45.28787" lon="6.05129">
        <ele>1574.8000488281</ele>
        <time>2026-08-21T11:49:42.000Z</time>
      </trkpt>
      <trkpt lat="45.28788" lon="6.05132">
        <ele>1572.4000244141</ele>
        <time>2026-08-21T11:49:43.000Z</time>
      </trkpt>
      <trkpt lat="45.28789" lon="6.05135">
        <ele>1569.8000488281</ele>
        <time>2026-08-21T11:49:44.000Z</time>
      </trkpt>
      <trkpt lat="45.28791" lon="6.05137">
        <ele>1569.4000244141</ele>
        <time>2026-08-21T11:49:45.000Z</time>
      </trkpt>
      <trkpt lat="45.28793" lon="6.05138">
        <ele>1569.4000244141</ele>
        <time>2026-08-21T11:49:46.000Z</time>
      </trkpt>
      <trkpt lat="45.28795" lon="6.05139">
        <ele>1569.1999511719</ele>
        <time>2026-08-21T11:49:47.000Z</time>
      </trkpt>
      <trkpt lat="45.28796" lon="6.05142">
        <ele>1568.8000488281</ele>
        <time>2026-08-21T11:49:48.000Z</time>
      </trkpt>
      <trkpt lat="45.28796" lon="6.05146">
        <ele>1568.8000488281</ele>
        <time>2026-08-21T11:49:49.000Z</time>
      </trkpt>
      <trkpt lat="45.28796" lon="6.0515">
        <ele>1568.8000488281</ele>
        <time>2026-08-21T11:49:50.000Z</time>
      </trkpt>
      <trkpt lat="45.28796" lon="6.05154">
        <ele>1568.8000488281</ele>
        <time>2026-08-21T11:49:51.000Z</time>
      </trkpt>
      <trkpt lat="45.28796" lon="6.05158">
        <ele>1569.4000244141</ele>
        <time>2026-08-21T11:49:52.000Z</time>
      </trkpt>
      <trkpt lat="45.28796" lon="6.05161">
        <ele>1569.4000244141</ele>
        <time>2026-08-21T11:49:53.000Z</time>
      </trkpt>
      <trkpt lat="45.28796" lon="6.05164">
        <ele>1569.5999755859</ele>
        <time>2026-08-21T11:49:54.000Z</time>
      </trkpt>
      <trkpt lat="45.28796" lon="6.05166">
        <ele>1569.5999755859</ele>
        <time>2026-08-21T11:49:55.000Z</time>
      </trkpt>
      <trkpt lat="45.28797" lon="6.05168">
        <ele>1569.5999755859</ele>
        <time>2026-08-21T11:49:56.000Z</time>
      </trkpt>
      <trkpt lat="45.28798" lon="6.05171">
        <ele>1569.1999511719</ele>
        <time>2026-08-21T11:49:57.000Z</time>
      </trkpt>
      <trkpt lat="45.28799" lon="6.05173">
        <ele>1569</ele>
        <time>2026-08-21T11:49:58.000Z</time>
      </trkpt>
      <trkpt lat="45.28801" lon="6.05175">
        <ele>1569</ele>
        <time>2026-08-21T11:49:59.000Z</time>
      </trkpt>
      <trkpt lat="45.28803" lon="6.05177">
        <ele>1568.8000488281</ele>
        <time>2026-08-21T11:50:00.000Z</time>
      </trkpt>
      <trkpt lat="45.28806" lon="6.05178">
        <ele>1568.4000244141</ele>
        <time>2026-08-21T11:50:01.000Z</time>
      </trkpt>
      <trkpt lat="45.28807" lon="6.0518">
        <ele>1568.5999755859</ele>
        <time>2026-08-21T11:50:02.000Z</time>
      </trkpt>
      <trkpt lat="45.28809" lon="6.05181">
        <ele>1569</ele>
        <time>2026-08-21T11:50:03.000Z</time>
      </trkpt>
      <trkpt lat="45.28811" lon="6.05183">
        <ele>1569.1999511719</ele>
        <time>2026-08-21T11:50:04.000Z</time>
      </trkpt>
      <trkpt lat="45.28813" lon="6.05185">
        <ele>1569.4000244141</ele>
        <time>2026-08-21T11:50:05.000Z</time>
      </trkpt>
      <trkpt lat="45.28814" lon="6.05186">
        <ele>1569.4000244141</ele>
        <time>2026-08-21T11:50:06.000Z</time>
      </trkpt>
      <trkpt lat="45.28816" lon="6.05187">
        <ele>1569.4000244141</ele>
        <time>2026-08-21T11:50:07.000Z</time>
      </trkpt>
      <trkpt lat="45.28818" lon="6.05187">
        <ele>1569</ele>
        <time>2026-08-21T11:50:08.000Z</time>
      </trkpt>
      <trkpt lat="45.2882" lon="6.05186">
        <ele>1568.1999511719</ele>
        <time>2026-08-21T11:50:09.000Z</time>
      </trkpt>
      <trkpt lat="45.28821" lon="6.05188">
        <ele>1567.1999511719</ele>
        <time>2026-08-21T11:50:10.000Z</time>
      </trkpt>
      <trkpt lat="45.28823" lon="6.05189">
        <ele>1566.1999511719</ele>
        <time>2026-08-21T11:50:11.000Z</time>
      </trkpt>
      <trkpt lat="45.28824" lon="6.05191">
        <ele>1565.1999511719</ele>
        <time>2026-08-21T11:50:12.000Z</time>
      </trkpt>
      <trkpt lat="45.28825" lon="6.05192">
        <ele>1562.8000488281</ele>
        <time>2026-08-21T11:50:13.000Z</time>
      </trkpt>
      <trkpt lat="45.28826" lon="6.05193">
        <ele>1562.5999755859</ele>
        <time>2026-08-21T11:50:14.000Z</time>
      </trkpt>
      <trkpt lat="45.28828" lon="6.05194">
        <ele>1561.8000488281</ele>
        <time>2026-08-21T11:50:15.000Z</time>
      </trkpt>
      <trkpt lat="45.28829" lon="6.05195">
        <ele>1561.1999511719</ele>
        <time>2026-08-21T11:50:16.000Z</time>
      </trkpt>
      <trkpt lat="45.28831" lon="6.05196">
        <ele>1560.5999755859</ele>
        <time>2026-08-21T11:50:17.000Z</time>
      </trkpt>
      <trkpt lat="45.28833" lon="6.05197">
        <ele>1559</ele>
        <time>2026-08-21T11:50:18.000Z</time>
      </trkpt>
      <trkpt lat="45.28834" lon="6.05198">
        <ele>1558.5999755859</ele>
        <time>2026-08-21T11:50:19.000Z</time>
      </trkpt>
      <trkpt lat="45.28836" lon="6.05199">
        <ele>1558</ele>
        <time>2026-08-21T11:50:20.000Z</time>
      </trkpt>
      <trkpt lat="45.28837" lon="6.05199">
        <ele>1556.8000488281</ele>
        <time>2026-08-21T11:50:21.000Z</time>
      </trkpt>
      <trkpt lat="45.28838" lon="6.052">
        <ele>1555.5999755859</ele>
        <time>2026-08-21T11:50:22.000Z</time>
      </trkpt>
      <trkpt lat="45.2884" lon="6.05202">
        <ele>1554.4000244141</ele>
        <time>2026-08-21T11:50:23.000Z</time>
      </trkpt>
      <trkpt lat="45.28842" lon="6.05203">
        <ele>1554.4000244141</ele>
        <time>2026-08-21T11:50:24.000Z</time>
      </trkpt>
      <trkpt lat="45.28842" lon="6.05204">
        <ele>1554.4000244141</ele>
        <time>2026-08-21T11:50:25.000Z</time>
      </trkpt>
      <trkpt lat="45.28843" lon="6.05205">
        <ele>1554.4000244141</ele>
        <time>2026-08-21T11:50:26.000Z</time>
      </trkpt>
      <trkpt lat="45.28843" lon="6.05206">
        <ele>1554.1999511719</ele>
        <time>2026-08-21T11:50:27.000Z</time>
      </trkpt>
      <trkpt lat="45.28843" lon="6.05207">
        <ele>1554.1999511719</ele>
        <time>2026-08-21T11:50:28.000Z</time>
      </trkpt>
      <trkpt lat="45.28844" lon="6.05209">
        <ele>1554.1999511719</ele>
        <time>2026-08-21T11:50:29.000Z</time>
      </trkpt>
      <trkpt lat="45.28845" lon="6.05212">
        <ele>1553.4000244141</ele>
        <time>2026-08-21T11:50:30.000Z</time>
      </trkpt>
      <trkpt lat="45.28846" lon="6.05214">
        <ele>1552.8000488281</ele>
        <time>2026-08-21T11:50:31.000Z</time>
      </trkpt>
      <trkpt lat="45.28847" lon="6.05216">
        <ele>1552.5999755859</ele>
        <time>2026-08-21T11:50:32.000Z</time>
      </trkpt>
      <trkpt lat="45.28847" lon="6.05218">
        <ele>1552.4000244141</ele>
        <time>2026-08-21T11:50:33.000Z</time>
      </trkpt>
      <trkpt lat="45.28848" lon="6.0522">
        <ele>1551</ele>
        <time>2026-08-21T11:50:34.000Z</time>
      </trkpt>
      <trkpt lat="45.28849" lon="6.05223">
        <ele>1550.1999511719</ele>
        <time>2026-08-21T11:50:35.000Z</time>
      </trkpt>
      <trkpt lat="45.28849" lon="6.05225">
        <ele>1550</ele>
        <time>2026-08-21T11:50:36.000Z</time>
      </trkpt>
      <trkpt lat="45.2885" lon="6.05228">
        <ele>1549.5999755859</ele>
        <time>2026-08-21T11:50:37.000Z</time>
      </trkpt>
      <trkpt lat="45.2885" lon="6.05231">
        <ele>1549</ele>
        <time>2026-08-21T11:50:38.000Z</time>
      </trkpt>
      <trkpt lat="45.28851" lon="6.05233">
        <ele>1548.8000488281</ele>
        <time>2026-08-21T11:50:39.000Z</time>
      </trkpt>
      <trkpt lat="45.28852" lon="6.05235">
        <ele>1548.8000488281</ele>
        <time>2026-08-21T11:50:40.000Z</time>
      </trkpt>
      <trkpt lat="45.28853" lon="6.05236">
        <ele>1548.4000244141</ele>
        <time>2026-08-21T11:50:41.000Z</time>
      </trkpt>
      <trkpt lat="45.28854" lon="6.05239">
        <ele>1547.5999755859</ele>
        <time>2026-08-21T11:50:42.000Z</time>
      </trkpt>
      <trkpt lat="45.28855" lon="6.0524">
        <ele>1546.5999755859</ele>
        <time>2026-08-21T11:50:43.000Z</time>
      </trkpt>
      <trkpt lat="45.28856" lon="6.05241">
        <ele>1545.5999755859</ele>
        <time>2026-08-21T11:50:44.000Z</time>
      </trkpt>
      <trkpt lat="45.28857" lon="6.05243">
        <ele>1544.4000244141</ele>
        <time>2026-08-21T11:50:45.000Z</time>
      </trkpt>
      <trkpt lat="45.28858" lon="6.05245">
        <ele>1543.1999511719</ele>
        <time>2026-08-21T11:50:46.000Z</time>
      </trkpt>
      <trkpt lat="45.28859" lon="6.05247">
        <ele>1541.8000488281</ele>
        <time>2026-08-21T11:50:47.000Z</time>
      </trkpt>
      <trkpt lat="45.28859" lon="6.05249">
        <ele>1541.5999755859</ele>
        <time>2026-08-21T11:50:48.000Z</time>
      </trkpt>
      <trkpt lat="45.2886" lon="6.05251">
        <ele>1541.1999511719</ele>
        <time>2026-08-21T11:50:49.000Z</time>
      </trkpt>
      <trkpt lat="45.28861" lon="6.05253">
        <ele>1540.5999755859</ele>
        <time>2026-08-21T11:50:50.000Z</time>
      </trkpt>
      <trkpt lat="45.28861" lon="6.05255">
        <ele>1539.8000488281</ele>
        <time>2026-08-21T11:50:51.000Z</time>
      </trkpt>
      <trkpt lat="45.28862" lon="6.05256">
        <ele>1539.1999511719</ele>
        <time>2026-08-21T11:50:52.000Z</time>
      </trkpt>
      <trkpt lat="45.28863" lon="6.05257">
        <ele>1538.4000244141</ele>
        <time>2026-08-21T11:50:53.000Z</time>
      </trkpt>
      <trkpt lat="45.28863" lon="6.05258">
        <ele>1537.8000488281</ele>
        <time>2026-08-21T11:50:54.000Z</time>
      </trkpt>
      <trkpt lat="45.28864" lon="6.0526">
        <ele>1537.1999511719</ele>
        <time>2026-08-21T11:50:55.000Z</time>
      </trkpt>
      <trkpt lat="45.28864" lon="6.05261">
        <ele>1536.8000488281</ele>
        <time>2026-08-21T11:50:56.000Z</time>
      </trkpt>
      <trkpt lat="45.28863" lon="6.05264">
        <ele>1536.1999511719</ele>
        <time>2026-08-21T11:50:57.000Z</time>
      </trkpt>
      <trkpt lat="45.28862" lon="6.05265">
        <ele>1535.5999755859</ele>
        <time>2026-08-21T11:50:58.000Z</time>
      </trkpt>
      <trkpt lat="45.28861" lon="6.05266">
        <ele>1535</ele>
        <time>2026-08-21T11:50:59.000Z</time>
      </trkpt>
      <trkpt lat="45.2886" lon="6.05267">
        <ele>1534.8000488281</ele>
        <time>2026-08-21T11:51:00.000Z</time>
      </trkpt>
      <trkpt lat="45.2886" lon="6.05267">
        <ele>1534.8000488281</ele>
        <time>2026-08-21T11:51:01.000Z</time>
      </trkpt>
      <trkpt lat="45.28861" lon="6.05268">
        <ele>1534.5999755859</ele>
        <time>2026-08-21T11:51:02.000Z</time>
      </trkpt>
      <trkpt lat="45.28861" lon="6.05268">
        <ele>1534.4000244141</ele>
        <time>2026-08-21T11:51:03.000Z</time>
      </trkpt>
      <trkpt lat="45.28862" lon="6.05269">
        <ele>1534</ele>
        <time>2026-08-21T11:51:04.000Z</time>
      </trkpt>
      <trkpt lat="45.28862" lon="6.05268">
        <ele>1533</ele>
        <time>2026-08-21T11:51:05.000Z</time>
      </trkpt>
      <trkpt lat="45.28862" lon="6.05268">
        <ele>1532.5999755859</ele>
        <time>2026-08-21T11:51:06.000Z</time>
      </trkpt>
      <trkpt lat="45.28863" lon="6.05268">
        <ele>1532</ele>
        <time>2026-08-21T11:51:07.000Z</time>
      </trkpt>
      <trkpt lat="45.28864" lon="6.05269">
        <ele>1531.5999755859</ele>
        <time>2026-08-21T11:51:08.000Z</time>
      </trkpt>
      <trkpt lat="45.28865" lon="6.0527">
        <ele>1531</ele>
        <time>2026-08-21T11:51:09.000Z</time>
      </trkpt>
      <trkpt lat="45.28866" lon="6.05271">
        <ele>1531.1999511719</ele>
        <time>2026-08-21T11:51:10.000Z</time>
      </trkpt>
      <trkpt lat="45.28867" lon="6.05272">
        <ele>1530.8000488281</ele>
        <time>2026-08-21T11:51:11.000Z</time>
      </trkpt>
      <trkpt lat="45.28867" lon="6.05272">
        <ele>1530.8000488281</ele>
        <time>2026-08-21T11:51:12.000Z</time>
      </trkpt>
      <trkpt lat="45.28868" lon="6.05272">
        <ele>1530.5999755859</ele>
        <time>2026-08-21T11:51:13.000Z</time>
      </trkpt>
      <trkpt lat="45.2887" lon="6.05273">
        <ele>1530.1999511719</ele>
        <time>2026-08-21T11:51:14.000Z</time>
      </trkpt>
      <trkpt lat="45.28871" lon="6.05274">
        <ele>1529.5999755859</ele>
        <time>2026-08-21T11:51:15.000Z</time>
      </trkpt>
      <trkpt lat="45.28873" lon="6.05276">
        <ele>1529.4000244141</ele>
        <time>2026-08-21T11:51:16.000Z</time>
      </trkpt>
      <trkpt lat="45.28875" lon="6.05279">
        <ele>1529</ele>
        <time>2026-08-21T11:51:17.000Z</time>
      </trkpt>
      <trkpt lat="45.28878" lon="6.0528">
        <ele>1528.8000488281</ele>
        <time>2026-08-21T11:51:18.000Z</time>
      </trkpt>
      <trkpt lat="45.28881" lon="6.05282">
        <ele>1528.5999755859</ele>
        <time>2026-08-21T11:51:19.000Z</time>
      </trkpt>
      <trkpt lat="45.28883" lon="6.05285">
        <ele>1528.4000244141</ele>
        <time>2026-08-21T11:51:20.000Z</time>
      </trkpt>
      <trkpt lat="45.28885" lon="6.05288">
        <ele>1528.1999511719</ele>
        <time>2026-08-21T11:51:21.000Z</time>
      </trkpt>
      <trkpt lat="45.28887" lon="6.05291">
        <ele>1526.4000244141</ele>
        <time>2026-08-21T11:51:22.000Z</time>
      </trkpt>
      <trkpt lat="45.28889" lon="6.05295">
        <ele>1525.5999755859</ele>
        <time>2026-08-21T11:51:23.000Z</time>
      </trkpt>
      <trkpt lat="45.28891" lon="6.05298">
        <ele>1525</ele>
        <time>2026-08-21T11:51:24.000Z</time>
      </trkpt>
      <trkpt lat="45.28892" lon="6.05302">
        <ele>1524.1999511719</ele>
        <time>2026-08-21T11:51:25.000Z</time>
      </trkpt>
      <trkpt lat="45.28893" lon="6.05305">
        <ele>1523.5999755859</ele>
        <time>2026-08-21T11:51:26.000Z</time>
      </trkpt>
      <trkpt lat="45.28894" lon="6.05309">
        <ele>1522.8000488281</ele>
        <time>2026-08-21T11:51:27.000Z</time>
      </trkpt>
      <trkpt lat="45.28894" lon="6.05312">
        <ele>1521.1999511719</ele>
        <time>2026-08-21T11:51:28.000Z</time>
      </trkpt>
      <trkpt lat="45.28895" lon="6.05314">
        <ele>1521</ele>
        <time>2026-08-21T11:51:29.000Z</time>
      </trkpt>
      <trkpt lat="45.28896" lon="6.05317">
        <ele>1521</ele>
        <time>2026-08-21T11:51:30.000Z</time>
      </trkpt>
      <trkpt lat="45.28897" lon="6.0532">
        <ele>1521</ele>
        <time>2026-08-21T11:51:31.000Z</time>
      </trkpt>
      <trkpt lat="45.28899" lon="6.05322">
        <ele>1521</ele>
        <time>2026-08-21T11:51:32.000Z</time>
      </trkpt>
      <trkpt lat="45.289" lon="6.05324">
        <ele>1520.8000488281</ele>
        <time>2026-08-21T11:51:33.000Z</time>
      </trkpt>
      <trkpt lat="45.28902" lon="6.05326">
        <ele>1521</ele>
        <time>2026-08-21T11:51:34.000Z</time>
      </trkpt>
      <trkpt lat="45.28902" lon="6.05329">
        <ele>1521</ele>
        <time>2026-08-21T11:51:35.000Z</time>
      </trkpt>
      <trkpt lat="45.28903" lon="6.05331">
        <ele>1521</ele>
        <time>2026-08-21T11:51:36.000Z</time>
      </trkpt>
      <trkpt lat="45.28904" lon="6.05333">
        <ele>1520.8000488281</ele>
        <time>2026-08-21T11:51:37.000Z</time>
      </trkpt>
      <trkpt lat="45.28905" lon="6.05335">
        <ele>1520.8000488281</ele>
        <time>2026-08-21T11:51:38.000Z</time>
      </trkpt>
      <trkpt lat="45.28906" lon="6.05336">
        <ele>1520.8000488281</ele>
        <time>2026-08-21T11:51:39.000Z</time>
      </trkpt>
      <trkpt lat="45.28906" lon="6.05338">
        <ele>1520.8000488281</ele>
        <time>2026-08-21T11:51:40.000Z</time>
      </trkpt>
      <trkpt lat="45.28907" lon="6.05339">
        <ele>1520.5999755859</ele>
        <time>2026-08-21T11:51:41.000Z</time>
      </trkpt>
      <trkpt lat="45.28907" lon="6.05341">
        <ele>1520.4000244141</ele>
        <time>2026-08-21T11:51:42.000Z</time>
      </trkpt>
      <trkpt lat="45.28907" lon="6.05342">
        <ele>1520.1999511719</ele>
        <time>2026-08-21T11:51:43.000Z</time>
      </trkpt>
      <trkpt lat="45.28907" lon="6.05343">
        <ele>1519.8000488281</ele>
        <time>2026-08-21T11:51:44.000Z</time>
      </trkpt>
      <trkpt lat="45.28907" lon="6.05343">
        <ele>1519.4000244141</ele>
        <time>2026-08-21T11:51:45.000Z</time>
      </trkpt>
      <trkpt lat="45.28907" lon="6.05344">
        <ele>1519</ele>
        <time>2026-08-21T11:51:46.000Z</time>
      </trkpt>
      <trkpt lat="45.28907" lon="6.05345">
        <ele>1518.4000244141</ele>
        <time>2026-08-21T11:51:47.000Z</time>
      </trkpt>
      <trkpt lat="45.28907" lon="6.05345">
        <ele>1518.1999511719</ele>
        <time>2026-08-21T11:51:48.000Z</time>
      </trkpt>
      <trkpt lat="45.28907" lon="6.05346">
        <ele>1518</ele>
        <time>2026-08-21T11:51:49.000Z</time>
      </trkpt>
      <trkpt lat="45.28908" lon="6.05347">
        <ele>1517.8000488281</ele>
        <time>2026-08-21T11:51:50.000Z</time>
      </trkpt>
      <trkpt lat="45.28908" lon="6.05349">
        <ele>1517.4000244141</ele>
        <time>2026-08-21T11:51:51.000Z</time>
      </trkpt>
      <trkpt lat="45.28909" lon="6.05349">
        <ele>1517.4000244141</ele>
        <time>2026-08-21T11:51:52.000Z</time>
      </trkpt>
      <trkpt lat="45.28909" lon="6.0535">
        <ele>1516.8000488281</ele>
        <time>2026-08-21T11:51:53.000Z</time>
      </trkpt>
      <trkpt lat="45.2891" lon="6.0535">
        <ele>1516.5999755859</ele>
        <time>2026-08-21T11:51:54.000Z</time>
      </trkpt>
      <trkpt lat="45.28911" lon="6.0535">
        <ele>1516.4000244141</ele>
        <time>2026-08-21T11:51:55.000Z</time>
      </trkpt>
      <trkpt lat="45.28912" lon="6.05351">
        <ele>1516.1999511719</ele>
        <time>2026-08-21T11:51:56.000Z</time>
      </trkpt>
      <trkpt lat="45.28913" lon="6.05353">
        <ele>1515.4000244141</ele>
        <time>2026-08-21T11:51:57.000Z</time>
      </trkpt>
      <trkpt lat="45.28914" lon="6.05356">
        <ele>1515.1999511719</ele>
        <time>2026-08-21T11:51:58.000Z</time>
      </trkpt>
      <trkpt lat="45.28913" lon="6.05358">
        <ele>1515.1999511719</ele>
        <time>2026-08-21T11:51:59.000Z</time>
      </trkpt>
      <trkpt lat="45.28913" lon="6.05359">
        <ele>1515</ele>
        <time>2026-08-21T11:52:00.000Z</time>
      </trkpt>
      <trkpt lat="45.28912" lon="6.05361">
        <ele>1515</ele>
        <time>2026-08-21T11:52:01.000Z</time>
      </trkpt>
      <trkpt lat="45.28912" lon="6.05362">
        <ele>1514.8000488281</ele>
        <time>2026-08-21T11:52:02.000Z</time>
      </trkpt>
      <trkpt lat="45.28912" lon="6.05364">
        <ele>1513</ele>
        <time>2026-08-21T11:52:03.000Z</time>
      </trkpt>
      <trkpt lat="45.28913" lon="6.05365">
        <ele>1512.5999755859</ele>
        <time>2026-08-21T11:52:04.000Z</time>
      </trkpt>
      <trkpt lat="45.28913" lon="6.05366">
        <ele>1512</ele>
        <time>2026-08-21T11:52:05.000Z</time>
      </trkpt>
      <trkpt lat="45.28914" lon="6.05369">
        <ele>1511.5999755859</ele>
        <time>2026-08-21T11:52:06.000Z</time>
      </trkpt>
      <trkpt lat="45.28914" lon="6.05371">
        <ele>1511.1999511719</ele>
        <time>2026-08-21T11:52:07.000Z</time>
      </trkpt>
      <trkpt lat="45.28913" lon="6.05373">
        <ele>1511.1999511719</ele>
        <time>2026-08-21T11:52:08.000Z</time>
      </trkpt>
      <trkpt lat="45.28912" lon="6.05374">
        <ele>1510.8000488281</ele>
        <time>2026-08-21T11:52:09.000Z</time>
      </trkpt>
      <trkpt lat="45.28912" lon="6.05376">
        <ele>1510.4000244141</ele>
        <time>2026-08-21T11:52:10.000Z</time>
      </trkpt>
      <trkpt lat="45.28912" lon="6.05378">
        <ele>1510</ele>
        <time>2026-08-21T11:52:11.000Z</time>
      </trkpt>
      <trkpt lat="45.28912" lon="6.05381">
        <ele>1509.5999755859</ele>
        <time>2026-08-21T11:52:12.000Z</time>
      </trkpt>
      <trkpt lat="45.28913" lon="6.05382">
        <ele>1508.1999511719</ele>
        <time>2026-08-21T11:52:13.000Z</time>
      </trkpt>
      <trkpt lat="45.28914" lon="6.05384">
        <ele>1507.8000488281</ele>
        <time>2026-08-21T11:52:14.000Z</time>
      </trkpt>
      <trkpt lat="45.28916" lon="6.05385">
        <ele>1507.5999755859</ele>
        <time>2026-08-21T11:52:15.000Z</time>
      </trkpt>
      <trkpt lat="45.28917" lon="6.05387">
        <ele>1507.1999511719</ele>
        <time>2026-08-21T11:52:16.000Z</time>
      </trkpt>
      <trkpt lat="45.28918" lon="6.05388">
        <ele>1506.8000488281</ele>
        <time>2026-08-21T11:52:17.000Z</time>
      </trkpt>
      <trkpt lat="45.28919" lon="6.05392">
        <ele>1506.4000244141</ele>
        <time>2026-08-21T11:52:18.000Z</time>
      </trkpt>
      <trkpt lat="45.28919" lon="6.05393">
        <ele>1505</ele>
        <time>2026-08-21T11:52:19.000Z</time>
      </trkpt>
      <trkpt lat="45.2892" lon="6.05396">
        <ele>1503.8000488281</ele>
        <time>2026-08-21T11:52:20.000Z</time>
      </trkpt>
      <trkpt lat="45.2892" lon="6.05399">
        <ele>1502.4000244141</ele>
        <time>2026-08-21T11:52:21.000Z</time>
      </trkpt>
      <trkpt lat="45.28921" lon="6.05401">
        <ele>1501.1999511719</ele>
        <time>2026-08-21T11:52:22.000Z</time>
      </trkpt>
      <trkpt lat="45.28922" lon="6.05403">
        <ele>1500.4000244141</ele>
        <time>2026-08-21T11:52:23.000Z</time>
      </trkpt>
      <trkpt lat="45.28922" lon="6.05405">
        <ele>1498.4000244141</ele>
        <time>2026-08-21T11:52:24.000Z</time>
      </trkpt>
      <trkpt lat="45.28923" lon="6.05408">
        <ele>1497.4000244141</ele>
        <time>2026-08-21T11:52:25.000Z</time>
      </trkpt>
      <trkpt lat="45.28924" lon="6.05411">
        <ele>1496.4000244141</ele>
        <time>2026-08-21T11:52:26.000Z</time>
      </trkpt>
      <trkpt lat="45.28926" lon="6.05414">
        <ele>1496.4000244141</ele>
        <time>2026-08-21T11:52:27.000Z</time>
      </trkpt>
      <trkpt lat="45.28926" lon="6.05415">
        <ele>1496.8000488281</ele>
        <time>2026-08-21T11:52:28.000Z</time>
      </trkpt>
      <trkpt lat="45.28928" lon="6.05417">
        <ele>1497</ele>
        <time>2026-08-21T11:52:29.000Z</time>
      </trkpt>
      <trkpt lat="45.28929" lon="6.05419">
        <ele>1497.1999511719</ele>
        <time>2026-08-21T11:52:30.000Z</time>
      </trkpt>
      <trkpt lat="45.28931" lon="6.05422">
        <ele>1497.5999755859</ele>
        <time>2026-08-21T11:52:31.000Z</time>
      </trkpt>
      <trkpt lat="45.28932" lon="6.05424">
        <ele>1498</ele>
        <time>2026-08-21T11:52:32.000Z</time>
      </trkpt>
      <trkpt lat="45.28933" lon="6.05427">
        <ele>1498</ele>
        <time>2026-08-21T11:52:33.000Z</time>
      </trkpt>
      <trkpt lat="45.28934" lon="6.05428">
        <ele>1498</ele>
        <time>2026-08-21T11:52:34.000Z</time>
      </trkpt>
      <trkpt lat="45.28936" lon="6.05429">
        <ele>1497.5999755859</ele>
        <time>2026-08-21T11:52:35.000Z</time>
      </trkpt>
      <trkpt lat="45.28938" lon="6.05431">
        <ele>1497.1999511719</ele>
        <time>2026-08-21T11:52:36.000Z</time>
      </trkpt>
      <trkpt lat="45.2894" lon="6.05433">
        <ele>1496.8000488281</ele>
        <time>2026-08-21T11:52:37.000Z</time>
      </trkpt>
      <trkpt lat="45.28941" lon="6.05435">
        <ele>1496.5999755859</ele>
        <time>2026-08-21T11:52:38.000Z</time>
      </trkpt>
      <trkpt lat="45.28944" lon="6.05436">
        <ele>1496.5999755859</ele>
        <time>2026-08-21T11:52:39.000Z</time>
      </trkpt>
      <trkpt lat="45.28946" lon="6.05438">
        <ele>1496.1999511719</ele>
        <time>2026-08-21T11:52:40.000Z</time>
      </trkpt>
      <trkpt lat="45.28948" lon="6.0544">
        <ele>1496</ele>
        <time>2026-08-21T11:52:41.000Z</time>
      </trkpt>
      <trkpt lat="45.28949" lon="6.05442">
        <ele>1496.1999511719</ele>
        <time>2026-08-21T11:52:42.000Z</time>
      </trkpt>
      <trkpt lat="45.28951" lon="6.05444">
        <ele>1496.1999511719</ele>
        <time>2026-08-21T11:52:43.000Z</time>
      </trkpt>
      <trkpt lat="45.28953" lon="6.05447">
        <ele>1496.1999511719</ele>
        <time>2026-08-21T11:52:44.000Z</time>
      </trkpt>
      <trkpt lat="45.28955" lon="6.05449">
        <ele>1496</ele>
        <time>2026-08-21T11:52:45.000Z</time>
      </trkpt>
      <trkpt lat="45.28956" lon="6.05451">
        <ele>1495.8000488281</ele>
        <time>2026-08-21T11:52:46.000Z</time>
      </trkpt>
      <trkpt lat="45.28958" lon="6.05454">
        <ele>1494.1999511719</ele>
        <time>2026-08-21T11:52:47.000Z</time>
      </trkpt>
      <trkpt lat="45.28959" lon="6.05455">
        <ele>1494</ele>
        <time>2026-08-21T11:52:48.000Z</time>
      </trkpt>
      <trkpt lat="45.2896" lon="6.05457">
        <ele>1493.1999511719</ele>
        <time>2026-08-21T11:52:49.000Z</time>
      </trkpt>
      <trkpt lat="45.28961" lon="6.05458">
        <ele>1493</ele>
        <time>2026-08-21T11:52:50.000Z</time>
      </trkpt>
      <trkpt lat="45.28962" lon="6.05459">
        <ele>1492.5999755859</ele>
        <time>2026-08-21T11:52:51.000Z</time>
      </trkpt>
      <trkpt lat="45.28963" lon="6.0546">
        <ele>1492.5999755859</ele>
        <time>2026-08-21T11:52:52.000Z</time>
      </trkpt>
      <trkpt lat="45.28964" lon="6.05462">
        <ele>1492.4000244141</ele>
        <time>2026-08-21T11:52:53.000Z</time>
      </trkpt>
      <trkpt lat="45.28965" lon="6.05463">
        <ele>1492</ele>
        <time>2026-08-21T11:52:54.000Z</time>
      </trkpt>
      <trkpt lat="45.28966" lon="6.05465">
        <ele>1491.4000244141</ele>
        <time>2026-08-21T11:52:55.000Z</time>
      </trkpt>
      <trkpt lat="45.28968" lon="6.05466">
        <ele>1490.1999511719</ele>
        <time>2026-08-21T11:52:56.000Z</time>
      </trkpt>
      <trkpt lat="45.2897" lon="6.05466">
        <ele>1489.8000488281</ele>
        <time>2026-08-21T11:52:57.000Z</time>
      </trkpt>
      <trkpt lat="45.28972" lon="6.05466">
        <ele>1489.8000488281</ele>
        <time>2026-08-21T11:52:58.000Z</time>
      </trkpt>
      <trkpt lat="45.28973" lon="6.05467">
        <ele>1489.5999755859</ele>
        <time>2026-08-21T11:52:59.000Z</time>
      </trkpt>
      <trkpt lat="45.28975" lon="6.05467">
        <ele>1489.8000488281</ele>
        <time>2026-08-21T11:53:00.000Z</time>
      </trkpt>
      <trkpt lat="45.28976" lon="6.05466">
        <ele>1489.8000488281</ele>
        <time>2026-08-21T11:53:01.000Z</time>
      </trkpt>
      <trkpt lat="45.28978" lon="6.05466">
        <ele>1489.8000488281</ele>
        <time>2026-08-21T11:53:02.000Z</time>
      </trkpt>
      <trkpt lat="45.28979" lon="6.05465">
        <ele>1489.5999755859</ele>
        <time>2026-08-21T11:53:03.000Z</time>
      </trkpt>
      <trkpt lat="45.28981" lon="6.05465">
        <ele>1488.8000488281</ele>
        <time>2026-08-21T11:53:04.000Z</time>
      </trkpt>
      <trkpt lat="45.28982" lon="6.05465">
        <ele>1488.1999511719</ele>
        <time>2026-08-21T11:53:05.000Z</time>
      </trkpt>
      <trkpt lat="45.28984" lon="6.05466">
        <ele>1487.4000244141</ele>
        <time>2026-08-21T11:53:06.000Z</time>
      </trkpt>
      <trkpt lat="45.28986" lon="6.05467">
        <ele>1486.8000488281</ele>
        <time>2026-08-21T11:53:07.000Z</time>
      </trkpt>
      <trkpt lat="45.28987" lon="6.05468">
        <ele>1487</ele>
        <time>2026-08-21T11:53:08.000Z</time>
      </trkpt>
      <trkpt lat="45.28988" lon="6.05469">
        <ele>1487</ele>
        <time>2026-08-21T11:53:09.000Z</time>
      </trkpt>
      <trkpt lat="45.28989" lon="6.0547">
        <ele>1487</ele>
        <time>2026-08-21T11:53:10.000Z</time>
      </trkpt>
      <trkpt lat="45.2899" lon="6.05472">
        <ele>1487.1999511719</ele>
        <time>2026-08-21T11:53:11.000Z</time>
      </trkpt>
      <trkpt lat="45.28991" lon="6.05474">
        <ele>1487.4000244141</ele>
        <time>2026-08-21T11:53:12.000Z</time>
      </trkpt>
      <trkpt lat="45.28992" lon="6.05476">
        <ele>1486.8000488281</ele>
        <time>2026-08-21T11:53:13.000Z</time>
      </trkpt>
      <trkpt lat="45.28993" lon="6.05478">
        <ele>1486.5999755859</ele>
        <time>2026-08-21T11:53:14.000Z</time>
      </trkpt>
      <trkpt lat="45.28995" lon="6.0548">
        <ele>1486.1999511719</ele>
        <time>2026-08-21T11:53:15.000Z</time>
      </trkpt>
      <trkpt lat="45.28997" lon="6.05481">
        <ele>1486.1999511719</ele>
        <time>2026-08-21T11:53:16.000Z</time>
      </trkpt>
      <trkpt lat="45.28998" lon="6.05483">
        <ele>1485.8000488281</ele>
        <time>2026-08-21T11:53:17.000Z</time>
      </trkpt>
      <trkpt lat="45.29" lon="6.05484">
        <ele>1485.5999755859</ele>
        <time>2026-08-21T11:53:18.000Z</time>
      </trkpt>
      <trkpt lat="45.29002" lon="6.05485">
        <ele>1484</ele>
        <time>2026-08-21T11:53:19.000Z</time>
      </trkpt>
      <trkpt lat="45.29004" lon="6.05487">
        <ele>1483</ele>
        <time>2026-08-21T11:53:20.000Z</time>
      </trkpt>
      <trkpt lat="45.29006" lon="6.05488">
        <ele>1482</ele>
        <time>2026-08-21T11:53:21.000Z</time>
      </trkpt>
      <trkpt lat="45.29008" lon="6.05491">
        <ele>1481</ele>
        <time>2026-08-21T11:53:22.000Z</time>
      </trkpt>
      <trkpt lat="45.2901" lon="6.05493">
        <ele>1480.1999511719</ele>
        <time>2026-08-21T11:53:23.000Z</time>
      </trkpt>
      <trkpt lat="45.29011" lon="6.05495">
        <ele>1478</ele>
        <time>2026-08-21T11:53:24.000Z</time>
      </trkpt>
      <trkpt lat="45.29013" lon="6.05497">
        <ele>1478</ele>
        <time>2026-08-21T11:53:25.000Z</time>
      </trkpt>
      <trkpt lat="45.29014" lon="6.05499">
        <ele>1477.5999755859</ele>
        <time>2026-08-21T11:53:26.000Z</time>
      </trkpt>
      <trkpt lat="45.29015" lon="6.05501">
        <ele>1477.8000488281</ele>
        <time>2026-08-21T11:53:27.000Z</time>
      </trkpt>
      <trkpt lat="45.29017" lon="6.05503">
        <ele>1478.4000244141</ele>
        <time>2026-08-21T11:53:28.000Z</time>
      </trkpt>
      <trkpt lat="45.29019" lon="6.05505">
        <ele>1479</ele>
        <time>2026-08-21T11:53:29.000Z</time>
      </trkpt>
      <trkpt lat="45.2902" lon="6.05507">
        <ele>1479.8000488281</ele>
        <time>2026-08-21T11:53:30.000Z</time>
      </trkpt>
      <trkpt lat="45.29022" lon="6.05509">
        <ele>1481</ele>
        <time>2026-08-21T11:53:31.000Z</time>
      </trkpt>
      <trkpt lat="45.29024" lon="6.05511">
        <ele>1481.8000488281</ele>
        <time>2026-08-21T11:53:32.000Z</time>
      </trkpt>
      <trkpt lat="45.29025" lon="6.05513">
        <ele>1483.5999755859</ele>
        <time>2026-08-21T11:53:33.000Z</time>
      </trkpt>
      <trkpt lat="45.29027" lon="6.05514">
        <ele>1483.8000488281</ele>
        <time>2026-08-21T11:53:34.000Z</time>
      </trkpt>
      <trkpt lat="45.29029" lon="6.05515">
        <ele>1484.1999511719</ele>
        <time>2026-08-21T11:53:35.000Z</time>
      </trkpt>
      <trkpt lat="45.2903" lon="6.05515">
        <ele>1484.4000244141</ele>
        <time>2026-08-21T11:53:36.000Z</time>
      </trkpt>
      <trkpt lat="45.29031" lon="6.05516">
        <ele>1484.8000488281</ele>
        <time>2026-08-21T11:53:37.000Z</time>
      </trkpt>
      <trkpt lat="45.29032" lon="6.05517">
        <ele>1485</ele>
        <time>2026-08-21T11:53:38.000Z</time>
      </trkpt>
      <trkpt lat="45.29033" lon="6.05518">
        <ele>1485</ele>
        <time>2026-08-21T11:53:39.000Z</time>
      </trkpt>
      <trkpt lat="45.29034" lon="6.05518">
        <ele>1484.8000488281</ele>
        <time>2026-08-21T11:53:40.000Z</time>
      </trkpt>
      <trkpt lat="45.29035" lon="6.05519">
        <ele>1484</ele>
        <time>2026-08-21T11:53:41.000Z</time>
      </trkpt>
      <trkpt lat="45.29036" lon="6.05521">
        <ele>1483.1999511719</ele>
        <time>2026-08-21T11:53:42.000Z</time>
      </trkpt>
      <trkpt lat="45.29037" lon="6.05523">
        <ele>1482.5999755859</ele>
        <time>2026-08-21T11:53:43.000Z</time>
      </trkpt>
      <trkpt lat="45.29039" lon="6.05525">
        <ele>1481.8000488281</ele>
        <time>2026-08-21T11:53:44.000Z</time>
      </trkpt>
      <trkpt lat="45.29041" lon="6.05527">
        <ele>1481</ele>
        <time>2026-08-21T11:53:45.000Z</time>
      </trkpt>
      <trkpt lat="45.29043" lon="6.0553">
        <ele>1480.1999511719</ele>
        <time>2026-08-21T11:53:46.000Z</time>
      </trkpt>
      <trkpt lat="45.29045" lon="6.05532">
        <ele>1479.5999755859</ele>
        <time>2026-08-21T11:53:47.000Z</time>
      </trkpt>
      <trkpt lat="45.29046" lon="6.05535">
        <ele>1478.8000488281</ele>
        <time>2026-08-21T11:53:48.000Z</time>
      </trkpt>
      <trkpt lat="45.29048" lon="6.05537">
        <ele>1478</ele>
        <time>2026-08-21T11:53:49.000Z</time>
      </trkpt>
      <trkpt lat="45.2905" lon="6.05539">
        <ele>1474.1999511719</ele>
        <time>2026-08-21T11:53:50.000Z</time>
      </trkpt>
      <trkpt lat="45.29052" lon="6.05541">
        <ele>1471.5999755859</ele>
        <time>2026-08-21T11:53:51.000Z</time>
      </trkpt>
      <trkpt lat="45.29053" lon="6.05543">
        <ele>1470.1999511719</ele>
        <time>2026-08-21T11:53:52.000Z</time>
      </trkpt>
      <trkpt lat="45.29055" lon="6.05545">
        <ele>1469.8000488281</ele>
        <time>2026-08-21T11:53:53.000Z</time>
      </trkpt>
      <trkpt lat="45.29056" lon="6.05547">
        <ele>1469.4000244141</ele>
        <time>2026-08-21T11:53:54.000Z</time>
      </trkpt>
      <trkpt lat="45.29058" lon="6.05548">
        <ele>1468.5999755859</ele>
        <time>2026-08-21T11:53:55.000Z</time>
      </trkpt>
      <trkpt lat="45.2906" lon="6.05549">
        <ele>1467.5999755859</ele>
        <time>2026-08-21T11:53:56.000Z</time>
      </trkpt>
      <trkpt lat="45.29061" lon="6.05551">
        <ele>1466.8000488281</ele>
        <time>2026-08-21T11:53:57.000Z</time>
      </trkpt>
      <trkpt lat="45.29063" lon="6.05552">
        <ele>1467.1999511719</ele>
        <time>2026-08-21T11:53:58.000Z</time>
      </trkpt>
      <trkpt lat="45.29065" lon="6.05554">
        <ele>1467.8000488281</ele>
        <time>2026-08-21T11:53:59.000Z</time>
      </trkpt>
      <trkpt lat="45.29067" lon="6.05556">
        <ele>1467.8000488281</ele>
        <time>2026-08-21T11:54:00.000Z</time>
      </trkpt>
      <trkpt lat="45.29069" lon="6.05557">
        <ele>1468</ele>
        <time>2026-08-21T11:54:01.000Z</time>
      </trkpt>
      <trkpt lat="45.2907" lon="6.05559">
        <ele>1468.4000244141</ele>
        <time>2026-08-21T11:54:02.000Z</time>
      </trkpt>
      <trkpt lat="45.29072" lon="6.05562">
        <ele>1468.8000488281</ele>
        <time>2026-08-21T11:54:03.000Z</time>
      </trkpt>
      <trkpt lat="45.29073" lon="6.05565">
        <ele>1469.4000244141</ele>
        <time>2026-08-21T11:54:04.000Z</time>
      </trkpt>
      <trkpt lat="45.29074" lon="6.05566">
        <ele>1469.5999755859</ele>
        <time>2026-08-21T11:54:05.000Z</time>
      </trkpt>
      <trkpt lat="45.29075" lon="6.05568">
        <ele>1469.8000488281</ele>
        <time>2026-08-21T11:54:06.000Z</time>
      </trkpt>
      <trkpt lat="45.29076" lon="6.05569">
        <ele>1469.5999755859</ele>
        <time>2026-08-21T11:54:07.000Z</time>
      </trkpt>
      <trkpt lat="45.29076" lon="6.05571">
        <ele>1469.4000244141</ele>
        <time>2026-08-21T11:54:08.000Z</time>
      </trkpt>
      <trkpt lat="45.29076" lon="6.05573">
        <ele>1469.1999511719</ele>
        <time>2026-08-21T11:54:09.000Z</time>
      </trkpt>
      <trkpt lat="45.29077" lon="6.05576">
        <ele>1469</ele>
        <time>2026-08-21T11:54:10.000Z</time>
      </trkpt>
      <trkpt lat="45.29078" lon="6.05578">
        <ele>1468.4000244141</ele>
        <time>2026-08-21T11:54:11.000Z</time>
      </trkpt>
      <trkpt lat="45.29079" lon="6.05581">
        <ele>1468.1999511719</ele>
        <time>2026-08-21T11:54:12.000Z</time>
      </trkpt>
      <trkpt lat="45.2908" lon="6.05583">
        <ele>1467.1999511719</ele>
        <time>2026-08-21T11:54:13.000Z</time>
      </trkpt>
      <trkpt lat="45.29081" lon="6.05585">
        <ele>1466.8000488281</ele>
        <time>2026-08-21T11:54:14.000Z</time>
      </trkpt>
      <trkpt lat="45.29081" lon="6.05588">
        <ele>1466.1999511719</ele>
        <time>2026-08-21T11:54:15.000Z</time>
      </trkpt>
      <trkpt lat="45.29082" lon="6.05591">
        <ele>1466.1999511719</ele>
        <time>2026-08-21T11:54:16.000Z</time>
      </trkpt>
      <trkpt lat="45.29083" lon="6.05593">
        <ele>1465.8000488281</ele>
        <time>2026-08-21T11:54:17.000Z</time>
      </trkpt>
      <trkpt lat="45.29084" lon="6.05596">
        <ele>1465.4000244141</ele>
        <time>2026-08-21T11:54:18.000Z</time>
      </trkpt>
      <trkpt lat="45.29085" lon="6.05598">
        <ele>1464.8000488281</ele>
        <time>2026-08-21T11:54:19.000Z</time>
      </trkpt>
      <trkpt lat="45.29086" lon="6.05601">
        <ele>1464.1999511719</ele>
        <time>2026-08-21T11:54:20.000Z</time>
      </trkpt>
      <trkpt lat="45.29087" lon="6.05603">
        <ele>1463</ele>
        <time>2026-08-21T11:54:21.000Z</time>
      </trkpt>
      <trkpt lat="45.29089" lon="6.05605">
        <ele>1462.8000488281</ele>
        <time>2026-08-21T11:54:22.000Z</time>
      </trkpt>
      <trkpt lat="45.29091" lon="6.05607">
        <ele>1462.1999511719</ele>
        <time>2026-08-21T11:54:23.000Z</time>
      </trkpt>
      <trkpt lat="45.29093" lon="6.05609">
        <ele>1461.5999755859</ele>
        <time>2026-08-21T11:54:24.000Z</time>
      </trkpt>
      <trkpt lat="45.29095" lon="6.05611">
        <ele>1460.5999755859</ele>
        <time>2026-08-21T11:54:25.000Z</time>
      </trkpt>
      <trkpt lat="45.29096" lon="6.05612">
        <ele>1460.1999511719</ele>
        <time>2026-08-21T11:54:26.000Z</time>
      </trkpt>
      <trkpt lat="45.29099" lon="6.05613">
        <ele>1459.5999755859</ele>
        <time>2026-08-21T11:54:27.000Z</time>
      </trkpt>
      <trkpt lat="45.29101" lon="6.05615">
        <ele>1459</ele>
        <time>2026-08-21T11:54:28.000Z</time>
      </trkpt>
      <trkpt lat="45.29103" lon="6.05617">
        <ele>1458.4000244141</ele>
        <time>2026-08-21T11:54:29.000Z</time>
      </trkpt>
      <trkpt lat="45.29105" lon="6.05619">
        <ele>1458</ele>
        <time>2026-08-21T11:54:30.000Z</time>
      </trkpt>
      <trkpt lat="45.29108" lon="6.0562">
        <ele>1457.5999755859</ele>
        <time>2026-08-21T11:54:31.000Z</time>
      </trkpt>
      <trkpt lat="45.29109" lon="6.05622">
        <ele>1457.4000244141</ele>
        <time>2026-08-21T11:54:32.000Z</time>
      </trkpt>
      <trkpt lat="45.29111" lon="6.05625">
        <ele>1456.8000488281</ele>
        <time>2026-08-21T11:54:33.000Z</time>
      </trkpt>
      <trkpt lat="45.29113" lon="6.05629">
        <ele>1456.4000244141</ele>
        <time>2026-08-21T11:54:34.000Z</time>
      </trkpt>
      <trkpt lat="45.29115" lon="6.05632">
        <ele>1456</ele>
        <time>2026-08-21T11:54:35.000Z</time>
      </trkpt>
      <trkpt lat="45.29116" lon="6.05634">
        <ele>1455.5999755859</ele>
        <time>2026-08-21T11:54:36.000Z</time>
      </trkpt>
      <trkpt lat="45.29117" lon="6.05637">
        <ele>1454.8000488281</ele>
        <time>2026-08-21T11:54:37.000Z</time>
      </trkpt>
      <trkpt lat="45.29118" lon="6.05641">
        <ele>1453.4000244141</ele>
        <time>2026-08-21T11:54:38.000Z</time>
      </trkpt>
      <trkpt lat="45.29119" lon="6.05644">
        <ele>1452</ele>
        <time>2026-08-21T11:54:39.000Z</time>
      </trkpt>
      <trkpt lat="45.2912" lon="6.05647">
        <ele>1451.5999755859</ele>
        <time>2026-08-21T11:54:40.000Z</time>
      </trkpt>
      <trkpt lat="45.2912" lon="6.0565">
        <ele>1451.1999511719</ele>
        <time>2026-08-21T11:54:41.000Z</time>
      </trkpt>
      <trkpt lat="45.2912" lon="6.05653">
        <ele>1450.8000488281</ele>
        <time>2026-08-21T11:54:42.000Z</time>
      </trkpt>
      <trkpt lat="45.2912" lon="6.05656">
        <ele>1450.4000244141</ele>
        <time>2026-08-21T11:54:43.000Z</time>
      </trkpt>
      <trkpt lat="45.2912" lon="6.05659">
        <ele>1450.4000244141</ele>
        <time>2026-08-21T11:54:44.000Z</time>
      </trkpt>
      <trkpt lat="45.2912" lon="6.05662">
        <ele>1450.4000244141</ele>
        <time>2026-08-21T11:54:45.000Z</time>
      </trkpt>
      <trkpt lat="45.29119" lon="6.05665">
        <ele>1450.1999511719</ele>
        <time>2026-08-21T11:54:46.000Z</time>
      </trkpt>
      <trkpt lat="45.29119" lon="6.05668">
        <ele>1450.1999511719</ele>
        <time>2026-08-21T11:54:47.000Z</time>
      </trkpt>
      <trkpt lat="45.29119" lon="6.05671">
        <ele>1448.5999755859</ele>
        <time>2026-08-21T11:54:48.000Z</time>
      </trkpt>
      <trkpt lat="45.29118" lon="6.05675">
        <ele>1448.5999755859</ele>
        <time>2026-08-21T11:54:49.000Z</time>
      </trkpt>
      <trkpt lat="45.29118" lon="6.05678">
        <ele>1448.4000244141</ele>
        <time>2026-08-21T11:54:50.000Z</time>
      </trkpt>
      <trkpt lat="45.29119" lon="6.05681">
        <ele>1448.1999511719</ele>
        <time>2026-08-21T11:54:51.000Z</time>
      </trkpt>
      <trkpt lat="45.29119" lon="6.05684">
        <ele>1448</ele>
        <time>2026-08-21T11:54:52.000Z</time>
      </trkpt>
      <trkpt lat="45.29118" lon="6.05687">
        <ele>1447.8000488281</ele>
        <time>2026-08-21T11:54:53.000Z</time>
      </trkpt>
      <trkpt lat="45.29118" lon="6.05689">
        <ele>1447.5999755859</ele>
        <time>2026-08-21T11:54:54.000Z</time>
      </trkpt>
      <trkpt lat="45.29117" lon="6.05692">
        <ele>1447.4000244141</ele>
        <time>2026-08-21T11:54:55.000Z</time>
      </trkpt>
      <trkpt lat="45.29117" lon="6.05694">
        <ele>1448</ele>
        <time>2026-08-21T11:54:56.000Z</time>
      </trkpt>
      <trkpt lat="45.29117" lon="6.05696">
        <ele>1448.5999755859</ele>
        <time>2026-08-21T11:54:57.000Z</time>
      </trkpt>
      <trkpt lat="45.29116" lon="6.05699">
        <ele>1449</ele>
        <time>2026-08-21T11:54:58.000Z</time>
      </trkpt>
      <trkpt lat="45.29115" lon="6.05702">
        <ele>1449.1999511719</ele>
        <time>2026-08-21T11:54:59.000Z</time>
      </trkpt>
      <trkpt lat="45.29114" lon="6.05705">
        <ele>1449</ele>
        <time>2026-08-21T11:55:00.000Z</time>
      </trkpt>
      <trkpt lat="45.29113" lon="6.05706">
        <ele>1448.8000488281</ele>
        <time>2026-08-21T11:55:01.000Z</time>
      </trkpt>
      <trkpt lat="45.29112" lon="6.05709">
        <ele>1446.8000488281</ele>
        <time>2026-08-21T11:55:02.000Z</time>
      </trkpt>
      <trkpt lat="45.2911" lon="6.05711">
        <ele>1445.5999755859</ele>
        <time>2026-08-21T11:55:03.000Z</time>
      </trkpt>
      <trkpt lat="45.29109" lon="6.05713">
        <ele>1444.4000244141</ele>
        <time>2026-08-21T11:55:04.000Z</time>
      </trkpt>
      <trkpt lat="45.29107" lon="6.05714">
        <ele>1444</ele>
        <time>2026-08-21T11:55:05.000Z</time>
      </trkpt>
      <trkpt lat="45.29104" lon="6.05716">
        <ele>1443.4000244141</ele>
        <time>2026-08-21T11:55:06.000Z</time>
      </trkpt>
      <trkpt lat="45.29102" lon="6.05719">
        <ele>1443</ele>
        <time>2026-08-21T11:55:07.000Z</time>
      </trkpt>
      <trkpt lat="45.291" lon="6.05721">
        <ele>1442.4000244141</ele>
        <time>2026-08-21T11:55:08.000Z</time>
      </trkpt>
      <trkpt lat="45.29098" lon="6.05724">
        <ele>1441.1999511719</ele>
        <time>2026-08-21T11:55:09.000Z</time>
      </trkpt>
      <trkpt lat="45.29095" lon="6.05726">
        <ele>1440</ele>
        <time>2026-08-21T11:55:10.000Z</time>
      </trkpt>
      <trkpt lat="45.29093" lon="6.05728">
        <ele>1440.5999755859</ele>
        <time>2026-08-21T11:55:11.000Z</time>
      </trkpt>
      <trkpt lat="45.2909" lon="6.05731">
        <ele>1440.5999755859</ele>
        <time>2026-08-21T11:55:12.000Z</time>
      </trkpt>
      <trkpt lat="45.29088" lon="6.05732">
        <ele>1440.5999755859</ele>
        <time>2026-08-21T11:55:13.000Z</time>
      </trkpt>
      <trkpt lat="45.29087" lon="6.05734">
        <ele>1440.5999755859</ele>
        <time>2026-08-21T11:55:14.000Z</time>
      </trkpt>
      <trkpt lat="45.29086" lon="6.05737">
        <ele>1440.4000244141</ele>
        <time>2026-08-21T11:55:15.000Z</time>
      </trkpt>
      <trkpt lat="45.29084" lon="6.05739">
        <ele>1440.1999511719</ele>
        <time>2026-08-21T11:55:16.000Z</time>
      </trkpt>
      <trkpt lat="45.29083" lon="6.0574">
        <ele>1439</ele>
        <time>2026-08-21T11:55:17.000Z</time>
      </trkpt>
      <trkpt lat="45.29082" lon="6.05742">
        <ele>1437.5999755859</ele>
        <time>2026-08-21T11:55:18.000Z</time>
      </trkpt>
      <trkpt lat="45.29081" lon="6.05744">
        <ele>1436.1999511719</ele>
        <time>2026-08-21T11:55:19.000Z</time>
      </trkpt>
      <trkpt lat="45.29079" lon="6.05746">
        <ele>1435.5999755859</ele>
        <time>2026-08-21T11:55:20.000Z</time>
      </trkpt>
      <trkpt lat="45.29078" lon="6.05747">
        <ele>1435</ele>
        <time>2026-08-21T11:55:21.000Z</time>
      </trkpt>
      <trkpt lat="45.29077" lon="6.05748">
        <ele>1434.8000488281</ele>
        <time>2026-08-21T11:55:22.000Z</time>
      </trkpt>
      <trkpt lat="45.29076" lon="6.0575">
        <ele>1434.4000244141</ele>
        <time>2026-08-21T11:55:23.000Z</time>
      </trkpt>
      <trkpt lat="45.29075" lon="6.05752">
        <ele>1434.4000244141</ele>
        <time>2026-08-21T11:55:24.000Z</time>
      </trkpt>
      <trkpt lat="45.29074" lon="6.05754">
        <ele>1434.1999511719</ele>
        <time>2026-08-21T11:55:25.000Z</time>
      </trkpt>
      <trkpt lat="45.29073" lon="6.05754">
        <ele>1434</ele>
        <time>2026-08-21T11:55:26.000Z</time>
      </trkpt>
      <trkpt lat="45.29071" lon="6.05753">
        <ele>1433.1999511719</ele>
        <time>2026-08-21T11:55:27.000Z</time>
      </trkpt>
      <trkpt lat="45.29069" lon="6.05753">
        <ele>1432.8000488281</ele>
        <time>2026-08-21T11:55:28.000Z</time>
      </trkpt>
      <trkpt lat="45.29067" lon="6.05752">
        <ele>1432.1999511719</ele>
        <time>2026-08-21T11:55:29.000Z</time>
      </trkpt>
      <trkpt lat="45.29064" lon="6.05752">
        <ele>1431.8000488281</ele>
        <time>2026-08-21T11:55:30.000Z</time>
      </trkpt>
      <trkpt lat="45.29062" lon="6.05752">
        <ele>1431.4000244141</ele>
        <time>2026-08-21T11:55:31.000Z</time>
      </trkpt>
      <trkpt lat="45.29061" lon="6.05751">
        <ele>1431</ele>
        <time>2026-08-21T11:55:32.000Z</time>
      </trkpt>
      <trkpt lat="45.2906" lon="6.0575">
        <ele>1430.4000244141</ele>
        <time>2026-08-21T11:55:33.000Z</time>
      </trkpt>
      <trkpt lat="45.29058" lon="6.0575">
        <ele>1430.1999511719</ele>
        <time>2026-08-21T11:55:34.000Z</time>
      </trkpt>
      <trkpt lat="45.29056" lon="6.0575">
        <ele>1429.8000488281</ele>
        <time>2026-08-21T11:55:35.000Z</time>
      </trkpt>
      <trkpt lat="45.29055" lon="6.05749">
        <ele>1429.5999755859</ele>
        <time>2026-08-21T11:55:36.000Z</time>
      </trkpt>
      <trkpt lat="45.29054" lon="6.05749">
        <ele>1429</ele>
        <time>2026-08-21T11:55:37.000Z</time>
      </trkpt>
      <trkpt lat="45.29052" lon="6.05749">
        <ele>1428.8000488281</ele>
        <time>2026-08-21T11:55:38.000Z</time>
      </trkpt>
      <trkpt lat="45.2905" lon="6.05748">
        <ele>1428.5999755859</ele>
        <time>2026-08-21T11:55:39.000Z</time>
      </trkpt>
      <trkpt lat="45.29048" lon="6.05747">
        <ele>1427.8000488281</ele>
        <time>2026-08-21T11:55:40.000Z</time>
      </trkpt>
      <trkpt lat="45.29046" lon="6.05745">
        <ele>1427.4000244141</ele>
        <time>2026-08-21T11:55:41.000Z</time>
      </trkpt>
      <trkpt lat="45.29044" lon="6.05744">
        <ele>1426.8000488281</ele>
        <time>2026-08-21T11:55:42.000Z</time>
      </trkpt>
      <trkpt lat="45.29042" lon="6.05741">
        <ele>1425.8000488281</ele>
        <time>2026-08-21T11:55:43.000Z</time>
      </trkpt>
      <trkpt lat="45.29041" lon="6.05739">
        <ele>1424.8000488281</ele>
        <time>2026-08-21T11:55:44.000Z</time>
      </trkpt>
      <trkpt lat="45.29039" lon="6.05737">
        <ele>1423.5999755859</ele>
        <time>2026-08-21T11:55:45.000Z</time>
      </trkpt>
      <trkpt lat="45.29037" lon="6.05736">
        <ele>1423</ele>
        <time>2026-08-21T11:55:46.000Z</time>
      </trkpt>
      <trkpt lat="45.29036" lon="6.05735">
        <ele>1422.1999511719</ele>
        <time>2026-08-21T11:55:47.000Z</time>
      </trkpt>
      <trkpt lat="45.29034" lon="6.05734">
        <ele>1421.5999755859</ele>
        <time>2026-08-21T11:55:48.000Z</time>
      </trkpt>
      <trkpt lat="45.29033" lon="6.05733">
        <ele>1420.8000488281</ele>
        <time>2026-08-21T11:55:49.000Z</time>
      </trkpt>
      <trkpt lat="45.29032" lon="6.05733">
        <ele>1420</ele>
        <time>2026-08-21T11:55:50.000Z</time>
      </trkpt>
      <trkpt lat="45.2903" lon="6.05732">
        <ele>1419.1999511719</ele>
        <time>2026-08-21T11:55:51.000Z</time>
      </trkpt>
      <trkpt lat="45.29028" lon="6.05731">
        <ele>1418.5999755859</ele>
        <time>2026-08-21T11:55:52.000Z</time>
      </trkpt>
      <trkpt lat="45.29026" lon="6.0573">
        <ele>1418</ele>
        <time>2026-08-21T11:55:53.000Z</time>
      </trkpt>
      <trkpt lat="45.29024" lon="6.0573">
        <ele>1417.4000244141</ele>
        <time>2026-08-21T11:55:54.000Z</time>
      </trkpt>
      <trkpt lat="45.29022" lon="6.0573">
        <ele>1416.5999755859</ele>
        <time>2026-08-21T11:55:55.000Z</time>
      </trkpt>
      <trkpt lat="45.2902" lon="6.0573">
        <ele>1416.1999511719</ele>
        <time>2026-08-21T11:55:56.000Z</time>
      </trkpt>
      <trkpt lat="45.29018" lon="6.05731">
        <ele>1415.8000488281</ele>
        <time>2026-08-21T11:55:57.000Z</time>
      </trkpt>
      <trkpt lat="45.29016" lon="6.05731">
        <ele>1415.8000488281</ele>
        <time>2026-08-21T11:55:58.000Z</time>
      </trkpt>
      <trkpt lat="45.29015" lon="6.05732">
        <ele>1415.8000488281</ele>
        <time>2026-08-21T11:55:59.000Z</time>
      </trkpt>
      <trkpt lat="45.29014" lon="6.05733">
        <ele>1415.5999755859</ele>
        <time>2026-08-21T11:56:00.000Z</time>
      </trkpt>
      <trkpt lat="45.29013" lon="6.05733">
        <ele>1415.1999511719</ele>
        <time>2026-08-21T11:56:01.000Z</time>
      </trkpt>
      <trkpt lat="45.29012" lon="6.05734">
        <ele>1414.5999755859</ele>
        <time>2026-08-21T11:56:02.000Z</time>
      </trkpt>
      <trkpt lat="45.29011" lon="6.05734">
        <ele>1414.1999511719</ele>
        <time>2026-08-21T11:56:03.000Z</time>
      </trkpt>
      <trkpt lat="45.29011" lon="6.05735">
        <ele>1414.8000488281</ele>
        <time>2026-08-21T11:56:04.000Z</time>
      </trkpt>
      <trkpt lat="45.2901" lon="6.05735">
        <ele>1416</ele>
        <time>2026-08-21T11:56:05.000Z</time>
      </trkpt>
      <trkpt lat="45.29009" lon="6.05736">
        <ele>1416.1999511719</ele>
        <time>2026-08-21T11:56:06.000Z</time>
      </trkpt>
      <trkpt lat="45.29008" lon="6.05737">
        <ele>1416.1999511719</ele>
        <time>2026-08-21T11:56:07.000Z</time>
      </trkpt>
      <trkpt lat="45.29007" lon="6.05738">
        <ele>1416.1999511719</ele>
        <time>2026-08-21T11:56:08.000Z</time>
      </trkpt>
      <trkpt lat="45.29007" lon="6.05738">
        <ele>1416.1999511719</ele>
        <time>2026-08-21T11:56:09.000Z</time>
      </trkpt>
      <trkpt lat="45.29007" lon="6.05739">
        <ele>1416.1999511719</ele>
        <time>2026-08-21T11:56:10.000Z</time>
      </trkpt>
      <trkpt lat="45.29005" lon="6.05739">
        <ele>1416.1999511719</ele>
        <time>2026-08-21T11:56:11.000Z</time>
      </trkpt>
      <trkpt lat="45.29004" lon="6.0574">
        <ele>1416.1999511719</ele>
        <time>2026-08-21T11:56:12.000Z</time>
      </trkpt>
      <trkpt lat="45.29003" lon="6.0574">
        <ele>1415.8000488281</ele>
        <time>2026-08-21T11:56:13.000Z</time>
      </trkpt>
      <trkpt lat="45.29001" lon="6.0574">
        <ele>1415.5999755859</ele>
        <time>2026-08-21T11:56:14.000Z</time>
      </trkpt>
      <trkpt lat="45.29" lon="6.0574">
        <ele>1415.1999511719</ele>
        <time>2026-08-21T11:56:15.000Z</time>
      </trkpt>
      <trkpt lat="45.28999" lon="6.0574">
        <ele>1414.8000488281</ele>
        <time>2026-08-21T11:56:16.000Z</time>
      </trkpt>
      <trkpt lat="45.28998" lon="6.0574">
        <ele>1413.1999511719</ele>
        <time>2026-08-21T11:56:17.000Z</time>
      </trkpt>
      <trkpt lat="45.28997" lon="6.0574">
        <ele>1413</ele>
        <time>2026-08-21T11:56:18.000Z</time>
      </trkpt>
      <trkpt lat="45.28996" lon="6.0574">
        <ele>1412.5999755859</ele>
        <time>2026-08-21T11:56:19.000Z</time>
      </trkpt>
      <trkpt lat="45.28995" lon="6.0574">
        <ele>1412.4000244141</ele>
        <time>2026-08-21T11:56:20.000Z</time>
      </trkpt>
      <trkpt lat="45.28994" lon="6.0574">
        <ele>1411.4000244141</ele>
        <time>2026-08-21T11:56:21.000Z</time>
      </trkpt>
      <trkpt lat="45.28993" lon="6.0574">
        <ele>1410.4000244141</ele>
        <time>2026-08-21T11:56:22.000Z</time>
      </trkpt>
      <trkpt lat="45.28992" lon="6.05739">
        <ele>1409.5999755859</ele>
        <time>2026-08-21T11:56:23.000Z</time>
      </trkpt>
      <trkpt lat="45.2899" lon="6.05739">
        <ele>1408.5999755859</ele>
        <time>2026-08-21T11:56:24.000Z</time>
      </trkpt>
      <trkpt lat="45.28988" lon="6.05738">
        <ele>1407.5999755859</ele>
        <time>2026-08-21T11:56:25.000Z</time>
      </trkpt>
      <trkpt lat="45.28987" lon="6.05738">
        <ele>1406.5999755859</ele>
        <time>2026-08-21T11:56:26.000Z</time>
      </trkpt>
      <trkpt lat="45.28985" lon="6.05737">
        <ele>1404.8000488281</ele>
        <time>2026-08-21T11:56:27.000Z</time>
      </trkpt>
      <trkpt lat="45.28984" lon="6.05737">
        <ele>1403.8000488281</ele>
        <time>2026-08-21T11:56:28.000Z</time>
      </trkpt>
      <trkpt lat="45.28982" lon="6.05736">
        <ele>1403</ele>
        <time>2026-08-21T11:56:29.000Z</time>
      </trkpt>
      <trkpt lat="45.28981" lon="6.05735">
        <ele>1402.1999511719</ele>
        <time>2026-08-21T11:56:30.000Z</time>
      </trkpt>
      <trkpt lat="45.2898" lon="6.05734">
        <ele>1401.4000244141</ele>
        <time>2026-08-21T11:56:31.000Z</time>
      </trkpt>
      <trkpt lat="45.28979" lon="6.05734">
        <ele>1400.5999755859</ele>
        <time>2026-08-21T11:56:32.000Z</time>
      </trkpt>
      <trkpt lat="45.28978" lon="6.05735">
        <ele>1399.5999755859</ele>
        <time>2026-08-21T11:56:33.000Z</time>
      </trkpt>
      <trkpt lat="45.28978" lon="6.05737">
        <ele>1399.1999511719</ele>
        <time>2026-08-21T11:56:34.000Z</time>
      </trkpt>
      <trkpt lat="45.28978" lon="6.05738">
        <ele>1397.8000488281</ele>
        <time>2026-08-21T11:56:35.000Z</time>
      </trkpt>
      <trkpt lat="45.28977" lon="6.05739">
        <ele>1397.4000244141</ele>
        <time>2026-08-21T11:56:36.000Z</time>
      </trkpt>
      <trkpt lat="45.28977" lon="6.0574">
        <ele>1397</ele>
        <time>2026-08-21T11:56:37.000Z</time>
      </trkpt>
      <trkpt lat="45.28976" lon="6.05741">
        <ele>1396.4000244141</ele>
        <time>2026-08-21T11:56:38.000Z</time>
      </trkpt>
      <trkpt lat="45.28975" lon="6.05742">
        <ele>1395.8000488281</ele>
        <time>2026-08-21T11:56:39.000Z</time>
      </trkpt>
      <trkpt lat="45.28974" lon="6.05742">
        <ele>1395.4000244141</ele>
        <time>2026-08-21T11:56:40.000Z</time>
      </trkpt>
      <trkpt lat="45.28974" lon="6.05743">
        <ele>1394.8000488281</ele>
        <time>2026-08-21T11:56:41.000Z</time>
      </trkpt>
      <trkpt lat="45.28973" lon="6.05743">
        <ele>1394.1999511719</ele>
        <time>2026-08-21T11:56:42.000Z</time>
      </trkpt>
      <trkpt lat="45.28972" lon="6.05743">
        <ele>1393.8000488281</ele>
        <time>2026-08-21T11:56:43.000Z</time>
      </trkpt>
      <trkpt lat="45.28971" lon="6.05743">
        <ele>1393.1999511719</ele>
        <time>2026-08-21T11:56:44.000Z</time>
      </trkpt>
      <trkpt lat="45.28969" lon="6.05743">
        <ele>1393</ele>
        <time>2026-08-21T11:56:45.000Z</time>
      </trkpt>
      <trkpt lat="45.28968" lon="6.05743">
        <ele>1392.8000488281</ele>
        <time>2026-08-21T11:56:46.000Z</time>
      </trkpt>
      <trkpt lat="45.28968" lon="6.05743">
        <ele>1392.1999511719</ele>
        <time>2026-08-21T11:56:47.000Z</time>
      </trkpt>
      <trkpt lat="45.28967" lon="6.05744">
        <ele>1391.5999755859</ele>
        <time>2026-08-21T11:56:48.000Z</time>
      </trkpt>
      <trkpt lat="45.28967" lon="6.05745">
        <ele>1391</ele>
        <time>2026-08-21T11:56:49.000Z</time>
      </trkpt>
      <trkpt lat="45.28966" lon="6.05746">
        <ele>1390.4000244141</ele>
        <time>2026-08-21T11:56:50.000Z</time>
      </trkpt>
      <trkpt lat="45.28966" lon="6.05747">
        <ele>1389.1999511719</ele>
        <time>2026-08-21T11:56:51.000Z</time>
      </trkpt>
      <trkpt lat="45.28966" lon="6.05749">
        <ele>1389.1999511719</ele>
        <time>2026-08-21T11:56:52.000Z</time>
      </trkpt>
      <trkpt lat="45.28965" lon="6.05751">
        <ele>1389.4000244141</ele>
        <time>2026-08-21T11:56:53.000Z</time>
      </trkpt>
      <trkpt lat="45.28965" lon="6.05754">
        <ele>1389.5999755859</ele>
        <time>2026-08-21T11:56:54.000Z</time>
      </trkpt>
      <trkpt lat="45.28965" lon="6.05755">
        <ele>1389.5999755859</ele>
        <time>2026-08-21T11:56:55.000Z</time>
      </trkpt>
      <trkpt lat="45.28966" lon="6.05758">
        <ele>1389.8000488281</ele>
        <time>2026-08-21T11:56:56.000Z</time>
      </trkpt>
      <trkpt lat="45.28966" lon="6.05759">
        <ele>1389.8000488281</ele>
        <time>2026-08-21T11:56:57.000Z</time>
      </trkpt>
      <trkpt lat="45.28966" lon="6.05761">
        <ele>1390</ele>
        <time>2026-08-21T11:56:58.000Z</time>
      </trkpt>
      <trkpt lat="45.28966" lon="6.05764">
        <ele>1390.4000244141</ele>
        <time>2026-08-21T11:56:59.000Z</time>
      </trkpt>
      <trkpt lat="45.28966" lon="6.05766">
        <ele>1390.5999755859</ele>
        <time>2026-08-21T11:57:00.000Z</time>
      </trkpt>
      <trkpt lat="45.28965" lon="6.05769">
        <ele>1390.5999755859</ele>
        <time>2026-08-21T11:57:01.000Z</time>
      </trkpt>
      <trkpt lat="45.28965" lon="6.05771">
        <ele>1390.8000488281</ele>
        <time>2026-08-21T11:57:02.000Z</time>
      </trkpt>
      <trkpt lat="45.28965" lon="6.05772">
        <ele>1390.8000488281</ele>
        <time>2026-08-21T11:57:03.000Z</time>
      </trkpt>
      <trkpt lat="45.28965" lon="6.05774">
        <ele>1390.8000488281</ele>
        <time>2026-08-21T11:57:04.000Z</time>
      </trkpt>
      <trkpt lat="45.28964" lon="6.05774">
        <ele>1390.8000488281</ele>
        <time>2026-08-21T11:57:05.000Z</time>
      </trkpt>
      <trkpt lat="45.28964" lon="6.05775">
        <ele>1390.8000488281</ele>
        <time>2026-08-21T11:57:06.000Z</time>
      </trkpt>
      <trkpt lat="45.28964" lon="6.05775">
        <ele>1390.8000488281</ele>
        <time>2026-08-21T11:57:07.000Z</time>
      </trkpt>
      <trkpt lat="45.28964" lon="6.05775">
        <ele>1390.8000488281</ele>
        <time>2026-08-21T11:57:08.000Z</time>
      </trkpt>
      <trkpt lat="45.28964" lon="6.05775">
        <ele>1390.5999755859</ele>
        <time>2026-08-21T11:57:09.000Z</time>
      </trkpt>
      <trkpt lat="45.28964" lon="6.05776">
        <ele>1390.4000244141</ele>
        <time>2026-08-21T11:57:10.000Z</time>
      </trkpt>
      <trkpt lat="45.28964" lon="6.05776">
        <ele>1390.1999511719</ele>
        <time>2026-08-21T11:57:11.000Z</time>
      </trkpt>
      <trkpt lat="45.28964" lon="6.05777">
        <ele>1390</ele>
        <time>2026-08-21T11:57:12.000Z</time>
      </trkpt>
      <trkpt lat="45.28964" lon="6.05778">
        <ele>1389</ele>
        <time>2026-08-21T11:57:13.000Z</time>
      </trkpt>
      <trkpt lat="45.28964" lon="6.05779">
        <ele>1388.1999511719</ele>
        <time>2026-08-21T11:57:14.000Z</time>
      </trkpt>
      <trkpt lat="45.28963" lon="6.0578">
        <ele>1387.1999511719</ele>
        <time>2026-08-21T11:57:15.000Z</time>
      </trkpt>
      <trkpt lat="45.28963" lon="6.0578">
        <ele>1386.1999511719</ele>
        <time>2026-08-21T11:57:16.000Z</time>
      </trkpt>
      <trkpt lat="45.28962" lon="6.0578">
        <ele>1384.1999511719</ele>
        <time>2026-08-21T11:57:17.000Z</time>
      </trkpt>
      <trkpt lat="45.28962" lon="6.05781">
        <ele>1383.8000488281</ele>
        <time>2026-08-21T11:57:18.000Z</time>
      </trkpt>
      <trkpt lat="45.28962" lon="6.05782">
        <ele>1383.4000244141</ele>
        <time>2026-08-21T11:57:19.000Z</time>
      </trkpt>
      <trkpt lat="45.28961" lon="6.05783">
        <ele>1383</ele>
        <time>2026-08-21T11:57:20.000Z</time>
      </trkpt>
      <trkpt lat="45.28961" lon="6.05783">
        <ele>1382.5999755859</ele>
        <time>2026-08-21T11:57:21.000Z</time>
      </trkpt>
      <trkpt lat="45.28961" lon="6.05784">
        <ele>1377</ele>
        <time>2026-08-21T11:57:22.000Z</time>
      </trkpt>
      <trkpt lat="45.28961" lon="6.05785">
        <ele>1376.5999755859</ele>
        <time>2026-08-21T11:57:23.000Z</time>
      </trkpt>
      <trkpt lat="45.28961" lon="6.05785">
        <ele>1376.1999511719</ele>
        <time>2026-08-21T11:57:24.000Z</time>
      </trkpt>
      <trkpt lat="45.28962" lon="6.05786">
        <ele>1375.4000244141</ele>
        <time>2026-08-21T11:57:25.000Z</time>
      </trkpt>
      <trkpt lat="45.28962" lon="6.05786">
        <ele>1374.5999755859</ele>
        <time>2026-08-21T11:57:26.000Z</time>
      </trkpt>
      <trkpt lat="45.28962" lon="6.05787">
        <ele>1373.5999755859</ele>
        <time>2026-08-21T11:57:27.000Z</time>
      </trkpt>
      <trkpt lat="45.28962" lon="6.05788">
        <ele>1372.8000488281</ele>
        <time>2026-08-21T11:57:28.000Z</time>
      </trkpt>
      <trkpt lat="45.28962" lon="6.05789">
        <ele>1372</ele>
        <time>2026-08-21T11:57:29.000Z</time>
      </trkpt>
      <trkpt lat="45.28962" lon="6.05791">
        <ele>1372.1999511719</ele>
        <time>2026-08-21T11:57:30.000Z</time>
      </trkpt>
      <trkpt lat="45.28963" lon="6.05792">
        <ele>1372.1999511719</ele>
        <time>2026-08-21T11:57:31.000Z</time>
      </trkpt>
      <trkpt lat="45.28963" lon="6.05795">
        <ele>1372.4000244141</ele>
        <time>2026-08-21T11:57:32.000Z</time>
      </trkpt>
      <trkpt lat="45.28963" lon="6.05796">
        <ele>1372.4000244141</ele>
        <time>2026-08-21T11:57:33.000Z</time>
      </trkpt>
      <trkpt lat="45.28963" lon="6.05799">
        <ele>1372.4000244141</ele>
        <time>2026-08-21T11:57:34.000Z</time>
      </trkpt>
      <trkpt lat="45.28963" lon="6.05802">
        <ele>1372.4000244141</ele>
        <time>2026-08-21T11:57:35.000Z</time>
      </trkpt>
      <trkpt lat="45.28963" lon="6.05804">
        <ele>1372.4000244141</ele>
        <time>2026-08-21T11:57:36.000Z</time>
      </trkpt>
      <trkpt lat="45.28962" lon="6.05805">
        <ele>1371.8000488281</ele>
        <time>2026-08-21T11:57:37.000Z</time>
      </trkpt>
      <trkpt lat="45.28962" lon="6.05806">
        <ele>1371.1999511719</ele>
        <time>2026-08-21T11:57:38.000Z</time>
      </trkpt>
      <trkpt lat="45.28961" lon="6.05809">
        <ele>1370.5999755859</ele>
        <time>2026-08-21T11:57:39.000Z</time>
      </trkpt>
      <trkpt lat="45.2896" lon="6.05811">
        <ele>1369.4000244141</ele>
        <time>2026-08-21T11:57:40.000Z</time>
      </trkpt>
      <trkpt lat="45.2896" lon="6.05814">
        <ele>1368.1999511719</ele>
        <time>2026-08-21T11:57:41.000Z</time>
      </trkpt>
      <trkpt lat="45.28958" lon="6.05817">
        <ele>1366.5999755859</ele>
        <time>2026-08-21T11:57:42.000Z</time>
      </trkpt>
      <trkpt lat="45.28958" lon="6.0582">
        <ele>1365</ele>
        <time>2026-08-21T11:57:43.000Z</time>
      </trkpt>
      <trkpt lat="45.28957" lon="6.05823">
        <ele>1363.4000244141</ele>
        <time>2026-08-21T11:57:44.000Z</time>
      </trkpt>
      <trkpt lat="45.28957" lon="6.05826">
        <ele>1361.8000488281</ele>
        <time>2026-08-21T11:57:45.000Z</time>
      </trkpt>
      <trkpt lat="45.28956" lon="6.05828">
        <ele>1360.1999511719</ele>
        <time>2026-08-21T11:57:46.000Z</time>
      </trkpt>
      <trkpt lat="45.28956" lon="6.0583">
        <ele>1359.8000488281</ele>
        <time>2026-08-21T11:57:47.000Z</time>
      </trkpt>
      <trkpt lat="45.28956" lon="6.05833">
        <ele>1359.4000244141</ele>
        <time>2026-08-21T11:57:48.000Z</time>
      </trkpt>
      <trkpt lat="45.28955" lon="6.05834">
        <ele>1359.1999511719</ele>
        <time>2026-08-21T11:57:49.000Z</time>
      </trkpt>
      <trkpt lat="45.28955" lon="6.05835">
        <ele>1358.8000488281</ele>
        <time>2026-08-21T11:57:50.000Z</time>
      </trkpt>
      <trkpt lat="45.28955" lon="6.05836">
        <ele>1358.4000244141</ele>
        <time>2026-08-21T11:57:51.000Z</time>
      </trkpt>
      <trkpt lat="45.28954" lon="6.05838">
        <ele>1356.4000244141</ele>
        <time>2026-08-21T11:57:52.000Z</time>
      </trkpt>
      <trkpt lat="45.28954" lon="6.0584">
        <ele>1356.8000488281</ele>
        <time>2026-08-21T11:57:53.000Z</time>
      </trkpt>
      <trkpt lat="45.28954" lon="6.05842">
        <ele>1356.8000488281</ele>
        <time>2026-08-21T11:57:54.000Z</time>
      </trkpt>
      <trkpt lat="45.28954" lon="6.05844">
        <ele>1357</ele>
        <time>2026-08-21T11:57:55.000Z</time>
      </trkpt>
      <trkpt lat="45.28953" lon="6.05846">
        <ele>1357</ele>
        <time>2026-08-21T11:57:56.000Z</time>
      </trkpt>
      <trkpt lat="45.28951" lon="6.05848">
        <ele>1356.5999755859</ele>
        <time>2026-08-21T11:57:57.000Z</time>
      </trkpt>
      <trkpt lat="45.28949" lon="6.0585">
        <ele>1355.5999755859</ele>
        <time>2026-08-21T11:57:58.000Z</time>
      </trkpt>
      <trkpt lat="45.28948" lon="6.05849">
        <ele>1354.4000244141</ele>
        <time>2026-08-21T11:57:59.000Z</time>
      </trkpt>
      <trkpt lat="45.28947" lon="6.05848">
        <ele>1353.4000244141</ele>
        <time>2026-08-21T11:58:00.000Z</time>
      </trkpt>
      <trkpt lat="45.28946" lon="6.05848">
        <ele>1352.1999511719</ele>
        <time>2026-08-21T11:58:01.000Z</time>
      </trkpt>
      <trkpt lat="45.28945" lon="6.05849">
        <ele>1351.8000488281</ele>
        <time>2026-08-21T11:58:02.000Z</time>
      </trkpt>
      <trkpt lat="45.28945" lon="6.05851">
        <ele>1351.8000488281</ele>
        <time>2026-08-21T11:58:03.000Z</time>
      </trkpt>
      <trkpt lat="45.28945" lon="6.05851">
        <ele>1351.8000488281</ele>
        <time>2026-08-21T11:58:04.000Z</time>
      </trkpt>
      <trkpt lat="45.28945" lon="6.05852">
        <ele>1351.8000488281</ele>
        <time>2026-08-21T11:58:05.000Z</time>
      </trkpt>
      <trkpt lat="45.28946" lon="6.05852">
        <ele>1351.8000488281</ele>
        <time>2026-08-21T11:58:06.000Z</time>
      </trkpt>
      <trkpt lat="45.28946" lon="6.05853">
        <ele>1352.1999511719</ele>
        <time>2026-08-21T11:58:07.000Z</time>
      </trkpt>
      <trkpt lat="45.28945" lon="6.05853">
        <ele>1352.8000488281</ele>
        <time>2026-08-21T11:58:08.000Z</time>
      </trkpt>
      <trkpt lat="45.28944" lon="6.05854">
        <ele>1353.1999511719</ele>
        <time>2026-08-21T11:58:09.000Z</time>
      </trkpt>
      <trkpt lat="45.28943" lon="6.05855">
        <ele>1353.8000488281</ele>
        <time>2026-08-21T11:58:10.000Z</time>
      </trkpt>
      <trkpt lat="45.28942" lon="6.05855">
        <ele>1354.4000244141</ele>
        <time>2026-08-21T11:58:11.000Z</time>
      </trkpt>
      <trkpt lat="45.28941" lon="6.05856">
        <ele>1354.5999755859</ele>
        <time>2026-08-21T11:58:12.000Z</time>
      </trkpt>
      <trkpt lat="45.2894" lon="6.05856">
        <ele>1355</ele>
        <time>2026-08-21T11:58:13.000Z</time>
      </trkpt>
      <trkpt lat="45.28938" lon="6.05857">
        <ele>1356</ele>
        <time>2026-08-21T11:58:14.000Z</time>
      </trkpt>
      <trkpt lat="45.28937" lon="6.05856">
        <ele>1356.8000488281</ele>
        <time>2026-08-21T11:58:15.000Z</time>
      </trkpt>
      <trkpt lat="45.28935" lon="6.05857">
        <ele>1357</ele>
        <time>2026-08-21T11:58:16.000Z</time>
      </trkpt>
      <trkpt lat="45.28934" lon="6.05858">
        <ele>1357.1999511719</ele>
        <time>2026-08-21T11:58:17.000Z</time>
      </trkpt>
      <trkpt lat="45.28934" lon="6.05862">
        <ele>1357.4000244141</ele>
        <time>2026-08-21T11:58:18.000Z</time>
      </trkpt>
      <trkpt lat="45.28933" lon="6.05864">
        <ele>1357.8000488281</ele>
        <time>2026-08-21T11:58:19.000Z</time>
      </trkpt>
      <trkpt lat="45.28932" lon="6.05866">
        <ele>1358</ele>
        <time>2026-08-21T11:58:20.000Z</time>
      </trkpt>
      <trkpt lat="45.28931" lon="6.05868">
        <ele>1356.5999755859</ele>
        <time>2026-08-21T11:58:21.000Z</time>
      </trkpt>
      <trkpt lat="45.2893" lon="6.05869">
        <ele>1356</ele>
        <time>2026-08-21T11:58:22.000Z</time>
      </trkpt>
      <trkpt lat="45.2893" lon="6.0587">
        <ele>1355.5999755859</ele>
        <time>2026-08-21T11:58:23.000Z</time>
      </trkpt>
      <trkpt lat="45.28929" lon="6.05872">
        <ele>1355</ele>
        <time>2026-08-21T11:58:24.000Z</time>
      </trkpt>
      <trkpt lat="45.28929" lon="6.05872">
        <ele>1354.1999511719</ele>
        <time>2026-08-21T11:58:25.000Z</time>
      </trkpt>
      <trkpt lat="45.28929" lon="6.05873">
        <ele>1352.5999755859</ele>
        <time>2026-08-21T11:58:26.000Z</time>
      </trkpt>
      <trkpt lat="45.2893" lon="6.05874">
        <ele>1351.5999755859</ele>
        <time>2026-08-21T11:58:27.000Z</time>
      </trkpt>
      <trkpt lat="45.2893" lon="6.05875">
        <ele>1351.1999511719</ele>
        <time>2026-08-21T11:58:28.000Z</time>
      </trkpt>
      <trkpt lat="45.28931" lon="6.05876">
        <ele>1350.8000488281</ele>
        <time>2026-08-21T11:58:29.000Z</time>
      </trkpt>
      <trkpt lat="45.28932" lon="6.05877">
        <ele>1350.1999511719</ele>
        <time>2026-08-21T11:58:30.000Z</time>
      </trkpt>
      <trkpt lat="45.28932" lon="6.05879">
        <ele>1349.5999755859</ele>
        <time>2026-08-21T11:58:31.000Z</time>
      </trkpt>
      <trkpt lat="45.28932" lon="6.05881">
        <ele>1349.4000244141</ele>
        <time>2026-08-21T11:58:32.000Z</time>
      </trkpt>
      <trkpt lat="45.28931" lon="6.05882">
        <ele>1349</ele>
        <time>2026-08-21T11:58:33.000Z</time>
      </trkpt>
      <trkpt lat="45.2893" lon="6.05882">
        <ele>1348.8000488281</ele>
        <time>2026-08-21T11:58:34.000Z</time>
      </trkpt>
      <trkpt lat="45.2893" lon="6.05883">
        <ele>1348.4000244141</ele>
        <time>2026-08-21T11:58:35.000Z</time>
      </trkpt>
      <trkpt lat="45.28929" lon="6.05884">
        <ele>1348</ele>
        <time>2026-08-21T11:58:36.000Z</time>
      </trkpt>
      <trkpt lat="45.28929" lon="6.05885">
        <ele>1347.5999755859</ele>
        <time>2026-08-21T11:58:37.000Z</time>
      </trkpt>
      <trkpt lat="45.28928" lon="6.05887">
        <ele>1347.1999511719</ele>
        <time>2026-08-21T11:58:38.000Z</time>
      </trkpt>
      <trkpt lat="45.28927" lon="6.05889">
        <ele>1346.5999755859</ele>
        <time>2026-08-21T11:58:39.000Z</time>
      </trkpt>
      <trkpt lat="45.28926" lon="6.0589">
        <ele>1346.1999511719</ele>
        <time>2026-08-21T11:58:40.000Z</time>
      </trkpt>
      <trkpt lat="45.28926" lon="6.05891">
        <ele>1345.8000488281</ele>
        <time>2026-08-21T11:58:41.000Z</time>
      </trkpt>
      <trkpt lat="45.28926" lon="6.05893">
        <ele>1345.5999755859</ele>
        <time>2026-08-21T11:58:42.000Z</time>
      </trkpt>
      <trkpt lat="45.28925" lon="6.05895">
        <ele>1345.4000244141</ele>
        <time>2026-08-21T11:58:43.000Z</time>
      </trkpt>
      <trkpt lat="45.28925" lon="6.05897">
        <ele>1345</ele>
        <time>2026-08-21T11:58:44.000Z</time>
      </trkpt>
      <trkpt lat="45.28925" lon="6.05899">
        <ele>1344.8000488281</ele>
        <time>2026-08-21T11:58:45.000Z</time>
      </trkpt>
      <trkpt lat="45.28925" lon="6.059">
        <ele>1344</ele>
        <time>2026-08-21T11:58:46.000Z</time>
      </trkpt>
      <trkpt lat="45.28926" lon="6.05902">
        <ele>1343</ele>
        <time>2026-08-21T11:58:47.000Z</time>
      </trkpt>
      <trkpt lat="45.28926" lon="6.05903">
        <ele>1342.1999511719</ele>
        <time>2026-08-21T11:58:48.000Z</time>
      </trkpt>
      <trkpt lat="45.28927" lon="6.05904">
        <ele>1341.1999511719</ele>
        <time>2026-08-21T11:58:49.000Z</time>
      </trkpt>
      <trkpt lat="45.28928" lon="6.05904">
        <ele>1340.1999511719</ele>
        <time>2026-08-21T11:58:50.000Z</time>
      </trkpt>
      <trkpt lat="45.28929" lon="6.05905">
        <ele>1339.4000244141</ele>
        <time>2026-08-21T11:58:51.000Z</time>
      </trkpt>
      <trkpt lat="45.28931" lon="6.05907">
        <ele>1338.4000244141</ele>
        <time>2026-08-21T11:58:52.000Z</time>
      </trkpt>
      <trkpt lat="45.28932" lon="6.05908">
        <ele>1338.5999755859</ele>
        <time>2026-08-21T11:58:53.000Z</time>
      </trkpt>
      <trkpt lat="45.28933" lon="6.05909">
        <ele>1338.4000244141</ele>
        <time>2026-08-21T11:58:54.000Z</time>
      </trkpt>
      <trkpt lat="45.28934" lon="6.05911">
        <ele>1338.1999511719</ele>
        <time>2026-08-21T11:58:55.000Z</time>
      </trkpt>
      <trkpt lat="45.28934" lon="6.05914">
        <ele>1337.8000488281</ele>
        <time>2026-08-21T11:58:56.000Z</time>
      </trkpt>
      <trkpt lat="45.28934" lon="6.05917">
        <ele>1337.5999755859</ele>
        <time>2026-08-21T11:58:57.000Z</time>
      </trkpt>
      <trkpt lat="45.28935" lon="6.05921">
        <ele>1337.4000244141</ele>
        <time>2026-08-21T11:58:58.000Z</time>
      </trkpt>
      <trkpt lat="45.28935" lon="6.05924">
        <ele>1337.4000244141</ele>
        <time>2026-08-21T11:58:59.000Z</time>
      </trkpt>
      <trkpt lat="45.28935" lon="6.05927">
        <ele>1336.8000488281</ele>
        <time>2026-08-21T11:59:00.000Z</time>
      </trkpt>
      <trkpt lat="45.28934" lon="6.05929">
        <ele>1336.8000488281</ele>
        <time>2026-08-21T11:59:01.000Z</time>
      </trkpt>
      <trkpt lat="45.28934" lon="6.05931">
        <ele>1336.5999755859</ele>
        <time>2026-08-21T11:59:02.000Z</time>
      </trkpt>
      <trkpt lat="45.28934" lon="6.05932">
        <ele>1336.4000244141</ele>
        <time>2026-08-21T11:59:03.000Z</time>
      </trkpt>
      <trkpt lat="45.28934" lon="6.05934">
        <ele>1336</ele>
        <time>2026-08-21T11:59:04.000Z</time>
      </trkpt>
      <trkpt lat="45.28935" lon="6.05934">
        <ele>1336</ele>
        <time>2026-08-21T11:59:05.000Z</time>
      </trkpt>
      <trkpt lat="45.28936" lon="6.05936">
        <ele>1336</ele>
        <time>2026-08-21T11:59:06.000Z</time>
      </trkpt>
      <trkpt lat="45.28936" lon="6.05938">
        <ele>1336</ele>
        <time>2026-08-21T11:59:07.000Z</time>
      </trkpt>
      <trkpt lat="45.28935" lon="6.0594">
        <ele>1335.5999755859</ele>
        <time>2026-08-21T11:59:08.000Z</time>
      </trkpt>
      <trkpt lat="45.28935" lon="6.05941">
        <ele>1335.1999511719</ele>
        <time>2026-08-21T11:59:09.000Z</time>
      </trkpt>
      <trkpt lat="45.28935" lon="6.05943">
        <ele>1334.8000488281</ele>
        <time>2026-08-21T11:59:10.000Z</time>
      </trkpt>
      <trkpt lat="45.28934" lon="6.05944">
        <ele>1334.4000244141</ele>
        <time>2026-08-21T11:59:11.000Z</time>
      </trkpt>
      <trkpt lat="45.28934" lon="6.05946">
        <ele>1332.4000244141</ele>
        <time>2026-08-21T11:59:12.000Z</time>
      </trkpt>
      <trkpt lat="45.28933" lon="6.05947">
        <ele>1331.8000488281</ele>
        <time>2026-08-21T11:59:13.000Z</time>
      </trkpt>
      <trkpt lat="45.28932" lon="6.05949">
        <ele>1331.5999755859</ele>
        <time>2026-08-21T11:59:14.000Z</time>
      </trkpt>
      <trkpt lat="45.28931" lon="6.05951">
        <ele>1331</ele>
        <time>2026-08-21T11:59:15.000Z</time>
      </trkpt>
      <trkpt lat="45.2893" lon="6.05953">
        <ele>1330.4000244141</ele>
        <time>2026-08-21T11:59:16.000Z</time>
      </trkpt>
      <trkpt lat="45.28929" lon="6.05955">
        <ele>1330</ele>
        <time>2026-08-21T11:59:17.000Z</time>
      </trkpt>
      <trkpt lat="45.28927" lon="6.05957">
        <ele>1329.4000244141</ele>
        <time>2026-08-21T11:59:18.000Z</time>
      </trkpt>
      <trkpt lat="45.28928" lon="6.0596">
        <ele>1329</ele>
        <time>2026-08-21T11:59:19.000Z</time>
      </trkpt>
      <trkpt lat="45.28927" lon="6.05962">
        <ele>1328.4000244141</ele>
        <time>2026-08-21T11:59:20.000Z</time>
      </trkpt>
      <trkpt lat="45.28927" lon="6.05965">
        <ele>1328.4000244141</ele>
        <time>2026-08-21T11:59:21.000Z</time>
      </trkpt>
      <trkpt lat="45.28926" lon="6.05967">
        <ele>1328.8000488281</ele>
        <time>2026-08-21T11:59:22.000Z</time>
      </trkpt>
      <trkpt lat="45.28926" lon="6.05968">
        <ele>1329.1999511719</ele>
        <time>2026-08-21T11:59:23.000Z</time>
      </trkpt>
      <trkpt lat="45.28926" lon="6.0597">
        <ele>1329.5999755859</ele>
        <time>2026-08-21T11:59:24.000Z</time>
      </trkpt>
      <trkpt lat="45.28925" lon="6.05972">
        <ele>1330</ele>
        <time>2026-08-21T11:59:25.000Z</time>
      </trkpt>
      <trkpt lat="45.28925" lon="6.05974">
        <ele>1330.1999511719</ele>
        <time>2026-08-21T11:59:26.000Z</time>
      </trkpt>
      <trkpt lat="45.28924" lon="6.05977">
        <ele>1330.1999511719</ele>
        <time>2026-08-21T11:59:27.000Z</time>
      </trkpt>
      <trkpt lat="45.28924" lon="6.05979">
        <ele>1330.4000244141</ele>
        <time>2026-08-21T11:59:28.000Z</time>
      </trkpt>
      <trkpt lat="45.28924" lon="6.05981">
        <ele>1330.4000244141</ele>
        <time>2026-08-21T11:59:29.000Z</time>
      </trkpt>
      <trkpt lat="45.28924" lon="6.05983">
        <ele>1329.8000488281</ele>
        <time>2026-08-21T11:59:30.000Z</time>
      </trkpt>
      <trkpt lat="45.28924" lon="6.05985">
        <ele>1329.5999755859</ele>
        <time>2026-08-21T11:59:31.000Z</time>
      </trkpt>
      <trkpt lat="45.28924" lon="6.05987">
        <ele>1329.4000244141</ele>
        <time>2026-08-21T11:59:32.000Z</time>
      </trkpt>
      <trkpt lat="45.28924" lon="6.05988">
        <ele>1329.1999511719</ele>
        <time>2026-08-21T11:59:33.000Z</time>
      </trkpt>
      <trkpt lat="45.28924" lon="6.05991">
        <ele>1329</ele>
        <time>2026-08-21T11:59:34.000Z</time>
      </trkpt>
      <trkpt lat="45.28924" lon="6.05993">
        <ele>1328.8000488281</ele>
        <time>2026-08-21T11:59:35.000Z</time>
      </trkpt>
      <trkpt lat="45.28924" lon="6.05995">
        <ele>1328.4000244141</ele>
        <time>2026-08-21T11:59:36.000Z</time>
      </trkpt>
      <trkpt lat="45.28925" lon="6.05997">
        <ele>1327.8000488281</ele>
        <time>2026-08-21T11:59:37.000Z</time>
      </trkpt>
      <trkpt lat="45.28925" lon="6.05999">
        <ele>1327.4000244141</ele>
        <time>2026-08-21T11:59:38.000Z</time>
      </trkpt>
      <trkpt lat="45.28926" lon="6.06003">
        <ele>1326.4000244141</ele>
        <time>2026-08-21T11:59:39.000Z</time>
      </trkpt>
      <trkpt lat="45.28926" lon="6.06007">
        <ele>1325.1999511719</ele>
        <time>2026-08-21T11:59:40.000Z</time>
      </trkpt>
      <trkpt lat="45.28926" lon="6.0601">
        <ele>1324.8000488281</ele>
        <time>2026-08-21T11:59:41.000Z</time>
      </trkpt>
      <trkpt lat="45.28926" lon="6.06014">
        <ele>1324.4000244141</ele>
        <time>2026-08-21T11:59:42.000Z</time>
      </trkpt>
      <trkpt lat="45.28926" lon="6.06018">
        <ele>1322.5999755859</ele>
        <time>2026-08-21T11:59:43.000Z</time>
      </trkpt>
      <trkpt lat="45.28924" lon="6.06021">
        <ele>1322.1999511719</ele>
        <time>2026-08-21T11:59:44.000Z</time>
      </trkpt>
      <trkpt lat="45.28924" lon="6.06024">
        <ele>1321.5999755859</ele>
        <time>2026-08-21T11:59:45.000Z</time>
      </trkpt>
      <trkpt lat="45.28923" lon="6.06028">
        <ele>1321.1999511719</ele>
        <time>2026-08-21T11:59:46.000Z</time>
      </trkpt>
      <trkpt lat="45.28922" lon="6.06031">
        <ele>1320.5999755859</ele>
        <time>2026-08-21T11:59:47.000Z</time>
      </trkpt>
      <trkpt lat="45.28922" lon="6.06032">
        <ele>1319.8000488281</ele>
        <time>2026-08-21T11:59:48.000Z</time>
      </trkpt>
      <trkpt lat="45.28921" lon="6.06034">
        <ele>1319.1999511719</ele>
        <time>2026-08-21T11:59:49.000Z</time>
      </trkpt>
      <trkpt lat="45.28921" lon="6.06035">
        <ele>1318.4000244141</ele>
        <time>2026-08-21T11:59:50.000Z</time>
      </trkpt>
      <trkpt lat="45.2892" lon="6.06037">
        <ele>1318.1999511719</ele>
        <time>2026-08-21T11:59:51.000Z</time>
      </trkpt>
      <trkpt lat="45.28919" lon="6.06038">
        <ele>1317.5999755859</ele>
        <time>2026-08-21T11:59:52.000Z</time>
      </trkpt>
      <trkpt lat="45.28918" lon="6.06041">
        <ele>1317.8000488281</ele>
        <time>2026-08-21T11:59:53.000Z</time>
      </trkpt>
      <trkpt lat="45.28918" lon="6.06042">
        <ele>1317.8000488281</ele>
        <time>2026-08-21T11:59:54.000Z</time>
      </trkpt>
      <trkpt lat="45.28918" lon="6.06044">
        <ele>1318</ele>
        <time>2026-08-21T11:59:55.000Z</time>
      </trkpt>
      <trkpt lat="45.28917" lon="6.06046">
        <ele>1318</ele>
        <time>2026-08-21T11:59:56.000Z</time>
      </trkpt>
      <trkpt lat="45.28917" lon="6.06047">
        <ele>1318.1999511719</ele>
        <time>2026-08-21T11:59:57.000Z</time>
      </trkpt>
      <trkpt lat="45.28917" lon="6.06049">
        <ele>1318.8000488281</ele>
        <time>2026-08-21T11:59:58.000Z</time>
      </trkpt>
      <trkpt lat="45.28917" lon="6.06051">
        <ele>1319.1999511719</ele>
        <time>2026-08-21T11:59:59.000Z</time>
      </trkpt>
      <trkpt lat="45.28916" lon="6.06054">
        <ele>1319.1999511719</ele>
        <time>2026-08-21T12:00:00.000Z</time>
      </trkpt>
      <trkpt lat="45.28915" lon="6.06056">
        <ele>1319.1999511719</ele>
        <time>2026-08-21T12:00:01.000Z</time>
      </trkpt>
      <trkpt lat="45.28914" lon="6.06059">
        <ele>1319.1999511719</ele>
        <time>2026-08-21T12:00:02.000Z</time>
      </trkpt>
      <trkpt lat="45.28913" lon="6.06061">
        <ele>1319.1999511719</ele>
        <time>2026-08-21T12:00:03.000Z</time>
      </trkpt>
      <trkpt lat="45.28912" lon="6.06063">
        <ele>1317</ele>
        <time>2026-08-21T12:00:04.000Z</time>
      </trkpt>
      <trkpt lat="45.28911" lon="6.06064">
        <ele>1316.1999511719</ele>
        <time>2026-08-21T12:00:05.000Z</time>
      </trkpt>
      <trkpt lat="45.28909" lon="6.06065">
        <ele>1315.4000244141</ele>
        <time>2026-08-21T12:00:06.000Z</time>
      </trkpt>
      <trkpt lat="45.28909" lon="6.06066">
        <ele>1314.5999755859</ele>
        <time>2026-08-21T12:00:07.000Z</time>
      </trkpt>
      <trkpt lat="45.28908" lon="6.06067">
        <ele>1313.8000488281</ele>
        <time>2026-08-21T12:00:08.000Z</time>
      </trkpt>
      <trkpt lat="45.28908" lon="6.06069">
        <ele>1312.8000488281</ele>
        <time>2026-08-21T12:00:09.000Z</time>
      </trkpt>
      <trkpt lat="45.28907" lon="6.0607">
        <ele>1312</ele>
        <time>2026-08-21T12:00:10.000Z</time>
      </trkpt>
      <trkpt lat="45.28907" lon="6.06072">
        <ele>1311</ele>
        <time>2026-08-21T12:00:11.000Z</time>
      </trkpt>
      <trkpt lat="45.28907" lon="6.06073">
        <ele>1310.5999755859</ele>
        <time>2026-08-21T12:00:12.000Z</time>
      </trkpt>
      <trkpt lat="45.28907" lon="6.06075">
        <ele>1310</ele>
        <time>2026-08-21T12:00:13.000Z</time>
      </trkpt>
      <trkpt lat="45.28907" lon="6.06076">
        <ele>1309.4000244141</ele>
        <time>2026-08-21T12:00:14.000Z</time>
      </trkpt>
      <trkpt lat="45.28907" lon="6.06078">
        <ele>1308.8000488281</ele>
        <time>2026-08-21T12:00:15.000Z</time>
      </trkpt>
      <trkpt lat="45.28907" lon="6.0608">
        <ele>1308.4000244141</ele>
        <time>2026-08-21T12:00:16.000Z</time>
      </trkpt>
      <trkpt lat="45.28907" lon="6.06082">
        <ele>1307.8000488281</ele>
        <time>2026-08-21T12:00:17.000Z</time>
      </trkpt>
      <trkpt lat="45.28907" lon="6.06084">
        <ele>1306.4000244141</ele>
        <time>2026-08-21T12:00:18.000Z</time>
      </trkpt>
      <trkpt lat="45.28908" lon="6.06086">
        <ele>1305</ele>
        <time>2026-08-21T12:00:19.000Z</time>
      </trkpt>
      <trkpt lat="45.28908" lon="6.06087">
        <ele>1304</ele>
        <time>2026-08-21T12:00:20.000Z</time>
      </trkpt>
      <trkpt lat="45.28909" lon="6.06088">
        <ele>1303.1999511719</ele>
        <time>2026-08-21T12:00:21.000Z</time>
      </trkpt>
      <trkpt lat="45.28909" lon="6.06088">
        <ele>1302.1999511719</ele>
        <time>2026-08-21T12:00:22.000Z</time>
      </trkpt>
      <trkpt lat="45.28909" lon="6.06089">
        <ele>1300.1999511719</ele>
        <time>2026-08-21T12:00:23.000Z</time>
      </trkpt>
      <trkpt lat="45.2891" lon="6.06089">
        <ele>1300.1999511719</ele>
        <time>2026-08-21T12:00:24.000Z</time>
      </trkpt>
      <trkpt lat="45.28911" lon="6.0609">
        <ele>1299.5999755859</ele>
        <time>2026-08-21T12:00:25.000Z</time>
      </trkpt>
      <trkpt lat="45.28911" lon="6.0609">
        <ele>1298.8000488281</ele>
        <time>2026-08-21T12:00:26.000Z</time>
      </trkpt>
      <trkpt lat="45.28912" lon="6.06091">
        <ele>1298.4000244141</ele>
        <time>2026-08-21T12:00:27.000Z</time>
      </trkpt>
      <trkpt lat="45.28912" lon="6.06092">
        <ele>1298</ele>
        <time>2026-08-21T12:00:28.000Z</time>
      </trkpt>
      <trkpt lat="45.28913" lon="6.06093">
        <ele>1297.5999755859</ele>
        <time>2026-08-21T12:00:29.000Z</time>
      </trkpt>
      <trkpt lat="45.28913" lon="6.06094">
        <ele>1297.1999511719</ele>
        <time>2026-08-21T12:00:30.000Z</time>
      </trkpt>
      <trkpt lat="45.28913" lon="6.06095">
        <ele>1296.8000488281</ele>
        <time>2026-08-21T12:00:31.000Z</time>
      </trkpt>
      <trkpt lat="45.28914" lon="6.06097">
        <ele>1296.4000244141</ele>
        <time>2026-08-21T12:00:32.000Z</time>
      </trkpt>
      <trkpt lat="45.28914" lon="6.06098">
        <ele>1296</ele>
        <time>2026-08-21T12:00:33.000Z</time>
      </trkpt>
      <trkpt lat="45.28914" lon="6.061">
        <ele>1296.1999511719</ele>
        <time>2026-08-21T12:00:34.000Z</time>
      </trkpt>
      <trkpt lat="45.28913" lon="6.06102">
        <ele>1296.5999755859</ele>
        <time>2026-08-21T12:00:35.000Z</time>
      </trkpt>
      <trkpt lat="45.28912" lon="6.06104">
        <ele>1296.8000488281</ele>
        <time>2026-08-21T12:00:36.000Z</time>
      </trkpt>
      <trkpt lat="45.28911" lon="6.06105">
        <ele>1296.8000488281</ele>
        <time>2026-08-21T12:00:37.000Z</time>
      </trkpt>
      <trkpt lat="45.2891" lon="6.06107">
        <ele>1296.5999755859</ele>
        <time>2026-08-21T12:00:38.000Z</time>
      </trkpt>
      <trkpt lat="45.28909" lon="6.06108">
        <ele>1296.4000244141</ele>
        <time>2026-08-21T12:00:39.000Z</time>
      </trkpt>
      <trkpt lat="45.28909" lon="6.06109">
        <ele>1296</ele>
        <time>2026-08-21T12:00:40.000Z</time>
      </trkpt>
      <trkpt lat="45.28909" lon="6.0611">
        <ele>1295.8000488281</ele>
        <time>2026-08-21T12:00:41.000Z</time>
      </trkpt>
      <trkpt lat="45.2891" lon="6.06111">
        <ele>1295.5999755859</ele>
        <time>2026-08-21T12:00:42.000Z</time>
      </trkpt>
      <trkpt lat="45.2891" lon="6.06112">
        <ele>1295.4000244141</ele>
        <time>2026-08-21T12:00:43.000Z</time>
      </trkpt>
      <trkpt lat="45.2891" lon="6.06113">
        <ele>1295.1999511719</ele>
        <time>2026-08-21T12:00:44.000Z</time>
      </trkpt>
      <trkpt lat="45.28911" lon="6.06114">
        <ele>1295</ele>
        <time>2026-08-21T12:00:45.000Z</time>
      </trkpt>
      <trkpt lat="45.28912" lon="6.06115">
        <ele>1294.1999511719</ele>
        <time>2026-08-21T12:00:46.000Z</time>
      </trkpt>
      <trkpt lat="45.28913" lon="6.06116">
        <ele>1293.4000244141</ele>
        <time>2026-08-21T12:00:47.000Z</time>
      </trkpt>
      <trkpt lat="45.28914" lon="6.06118">
        <ele>1293</ele>
        <time>2026-08-21T12:00:48.000Z</time>
      </trkpt>
      <trkpt lat="45.28915" lon="6.06118">
        <ele>1292.5999755859</ele>
        <time>2026-08-21T12:00:49.000Z</time>
      </trkpt>
      <trkpt lat="45.28916" lon="6.06119">
        <ele>1292</ele>
        <time>2026-08-21T12:00:50.000Z</time>
      </trkpt>
      <trkpt lat="45.28917" lon="6.0612">
        <ele>1291.5999755859</ele>
        <time>2026-08-21T12:00:51.000Z</time>
      </trkpt>
      <trkpt lat="45.28918" lon="6.06121">
        <ele>1290.4000244141</ele>
        <time>2026-08-21T12:00:52.000Z</time>
      </trkpt>
      <trkpt lat="45.2892" lon="6.06123">
        <ele>1290.1999511719</ele>
        <time>2026-08-21T12:00:53.000Z</time>
      </trkpt>
      <trkpt lat="45.28922" lon="6.06124">
        <ele>1289.8000488281</ele>
        <time>2026-08-21T12:00:54.000Z</time>
      </trkpt>
      <trkpt lat="45.28924" lon="6.06126">
        <ele>1289.4000244141</ele>
        <time>2026-08-21T12:00:55.000Z</time>
      </trkpt>
      <trkpt lat="45.28925" lon="6.06128">
        <ele>1289</ele>
        <time>2026-08-21T12:00:56.000Z</time>
      </trkpt>
      <trkpt lat="45.28926" lon="6.06129">
        <ele>1288.5999755859</ele>
        <time>2026-08-21T12:00:57.000Z</time>
      </trkpt>
      <trkpt lat="45.28927" lon="6.06131">
        <ele>1288.1999511719</ele>
        <time>2026-08-21T12:00:58.000Z</time>
      </trkpt>
      <trkpt lat="45.28928" lon="6.06133">
        <ele>1287.8000488281</ele>
        <time>2026-08-21T12:00:59.000Z</time>
      </trkpt>
      <trkpt lat="45.28929" lon="6.06136">
        <ele>1287.1999511719</ele>
        <time>2026-08-21T12:01:00.000Z</time>
      </trkpt>
      <trkpt lat="45.2893" lon="6.06139">
        <ele>1286.4000244141</ele>
        <time>2026-08-21T12:01:01.000Z</time>
      </trkpt>
      <trkpt lat="45.2893" lon="6.06141">
        <ele>1286</ele>
        <time>2026-08-21T12:01:02.000Z</time>
      </trkpt>
      <trkpt lat="45.28931" lon="6.06143">
        <ele>1285.8000488281</ele>
        <time>2026-08-21T12:01:03.000Z</time>
      </trkpt>
      <trkpt lat="45.28932" lon="6.06146">
        <ele>1285</ele>
        <time>2026-08-21T12:01:04.000Z</time>
      </trkpt>
      <trkpt lat="45.28932" lon="6.06149">
        <ele>1285</ele>
        <time>2026-08-21T12:01:05.000Z</time>
      </trkpt>
      <trkpt lat="45.28932" lon="6.06151">
        <ele>1284.8000488281</ele>
        <time>2026-08-21T12:01:06.000Z</time>
      </trkpt>
      <trkpt lat="45.28933" lon="6.06153">
        <ele>1284.4000244141</ele>
        <time>2026-08-21T12:01:07.000Z</time>
      </trkpt>
      <trkpt lat="45.28933" lon="6.06155">
        <ele>1284</ele>
        <time>2026-08-21T12:01:08.000Z</time>
      </trkpt>
      <trkpt lat="45.28933" lon="6.06156">
        <ele>1283.4000244141</ele>
        <time>2026-08-21T12:01:09.000Z</time>
      </trkpt>
      <trkpt lat="45.28934" lon="6.06157">
        <ele>1283</ele>
        <time>2026-08-21T12:01:10.000Z</time>
      </trkpt>
      <trkpt lat="45.28935" lon="6.06158">
        <ele>1282.4000244141</ele>
        <time>2026-08-21T12:01:11.000Z</time>
      </trkpt>
      <trkpt lat="45.28935" lon="6.06159">
        <ele>1281.8000488281</ele>
        <time>2026-08-21T12:01:12.000Z</time>
      </trkpt>
      <trkpt lat="45.28936" lon="6.06159">
        <ele>1281.4000244141</ele>
        <time>2026-08-21T12:01:13.000Z</time>
      </trkpt>
      <trkpt lat="45.28937" lon="6.06159">
        <ele>1280.8000488281</ele>
        <time>2026-08-21T12:01:14.000Z</time>
      </trkpt>
      <trkpt lat="45.28938" lon="6.06159">
        <ele>1280.5999755859</ele>
        <time>2026-08-21T12:01:15.000Z</time>
      </trkpt>
      <trkpt lat="45.28938" lon="6.06159">
        <ele>1280</ele>
        <time>2026-08-21T12:01:16.000Z</time>
      </trkpt>
      <trkpt lat="45.28939" lon="6.06159">
        <ele>1279.5999755859</ele>
        <time>2026-08-21T12:01:17.000Z</time>
      </trkpt>
      <trkpt lat="45.2894" lon="6.06158">
        <ele>1279.1999511719</ele>
        <time>2026-08-21T12:01:18.000Z</time>
      </trkpt>
      <trkpt lat="45.28942" lon="6.06158">
        <ele>1278.5999755859</ele>
        <time>2026-08-21T12:01:19.000Z</time>
      </trkpt>
      <trkpt lat="45.28943" lon="6.06158">
        <ele>1278.1999511719</ele>
        <time>2026-08-21T12:01:20.000Z</time>
      </trkpt>
      <trkpt lat="45.28944" lon="6.06157">
        <ele>1277.1999511719</ele>
        <time>2026-08-21T12:01:21.000Z</time>
      </trkpt>
      <trkpt lat="45.28945" lon="6.06157">
        <ele>1276.4000244141</ele>
        <time>2026-08-21T12:01:22.000Z</time>
      </trkpt>
      <trkpt lat="45.28946" lon="6.06156">
        <ele>1275.4000244141</ele>
        <time>2026-08-21T12:01:23.000Z</time>
      </trkpt>
      <trkpt lat="45.28948" lon="6.06156">
        <ele>1273.5999755859</ele>
        <time>2026-08-21T12:01:24.000Z</time>
      </trkpt>
      <trkpt lat="45.2895" lon="6.06156">
        <ele>1271.8000488281</ele>
        <time>2026-08-21T12:01:25.000Z</time>
      </trkpt>
      <trkpt lat="45.28952" lon="6.06155">
        <ele>1271.5999755859</ele>
        <time>2026-08-21T12:01:26.000Z</time>
      </trkpt>
      <trkpt lat="45.28953" lon="6.06156">
        <ele>1271.1999511719</ele>
        <time>2026-08-21T12:01:27.000Z</time>
      </trkpt>
      <trkpt lat="45.28954" lon="6.06156">
        <ele>1271</ele>
        <time>2026-08-21T12:01:28.000Z</time>
      </trkpt>
      <trkpt lat="45.28956" lon="6.06157">
        <ele>1270.5999755859</ele>
        <time>2026-08-21T12:01:29.000Z</time>
      </trkpt>
      <trkpt lat="45.28957" lon="6.06158">
        <ele>1270</ele>
        <time>2026-08-21T12:01:30.000Z</time>
      </trkpt>
      <trkpt lat="45.28957" lon="6.0616">
        <ele>1269.8000488281</ele>
        <time>2026-08-21T12:01:31.000Z</time>
      </trkpt>
      <trkpt lat="45.28957" lon="6.06162">
        <ele>1269.4000244141</ele>
        <time>2026-08-21T12:01:32.000Z</time>
      </trkpt>
      <trkpt lat="45.28958" lon="6.06165">
        <ele>1269.4000244141</ele>
        <time>2026-08-21T12:01:33.000Z</time>
      </trkpt>
      <trkpt lat="45.28958" lon="6.06168">
        <ele>1269.5999755859</ele>
        <time>2026-08-21T12:01:34.000Z</time>
      </trkpt>
      <trkpt lat="45.28958" lon="6.06169">
        <ele>1269.5999755859</ele>
        <time>2026-08-21T12:01:35.000Z</time>
      </trkpt>
      <trkpt lat="45.28958" lon="6.06172">
        <ele>1269.4000244141</ele>
        <time>2026-08-21T12:01:36.000Z</time>
      </trkpt>
      <trkpt lat="45.28958" lon="6.06173">
        <ele>1268.8000488281</ele>
        <time>2026-08-21T12:01:37.000Z</time>
      </trkpt>
      <trkpt lat="45.28958" lon="6.06174">
        <ele>1268.1999511719</ele>
        <time>2026-08-21T12:01:38.000Z</time>
      </trkpt>
      <trkpt lat="45.28958" lon="6.06176">
        <ele>1267.5999755859</ele>
        <time>2026-08-21T12:01:39.000Z</time>
      </trkpt>
      <trkpt lat="45.28959" lon="6.06178">
        <ele>1267</ele>
        <time>2026-08-21T12:01:40.000Z</time>
      </trkpt>
      <trkpt lat="45.28959" lon="6.06179">
        <ele>1266.5999755859</ele>
        <time>2026-08-21T12:01:41.000Z</time>
      </trkpt>
      <trkpt lat="45.28959" lon="6.06181">
        <ele>1266</ele>
        <time>2026-08-21T12:01:42.000Z</time>
      </trkpt>
      <trkpt lat="45.2896" lon="6.06182">
        <ele>1265.8000488281</ele>
        <time>2026-08-21T12:01:43.000Z</time>
      </trkpt>
      <trkpt lat="45.2896" lon="6.06184">
        <ele>1265.8000488281</ele>
        <time>2026-08-21T12:01:44.000Z</time>
      </trkpt>
      <trkpt lat="45.2896" lon="6.06185">
        <ele>1265.5999755859</ele>
        <time>2026-08-21T12:01:45.000Z</time>
      </trkpt>
      <trkpt lat="45.2896" lon="6.06187">
        <ele>1265.4000244141</ele>
        <time>2026-08-21T12:01:46.000Z</time>
      </trkpt>
      <trkpt lat="45.2896" lon="6.06188">
        <ele>1265.4000244141</ele>
        <time>2026-08-21T12:01:47.000Z</time>
      </trkpt>
      <trkpt lat="45.28961" lon="6.06189">
        <ele>1264.8000488281</ele>
        <time>2026-08-21T12:01:48.000Z</time>
      </trkpt>
      <trkpt lat="45.28961" lon="6.06192">
        <ele>1264.4000244141</ele>
        <time>2026-08-21T12:01:49.000Z</time>
      </trkpt>
      <trkpt lat="45.28961" lon="6.06195">
        <ele>1263.8000488281</ele>
        <time>2026-08-21T12:01:50.000Z</time>
      </trkpt>
      <trkpt lat="45.28961" lon="6.06197">
        <ele>1263.4000244141</ele>
        <time>2026-08-21T12:01:51.000Z</time>
      </trkpt>
      <trkpt lat="45.28961" lon="6.062">
        <ele>1262.8000488281</ele>
        <time>2026-08-21T12:01:52.000Z</time>
      </trkpt>
      <trkpt lat="45.28961" lon="6.06202">
        <ele>1262.4000244141</ele>
        <time>2026-08-21T12:01:53.000Z</time>
      </trkpt>
      <trkpt lat="45.2896" lon="6.06204">
        <ele>1261.8000488281</ele>
        <time>2026-08-21T12:01:54.000Z</time>
      </trkpt>
      <trkpt lat="45.2896" lon="6.06206">
        <ele>1261.8000488281</ele>
        <time>2026-08-21T12:01:55.000Z</time>
      </trkpt>
      <trkpt lat="45.2896" lon="6.06209">
        <ele>1261.5999755859</ele>
        <time>2026-08-21T12:01:56.000Z</time>
      </trkpt>
      <trkpt lat="45.28958" lon="6.06212">
        <ele>1261.5999755859</ele>
        <time>2026-08-21T12:01:57.000Z</time>
      </trkpt>
      <trkpt lat="45.28958" lon="6.06214">
        <ele>1261.4000244141</ele>
        <time>2026-08-21T12:01:58.000Z</time>
      </trkpt>
      <trkpt lat="45.28958" lon="6.06217">
        <ele>1260.8000488281</ele>
        <time>2026-08-21T12:01:59.000Z</time>
      </trkpt>
      <trkpt lat="45.28957" lon="6.06219">
        <ele>1260.5999755859</ele>
        <time>2026-08-21T12:02:00.000Z</time>
      </trkpt>
      <trkpt lat="45.28957" lon="6.06221">
        <ele>1260.8000488281</ele>
        <time>2026-08-21T12:02:01.000Z</time>
      </trkpt>
      <trkpt lat="45.28957" lon="6.06223">
        <ele>1260.4000244141</ele>
        <time>2026-08-21T12:02:02.000Z</time>
      </trkpt>
      <trkpt lat="45.28957" lon="6.06225">
        <ele>1260.1999511719</ele>
        <time>2026-08-21T12:02:03.000Z</time>
      </trkpt>
      <trkpt lat="45.28956" lon="6.06229">
        <ele>1259.8000488281</ele>
        <time>2026-08-21T12:02:04.000Z</time>
      </trkpt>
      <trkpt lat="45.28955" lon="6.06231">
        <ele>1259</ele>
        <time>2026-08-21T12:02:05.000Z</time>
      </trkpt>
      <trkpt lat="45.28954" lon="6.06234">
        <ele>1258.5999755859</ele>
        <time>2026-08-21T12:02:06.000Z</time>
      </trkpt>
      <trkpt lat="45.28954" lon="6.06237">
        <ele>1257.8000488281</ele>
        <time>2026-08-21T12:02:07.000Z</time>
      </trkpt>
      <trkpt lat="45.28954" lon="6.06239">
        <ele>1257.1999511719</ele>
        <time>2026-08-21T12:02:08.000Z</time>
      </trkpt>
      <trkpt lat="45.28954" lon="6.0624">
        <ele>1256.4000244141</ele>
        <time>2026-08-21T12:02:09.000Z</time>
      </trkpt>
      <trkpt lat="45.28954" lon="6.06242">
        <ele>1255.5999755859</ele>
        <time>2026-08-21T12:02:10.000Z</time>
      </trkpt>
      <trkpt lat="45.28954" lon="6.06243">
        <ele>1253.8000488281</ele>
        <time>2026-08-21T12:02:11.000Z</time>
      </trkpt>
      <trkpt lat="45.28955" lon="6.06245">
        <ele>1253.1999511719</ele>
        <time>2026-08-21T12:02:12.000Z</time>
      </trkpt>
      <trkpt lat="45.28954" lon="6.06247">
        <ele>1252.8000488281</ele>
        <time>2026-08-21T12:02:13.000Z</time>
      </trkpt>
      <trkpt lat="45.28954" lon="6.0625">
        <ele>1252.5999755859</ele>
        <time>2026-08-21T12:02:14.000Z</time>
      </trkpt>
      <trkpt lat="45.28954" lon="6.06251">
        <ele>1252.1999511719</ele>
        <time>2026-08-21T12:02:15.000Z</time>
      </trkpt>
      <trkpt lat="45.28953" lon="6.06253">
        <ele>1250</ele>
        <time>2026-08-21T12:02:16.000Z</time>
      </trkpt>
      <trkpt lat="45.28952" lon="6.06254">
        <ele>1249.8000488281</ele>
        <time>2026-08-21T12:02:17.000Z</time>
      </trkpt>
      <trkpt lat="45.28951" lon="6.06256">
        <ele>1249.4000244141</ele>
        <time>2026-08-21T12:02:18.000Z</time>
      </trkpt>
      <trkpt lat="45.28951" lon="6.06257">
        <ele>1249.1999511719</ele>
        <time>2026-08-21T12:02:19.000Z</time>
      </trkpt>
      <trkpt lat="45.2895" lon="6.06258">
        <ele>1248.1999511719</ele>
        <time>2026-08-21T12:02:20.000Z</time>
      </trkpt>
      <trkpt lat="45.2895" lon="6.06259">
        <ele>1247.1999511719</ele>
        <time>2026-08-21T12:02:21.000Z</time>
      </trkpt>
      <trkpt lat="45.2895" lon="6.06259">
        <ele>1246.5999755859</ele>
        <time>2026-08-21T12:02:22.000Z</time>
      </trkpt>
      <trkpt lat="45.2895" lon="6.0626">
        <ele>1246.4000244141</ele>
        <time>2026-08-21T12:02:23.000Z</time>
      </trkpt>
      <trkpt lat="45.2895" lon="6.06262">
        <ele>1246.1999511719</ele>
        <time>2026-08-21T12:02:24.000Z</time>
      </trkpt>
      <trkpt lat="45.2895" lon="6.06263">
        <ele>1246</ele>
        <time>2026-08-21T12:02:25.000Z</time>
      </trkpt>
      <trkpt lat="45.2895" lon="6.06265">
        <ele>1245.8000488281</ele>
        <time>2026-08-21T12:02:26.000Z</time>
      </trkpt>
      <trkpt lat="45.2895" lon="6.06267">
        <ele>1245.4000244141</ele>
        <time>2026-08-21T12:02:27.000Z</time>
      </trkpt>
      <trkpt lat="45.2895" lon="6.06269">
        <ele>1245.1999511719</ele>
        <time>2026-08-21T12:02:28.000Z</time>
      </trkpt>
      <trkpt lat="45.28951" lon="6.06271">
        <ele>1244.8000488281</ele>
        <time>2026-08-21T12:02:29.000Z</time>
      </trkpt>
      <trkpt lat="45.28951" lon="6.06273">
        <ele>1244.5999755859</ele>
        <time>2026-08-21T12:02:30.000Z</time>
      </trkpt>
      <trkpt lat="45.28951" lon="6.06276">
        <ele>1244.1999511719</ele>
        <time>2026-08-21T12:02:31.000Z</time>
      </trkpt>
      <trkpt lat="45.28951" lon="6.06278">
        <ele>1244</ele>
        <time>2026-08-21T12:02:32.000Z</time>
      </trkpt>
      <trkpt lat="45.28951" lon="6.06281">
        <ele>1243.5999755859</ele>
        <time>2026-08-21T12:02:33.000Z</time>
      </trkpt>
      <trkpt lat="45.28951" lon="6.06281">
        <ele>1242.8000488281</ele>
        <time>2026-08-21T12:02:34.000Z</time>
      </trkpt>
      <trkpt lat="45.2895" lon="6.06282">
        <ele>1242.4000244141</ele>
        <time>2026-08-21T12:02:35.000Z</time>
      </trkpt>
      <trkpt lat="45.2895" lon="6.06284">
        <ele>1242.5999755859</ele>
        <time>2026-08-21T12:02:36.000Z</time>
      </trkpt>
      <trkpt lat="45.2895" lon="6.06285">
        <ele>1242.5999755859</ele>
        <time>2026-08-21T12:02:37.000Z</time>
      </trkpt>
      <trkpt lat="45.2895" lon="6.06286">
        <ele>1242.5999755859</ele>
        <time>2026-08-21T12:02:38.000Z</time>
      </trkpt>
      <trkpt lat="45.28951" lon="6.06287">
        <ele>1242.4000244141</ele>
        <time>2026-08-21T12:02:39.000Z</time>
      </trkpt>
      <trkpt lat="45.28952" lon="6.06288">
        <ele>1242.4000244141</ele>
        <time>2026-08-21T12:02:40.000Z</time>
      </trkpt>
      <trkpt lat="45.28953" lon="6.0629">
        <ele>1242.1999511719</ele>
        <time>2026-08-21T12:02:41.000Z</time>
      </trkpt>
      <trkpt lat="45.28954" lon="6.06291">
        <ele>1241.4000244141</ele>
        <time>2026-08-21T12:02:42.000Z</time>
      </trkpt>
      <trkpt lat="45.28956" lon="6.06293">
        <ele>1241.4000244141</ele>
        <time>2026-08-21T12:02:43.000Z</time>
      </trkpt>
      <trkpt lat="45.28957" lon="6.06295">
        <ele>1241</ele>
        <time>2026-08-21T12:02:44.000Z</time>
      </trkpt>
      <trkpt lat="45.28958" lon="6.06297">
        <ele>1240.5999755859</ele>
        <time>2026-08-21T12:02:45.000Z</time>
      </trkpt>
      <trkpt lat="45.28958" lon="6.06299">
        <ele>1240.1999511719</ele>
        <time>2026-08-21T12:02:46.000Z</time>
      </trkpt>
      <trkpt lat="45.28958" lon="6.063">
        <ele>1239.8000488281</ele>
        <time>2026-08-21T12:02:47.000Z</time>
      </trkpt>
      <trkpt lat="45.28959" lon="6.063">
        <ele>1239.1999511719</ele>
        <time>2026-08-21T12:02:48.000Z</time>
      </trkpt>
      <trkpt lat="45.28959" lon="6.063">
        <ele>1238.8000488281</ele>
        <time>2026-08-21T12:02:49.000Z</time>
      </trkpt>
      <trkpt lat="45.2896" lon="6.063">
        <ele>1238.8000488281</ele>
        <time>2026-08-21T12:02:50.000Z</time>
      </trkpt>
      <trkpt lat="45.2896" lon="6.063">
        <ele>1238.4000244141</ele>
        <time>2026-08-21T12:02:51.000Z</time>
      </trkpt>
      <trkpt lat="45.28961" lon="6.063">
        <ele>1238.1999511719</ele>
        <time>2026-08-21T12:02:52.000Z</time>
      </trkpt>
      <trkpt lat="45.28961" lon="6.06301">
        <ele>1238</ele>
        <time>2026-08-21T12:02:53.000Z</time>
      </trkpt>
      <trkpt lat="45.28962" lon="6.06302">
        <ele>1237.5999755859</ele>
        <time>2026-08-21T12:02:54.000Z</time>
      </trkpt>
      <trkpt lat="45.28962" lon="6.06302">
        <ele>1237</ele>
        <time>2026-08-21T12:02:55.000Z</time>
      </trkpt>
      <trkpt lat="45.28963" lon="6.06304">
        <ele>1236.5999755859</ele>
        <time>2026-08-21T12:02:56.000Z</time>
      </trkpt>
      <trkpt lat="45.28966" lon="6.06304">
        <ele>1236</ele>
        <time>2026-08-21T12:02:57.000Z</time>
      </trkpt>
      <trkpt lat="45.28966" lon="6.06303">
        <ele>1234.8000488281</ele>
        <time>2026-08-21T12:02:58.000Z</time>
      </trkpt>
      <trkpt lat="45.28967" lon="6.06301">
        <ele>1234.4000244141</ele>
        <time>2026-08-21T12:02:59.000Z</time>
      </trkpt>
      <trkpt lat="45.28968" lon="6.063">
        <ele>1233.8000488281</ele>
        <time>2026-08-21T12:03:00.000Z</time>
      </trkpt>
      <trkpt lat="45.2897" lon="6.06298">
        <ele>1232.8000488281</ele>
        <time>2026-08-21T12:03:01.000Z</time>
      </trkpt>
      <trkpt lat="45.28972" lon="6.06297">
        <ele>1232</ele>
        <time>2026-08-21T12:03:02.000Z</time>
      </trkpt>
      <trkpt lat="45.28974" lon="6.06297">
        <ele>1231</ele>
        <time>2026-08-21T12:03:03.000Z</time>
      </trkpt>
      <trkpt lat="45.28976" lon="6.06298">
        <ele>1230</ele>
        <time>2026-08-21T12:03:04.000Z</time>
      </trkpt>
      <trkpt lat="45.28978" lon="6.06298">
        <ele>1229.1999511719</ele>
        <time>2026-08-21T12:03:05.000Z</time>
      </trkpt>
      <trkpt lat="45.2898" lon="6.06299">
        <ele>1228.4000244141</ele>
        <time>2026-08-21T12:03:06.000Z</time>
      </trkpt>
      <trkpt lat="45.28983" lon="6.06299">
        <ele>1227.5999755859</ele>
        <time>2026-08-21T12:03:07.000Z</time>
      </trkpt>
      <trkpt lat="45.28985" lon="6.06299">
        <ele>1227.8000488281</ele>
        <time>2026-08-21T12:03:08.000Z</time>
      </trkpt>
      <trkpt lat="45.28986" lon="6.06298">
        <ele>1227.8000488281</ele>
        <time>2026-08-21T12:03:09.000Z</time>
      </trkpt>
      <trkpt lat="45.28988" lon="6.06297">
        <ele>1228</ele>
        <time>2026-08-21T12:03:10.000Z</time>
      </trkpt>
      <trkpt lat="45.28989" lon="6.06296">
        <ele>1228.1999511719</ele>
        <time>2026-08-21T12:03:11.000Z</time>
      </trkpt>
      <trkpt lat="45.28991" lon="6.06294">
        <ele>1228.8000488281</ele>
        <time>2026-08-21T12:03:12.000Z</time>
      </trkpt>
      <trkpt lat="45.28993" lon="6.06294">
        <ele>1229.1999511719</ele>
        <time>2026-08-21T12:03:13.000Z</time>
      </trkpt>
      <trkpt lat="45.28994" lon="6.06294">
        <ele>1229.5999755859</ele>
        <time>2026-08-21T12:03:14.000Z</time>
      </trkpt>
      <trkpt lat="45.28996" lon="6.06294">
        <ele>1229.8000488281</ele>
        <time>2026-08-21T12:03:15.000Z</time>
      </trkpt>
      <trkpt lat="45.28999" lon="6.06293">
        <ele>1230.1999511719</ele>
        <time>2026-08-21T12:03:16.000Z</time>
      </trkpt>
      <trkpt lat="45.29001" lon="6.06294">
        <ele>1230.1999511719</ele>
        <time>2026-08-21T12:03:17.000Z</time>
      </trkpt>
      <trkpt lat="45.29003" lon="6.06296">
        <ele>1230.4000244141</ele>
        <time>2026-08-21T12:03:18.000Z</time>
      </trkpt>
      <trkpt lat="45.29005" lon="6.06298">
        <ele>1230.5999755859</ele>
        <time>2026-08-21T12:03:19.000Z</time>
      </trkpt>
      <trkpt lat="45.29007" lon="6.06299">
        <ele>1231.4000244141</ele>
        <time>2026-08-21T12:03:20.000Z</time>
      </trkpt>
      <trkpt lat="45.29009" lon="6.063">
        <ele>1232.4000244141</ele>
        <time>2026-08-21T12:03:21.000Z</time>
      </trkpt>
      <trkpt lat="45.2901" lon="6.06302">
        <ele>1233.4000244141</ele>
        <time>2026-08-21T12:03:22.000Z</time>
      </trkpt>
      <trkpt lat="45.29011" lon="6.06303">
        <ele>1233.4000244141</ele>
        <time>2026-08-21T12:03:23.000Z</time>
      </trkpt>
      <trkpt lat="45.29013" lon="6.06304">
        <ele>1233.4000244141</ele>
        <time>2026-08-21T12:03:24.000Z</time>
      </trkpt>
      <trkpt lat="45.29015" lon="6.06304">
        <ele>1233.4000244141</ele>
        <time>2026-08-21T12:03:25.000Z</time>
      </trkpt>
      <trkpt lat="45.29016" lon="6.06304">
        <ele>1233.1999511719</ele>
        <time>2026-08-21T12:03:26.000Z</time>
      </trkpt>
      <trkpt lat="45.29018" lon="6.06305">
        <ele>1232.5999755859</ele>
        <time>2026-08-21T12:03:27.000Z</time>
      </trkpt>
      <trkpt lat="45.29021" lon="6.06305">
        <ele>1232.1999511719</ele>
        <time>2026-08-21T12:03:28.000Z</time>
      </trkpt>
      <trkpt lat="45.29023" lon="6.06305">
        <ele>1231.8000488281</ele>
        <time>2026-08-21T12:03:29.000Z</time>
      </trkpt>
      <trkpt lat="45.29025" lon="6.06304">
        <ele>1231.4000244141</ele>
        <time>2026-08-21T12:03:30.000Z</time>
      </trkpt>
      <trkpt lat="45.29027" lon="6.06304">
        <ele>1229.5999755859</ele>
        <time>2026-08-21T12:03:31.000Z</time>
      </trkpt>
      <trkpt lat="45.29029" lon="6.06304">
        <ele>1228</ele>
        <time>2026-08-21T12:03:32.000Z</time>
      </trkpt>
      <trkpt lat="45.2903" lon="6.06303">
        <ele>1227.5999755859</ele>
        <time>2026-08-21T12:03:33.000Z</time>
      </trkpt>
      <trkpt lat="45.29032" lon="6.06303">
        <ele>1227.4000244141</ele>
        <time>2026-08-21T12:03:34.000Z</time>
      </trkpt>
      <trkpt lat="45.29034" lon="6.06302">
        <ele>1227.1999511719</ele>
        <time>2026-08-21T12:03:35.000Z</time>
      </trkpt>
      <trkpt lat="45.29035" lon="6.06301">
        <ele>1226.5999755859</ele>
        <time>2026-08-21T12:03:36.000Z</time>
      </trkpt>
      <trkpt lat="45.29037" lon="6.06301">
        <ele>1225.5999755859</ele>
        <time>2026-08-21T12:03:37.000Z</time>
      </trkpt>
      <trkpt lat="45.29038" lon="6.06301">
        <ele>1225.1999511719</ele>
        <time>2026-08-21T12:03:38.000Z</time>
      </trkpt>
      <trkpt lat="45.29039" lon="6.06302">
        <ele>1225</ele>
        <time>2026-08-21T12:03:39.000Z</time>
      </trkpt>
      <trkpt lat="45.29041" lon="6.06302">
        <ele>1224.8000488281</ele>
        <time>2026-08-21T12:03:40.000Z</time>
      </trkpt>
      <trkpt lat="45.29042" lon="6.06304">
        <ele>1224.5999755859</ele>
        <time>2026-08-21T12:03:41.000Z</time>
      </trkpt>
      <trkpt lat="45.29044" lon="6.06307">
        <ele>1224.1999511719</ele>
        <time>2026-08-21T12:03:42.000Z</time>
      </trkpt>
      <trkpt lat="45.29045" lon="6.06309">
        <ele>1224.4000244141</ele>
        <time>2026-08-21T12:03:43.000Z</time>
      </trkpt>
      <trkpt lat="45.29047" lon="6.06311">
        <ele>1224.8000488281</ele>
        <time>2026-08-21T12:03:44.000Z</time>
      </trkpt>
      <trkpt lat="45.29048" lon="6.06313">
        <ele>1225</ele>
        <time>2026-08-21T12:03:45.000Z</time>
      </trkpt>
      <trkpt lat="45.29049" lon="6.06314">
        <ele>1225.1999511719</ele>
        <time>2026-08-21T12:03:46.000Z</time>
      </trkpt>
      <trkpt lat="45.29049" lon="6.06316">
        <ele>1225.5999755859</ele>
        <time>2026-08-21T12:03:47.000Z</time>
      </trkpt>
      <trkpt lat="45.29049" lon="6.06317">
        <ele>1225.8000488281</ele>
        <time>2026-08-21T12:03:48.000Z</time>
      </trkpt>
      <trkpt lat="45.29049" lon="6.06319">
        <ele>1226</ele>
        <time>2026-08-21T12:03:49.000Z</time>
      </trkpt>
      <trkpt lat="45.2905" lon="6.06321">
        <ele>1226.5999755859</ele>
        <time>2026-08-21T12:03:50.000Z</time>
      </trkpt>
      <trkpt lat="45.29051" lon="6.06324">
        <ele>1227</ele>
        <time>2026-08-21T12:03:51.000Z</time>
      </trkpt>
      <trkpt lat="45.29052" lon="6.06327">
        <ele>1227.5999755859</ele>
        <time>2026-08-21T12:03:52.000Z</time>
      </trkpt>
      <trkpt lat="45.29053" lon="6.0633">
        <ele>1228</ele>
        <time>2026-08-21T12:03:53.000Z</time>
      </trkpt>
      <trkpt lat="45.29053" lon="6.06332">
        <ele>1228.5999755859</ele>
        <time>2026-08-21T12:03:54.000Z</time>
      </trkpt>
      <trkpt lat="45.29053" lon="6.06334">
        <ele>1228.4000244141</ele>
        <time>2026-08-21T12:03:55.000Z</time>
      </trkpt>
      <trkpt lat="45.29053" lon="6.06336">
        <ele>1228</ele>
        <time>2026-08-21T12:03:56.000Z</time>
      </trkpt>
      <trkpt lat="45.29053" lon="6.06338">
        <ele>1227.8000488281</ele>
        <time>2026-08-21T12:03:57.000Z</time>
      </trkpt>
      <trkpt lat="45.29052" lon="6.06339">
        <ele>1227.5999755859</ele>
        <time>2026-08-21T12:03:58.000Z</time>
      </trkpt>
      <trkpt lat="45.29052" lon="6.06341">
        <ele>1227.1999511719</ele>
        <time>2026-08-21T12:03:59.000Z</time>
      </trkpt>
      <trkpt lat="45.29052" lon="6.06343">
        <ele>1227</ele>
        <time>2026-08-21T12:04:00.000Z</time>
      </trkpt>
      <trkpt lat="45.29051" lon="6.06344">
        <ele>1226.5999755859</ele>
        <time>2026-08-21T12:04:01.000Z</time>
      </trkpt>
      <trkpt lat="45.29051" lon="6.06345">
        <ele>1226.4000244141</ele>
        <time>2026-08-21T12:04:02.000Z</time>
      </trkpt>
      <trkpt lat="45.2905" lon="6.06347">
        <ele>1225.5999755859</ele>
        <time>2026-08-21T12:04:03.000Z</time>
      </trkpt>
      <trkpt lat="45.2905" lon="6.06348">
        <ele>1224.1999511719</ele>
        <time>2026-08-21T12:04:04.000Z</time>
      </trkpt>
      <trkpt lat="45.2905" lon="6.06351">
        <ele>1222.8000488281</ele>
        <time>2026-08-21T12:04:05.000Z</time>
      </trkpt>
      <trkpt lat="45.2905" lon="6.06353">
        <ele>1221.5999755859</ele>
        <time>2026-08-21T12:04:06.000Z</time>
      </trkpt>
      <trkpt lat="45.2905" lon="6.06355">
        <ele>1220.1999511719</ele>
        <time>2026-08-21T12:04:07.000Z</time>
      </trkpt>
      <trkpt lat="45.2905" lon="6.06357">
        <ele>1218.8000488281</ele>
        <time>2026-08-21T12:04:08.000Z</time>
      </trkpt>
      <trkpt lat="45.2905" lon="6.06358">
        <ele>1215.4000244141</ele>
        <time>2026-08-21T12:04:09.000Z</time>
      </trkpt>
      <trkpt lat="45.29049" lon="6.06359">
        <ele>1213.5999755859</ele>
        <time>2026-08-21T12:04:10.000Z</time>
      </trkpt>
      <trkpt lat="45.29049" lon="6.0636">
        <ele>1213</ele>
        <time>2026-08-21T12:04:11.000Z</time>
      </trkpt>
      <trkpt lat="45.29049" lon="6.06362">
        <ele>1213</ele>
        <time>2026-08-21T12:04:12.000Z</time>
      </trkpt>
      <trkpt lat="45.29049" lon="6.06364">
        <ele>1212.8000488281</ele>
        <time>2026-08-21T12:04:13.000Z</time>
      </trkpt>
      <trkpt lat="45.29048" lon="6.06366">
        <ele>1212</ele>
        <time>2026-08-21T12:04:14.000Z</time>
      </trkpt>
      <trkpt lat="45.29047" lon="6.06369">
        <ele>1211.8000488281</ele>
        <time>2026-08-21T12:04:15.000Z</time>
      </trkpt>
      <trkpt lat="45.29047" lon="6.06373">
        <ele>1211.5999755859</ele>
        <time>2026-08-21T12:04:16.000Z</time>
      </trkpt>
      <trkpt lat="45.29047" lon="6.06375">
        <ele>1211.4000244141</ele>
        <time>2026-08-21T12:04:17.000Z</time>
      </trkpt>
      <trkpt lat="45.29047" lon="6.06377">
        <ele>1211.1999511719</ele>
        <time>2026-08-21T12:04:18.000Z</time>
      </trkpt>
      <trkpt lat="45.29047" lon="6.06379">
        <ele>1211</ele>
        <time>2026-08-21T12:04:19.000Z</time>
      </trkpt>
      <trkpt lat="45.29047" lon="6.06382">
        <ele>1210.5999755859</ele>
        <time>2026-08-21T12:04:20.000Z</time>
      </trkpt>
      <trkpt lat="45.29047" lon="6.06385">
        <ele>1210.4000244141</ele>
        <time>2026-08-21T12:04:21.000Z</time>
      </trkpt>
      <trkpt lat="45.29048" lon="6.06388">
        <ele>1210</ele>
        <time>2026-08-21T12:04:22.000Z</time>
      </trkpt>
      <trkpt lat="45.29048" lon="6.06391">
        <ele>1210.1999511719</ele>
        <time>2026-08-21T12:04:23.000Z</time>
      </trkpt>
      <trkpt lat="45.29048" lon="6.06394">
        <ele>1210.1999511719</ele>
        <time>2026-08-21T12:04:24.000Z</time>
      </trkpt>
      <trkpt lat="45.29048" lon="6.06397">
        <ele>1210</ele>
        <time>2026-08-21T12:04:25.000Z</time>
      </trkpt>
      <trkpt lat="45.29048" lon="6.06401">
        <ele>1209.8000488281</ele>
        <time>2026-08-21T12:04:26.000Z</time>
      </trkpt>
      <trkpt lat="45.29049" lon="6.06404">
        <ele>1209.5999755859</ele>
        <time>2026-08-21T12:04:27.000Z</time>
      </trkpt>
      <trkpt lat="45.29049" lon="6.06407">
        <ele>1209.5999755859</ele>
        <time>2026-08-21T12:04:28.000Z</time>
      </trkpt>
      <trkpt lat="45.2905" lon="6.06409">
        <ele>1209.4000244141</ele>
        <time>2026-08-21T12:04:29.000Z</time>
      </trkpt>
      <trkpt lat="45.29048" lon="6.06412">
        <ele>1209</ele>
        <time>2026-08-21T12:04:30.000Z</time>
      </trkpt>
      <trkpt lat="45.29048" lon="6.06415">
        <ele>1208.8000488281</ele>
        <time>2026-08-21T12:04:31.000Z</time>
      </trkpt>
      <trkpt lat="45.29048" lon="6.06417">
        <ele>1208.4000244141</ele>
        <time>2026-08-21T12:04:32.000Z</time>
      </trkpt>
      <trkpt lat="45.29048" lon="6.06419">
        <ele>1208.1999511719</ele>
        <time>2026-08-21T12:04:33.000Z</time>
      </trkpt>
      <trkpt lat="45.29048" lon="6.06421">
        <ele>1207.8000488281</ele>
        <time>2026-08-21T12:04:34.000Z</time>
      </trkpt>
      <trkpt lat="45.29047" lon="6.06423">
        <ele>1207.4000244141</ele>
        <time>2026-08-21T12:04:35.000Z</time>
      </trkpt>
      <trkpt lat="45.29047" lon="6.06425">
        <ele>1207.1999511719</ele>
        <time>2026-08-21T12:04:36.000Z</time>
      </trkpt>
      <trkpt lat="45.29047" lon="6.06427">
        <ele>1206.8000488281</ele>
        <time>2026-08-21T12:04:37.000Z</time>
      </trkpt>
      <trkpt lat="45.29046" lon="6.06428">
        <ele>1206.5999755859</ele>
        <time>2026-08-21T12:04:38.000Z</time>
      </trkpt>
      <trkpt lat="45.29046" lon="6.0643">
        <ele>1206.1999511719</ele>
        <time>2026-08-21T12:04:39.000Z</time>
      </trkpt>
      <trkpt lat="45.29045" lon="6.06431">
        <ele>1206</ele>
        <time>2026-08-21T12:04:40.000Z</time>
      </trkpt>
      <trkpt lat="45.29045" lon="6.06433">
        <ele>1205.5999755859</ele>
        <time>2026-08-21T12:04:41.000Z</time>
      </trkpt>
      <trkpt lat="45.29044" lon="6.06434">
        <ele>1205.4000244141</ele>
        <time>2026-08-21T12:04:42.000Z</time>
      </trkpt>
      <trkpt lat="45.29043" lon="6.06437">
        <ele>1205</ele>
        <time>2026-08-21T12:04:43.000Z</time>
      </trkpt>
      <trkpt lat="45.29042" lon="6.06439">
        <ele>1204.8000488281</ele>
        <time>2026-08-21T12:04:44.000Z</time>
      </trkpt>
      <trkpt lat="45.29041" lon="6.06441">
        <ele>1204.5999755859</ele>
        <time>2026-08-21T12:04:45.000Z</time>
      </trkpt>
      <trkpt lat="45.29041" lon="6.06443">
        <ele>1204.1999511719</ele>
        <time>2026-08-21T12:04:46.000Z</time>
      </trkpt>
      <trkpt lat="45.2904" lon="6.06446">
        <ele>1203.1999511719</ele>
        <time>2026-08-21T12:04:47.000Z</time>
      </trkpt>
      <trkpt lat="45.2904" lon="6.06448">
        <ele>1202.1999511719</ele>
        <time>2026-08-21T12:04:48.000Z</time>
      </trkpt>
      <trkpt lat="45.2904" lon="6.06449">
        <ele>1202.1999511719</ele>
        <time>2026-08-21T12:04:49.000Z</time>
      </trkpt>
      <trkpt lat="45.29039" lon="6.06452">
        <ele>1201.4000244141</ele>
        <time>2026-08-21T12:04:50.000Z</time>
      </trkpt>
      <trkpt lat="45.29038" lon="6.06453">
        <ele>1200.4000244141</ele>
        <time>2026-08-21T12:04:51.000Z</time>
      </trkpt>
      <trkpt lat="45.29038" lon="6.06455">
        <ele>1200</ele>
        <time>2026-08-21T12:04:52.000Z</time>
      </trkpt>
      <trkpt lat="45.29038" lon="6.06456">
        <ele>1198.8000488281</ele>
        <time>2026-08-21T12:04:53.000Z</time>
      </trkpt>
      <trkpt lat="45.29038" lon="6.06457">
        <ele>1197.4000244141</ele>
        <time>2026-08-21T12:04:54.000Z</time>
      </trkpt>
      <trkpt lat="45.29038" lon="6.06459">
        <ele>1197</ele>
        <time>2026-08-21T12:04:55.000Z</time>
      </trkpt>
      <trkpt lat="45.29037" lon="6.06461">
        <ele>1196.4000244141</ele>
        <time>2026-08-21T12:04:56.000Z</time>
      </trkpt>
      <trkpt lat="45.29038" lon="6.06463">
        <ele>1196</ele>
        <time>2026-08-21T12:04:57.000Z</time>
      </trkpt>
      <trkpt lat="45.29038" lon="6.06466">
        <ele>1195.4000244141</ele>
        <time>2026-08-21T12:04:58.000Z</time>
      </trkpt>
      <trkpt lat="45.29038" lon="6.06469">
        <ele>1194.1999511719</ele>
        <time>2026-08-21T12:04:59.000Z</time>
      </trkpt>
      <trkpt lat="45.29039" lon="6.06472">
        <ele>1193.5999755859</ele>
        <time>2026-08-21T12:05:00.000Z</time>
      </trkpt>
      <trkpt lat="45.29039" lon="6.06474">
        <ele>1192.8000488281</ele>
        <time>2026-08-21T12:05:01.000Z</time>
      </trkpt>
      <trkpt lat="45.29038" lon="6.06476">
        <ele>1192.1999511719</ele>
        <time>2026-08-21T12:05:02.000Z</time>
      </trkpt>
      <trkpt lat="45.29038" lon="6.06479">
        <ele>1191.5999755859</ele>
        <time>2026-08-21T12:05:03.000Z</time>
      </trkpt>
      <trkpt lat="45.29038" lon="6.06481">
        <ele>1190.8000488281</ele>
        <time>2026-08-21T12:05:04.000Z</time>
      </trkpt>
      <trkpt lat="45.29038" lon="6.06483">
        <ele>1190.1999511719</ele>
        <time>2026-08-21T12:05:05.000Z</time>
      </trkpt>
      <trkpt lat="45.29038" lon="6.06484">
        <ele>1190.1999511719</ele>
        <time>2026-08-21T12:05:06.000Z</time>
      </trkpt>
      <trkpt lat="45.29039" lon="6.06485">
        <ele>1190.4000244141</ele>
        <time>2026-08-21T12:05:07.000Z</time>
      </trkpt>
      <trkpt lat="45.2904" lon="6.06486">
        <ele>1190.4000244141</ele>
        <time>2026-08-21T12:05:08.000Z</time>
      </trkpt>
      <trkpt lat="45.29041" lon="6.06488">
        <ele>1190.1999511719</ele>
        <time>2026-08-21T12:05:09.000Z</time>
      </trkpt>
      <trkpt lat="45.29042" lon="6.0649">
        <ele>1190.1999511719</ele>
        <time>2026-08-21T12:05:10.000Z</time>
      </trkpt>
      <trkpt lat="45.29043" lon="6.06491">
        <ele>1190</ele>
        <time>2026-08-21T12:05:11.000Z</time>
      </trkpt>
      <trkpt lat="45.29045" lon="6.06494">
        <ele>1189.8000488281</ele>
        <time>2026-08-21T12:05:12.000Z</time>
      </trkpt>
      <trkpt lat="45.29046" lon="6.06497">
        <ele>1188.4000244141</ele>
        <time>2026-08-21T12:05:13.000Z</time>
      </trkpt>
      <trkpt lat="45.29048" lon="6.06499">
        <ele>1187</ele>
        <time>2026-08-21T12:05:14.000Z</time>
      </trkpt>
      <trkpt lat="45.29049" lon="6.06501">
        <ele>1185.5999755859</ele>
        <time>2026-08-21T12:05:15.000Z</time>
      </trkpt>
      <trkpt lat="45.29051" lon="6.06503">
        <ele>1184.1999511719</ele>
        <time>2026-08-21T12:05:16.000Z</time>
      </trkpt>
      <trkpt lat="45.29051" lon="6.06506">
        <ele>1182.8000488281</ele>
        <time>2026-08-21T12:05:17.000Z</time>
      </trkpt>
      <trkpt lat="45.29052" lon="6.06507">
        <ele>1181.4000244141</ele>
        <time>2026-08-21T12:05:18.000Z</time>
      </trkpt>
      <trkpt lat="45.29052" lon="6.06509">
        <ele>1180.4000244141</ele>
        <time>2026-08-21T12:05:19.000Z</time>
      </trkpt>
      <trkpt lat="45.29051" lon="6.0651">
        <ele>1179.4000244141</ele>
        <time>2026-08-21T12:05:20.000Z</time>
      </trkpt>
      <trkpt lat="45.29049" lon="6.06511">
        <ele>1178.4000244141</ele>
        <time>2026-08-21T12:05:21.000Z</time>
      </trkpt>
      <trkpt lat="45.29048" lon="6.06511">
        <ele>1177.1999511719</ele>
        <time>2026-08-21T12:05:22.000Z</time>
      </trkpt>
      <trkpt lat="45.29048" lon="6.06511">
        <ele>1176.1999511719</ele>
        <time>2026-08-21T12:05:23.000Z</time>
      </trkpt>
      <trkpt lat="45.29048" lon="6.06511">
        <ele>1175</ele>
        <time>2026-08-21T12:05:24.000Z</time>
      </trkpt>
      <trkpt lat="45.29047" lon="6.06511">
        <ele>1174</ele>
        <time>2026-08-21T12:05:25.000Z</time>
      </trkpt>
      <trkpt lat="45.29047" lon="6.06511">
        <ele>1173.8000488281</ele>
        <time>2026-08-21T12:05:26.000Z</time>
      </trkpt>
      <trkpt lat="45.29046" lon="6.06512">
        <ele>1173.5999755859</ele>
        <time>2026-08-21T12:05:27.000Z</time>
      </trkpt>
      <trkpt lat="45.29046" lon="6.06513">
        <ele>1173.4000244141</ele>
        <time>2026-08-21T12:05:28.000Z</time>
      </trkpt>
      <trkpt lat="45.29046" lon="6.06514">
        <ele>1173.1999511719</ele>
        <time>2026-08-21T12:05:29.000Z</time>
      </trkpt>
      <trkpt lat="45.29046" lon="6.06515">
        <ele>1173</ele>
        <time>2026-08-21T12:05:30.000Z</time>
      </trkpt>
      <trkpt lat="45.29046" lon="6.06517">
        <ele>1172.5999755859</ele>
        <time>2026-08-21T12:05:31.000Z</time>
      </trkpt>
      <trkpt lat="45.29046" lon="6.06519">
        <ele>1172</ele>
        <time>2026-08-21T12:05:32.000Z</time>
      </trkpt>
      <trkpt lat="45.29046" lon="6.0652">
        <ele>1171.8000488281</ele>
        <time>2026-08-21T12:05:33.000Z</time>
      </trkpt>
      <trkpt lat="45.29046" lon="6.06521">
        <ele>1171.8000488281</ele>
        <time>2026-08-21T12:05:34.000Z</time>
      </trkpt>
      <trkpt lat="45.29046" lon="6.06523">
        <ele>1171.5999755859</ele>
        <time>2026-08-21T12:05:35.000Z</time>
      </trkpt>
      <trkpt lat="45.29046" lon="6.06525">
        <ele>1171.4000244141</ele>
        <time>2026-08-21T12:05:36.000Z</time>
      </trkpt>
      <trkpt lat="45.29047" lon="6.06528">
        <ele>1171.1999511719</ele>
        <time>2026-08-21T12:05:37.000Z</time>
      </trkpt>
      <trkpt lat="45.29047" lon="6.0653">
        <ele>1171</ele>
        <time>2026-08-21T12:05:38.000Z</time>
      </trkpt>
      <trkpt lat="45.29047" lon="6.06532">
        <ele>1171</ele>
        <time>2026-08-21T12:05:39.000Z</time>
      </trkpt>
      <trkpt lat="45.29047" lon="6.06533">
        <ele>1171</ele>
        <time>2026-08-21T12:05:40.000Z</time>
      </trkpt>
      <trkpt lat="45.29047" lon="6.06535">
        <ele>1171</ele>
        <time>2026-08-21T12:05:41.000Z</time>
      </trkpt>
      <trkpt lat="45.29046" lon="6.06537">
        <ele>1171.1999511719</ele>
        <time>2026-08-21T12:05:42.000Z</time>
      </trkpt>
      <trkpt lat="45.29045" lon="6.06539">
        <ele>1172.4000244141</ele>
        <time>2026-08-21T12:05:43.000Z</time>
      </trkpt>
      <trkpt lat="45.29045" lon="6.06541">
        <ele>1172.4000244141</ele>
        <time>2026-08-21T12:05:44.000Z</time>
      </trkpt>
      <trkpt lat="45.29044" lon="6.06542">
        <ele>1172.1999511719</ele>
        <time>2026-08-21T12:05:45.000Z</time>
      </trkpt>
      <trkpt lat="45.29043" lon="6.06543">
        <ele>1172.1999511719</ele>
        <time>2026-08-21T12:05:46.000Z</time>
      </trkpt>
      <trkpt lat="45.29043" lon="6.06544">
        <ele>1172.1999511719</ele>
        <time>2026-08-21T12:05:47.000Z</time>
      </trkpt>
      <trkpt lat="45.29042" lon="6.06545">
        <ele>1172</ele>
        <time>2026-08-21T12:05:48.000Z</time>
      </trkpt>
      <trkpt lat="45.29041" lon="6.06546">
        <ele>1172</ele>
        <time>2026-08-21T12:05:49.000Z</time>
      </trkpt>
      <trkpt lat="45.2904" lon="6.06546">
        <ele>1171.8000488281</ele>
        <time>2026-08-21T12:05:50.000Z</time>
      </trkpt>
      <trkpt lat="45.2904" lon="6.06547">
        <ele>1171.4000244141</ele>
        <time>2026-08-21T12:05:51.000Z</time>
      </trkpt>
      <trkpt lat="45.29039" lon="6.06548">
        <ele>1171.1999511719</ele>
        <time>2026-08-21T12:05:52.000Z</time>
      </trkpt>
      <trkpt lat="45.29039" lon="6.06549">
        <ele>1171</ele>
        <time>2026-08-21T12:05:53.000Z</time>
      </trkpt>
      <trkpt lat="45.29038" lon="6.06549">
        <ele>1171.1999511719</ele>
        <time>2026-08-21T12:05:54.000Z</time>
      </trkpt>
      <trkpt lat="45.29037" lon="6.0655">
        <ele>1171.5999755859</ele>
        <time>2026-08-21T12:05:55.000Z</time>
      </trkpt>
      <trkpt lat="45.29035" lon="6.06551">
        <ele>1171.8000488281</ele>
        <time>2026-08-21T12:05:56.000Z</time>
      </trkpt>
      <trkpt lat="45.29035" lon="6.06552">
        <ele>1172.1999511719</ele>
        <time>2026-08-21T12:05:57.000Z</time>
      </trkpt>
      <trkpt lat="45.29034" lon="6.06553">
        <ele>1172.4000244141</ele>
        <time>2026-08-21T12:05:58.000Z</time>
      </trkpt>
      <trkpt lat="45.29033" lon="6.06554">
        <ele>1172.1999511719</ele>
        <time>2026-08-21T12:05:59.000Z</time>
      </trkpt>
      <trkpt lat="45.29032" lon="6.06554">
        <ele>1171.8000488281</ele>
        <time>2026-08-21T12:06:00.000Z</time>
      </trkpt>
      <trkpt lat="45.29033" lon="6.06554">
        <ele>1171.5999755859</ele>
        <time>2026-08-21T12:06:01.000Z</time>
      </trkpt>
      <trkpt lat="45.29033" lon="6.06556">
        <ele>1171.5999755859</ele>
        <time>2026-08-21T12:06:02.000Z</time>
      </trkpt>
      <trkpt lat="45.29033" lon="6.06557">
        <ele>1171.4000244141</ele>
        <time>2026-08-21T12:06:03.000Z</time>
      </trkpt>
      <trkpt lat="45.29032" lon="6.06559">
        <ele>1170.8000488281</ele>
        <time>2026-08-21T12:06:04.000Z</time>
      </trkpt>
      <trkpt lat="45.29033" lon="6.06561">
        <ele>1170</ele>
        <time>2026-08-21T12:06:05.000Z</time>
      </trkpt>
      <trkpt lat="45.29033" lon="6.06563">
        <ele>1168.8000488281</ele>
        <time>2026-08-21T12:06:06.000Z</time>
      </trkpt>
      <trkpt lat="45.29033" lon="6.06566">
        <ele>1168.1999511719</ele>
        <time>2026-08-21T12:06:07.000Z</time>
      </trkpt>
      <trkpt lat="45.29033" lon="6.06569">
        <ele>1167.5999755859</ele>
        <time>2026-08-21T12:06:08.000Z</time>
      </trkpt>
      <trkpt lat="45.29033" lon="6.06571">
        <ele>1167.1999511719</ele>
        <time>2026-08-21T12:06:09.000Z</time>
      </trkpt>
      <trkpt lat="45.29033" lon="6.06573">
        <ele>1166.5999755859</ele>
        <time>2026-08-21T12:06:10.000Z</time>
      </trkpt>
      <trkpt lat="45.29033" lon="6.06575">
        <ele>1166.4000244141</ele>
        <time>2026-08-21T12:06:11.000Z</time>
      </trkpt>
      <trkpt lat="45.29032" lon="6.06576">
        <ele>1165.4000244141</ele>
        <time>2026-08-21T12:06:12.000Z</time>
      </trkpt>
      <trkpt lat="45.29032" lon="6.06579">
        <ele>1164.8000488281</ele>
        <time>2026-08-21T12:06:13.000Z</time>
      </trkpt>
      <trkpt lat="45.29031" lon="6.06582">
        <ele>1164.4000244141</ele>
        <time>2026-08-21T12:06:14.000Z</time>
      </trkpt>
      <trkpt lat="45.2903" lon="6.06584">
        <ele>1164</ele>
        <time>2026-08-21T12:06:15.000Z</time>
      </trkpt>
      <trkpt lat="45.29029" lon="6.06587">
        <ele>1164</ele>
        <time>2026-08-21T12:06:16.000Z</time>
      </trkpt>
      <trkpt lat="45.29028" lon="6.06588">
        <ele>1163.8000488281</ele>
        <time>2026-08-21T12:06:17.000Z</time>
      </trkpt>
      <trkpt lat="45.29027" lon="6.0659">
        <ele>1163.4000244141</ele>
        <time>2026-08-21T12:06:18.000Z</time>
      </trkpt>
      <trkpt lat="45.29026" lon="6.06591">
        <ele>1163.4000244141</ele>
        <time>2026-08-21T12:06:19.000Z</time>
      </trkpt>
      <trkpt lat="45.29026" lon="6.06592">
        <ele>1163.5999755859</ele>
        <time>2026-08-21T12:06:20.000Z</time>
      </trkpt>
      <trkpt lat="45.29025" lon="6.06593">
        <ele>1163.4000244141</ele>
        <time>2026-08-21T12:06:21.000Z</time>
      </trkpt>
      <trkpt lat="45.29024" lon="6.06594">
        <ele>1162.8000488281</ele>
        <time>2026-08-21T12:06:22.000Z</time>
      </trkpt>
      <trkpt lat="45.29024" lon="6.06595">
        <ele>1162.1999511719</ele>
        <time>2026-08-21T12:06:23.000Z</time>
      </trkpt>
      <trkpt lat="45.29023" lon="6.06596">
        <ele>1161.8000488281</ele>
        <time>2026-08-21T12:06:24.000Z</time>
      </trkpt>
      <trkpt lat="45.29022" lon="6.06597">
        <ele>1161.1999511719</ele>
        <time>2026-08-21T12:06:25.000Z</time>
      </trkpt>
      <trkpt lat="45.29022" lon="6.06599">
        <ele>1160.5999755859</ele>
        <time>2026-08-21T12:06:26.000Z</time>
      </trkpt>
      <trkpt lat="45.29021" lon="6.066">
        <ele>1160</ele>
        <time>2026-08-21T12:06:27.000Z</time>
      </trkpt>
      <trkpt lat="45.2902" lon="6.06601">
        <ele>1160</ele>
        <time>2026-08-21T12:06:28.000Z</time>
      </trkpt>
      <trkpt lat="45.29019" lon="6.06602">
        <ele>1158.8000488281</ele>
        <time>2026-08-21T12:06:29.000Z</time>
      </trkpt>
      <trkpt lat="45.29018" lon="6.06604">
        <ele>1158.5999755859</ele>
        <time>2026-08-21T12:06:30.000Z</time>
      </trkpt>
      <trkpt lat="45.29017" lon="6.06605">
        <ele>1158.1999511719</ele>
        <time>2026-08-21T12:06:31.000Z</time>
      </trkpt>
      <trkpt lat="45.29016" lon="6.06606">
        <ele>1157.5999755859</ele>
        <time>2026-08-21T12:06:32.000Z</time>
      </trkpt>
      <trkpt lat="45.29016" lon="6.06608">
        <ele>1157.1999511719</ele>
        <time>2026-08-21T12:06:33.000Z</time>
      </trkpt>
      <trkpt lat="45.29015" lon="6.06609">
        <ele>1156.8000488281</ele>
        <time>2026-08-21T12:06:34.000Z</time>
      </trkpt>
      <trkpt lat="45.29015" lon="6.06611">
        <ele>1157</ele>
        <time>2026-08-21T12:06:35.000Z</time>
      </trkpt>
      <trkpt lat="45.29013" lon="6.06614">
        <ele>1156.8000488281</ele>
        <time>2026-08-21T12:06:36.000Z</time>
      </trkpt>
      <trkpt lat="45.29012" lon="6.06616">
        <ele>1157</ele>
        <time>2026-08-21T12:06:37.000Z</time>
      </trkpt>
      <trkpt lat="45.29011" lon="6.06617">
        <ele>1157</ele>
        <time>2026-08-21T12:06:38.000Z</time>
      </trkpt>
      <trkpt lat="45.29009" lon="6.06618">
        <ele>1156.8000488281</ele>
        <time>2026-08-21T12:06:39.000Z</time>
      </trkpt>
      <trkpt lat="45.29008" lon="6.06619">
        <ele>1156.4000244141</ele>
        <time>2026-08-21T12:06:40.000Z</time>
      </trkpt>
      <trkpt lat="45.29006" lon="6.0662">
        <ele>1156</ele>
        <time>2026-08-21T12:06:41.000Z</time>
      </trkpt>
      <trkpt lat="45.29005" lon="6.06621">
        <ele>1155.5999755859</ele>
        <time>2026-08-21T12:06:42.000Z</time>
      </trkpt>
      <trkpt lat="45.29003" lon="6.06623">
        <ele>1155.4000244141</ele>
        <time>2026-08-21T12:06:43.000Z</time>
      </trkpt>
      <trkpt lat="45.29002" lon="6.06626">
        <ele>1155</ele>
        <time>2026-08-21T12:06:44.000Z</time>
      </trkpt>
      <trkpt lat="45.29" lon="6.06628">
        <ele>1154.5999755859</ele>
        <time>2026-08-21T12:06:45.000Z</time>
      </trkpt>
      <trkpt lat="45.28999" lon="6.0663">
        <ele>1154.5999755859</ele>
        <time>2026-08-21T12:06:46.000Z</time>
      </trkpt>
      <trkpt lat="45.28998" lon="6.06632">
        <ele>1154.1999511719</ele>
        <time>2026-08-21T12:06:47.000Z</time>
      </trkpt>
      <trkpt lat="45.28997" lon="6.06636">
        <ele>1154.1999511719</ele>
        <time>2026-08-21T12:06:48.000Z</time>
      </trkpt>
      <trkpt lat="45.28997" lon="6.06639">
        <ele>1154.1999511719</ele>
        <time>2026-08-21T12:06:49.000Z</time>
      </trkpt>
      <trkpt lat="45.28996" lon="6.06642">
        <ele>1153.8000488281</ele>
        <time>2026-08-21T12:06:50.000Z</time>
      </trkpt>
      <trkpt lat="45.28995" lon="6.06644">
        <ele>1152.5999755859</ele>
        <time>2026-08-21T12:06:51.000Z</time>
      </trkpt>
      <trkpt lat="45.28994" lon="6.06647">
        <ele>1151.1999511719</ele>
        <time>2026-08-21T12:06:52.000Z</time>
      </trkpt>
      <trkpt lat="45.28994" lon="6.0665">
        <ele>1151</ele>
        <time>2026-08-21T12:06:53.000Z</time>
      </trkpt>
      <trkpt lat="45.28994" lon="6.06653">
        <ele>1150.5999755859</ele>
        <time>2026-08-21T12:06:54.000Z</time>
      </trkpt>
      <trkpt lat="45.28993" lon="6.06656">
        <ele>1150.4000244141</ele>
        <time>2026-08-21T12:06:55.000Z</time>
      </trkpt>
      <trkpt lat="45.28992" lon="6.0666">
        <ele>1150.4000244141</ele>
        <time>2026-08-21T12:06:56.000Z</time>
      </trkpt>
      <trkpt lat="45.28991" lon="6.06662">
        <ele>1150.4000244141</ele>
        <time>2026-08-21T12:06:57.000Z</time>
      </trkpt>
      <trkpt lat="45.28991" lon="6.06665">
        <ele>1150</ele>
        <time>2026-08-21T12:06:58.000Z</time>
      </trkpt>
      <trkpt lat="45.28991" lon="6.06667">
        <ele>1149.4000244141</ele>
        <time>2026-08-21T12:06:59.000Z</time>
      </trkpt>
      <trkpt lat="45.2899" lon="6.0667">
        <ele>1148.4000244141</ele>
        <time>2026-08-21T12:07:00.000Z</time>
      </trkpt>
      <trkpt lat="45.28989" lon="6.06673">
        <ele>1148</ele>
        <time>2026-08-21T12:07:01.000Z</time>
      </trkpt>
      <trkpt lat="45.28988" lon="6.06677">
        <ele>1147.5999755859</ele>
        <time>2026-08-21T12:07:02.000Z</time>
      </trkpt>
      <trkpt lat="45.28987" lon="6.06679">
        <ele>1147.4000244141</ele>
        <time>2026-08-21T12:07:03.000Z</time>
      </trkpt>
      <trkpt lat="45.28987" lon="6.06682">
        <ele>1147.4000244141</ele>
        <time>2026-08-21T12:07:04.000Z</time>
      </trkpt>
      <trkpt lat="45.28987" lon="6.06684">
        <ele>1147.8000488281</ele>
        <time>2026-08-21T12:07:05.000Z</time>
      </trkpt>
      <trkpt lat="45.28987" lon="6.06686">
        <ele>1147.1999511719</ele>
        <time>2026-08-21T12:07:06.000Z</time>
      </trkpt>
      <trkpt lat="45.28986" lon="6.06689">
        <ele>1146.5999755859</ele>
        <time>2026-08-21T12:07:07.000Z</time>
      </trkpt>
      <trkpt lat="45.28986" lon="6.06691">
        <ele>1146.1999511719</ele>
        <time>2026-08-21T12:07:08.000Z</time>
      </trkpt>
      <trkpt lat="45.28986" lon="6.06694">
        <ele>1146</ele>
        <time>2026-08-21T12:07:09.000Z</time>
      </trkpt>
      <trkpt lat="45.28985" lon="6.06696">
        <ele>1144.5999755859</ele>
        <time>2026-08-21T12:07:10.000Z</time>
      </trkpt>
      <trkpt lat="45.28985" lon="6.067">
        <ele>1144</ele>
        <time>2026-08-21T12:07:11.000Z</time>
      </trkpt>
      <trkpt lat="45.28984" lon="6.06702">
        <ele>1142.5999755859</ele>
        <time>2026-08-21T12:07:12.000Z</time>
      </trkpt>
      <trkpt lat="45.28984" lon="6.06706">
        <ele>1141.8000488281</ele>
        <time>2026-08-21T12:07:13.000Z</time>
      </trkpt>
      <trkpt lat="45.28984" lon="6.06708">
        <ele>1140.8000488281</ele>
        <time>2026-08-21T12:07:14.000Z</time>
      </trkpt>
      <trkpt lat="45.28985" lon="6.06711">
        <ele>1140</ele>
        <time>2026-08-21T12:07:15.000Z</time>
      </trkpt>
      <trkpt lat="45.28986" lon="6.06714">
        <ele>1139.1999511719</ele>
        <time>2026-08-21T12:07:16.000Z</time>
      </trkpt>
      <trkpt lat="45.28986" lon="6.06717">
        <ele>1138.4000244141</ele>
        <time>2026-08-21T12:07:17.000Z</time>
      </trkpt>
      <trkpt lat="45.28986" lon="6.06721">
        <ele>1137</ele>
        <time>2026-08-21T12:07:18.000Z</time>
      </trkpt>
      <trkpt lat="45.28987" lon="6.06724">
        <ele>1137</ele>
        <time>2026-08-21T12:07:19.000Z</time>
      </trkpt>
      <trkpt lat="45.28987" lon="6.06728">
        <ele>1136.5999755859</ele>
        <time>2026-08-21T12:07:20.000Z</time>
      </trkpt>
      <trkpt lat="45.28988" lon="6.06732">
        <ele>1136</ele>
        <time>2026-08-21T12:07:21.000Z</time>
      </trkpt>
      <trkpt lat="45.28988" lon="6.06735">
        <ele>1136.1999511719</ele>
        <time>2026-08-21T12:07:22.000Z</time>
      </trkpt>
      <trkpt lat="45.28989" lon="6.06739">
        <ele>1135.5999755859</ele>
        <time>2026-08-21T12:07:23.000Z</time>
      </trkpt>
      <trkpt lat="45.28989" lon="6.06742">
        <ele>1135.8000488281</ele>
        <time>2026-08-21T12:07:24.000Z</time>
      </trkpt>
      <trkpt lat="45.28989" lon="6.06745">
        <ele>1136</ele>
        <time>2026-08-21T12:07:25.000Z</time>
      </trkpt>
      <trkpt lat="45.2899" lon="6.06747">
        <ele>1136</ele>
        <time>2026-08-21T12:07:26.000Z</time>
      </trkpt>
      <trkpt lat="45.28991" lon="6.0675">
        <ele>1136.4000244141</ele>
        <time>2026-08-21T12:07:27.000Z</time>
      </trkpt>
      <trkpt lat="45.28992" lon="6.06754">
        <ele>1136.5999755859</ele>
        <time>2026-08-21T12:07:28.000Z</time>
      </trkpt>
      <trkpt lat="45.28993" lon="6.06757">
        <ele>1136.1999511719</ele>
        <time>2026-08-21T12:07:29.000Z</time>
      </trkpt>
      <trkpt lat="45.28993" lon="6.06761">
        <ele>1135.5999755859</ele>
        <time>2026-08-21T12:07:30.000Z</time>
      </trkpt>
      <trkpt lat="45.28994" lon="6.06764">
        <ele>1133.8000488281</ele>
        <time>2026-08-21T12:07:31.000Z</time>
      </trkpt>
      <trkpt lat="45.28994" lon="6.06769">
        <ele>1132.8000488281</ele>
        <time>2026-08-21T12:07:32.000Z</time>
      </trkpt>
      <trkpt lat="45.28995" lon="6.06772">
        <ele>1132.1999511719</ele>
        <time>2026-08-21T12:07:33.000Z</time>
      </trkpt>
      <trkpt lat="45.28996" lon="6.06775">
        <ele>1131.5999755859</ele>
        <time>2026-08-21T12:07:34.000Z</time>
      </trkpt>
      <trkpt lat="45.28997" lon="6.06778">
        <ele>1131.5999755859</ele>
        <time>2026-08-21T12:07:35.000Z</time>
      </trkpt>
      <trkpt lat="45.28997" lon="6.06782">
        <ele>1131.4000244141</ele>
        <time>2026-08-21T12:07:36.000Z</time>
      </trkpt>
      <trkpt lat="45.28998" lon="6.06786">
        <ele>1131.1999511719</ele>
        <time>2026-08-21T12:07:37.000Z</time>
      </trkpt>
      <trkpt lat="45.28998" lon="6.0679">
        <ele>1131</ele>
        <time>2026-08-21T12:07:38.000Z</time>
      </trkpt>
      <trkpt lat="45.28998" lon="6.06794">
        <ele>1130.5999755859</ele>
        <time>2026-08-21T12:07:39.000Z</time>
      </trkpt>
      <trkpt lat="45.28998" lon="6.06798">
        <ele>1129.5999755859</ele>
        <time>2026-08-21T12:07:40.000Z</time>
      </trkpt>
      <trkpt lat="45.28998" lon="6.06802">
        <ele>1129.4000244141</ele>
        <time>2026-08-21T12:07:41.000Z</time>
      </trkpt>
      <trkpt lat="45.28997" lon="6.06806">
        <ele>1128.4000244141</ele>
        <time>2026-08-21T12:07:42.000Z</time>
      </trkpt>
      <trkpt lat="45.28996" lon="6.0681">
        <ele>1127.8000488281</ele>
        <time>2026-08-21T12:07:43.000Z</time>
      </trkpt>
      <trkpt lat="45.28995" lon="6.06814">
        <ele>1127.8000488281</ele>
        <time>2026-08-21T12:07:44.000Z</time>
      </trkpt>
      <trkpt lat="45.28994" lon="6.06817">
        <ele>1126.5999755859</ele>
        <time>2026-08-21T12:07:45.000Z</time>
      </trkpt>
      <trkpt lat="45.28994" lon="6.06821">
        <ele>1126.4000244141</ele>
        <time>2026-08-21T12:07:46.000Z</time>
      </trkpt>
      <trkpt lat="45.28994" lon="6.06825">
        <ele>1125.8000488281</ele>
        <time>2026-08-21T12:07:47.000Z</time>
      </trkpt>
      <trkpt lat="45.28993" lon="6.06828">
        <ele>1124.5999755859</ele>
        <time>2026-08-21T12:07:48.000Z</time>
      </trkpt>
      <trkpt lat="45.28993" lon="6.06831">
        <ele>1123.4000244141</ele>
        <time>2026-08-21T12:07:49.000Z</time>
      </trkpt>
      <trkpt lat="45.28994" lon="6.06833">
        <ele>1122.5999755859</ele>
        <time>2026-08-21T12:07:50.000Z</time>
      </trkpt>
      <trkpt lat="45.28994" lon="6.06836">
        <ele>1121</ele>
        <time>2026-08-21T12:07:51.000Z</time>
      </trkpt>
      <trkpt lat="45.28994" lon="6.0684">
        <ele>1119.8000488281</ele>
        <time>2026-08-21T12:07:52.000Z</time>
      </trkpt>
      <trkpt lat="45.28993" lon="6.06842">
        <ele>1119.5999755859</ele>
        <time>2026-08-21T12:07:53.000Z</time>
      </trkpt>
      <trkpt lat="45.28992" lon="6.06845">
        <ele>1118.5999755859</ele>
        <time>2026-08-21T12:07:54.000Z</time>
      </trkpt>
      <trkpt lat="45.28991" lon="6.06848">
        <ele>1118</ele>
        <time>2026-08-21T12:07:55.000Z</time>
      </trkpt>
      <trkpt lat="45.28991" lon="6.06851">
        <ele>1117.5999755859</ele>
        <time>2026-08-21T12:07:56.000Z</time>
      </trkpt>
      <trkpt lat="45.2899" lon="6.06855">
        <ele>1117.1999511719</ele>
        <time>2026-08-21T12:07:57.000Z</time>
      </trkpt>
      <trkpt lat="45.28989" lon="6.06859">
        <ele>1117.1999511719</ele>
        <time>2026-08-21T12:07:58.000Z</time>
      </trkpt>
      <trkpt lat="45.28988" lon="6.06862">
        <ele>1117.1999511719</ele>
        <time>2026-08-21T12:07:59.000Z</time>
      </trkpt>
      <trkpt lat="45.28987" lon="6.06866">
        <ele>1117.1999511719</ele>
        <time>2026-08-21T12:08:00.000Z</time>
      </trkpt>
      <trkpt lat="45.28987" lon="6.0687">
        <ele>1117.4000244141</ele>
        <time>2026-08-21T12:08:01.000Z</time>
      </trkpt>
      <trkpt lat="45.28986" lon="6.06873">
        <ele>1117.4000244141</ele>
        <time>2026-08-21T12:08:02.000Z</time>
      </trkpt>
      <trkpt lat="45.28985" lon="6.06876">
        <ele>1117</ele>
        <time>2026-08-21T12:08:03.000Z</time>
      </trkpt>
      <trkpt lat="45.28985" lon="6.0688">
        <ele>1116.5999755859</ele>
        <time>2026-08-21T12:08:04.000Z</time>
      </trkpt>
      <trkpt lat="45.28985" lon="6.06884">
        <ele>1115.8000488281</ele>
        <time>2026-08-21T12:08:05.000Z</time>
      </trkpt>
      <trkpt lat="45.28985" lon="6.06888">
        <ele>1114.8000488281</ele>
        <time>2026-08-21T12:08:06.000Z</time>
      </trkpt>
      <trkpt lat="45.28986" lon="6.06892">
        <ele>1114.5999755859</ele>
        <time>2026-08-21T12:08:07.000Z</time>
      </trkpt>
      <trkpt lat="45.28988" lon="6.06896">
        <ele>1113.8000488281</ele>
        <time>2026-08-21T12:08:08.000Z</time>
      </trkpt>
      <trkpt lat="45.28988" lon="6.06899">
        <ele>1113.5999755859</ele>
        <time>2026-08-21T12:08:09.000Z</time>
      </trkpt>
      <trkpt lat="45.28989" lon="6.06903">
        <ele>1113.8000488281</ele>
        <time>2026-08-21T12:08:10.000Z</time>
      </trkpt>
      <trkpt lat="45.2899" lon="6.06908">
        <ele>1113.8000488281</ele>
        <time>2026-08-21T12:08:11.000Z</time>
      </trkpt>
      <trkpt lat="45.2899" lon="6.06911">
        <ele>1113.8000488281</ele>
        <time>2026-08-21T12:08:12.000Z</time>
      </trkpt>
      <trkpt lat="45.28991" lon="6.06915">
        <ele>1113.8000488281</ele>
        <time>2026-08-21T12:08:13.000Z</time>
      </trkpt>
      <trkpt lat="45.28991" lon="6.06919">
        <ele>1113.4000244141</ele>
        <time>2026-08-21T12:08:14.000Z</time>
      </trkpt>
      <trkpt lat="45.28991" lon="6.06923">
        <ele>1113.4000244141</ele>
        <time>2026-08-21T12:08:15.000Z</time>
      </trkpt>
      <trkpt lat="45.2899" lon="6.06928">
        <ele>1113</ele>
        <time>2026-08-21T12:08:16.000Z</time>
      </trkpt>
      <trkpt lat="45.2899" lon="6.06932">
        <ele>1112.5999755859</ele>
        <time>2026-08-21T12:08:17.000Z</time>
      </trkpt>
      <trkpt lat="45.2899" lon="6.06937">
        <ele>1112.5999755859</ele>
        <time>2026-08-21T12:08:18.000Z</time>
      </trkpt>
      <trkpt lat="45.2899" lon="6.06941">
        <ele>1112</ele>
        <time>2026-08-21T12:08:19.000Z</time>
      </trkpt>
      <trkpt lat="45.2899" lon="6.06946">
        <ele>1112</ele>
        <time>2026-08-21T12:08:20.000Z</time>
      </trkpt>
      <trkpt lat="45.2899" lon="6.0695">
        <ele>1111.8000488281</ele>
        <time>2026-08-21T12:08:21.000Z</time>
      </trkpt>
      <trkpt lat="45.28991" lon="6.06954">
        <ele>1111.5999755859</ele>
        <time>2026-08-21T12:08:22.000Z</time>
      </trkpt>
      <trkpt lat="45.28992" lon="6.06958">
        <ele>1111.1999511719</ele>
        <time>2026-08-21T12:08:23.000Z</time>
      </trkpt>
      <trkpt lat="45.28994" lon="6.06961">
        <ele>1111</ele>
        <time>2026-08-21T12:08:24.000Z</time>
      </trkpt>
      <trkpt lat="45.28996" lon="6.06964">
        <ele>1110.4000244141</ele>
        <time>2026-08-21T12:08:25.000Z</time>
      </trkpt>
      <trkpt lat="45.28998" lon="6.06967">
        <ele>1110</ele>
        <time>2026-08-21T12:08:26.000Z</time>
      </trkpt>
      <trkpt lat="45.28999" lon="6.0697">
        <ele>1109.4000244141</ele>
        <time>2026-08-21T12:08:27.000Z</time>
      </trkpt>
      <trkpt lat="45.29002" lon="6.06973">
        <ele>1108.5999755859</ele>
        <time>2026-08-21T12:08:28.000Z</time>
      </trkpt>
      <trkpt lat="45.29004" lon="6.06975">
        <ele>1107.8000488281</ele>
        <time>2026-08-21T12:08:29.000Z</time>
      </trkpt>
      <trkpt lat="45.29006" lon="6.06978">
        <ele>1107</ele>
        <time>2026-08-21T12:08:30.000Z</time>
      </trkpt>
      <trkpt lat="45.29007" lon="6.06981">
        <ele>1106.5999755859</ele>
        <time>2026-08-21T12:08:31.000Z</time>
      </trkpt>
      <trkpt lat="45.29008" lon="6.06985">
        <ele>1106</ele>
        <time>2026-08-21T12:08:32.000Z</time>
      </trkpt>
      <trkpt lat="45.2901" lon="6.06988">
        <ele>1105.5999755859</ele>
        <time>2026-08-21T12:08:33.000Z</time>
      </trkpt>
      <trkpt lat="45.29012" lon="6.06992">
        <ele>1105.5999755859</ele>
        <time>2026-08-21T12:08:34.000Z</time>
      </trkpt>
      <trkpt lat="45.29014" lon="6.06995">
        <ele>1105.5999755859</ele>
        <time>2026-08-21T12:08:35.000Z</time>
      </trkpt>
      <trkpt lat="45.29016" lon="6.06998">
        <ele>1105.4000244141</ele>
        <time>2026-08-21T12:08:36.000Z</time>
      </trkpt>
      <trkpt lat="45.29017" lon="6.07001">
        <ele>1105</ele>
        <time>2026-08-21T12:08:37.000Z</time>
      </trkpt>
      <trkpt lat="45.29019" lon="6.07004">
        <ele>1104.8000488281</ele>
        <time>2026-08-21T12:08:38.000Z</time>
      </trkpt>
      <trkpt lat="45.2902" lon="6.07007">
        <ele>1104</ele>
        <time>2026-08-21T12:08:39.000Z</time>
      </trkpt>
      <trkpt lat="45.29022" lon="6.0701">
        <ele>1103.4000244141</ele>
        <time>2026-08-21T12:08:40.000Z</time>
      </trkpt>
      <trkpt lat="45.29023" lon="6.07014">
        <ele>1103</ele>
        <time>2026-08-21T12:08:41.000Z</time>
      </trkpt>
      <trkpt lat="45.29024" lon="6.07018">
        <ele>1102.4000244141</ele>
        <time>2026-08-21T12:08:42.000Z</time>
      </trkpt>
      <trkpt lat="45.29025" lon="6.07022">
        <ele>1102.1999511719</ele>
        <time>2026-08-21T12:08:43.000Z</time>
      </trkpt>
      <trkpt lat="45.29025" lon="6.07026">
        <ele>1101.8000488281</ele>
        <time>2026-08-21T12:08:44.000Z</time>
      </trkpt>
      <trkpt lat="45.29025" lon="6.0703">
        <ele>1101</ele>
        <time>2026-08-21T12:08:45.000Z</time>
      </trkpt>
      <trkpt lat="45.29026" lon="6.07034">
        <ele>1099.1999511719</ele>
        <time>2026-08-21T12:08:46.000Z</time>
      </trkpt>
      <trkpt lat="45.29025" lon="6.07039">
        <ele>1098.1999511719</ele>
        <time>2026-08-21T12:08:47.000Z</time>
      </trkpt>
      <trkpt lat="45.29024" lon="6.07043">
        <ele>1096.5999755859</ele>
        <time>2026-08-21T12:08:48.000Z</time>
      </trkpt>
      <trkpt lat="45.29024" lon="6.07048">
        <ele>1096.4000244141</ele>
        <time>2026-08-21T12:08:49.000Z</time>
      </trkpt>
      <trkpt lat="45.29023" lon="6.07051">
        <ele>1095.1999511719</ele>
        <time>2026-08-21T12:08:50.000Z</time>
      </trkpt>
      <trkpt lat="45.29023" lon="6.07055">
        <ele>1094.5999755859</ele>
        <time>2026-08-21T12:08:51.000Z</time>
      </trkpt>
      <trkpt lat="45.29023" lon="6.07059">
        <ele>1094.1999511719</ele>
        <time>2026-08-21T12:08:52.000Z</time>
      </trkpt>
      <trkpt lat="45.29023" lon="6.07063">
        <ele>1093.8000488281</ele>
        <time>2026-08-21T12:08:53.000Z</time>
      </trkpt>
      <trkpt lat="45.29024" lon="6.07067">
        <ele>1093.8000488281</ele>
        <time>2026-08-21T12:08:54.000Z</time>
      </trkpt>
      <trkpt lat="45.29025" lon="6.07071">
        <ele>1093.8000488281</ele>
        <time>2026-08-21T12:08:55.000Z</time>
      </trkpt>
      <trkpt lat="45.29026" lon="6.07076">
        <ele>1093.8000488281</ele>
        <time>2026-08-21T12:08:56.000Z</time>
      </trkpt>
      <trkpt lat="45.29028" lon="6.0708">
        <ele>1093.5999755859</ele>
        <time>2026-08-21T12:08:57.000Z</time>
      </trkpt>
      <trkpt lat="45.29029" lon="6.07084">
        <ele>1093.1999511719</ele>
        <time>2026-08-21T12:08:58.000Z</time>
      </trkpt>
      <trkpt lat="45.2903" lon="6.07088">
        <ele>1093</ele>
        <time>2026-08-21T12:08:59.000Z</time>
      </trkpt>
      <trkpt lat="45.29032" lon="6.07092">
        <ele>1092</ele>
        <time>2026-08-21T12:09:00.000Z</time>
      </trkpt>
      <trkpt lat="45.29033" lon="6.07095">
        <ele>1091.5999755859</ele>
        <time>2026-08-21T12:09:01.000Z</time>
      </trkpt>
      <trkpt lat="45.29035" lon="6.07098">
        <ele>1091.4000244141</ele>
        <time>2026-08-21T12:09:02.000Z</time>
      </trkpt>
      <trkpt lat="45.29036" lon="6.07101">
        <ele>1091.1999511719</ele>
        <time>2026-08-21T12:09:03.000Z</time>
      </trkpt>
      <trkpt lat="45.29038" lon="6.07105">
        <ele>1091</ele>
        <time>2026-08-21T12:09:04.000Z</time>
      </trkpt>
      <trkpt lat="45.29039" lon="6.07108">
        <ele>1090.8000488281</ele>
        <time>2026-08-21T12:09:05.000Z</time>
      </trkpt>
      <trkpt lat="45.29041" lon="6.07112">
        <ele>1091</ele>
        <time>2026-08-21T12:09:06.000Z</time>
      </trkpt>
      <trkpt lat="45.29042" lon="6.07116">
        <ele>1090.8000488281</ele>
        <time>2026-08-21T12:09:07.000Z</time>
      </trkpt>
      <trkpt lat="45.29042" lon="6.07121">
        <ele>1090.8000488281</ele>
        <time>2026-08-21T12:09:08.000Z</time>
      </trkpt>
      <trkpt lat="45.29043" lon="6.07126">
        <ele>1090.8000488281</ele>
        <time>2026-08-21T12:09:09.000Z</time>
      </trkpt>
      <trkpt lat="45.29043" lon="6.0713">
        <ele>1090.5999755859</ele>
        <time>2026-08-21T12:09:10.000Z</time>
      </trkpt>
      <trkpt lat="45.29043" lon="6.07135">
        <ele>1090.1999511719</ele>
        <time>2026-08-21T12:09:11.000Z</time>
      </trkpt>
      <trkpt lat="45.29044" lon="6.07139">
        <ele>1089.8000488281</ele>
        <time>2026-08-21T12:09:12.000Z</time>
      </trkpt>
      <trkpt lat="45.29044" lon="6.07143">
        <ele>1089.4000244141</ele>
        <time>2026-08-21T12:09:13.000Z</time>
      </trkpt>
      <trkpt lat="45.29044" lon="6.07147">
        <ele>1089</ele>
        <time>2026-08-21T12:09:14.000Z</time>
      </trkpt>
      <trkpt lat="45.29043" lon="6.07151">
        <ele>1088.5999755859</ele>
        <time>2026-08-21T12:09:15.000Z</time>
      </trkpt>
      <trkpt lat="45.29043" lon="6.07151">
        <ele>1088.4000244141</ele>
        <time>2026-08-21T12:09:16.000Z</time>
      </trkpt>
      <trkpt lat="45.29044" lon="6.07159">
        <ele>1088.4000244141</ele>
        <time>2026-08-21T12:09:17.000Z</time>
      </trkpt>
      <trkpt lat="45.29043" lon="6.07164">
        <ele>1088</ele>
        <time>2026-08-21T12:09:18.000Z</time>
      </trkpt>
      <trkpt lat="45.29043" lon="6.07168">
        <ele>1087.5999755859</ele>
        <time>2026-08-21T12:09:19.000Z</time>
      </trkpt>
      <trkpt lat="45.29042" lon="6.07172">
        <ele>1087</ele>
        <time>2026-08-21T12:09:20.000Z</time>
      </trkpt>
      <trkpt lat="45.29042" lon="6.07176">
        <ele>1085.5999755859</ele>
        <time>2026-08-21T12:09:21.000Z</time>
      </trkpt>
      <trkpt lat="45.29042" lon="6.0718">
        <ele>1084.8000488281</ele>
        <time>2026-08-21T12:09:22.000Z</time>
      </trkpt>
      <trkpt lat="45.29043" lon="6.07184">
        <ele>1084</ele>
        <time>2026-08-21T12:09:23.000Z</time>
      </trkpt>
      <trkpt lat="45.29044" lon="6.07187">
        <ele>1083.4000244141</ele>
        <time>2026-08-21T12:09:24.000Z</time>
      </trkpt>
      <trkpt lat="45.29045" lon="6.07192">
        <ele>1083.1999511719</ele>
        <time>2026-08-21T12:09:25.000Z</time>
      </trkpt>
      <trkpt lat="45.29045" lon="6.07196">
        <ele>1082.8000488281</ele>
        <time>2026-08-21T12:09:26.000Z</time>
      </trkpt>
      <trkpt lat="45.29047" lon="6.072">
        <ele>1082.4000244141</ele>
        <time>2026-08-21T12:09:27.000Z</time>
      </trkpt>
      <trkpt lat="45.29048" lon="6.07204">
        <ele>1081.8000488281</ele>
        <time>2026-08-21T12:09:28.000Z</time>
      </trkpt>
      <trkpt lat="45.29049" lon="6.07207">
        <ele>1081.5999755859</ele>
        <time>2026-08-21T12:09:29.000Z</time>
      </trkpt>
      <trkpt lat="45.29051" lon="6.07211">
        <ele>1081.4000244141</ele>
        <time>2026-08-21T12:09:30.000Z</time>
      </trkpt>
      <trkpt lat="45.29052" lon="6.07214">
        <ele>1081.1999511719</ele>
        <time>2026-08-21T12:09:31.000Z</time>
      </trkpt>
      <trkpt lat="45.29053" lon="6.07218">
        <ele>1080.8000488281</ele>
        <time>2026-08-21T12:09:32.000Z</time>
      </trkpt>
      <trkpt lat="45.29055" lon="6.07222">
        <ele>1080.8000488281</ele>
        <time>2026-08-21T12:09:33.000Z</time>
      </trkpt>
      <trkpt lat="45.29056" lon="6.07227">
        <ele>1080.4000244141</ele>
        <time>2026-08-21T12:09:34.000Z</time>
      </trkpt>
      <trkpt lat="45.29058" lon="6.07231">
        <ele>1080</ele>
        <time>2026-08-21T12:09:35.000Z</time>
      </trkpt>
      <trkpt lat="45.29059" lon="6.07234">
        <ele>1079.5999755859</ele>
        <time>2026-08-21T12:09:36.000Z</time>
      </trkpt>
      <trkpt lat="45.2906" lon="6.07239">
        <ele>1079</ele>
        <time>2026-08-21T12:09:37.000Z</time>
      </trkpt>
      <trkpt lat="45.2906" lon="6.07243">
        <ele>1077.4000244141</ele>
        <time>2026-08-21T12:09:38.000Z</time>
      </trkpt>
      <trkpt lat="45.29059" lon="6.07248">
        <ele>1076.5999755859</ele>
        <time>2026-08-21T12:09:39.000Z</time>
      </trkpt>
      <trkpt lat="45.29056" lon="6.0725">
        <ele>1076</ele>
        <time>2026-08-21T12:09:40.000Z</time>
      </trkpt>
      <trkpt lat="45.29053" lon="6.0725">
        <ele>1075</ele>
        <time>2026-08-21T12:09:41.000Z</time>
      </trkpt>
      <trkpt lat="45.2905" lon="6.0725">
        <ele>1074.5999755859</ele>
        <time>2026-08-21T12:09:42.000Z</time>
      </trkpt>
      <trkpt lat="45.29046" lon="6.07249">
        <ele>1074.1999511719</ele>
        <time>2026-08-21T12:09:43.000Z</time>
      </trkpt>
      <trkpt lat="45.29044" lon="6.07248">
        <ele>1071.8000488281</ele>
        <time>2026-08-21T12:09:44.000Z</time>
      </trkpt>
      <trkpt lat="45.29041" lon="6.07246">
        <ele>1071</ele>
        <time>2026-08-21T12:09:45.000Z</time>
      </trkpt>
      <trkpt lat="45.29038" lon="6.07245">
        <ele>1070.1999511719</ele>
        <time>2026-08-21T12:09:46.000Z</time>
      </trkpt>
      <trkpt lat="45.29036" lon="6.07245">
        <ele>1070</ele>
        <time>2026-08-21T12:09:47.000Z</time>
      </trkpt>
      <trkpt lat="45.29033" lon="6.07243">
        <ele>1070.4000244141</ele>
        <time>2026-08-21T12:09:48.000Z</time>
      </trkpt>
      <trkpt lat="45.29031" lon="6.07242">
        <ele>1071.5999755859</ele>
        <time>2026-08-21T12:09:49.000Z</time>
      </trkpt>
      <trkpt lat="45.29028" lon="6.07241">
        <ele>1071.8000488281</ele>
        <time>2026-08-21T12:09:50.000Z</time>
      </trkpt>
      <trkpt lat="45.29025" lon="6.07239">
        <ele>1072.5999755859</ele>
        <time>2026-08-21T12:09:51.000Z</time>
      </trkpt>
      <trkpt lat="45.29023" lon="6.07238">
        <ele>1073.5999755859</ele>
        <time>2026-08-21T12:09:52.000Z</time>
      </trkpt>
      <trkpt lat="45.29021" lon="6.07237">
        <ele>1074.4000244141</ele>
        <time>2026-08-21T12:09:53.000Z</time>
      </trkpt>
      <trkpt lat="45.29019" lon="6.07236">
        <ele>1075</ele>
        <time>2026-08-21T12:09:54.000Z</time>
      </trkpt>
      <trkpt lat="45.29016" lon="6.07235">
        <ele>1075.1999511719</ele>
        <time>2026-08-21T12:09:55.000Z</time>
      </trkpt>
      <trkpt lat="45.29014" lon="6.07234">
        <ele>1075.8000488281</ele>
        <time>2026-08-21T12:09:56.000Z</time>
      </trkpt>
      <trkpt lat="45.29012" lon="6.07232">
        <ele>1076.1999511719</ele>
        <time>2026-08-21T12:09:57.000Z</time>
      </trkpt>
      <trkpt lat="45.29009" lon="6.07231">
        <ele>1076.8000488281</ele>
        <time>2026-08-21T12:09:58.000Z</time>
      </trkpt>
      <trkpt lat="45.29007" lon="6.07231">
        <ele>1077</ele>
        <time>2026-08-21T12:09:59.000Z</time>
      </trkpt>
      <trkpt lat="45.29004" lon="6.0723">
        <ele>1077.4000244141</ele>
        <time>2026-08-21T12:10:00.000Z</time>
      </trkpt>
      <trkpt lat="45.29002" lon="6.07229">
        <ele>1077.4000244141</ele>
        <time>2026-08-21T12:10:01.000Z</time>
      </trkpt>
      <trkpt lat="45.28999" lon="6.07229">
        <ele>1077.4000244141</ele>
        <time>2026-08-21T12:10:02.000Z</time>
      </trkpt>
      <trkpt lat="45.28997" lon="6.07229">
        <ele>1077.4000244141</ele>
        <time>2026-08-21T12:10:03.000Z</time>
      </trkpt>
      <trkpt lat="45.28995" lon="6.07229">
        <ele>1077.4000244141</ele>
        <time>2026-08-21T12:10:04.000Z</time>
      </trkpt>
      <trkpt lat="45.28992" lon="6.07229">
        <ele>1077.5999755859</ele>
        <time>2026-08-21T12:10:05.000Z</time>
      </trkpt>
      <trkpt lat="45.28989" lon="6.0723">
        <ele>1078</ele>
        <time>2026-08-21T12:10:06.000Z</time>
      </trkpt>
      <trkpt lat="45.28987" lon="6.0723">
        <ele>1078.1999511719</ele>
        <time>2026-08-21T12:10:07.000Z</time>
      </trkpt>
      <trkpt lat="45.28985" lon="6.07231">
        <ele>1078.8000488281</ele>
        <time>2026-08-21T12:10:08.000Z</time>
      </trkpt>
      <trkpt lat="45.28983" lon="6.07231">
        <ele>1079</ele>
        <time>2026-08-21T12:10:09.000Z</time>
      </trkpt>
      <trkpt lat="45.2898" lon="6.07231">
        <ele>1079.1999511719</ele>
        <time>2026-08-21T12:10:10.000Z</time>
      </trkpt>
      <trkpt lat="45.28978" lon="6.07232">
        <ele>1079.8000488281</ele>
        <time>2026-08-21T12:10:11.000Z</time>
      </trkpt>
      <trkpt lat="45.28975" lon="6.07232">
        <ele>1080</ele>
        <time>2026-08-21T12:10:12.000Z</time>
      </trkpt>
      <trkpt lat="45.28973" lon="6.07233">
        <ele>1079.8000488281</ele>
        <time>2026-08-21T12:10:13.000Z</time>
      </trkpt>
      <trkpt lat="45.28971" lon="6.07233">
        <ele>1079.8000488281</ele>
        <time>2026-08-21T12:10:14.000Z</time>
      </trkpt>
      <trkpt lat="45.28968" lon="6.07234">
        <ele>1079.5999755859</ele>
        <time>2026-08-21T12:10:15.000Z</time>
      </trkpt>
      <trkpt lat="45.28966" lon="6.07235">
        <ele>1079.5999755859</ele>
        <time>2026-08-21T12:10:16.000Z</time>
      </trkpt>
      <trkpt lat="45.28964" lon="6.07235">
        <ele>1079.5999755859</ele>
        <time>2026-08-21T12:10:17.000Z</time>
      </trkpt>
      <trkpt lat="45.28961" lon="6.07234">
        <ele>1079.8000488281</ele>
        <time>2026-08-21T12:10:18.000Z</time>
      </trkpt>
      <trkpt lat="45.28958" lon="6.07234">
        <ele>1080</ele>
        <time>2026-08-21T12:10:19.000Z</time>
      </trkpt>
      <trkpt lat="45.28956" lon="6.07234">
        <ele>1080</ele>
        <time>2026-08-21T12:10:20.000Z</time>
      </trkpt>
      <trkpt lat="45.28953" lon="6.07234">
        <ele>1080.5999755859</ele>
        <time>2026-08-21T12:10:21.000Z</time>
      </trkpt>
      <trkpt lat="45.28951" lon="6.07233">
        <ele>1081</ele>
        <time>2026-08-21T12:10:22.000Z</time>
      </trkpt>
      <trkpt lat="45.28949" lon="6.07232">
        <ele>1081.1999511719</ele>
        <time>2026-08-21T12:10:23.000Z</time>
      </trkpt>
      <trkpt lat="45.28947" lon="6.07231">
        <ele>1081.4000244141</ele>
        <time>2026-08-21T12:10:24.000Z</time>
      </trkpt>
      <trkpt lat="45.28945" lon="6.0723">
        <ele>1081.5999755859</ele>
        <time>2026-08-21T12:10:25.000Z</time>
      </trkpt>
      <trkpt lat="45.28942" lon="6.07228">
        <ele>1081.8000488281</ele>
        <time>2026-08-21T12:10:26.000Z</time>
      </trkpt>
      <trkpt lat="45.2894" lon="6.07227">
        <ele>1081.8000488281</ele>
        <time>2026-08-21T12:10:27.000Z</time>
      </trkpt>
      <trkpt lat="45.28938" lon="6.07225">
        <ele>1082</ele>
        <time>2026-08-21T12:10:28.000Z</time>
      </trkpt>
      <trkpt lat="45.28936" lon="6.07223">
        <ele>1082</ele>
        <time>2026-08-21T12:10:29.000Z</time>
      </trkpt>
      <trkpt lat="45.28934" lon="6.07222">
        <ele>1082</ele>
        <time>2026-08-21T12:10:30.000Z</time>
      </trkpt>
      <trkpt lat="45.28931" lon="6.0722">
        <ele>1082</ele>
        <time>2026-08-21T12:10:31.000Z</time>
      </trkpt>
      <trkpt lat="45.28929" lon="6.07218">
        <ele>1082</ele>
        <time>2026-08-21T12:10:32.000Z</time>
      </trkpt>
      <trkpt lat="45.28927" lon="6.07216">
        <ele>1081.5999755859</ele>
        <time>2026-08-21T12:10:33.000Z</time>
      </trkpt>
      <trkpt lat="45.28924" lon="6.07213">
        <ele>1080.4000244141</ele>
        <time>2026-08-21T12:10:34.000Z</time>
      </trkpt>
      <trkpt lat="45.28922" lon="6.07211">
        <ele>1079.8000488281</ele>
        <time>2026-08-21T12:10:35.000Z</time>
      </trkpt>
      <trkpt lat="45.2892" lon="6.07208">
        <ele>1079.4000244141</ele>
        <time>2026-08-21T12:10:36.000Z</time>
      </trkpt>
      <trkpt lat="45.28918" lon="6.07205">
        <ele>1078.5999755859</ele>
        <time>2026-08-21T12:10:37.000Z</time>
      </trkpt>
      <trkpt lat="45.28916" lon="6.07202">
        <ele>1078.1999511719</ele>
        <time>2026-08-21T12:10:38.000Z</time>
      </trkpt>
      <trkpt lat="45.28914" lon="6.07199">
        <ele>1077.8000488281</ele>
        <time>2026-08-21T12:10:39.000Z</time>
      </trkpt>
      <trkpt lat="45.28912" lon="6.07196">
        <ele>1077</ele>
        <time>2026-08-21T12:10:40.000Z</time>
      </trkpt>
      <trkpt lat="45.2891" lon="6.07193">
        <ele>1076.8000488281</ele>
        <time>2026-08-21T12:10:41.000Z</time>
      </trkpt>
      <trkpt lat="45.28908" lon="6.0719">
        <ele>1076.5999755859</ele>
        <time>2026-08-21T12:10:42.000Z</time>
      </trkpt>
      <trkpt lat="45.28907" lon="6.07187">
        <ele>1076.5999755859</ele>
        <time>2026-08-21T12:10:43.000Z</time>
      </trkpt>
      <trkpt lat="45.28905" lon="6.07183">
        <ele>1076.4000244141</ele>
        <time>2026-08-21T12:10:44.000Z</time>
      </trkpt>
      <trkpt lat="45.28904" lon="6.07179">
        <ele>1076.1999511719</ele>
        <time>2026-08-21T12:10:45.000Z</time>
      </trkpt>
      <trkpt lat="45.28903" lon="6.07176">
        <ele>1076.1999511719</ele>
        <time>2026-08-21T12:10:46.000Z</time>
      </trkpt>
      <trkpt lat="45.28901" lon="6.07172">
        <ele>1076.1999511719</ele>
        <time>2026-08-21T12:10:47.000Z</time>
      </trkpt>
      <trkpt lat="45.28899" lon="6.07169">
        <ele>1076.4000244141</ele>
        <time>2026-08-21T12:10:48.000Z</time>
      </trkpt>
      <trkpt lat="45.28898" lon="6.07166">
        <ele>1076.4000244141</ele>
        <time>2026-08-21T12:10:49.000Z</time>
      </trkpt>
      <trkpt lat="45.28896" lon="6.07162">
        <ele>1076.4000244141</ele>
        <time>2026-08-21T12:10:50.000Z</time>
      </trkpt>
      <trkpt lat="45.28895" lon="6.0716">
        <ele>1076.4000244141</ele>
        <time>2026-08-21T12:10:51.000Z</time>
      </trkpt>
      <trkpt lat="45.28893" lon="6.07157">
        <ele>1076.4000244141</ele>
        <time>2026-08-21T12:10:52.000Z</time>
      </trkpt>
      <trkpt lat="45.28891" lon="6.07154">
        <ele>1076.1999511719</ele>
        <time>2026-08-21T12:10:53.000Z</time>
      </trkpt>
      <trkpt lat="45.28889" lon="6.07151">
        <ele>1076.1999511719</ele>
        <time>2026-08-21T12:10:54.000Z</time>
      </trkpt>
      <trkpt lat="45.28887" lon="6.07147">
        <ele>1076.1999511719</ele>
        <time>2026-08-21T12:10:55.000Z</time>
      </trkpt>
      <trkpt lat="45.28885" lon="6.07144">
        <ele>1076.1999511719</ele>
        <time>2026-08-21T12:10:56.000Z</time>
      </trkpt>
      <trkpt lat="45.28883" lon="6.07141">
        <ele>1076.4000244141</ele>
        <time>2026-08-21T12:10:57.000Z</time>
      </trkpt>
      <trkpt lat="45.28881" lon="6.07139">
        <ele>1077</ele>
        <time>2026-08-21T12:10:58.000Z</time>
      </trkpt>
      <trkpt lat="45.28879" lon="6.07139">
        <ele>1077.4000244141</ele>
        <time>2026-08-21T12:10:59.000Z</time>
      </trkpt>
      <trkpt lat="45.28876" lon="6.0714">
        <ele>1077.4000244141</ele>
        <time>2026-08-21T12:11:00.000Z</time>
      </trkpt>
      <trkpt lat="45.28874" lon="6.07142">
        <ele>1077.5999755859</ele>
        <time>2026-08-21T12:11:01.000Z</time>
      </trkpt>
      <trkpt lat="45.28873" lon="6.07144">
        <ele>1077.1999511719</ele>
        <time>2026-08-21T12:11:02.000Z</time>
      </trkpt>
      <trkpt lat="45.28871" lon="6.07146">
        <ele>1076.1999511719</ele>
        <time>2026-08-21T12:11:03.000Z</time>
      </trkpt>
      <trkpt lat="45.28869" lon="6.07147">
        <ele>1075.5999755859</ele>
        <time>2026-08-21T12:11:04.000Z</time>
      </trkpt>
      <trkpt lat="45.28867" lon="6.07151">
        <ele>1074.5999755859</ele>
        <time>2026-08-21T12:11:05.000Z</time>
      </trkpt>
      <trkpt lat="45.28866" lon="6.07153">
        <ele>1074</ele>
        <time>2026-08-21T12:11:06.000Z</time>
      </trkpt>
      <trkpt lat="45.28863" lon="6.07156">
        <ele>1073</ele>
        <time>2026-08-21T12:11:07.000Z</time>
      </trkpt>
      <trkpt lat="45.28862" lon="6.07159">
        <ele>1072.8000488281</ele>
        <time>2026-08-21T12:11:08.000Z</time>
      </trkpt>
      <trkpt lat="45.2886" lon="6.07163">
        <ele>1072.4000244141</ele>
        <time>2026-08-21T12:11:09.000Z</time>
      </trkpt>
      <trkpt lat="45.28857" lon="6.07166">
        <ele>1072.4000244141</ele>
        <time>2026-08-21T12:11:10.000Z</time>
      </trkpt>
      <trkpt lat="45.28855" lon="6.07168">
        <ele>1072.5999755859</ele>
        <time>2026-08-21T12:11:11.000Z</time>
      </trkpt>
      <trkpt lat="45.28853" lon="6.07171">
        <ele>1072.4000244141</ele>
        <time>2026-08-21T12:11:12.000Z</time>
      </trkpt>
      <trkpt lat="45.2885" lon="6.07173">
        <ele>1072</ele>
        <time>2026-08-21T12:11:13.000Z</time>
      </trkpt>
      <trkpt lat="45.28848" lon="6.07176">
        <ele>1071.8000488281</ele>
        <time>2026-08-21T12:11:14.000Z</time>
      </trkpt>
      <trkpt lat="45.28845" lon="6.07178">
        <ele>1071.4000244141</ele>
        <time>2026-08-21T12:11:15.000Z</time>
      </trkpt>
      <trkpt lat="45.28843" lon="6.0718">
        <ele>1071.1999511719</ele>
        <time>2026-08-21T12:11:16.000Z</time>
      </trkpt>
      <trkpt lat="45.28841" lon="6.07183">
        <ele>1071</ele>
        <time>2026-08-21T12:11:17.000Z</time>
      </trkpt>
      <trkpt lat="45.28838" lon="6.07186">
        <ele>1070.4000244141</ele>
        <time>2026-08-21T12:11:18.000Z</time>
      </trkpt>
      <trkpt lat="45.28836" lon="6.07189">
        <ele>1070.4000244141</ele>
        <time>2026-08-21T12:11:19.000Z</time>
      </trkpt>
      <trkpt lat="45.28834" lon="6.07192">
        <ele>1069.4000244141</ele>
        <time>2026-08-21T12:11:20.000Z</time>
      </trkpt>
      <trkpt lat="45.28831" lon="6.07194">
        <ele>1069.1999511719</ele>
        <time>2026-08-21T12:11:21.000Z</time>
      </trkpt>
      <trkpt lat="45.28829" lon="6.07197">
        <ele>1068.4000244141</ele>
        <time>2026-08-21T12:11:22.000Z</time>
      </trkpt>
      <trkpt lat="45.28826" lon="6.072">
        <ele>1068</ele>
        <time>2026-08-21T12:11:23.000Z</time>
      </trkpt>
      <trkpt lat="45.28824" lon="6.07203">
        <ele>1068</ele>
        <time>2026-08-21T12:11:24.000Z</time>
      </trkpt>
      <trkpt lat="45.28822" lon="6.07206">
        <ele>1067.8000488281</ele>
        <time>2026-08-21T12:11:25.000Z</time>
      </trkpt>
      <trkpt lat="45.28819" lon="6.07208">
        <ele>1067.5999755859</ele>
        <time>2026-08-21T12:11:26.000Z</time>
      </trkpt>
      <trkpt lat="45.28817" lon="6.07211">
        <ele>1067.4000244141</ele>
        <time>2026-08-21T12:11:27.000Z</time>
      </trkpt>
      <trkpt lat="45.28814" lon="6.07213">
        <ele>1066.8000488281</ele>
        <time>2026-08-21T12:11:28.000Z</time>
      </trkpt>
      <trkpt lat="45.2881" lon="6.07215">
        <ele>1066</ele>
        <time>2026-08-21T12:11:29.000Z</time>
      </trkpt>
      <trkpt lat="45.28807" lon="6.07215">
        <ele>1065.4000244141</ele>
        <time>2026-08-21T12:11:30.000Z</time>
      </trkpt>
      <trkpt lat="45.28803" lon="6.07215">
        <ele>1065</ele>
        <time>2026-08-21T12:11:31.000Z</time>
      </trkpt>
      <trkpt lat="45.28799" lon="6.07215">
        <ele>1064.5999755859</ele>
        <time>2026-08-21T12:11:32.000Z</time>
      </trkpt>
      <trkpt lat="45.28796" lon="6.07215">
        <ele>1064.4000244141</ele>
        <time>2026-08-21T12:11:33.000Z</time>
      </trkpt>
      <trkpt lat="45.28792" lon="6.07216">
        <ele>1064</ele>
        <time>2026-08-21T12:11:34.000Z</time>
      </trkpt>
      <trkpt lat="45.28789" lon="6.07217">
        <ele>1063.4000244141</ele>
        <time>2026-08-21T12:11:35.000Z</time>
      </trkpt>
      <trkpt lat="45.28786" lon="6.07217">
        <ele>1063.1999511719</ele>
        <time>2026-08-21T12:11:36.000Z</time>
      </trkpt>
      <trkpt lat="45.28783" lon="6.07218">
        <ele>1062.4000244141</ele>
        <time>2026-08-21T12:11:37.000Z</time>
      </trkpt>
      <trkpt lat="45.28781" lon="6.0722">
        <ele>1062.4000244141</ele>
        <time>2026-08-21T12:11:38.000Z</time>
      </trkpt>
      <trkpt lat="45.28778" lon="6.07221">
        <ele>1062</ele>
        <time>2026-08-21T12:11:39.000Z</time>
      </trkpt>
      <trkpt lat="45.28775" lon="6.07223">
        <ele>1062</ele>
        <time>2026-08-21T12:11:40.000Z</time>
      </trkpt>
      <trkpt lat="45.28772" lon="6.07225">
        <ele>1062</ele>
        <time>2026-08-21T12:11:41.000Z</time>
      </trkpt>
      <trkpt lat="45.28769" lon="6.07227">
        <ele>1061.8000488281</ele>
        <time>2026-08-21T12:11:42.000Z</time>
      </trkpt>
      <trkpt lat="45.28767" lon="6.07229">
        <ele>1061.5999755859</ele>
        <time>2026-08-21T12:11:43.000Z</time>
      </trkpt>
      <trkpt lat="45.28763" lon="6.07231">
        <ele>1061.4000244141</ele>
        <time>2026-08-21T12:11:44.000Z</time>
      </trkpt>
      <trkpt lat="45.28761" lon="6.07234">
        <ele>1061.1999511719</ele>
        <time>2026-08-21T12:11:45.000Z</time>
      </trkpt>
      <trkpt lat="45.28758" lon="6.07237">
        <ele>1061</ele>
        <time>2026-08-21T12:11:46.000Z</time>
      </trkpt>
      <trkpt lat="45.28756" lon="6.07239">
        <ele>1060.8000488281</ele>
        <time>2026-08-21T12:11:47.000Z</time>
      </trkpt>
      <trkpt lat="45.28753" lon="6.07242">
        <ele>1060.5999755859</ele>
        <time>2026-08-21T12:11:48.000Z</time>
      </trkpt>
      <trkpt lat="45.2875" lon="6.07244">
        <ele>1060</ele>
        <time>2026-08-21T12:11:49.000Z</time>
      </trkpt>
      <trkpt lat="45.28747" lon="6.07247">
        <ele>1059.8000488281</ele>
        <time>2026-08-21T12:11:50.000Z</time>
      </trkpt>
      <trkpt lat="45.28745" lon="6.0725">
        <ele>1059.4000244141</ele>
        <time>2026-08-21T12:11:51.000Z</time>
      </trkpt>
      <trkpt lat="45.28742" lon="6.07253">
        <ele>1059</ele>
        <time>2026-08-21T12:11:52.000Z</time>
      </trkpt>
      <trkpt lat="45.28739" lon="6.07255">
        <ele>1058.5999755859</ele>
        <time>2026-08-21T12:11:53.000Z</time>
      </trkpt>
      <trkpt lat="45.28736" lon="6.07257">
        <ele>1058</ele>
        <time>2026-08-21T12:11:54.000Z</time>
      </trkpt>
      <trkpt lat="45.28733" lon="6.0726">
        <ele>1057.5999755859</ele>
        <time>2026-08-21T12:11:55.000Z</time>
      </trkpt>
      <trkpt lat="45.2873" lon="6.07262">
        <ele>1057</ele>
        <time>2026-08-21T12:11:56.000Z</time>
      </trkpt>
      <trkpt lat="45.28727" lon="6.07264">
        <ele>1057</ele>
        <time>2026-08-21T12:11:57.000Z</time>
      </trkpt>
      <trkpt lat="45.28724" lon="6.07266">
        <ele>1056.8000488281</ele>
        <time>2026-08-21T12:11:58.000Z</time>
      </trkpt>
      <trkpt lat="45.28721" lon="6.07268">
        <ele>1056.5999755859</ele>
        <time>2026-08-21T12:11:59.000Z</time>
      </trkpt>
      <trkpt lat="45.28718" lon="6.07271">
        <ele>1056.4000244141</ele>
        <time>2026-08-21T12:12:00.000Z</time>
      </trkpt>
      <trkpt lat="45.28716" lon="6.07273">
        <ele>1056.4000244141</ele>
        <time>2026-08-21T12:12:01.000Z</time>
      </trkpt>
      <trkpt lat="45.28712" lon="6.07275">
        <ele>1056.4000244141</ele>
        <time>2026-08-21T12:12:02.000Z</time>
      </trkpt>
      <trkpt lat="45.2871" lon="6.07278">
        <ele>1056.1999511719</ele>
        <time>2026-08-21T12:12:03.000Z</time>
      </trkpt>
      <trkpt lat="45.28707" lon="6.0728">
        <ele>1056.1999511719</ele>
        <time>2026-08-21T12:12:04.000Z</time>
      </trkpt>
      <trkpt lat="45.28704" lon="6.07283">
        <ele>1055.8000488281</ele>
        <time>2026-08-21T12:12:05.000Z</time>
      </trkpt>
      <trkpt lat="45.28701" lon="6.07285">
        <ele>1055.4000244141</ele>
        <time>2026-08-21T12:12:06.000Z</time>
      </trkpt>
      <trkpt lat="45.28698" lon="6.07287">
        <ele>1054.8000488281</ele>
        <time>2026-08-21T12:12:07.000Z</time>
      </trkpt>
      <trkpt lat="45.28696" lon="6.0729">
        <ele>1054.1999511719</ele>
        <time>2026-08-21T12:12:08.000Z</time>
      </trkpt>
      <trkpt lat="45.28693" lon="6.07293">
        <ele>1053.5999755859</ele>
        <time>2026-08-21T12:12:09.000Z</time>
      </trkpt>
      <trkpt lat="45.28691" lon="6.07296">
        <ele>1052</ele>
        <time>2026-08-21T12:12:10.000Z</time>
      </trkpt>
      <trkpt lat="45.28688" lon="6.07299">
        <ele>1051.8000488281</ele>
        <time>2026-08-21T12:12:11.000Z</time>
      </trkpt>
      <trkpt lat="45.28686" lon="6.07302">
        <ele>1051.5999755859</ele>
        <time>2026-08-21T12:12:12.000Z</time>
      </trkpt>
      <trkpt lat="45.28684" lon="6.07305">
        <ele>1051.5999755859</ele>
        <time>2026-08-21T12:12:13.000Z</time>
      </trkpt>
      <trkpt lat="45.28682" lon="6.07309">
        <ele>1051.4000244141</ele>
        <time>2026-08-21T12:12:14.000Z</time>
      </trkpt>
      <trkpt lat="45.2868" lon="6.07312">
        <ele>1051.1999511719</ele>
        <time>2026-08-21T12:12:15.000Z</time>
      </trkpt>
      <trkpt lat="45.28678" lon="6.07316">
        <ele>1051.1999511719</ele>
        <time>2026-08-21T12:12:16.000Z</time>
      </trkpt>
      <trkpt lat="45.28676" lon="6.07319">
        <ele>1050.8000488281</ele>
        <time>2026-08-21T12:12:17.000Z</time>
      </trkpt>
      <trkpt lat="45.28674" lon="6.07322">
        <ele>1050.8000488281</ele>
        <time>2026-08-21T12:12:18.000Z</time>
      </trkpt>
      <trkpt lat="45.28672" lon="6.07326">
        <ele>1050.5999755859</ele>
        <time>2026-08-21T12:12:19.000Z</time>
      </trkpt>
      <trkpt lat="45.2867" lon="6.07329">
        <ele>1050.8000488281</ele>
        <time>2026-08-21T12:12:20.000Z</time>
      </trkpt>
      <trkpt lat="45.28667" lon="6.07332">
        <ele>1050.8000488281</ele>
        <time>2026-08-21T12:12:21.000Z</time>
      </trkpt>
      <trkpt lat="45.28665" lon="6.07335">
        <ele>1050.8000488281</ele>
        <time>2026-08-21T12:12:22.000Z</time>
      </trkpt>
      <trkpt lat="45.28663" lon="6.07339">
        <ele>1051</ele>
        <time>2026-08-21T12:12:23.000Z</time>
      </trkpt>
      <trkpt lat="45.28661" lon="6.07342">
        <ele>1051.1999511719</ele>
        <time>2026-08-21T12:12:24.000Z</time>
      </trkpt>
      <trkpt lat="45.28657" lon="6.07345">
        <ele>1051.1999511719</ele>
        <time>2026-08-21T12:12:25.000Z</time>
      </trkpt>
      <trkpt lat="45.28654" lon="6.07347">
        <ele>1051.4000244141</ele>
        <time>2026-08-21T12:12:26.000Z</time>
      </trkpt>
      <trkpt lat="45.28651" lon="6.0735">
        <ele>1051.5999755859</ele>
        <time>2026-08-21T12:12:27.000Z</time>
      </trkpt>
      <trkpt lat="45.28648" lon="6.07353">
        <ele>1051.4000244141</ele>
        <time>2026-08-21T12:12:28.000Z</time>
      </trkpt>
      <trkpt lat="45.28646" lon="6.07356">
        <ele>1051.4000244141</ele>
        <time>2026-08-21T12:12:29.000Z</time>
      </trkpt>
      <trkpt lat="45.28643" lon="6.07359">
        <ele>1051.1999511719</ele>
        <time>2026-08-21T12:12:30.000Z</time>
      </trkpt>
      <trkpt lat="45.2864" lon="6.07362">
        <ele>1051</ele>
        <time>2026-08-21T12:12:31.000Z</time>
      </trkpt>
      <trkpt lat="45.28638" lon="6.07365">
        <ele>1050.8000488281</ele>
        <time>2026-08-21T12:12:32.000Z</time>
      </trkpt>
      <trkpt lat="45.28635" lon="6.07368">
        <ele>1050</ele>
        <time>2026-08-21T12:12:33.000Z</time>
      </trkpt>
      <trkpt lat="45.28633" lon="6.07372">
        <ele>1049.8000488281</ele>
        <time>2026-08-21T12:12:34.000Z</time>
      </trkpt>
      <trkpt lat="45.2863" lon="6.07374">
        <ele>1049.8000488281</ele>
        <time>2026-08-21T12:12:35.000Z</time>
      </trkpt>
      <trkpt lat="45.28627" lon="6.07376">
        <ele>1049.8000488281</ele>
        <time>2026-08-21T12:12:36.000Z</time>
      </trkpt>
      <trkpt lat="45.28624" lon="6.07379">
        <ele>1050</ele>
        <time>2026-08-21T12:12:37.000Z</time>
      </trkpt>
      <trkpt lat="45.28621" lon="6.0738">
        <ele>1049.8000488281</ele>
        <time>2026-08-21T12:12:38.000Z</time>
      </trkpt>
      <trkpt lat="45.28618" lon="6.07382">
        <ele>1050</ele>
        <time>2026-08-21T12:12:39.000Z</time>
      </trkpt>
      <trkpt lat="45.28614" lon="6.07383">
        <ele>1049.8000488281</ele>
        <time>2026-08-21T12:12:40.000Z</time>
      </trkpt>
      <trkpt lat="45.28612" lon="6.07384">
        <ele>1049.4000244141</ele>
        <time>2026-08-21T12:12:41.000Z</time>
      </trkpt>
      <trkpt lat="45.28608" lon="6.07386">
        <ele>1049.1999511719</ele>
        <time>2026-08-21T12:12:42.000Z</time>
      </trkpt>
      <trkpt lat="45.28605" lon="6.07388">
        <ele>1049</ele>
        <time>2026-08-21T12:12:43.000Z</time>
      </trkpt>
      <trkpt lat="45.28602" lon="6.0739">
        <ele>1049</ele>
        <time>2026-08-21T12:12:44.000Z</time>
      </trkpt>
      <trkpt lat="45.28599" lon="6.07392">
        <ele>1048.8000488281</ele>
        <time>2026-08-21T12:12:45.000Z</time>
      </trkpt>
      <trkpt lat="45.28597" lon="6.07395">
        <ele>1048.5999755859</ele>
        <time>2026-08-21T12:12:46.000Z</time>
      </trkpt>
      <trkpt lat="45.28595" lon="6.07399">
        <ele>1048.5999755859</ele>
        <time>2026-08-21T12:12:47.000Z</time>
      </trkpt>
      <trkpt lat="45.28594" lon="6.07402">
        <ele>1048.5999755859</ele>
        <time>2026-08-21T12:12:48.000Z</time>
      </trkpt>
      <trkpt lat="45.28593" lon="6.07406">
        <ele>1048.5999755859</ele>
        <time>2026-08-21T12:12:49.000Z</time>
      </trkpt>
      <trkpt lat="45.28592" lon="6.07411">
        <ele>1047.8000488281</ele>
        <time>2026-08-21T12:12:50.000Z</time>
      </trkpt>
      <trkpt lat="45.28591" lon="6.07415">
        <ele>1047.5999755859</ele>
        <time>2026-08-21T12:12:51.000Z</time>
      </trkpt>
      <trkpt lat="45.28591" lon="6.0742">
        <ele>1046.8000488281</ele>
        <time>2026-08-21T12:12:52.000Z</time>
      </trkpt>
      <trkpt lat="45.28591" lon="6.07424">
        <ele>1046.4000244141</ele>
        <time>2026-08-21T12:12:53.000Z</time>
      </trkpt>
      <trkpt lat="45.28591" lon="6.07429">
        <ele>1046</ele>
        <time>2026-08-21T12:12:54.000Z</time>
      </trkpt>
      <trkpt lat="45.28591" lon="6.07433">
        <ele>1045.5999755859</ele>
        <time>2026-08-21T12:12:55.000Z</time>
      </trkpt>
      <trkpt lat="45.28591" lon="6.07437">
        <ele>1045.4000244141</ele>
        <time>2026-08-21T12:12:56.000Z</time>
      </trkpt>
      <trkpt lat="45.28591" lon="6.07442">
        <ele>1045.4000244141</ele>
        <time>2026-08-21T12:12:57.000Z</time>
      </trkpt>
      <trkpt lat="45.28591" lon="6.07446">
        <ele>1045.1999511719</ele>
        <time>2026-08-21T12:12:58.000Z</time>
      </trkpt>
      <trkpt lat="45.2859" lon="6.0745">
        <ele>1045.4000244141</ele>
        <time>2026-08-21T12:12:59.000Z</time>
      </trkpt>
      <trkpt lat="45.28588" lon="6.07454">
        <ele>1045.4000244141</ele>
        <time>2026-08-21T12:13:00.000Z</time>
      </trkpt>
      <trkpt lat="45.28585" lon="6.07457">
        <ele>1045.4000244141</ele>
        <time>2026-08-21T12:13:01.000Z</time>
      </trkpt>
      <trkpt lat="45.28583" lon="6.07459">
        <ele>1045.8000488281</ele>
        <time>2026-08-21T12:13:02.000Z</time>
      </trkpt>
      <trkpt lat="45.2858" lon="6.07462">
        <ele>1045.8000488281</ele>
        <time>2026-08-21T12:13:03.000Z</time>
      </trkpt>
      <trkpt lat="45.28578" lon="6.07465">
        <ele>1046</ele>
        <time>2026-08-21T12:13:04.000Z</time>
      </trkpt>
      <trkpt lat="45.28575" lon="6.07467">
        <ele>1046.1999511719</ele>
        <time>2026-08-21T12:13:05.000Z</time>
      </trkpt>
      <trkpt lat="45.28572" lon="6.07469">
        <ele>1046.1999511719</ele>
        <time>2026-08-21T12:13:06.000Z</time>
      </trkpt>
      <trkpt lat="45.28569" lon="6.07471">
        <ele>1046.4000244141</ele>
        <time>2026-08-21T12:13:07.000Z</time>
      </trkpt>
      <trkpt lat="45.28565" lon="6.07473">
        <ele>1046.8000488281</ele>
        <time>2026-08-21T12:13:08.000Z</time>
      </trkpt>
      <trkpt lat="45.28563" lon="6.07474">
        <ele>1047.1999511719</ele>
        <time>2026-08-21T12:13:09.000Z</time>
      </trkpt>
      <trkpt lat="45.28559" lon="6.07476">
        <ele>1047.4000244141</ele>
        <time>2026-08-21T12:13:10.000Z</time>
      </trkpt>
      <trkpt lat="45.28556" lon="6.07478">
        <ele>1047.5999755859</ele>
        <time>2026-08-21T12:13:11.000Z</time>
      </trkpt>
      <trkpt lat="45.28553" lon="6.07479">
        <ele>1047.8000488281</ele>
        <time>2026-08-21T12:13:12.000Z</time>
      </trkpt>
      <trkpt lat="45.2855" lon="6.07481">
        <ele>1047.8000488281</ele>
        <time>2026-08-21T12:13:13.000Z</time>
      </trkpt>
      <trkpt lat="45.28547" lon="6.07482">
        <ele>1047.8000488281</ele>
        <time>2026-08-21T12:13:14.000Z</time>
      </trkpt>
      <trkpt lat="45.28544" lon="6.07484">
        <ele>1047.8000488281</ele>
        <time>2026-08-21T12:13:15.000Z</time>
      </trkpt>
      <trkpt lat="45.28541" lon="6.07486">
        <ele>1048</ele>
        <time>2026-08-21T12:13:16.000Z</time>
      </trkpt>
      <trkpt lat="45.28539" lon="6.07488">
        <ele>1048</ele>
        <time>2026-08-21T12:13:17.000Z</time>
      </trkpt>
      <trkpt lat="45.28537" lon="6.07491">
        <ele>1048.1999511719</ele>
        <time>2026-08-21T12:13:18.000Z</time>
      </trkpt>
      <trkpt lat="45.28537" lon="6.07494">
        <ele>1048.1999511719</ele>
        <time>2026-08-21T12:13:19.000Z</time>
      </trkpt>
      <trkpt lat="45.28538" lon="6.07497">
        <ele>1048.4000244141</ele>
        <time>2026-08-21T12:13:20.000Z</time>
      </trkpt>
      <trkpt lat="45.2854" lon="6.07498">
        <ele>1048.1999511719</ele>
        <time>2026-08-21T12:13:21.000Z</time>
      </trkpt>
      <trkpt lat="45.28543" lon="6.07501">
        <ele>1048</ele>
        <time>2026-08-21T12:13:22.000Z</time>
      </trkpt>
      <trkpt lat="45.28546" lon="6.07502">
        <ele>1048</ele>
        <time>2026-08-21T12:13:23.000Z</time>
      </trkpt>
      <trkpt lat="45.28549" lon="6.07502">
        <ele>1048</ele>
        <time>2026-08-21T12:13:24.000Z</time>
      </trkpt>
      <trkpt lat="45.28552" lon="6.07501">
        <ele>1047.8000488281</ele>
        <time>2026-08-21T12:13:25.000Z</time>
      </trkpt>
      <trkpt lat="45.28555" lon="6.07501">
        <ele>1047.4000244141</ele>
        <time>2026-08-21T12:13:26.000Z</time>
      </trkpt>
      <trkpt lat="45.28557" lon="6.075">
        <ele>1047.1999511719</ele>
        <time>2026-08-21T12:13:27.000Z</time>
      </trkpt>
      <trkpt lat="45.2856" lon="6.07499">
        <ele>1046.8000488281</ele>
        <time>2026-08-21T12:13:28.000Z</time>
      </trkpt>
      <trkpt lat="45.28563" lon="6.07498">
        <ele>1046.1999511719</ele>
        <time>2026-08-21T12:13:29.000Z</time>
      </trkpt>
      <trkpt lat="45.28565" lon="6.07497">
        <ele>1045.4000244141</ele>
        <time>2026-08-21T12:13:30.000Z</time>
      </trkpt>
      <trkpt lat="45.28566" lon="6.07498">
        <ele>1045</ele>
        <time>2026-08-21T12:13:31.000Z</time>
      </trkpt>
      <trkpt lat="45.28568" lon="6.07499">
        <ele>1045</ele>
        <time>2026-08-21T12:13:32.000Z</time>
      </trkpt>
      <trkpt lat="45.2857" lon="6.07501">
        <ele>1046.5</ele>
        <time>2026-08-21T12:13:33.000Z</time>
      </trkpt>
    </trkseg>
  </trk>
</gpx>